<?xml version="1.0" encoding="ISO-8859-1" standalone="no"?>
<gpx xmlns="http://www.topografix.com/GPX/1/1" xmlns:gpxtpx="http://www.garmin.com/xmlschemas/TrackPointExtension/v1" xmlns:gpxx="http://www.garmin.com/xmlschemas/GpxExtensions/v3" xmlns:xsi="http://www.w3.org/2001/XMLSchema-instance" creator="www.bikeXperience.de" version="1.1" xsi:schemaLocation="http://www.topografix.com/GPX/1/1 http://www.topografix.com/GPX/1/1/gpx.xsd http://www.garmin.com/xmlschemas/GpxExtensions/v3 http://www.garmin.com/xmlschemas/GpxExtensionsv3.xsd http://www.garmin.com/xmlschemas/TrackPointExtension/v1 http://www.garmin.com/xmlschemas/TrackPointExtensionv1.xsd">
<metadata>
<time>2012-03-03T14:57:56Z</time>
<name>2012-03-03-10-52-15</name>
</metadata>
<trk>
<name>2012-03-03-10-52-15</name>
<trkseg>
<trkpt lat="47.58942889049649" lon="12.174300625920296">
<ele>496</ele>
<time>2012-03-03T09:52:15Z</time>
<extensions>
<gpxtpx:TrackPointExtension>
<gpxtpx:hr>92</gpxtpx:hr>
<gpxtpx:atemp>0</gpxtpx:atemp>
</gpxtpx:TrackPointExtension>
</extensions>
</trkpt>
<trkpt lat="47.58942889049649" lon="12.174300625920296">
<ele>496</ele>
<time>2012-03-03T09:52:16Z</time>
<extensions>
<gpxtpx:TrackPointExtension>
<gpxtpx:hr>88</gpxtpx:hr>
<gpxtpx:atemp>0</gpxtpx:atemp>
</gpxtpx:TrackPointExtension>
</extensions>
</trkpt>
<trkpt lat="47.589445654302835" lon="12.17433113604784">
<ele>496</ele>
<time>2012-03-03T09:52:23Z</time>
<extensions>
<gpxtpx:TrackPointExtension>
<gpxtpx:hr>91</gpxtpx:hr>
<gpxtpx:atemp>20</gpxtpx:atemp>
</gpxtpx:TrackPointExtension>
</extensions>
</trkpt>
<trkpt lat="47.589456802234054" lon="12.17434630729258">
<ele>496</ele>
<time>2012-03-03T09:52:24Z</time>
<extensions>
<gpxtpx:TrackPointExtension>
<gpxtpx:hr>95</gpxtpx:hr>
<gpxtpx:atemp>20</gpxtpx:atemp>
</gpxtpx:TrackPointExtension>
</extensions>
</trkpt>
<trkpt lat="47.58947381749749" lon="12.174374554306269">
<ele>496</ele>
<time>2012-03-03T09:52:25Z</time>
<extensions>
<gpxtpx:TrackPointExtension>
<gpxtpx:hr>99</gpxtpx:hr>
<gpxtpx:atemp>20</gpxtpx:atemp>
</gpxtpx:TrackPointExtension>
</extensions>
</trkpt>
<trkpt lat="47.58949410170317" lon="12.17442149296403">
<ele>496</ele>
<time>2012-03-03T09:52:26Z</time>
<extensions>
<gpxtpx:TrackPointExtension>
<gpxtpx:hr>103</gpxtpx:hr>
<gpxtpx:atemp>20</gpxtpx:atemp>
</gpxtpx:TrackPointExtension>
</extensions>
</trkpt>
<trkpt lat="47.58952419273555" lon="12.17445426620543">
<ele>496</ele>
<time>2012-03-03T09:52:27Z</time>
<extensions>
<gpxtpx:TrackPointExtension>
<gpxtpx:hr>106</gpxtpx:hr>
<gpxtpx:atemp>20</gpxtpx:atemp>
</gpxtpx:TrackPointExtension>
</extensions>
</trkpt>
<trkpt lat="47.589601054787636" lon="12.174489721655846">
<ele>496</ele>
<time>2012-03-03T09:52:29Z</time>
<extensions>
<gpxtpx:TrackPointExtension>
<gpxtpx:hr>111</gpxtpx:hr>
<gpxtpx:atemp>20</gpxtpx:atemp>
</gpxtpx:TrackPointExtension>
</extensions>
</trkpt>
<trkpt lat="47.589684538543224" lon="12.174519393593073">
<ele>496</ele>
<time>2012-03-03T09:52:31Z</time>
<extensions>
<gpxtpx:TrackPointExtension>
<gpxtpx:hr>114</gpxtpx:hr>
<gpxtpx:atemp>20</gpxtpx:atemp>
</gpxtpx:TrackPointExtension>
</extensions>
</trkpt>
<trkpt lat="47.58977313525975" lon="12.174569433555007">
<ele>496</ele>
<time>2012-03-03T09:52:33Z</time>
<extensions>
<gpxtpx:TrackPointExtension>
<gpxtpx:hr>117</gpxtpx:hr>
<gpxtpx:atemp>20</gpxtpx:atemp>
</gpxtpx:TrackPointExtension>
</extensions>
</trkpt>
<trkpt lat="47.589867850765586" lon="12.174626514315605">
<ele>496</ele>
<time>2012-03-03T09:52:35Z</time>
<extensions>
<gpxtpx:TrackPointExtension>
<gpxtpx:hr>119</gpxtpx:hr>
<gpxtpx:atemp>20</gpxtpx:atemp>
</gpxtpx:TrackPointExtension>
</extensions>
</trkpt>
<trkpt lat="47.590251322835684" lon="12.17484368942678">
<ele>496</ele>
<time>2012-03-03T09:52:43Z</time>
<extensions>
<gpxtpx:TrackPointExtension>
<gpxtpx:hr>118</gpxtpx:hr>
<gpxtpx:atemp>20</gpxtpx:atemp>
</gpxtpx:TrackPointExtension>
</extensions>
</trkpt>
<trkpt lat="47.59050512686372" lon="12.175016608089209">
<ele>496</ele>
<time>2012-03-03T09:52:48Z</time>
<extensions>
<gpxtpx:TrackPointExtension>
<gpxtpx:hr>120</gpxtpx:hr>
<gpxtpx:atemp>20</gpxtpx:atemp>
</gpxtpx:TrackPointExtension>
</extensions>
</trkpt>
<trkpt lat="47.59055156260729" lon="12.175065977498889">
<ele>496</ele>
<time>2012-03-03T09:52:49Z</time>
<extensions>
<gpxtpx:TrackPointExtension>
<gpxtpx:hr>120</gpxtpx:hr>
<gpxtpx:atemp>20</gpxtpx:atemp>
</gpxtpx:TrackPointExtension>
</extensions>
</trkpt>
<trkpt lat="47.590601686388254" lon="12.175103276968002">
<ele>496</ele>
<time>2012-03-03T09:52:50Z</time>
<extensions>
<gpxtpx:TrackPointExtension>
<gpxtpx:hr>121</gpxtpx:hr>
<gpxtpx:atemp>20</gpxtpx:atemp>
</gpxtpx:TrackPointExtension>
</extensions>
</trkpt>
<trkpt lat="47.59074719622731" lon="12.175215929746628">
<ele>496</ele>
<time>2012-03-03T09:52:53Z</time>
<extensions>
<gpxtpx:TrackPointExtension>
<gpxtpx:hr>121</gpxtpx:hr>
<gpxtpx:atemp>20</gpxtpx:atemp>
</gpxtpx:TrackPointExtension>
</extensions>
</trkpt>
<trkpt lat="47.590793715789914" lon="12.175262700766325">
<ele>496</ele>
<time>2012-03-03T09:52:54Z</time>
<extensions>
<gpxtpx:TrackPointExtension>
<gpxtpx:hr>120</gpxtpx:hr>
<gpxtpx:atemp>20</gpxtpx:atemp>
</gpxtpx:TrackPointExtension>
</extensions>
</trkpt>
<trkpt lat="47.59113661944866" lon="12.17559571377933">
<ele>496</ele>
<time>2012-03-03T09:53:01Z</time>
<extensions>
<gpxtpx:TrackPointExtension>
<gpxtpx:hr>119</gpxtpx:hr>
<gpxtpx:atemp>20</gpxtpx:atemp>
</gpxtpx:TrackPointExtension>
</extensions>
</trkpt>
<trkpt lat="47.59145454503596" lon="12.176012378185987">
<ele>496</ele>
<time>2012-03-03T09:53:08Z</time>
<extensions>
<gpxtpx:TrackPointExtension>
<gpxtpx:hr>121</gpxtpx:hr>
<gpxtpx:atemp>20</gpxtpx:atemp>
</gpxtpx:TrackPointExtension>
</extensions>
</trkpt>
<trkpt lat="47.591721676290035" lon="12.176367687061429">
<ele>496</ele>
<time>2012-03-03T09:53:14Z</time>
<extensions>
<gpxtpx:TrackPointExtension>
<gpxtpx:hr>123</gpxtpx:hr>
<gpxtpx:atemp>20</gpxtpx:atemp>
</gpxtpx:TrackPointExtension>
</extensions>
</trkpt>
<trkpt lat="47.592067681252956" lon="12.176793403923512">
<ele>496</ele>
<time>2012-03-03T09:53:22Z</time>
<extensions>
<gpxtpx:TrackPointExtension>
<gpxtpx:hr>125</gpxtpx:hr>
<gpxtpx:atemp>20</gpxtpx:atemp>
</gpxtpx:TrackPointExtension>
</extensions>
</trkpt>
<trkpt lat="47.59230983443558" lon="12.177184503525496">
<ele>496</ele>
<time>2012-03-03T09:53:29Z</time>
<extensions>
<gpxtpx:TrackPointExtension>
<gpxtpx:hr>128</gpxtpx:hr>
<gpxtpx:atemp>19</gpxtpx:atemp>
</gpxtpx:TrackPointExtension>
</extensions>
</trkpt>
<trkpt lat="47.59234101511538" lon="12.177238650619984">
<ele>496</ele>
<time>2012-03-03T09:53:30Z</time>
<extensions>
<gpxtpx:TrackPointExtension>
<gpxtpx:hr>128</gpxtpx:hr>
<gpxtpx:atemp>19</gpxtpx:atemp>
</gpxtpx:TrackPointExtension>
</extensions>
</trkpt>
<trkpt lat="47.59254234842956" lon="12.17757317237556">
<ele>496</ele>
<time>2012-03-03T09:53:36Z</time>
<extensions>
<gpxtpx:TrackPointExtension>
<gpxtpx:hr>127</gpxtpx:hr>
<gpxtpx:atemp>19</gpxtpx:atemp>
</gpxtpx:TrackPointExtension>
</extensions>
</trkpt>
<trkpt lat="47.59267704561353" lon="12.177836867049336">
<ele>496</ele>
<time>2012-03-03T09:53:40Z</time>
<extensions>
<gpxtpx:TrackPointExtension>
<gpxtpx:hr>130</gpxtpx:hr>
<gpxtpx:atemp>19</gpxtpx:atemp>
</gpxtpx:TrackPointExtension>
</extensions>
</trkpt>
<trkpt lat="47.59270269423723" lon="12.177907191216946">
<ele>496</ele>
<time>2012-03-03T09:53:41Z</time>
<extensions>
<gpxtpx:TrackPointExtension>
<gpxtpx:hr>130</gpxtpx:hr>
<gpxtpx:atemp>19</gpxtpx:atemp>
</gpxtpx:TrackPointExtension>
</extensions>
</trkpt>
<trkpt lat="47.592733791098" lon="12.177973240613937">
<ele>496</ele>
<time>2012-03-03T09:53:42Z</time>
<extensions>
<gpxtpx:TrackPointExtension>
<gpxtpx:hr>131</gpxtpx:hr>
<gpxtpx:atemp>19</gpxtpx:atemp>
</gpxtpx:TrackPointExtension>
</extensions>
</trkpt>
<trkpt lat="47.592860693112016" lon="12.178114894777536">
<ele>496</ele>
<time>2012-03-03T09:53:45Z</time>
<extensions>
<gpxtpx:TrackPointExtension>
<gpxtpx:hr>134</gpxtpx:hr>
<gpxtpx:atemp>19</gpxtpx:atemp>
</gpxtpx:TrackPointExtension>
</extensions>
</trkpt>
<trkpt lat="47.59290101006627" lon="12.178153954446316">
<ele>496</ele>
<time>2012-03-03T09:53:46Z</time>
<extensions>
<gpxtpx:TrackPointExtension>
<gpxtpx:hr>134</gpxtpx:hr>
<gpxtpx:atemp>19</gpxtpx:atemp>
</gpxtpx:TrackPointExtension>
</extensions>
</trkpt>
<trkpt lat="47.59298021905124" lon="12.178240036591887">
<ele>497</ele>
<time>2012-03-03T09:53:48Z</time>
<extensions>
<gpxtpx:TrackPointExtension>
<gpxtpx:hr>135</gpxtpx:hr>
<gpxtpx:atemp>19</gpxtpx:atemp>
</gpxtpx:TrackPointExtension>
</extensions>
</trkpt>
<trkpt lat="47.59301592595875" lon="12.178295440971851">
<ele>497</ele>
<time>2012-03-03T09:53:49Z</time>
<extensions>
<gpxtpx:TrackPointExtension>
<gpxtpx:hr>135</gpxtpx:hr>
<gpxtpx:atemp>19</gpxtpx:atemp>
</gpxtpx:TrackPointExtension>
</extensions>
</trkpt>
<trkpt lat="47.59304844774306" lon="12.178350007161498">
<ele>498</ele>
<time>2012-03-03T09:53:50Z</time>
<extensions>
<gpxtpx:TrackPointExtension>
<gpxtpx:hr>134</gpxtpx:hr>
<gpxtpx:atemp>19</gpxtpx:atemp>
</gpxtpx:TrackPointExtension>
</extensions>
</trkpt>
<trkpt lat="47.59307795204222" lon="12.178409770131111">
<ele>498</ele>
<time>2012-03-03T09:53:51Z</time>
<extensions>
<gpxtpx:TrackPointExtension>
<gpxtpx:hr>134</gpxtpx:hr>
<gpxtpx:atemp>19</gpxtpx:atemp>
</gpxtpx:TrackPointExtension>
</extensions>
</trkpt>
<trkpt lat="47.59311164729297" lon="12.178466012701392">
<ele>499</ele>
<time>2012-03-03T09:53:52Z</time>
<extensions>
<gpxtpx:TrackPointExtension>
<gpxtpx:hr>134</gpxtpx:hr>
<gpxtpx:atemp>19</gpxtpx:atemp>
</gpxtpx:TrackPointExtension>
</extensions>
</trkpt>
<trkpt lat="47.593272998929024" lon="12.17873314395547">
<ele>499</ele>
<time>2012-03-03T09:53:57Z</time>
<extensions>
<gpxtpx:TrackPointExtension>
<gpxtpx:hr>134</gpxtpx:hr>
<gpxtpx:atemp>19</gpxtpx:atemp>
</gpxtpx:TrackPointExtension>
</extensions>
</trkpt>
<trkpt lat="47.59353971108794" lon="12.179130278527737">
<ele>499</ele>
<time>2012-03-03T09:54:05Z</time>
<extensions>
<gpxtpx:TrackPointExtension>
<gpxtpx:hr>133</gpxtpx:hr>
<gpxtpx:atemp>18</gpxtpx:atemp>
</gpxtpx:TrackPointExtension>
</extensions>
</trkpt>
<trkpt lat="47.593674659729004" lon="12.179327588528395">
<ele>499</ele>
<time>2012-03-03T09:54:09Z</time>
<extensions>
<gpxtpx:TrackPointExtension>
<gpxtpx:hr>133</gpxtpx:hr>
<gpxtpx:atemp>18</gpxtpx:atemp>
</gpxtpx:TrackPointExtension>
</extensions>
</trkpt>
<trkpt lat="47.5937024038285" lon="12.179366145282984">
<ele>499</ele>
<time>2012-03-03T09:54:10Z</time>
<extensions>
<gpxtpx:TrackPointExtension>
<gpxtpx:hr>132</gpxtpx:hr>
<gpxtpx:atemp>18</gpxtpx:atemp>
</gpxtpx:TrackPointExtension>
</extensions>
</trkpt>
<trkpt lat="47.59373065084219" lon="12.179398750886321">
<ele>499</ele>
<time>2012-03-03T09:54:11Z</time>
<extensions>
<gpxtpx:TrackPointExtension>
<gpxtpx:hr>133</gpxtpx:hr>
<gpxtpx:atemp>18</gpxtpx:atemp>
</gpxtpx:TrackPointExtension>
</extensions>
</trkpt>
<trkpt lat="47.59375512599945" lon="12.179428255185485">
<ele>500</ele>
<time>2012-03-03T09:54:12Z</time>
<extensions>
<gpxtpx:TrackPointExtension>
<gpxtpx:hr>133</gpxtpx:hr>
<gpxtpx:atemp>18</gpxtpx:atemp>
</gpxtpx:TrackPointExtension>
</extensions>
</trkpt>
<trkpt lat="47.59377725422382" lon="12.179459352046251">
<ele>500</ele>
<time>2012-03-03T09:54:13Z</time>
<extensions>
<gpxtpx:TrackPointExtension>
<gpxtpx:hr>132</gpxtpx:hr>
<gpxtpx:atemp>18</gpxtpx:atemp>
</gpxtpx:TrackPointExtension>
</extensions>
</trkpt>
<trkpt lat="47.59379703551531" lon="12.179488437250257">
<ele>501</ele>
<time>2012-03-03T09:54:14Z</time>
<extensions>
<gpxtpx:TrackPointExtension>
<gpxtpx:hr>132</gpxtpx:hr>
<gpxtpx:atemp>18</gpxtpx:atemp>
</gpxtpx:TrackPointExtension>
</extensions>
</trkpt>
<trkpt lat="47.593881944194436" lon="12.179613830521703">
<ele>501</ele>
<time>2012-03-03T09:54:19Z</time>
<extensions>
<gpxtpx:TrackPointExtension>
<gpxtpx:hr>131</gpxtpx:hr>
<gpxtpx:atemp>18</gpxtpx:atemp>
</gpxtpx:TrackPointExtension>
</extensions>
</trkpt>
<trkpt lat="47.593964003026485" lon="12.179736625403166">
<ele>501</ele>
<time>2012-03-03T09:54:23Z</time>
<extensions>
<gpxtpx:TrackPointExtension>
<gpxtpx:hr>128</gpxtpx:hr>
<gpxtpx:atemp>18</gpxtpx:atemp>
</gpxtpx:TrackPointExtension>
</extensions>
</trkpt>
<trkpt lat="47.594008510932326" lon="12.179806362837553">
<ele>501</ele>
<time>2012-03-03T09:54:25Z</time>
<extensions>
<gpxtpx:TrackPointExtension>
<gpxtpx:hr>127</gpxtpx:hr>
<gpxtpx:atemp>18</gpxtpx:atemp>
</gpxtpx:TrackPointExtension>
</extensions>
</trkpt>
<trkpt lat="47.59406089782715" lon="12.179891774430871">
<ele>501</ele>
<time>2012-03-03T09:54:27Z</time>
<extensions>
<gpxtpx:TrackPointExtension>
<gpxtpx:hr>126</gpxtpx:hr>
<gpxtpx:atemp>18</gpxtpx:atemp>
</gpxtpx:TrackPointExtension>
</extensions>
</trkpt>
<trkpt lat="47.59411915205419" lon="12.179998476058245">
<ele>501</ele>
<time>2012-03-03T09:54:29Z</time>
<extensions>
<gpxtpx:TrackPointExtension>
<gpxtpx:hr>126</gpxtpx:hr>
<gpxtpx:atemp>18</gpxtpx:atemp>
</gpxtpx:TrackPointExtension>
</extensions>
</trkpt>
<trkpt lat="47.59418360888958" lon="12.180110206827521">
<ele>501</ele>
<time>2012-03-03T09:54:31Z</time>
<extensions>
<gpxtpx:TrackPointExtension>
<gpxtpx:hr>128</gpxtpx:hr>
<gpxtpx:atemp>18</gpxtpx:atemp>
</gpxtpx:TrackPointExtension>
</extensions>
</trkpt>
<trkpt lat="47.59429978206754" lon="12.180261248722672">
<ele>501</ele>
<time>2012-03-03T09:54:34Z</time>
<extensions>
<gpxtpx:TrackPointExtension>
<gpxtpx:hr>131</gpxtpx:hr>
<gpxtpx:atemp>18</gpxtpx:atemp>
</gpxtpx:TrackPointExtension>
</extensions>
</trkpt>
<trkpt lat="47.594336327165365" lon="12.180312210693955">
<ele>501</ele>
<time>2012-03-03T09:54:35Z</time>
<extensions>
<gpxtpx:TrackPointExtension>
<gpxtpx:hr>132</gpxtpx:hr>
<gpxtpx:atemp>18</gpxtpx:atemp>
</gpxtpx:TrackPointExtension>
</extensions>
</trkpt>
<trkpt lat="47.59437035769224" lon="12.180366273969412">
<ele>502</ele>
<time>2012-03-03T09:54:36Z</time>
<extensions>
<gpxtpx:TrackPointExtension>
<gpxtpx:hr>133</gpxtpx:hr>
<gpxtpx:atemp>18</gpxtpx:atemp>
</gpxtpx:TrackPointExtension>
</extensions>
</trkpt>
<trkpt lat="47.59440287947655" lon="12.180423187091947">
<ele>502</ele>
<time>2012-03-03T09:54:37Z</time>
<extensions>
<gpxtpx:TrackPointExtension>
<gpxtpx:hr>134</gpxtpx:hr>
<gpxtpx:atemp>18</gpxtpx:atemp>
</gpxtpx:TrackPointExtension>
</extensions>
</trkpt>
<trkpt lat="47.594432551413774" lon="12.180481944233179">
<ele>503</ele>
<time>2012-03-03T09:54:38Z</time>
<extensions>
<gpxtpx:TrackPointExtension>
<gpxtpx:hr>133</gpxtpx:hr>
<gpxtpx:atemp>18</gpxtpx:atemp>
</gpxtpx:TrackPointExtension>
</extensions>
</trkpt>
<trkpt lat="47.59448527358472" lon="12.180601553991437">
<ele>503</ele>
<time>2012-03-03T09:54:40Z</time>
<extensions>
<gpxtpx:TrackPointExtension>
<gpxtpx:hr>133</gpxtpx:hr>
<gpxtpx:atemp>18</gpxtpx:atemp>
</gpxtpx:TrackPointExtension>
</extensions>
</trkpt>
<trkpt lat="47.59461469016969" lon="12.181007070466876">
<ele>503</ele>
<time>2012-03-03T09:54:47Z</time>
<extensions>
<gpxtpx:TrackPointExtension>
<gpxtpx:hr>133</gpxtpx:hr>
<gpxtpx:atemp>17</gpxtpx:atemp>
</gpxtpx:TrackPointExtension>
</extensions>
</trkpt>
<trkpt lat="47.5946488045156" lon="12.181115532293916">
<ele>503</ele>
<time>2012-03-03T09:54:49Z</time>
<extensions>
<gpxtpx:TrackPointExtension>
<gpxtpx:hr>134</gpxtpx:hr>
<gpxtpx:atemp>17</gpxtpx:atemp>
</gpxtpx:TrackPointExtension>
</extensions>
</trkpt>
<trkpt lat="47.59466548450291" lon="12.181172529235482">
<ele>504</ele>
<time>2012-03-03T09:54:50Z</time>
<extensions>
<gpxtpx:TrackPointExtension>
<gpxtpx:hr>134</gpxtpx:hr>
<gpxtpx:atemp>17</gpxtpx:atemp>
</gpxtpx:TrackPointExtension>
</extensions>
</trkpt>
<trkpt lat="47.594679314643145" lon="12.181228771805763">
<ele>504</ele>
<time>2012-03-03T09:54:51Z</time>
<extensions>
<gpxtpx:TrackPointExtension>
<gpxtpx:hr>134</gpxtpx:hr>
<gpxtpx:atemp>17</gpxtpx:atemp>
</gpxtpx:TrackPointExtension>
</extensions>
</trkpt>
<trkpt lat="47.59468970820308" lon="12.181287193670869">
<ele>504</ele>
<time>2012-03-03T09:54:52Z</time>
<extensions>
<gpxtpx:TrackPointExtension>
<gpxtpx:hr>134</gpxtpx:hr>
<gpxtpx:atemp>17</gpxtpx:atemp>
</gpxtpx:TrackPointExtension>
</extensions>
</trkpt>
<trkpt lat="47.594698928296566" lon="12.18134393915534">
<ele>505</ele>
<time>2012-03-03T09:54:53Z</time>
<extensions>
<gpxtpx:TrackPointExtension>
<gpxtpx:hr>133</gpxtpx:hr>
<gpxtpx:atemp>17</gpxtpx:atemp>
</gpxtpx:TrackPointExtension>
</extensions>
</trkpt>
<trkpt lat="47.59472583420575" lon="12.181464554741979">
<ele>505</ele>
<time>2012-03-03T09:54:55Z</time>
<extensions>
<gpxtpx:TrackPointExtension>
<gpxtpx:hr>133</gpxtpx:hr>
<gpxtpx:atemp>17</gpxtpx:atemp>
</gpxtpx:TrackPointExtension>
</extensions>
</trkpt>
<trkpt lat="47.59482013061643" lon="12.181639149785042">
<ele>505</ele>
<time>2012-03-03T09:54:58Z</time>
<extensions>
<gpxtpx:TrackPointExtension>
<gpxtpx:hr>134</gpxtpx:hr>
<gpxtpx:atemp>17</gpxtpx:atemp>
</gpxtpx:TrackPointExtension>
</extensions>
</trkpt>
<trkpt lat="47.5949992518872" lon="12.181968977674842">
<ele>504</ele>
<time>2012-03-03T09:55:03Z</time>
<extensions>
<gpxtpx:TrackPointExtension>
<gpxtpx:hr>135</gpxtpx:hr>
<gpxtpx:atemp>17</gpxtpx:atemp>
</gpxtpx:TrackPointExtension>
</extensions>
</trkpt>
<trkpt lat="47.59503294713795" lon="12.182052293792367">
<ele>504</ele>
<time>2012-03-03T09:55:04Z</time>
<extensions>
<gpxtpx:TrackPointExtension>
<gpxtpx:hr>134</gpxtpx:hr>
<gpxtpx:atemp>17</gpxtpx:atemp>
</gpxtpx:TrackPointExtension>
</extensions>
</trkpt>
<trkpt lat="47.59506865404546" lon="12.182148937135935">
<ele>503</ele>
<time>2012-03-03T09:55:05Z</time>
<extensions>
<gpxtpx:TrackPointExtension>
<gpxtpx:hr>134</gpxtpx:hr>
<gpxtpx:atemp>17</gpxtpx:atemp>
</gpxtpx:TrackPointExtension>
</extensions>
</trkpt>
<trkpt lat="47.59510603733361" lon="12.182241892442107">
<ele>503</ele>
<time>2012-03-03T09:55:06Z</time>
<extensions>
<gpxtpx:TrackPointExtension>
<gpxtpx:hr>134</gpxtpx:hr>
<gpxtpx:atemp>17</gpxtpx:atemp>
</gpxtpx:TrackPointExtension>
</extensions>
</trkpt>
<trkpt lat="47.59514149278402" lon="12.18233535066247">
<ele>503</ele>
<time>2012-03-03T09:55:07Z</time>
<extensions>
<gpxtpx:TrackPointExtension>
<gpxtpx:hr>133</gpxtpx:hr>
<gpxtpx:atemp>17</gpxtpx:atemp>
</gpxtpx:TrackPointExtension>
</extensions>
</trkpt>
<trkpt lat="47.595146019011736" lon="12.1824443154037">
<ele>502</ele>
<time>2012-03-03T09:55:08Z</time>
<extensions>
<gpxtpx:TrackPointExtension>
<gpxtpx:hr>133</gpxtpx:hr>
<gpxtpx:atemp>17</gpxtpx:atemp>
</gpxtpx:TrackPointExtension>
</extensions>
</trkpt>
<trkpt lat="47.59516127407551" lon="12.182548251003027">
<ele>501</ele>
<time>2012-03-03T09:55:09Z</time>
<extensions>
<gpxtpx:TrackPointExtension>
<gpxtpx:hr>133</gpxtpx:hr>
<gpxtpx:atemp>17</gpxtpx:atemp>
</gpxtpx:TrackPointExtension>
</extensions>
</trkpt>
<trkpt lat="47.59519027546048" lon="12.18264028429985">
<ele>500</ele>
<time>2012-03-03T09:55:10Z</time>
<extensions>
<gpxtpx:TrackPointExtension>
<gpxtpx:hr>133</gpxtpx:hr>
<gpxtpx:atemp>17</gpxtpx:atemp>
</gpxtpx:TrackPointExtension>
</extensions>
</trkpt>
<trkpt lat="47.595229586586356" lon="12.18272041529417">
<ele>499</ele>
<time>2012-03-03T09:55:11Z</time>
<extensions>
<gpxtpx:TrackPointExtension>
<gpxtpx:hr>133</gpxtpx:hr>
<gpxtpx:atemp>17</gpxtpx:atemp>
</gpxtpx:TrackPointExtension>
</extensions>
</trkpt>
<trkpt lat="47.59526311419904" lon="12.182809598743916">
<ele>499</ele>
<time>2012-03-03T09:55:12Z</time>
<extensions>
<gpxtpx:TrackPointExtension>
<gpxtpx:hr>134</gpxtpx:hr>
<gpxtpx:atemp>17</gpxtpx:atemp>
</gpxtpx:TrackPointExtension>
</extensions>
</trkpt>
<trkpt lat="47.59528641588986" lon="12.182904565706849">
<ele>498</ele>
<time>2012-03-03T09:55:13Z</time>
<extensions>
<gpxtpx:TrackPointExtension>
<gpxtpx:hr>134</gpxtpx:hr>
<gpxtpx:atemp>17</gpxtpx:atemp>
</gpxtpx:TrackPointExtension>
</extensions>
</trkpt>
<trkpt lat="47.59530837647617" lon="12.183000287041068">
<ele>498</ele>
<time>2012-03-03T09:55:14Z</time>
<extensions>
<gpxtpx:TrackPointExtension>
<gpxtpx:hr>134</gpxtpx:hr>
<gpxtpx:atemp>17</gpxtpx:atemp>
</gpxtpx:TrackPointExtension>
</extensions>
</trkpt>
<trkpt lat="47.59533226490021" lon="12.183100618422031">
<ele>498</ele>
<time>2012-03-03T09:55:15Z</time>
<extensions>
<gpxtpx:TrackPointExtension>
<gpxtpx:hr>134</gpxtpx:hr>
<gpxtpx:atemp>17</gpxtpx:atemp>
</gpxtpx:TrackPointExtension>
</extensions>
</trkpt>
<trkpt lat="47.59542957879603" lon="12.183386776596308">
<ele>498</ele>
<time>2012-03-03T09:55:18Z</time>
<extensions>
<gpxtpx:TrackPointExtension>
<gpxtpx:hr>131</gpxtpx:hr>
<gpxtpx:atemp>17</gpxtpx:atemp>
</gpxtpx:TrackPointExtension>
</extensions>
</trkpt>
<trkpt lat="47.59546805173159" lon="12.183482330292463">
<ele>497</ele>
<time>2012-03-03T09:55:19Z</time>
<extensions>
<gpxtpx:TrackPointExtension>
<gpxtpx:hr>129</gpxtpx:hr>
<gpxtpx:atemp>17</gpxtpx:atemp>
</gpxtpx:TrackPointExtension>
</extensions>
</trkpt>
<trkpt lat="47.595511972904205" lon="12.183566316962242">
<ele>497</ele>
<time>2012-03-03T09:55:20Z</time>
<extensions>
<gpxtpx:TrackPointExtension>
<gpxtpx:hr>127</gpxtpx:hr>
<gpxtpx:atemp>17</gpxtpx:atemp>
</gpxtpx:TrackPointExtension>
</extensions>
</trkpt>
<trkpt lat="47.595546590164304" lon="12.18364778906107">
<ele>496</ele>
<time>2012-03-03T09:55:21Z</time>
<extensions>
<gpxtpx:TrackPointExtension>
<gpxtpx:hr>123</gpxtpx:hr>
<gpxtpx:atemp>17</gpxtpx:atemp>
</gpxtpx:TrackPointExtension>
</extensions>
</trkpt>
<trkpt lat="47.59558388963342" lon="12.18373328447342">
<ele>496</ele>
<time>2012-03-03T09:55:22Z</time>
<extensions>
<gpxtpx:TrackPointExtension>
<gpxtpx:hr>123</gpxtpx:hr>
<gpxtpx:atemp>17</gpxtpx:atemp>
</gpxtpx:TrackPointExtension>
</extensions>
</trkpt>
<trkpt lat="47.59562931954861" lon="12.183807883411646">
<ele>496</ele>
<time>2012-03-03T09:55:23Z</time>
<extensions>
<gpxtpx:TrackPointExtension>
<gpxtpx:hr>122</gpxtpx:hr>
<gpxtpx:atemp>17</gpxtpx:atemp>
</gpxtpx:TrackPointExtension>
</extensions>
</trkpt>
<trkpt lat="47.595679108053446" lon="12.183871837332845">
<ele>496</ele>
<time>2012-03-03T09:55:24Z</time>
<extensions>
<gpxtpx:TrackPointExtension>
<gpxtpx:hr>122</gpxtpx:hr>
<gpxtpx:atemp>17</gpxtpx:atemp>
</gpxtpx:TrackPointExtension>
</extensions>
</trkpt>
<trkpt lat="47.59582160040736" lon="12.183992872014642">
<ele>496</ele>
<time>2012-03-03T09:55:27Z</time>
<extensions>
<gpxtpx:TrackPointExtension>
<gpxtpx:hr>124</gpxtpx:hr>
<gpxtpx:atemp>16</gpxtpx:atemp>
</gpxtpx:TrackPointExtension>
</extensions>
</trkpt>
<trkpt lat="47.59586250409484" lon="12.184018772095442">
<ele>496</ele>
<time>2012-03-03T09:55:28Z</time>
<extensions>
<gpxtpx:TrackPointExtension>
<gpxtpx:hr>125</gpxtpx:hr>
<gpxtpx:atemp>16</gpxtpx:atemp>
</gpxtpx:TrackPointExtension>
</extensions>
</trkpt>
<trkpt lat="47.59599653072655" lon="12.184117510914803">
<ele>496</ele>
<time>2012-03-03T09:55:32Z</time>
<extensions>
<gpxtpx:TrackPointExtension>
<gpxtpx:hr>126</gpxtpx:hr>
<gpxtpx:atemp>16</gpxtpx:atemp>
</gpxtpx:TrackPointExtension>
</extensions>
</trkpt>
<trkpt lat="47.59602779522538" lon="12.184145674109459">
<ele>496</ele>
<time>2012-03-03T09:55:33Z</time>
<extensions>
<gpxtpx:TrackPointExtension>
<gpxtpx:hr>127</gpxtpx:hr>
<gpxtpx:atemp>16</gpxtpx:atemp>
</gpxtpx:TrackPointExtension>
</extensions>
</trkpt>
<trkpt lat="47.59605067782104" lon="12.18417501077056">
<ele>496</ele>
<time>2012-03-03T09:55:34Z</time>
<extensions>
<gpxtpx:TrackPointExtension>
<gpxtpx:hr>127</gpxtpx:hr>
<gpxtpx:atemp>16</gpxtpx:atemp>
</gpxtpx:TrackPointExtension>
</extensions>
</trkpt>
<trkpt lat="47.59607314132154" lon="12.184207700192928">
<ele>497</ele>
<time>2012-03-03T09:55:35Z</time>
<extensions>
<gpxtpx:TrackPointExtension>
<gpxtpx:hr>128</gpxtpx:hr>
<gpxtpx:atemp>16</gpxtpx:atemp>
</gpxtpx:TrackPointExtension>
</extensions>
</trkpt>
<trkpt lat="47.596097784116864" lon="12.18423368409276">
<ele>497</ele>
<time>2012-03-03T09:55:36Z</time>
<extensions>
<gpxtpx:TrackPointExtension>
<gpxtpx:hr>129</gpxtpx:hr>
<gpxtpx:atemp>16</gpxtpx:atemp>
</gpxtpx:TrackPointExtension>
</extensions>
</trkpt>
<trkpt lat="47.596121337264776" lon="12.184258997440338">
<ele>498</ele>
<time>2012-03-03T09:55:37Z</time>
<extensions>
<gpxtpx:TrackPointExtension>
<gpxtpx:hr>130</gpxtpx:hr>
<gpxtpx:atemp>16</gpxtpx:atemp>
</gpxtpx:TrackPointExtension>
</extensions>
</trkpt>
<trkpt lat="47.59614539332688" lon="12.184286825358868">
<ele>498</ele>
<time>2012-03-03T09:55:38Z</time>
<extensions>
<gpxtpx:TrackPointExtension>
<gpxtpx:hr>130</gpxtpx:hr>
<gpxtpx:atemp>16</gpxtpx:atemp>
</gpxtpx:TrackPointExtension>
</extensions>
</trkpt>
<trkpt lat="47.596263410523534" lon="12.184447757899761">
<ele>499</ele>
<time>2012-03-03T09:55:43Z</time>
<extensions>
<gpxtpx:TrackPointExtension>
<gpxtpx:hr>133</gpxtpx:hr>
<gpxtpx:atemp>16</gpxtpx:atemp>
</gpxtpx:TrackPointExtension>
</extensions>
</trkpt>
<trkpt lat="47.5962892267853" lon="12.184470389038324">
<ele>499</ele>
<time>2012-03-03T09:55:44Z</time>
<extensions>
<gpxtpx:TrackPointExtension>
<gpxtpx:hr>134</gpxtpx:hr>
<gpxtpx:atemp>16</gpxtpx:atemp>
</gpxtpx:TrackPointExtension>
</extensions>
</trkpt>
<trkpt lat="47.596317641437054" lon="12.184492014348507">
<ele>499</ele>
<time>2012-03-03T09:55:45Z</time>
<extensions>
<gpxtpx:TrackPointExtension>
<gpxtpx:hr>135</gpxtpx:hr>
<gpxtpx:atemp>16</gpxtpx:atemp>
</gpxtpx:TrackPointExtension>
</extensions>
</trkpt>
<trkpt lat="47.59634580463171" lon="12.184520680457354">
<ele>500</ele>
<time>2012-03-03T09:55:46Z</time>
<extensions>
<gpxtpx:TrackPointExtension>
<gpxtpx:hr>136</gpxtpx:hr>
<gpxtpx:atemp>16</gpxtpx:atemp>
</gpxtpx:TrackPointExtension>
</extensions>
</trkpt>
<trkpt lat="47.596372878178954" lon="12.184554124251008">
<ele>500</ele>
<time>2012-03-03T09:55:47Z</time>
<extensions>
<gpxtpx:TrackPointExtension>
<gpxtpx:hr>137</gpxtpx:hr>
<gpxtpx:atemp>16</gpxtpx:atemp>
</gpxtpx:TrackPointExtension>
</extensions>
</trkpt>
<trkpt lat="47.596445214003325" lon="12.184647666290402">
<ele>501</ele>
<time>2012-03-03T09:55:50Z</time>
<extensions>
<gpxtpx:TrackPointExtension>
<gpxtpx:hr>140</gpxtpx:hr>
<gpxtpx:atemp>16</gpxtpx:atemp>
</gpxtpx:TrackPointExtension>
</extensions>
</trkpt>
<trkpt lat="47.596469689160585" lon="12.184680439531803">
<ele>501</ele>
<time>2012-03-03T09:55:51Z</time>
<extensions>
<gpxtpx:TrackPointExtension>
<gpxtpx:hr>140</gpxtpx:hr>
<gpxtpx:atemp>16</gpxtpx:atemp>
</gpxtpx:TrackPointExtension>
</extensions>
</trkpt>
<trkpt lat="47.59649734944105" lon="12.184714050963521">
<ele>502</ele>
<time>2012-03-03T09:55:52Z</time>
<extensions>
<gpxtpx:TrackPointExtension>
<gpxtpx:hr>140</gpxtpx:hr>
<gpxtpx:atemp>16</gpxtpx:atemp>
</gpxtpx:TrackPointExtension>
</extensions>
</trkpt>
<trkpt lat="47.59652651846409" lon="12.184747578576207">
<ele>502</ele>
<time>2012-03-03T09:55:53Z</time>
<extensions>
<gpxtpx:TrackPointExtension>
<gpxtpx:hr>141</gpxtpx:hr>
<gpxtpx:atemp>16</gpxtpx:atemp>
</gpxtpx:TrackPointExtension>
</extensions>
</trkpt>
<trkpt lat="47.59655602276325" lon="12.184781357645988">
<ele>502</ele>
<time>2012-03-03T09:55:54Z</time>
<extensions>
<gpxtpx:TrackPointExtension>
<gpxtpx:hr>141</gpxtpx:hr>
<gpxtpx:atemp>16</gpxtpx:atemp>
</gpxtpx:TrackPointExtension>
</extensions>
</trkpt>
<trkpt lat="47.59661469608545" lon="12.184845982119441">
<ele>502</ele>
<time>2012-03-03T09:55:56Z</time>
<extensions>
<gpxtpx:TrackPointExtension>
<gpxtpx:hr>142</gpxtpx:hr>
<gpxtpx:atemp>16</gpxtpx:atemp>
</gpxtpx:TrackPointExtension>
</extensions>
</trkpt>
<trkpt lat="47.59678853675723" lon="12.185067432001233">
<ele>502</ele>
<time>2012-03-03T09:56:02Z</time>
<extensions>
<gpxtpx:TrackPointExtension>
<gpxtpx:hr>143</gpxtpx:hr>
<gpxtpx:atemp>16</gpxtpx:atemp>
</gpxtpx:TrackPointExtension>
</extensions>
</trkpt>
<trkpt lat="47.59702993556857" lon="12.185370940715075">
<ele>502</ele>
<time>2012-03-03T09:56:10Z</time>
<extensions>
<gpxtpx:TrackPointExtension>
<gpxtpx:hr>141</gpxtpx:hr>
<gpxtpx:atemp>15</gpxtpx:atemp>
</gpxtpx:TrackPointExtension>
</extensions>
</trkpt>
<trkpt lat="47.59709129109979" lon="12.18544453382492">
<ele>502</ele>
<time>2012-03-03T09:56:12Z</time>
<extensions>
<gpxtpx:TrackPointExtension>
<gpxtpx:hr>141</gpxtpx:hr>
<gpxtpx:atemp>15</gpxtpx:atemp>
</gpxtpx:TrackPointExtension>
</extensions>
</trkpt>
<trkpt lat="47.59712909348309" lon="12.185478061437607">
<ele>502</ele>
<time>2012-03-03T09:56:13Z</time>
<extensions>
<gpxtpx:TrackPointExtension>
<gpxtpx:hr>141</gpxtpx:hr>
<gpxtpx:atemp>15</gpxtpx:atemp>
</gpxtpx:TrackPointExtension>
</extensions>
</trkpt>
<trkpt lat="47.59721794165671" lon="12.185534471645951">
<ele>502</ele>
<time>2012-03-03T09:56:15Z</time>
<extensions>
<gpxtpx:TrackPointExtension>
<gpxtpx:hr>140</gpxtpx:hr>
<gpxtpx:atemp>15</gpxtpx:atemp>
</gpxtpx:TrackPointExtension>
</extensions>
</trkpt>
<trkpt lat="47.59754651226103" lon="12.185802776366472">
<ele>502</ele>
<time>2012-03-03T09:56:22Z</time>
<extensions>
<gpxtpx:TrackPointExtension>
<gpxtpx:hr>140</gpxtpx:hr>
<gpxtpx:atemp>15</gpxtpx:atemp>
</gpxtpx:TrackPointExtension>
</extensions>
</trkpt>
<trkpt lat="47.597708869725466" lon="12.186033613979816">
<ele>502</ele>
<time>2012-03-03T09:56:26Z</time>
<extensions>
<gpxtpx:TrackPointExtension>
<gpxtpx:hr>139</gpxtpx:hr>
<gpxtpx:atemp>15</gpxtpx:atemp>
</gpxtpx:TrackPointExtension>
</extensions>
</trkpt>
<trkpt lat="47.59776871651411" lon="12.186160599812865">
<ele>502</ele>
<time>2012-03-03T09:56:28Z</time>
<extensions>
<gpxtpx:TrackPointExtension>
<gpxtpx:hr>137</gpxtpx:hr>
<gpxtpx:atemp>15</gpxtpx:atemp>
</gpxtpx:TrackPointExtension>
</extensions>
</trkpt>
<trkpt lat="47.59778866544366" lon="12.186228996142745">
<ele>502</ele>
<time>2012-03-03T09:56:29Z</time>
<extensions>
<gpxtpx:TrackPointExtension>
<gpxtpx:hr>136</gpxtpx:hr>
<gpxtpx:atemp>15</gpxtpx:atemp>
</gpxtpx:TrackPointExtension>
</extensions>
</trkpt>
<trkpt lat="47.597801238298416" lon="12.186369728296995">
<ele>502</ele>
<time>2012-03-03T09:56:31Z</time>
<extensions>
<gpxtpx:TrackPointExtension>
<gpxtpx:hr>135</gpxtpx:hr>
<gpxtpx:atemp>15</gpxtpx:atemp>
</gpxtpx:TrackPointExtension>
</extensions>
</trkpt>
<trkpt lat="47.59779805317521" lon="12.186443069949746">
<ele>502</ele>
<time>2012-03-03T09:56:32Z</time>
<extensions>
<gpxtpx:TrackPointExtension>
<gpxtpx:hr>134</gpxtpx:hr>
<gpxtpx:atemp>15</gpxtpx:atemp>
</gpxtpx:TrackPointExtension>
</extensions>
</trkpt>
<trkpt lat="47.597797717899084" lon="12.186513897031546">
<ele>501</ele>
<time>2012-03-03T09:56:33Z</time>
<extensions>
<gpxtpx:TrackPointExtension>
<gpxtpx:hr>134</gpxtpx:hr>
<gpxtpx:atemp>15</gpxtpx:atemp>
</gpxtpx:TrackPointExtension>
</extensions>
</trkpt>
<trkpt lat="47.597806602716446" lon="12.186582125723362">
<ele>501</ele>
<time>2012-03-03T09:56:34Z</time>
<extensions>
<gpxtpx:TrackPointExtension>
<gpxtpx:hr>134</gpxtpx:hr>
<gpxtpx:atemp>15</gpxtpx:atemp>
</gpxtpx:TrackPointExtension>
</extensions>
</trkpt>
<trkpt lat="47.597815990448" lon="12.186653204262257">
<ele>500</ele>
<time>2012-03-03T09:56:35Z</time>
<extensions>
<gpxtpx:TrackPointExtension>
<gpxtpx:hr>134</gpxtpx:hr>
<gpxtpx:atemp>15</gpxtpx:atemp>
</gpxtpx:TrackPointExtension>
</extensions>
</trkpt>
<trkpt lat="47.59783283807337" lon="12.186806090176105">
<ele>500</ele>
<time>2012-03-03T09:56:37Z</time>
<extensions>
<gpxtpx:TrackPointExtension>
<gpxtpx:hr>134</gpxtpx:hr>
<gpxtpx:atemp>15</gpxtpx:atemp>
</gpxtpx:TrackPointExtension>
</extensions>
</trkpt>
<trkpt lat="47.59786401875317" lon="12.187312189489603">
<ele>500</ele>
<time>2012-03-03T09:56:43Z</time>
<extensions>
<gpxtpx:TrackPointExtension>
<gpxtpx:hr>135</gpxtpx:hr>
<gpxtpx:atemp>15</gpxtpx:atemp>
</gpxtpx:TrackPointExtension>
</extensions>
</trkpt>
<trkpt lat="47.5978762563318" lon="12.187535651028156">
<ele>500</ele>
<time>2012-03-03T09:56:46Z</time>
<extensions>
<gpxtpx:TrackPointExtension>
<gpxtpx:hr>134</gpxtpx:hr>
<gpxtpx:atemp>14</gpxtpx:atemp>
</gpxtpx:TrackPointExtension>
</extensions>
</trkpt>
<trkpt lat="47.597879860550165" lon="12.187610669061542">
<ele>500</ele>
<time>2012-03-03T09:56:47Z</time>
<extensions>
<gpxtpx:TrackPointExtension>
<gpxtpx:hr>133</gpxtpx:hr>
<gpxtpx:atemp>14</gpxtpx:atemp>
</gpxtpx:TrackPointExtension>
</extensions>
</trkpt>
<trkpt lat="47.597882794216275" lon="12.187684262171388">
<ele>499</ele>
<time>2012-03-03T09:56:48Z</time>
<extensions>
<gpxtpx:TrackPointExtension>
<gpxtpx:hr>132</gpxtpx:hr>
<gpxtpx:atemp>14</gpxtpx:atemp>
</gpxtpx:TrackPointExtension>
</extensions>
</trkpt>
<trkpt lat="47.597883297130466" lon="12.187759699299932">
<ele>498</ele>
<time>2012-03-03T09:56:49Z</time>
<extensions>
<gpxtpx:TrackPointExtension>
<gpxtpx:hr>130</gpxtpx:hr>
<gpxtpx:atemp>14</gpxtpx:atemp>
</gpxtpx:TrackPointExtension>
</extensions>
</trkpt>
<trkpt lat="47.59788556024432" lon="12.187822731211782">
<ele>498</ele>
<time>2012-03-03T09:56:50Z</time>
<extensions>
<gpxtpx:TrackPointExtension>
<gpxtpx:hr>130</gpxtpx:hr>
<gpxtpx:atemp>14</gpxtpx:atemp>
</gpxtpx:TrackPointExtension>
</extensions>
</trkpt>
<trkpt lat="47.597907269373536" lon="12.18821014277637">
<ele>498</ele>
<time>2012-03-03T09:56:55Z</time>
<extensions>
<gpxtpx:TrackPointExtension>
<gpxtpx:hr>127</gpxtpx:hr>
<gpxtpx:atemp>14</gpxtpx:atemp>
</gpxtpx:TrackPointExtension>
</extensions>
</trkpt>
<trkpt lat="47.59791489690542" lon="12.18828683719039">
<ele>498</ele>
<time>2012-03-03T09:56:56Z</time>
<extensions>
<gpxtpx:TrackPointExtension>
<gpxtpx:hr>124</gpxtpx:hr>
<gpxtpx:atemp>14</gpxtpx:atemp>
</gpxtpx:TrackPointExtension>
</extensions>
</trkpt>
<trkpt lat="47.59793484583497" lon="12.188438381999731">
<ele>498</ele>
<time>2012-03-03T09:56:58Z</time>
<extensions>
<gpxtpx:TrackPointExtension>
<gpxtpx:hr>118</gpxtpx:hr>
<gpxtpx:atemp>14</gpxtpx:atemp>
</gpxtpx:TrackPointExtension>
</extensions>
</trkpt>
<trkpt lat="47.5979558005929" lon="12.188583388924599">
<ele>498</ele>
<time>2012-03-03T09:57:00Z</time>
<extensions>
<gpxtpx:TrackPointExtension>
<gpxtpx:hr>116</gpxtpx:hr>
<gpxtpx:atemp>14</gpxtpx:atemp>
</gpxtpx:TrackPointExtension>
</extensions>
</trkpt>
<trkpt lat="47.5979885738343" lon="12.188735101372004">
<ele>498</ele>
<time>2012-03-03T09:57:02Z</time>
<extensions>
<gpxtpx:TrackPointExtension>
<gpxtpx:hr>118</gpxtpx:hr>
<gpxtpx:atemp>14</gpxtpx:atemp>
</gpxtpx:TrackPointExtension>
</extensions>
</trkpt>
<trkpt lat="47.59814389050007" lon="12.189240781590343">
<ele>498</ele>
<time>2012-03-03T09:57:09Z</time>
<extensions>
<gpxtpx:TrackPointExtension>
<gpxtpx:hr>117</gpxtpx:hr>
<gpxtpx:atemp>14</gpxtpx:atemp>
</gpxtpx:TrackPointExtension>
</extensions>
</trkpt>
<trkpt lat="47.59821278974414" lon="12.189453011378646">
<ele>498</ele>
<time>2012-03-03T09:57:12Z</time>
<extensions>
<gpxtpx:TrackPointExtension>
<gpxtpx:hr>120</gpxtpx:hr>
<gpxtpx:atemp>14</gpxtpx:atemp>
</gpxtpx:TrackPointExtension>
</extensions>
</trkpt>
<trkpt lat="47.59827942587435" lon="12.189667336642742">
<ele>498</ele>
<time>2012-03-03T09:57:15Z</time>
<extensions>
<gpxtpx:TrackPointExtension>
<gpxtpx:hr>119</gpxtpx:hr>
<gpxtpx:atemp>14</gpxtpx:atemp>
</gpxtpx:TrackPointExtension>
</extensions>
</trkpt>
<trkpt lat="47.59829987771809" lon="12.189738499000669">
<ele>498</ele>
<time>2012-03-03T09:57:16Z</time>
<extensions>
<gpxtpx:TrackPointExtension>
<gpxtpx:hr>119</gpxtpx:hr>
<gpxtpx:atemp>14</gpxtpx:atemp>
</gpxtpx:TrackPointExtension>
</extensions>
</trkpt>
<trkpt lat="47.59831949137151" lon="12.18981234356761">
<ele>498</ele>
<time>2012-03-03T09:57:17Z</time>
<extensions>
<gpxtpx:TrackPointExtension>
<gpxtpx:hr>120</gpxtpx:hr>
<gpxtpx:atemp>14</gpxtpx:atemp>
</gpxtpx:TrackPointExtension>
</extensions>
</trkpt>
<trkpt lat="47.59833860211074" lon="12.189885517582297">
<ele>497</ele>
<time>2012-03-03T09:57:18Z</time>
<extensions>
<gpxtpx:TrackPointExtension>
<gpxtpx:hr>122</gpxtpx:hr>
<gpxtpx:atemp>14</gpxtpx:atemp>
</gpxtpx:TrackPointExtension>
</extensions>
</trkpt>
<trkpt lat="47.59835695847869" lon="12.189958607777953">
<ele>497</ele>
<time>2012-03-03T09:57:19Z</time>
<extensions>
<gpxtpx:TrackPointExtension>
<gpxtpx:hr>123</gpxtpx:hr>
<gpxtpx:atemp>14</gpxtpx:atemp>
</gpxtpx:TrackPointExtension>
</extensions>
</trkpt>
<trkpt lat="47.59837397374213" lon="12.190031362697482">
<ele>496</ele>
<time>2012-03-03T09:57:20Z</time>
<extensions>
<gpxtpx:TrackPointExtension>
<gpxtpx:hr>123</gpxtpx:hr>
<gpxtpx:atemp>13</gpxtpx:atemp>
</gpxtpx:TrackPointExtension>
</extensions>
</trkpt>
<trkpt lat="47.598404651507735" lon="12.190175447613">
<ele>496</ele>
<time>2012-03-03T09:57:22Z</time>
<extensions>
<gpxtpx:TrackPointExtension>
<gpxtpx:hr>123</gpxtpx:hr>
<gpxtpx:atemp>13</gpxtpx:atemp>
</gpxtpx:TrackPointExtension>
</extensions>
</trkpt>
<trkpt lat="47.598434910178185" lon="12.190389018505812">
<ele>496</ele>
<time>2012-03-03T09:57:25Z</time>
<extensions>
<gpxtpx:TrackPointExtension>
<gpxtpx:hr>120</gpxtpx:hr>
<gpxtpx:atemp>13</gpxtpx:atemp>
</gpxtpx:TrackPointExtension>
</extensions>
</trkpt>
<trkpt lat="47.59845921769738" lon="12.19053746201098">
<ele>496</ele>
<time>2012-03-03T09:57:27Z</time>
<extensions>
<gpxtpx:TrackPointExtension>
<gpxtpx:hr>119</gpxtpx:hr>
<gpxtpx:atemp>13</gpxtpx:atemp>
</gpxtpx:TrackPointExtension>
</extensions>
</trkpt>
<trkpt lat="47.59848486632109" lon="12.190772825852036">
<ele>496</ele>
<time>2012-03-03T09:57:30Z</time>
<extensions>
<gpxtpx:TrackPointExtension>
<gpxtpx:hr>122</gpxtpx:hr>
<gpxtpx:atemp>13</gpxtpx:atemp>
</gpxtpx:TrackPointExtension>
</extensions>
</trkpt>
<trkpt lat="47.59850540198386" lon="12.191065018996596">
<ele>496</ele>
<time>2012-03-03T09:57:34Z</time>
<extensions>
<gpxtpx:TrackPointExtension>
<gpxtpx:hr>122</gpxtpx:hr>
<gpxtpx:atemp>13</gpxtpx:atemp>
</gpxtpx:TrackPointExtension>
</extensions>
</trkpt>
<trkpt lat="47.59848461486399" lon="12.191292503848672">
<ele>496</ele>
<time>2012-03-03T09:57:37Z</time>
<extensions>
<gpxtpx:TrackPointExtension>
<gpxtpx:hr>121</gpxtpx:hr>
<gpxtpx:atemp>13</gpxtpx:atemp>
</gpxtpx:TrackPointExtension>
</extensions>
</trkpt>
<trkpt lat="47.598459888249636" lon="12.19143751077354">
<ele>496</ele>
<time>2012-03-03T09:57:39Z</time>
<extensions>
<gpxtpx:TrackPointExtension>
<gpxtpx:hr>122</gpxtpx:hr>
<gpxtpx:atemp>13</gpxtpx:atemp>
</gpxtpx:TrackPointExtension>
</extensions>
</trkpt>
<trkpt lat="47.59835352189839" lon="12.192107643932104">
<ele>496</ele>
<time>2012-03-03T09:57:48Z</time>
<extensions>
<gpxtpx:TrackPointExtension>
<gpxtpx:hr>123</gpxtpx:hr>
<gpxtpx:atemp>13</gpxtpx:atemp>
</gpxtpx:TrackPointExtension>
</extensions>
</trkpt>
<trkpt lat="47.5983009673655" lon="12.19269278459251">
<ele>496</ele>
<time>2012-03-03T09:57:56Z</time>
<extensions>
<gpxtpx:TrackPointExtension>
<gpxtpx:hr>124</gpxtpx:hr>
<gpxtpx:atemp>12</gpxtpx:atemp>
</gpxtpx:TrackPointExtension>
</extensions>
</trkpt>
<trkpt lat="47.59828227572143" lon="12.192909456789494">
<ele>496</ele>
<time>2012-03-03T09:57:59Z</time>
<extensions>
<gpxtpx:TrackPointExtension>
<gpxtpx:hr>121</gpxtpx:hr>
<gpxtpx:atemp>12</gpxtpx:atemp>
</gpxtpx:TrackPointExtension>
</extensions>
</trkpt>
<trkpt lat="47.598279593512416" lon="12.19298497773707">
<ele>496</ele>
<time>2012-03-03T09:58:00Z</time>
<extensions>
<gpxtpx:TrackPointExtension>
<gpxtpx:hr>120</gpxtpx:hr>
<gpxtpx:atemp>12</gpxtpx:atemp>
</gpxtpx:TrackPointExtension>
</extensions>
</trkpt>
<trkpt lat="47.59827297180891" lon="12.193122608587146">
<ele>496</ele>
<time>2012-03-03T09:58:02Z</time>
<extensions>
<gpxtpx:TrackPointExtension>
<gpxtpx:hr>119</gpxtpx:hr>
<gpxtpx:atemp>12</gpxtpx:atemp>
</gpxtpx:TrackPointExtension>
</extensions>
</trkpt>
<trkpt lat="47.59826601482928" lon="12.19318044371903">
<ele>496</ele>
<time>2012-03-03T09:58:03Z</time>
<extensions>
<gpxtpx:TrackPointExtension>
<gpxtpx:hr>119</gpxtpx:hr>
<gpxtpx:atemp>12</gpxtpx:atemp>
</gpxtpx:TrackPointExtension>
</extensions>
</trkpt>
<trkpt lat="47.598221842199564" lon="12.193266609683633">
<ele>496</ele>
<time>2012-03-03T09:58:05Z</time>
<extensions>
<gpxtpx:TrackPointExtension>
<gpxtpx:hr>118</gpxtpx:hr>
<gpxtpx:atemp>12</gpxtpx:atemp>
</gpxtpx:TrackPointExtension>
</extensions>
</trkpt>
<trkpt lat="47.59817901067436" lon="12.193286390975118">
<ele>496</ele>
<time>2012-03-03T09:58:06Z</time>
<extensions>
<gpxtpx:TrackPointExtension>
<gpxtpx:hr>118</gpxtpx:hr>
<gpxtpx:atemp>12</gpxtpx:atemp>
</gpxtpx:TrackPointExtension>
</extensions>
</trkpt>
<trkpt lat="47.59813332930207" lon="12.193288318812847">
<ele>495</ele>
<time>2012-03-03T09:58:07Z</time>
<extensions>
<gpxtpx:TrackPointExtension>
<gpxtpx:hr>119</gpxtpx:hr>
<gpxtpx:atemp>12</gpxtpx:atemp>
</gpxtpx:TrackPointExtension>
</extensions>
</trkpt>
<trkpt lat="47.5980868935585" lon="12.193283708766103">
<ele>495</ele>
<time>2012-03-03T09:58:08Z</time>
<extensions>
<gpxtpx:TrackPointExtension>
<gpxtpx:hr>119</gpxtpx:hr>
<gpxtpx:atemp>12</gpxtpx:atemp>
</gpxtpx:TrackPointExtension>
</extensions>
</trkpt>
<trkpt lat="47.598044984042645" lon="12.193293599411845">
<ele>494</ele>
<time>2012-03-03T09:58:09Z</time>
<extensions>
<gpxtpx:TrackPointExtension>
<gpxtpx:hr>120</gpxtpx:hr>
<gpxtpx:atemp>12</gpxtpx:atemp>
</gpxtpx:TrackPointExtension>
</extensions>
</trkpt>
<trkpt lat="47.598007936030626" lon="12.193327881395817">
<ele>494</ele>
<time>2012-03-03T09:58:10Z</time>
<extensions>
<gpxtpx:TrackPointExtension>
<gpxtpx:hr>120</gpxtpx:hr>
<gpxtpx:atemp>12</gpxtpx:atemp>
</gpxtpx:TrackPointExtension>
</extensions>
</trkpt>
<trkpt lat="47.597959488630295" lon="12.193506667390466">
<ele>494</ele>
<time>2012-03-03T09:58:13Z</time>
<extensions>
<gpxtpx:TrackPointExtension>
<gpxtpx:hr>122</gpxtpx:hr>
<gpxtpx:atemp>12</gpxtpx:atemp>
</gpxtpx:TrackPointExtension>
</extensions>
</trkpt>
<trkpt lat="47.597946329042315" lon="12.193571962416172">
<ele>494</ele>
<time>2012-03-03T09:58:14Z</time>
<extensions>
<gpxtpx:TrackPointExtension>
<gpxtpx:hr>122</gpxtpx:hr>
<gpxtpx:atemp>12</gpxtpx:atemp>
</gpxtpx:TrackPointExtension>
</extensions>
</trkpt>
<trkpt lat="47.59783996269107" lon="12.194179985672235">
<ele>494</ele>
<time>2012-03-03T09:58:23Z</time>
<extensions>
<gpxtpx:TrackPointExtension>
<gpxtpx:hr>123</gpxtpx:hr>
<gpxtpx:atemp>12</gpxtpx:atemp>
</gpxtpx:TrackPointExtension>
</extensions>
</trkpt>
<trkpt lat="47.597826551645994" lon="12.194311497732997">
<ele>494</ele>
<time>2012-03-03T09:58:25Z</time>
<extensions>
<gpxtpx:TrackPointExtension>
<gpxtpx:hr>120</gpxtpx:hr>
<gpxtpx:atemp>12</gpxtpx:atemp>
</gpxtpx:TrackPointExtension>
</extensions>
</trkpt>
<trkpt lat="47.59779889136553" lon="12.19456622377038">
<ele>494</ele>
<time>2012-03-03T09:58:29Z</time>
<extensions>
<gpxtpx:TrackPointExtension>
<gpxtpx:hr>121</gpxtpx:hr>
<gpxtpx:atemp>12</gpxtpx:atemp>
</gpxtpx:TrackPointExtension>
</extensions>
</trkpt>
<trkpt lat="47.59783518500626" lon="12.194755235686898">
<ele>494</ele>
<time>2012-03-03T09:58:32Z</time>
<extensions>
<gpxtpx:TrackPointExtension>
<gpxtpx:hr>122</gpxtpx:hr>
<gpxtpx:atemp>11</gpxtpx:atemp>
</gpxtpx:TrackPointExtension>
</extensions>
</trkpt>
<trkpt lat="47.597865192219615" lon="12.194818435236812">
<ele>494</ele>
<time>2012-03-03T09:58:33Z</time>
<extensions>
<gpxtpx:TrackPointExtension>
<gpxtpx:hr>122</gpxtpx:hr>
<gpxtpx:atemp>11</gpxtpx:atemp>
</gpxtpx:TrackPointExtension>
</extensions>
</trkpt>
<trkpt lat="47.59798756800592" lon="12.195124877616763">
<ele>494</ele>
<time>2012-03-03T09:58:38Z</time>
<extensions>
<gpxtpx:TrackPointExtension>
<gpxtpx:hr>121</gpxtpx:hr>
<gpxtpx:atemp>11</gpxtpx:atemp>
</gpxtpx:TrackPointExtension>
</extensions>
</trkpt>
<trkpt lat="47.5980160664767" lon="12.19518531113863">
<ele>494</ele>
<time>2012-03-03T09:58:39Z</time>
<extensions>
<gpxtpx:TrackPointExtension>
<gpxtpx:hr>119</gpxtpx:hr>
<gpxtpx:atemp>11</gpxtpx:atemp>
</gpxtpx:TrackPointExtension>
</extensions>
</trkpt>
<trkpt lat="47.59804523549974" lon="12.195240212604403">
<ele>494</ele>
<time>2012-03-03T09:58:40Z</time>
<extensions>
<gpxtpx:TrackPointExtension>
<gpxtpx:hr>117</gpxtpx:hr>
<gpxtpx:atemp>11</gpxtpx:atemp>
</gpxtpx:TrackPointExtension>
</extensions>
</trkpt>
<trkpt lat="47.598097287118435" lon="12.195341298356652">
<ele>494</ele>
<time>2012-03-03T09:58:42Z</time>
<extensions>
<gpxtpx:TrackPointExtension>
<gpxtpx:hr>114</gpxtpx:hr>
<gpxtpx:atemp>11</gpxtpx:atemp>
</gpxtpx:TrackPointExtension>
</extensions>
</trkpt>
<trkpt lat="47.5981889013201" lon="12.19552637077868">
<ele>494</ele>
<time>2012-03-03T09:58:46Z</time>
<extensions>
<gpxtpx:TrackPointExtension>
<gpxtpx:hr>113</gpxtpx:hr>
<gpxtpx:atemp>11</gpxtpx:atemp>
</gpxtpx:TrackPointExtension>
</extensions>
</trkpt>
<trkpt lat="47.59822762571275" lon="12.195590324699879">
<ele>494</ele>
<time>2012-03-03T09:58:48Z</time>
<extensions>
<gpxtpx:TrackPointExtension>
<gpxtpx:hr>116</gpxtpx:hr>
<gpxtpx:atemp>11</gpxtpx:atemp>
</gpxtpx:TrackPointExtension>
</extensions>
</trkpt>
<trkpt lat="47.59826802648604" lon="12.195682525634766">
<ele>494</ele>
<time>2012-03-03T09:58:51Z</time>
<extensions>
<gpxtpx:TrackPointExtension>
<gpxtpx:hr>118</gpxtpx:hr>
<gpxtpx:atemp>11</gpxtpx:atemp>
</gpxtpx:TrackPointExtension>
</extensions>
</trkpt>
<trkpt lat="47.59825344197452" lon="12.195807583630085">
<ele>494</ele>
<time>2012-03-03T09:58:54Z</time>
<extensions>
<gpxtpx:TrackPointExtension>
<gpxtpx:hr>118</gpxtpx:hr>
<gpxtpx:atemp>11</gpxtpx:atemp>
</gpxtpx:TrackPointExtension>
</extensions>
</trkpt>
<trkpt lat="47.59823785163462" lon="12.195841362699866">
<ele>494</ele>
<time>2012-03-03T09:58:55Z</time>
<extensions>
<gpxtpx:TrackPointExtension>
<gpxtpx:hr>119</gpxtpx:hr>
<gpxtpx:atemp>11</gpxtpx:atemp>
</gpxtpx:TrackPointExtension>
</extensions>
</trkpt>
<trkpt lat="47.598140789195895" lon="12.196053173393011">
<ele>494</ele>
<time>2012-03-03T09:58:59Z</time>
<extensions>
<gpxtpx:TrackPointExtension>
<gpxtpx:hr>123</gpxtpx:hr>
<gpxtpx:atemp>11</gpxtpx:atemp>
</gpxtpx:TrackPointExtension>
</extensions>
</trkpt>
<trkpt lat="47.59810583665967" lon="12.196203460916877">
<ele>494</ele>
<time>2012-03-03T09:59:01Z</time>
<extensions>
<gpxtpx:TrackPointExtension>
<gpxtpx:hr>124</gpxtpx:hr>
<gpxtpx:atemp>11</gpxtpx:atemp>
</gpxtpx:TrackPointExtension>
</extensions>
</trkpt>
<trkpt lat="47.59806761518121" lon="12.196282166987658">
<ele>494</ele>
<time>2012-03-03T09:59:02Z</time>
<extensions>
<gpxtpx:TrackPointExtension>
<gpxtpx:hr>125</gpxtpx:hr>
<gpxtpx:atemp>11</gpxtpx:atemp>
</gpxtpx:TrackPointExtension>
</extensions>
</trkpt>
<trkpt lat="47.59803249500692" lon="12.196349892765284">
<ele>494</ele>
<time>2012-03-03T09:59:03Z</time>
<extensions>
<gpxtpx:TrackPointExtension>
<gpxtpx:hr>126</gpxtpx:hr>
<gpxtpx:atemp>11</gpxtpx:atemp>
</gpxtpx:TrackPointExtension>
</extensions>
</trkpt>
<trkpt lat="47.597952196374536" lon="12.196464389562607">
<ele>494</ele>
<time>2012-03-03T09:59:05Z</time>
<extensions>
<gpxtpx:TrackPointExtension>
<gpxtpx:hr>126</gpxtpx:hr>
<gpxtpx:atemp>11</gpxtpx:atemp>
</gpxtpx:TrackPointExtension>
</extensions>
</trkpt>
<trkpt lat="47.59787323884666" lon="12.196558434516191">
<ele>494</ele>
<time>2012-03-03T09:59:07Z</time>
<extensions>
<gpxtpx:TrackPointExtension>
<gpxtpx:hr>125</gpxtpx:hr>
<gpxtpx:atemp>10</gpxtpx:atemp>
</gpxtpx:TrackPointExtension>
</extensions>
</trkpt>
<trkpt lat="47.5978297367692" lon="12.196748619899154">
<ele>494</ele>
<time>2012-03-03T09:59:10Z</time>
<extensions>
<gpxtpx:TrackPointExtension>
<gpxtpx:hr>125</gpxtpx:hr>
<gpxtpx:atemp>10</gpxtpx:atemp>
</gpxtpx:TrackPointExtension>
</extensions>
</trkpt>
<trkpt lat="47.59786494076252" lon="12.196947606280446">
<ele>494</ele>
<time>2012-03-03T09:59:13Z</time>
<extensions>
<gpxtpx:TrackPointExtension>
<gpxtpx:hr>125</gpxtpx:hr>
<gpxtpx:atemp>10</gpxtpx:atemp>
</gpxtpx:TrackPointExtension>
</extensions>
</trkpt>
<trkpt lat="47.597879357635975" lon="12.197004854679108">
<ele>494</ele>
<time>2012-03-03T09:59:14Z</time>
<extensions>
<gpxtpx:TrackPointExtension>
<gpxtpx:hr>125</gpxtpx:hr>
<gpxtpx:atemp>10</gpxtpx:atemp>
</gpxtpx:TrackPointExtension>
</extensions>
</trkpt>
<trkpt lat="47.59794414974749" lon="12.197130331769586">
<ele>494</ele>
<time>2012-03-03T09:59:17Z</time>
<extensions>
<gpxtpx:TrackPointExtension>
<gpxtpx:hr>125</gpxtpx:hr>
<gpxtpx:atemp>10</gpxtpx:atemp>
</gpxtpx:TrackPointExtension>
</extensions>
</trkpt>
<trkpt lat="47.59797994047403" lon="12.197164613753557">
<ele>494</ele>
<time>2012-03-03T09:59:18Z</time>
<extensions>
<gpxtpx:TrackPointExtension>
<gpxtpx:hr>125</gpxtpx:hr>
<gpxtpx:atemp>10</gpxtpx:atemp>
</gpxtpx:TrackPointExtension>
</extensions>
</trkpt>
<trkpt lat="47.59810717776418" lon="12.197256227955222">
<ele>494</ele>
<time>2012-03-03T09:59:21Z</time>
<extensions>
<gpxtpx:TrackPointExtension>
<gpxtpx:hr>126</gpxtpx:hr>
<gpxtpx:atemp>10</gpxtpx:atemp>
</gpxtpx:TrackPointExtension>
</extensions>
</trkpt>
<trkpt lat="47.598158894106746" lon="12.197312721982598">
<ele>493</ele>
<time>2012-03-03T09:59:22Z</time>
<extensions>
<gpxtpx:TrackPointExtension>
<gpxtpx:hr>127</gpxtpx:hr>
<gpxtpx:atemp>10</gpxtpx:atemp>
</gpxtpx:TrackPointExtension>
</extensions>
</trkpt>
<trkpt lat="47.59820071980357" lon="12.197375083342195">
<ele>493</ele>
<time>2012-03-03T09:59:23Z</time>
<extensions>
<gpxtpx:TrackPointExtension>
<gpxtpx:hr>127</gpxtpx:hr>
<gpxtpx:atemp>10</gpxtpx:atemp>
</gpxtpx:TrackPointExtension>
</extensions>
</trkpt>
<trkpt lat="47.59823793545365" lon="12.197444317862391">
<ele>493</ele>
<time>2012-03-03T09:59:24Z</time>
<extensions>
<gpxtpx:TrackPointExtension>
<gpxtpx:hr>128</gpxtpx:hr>
<gpxtpx:atemp>10</gpxtpx:atemp>
</gpxtpx:TrackPointExtension>
</extensions>
</trkpt>
<trkpt lat="47.598273139446974" lon="12.1975267957896">
<ele>492</ele>
<time>2012-03-03T09:59:25Z</time>
<extensions>
<gpxtpx:TrackPointExtension>
<gpxtpx:hr>127</gpxtpx:hr>
<gpxtpx:atemp>10</gpxtpx:atemp>
</gpxtpx:TrackPointExtension>
</extensions>
</trkpt>
<trkpt lat="47.598330304026604" lon="12.197673059999943">
<ele>492</ele>
<time>2012-03-03T09:59:27Z</time>
<extensions>
<gpxtpx:TrackPointExtension>
<gpxtpx:hr>126</gpxtpx:hr>
<gpxtpx:atemp>10</gpxtpx:atemp>
</gpxtpx:TrackPointExtension>
</extensions>
</trkpt>
<trkpt lat="47.59836475364864" lon="12.197788311168551">
<ele>492</ele>
<time>2012-03-03T09:59:29Z</time>
<extensions>
<gpxtpx:TrackPointExtension>
<gpxtpx:hr>125</gpxtpx:hr>
<gpxtpx:atemp>10</gpxtpx:atemp>
</gpxtpx:TrackPointExtension>
</extensions>
</trkpt>
<trkpt lat="47.59838730096817" lon="12.197833321988583">
<ele>491</ele>
<time>2012-03-03T09:59:30Z</time>
<extensions>
<gpxtpx:TrackPointExtension>
<gpxtpx:hr>126</gpxtpx:hr>
<gpxtpx:atemp>10</gpxtpx:atemp>
</gpxtpx:TrackPointExtension>
</extensions>
</trkpt>
<trkpt lat="47.59840892627835" lon="12.197879673913121">
<ele>491</ele>
<time>2012-03-03T09:59:31Z</time>
<extensions>
<gpxtpx:TrackPointExtension>
<gpxtpx:hr>125</gpxtpx:hr>
<gpxtpx:atemp>10</gpxtpx:atemp>
</gpxtpx:TrackPointExtension>
</extensions>
</trkpt>
<trkpt lat="47.59843281470239" lon="12.197911189869046">
<ele>490</ele>
<time>2012-03-03T09:59:32Z</time>
<extensions>
<gpxtpx:TrackPointExtension>
<gpxtpx:hr>125</gpxtpx:hr>
<gpxtpx:atemp>10</gpxtpx:atemp>
</gpxtpx:TrackPointExtension>
</extensions>
</trkpt>
<trkpt lat="47.598458882421255" lon="12.197952847927809">
<ele>490</ele>
<time>2012-03-03T09:59:33Z</time>
<extensions>
<gpxtpx:TrackPointExtension>
<gpxtpx:hr>125</gpxtpx:hr>
<gpxtpx:atemp>10</gpxtpx:atemp>
</gpxtpx:TrackPointExtension>
</extensions>
</trkpt>
<trkpt lat="47.59854571893811" lon="12.19806281849742">
<ele>490</ele>
<time>2012-03-03T09:59:36Z</time>
<extensions>
<gpxtpx:TrackPointExtension>
<gpxtpx:hr>125</gpxtpx:hr>
<gpxtpx:atemp>10</gpxtpx:atemp>
</gpxtpx:TrackPointExtension>
</extensions>
</trkpt>
<trkpt lat="47.598655270412564" lon="12.198203383013606">
<ele>490</ele>
<time>2012-03-03T09:59:39Z</time>
<extensions>
<gpxtpx:TrackPointExtension>
<gpxtpx:hr>127</gpxtpx:hr>
<gpxtpx:atemp>10</gpxtpx:atemp>
</gpxtpx:TrackPointExtension>
</extensions>
</trkpt>
<trkpt lat="47.59874118492007" lon="12.198283849284053">
<ele>490</ele>
<time>2012-03-03T09:59:41Z</time>
<extensions>
<gpxtpx:TrackPointExtension>
<gpxtpx:hr>129</gpxtpx:hr>
<gpxtpx:atemp>9</gpxtpx:atemp>
</gpxtpx:TrackPointExtension>
</extensions>
</trkpt>
<trkpt lat="47.599002700299025" lon="12.1985231526196">
<ele>490</ele>
<time>2012-03-03T09:59:47Z</time>
<extensions>
<gpxtpx:TrackPointExtension>
<gpxtpx:hr>131</gpxtpx:hr>
<gpxtpx:atemp>9</gpxtpx:atemp>
</gpxtpx:TrackPointExtension>
</extensions>
</trkpt>
<trkpt lat="47.59929271414876" lon="12.198725659400225">
<ele>490</ele>
<time>2012-03-03T09:59:54Z</time>
<extensions>
<gpxtpx:TrackPointExtension>
<gpxtpx:hr>132</gpxtpx:hr>
<gpxtpx:atemp>9</gpxtpx:atemp>
</gpxtpx:TrackPointExtension>
</extensions>
</trkpt>
<trkpt lat="47.599440487101674" lon="12.19883001409471">
<ele>490</ele>
<time>2012-03-03T09:59:57Z</time>
<extensions>
<gpxtpx:TrackPointExtension>
<gpxtpx:hr>129</gpxtpx:hr>
<gpxtpx:atemp>9</gpxtpx:atemp>
</gpxtpx:TrackPointExtension>
</extensions>
</trkpt>
<trkpt lat="47.59953645989299" lon="12.19890427775681">
<ele>490</ele>
<time>2012-03-03T09:59:59Z</time>
<extensions>
<gpxtpx:TrackPointExtension>
<gpxtpx:hr>128</gpxtpx:hr>
<gpxtpx:atemp>9</gpxtpx:atemp>
</gpxtpx:TrackPointExtension>
</extensions>
</trkpt>
<trkpt lat="47.59962597861886" lon="12.198991114273667">
<ele>490</ele>
<time>2012-03-03T10:00:01Z</time>
<extensions>
<gpxtpx:TrackPointExtension>
<gpxtpx:hr>128</gpxtpx:hr>
<gpxtpx:atemp>9</gpxtpx:atemp>
</gpxtpx:TrackPointExtension>
</extensions>
</trkpt>
<trkpt lat="47.599751790985465" lon="12.199168307706714">
<ele>490</ele>
<time>2012-03-03T10:00:04Z</time>
<extensions>
<gpxtpx:TrackPointExtension>
<gpxtpx:hr>128</gpxtpx:hr>
<gpxtpx:atemp>9</gpxtpx:atemp>
</gpxtpx:TrackPointExtension>
</extensions>
</trkpt>
<trkpt lat="47.599819265305996" lon="12.199286660179496">
<ele>490</ele>
<time>2012-03-03T10:00:06Z</time>
<extensions>
<gpxtpx:TrackPointExtension>
<gpxtpx:hr>127</gpxtpx:hr>
<gpxtpx:atemp>9</gpxtpx:atemp>
</gpxtpx:TrackPointExtension>
</extensions>
</trkpt>
<trkpt lat="47.59991716593504" lon="12.199444156140089">
<ele>490</ele>
<time>2012-03-03T10:00:09Z</time>
<extensions>
<gpxtpx:TrackPointExtension>
<gpxtpx:hr>124</gpxtpx:hr>
<gpxtpx:atemp>9</gpxtpx:atemp>
</gpxtpx:TrackPointExtension>
</extensions>
</trkpt>
<trkpt lat="47.600051863119006" lon="12.199616823345423">
<ele>490</ele>
<time>2012-03-03T10:00:13Z</time>
<extensions>
<gpxtpx:TrackPointExtension>
<gpxtpx:hr>124</gpxtpx:hr>
<gpxtpx:atemp>9</gpxtpx:atemp>
</gpxtpx:TrackPointExtension>
</extensions>
</trkpt>
<trkpt lat="47.60013023391366" lon="12.199701396748424">
<ele>490</ele>
<time>2012-03-03T10:00:15Z</time>
<extensions>
<gpxtpx:TrackPointExtension>
<gpxtpx:hr>125</gpxtpx:hr>
<gpxtpx:atemp>9</gpxtpx:atemp>
</gpxtpx:TrackPointExtension>
</extensions>
</trkpt>
<trkpt lat="47.60025135241449" lon="12.199880434200168">
<ele>490</ele>
<time>2012-03-03T10:00:19Z</time>
<extensions>
<gpxtpx:TrackPointExtension>
<gpxtpx:hr>124</gpxtpx:hr>
<gpxtpx:atemp>8</gpxtpx:atemp>
</gpxtpx:TrackPointExtension>
</extensions>
</trkpt>
<trkpt lat="47.60034271515906" lon="12.20002074725926">
<ele>490</ele>
<time>2012-03-03T10:00:22Z</time>
<extensions>
<gpxtpx:TrackPointExtension>
<gpxtpx:hr>125</gpxtpx:hr>
<gpxtpx:atemp>8</gpxtpx:atemp>
</gpxtpx:TrackPointExtension>
</extensions>
</trkpt>
<trkpt lat="47.60037171654403" lon="12.200076654553413">
<ele>490</ele>
<time>2012-03-03T10:00:23Z</time>
<extensions>
<gpxtpx:TrackPointExtension>
<gpxtpx:hr>126</gpxtpx:hr>
<gpxtpx:atemp>8</gpxtpx:atemp>
</gpxtpx:TrackPointExtension>
</extensions>
</trkpt>
<trkpt lat="47.60043625719845" lon="12.200250746682286">
<ele>490</ele>
<time>2012-03-03T10:00:26Z</time>
<extensions>
<gpxtpx:TrackPointExtension>
<gpxtpx:hr>127</gpxtpx:hr>
<gpxtpx:atemp>8</gpxtpx:atemp>
</gpxtpx:TrackPointExtension>
</extensions>
</trkpt>
<trkpt lat="47.60044447146356" lon="12.200313191860914">
<ele>490</ele>
<time>2012-03-03T10:00:27Z</time>
<extensions>
<gpxtpx:TrackPointExtension>
<gpxtpx:hr>128</gpxtpx:hr>
<gpxtpx:atemp>8</gpxtpx:atemp>
</gpxtpx:TrackPointExtension>
</extensions>
</trkpt>
<trkpt lat="47.600452937185764" lon="12.200444117188454">
<ele>490</ele>
<time>2012-03-03T10:00:29Z</time>
<extensions>
<gpxtpx:TrackPointExtension>
<gpxtpx:hr>128</gpxtpx:hr>
<gpxtpx:atemp>8</gpxtpx:atemp>
</gpxtpx:TrackPointExtension>
</extensions>
</trkpt>
<trkpt lat="47.600461738184094" lon="12.200709152966738">
<ele>490</ele>
<time>2012-03-03T10:00:33Z</time>
<extensions>
<gpxtpx:TrackPointExtension>
<gpxtpx:hr>128</gpxtpx:hr>
<gpxtpx:atemp>8</gpxtpx:atemp>
</gpxtpx:TrackPointExtension>
</extensions>
</trkpt>
<trkpt lat="47.60049702599645" lon="12.201009644195437">
<ele>490</ele>
<time>2012-03-03T10:00:38Z</time>
<extensions>
<gpxtpx:TrackPointExtension>
<gpxtpx:hr>131</gpxtpx:hr>
<gpxtpx:atemp>8</gpxtpx:atemp>
</gpxtpx:TrackPointExtension>
</extensions>
</trkpt>
<trkpt lat="47.60056475177407" lon="12.201177449896932">
<ele>490</ele>
<time>2012-03-03T10:00:41Z</time>
<extensions>
<gpxtpx:TrackPointExtension>
<gpxtpx:hr>128</gpxtpx:hr>
<gpxtpx:atemp>8</gpxtpx:atemp>
</gpxtpx:TrackPointExtension>
</extensions>
</trkpt>
<trkpt lat="47.600601967424154" lon="12.201269986107945">
<ele>490</ele>
<time>2012-03-03T10:00:43Z</time>
<extensions>
<gpxtpx:TrackPointExtension>
<gpxtpx:hr>126</gpxtpx:hr>
<gpxtpx:atemp>8</gpxtpx:atemp>
</gpxtpx:TrackPointExtension>
</extensions>
</trkpt>
<trkpt lat="47.600720487535" lon="12.201491855084896">
<ele>490</ele>
<time>2012-03-03T10:00:48Z</time>
<extensions>
<gpxtpx:TrackPointExtension>
<gpxtpx:hr>126</gpxtpx:hr>
<gpxtpx:atemp>8</gpxtpx:atemp>
</gpxtpx:TrackPointExtension>
</extensions>
</trkpt>
<trkpt lat="47.60082392022014" lon="12.201683800667524">
<ele>490</ele>
<time>2012-03-03T10:00:51Z</time>
<extensions>
<gpxtpx:TrackPointExtension>
<gpxtpx:hr>123</gpxtpx:hr>
<gpxtpx:atemp>8</gpxtpx:atemp>
</gpxtpx:TrackPointExtension>
</extensions>
</trkpt>
<trkpt lat="47.60086222551763" lon="12.201739205047488">
<ele>490</ele>
<time>2012-03-03T10:00:52Z</time>
<extensions>
<gpxtpx:TrackPointExtension>
<gpxtpx:hr>123</gpxtpx:hr>
<gpxtpx:atemp>8</gpxtpx:atemp>
</gpxtpx:TrackPointExtension>
</extensions>
</trkpt>
<trkpt lat="47.600887790322304" lon="12.201801398769021">
<ele>490</ele>
<time>2012-03-03T10:00:53Z</time>
<extensions>
<gpxtpx:TrackPointExtension>
<gpxtpx:hr>124</gpxtpx:hr>
<gpxtpx:atemp>8</gpxtpx:atemp>
</gpxtpx:TrackPointExtension>
</extensions>
</trkpt>
<trkpt lat="47.60097412392497" lon="12.20197381451726">
<ele>490</ele>
<time>2012-03-03T10:00:56Z</time>
<extensions>
<gpxtpx:TrackPointExtension>
<gpxtpx:hr>126</gpxtpx:hr>
<gpxtpx:atemp>8</gpxtpx:atemp>
</gpxtpx:TrackPointExtension>
</extensions>
</trkpt>
<trkpt lat="47.60109624825418" lon="12.202290399000049">
<ele>490</ele>
<time>2012-03-03T10:01:01Z</time>
<extensions>
<gpxtpx:TrackPointExtension>
<gpxtpx:hr>126</gpxtpx:hr>
<gpxtpx:atemp>7</gpxtpx:atemp>
</gpxtpx:TrackPointExtension>
</extensions>
</trkpt>
<trkpt lat="47.60118752717972" lon="12.202459210529923">
<ele>490</ele>
<time>2012-03-03T10:01:04Z</time>
<extensions>
<gpxtpx:TrackPointExtension>
<gpxtpx:hr>129</gpxtpx:hr>
<gpxtpx:atemp>7</gpxtpx:atemp>
</gpxtpx:TrackPointExtension>
</extensions>
</trkpt>
<trkpt lat="47.60122323408723" lon="12.202512435615063">
<ele>490</ele>
<time>2012-03-03T10:01:05Z</time>
<extensions>
<gpxtpx:TrackPointExtension>
<gpxtpx:hr>130</gpxtpx:hr>
<gpxtpx:atemp>7</gpxtpx:atemp>
</gpxtpx:TrackPointExtension>
</extensions>
</trkpt>
<trkpt lat="47.601295905187726" lon="12.202608408406377">
<ele>490</ele>
<time>2012-03-03T10:01:07Z</time>
<extensions>
<gpxtpx:TrackPointExtension>
<gpxtpx:hr>132</gpxtpx:hr>
<gpxtpx:atemp>7</gpxtpx:atemp>
</gpxtpx:TrackPointExtension>
</extensions>
</trkpt>
<trkpt lat="47.601393554359674" lon="12.202764144167304">
<ele>490</ele>
<time>2012-03-03T10:01:11Z</time>
<extensions>
<gpxtpx:TrackPointExtension>
<gpxtpx:hr>134</gpxtpx:hr>
<gpxtpx:atemp>7</gpxtpx:atemp>
</gpxtpx:TrackPointExtension>
</extensions>
</trkpt>
<trkpt lat="47.60141585022211" lon="12.2028040420264">
<ele>490</ele>
<time>2012-03-03T10:01:12Z</time>
<extensions>
<gpxtpx:TrackPointExtension>
<gpxtpx:hr>133</gpxtpx:hr>
<gpxtpx:atemp>7</gpxtpx:atemp>
</gpxtpx:TrackPointExtension>
</extensions>
</trkpt>
<trkpt lat="47.60160829871893" lon="12.203095313161612">
<ele>490</ele>
<time>2012-03-03T10:01:17Z</time>
<extensions>
<gpxtpx:TrackPointExtension>
<gpxtpx:hr>135</gpxtpx:hr>
<gpxtpx:atemp>7</gpxtpx:atemp>
</gpxtpx:TrackPointExtension>
</extensions>
</trkpt>
<trkpt lat="47.601640317589045" lon="12.203163877129555">
<ele>490</ele>
<time>2012-03-03T10:01:18Z</time>
<extensions>
<gpxtpx:TrackPointExtension>
<gpxtpx:hr>135</gpxtpx:hr>
<gpxtpx:atemp>7</gpxtpx:atemp>
</gpxtpx:TrackPointExtension>
</extensions>
</trkpt>
<trkpt lat="47.60170066729188" lon="12.203349201008677">
<ele>490</ele>
<time>2012-03-03T10:01:21Z</time>
<extensions>
<gpxtpx:TrackPointExtension>
<gpxtpx:hr>136</gpxtpx:hr>
<gpxtpx:atemp>7</gpxtpx:atemp>
</gpxtpx:TrackPointExtension>
</extensions>
</trkpt>
<trkpt lat="47.60173872113228" lon="12.203485406935215">
<ele>490</ele>
<time>2012-03-03T10:01:23Z</time>
<extensions>
<gpxtpx:TrackPointExtension>
<gpxtpx:hr>137</gpxtpx:hr>
<gpxtpx:atemp>7</gpxtpx:atemp>
</gpxtpx:TrackPointExtension>
</extensions>
</trkpt>
<trkpt lat="47.60179647244513" lon="12.203667713329196">
<ele>490</ele>
<time>2012-03-03T10:01:26Z</time>
<extensions>
<gpxtpx:TrackPointExtension>
<gpxtpx:hr>137</gpxtpx:hr>
<gpxtpx:atemp>7</gpxtpx:atemp>
</gpxtpx:TrackPointExtension>
</extensions>
</trkpt>
<trkpt lat="47.601883728057146" lon="12.20402461476624">
<ele>490</ele>
<time>2012-03-03T10:01:31Z</time>
<extensions>
<gpxtpx:TrackPointExtension>
<gpxtpx:hr>138</gpxtpx:hr>
<gpxtpx:atemp>7</gpxtpx:atemp>
</gpxtpx:TrackPointExtension>
</extensions>
</trkpt>
<trkpt lat="47.60193075053394" lon="12.204227121546865">
<ele>490</ele>
<time>2012-03-03T10:01:34Z</time>
<extensions>
<gpxtpx:TrackPointExtension>
<gpxtpx:hr>139</gpxtpx:hr>
<gpxtpx:atemp>7</gpxtpx:atemp>
</gpxtpx:TrackPointExtension>
</extensions>
</trkpt>
<trkpt lat="47.60198934003711" lon="12.204333571717143">
<ele>490</ele>
<time>2012-03-03T10:01:36Z</time>
<extensions>
<gpxtpx:TrackPointExtension>
<gpxtpx:hr>140</gpxtpx:hr>
<gpxtpx:atemp>7</gpxtpx:atemp>
</gpxtpx:TrackPointExtension>
</extensions>
</trkpt>
<trkpt lat="47.60201532393694" lon="12.204397106543183">
<ele>490</ele>
<time>2012-03-03T10:01:37Z</time>
<extensions>
<gpxtpx:TrackPointExtension>
<gpxtpx:hr>140</gpxtpx:hr>
<gpxtpx:atemp>7</gpxtpx:atemp>
</gpxtpx:TrackPointExtension>
</extensions>
</trkpt>
<trkpt lat="47.60209595784545" lon="12.204592823982239">
<ele>490</ele>
<time>2012-03-03T10:01:40Z</time>
<extensions>
<gpxtpx:TrackPointExtension>
<gpxtpx:hr>139</gpxtpx:hr>
<gpxtpx:atemp>7</gpxtpx:atemp>
</gpxtpx:TrackPointExtension>
</extensions>
</trkpt>
<trkpt lat="47.60211615823209" lon="12.204662142321467">
<ele>490</ele>
<time>2012-03-03T10:01:41Z</time>
<extensions>
<gpxtpx:TrackPointExtension>
<gpxtpx:hr>139</gpxtpx:hr>
<gpxtpx:atemp>7</gpxtpx:atemp>
</gpxtpx:TrackPointExtension>
</extensions>
</trkpt>
<trkpt lat="47.60218681767583" lon="12.204986186698079">
<ele>490</ele>
<time>2012-03-03T10:01:46Z</time>
<extensions>
<gpxtpx:TrackPointExtension>
<gpxtpx:hr>140</gpxtpx:hr>
<gpxtpx:atemp>7</gpxtpx:atemp>
</gpxtpx:TrackPointExtension>
</extensions>
</trkpt>
<trkpt lat="47.60227491147816" lon="12.20524325966835">
<ele>490</ele>
<time>2012-03-03T10:01:50Z</time>
<extensions>
<gpxtpx:TrackPointExtension>
<gpxtpx:hr>140</gpxtpx:hr>
<gpxtpx:atemp>6</gpxtpx:atemp>
</gpxtpx:TrackPointExtension>
</extensions>
</trkpt>
<trkpt lat="47.60233702138066" lon="12.205374101176858">
<ele>490</ele>
<time>2012-03-03T10:01:52Z</time>
<extensions>
<gpxtpx:TrackPointExtension>
<gpxtpx:hr>139</gpxtpx:hr>
<gpxtpx:atemp>6</gpxtpx:atemp>
</gpxtpx:TrackPointExtension>
</extensions>
</trkpt>
<trkpt lat="47.60244992561638" lon="12.205577278509736">
<ele>490</ele>
<time>2012-03-03T10:01:56Z</time>
<extensions>
<gpxtpx:TrackPointExtension>
<gpxtpx:hr>140</gpxtpx:hr>
<gpxtpx:atemp>6</gpxtpx:atemp>
</gpxtpx:TrackPointExtension>
</extensions>
</trkpt>
<trkpt lat="47.602596608921885" lon="12.205897383391857">
<ele>490</ele>
<time>2012-03-03T10:02:01Z</time>
<extensions>
<gpxtpx:TrackPointExtension>
<gpxtpx:hr>140</gpxtpx:hr>
<gpxtpx:atemp>6</gpxtpx:atemp>
</gpxtpx:TrackPointExtension>
</extensions>
</trkpt>
<trkpt lat="47.60263977572322" lon="12.206025291234255">
<ele>490</ele>
<time>2012-03-03T10:02:03Z</time>
<extensions>
<gpxtpx:TrackPointExtension>
<gpxtpx:hr>141</gpxtpx:hr>
<gpxtpx:atemp>6</gpxtpx:atemp>
</gpxtpx:TrackPointExtension>
</extensions>
</trkpt>
<trkpt lat="47.60267615318298" lon="12.206160323694348">
<ele>490</ele>
<time>2012-03-03T10:02:05Z</time>
<extensions>
<gpxtpx:TrackPointExtension>
<gpxtpx:hr>141</gpxtpx:hr>
<gpxtpx:atemp>6</gpxtpx:atemp>
</gpxtpx:TrackPointExtension>
</extensions>
</trkpt>
<trkpt lat="47.60269065387547" lon="12.20623416826129">
<ele>490</ele>
<time>2012-03-03T10:02:06Z</time>
<extensions>
<gpxtpx:TrackPointExtension>
<gpxtpx:hr>142</gpxtpx:hr>
<gpxtpx:atemp>6</gpxtpx:atemp>
</gpxtpx:TrackPointExtension>
</extensions>
</trkpt>
<trkpt lat="47.60271219536662" lon="12.206301223486662">
<ele>490</ele>
<time>2012-03-03T10:02:07Z</time>
<extensions>
<gpxtpx:TrackPointExtension>
<gpxtpx:hr>141</gpxtpx:hr>
<gpxtpx:atemp>6</gpxtpx:atemp>
</gpxtpx:TrackPointExtension>
</extensions>
</trkpt>
<trkpt lat="47.6027166377753" lon="12.206367021426558">
<ele>489</ele>
<time>2012-03-03T10:02:08Z</time>
<extensions>
<gpxtpx:TrackPointExtension>
<gpxtpx:hr>141</gpxtpx:hr>
<gpxtpx:atemp>6</gpxtpx:atemp>
</gpxtpx:TrackPointExtension>
</extensions>
</trkpt>
<trkpt lat="47.60273574851453" lon="12.206427790224552">
<ele>488</ele>
<time>2012-03-03T10:02:09Z</time>
<extensions>
<gpxtpx:TrackPointExtension>
<gpxtpx:hr>141</gpxtpx:hr>
<gpxtpx:atemp>6</gpxtpx:atemp>
</gpxtpx:TrackPointExtension>
</extensions>
</trkpt>
<trkpt lat="47.60275133885443" lon="12.206493336707354">
<ele>488</ele>
<time>2012-03-03T10:02:10Z</time>
<extensions>
<gpxtpx:TrackPointExtension>
<gpxtpx:hr>141</gpxtpx:hr>
<gpxtpx:atemp>6</gpxtpx:atemp>
</gpxtpx:TrackPointExtension>
</extensions>
</trkpt>
<trkpt lat="47.60278847068548" lon="12.20665200613439">
<ele>488</ele>
<time>2012-03-03T10:02:12Z</time>
<extensions>
<gpxtpx:TrackPointExtension>
<gpxtpx:hr>140</gpxtpx:hr>
<gpxtpx:atemp>6</gpxtpx:atemp>
</gpxtpx:TrackPointExtension>
</extensions>
</trkpt>
<trkpt lat="47.60288352146745" lon="12.206855351105332">
<ele>488</ele>
<time>2012-03-03T10:02:15Z</time>
<extensions>
<gpxtpx:TrackPointExtension>
<gpxtpx:hr>138</gpxtpx:hr>
<gpxtpx:atemp>6</gpxtpx:atemp>
</gpxtpx:TrackPointExtension>
</extensions>
</trkpt>
<trkpt lat="47.60294487699866" lon="12.206962136551738">
<ele>488</ele>
<time>2012-03-03T10:02:17Z</time>
<extensions>
<gpxtpx:TrackPointExtension>
<gpxtpx:hr>136</gpxtpx:hr>
<gpxtpx:atemp>6</gpxtpx:atemp>
</gpxtpx:TrackPointExtension>
</extensions>
</trkpt>
<trkpt lat="47.603035401552916" lon="12.207185430452228">
<ele>488</ele>
<time>2012-03-03T10:02:20Z</time>
<extensions>
<gpxtpx:TrackPointExtension>
<gpxtpx:hr>136</gpxtpx:hr>
<gpxtpx:atemp>6</gpxtpx:atemp>
</gpxtpx:TrackPointExtension>
</extensions>
</trkpt>
<trkpt lat="47.603108240291476" lon="12.207501763477921">
<ele>488</ele>
<time>2012-03-03T10:02:24Z</time>
<extensions>
<gpxtpx:TrackPointExtension>
<gpxtpx:hr>135</gpxtpx:hr>
<gpxtpx:atemp>6</gpxtpx:atemp>
</gpxtpx:TrackPointExtension>
</extensions>
</trkpt>
<trkpt lat="47.60312366299331" lon="12.207570914179087">
<ele>488</ele>
<time>2012-03-03T10:02:25Z</time>
<extensions>
<gpxtpx:TrackPointExtension>
<gpxtpx:hr>135</gpxtpx:hr>
<gpxtpx:atemp>6</gpxtpx:atemp>
</gpxtpx:TrackPointExtension>
</extensions>
</trkpt>
<trkpt lat="47.603178564459085" lon="12.207844918593764">
<ele>488</ele>
<time>2012-03-03T10:02:29Z</time>
<extensions>
<gpxtpx:TrackPointExtension>
<gpxtpx:hr>135</gpxtpx:hr>
<gpxtpx:atemp>6</gpxtpx:atemp>
</gpxtpx:TrackPointExtension>
</extensions>
</trkpt>
<trkpt lat="47.60321343317628" lon="12.207975760102272">
<ele>488</ele>
<time>2012-03-03T10:02:31Z</time>
<extensions>
<gpxtpx:TrackPointExtension>
<gpxtpx:hr>136</gpxtpx:hr>
<gpxtpx:atemp>6</gpxtpx:atemp>
</gpxtpx:TrackPointExtension>
</extensions>
</trkpt>
<trkpt lat="47.6033244933933" lon="12.208124371245503">
<ele>488</ele>
<time>2012-03-03T10:02:34Z</time>
<extensions>
<gpxtpx:TrackPointExtension>
<gpxtpx:hr>137</gpxtpx:hr>
<gpxtpx:atemp>6</gpxtpx:atemp>
</gpxtpx:TrackPointExtension>
</extensions>
</trkpt>
<trkpt lat="47.60343790054321" lon="12.208185559138656">
<ele>488</ele>
<time>2012-03-03T10:02:37Z</time>
<extensions>
<gpxtpx:TrackPointExtension>
<gpxtpx:hr>137</gpxtpx:hr>
<gpxtpx:atemp>6</gpxtpx:atemp>
</gpxtpx:TrackPointExtension>
</extensions>
</trkpt>
<trkpt lat="47.60350629687309" lon="12.208196120336652">
<ele>488</ele>
<time>2012-03-03T10:02:38Z</time>
<extensions>
<gpxtpx:TrackPointExtension>
<gpxtpx:hr>137</gpxtpx:hr>
<gpxtpx:atemp>6</gpxtpx:atemp>
</gpxtpx:TrackPointExtension>
</extensions>
</trkpt>
<trkpt lat="47.60377703234553" lon="12.208304163068533">
<ele>488</ele>
<time>2012-03-03T10:02:44Z</time>
<extensions>
<gpxtpx:TrackPointExtension>
<gpxtpx:hr>134</gpxtpx:hr>
<gpxtpx:atemp>6</gpxtpx:atemp>
</gpxtpx:TrackPointExtension>
</extensions>
</trkpt>
<trkpt lat="47.60386831127107" lon="12.20835780724883">
<ele>488</ele>
<time>2012-03-03T10:02:46Z</time>
<extensions>
<gpxtpx:TrackPointExtension>
<gpxtpx:hr>134</gpxtpx:hr>
<gpxtpx:atemp>6</gpxtpx:atemp>
</gpxtpx:TrackPointExtension>
</extensions>
</trkpt>
<trkpt lat="47.603969145566225" lon="12.20846576616168">
<ele>488</ele>
<time>2012-03-03T10:02:48Z</time>
<extensions>
<gpxtpx:TrackPointExtension>
<gpxtpx:hr>135</gpxtpx:hr>
<gpxtpx:atemp>6</gpxtpx:atemp>
</gpxtpx:TrackPointExtension>
</extensions>
</trkpt>
<trkpt lat="47.6040050201118" lon="12.208530055359006">
<ele>488</ele>
<time>2012-03-03T10:02:49Z</time>
<extensions>
<gpxtpx:TrackPointExtension>
<gpxtpx:hr>136</gpxtpx:hr>
<gpxtpx:atemp>6</gpxtpx:atemp>
</gpxtpx:TrackPointExtension>
</extensions>
</trkpt>
<trkpt lat="47.60409009642899" lon="12.208711691200733">
<ele>488</ele>
<time>2012-03-03T10:02:52Z</time>
<extensions>
<gpxtpx:TrackPointExtension>
<gpxtpx:hr>139</gpxtpx:hr>
<gpxtpx:atemp>5</gpxtpx:atemp>
</gpxtpx:TrackPointExtension>
</extensions>
</trkpt>
<trkpt lat="47.604113733395934" lon="12.208765586838126">
<ele>488</ele>
<time>2012-03-03T10:02:53Z</time>
<extensions>
<gpxtpx:TrackPointExtension>
<gpxtpx:hr>140</gpxtpx:hr>
<gpxtpx:atemp>5</gpxtpx:atemp>
</gpxtpx:TrackPointExtension>
</extensions>
</trkpt>
<trkpt lat="47.60423292405903" lon="12.209061803296208">
<ele>488</ele>
<time>2012-03-03T10:02:58Z</time>
<extensions>
<gpxtpx:TrackPointExtension>
<gpxtpx:hr>141</gpxtpx:hr>
<gpxtpx:atemp>5</gpxtpx:atemp>
</gpxtpx:TrackPointExtension>
</extensions>
</trkpt>
<trkpt lat="47.60428028181195" lon="12.209181832149625">
<ele>488</ele>
<time>2012-03-03T10:03:00Z</time>
<extensions>
<gpxtpx:TrackPointExtension>
<gpxtpx:hr>142</gpxtpx:hr>
<gpxtpx:atemp>5</gpxtpx:atemp>
</gpxtpx:TrackPointExtension>
</extensions>
</trkpt>
<trkpt lat="47.604322861880064" lon="12.209303369745612">
<ele>488</ele>
<time>2012-03-03T10:03:02Z</time>
<extensions>
<gpxtpx:TrackPointExtension>
<gpxtpx:hr>143</gpxtpx:hr>
<gpxtpx:atemp>5</gpxtpx:atemp>
</gpxtpx:TrackPointExtension>
</extensions>
</trkpt>
<trkpt lat="47.60436368174851" lon="12.209410658106208">
<ele>488</ele>
<time>2012-03-03T10:03:04Z</time>
<extensions>
<gpxtpx:TrackPointExtension>
<gpxtpx:hr>143</gpxtpx:hr>
<gpxtpx:atemp>5</gpxtpx:atemp>
</gpxtpx:TrackPointExtension>
</extensions>
</trkpt>
<trkpt lat="47.60441975668073" lon="12.209518030285835">
<ele>488</ele>
<time>2012-03-03T10:03:06Z</time>
<extensions>
<gpxtpx:TrackPointExtension>
<gpxtpx:hr>142</gpxtpx:hr>
<gpxtpx:atemp>5</gpxtpx:atemp>
</gpxtpx:TrackPointExtension>
</extensions>
</trkpt>
<trkpt lat="47.60451287962496" lon="12.209592713043094">
<ele>488</ele>
<time>2012-03-03T10:03:09Z</time>
<extensions>
<gpxtpx:TrackPointExtension>
<gpxtpx:hr>140</gpxtpx:hr>
<gpxtpx:atemp>5</gpxtpx:atemp>
</gpxtpx:TrackPointExtension>
</extensions>
</trkpt>
<trkpt lat="47.60465704835951" lon="12.209525825455785">
<ele>488</ele>
<time>2012-03-03T10:03:12Z</time>
<extensions>
<gpxtpx:TrackPointExtension>
<gpxtpx:hr>138</gpxtpx:hr>
<gpxtpx:atemp>5</gpxtpx:atemp>
</gpxtpx:TrackPointExtension>
</extensions>
</trkpt>
<trkpt lat="47.60491261258721" lon="12.209224328398705">
<ele>488</ele>
<time>2012-03-03T10:03:16Z</time>
<extensions>
<gpxtpx:TrackPointExtension>
<gpxtpx:hr>141</gpxtpx:hr>
<gpxtpx:atemp>5</gpxtpx:atemp>
</gpxtpx:TrackPointExtension>
</extensions>
</trkpt>
<trkpt lat="47.60491261258721" lon="12.209224328398705">
<ele>488</ele>
<time>2012-03-03T10:03:18Z</time>
<extensions>
<gpxtpx:TrackPointExtension>
<gpxtpx:hr>141</gpxtpx:hr>
<gpxtpx:atemp>5</gpxtpx:atemp>
</gpxtpx:TrackPointExtension>
</extensions>
</trkpt>
<trkpt lat="47.60497639887035" lon="12.209128271788359">
<ele>488</ele>
<time>2012-03-03T10:03:20Z</time>
<extensions>
<gpxtpx:TrackPointExtension>
<gpxtpx:hr>144</gpxtpx:hr>
<gpxtpx:atemp>5</gpxtpx:atemp>
</gpxtpx:TrackPointExtension>
</extensions>
</trkpt>
<trkpt lat="47.605081256479025" lon="12.208977229893208">
<ele>488</ele>
<time>2012-03-03T10:03:23Z</time>
<extensions>
<gpxtpx:TrackPointExtension>
<gpxtpx:hr>147</gpxtpx:hr>
<gpxtpx:atemp>5</gpxtpx:atemp>
</gpxtpx:TrackPointExtension>
</extensions>
</trkpt>
<trkpt lat="47.605148646980524" lon="12.208876814693213">
<ele>488</ele>
<time>2012-03-03T10:03:25Z</time>
<extensions>
<gpxtpx:TrackPointExtension>
<gpxtpx:hr>148</gpxtpx:hr>
<gpxtpx:atemp>5</gpxtpx:atemp>
</gpxtpx:TrackPointExtension>
</extensions>
</trkpt>
<trkpt lat="47.60537403635681" lon="12.208629800006747">
<ele>488</ele>
<time>2012-03-03T10:03:30Z</time>
<extensions>
<gpxtpx:TrackPointExtension>
<gpxtpx:hr>148</gpxtpx:hr>
<gpxtpx:atemp>5</gpxtpx:atemp>
</gpxtpx:TrackPointExtension>
</extensions>
</trkpt>
<trkpt lat="47.60570897720754" lon="12.208332996815443">
<ele>488</ele>
<time>2012-03-03T10:03:37Z</time>
<extensions>
<gpxtpx:TrackPointExtension>
<gpxtpx:hr>147</gpxtpx:hr>
<gpxtpx:atemp>5</gpxtpx:atemp>
</gpxtpx:TrackPointExtension>
</extensions>
</trkpt>
<trkpt lat="47.605752646923065" lon="12.208293853327632">
<ele>487</ele>
<time>2012-03-03T10:03:38Z</time>
<extensions>
<gpxtpx:TrackPointExtension>
<gpxtpx:hr>147</gpxtpx:hr>
<gpxtpx:atemp>5</gpxtpx:atemp>
</gpxtpx:TrackPointExtension>
</extensions>
</trkpt>
<trkpt lat="47.60579036548734" lon="12.208257727324963">
<ele>487</ele>
<time>2012-03-03T10:03:39Z</time>
<extensions>
<gpxtpx:TrackPointExtension>
<gpxtpx:hr>146</gpxtpx:hr>
<gpxtpx:atemp>5</gpxtpx:atemp>
</gpxtpx:TrackPointExtension>
</extensions>
</trkpt>
<trkpt lat="47.6058301795274" lon="12.208217158913612">
<ele>486</ele>
<time>2012-03-03T10:03:40Z</time>
<extensions>
<gpxtpx:TrackPointExtension>
<gpxtpx:hr>146</gpxtpx:hr>
<gpxtpx:atemp>5</gpxtpx:atemp>
</gpxtpx:TrackPointExtension>
</extensions>
</trkpt>
<trkpt lat="47.605871418491006" lon="12.208178266882896">
<ele>486</ele>
<time>2012-03-03T10:03:41Z</time>
<extensions>
<gpxtpx:TrackPointExtension>
<gpxtpx:hr>146</gpxtpx:hr>
<gpxtpx:atemp>5</gpxtpx:atemp>
</gpxtpx:TrackPointExtension>
</extensions>
</trkpt>
<trkpt lat="47.60595020838082" lon="12.208101321011782">
<ele>486</ele>
<time>2012-03-03T10:03:43Z</time>
<extensions>
<gpxtpx:TrackPointExtension>
<gpxtpx:hr>146</gpxtpx:hr>
<gpxtpx:atemp>5</gpxtpx:atemp>
</gpxtpx:TrackPointExtension>
</extensions>
</trkpt>
<trkpt lat="47.60599035769701" lon="12.208065781742334">
<ele>486</ele>
<time>2012-03-03T10:03:44Z</time>
<extensions>
<gpxtpx:TrackPointExtension>
<gpxtpx:hr>146</gpxtpx:hr>
<gpxtpx:atemp>5</gpxtpx:atemp>
</gpxtpx:TrackPointExtension>
</extensions>
</trkpt>
<trkpt lat="47.60628892108798" lon="12.207787921652198">
<ele>486</ele>
<time>2012-03-03T10:03:52Z</time>
<extensions>
<gpxtpx:TrackPointExtension>
<gpxtpx:hr>146</gpxtpx:hr>
<gpxtpx:atemp>5</gpxtpx:atemp>
</gpxtpx:TrackPointExtension>
</extensions>
</trkpt>
<trkpt lat="47.60630065575242" lon="12.20774450339377">
<ele>486</ele>
<time>2012-03-03T10:03:53Z</time>
<extensions>
<gpxtpx:TrackPointExtension>
<gpxtpx:hr>145</gpxtpx:hr>
<gpxtpx:atemp>5</gpxtpx:atemp>
</gpxtpx:TrackPointExtension>
</extensions>
</trkpt>
<trkpt lat="47.606302332133055" lon="12.207635454833508">
<ele>486</ele>
<time>2012-03-03T10:03:55Z</time>
<extensions>
<gpxtpx:TrackPointExtension>
<gpxtpx:hr>144</gpxtpx:hr>
<gpxtpx:atemp>5</gpxtpx:atemp>
</gpxtpx:TrackPointExtension>
</extensions>
</trkpt>
<trkpt lat="47.606282299384475" lon="12.207397995516658">
<ele>486</ele>
<time>2012-03-03T10:03:57Z</time>
<extensions>
<gpxtpx:TrackPointExtension>
<gpxtpx:hr>139</gpxtpx:hr>
<gpxtpx:atemp>4</gpxtpx:atemp>
</gpxtpx:TrackPointExtension>
</extensions>
</trkpt>
<trkpt lat="47.606282299384475" lon="12.207397995516658">
<ele>486</ele>
<time>2012-03-03T10:03:59Z</time>
<extensions>
<gpxtpx:TrackPointExtension>
<gpxtpx:hr>139</gpxtpx:hr>
<gpxtpx:atemp>4</gpxtpx:atemp>
</gpxtpx:TrackPointExtension>
</extensions>
</trkpt>
<trkpt lat="47.60627433657646" lon="12.207286432385445">
<ele>486</ele>
<time>2012-03-03T10:04:01Z</time>
<extensions>
<gpxtpx:TrackPointExtension>
<gpxtpx:hr>138</gpxtpx:hr>
<gpxtpx:atemp>4</gpxtpx:atemp>
</gpxtpx:TrackPointExtension>
</extensions>
</trkpt>
<trkpt lat="47.60631683282554" lon="12.207162380218506">
<ele>486</ele>
<time>2012-03-03T10:04:05Z</time>
<extensions>
<gpxtpx:TrackPointExtension>
<gpxtpx:hr>135</gpxtpx:hr>
<gpxtpx:atemp>4</gpxtpx:atemp>
</gpxtpx:TrackPointExtension>
</extensions>
</trkpt>
<trkpt lat="47.60641071014106" lon="12.207267237827182">
<ele>486</ele>
<time>2012-03-03T10:04:08Z</time>
<extensions>
<gpxtpx:TrackPointExtension>
<gpxtpx:hr>134</gpxtpx:hr>
<gpxtpx:atemp>4</gpxtpx:atemp>
</gpxtpx:TrackPointExtension>
</extensions>
</trkpt>
<trkpt lat="47.606440633535385" lon="12.207313254475594">
<ele>486</ele>
<time>2012-03-03T10:04:09Z</time>
<extensions>
<gpxtpx:TrackPointExtension>
<gpxtpx:hr>134</gpxtpx:hr>
<gpxtpx:atemp>4</gpxtpx:atemp>
</gpxtpx:TrackPointExtension>
</extensions>
</trkpt>
<trkpt lat="47.60650534182787" lon="12.207488184794784">
<ele>485</ele>
<time>2012-03-03T10:04:13Z</time>
<extensions>
<gpxtpx:TrackPointExtension>
<gpxtpx:hr>134</gpxtpx:hr>
<gpxtpx:atemp>4</gpxtpx:atemp>
</gpxtpx:TrackPointExtension>
</extensions>
</trkpt>
<trkpt lat="47.6065157353878" lon="12.207528250291944">
<ele>485</ele>
<time>2012-03-03T10:04:14Z</time>
<extensions>
<gpxtpx:TrackPointExtension>
<gpxtpx:hr>133</gpxtpx:hr>
<gpxtpx:atemp>4</gpxtpx:atemp>
</gpxtpx:TrackPointExtension>
</extensions>
</trkpt>
<trkpt lat="47.60652889497578" lon="12.207556078210473">
<ele>484</ele>
<time>2012-03-03T10:04:15Z</time>
<extensions>
<gpxtpx:TrackPointExtension>
<gpxtpx:hr>133</gpxtpx:hr>
<gpxtpx:atemp>4</gpxtpx:atemp>
</gpxtpx:TrackPointExtension>
</extensions>
</trkpt>
<trkpt lat="47.60653995908797" lon="12.207582900300622">
<ele>484</ele>
<time>2012-03-03T10:04:16Z</time>
<extensions>
<gpxtpx:TrackPointExtension>
<gpxtpx:hr>132</gpxtpx:hr>
<gpxtpx:atemp>4</gpxtpx:atemp>
</gpxtpx:TrackPointExtension>
</extensions>
</trkpt>
<trkpt lat="47.60655077174306" lon="12.207594215869904">
<ele>483</ele>
<time>2012-03-03T10:04:17Z</time>
<extensions>
<gpxtpx:TrackPointExtension>
<gpxtpx:hr>131</gpxtpx:hr>
<gpxtpx:atemp>4</gpxtpx:atemp>
</gpxtpx:TrackPointExtension>
</extensions>
</trkpt>
<trkpt lat="47.606559321284294" lon="12.207589186728">
<ele>483</ele>
<time>2012-03-03T10:04:18Z</time>
<extensions>
<gpxtpx:TrackPointExtension>
<gpxtpx:hr>130</gpxtpx:hr>
<gpxtpx:atemp>4</gpxtpx:atemp>
</gpxtpx:TrackPointExtension>
</extensions>
</trkpt>
<trkpt lat="47.6065746601671" lon="12.207569908350706">
<ele>483</ele>
<time>2012-03-03T10:04:19Z</time>
<extensions>
<gpxtpx:TrackPointExtension>
<gpxtpx:hr>130</gpxtpx:hr>
<gpxtpx:atemp>4</gpxtpx:atemp>
</gpxtpx:TrackPointExtension>
</extensions>
</trkpt>
<trkpt lat="47.606593519449234" lon="12.207557167857885">
<ele>482</ele>
<time>2012-03-03T10:04:20Z</time>
<extensions>
<gpxtpx:TrackPointExtension>
<gpxtpx:hr>130</gpxtpx:hr>
<gpxtpx:atemp>4</gpxtpx:atemp>
</gpxtpx:TrackPointExtension>
</extensions>
</trkpt>
<trkpt lat="47.60661221109331" lon="12.207546858116984">
<ele>482</ele>
<time>2012-03-03T10:04:21Z</time>
<extensions>
<gpxtpx:TrackPointExtension>
<gpxtpx:hr>130</gpxtpx:hr>
<gpxtpx:atemp>4</gpxtpx:atemp>
</gpxtpx:TrackPointExtension>
</extensions>
</trkpt>
<trkpt lat="47.60662914253771" lon="12.20753587782383">
<ele>482</ele>
<time>2012-03-03T10:04:22Z</time>
<extensions>
<gpxtpx:TrackPointExtension>
<gpxtpx:hr>131</gpxtpx:hr>
<gpxtpx:atemp>4</gpxtpx:atemp>
</gpxtpx:TrackPointExtension>
</extensions>
</trkpt>
<trkpt lat="47.606648840010166" lon="12.20750411041081">
<ele>482</ele>
<time>2012-03-03T10:04:23Z</time>
<extensions>
<gpxtpx:TrackPointExtension>
<gpxtpx:hr>131</gpxtpx:hr>
<gpxtpx:atemp>4</gpxtpx:atemp>
</gpxtpx:TrackPointExtension>
</extensions>
</trkpt>
<trkpt lat="47.60666208341718" lon="12.20740889199078">
<ele>482</ele>
<time>2012-03-03T10:04:25Z</time>
<extensions>
<gpxtpx:TrackPointExtension>
<gpxtpx:hr>131</gpxtpx:hr>
<gpxtpx:atemp>4</gpxtpx:atemp>
</gpxtpx:TrackPointExtension>
</extensions>
</trkpt>
<trkpt lat="47.60660642758012" lon="12.207302693277597">
<ele>482</ele>
<time>2012-03-03T10:04:28Z</time>
<extensions>
<gpxtpx:TrackPointExtension>
<gpxtpx:hr>131</gpxtpx:hr>
<gpxtpx:atemp>4</gpxtpx:atemp>
</gpxtpx:TrackPointExtension>
</extensions>
</trkpt>
<trkpt lat="47.60653258301318" lon="12.207175204530358">
<ele>482</ele>
<time>2012-03-03T10:04:31Z</time>
<extensions>
<gpxtpx:TrackPointExtension>
<gpxtpx:hr>132</gpxtpx:hr>
<gpxtpx:atemp>4</gpxtpx:atemp>
</gpxtpx:TrackPointExtension>
</extensions>
</trkpt>
<trkpt lat="47.606505090370774" lon="12.207117788493633">
<ele>482</ele>
<time>2012-03-03T10:04:32Z</time>
<extensions>
<gpxtpx:TrackPointExtension>
<gpxtpx:hr>132</gpxtpx:hr>
<gpxtpx:atemp>4</gpxtpx:atemp>
</gpxtpx:TrackPointExtension>
</extensions>
</trkpt>
<trkpt lat="47.6064760889858" lon="12.20706095919013">
<ele>483</ele>
<time>2012-03-03T10:04:33Z</time>
<extensions>
<gpxtpx:TrackPointExtension>
<gpxtpx:hr>134</gpxtpx:hr>
<gpxtpx:atemp>4</gpxtpx:atemp>
</gpxtpx:TrackPointExtension>
</extensions>
</trkpt>
<trkpt lat="47.60644574649632" lon="12.207011925056577">
<ele>483</ele>
<time>2012-03-03T10:04:34Z</time>
<extensions>
<gpxtpx:TrackPointExtension>
<gpxtpx:hr>135</gpxtpx:hr>
<gpxtpx:atemp>4</gpxtpx:atemp>
</gpxtpx:TrackPointExtension>
</extensions>
</trkpt>
<trkpt lat="47.60641791857779" lon="12.20695635303855">
<ele>483</ele>
<time>2012-03-03T10:04:35Z</time>
<extensions>
<gpxtpx:TrackPointExtension>
<gpxtpx:hr>136</gpxtpx:hr>
<gpxtpx:atemp>4</gpxtpx:atemp>
</gpxtpx:TrackPointExtension>
</extensions>
</trkpt>
<trkpt lat="47.6063896715641" lon="12.206909079104662">
<ele>484</ele>
<time>2012-03-03T10:04:36Z</time>
<extensions>
<gpxtpx:TrackPointExtension>
<gpxtpx:hr>138</gpxtpx:hr>
<gpxtpx:atemp>4</gpxtpx:atemp>
</gpxtpx:TrackPointExtension>
</extensions>
</trkpt>
<trkpt lat="47.60635773651302" lon="12.206859877333045">
<ele>485</ele>
<time>2012-03-03T10:04:37Z</time>
<extensions>
<gpxtpx:TrackPointExtension>
<gpxtpx:hr>140</gpxtpx:hr>
<gpxtpx:atemp>4</gpxtpx:atemp>
</gpxtpx:TrackPointExtension>
</extensions>
</trkpt>
<trkpt lat="47.60632689110935" lon="12.206806233152747">
<ele>486</ele>
<time>2012-03-03T10:04:38Z</time>
<extensions>
<gpxtpx:TrackPointExtension>
<gpxtpx:hr>141</gpxtpx:hr>
<gpxtpx:atemp>4</gpxtpx:atemp>
</gpxtpx:TrackPointExtension>
</extensions>
</trkpt>
<trkpt lat="47.60629571042955" lon="12.206759210675955">
<ele>486</ele>
<time>2012-03-03T10:04:39Z</time>
<extensions>
<gpxtpx:TrackPointExtension>
<gpxtpx:hr>142</gpxtpx:hr>
<gpxtpx:atemp>4</gpxtpx:atemp>
</gpxtpx:TrackPointExtension>
</extensions>
</trkpt>
<trkpt lat="47.606269055977464" lon="12.206712272018194">
<ele>486</ele>
<time>2012-03-03T10:04:40Z</time>
<extensions>
<gpxtpx:TrackPointExtension>
<gpxtpx:hr>143</gpxtpx:hr>
<gpxtpx:atemp>4</gpxtpx:atemp>
</gpxtpx:TrackPointExtension>
</extensions>
</trkpt>
<trkpt lat="47.60627131909132" lon="12.206520829349756">
<ele>486</ele>
<time>2012-03-03T10:04:43Z</time>
<extensions>
<gpxtpx:TrackPointExtension>
<gpxtpx:hr>146</gpxtpx:hr>
<gpxtpx:atemp>4</gpxtpx:atemp>
</gpxtpx:TrackPointExtension>
</extensions>
</trkpt>
<trkpt lat="47.60630342178047" lon="12.206378923729062">
<ele>486</ele>
<time>2012-03-03T10:04:45Z</time>
<extensions>
<gpxtpx:TrackPointExtension>
<gpxtpx:hr>148</gpxtpx:hr>
<gpxtpx:atemp>4</gpxtpx:atemp>
</gpxtpx:TrackPointExtension>
</extensions>
</trkpt>
<trkpt lat="47.60634214617312" lon="12.206204077228904">
<ele>486</ele>
<time>2012-03-03T10:04:48Z</time>
<extensions>
<gpxtpx:TrackPointExtension>
<gpxtpx:hr>148</gpxtpx:hr>
<gpxtpx:atemp>4</gpxtpx:atemp>
</gpxtpx:TrackPointExtension>
</extensions>
</trkpt>
<trkpt lat="47.60642722249031" lon="12.206009533256292">
<ele>486</ele>
<time>2012-03-03T10:04:53Z</time>
<extensions>
<gpxtpx:TrackPointExtension>
<gpxtpx:hr>148</gpxtpx:hr>
<gpxtpx:atemp>4</gpxtpx:atemp>
</gpxtpx:TrackPointExtension>
</extensions>
</trkpt>
<trkpt lat="47.60644968599081" lon="12.206016406416893">
<ele>485</ele>
<time>2012-03-03T10:04:54Z</time>
<extensions>
<gpxtpx:TrackPointExtension>
<gpxtpx:hr>148</gpxtpx:hr>
<gpxtpx:atemp>4</gpxtpx:atemp>
</gpxtpx:TrackPointExtension>
</extensions>
</trkpt>
<trkpt lat="47.60646343231201" lon="12.20603870227933">
<ele>485</ele>
<time>2012-03-03T10:04:55Z</time>
<extensions>
<gpxtpx:TrackPointExtension>
<gpxtpx:hr>148</gpxtpx:hr>
<gpxtpx:atemp>4</gpxtpx:atemp>
</gpxtpx:TrackPointExtension>
</extensions>
</trkpt>
<trkpt lat="47.606477262452245" lon="12.206068709492683">
<ele>484</ele>
<time>2012-03-03T10:04:56Z</time>
<extensions>
<gpxtpx:TrackPointExtension>
<gpxtpx:hr>147</gpxtpx:hr>
<gpxtpx:atemp>4</gpxtpx:atemp>
</gpxtpx:TrackPointExtension>
</extensions>
</trkpt>
<trkpt lat="47.606485644355416" lon="12.20611154101789">
<ele>484</ele>
<time>2012-03-03T10:04:57Z</time>
<extensions>
<gpxtpx:TrackPointExtension>
<gpxtpx:hr>147</gpxtpx:hr>
<gpxtpx:atemp>4</gpxtpx:atemp>
</gpxtpx:TrackPointExtension>
</extensions>
</trkpt>
<trkpt lat="47.6064967084676" lon="12.20616334117949">
<ele>484</ele>
<time>2012-03-03T10:04:58Z</time>
<extensions>
<gpxtpx:TrackPointExtension>
<gpxtpx:hr>147</gpxtpx:hr>
<gpxtpx:atemp>4</gpxtpx:atemp>
</gpxtpx:TrackPointExtension>
</extensions>
</trkpt>
<trkpt lat="47.6065297331661" lon="12.206301307305694">
<ele>484</ele>
<time>2012-03-03T10:05:00Z</time>
<extensions>
<gpxtpx:TrackPointExtension>
<gpxtpx:hr>147</gpxtpx:hr>
<gpxtpx:atemp>4</gpxtpx:atemp>
</gpxtpx:TrackPointExtension>
</extensions>
</trkpt>
<trkpt lat="47.606631238013506" lon="12.206554021686316">
<ele>484</ele>
<time>2012-03-03T10:05:04Z</time>
<extensions>
<gpxtpx:TrackPointExtension>
<gpxtpx:hr>144</gpxtpx:hr>
<gpxtpx:atemp>4</gpxtpx:atemp>
</gpxtpx:TrackPointExtension>
</extensions>
</trkpt>
<trkpt lat="47.6066679507494" lon="12.206606743857265">
<ele>484</ele>
<time>2012-03-03T10:05:05Z</time>
<extensions>
<gpxtpx:TrackPointExtension>
<gpxtpx:hr>144</gpxtpx:hr>
<gpxtpx:atemp>4</gpxtpx:atemp>
</gpxtpx:TrackPointExtension>
</extensions>
</trkpt>
<trkpt lat="47.60670432820916" lon="12.206662483513355">
<ele>484</ele>
<time>2012-03-03T10:05:06Z</time>
<extensions>
<gpxtpx:TrackPointExtension>
<gpxtpx:hr>144</gpxtpx:hr>
<gpxtpx:atemp>4</gpxtpx:atemp>
</gpxtpx:TrackPointExtension>
</extensions>
</trkpt>
<trkpt lat="47.60695310309529" lon="12.206939421594143">
<ele>484</ele>
<time>2012-03-03T10:05:12Z</time>
<extensions>
<gpxtpx:TrackPointExtension>
<gpxtpx:hr>143</gpxtpx:hr>
<gpxtpx:atemp>4</gpxtpx:atemp>
</gpxtpx:TrackPointExtension>
</extensions>
</trkpt>
<trkpt lat="47.607249822467566" lon="12.207133881747723">
<ele>484</ele>
<time>2012-03-03T10:05:18Z</time>
<extensions>
<gpxtpx:TrackPointExtension>
<gpxtpx:hr>142</gpxtpx:hr>
<gpxtpx:atemp>4</gpxtpx:atemp>
</gpxtpx:TrackPointExtension>
</extensions>
</trkpt>
<trkpt lat="47.60745509527624" lon="12.207232117652893">
<ele>484</ele>
<time>2012-03-03T10:05:22Z</time>
<extensions>
<gpxtpx:TrackPointExtension>
<gpxtpx:hr>139</gpxtpx:hr>
<gpxtpx:atemp>4</gpxtpx:atemp>
</gpxtpx:TrackPointExtension>
</extensions>
</trkpt>
<trkpt lat="47.60762147605419" lon="12.207283666357398">
<ele>484</ele>
<time>2012-03-03T10:05:25Z</time>
<extensions>
<gpxtpx:TrackPointExtension>
<gpxtpx:hr>136</gpxtpx:hr>
<gpxtpx:atemp>3</gpxtpx:atemp>
</gpxtpx:TrackPointExtension>
</extensions>
</trkpt>
<trkpt lat="47.60767512023449" lon="12.207300262525678">
<ele>484</ele>
<time>2012-03-03T10:05:26Z</time>
<extensions>
<gpxtpx:TrackPointExtension>
<gpxtpx:hr>135</gpxtpx:hr>
<gpxtpx:atemp>3</gpxtpx:atemp>
</gpxtpx:TrackPointExtension>
</extensions>
</trkpt>
<trkpt lat="47.608119612559676" lon="12.207408053800464">
<ele>484</ele>
<time>2012-03-03T10:05:34Z</time>
<extensions>
<gpxtpx:TrackPointExtension>
<gpxtpx:hr>134</gpxtpx:hr>
<gpxtpx:atemp>3</gpxtpx:atemp>
</gpxtpx:TrackPointExtension>
</extensions>
</trkpt>
<trkpt lat="47.60856594890356" lon="12.207573847845197">
<ele>484</ele>
<time>2012-03-03T10:05:42Z</time>
<extensions>
<gpxtpx:TrackPointExtension>
<gpxtpx:hr>133</gpxtpx:hr>
<gpxtpx:atemp>3</gpxtpx:atemp>
</gpxtpx:TrackPointExtension>
</extensions>
</trkpt>
<trkpt lat="47.608928717672825" lon="12.2078637778759">
<ele>484</ele>
<time>2012-03-03T10:05:49Z</time>
<extensions>
<gpxtpx:TrackPointExtension>
<gpxtpx:hr>135</gpxtpx:hr>
<gpxtpx:atemp>3</gpxtpx:atemp>
</gpxtpx:TrackPointExtension>
</extensions>
</trkpt>
<trkpt lat="47.60906861163676" lon="12.208022698760033">
<ele>484</ele>
<time>2012-03-03T10:05:52Z</time>
<extensions>
<gpxtpx:TrackPointExtension>
<gpxtpx:hr>136</gpxtpx:hr>
<gpxtpx:atemp>3</gpxtpx:atemp>
</gpxtpx:TrackPointExtension>
</extensions>
</trkpt>
<trkpt lat="47.60910574346781" lon="12.208081455901265">
<ele>484</ele>
<time>2012-03-03T10:05:53Z</time>
<extensions>
<gpxtpx:TrackPointExtension>
<gpxtpx:hr>136</gpxtpx:hr>
<gpxtpx:atemp>3</gpxtpx:atemp>
</gpxtpx:TrackPointExtension>
</extensions>
</trkpt>
<trkpt lat="47.60918436571956" lon="12.208210956305265">
<ele>484</ele>
<time>2012-03-03T10:05:55Z</time>
<extensions>
<gpxtpx:TrackPointExtension>
<gpxtpx:hr>136</gpxtpx:hr>
<gpxtpx:atemp>3</gpxtpx:atemp>
</gpxtpx:TrackPointExtension>
</extensions>
</trkpt>
<trkpt lat="47.60937840677798" lon="12.208523685112596">
<ele>484</ele>
<time>2012-03-03T10:06:00Z</time>
<extensions>
<gpxtpx:TrackPointExtension>
<gpxtpx:hr>135</gpxtpx:hr>
<gpxtpx:atemp>3</gpxtpx:atemp>
</gpxtpx:TrackPointExtension>
</extensions>
</trkpt>
<trkpt lat="47.60951327160001" lon="12.208664501085877">
<ele>484</ele>
<time>2012-03-03T10:06:03Z</time>
<extensions>
<gpxtpx:TrackPointExtension>
<gpxtpx:hr>135</gpxtpx:hr>
<gpxtpx:atemp>3</gpxtpx:atemp>
</gpxtpx:TrackPointExtension>
</extensions>
</trkpt>
<trkpt lat="47.60974922217429" lon="12.208715546876192">
<ele>484</ele>
<time>2012-03-03T10:06:07Z</time>
<extensions>
<gpxtpx:TrackPointExtension>
<gpxtpx:hr>135</gpxtpx:hr>
<gpxtpx:atemp>3</gpxtpx:atemp>
</gpxtpx:TrackPointExtension>
</extensions>
</trkpt>
<trkpt lat="47.609808314591646" lon="12.208711942657828">
<ele>484</ele>
<time>2012-03-03T10:06:08Z</time>
<extensions>
<gpxtpx:TrackPointExtension>
<gpxtpx:hr>135</gpxtpx:hr>
<gpxtpx:atemp>3</gpxtpx:atemp>
</gpxtpx:TrackPointExtension>
</extensions>
</trkpt>
<trkpt lat="47.61016504839063" lon="12.208698699250817">
<ele>484</ele>
<time>2012-03-03T10:06:14Z</time>
<extensions>
<gpxtpx:TrackPointExtension>
<gpxtpx:hr>136</gpxtpx:hr>
<gpxtpx:atemp>3</gpxtpx:atemp>
</gpxtpx:TrackPointExtension>
</extensions>
</trkpt>
<trkpt lat="47.61039144359529" lon="12.20866760239005">
<ele>484</ele>
<time>2012-03-03T10:06:18Z</time>
<extensions>
<gpxtpx:TrackPointExtension>
<gpxtpx:hr>136</gpxtpx:hr>
<gpxtpx:atemp>3</gpxtpx:atemp>
</gpxtpx:TrackPointExtension>
</extensions>
</trkpt>
<trkpt lat="47.61044726707041" lon="12.208672799170017">
<ele>484</ele>
<time>2012-03-03T10:06:19Z</time>
<extensions>
<gpxtpx:TrackPointExtension>
<gpxtpx:hr>136</gpxtpx:hr>
<gpxtpx:atemp>3</gpxtpx:atemp>
</gpxtpx:TrackPointExtension>
</extensions>
</trkpt>
<trkpt lat="47.610620353370905" lon="12.208720408380032">
<ele>484</ele>
<time>2012-03-03T10:06:22Z</time>
<extensions>
<gpxtpx:TrackPointExtension>
<gpxtpx:hr>135</gpxtpx:hr>
<gpxtpx:atemp>3</gpxtpx:atemp>
</gpxtpx:TrackPointExtension>
</extensions>
</trkpt>
<trkpt lat="47.610733760520816" lon="12.208769442513585">
<ele>484</ele>
<time>2012-03-03T10:06:24Z</time>
<extensions>
<gpxtpx:TrackPointExtension>
<gpxtpx:hr>135</gpxtpx:hr>
<gpxtpx:atemp>3</gpxtpx:atemp>
</gpxtpx:TrackPointExtension>
</extensions>
</trkpt>
<trkpt lat="47.61124011129141" lon="12.20898024737835">
<ele>484</ele>
<time>2012-03-03T10:06:33Z</time>
<extensions>
<gpxtpx:TrackPointExtension>
<gpxtpx:hr>135</gpxtpx:hr>
<gpxtpx:atemp>3</gpxtpx:atemp>
</gpxtpx:TrackPointExtension>
</extensions>
</trkpt>
<trkpt lat="47.61181368492544" lon="12.209155345335603">
<ele>484</ele>
<time>2012-03-03T10:06:43Z</time>
<extensions>
<gpxtpx:TrackPointExtension>
<gpxtpx:hr>133</gpxtpx:hr>
<gpxtpx:atemp>3</gpxtpx:atemp>
</gpxtpx:TrackPointExtension>
</extensions>
</trkpt>
<trkpt lat="47.612095316872" lon="12.209232794120908">
<ele>484</ele>
<time>2012-03-03T10:06:48Z</time>
<extensions>
<gpxtpx:TrackPointExtension>
<gpxtpx:hr>130</gpxtpx:hr>
<gpxtpx:atemp>3</gpxtpx:atemp>
</gpxtpx:TrackPointExtension>
</extensions>
</trkpt>
<trkpt lat="47.61226823553443" lon="12.209262885153294">
<ele>484</ele>
<time>2012-03-03T10:06:51Z</time>
<extensions>
<gpxtpx:TrackPointExtension>
<gpxtpx:hr>129</gpxtpx:hr>
<gpxtpx:atemp>3</gpxtpx:atemp>
</gpxtpx:TrackPointExtension>
</extensions>
</trkpt>
<trkpt lat="47.612563613802195" lon="12.209286857396364">
<ele>484</ele>
<time>2012-03-03T10:06:56Z</time>
<extensions>
<gpxtpx:TrackPointExtension>
<gpxtpx:hr>132</gpxtpx:hr>
<gpxtpx:atemp>3</gpxtpx:atemp>
</gpxtpx:TrackPointExtension>
</extensions>
</trkpt>
<trkpt lat="47.61268489994109" lon="12.209295742213726">
<ele>484</ele>
<time>2012-03-03T10:06:58Z</time>
<extensions>
<gpxtpx:TrackPointExtension>
<gpxtpx:hr>132</gpxtpx:hr>
<gpxtpx:atemp>3</gpxtpx:atemp>
</gpxtpx:TrackPointExtension>
</extensions>
</trkpt>
<trkpt lat="47.61321865953505" lon="12.209280487149954">
<ele>484</ele>
<time>2012-03-03T10:07:07Z</time>
<extensions>
<gpxtpx:TrackPointExtension>
<gpxtpx:hr>131</gpxtpx:hr>
<gpxtpx:atemp>3</gpxtpx:atemp>
</gpxtpx:TrackPointExtension>
</extensions>
</trkpt>
<trkpt lat="47.61362317018211" lon="12.209240924566984">
<ele>484</ele>
<time>2012-03-03T10:07:14Z</time>
<extensions>
<gpxtpx:TrackPointExtension>
<gpxtpx:hr>133</gpxtpx:hr>
<gpxtpx:atemp>3</gpxtpx:atemp>
</gpxtpx:TrackPointExtension>
</extensions>
</trkpt>
<trkpt lat="47.61413002386689" lon="12.209137408062816">
<ele>484</ele>
<time>2012-03-03T10:07:23Z</time>
<extensions>
<gpxtpx:TrackPointExtension>
<gpxtpx:hr>132</gpxtpx:hr>
<gpxtpx:atemp>3</gpxtpx:atemp>
</gpxtpx:TrackPointExtension>
</extensions>
</trkpt>
<trkpt lat="47.614538641646504" lon="12.208988461643457">
<ele>484</ele>
<time>2012-03-03T10:07:30Z</time>
<extensions>
<gpxtpx:TrackPointExtension>
<gpxtpx:hr>131</gpxtpx:hr>
<gpxtpx:atemp>3</gpxtpx:atemp>
</gpxtpx:TrackPointExtension>
</extensions>
</trkpt>
<trkpt lat="47.61500903405249" lon="12.208822751417756">
<ele>484</ele>
<time>2012-03-03T10:07:38Z</time>
<extensions>
<gpxtpx:TrackPointExtension>
<gpxtpx:hr>130</gpxtpx:hr>
<gpxtpx:atemp>3</gpxtpx:atemp>
</gpxtpx:TrackPointExtension>
</extensions>
</trkpt>
<trkpt lat="47.61541362851858" lon="12.208660896867514">
<ele>484</ele>
<time>2012-03-03T10:07:45Z</time>
<extensions>
<gpxtpx:TrackPointExtension>
<gpxtpx:hr>129</gpxtpx:hr>
<gpxtpx:atemp>3</gpxtpx:atemp>
</gpxtpx:TrackPointExtension>
</extensions>
</trkpt>
<trkpt lat="47.61587387882173" lon="12.2084457334131">
<ele>484</ele>
<time>2012-03-03T10:07:53Z</time>
<extensions>
<gpxtpx:TrackPointExtension>
<gpxtpx:hr>128</gpxtpx:hr>
<gpxtpx:atemp>3</gpxtpx:atemp>
</gpxtpx:TrackPointExtension>
</extensions>
</trkpt>
<trkpt lat="47.61634083464742" lon="12.208242807537317">
<ele>484</ele>
<time>2012-03-03T10:08:01Z</time>
<extensions>
<gpxtpx:TrackPointExtension>
<gpxtpx:hr>129</gpxtpx:hr>
<gpxtpx:atemp>3</gpxtpx:atemp>
</gpxtpx:TrackPointExtension>
</extensions>
</trkpt>
<trkpt lat="47.61685791425407" lon="12.20799369737506">
<ele>484</ele>
<time>2012-03-03T10:08:10Z</time>
<extensions>
<gpxtpx:TrackPointExtension>
<gpxtpx:hr>131</gpxtpx:hr>
<gpxtpx:atemp>3</gpxtpx:atemp>
</gpxtpx:TrackPointExtension>
</extensions>
</trkpt>
<trkpt lat="47.61691658757627" lon="12.207965617999434">
<ele>484</ele>
<time>2012-03-03T10:08:11Z</time>
<extensions>
<gpxtpx:TrackPointExtension>
<gpxtpx:hr>131</gpxtpx:hr>
<gpxtpx:atemp>3</gpxtpx:atemp>
</gpxtpx:TrackPointExtension>
</extensions>
</trkpt>
<trkpt lat="47.617431320250034" lon="12.207702761515975">
<ele>484</ele>
<time>2012-03-03T10:08:20Z</time>
<extensions>
<gpxtpx:TrackPointExtension>
<gpxtpx:hr>131</gpxtpx:hr>
<gpxtpx:atemp>3</gpxtpx:atemp>
</gpxtpx:TrackPointExtension>
</extensions>
</trkpt>
<trkpt lat="47.61748672463" lon="12.207673257216811">
<ele>484</ele>
<time>2012-03-03T10:08:21Z</time>
<extensions>
<gpxtpx:TrackPointExtension>
<gpxtpx:hr>132</gpxtpx:hr>
<gpxtpx:atemp>3</gpxtpx:atemp>
</gpxtpx:TrackPointExtension>
</extensions>
</trkpt>
<trkpt lat="47.61799215339124" lon="12.207424063235521">
<ele>484</ele>
<time>2012-03-03T10:08:30Z</time>
<extensions>
<gpxtpx:TrackPointExtension>
<gpxtpx:hr>132</gpxtpx:hr>
<gpxtpx:atemp>4</gpxtpx:atemp>
</gpxtpx:TrackPointExtension>
</extensions>
</trkpt>
<trkpt lat="47.61833162046969" lon="12.207255838438869">
<ele>484</ele>
<time>2012-03-03T10:08:36Z</time>
<extensions>
<gpxtpx:TrackPointExtension>
<gpxtpx:hr>135</gpxtpx:hr>
<gpxtpx:atemp>4</gpxtpx:atemp>
</gpxtpx:TrackPointExtension>
</extensions>
</trkpt>
<trkpt lat="47.618556674569845" lon="12.20713815651834">
<ele>484</ele>
<time>2012-03-03T10:08:40Z</time>
<extensions>
<gpxtpx:TrackPointExtension>
<gpxtpx:hr>134</gpxtpx:hr>
<gpxtpx:atemp>4</gpxtpx:atemp>
</gpxtpx:TrackPointExtension>
</extensions>
</trkpt>
<trkpt lat="47.61906076222658" lon="12.2068742942065">
<ele>484</ele>
<time>2012-03-03T10:08:49Z</time>
<extensions>
<gpxtpx:TrackPointExtension>
<gpxtpx:hr>133</gpxtpx:hr>
<gpxtpx:atemp>4</gpxtpx:atemp>
</gpxtpx:TrackPointExtension>
</extensions>
</trkpt>
<trkpt lat="47.61945605278015" lon="12.206648485735059">
<ele>484</ele>
<time>2012-03-03T10:08:56Z</time>
<extensions>
<gpxtpx:TrackPointExtension>
<gpxtpx:hr>136</gpxtpx:hr>
<gpxtpx:atemp>4</gpxtpx:atemp>
</gpxtpx:TrackPointExtension>
</extensions>
</trkpt>
<trkpt lat="47.619619499891996" lon="12.206557877361774">
<ele>484</ele>
<time>2012-03-03T10:08:59Z</time>
<extensions>
<gpxtpx:TrackPointExtension>
<gpxtpx:hr>136</gpxtpx:hr>
<gpxtpx:atemp>4</gpxtpx:atemp>
</gpxtpx:TrackPointExtension>
</extensions>
</trkpt>
<trkpt lat="47.620174549520016" lon="12.206269623711705">
<ele>484</ele>
<time>2012-03-03T10:09:09Z</time>
<extensions>
<gpxtpx:TrackPointExtension>
<gpxtpx:hr>137</gpxtpx:hr>
<gpxtpx:atemp>4</gpxtpx:atemp>
</gpxtpx:TrackPointExtension>
</extensions>
</trkpt>
<trkpt lat="47.62068768963218" lon="12.205999726429582">
<ele>484</ele>
<time>2012-03-03T10:09:18Z</time>
<extensions>
<gpxtpx:TrackPointExtension>
<gpxtpx:hr>135</gpxtpx:hr>
<gpxtpx:atemp>4</gpxtpx:atemp>
</gpxtpx:TrackPointExtension>
</extensions>
</trkpt>
<trkpt lat="47.62119487859309" lon="12.205722033977509">
<ele>484</ele>
<time>2012-03-03T10:09:27Z</time>
<extensions>
<gpxtpx:TrackPointExtension>
<gpxtpx:hr>135</gpxtpx:hr>
<gpxtpx:atemp>4</gpxtpx:atemp>
</gpxtpx:TrackPointExtension>
</extensions>
</trkpt>
<trkpt lat="47.62159469537437" lon="12.205499662086368">
<ele>484</ele>
<time>2012-03-03T10:09:34Z</time>
<extensions>
<gpxtpx:TrackPointExtension>
<gpxtpx:hr>136</gpxtpx:hr>
<gpxtpx:atemp>4</gpxtpx:atemp>
</gpxtpx:TrackPointExtension>
</extensions>
</trkpt>
<trkpt lat="47.62198814190924" lon="12.205277541652322">
<ele>484</ele>
<time>2012-03-03T10:09:41Z</time>
<extensions>
<gpxtpx:TrackPointExtension>
<gpxtpx:hr>136</gpxtpx:hr>
<gpxtpx:atemp>4</gpxtpx:atemp>
</gpxtpx:TrackPointExtension>
</extensions>
</trkpt>
<trkpt lat="47.62246021069586" lon="12.205009488388896">
<ele>484</ele>
<time>2012-03-03T10:09:49Z</time>
<extensions>
<gpxtpx:TrackPointExtension>
<gpxtpx:hr>137</gpxtpx:hr>
<gpxtpx:atemp>4</gpxtpx:atemp>
</gpxtpx:TrackPointExtension>
</extensions>
</trkpt>
<trkpt lat="47.622685097157955" lon="12.204894572496414">
<ele>484</ele>
<time>2012-03-03T10:09:53Z</time>
<extensions>
<gpxtpx:TrackPointExtension>
<gpxtpx:hr>134</gpxtpx:hr>
<gpxtpx:atemp>4</gpxtpx:atemp>
</gpxtpx:TrackPointExtension>
</extensions>
</trkpt>
<trkpt lat="47.62296907603741" lon="12.204757360741496">
<ele>484</ele>
<time>2012-03-03T10:09:58Z</time>
<extensions>
<gpxtpx:TrackPointExtension>
<gpxtpx:hr>135</gpxtpx:hr>
<gpxtpx:atemp>4</gpxtpx:atemp>
</gpxtpx:TrackPointExtension>
</extensions>
</trkpt>
<trkpt lat="47.62342664413154" lon="12.204565247520804">
<ele>484</ele>
<time>2012-03-03T10:10:06Z</time>
<extensions>
<gpxtpx:TrackPointExtension>
<gpxtpx:hr>134</gpxtpx:hr>
<gpxtpx:atemp>4</gpxtpx:atemp>
</gpxtpx:TrackPointExtension>
</extensions>
</trkpt>
<trkpt lat="47.62390634045005" lon="12.204392412677407">
<ele>484</ele>
<time>2012-03-03T10:10:14Z</time>
<extensions>
<gpxtpx:TrackPointExtension>
<gpxtpx:hr>136</gpxtpx:hr>
<gpxtpx:atemp>4</gpxtpx:atemp>
</gpxtpx:TrackPointExtension>
</extensions>
</trkpt>
<trkpt lat="47.62427128851414" lon="12.204307671636343">
<ele>484</ele>
<time>2012-03-03T10:10:20Z</time>
<extensions>
<gpxtpx:TrackPointExtension>
<gpxtpx:hr>139</gpxtpx:hr>
<gpxtpx:atemp>4</gpxtpx:atemp>
</gpxtpx:TrackPointExtension>
</extensions>
</trkpt>
<trkpt lat="47.624392323195934" lon="12.204284202307463">
<ele>484</ele>
<time>2012-03-03T10:10:22Z</time>
<extensions>
<gpxtpx:TrackPointExtension>
<gpxtpx:hr>140</gpxtpx:hr>
<gpxtpx:atemp>4</gpxtpx:atemp>
</gpxtpx:TrackPointExtension>
</extensions>
</trkpt>
<trkpt lat="47.6246340572834" lon="12.204238520935178">
<ele>484</ele>
<time>2012-03-03T10:10:26Z</time>
<extensions>
<gpxtpx:TrackPointExtension>
<gpxtpx:hr>143</gpxtpx:hr>
<gpxtpx:atemp>4</gpxtpx:atemp>
</gpxtpx:TrackPointExtension>
</extensions>
</trkpt>
<trkpt lat="47.62494385242462" lon="12.204177416861057">
<ele>484</ele>
<time>2012-03-03T10:10:31Z</time>
<extensions>
<gpxtpx:TrackPointExtension>
<gpxtpx:hr>144</gpxtpx:hr>
<gpxtpx:atemp>4</gpxtpx:atemp>
</gpxtpx:TrackPointExtension>
</extensions>
</trkpt>
<trkpt lat="47.62524685822427" lon="12.204129388555884">
<ele>484</ele>
<time>2012-03-03T10:10:36Z</time>
<extensions>
<gpxtpx:TrackPointExtension>
<gpxtpx:hr>141</gpxtpx:hr>
<gpxtpx:atemp>4</gpxtpx:atemp>
</gpxtpx:TrackPointExtension>
</extensions>
</trkpt>
<trkpt lat="47.62548549100757" lon="12.204084964469075">
<ele>484</ele>
<time>2012-03-03T10:10:40Z</time>
<extensions>
<gpxtpx:TrackPointExtension>
<gpxtpx:hr>140</gpxtpx:hr>
<gpxtpx:atemp>4</gpxtpx:atemp>
</gpxtpx:TrackPointExtension>
</extensions>
</trkpt>
<trkpt lat="47.626030733808875" lon="12.204013215377927">
<ele>484</ele>
<time>2012-03-03T10:10:49Z</time>
<extensions>
<gpxtpx:TrackPointExtension>
<gpxtpx:hr>138</gpxtpx:hr>
<gpxtpx:atemp>4</gpxtpx:atemp>
</gpxtpx:TrackPointExtension>
</extensions>
</trkpt>
<trkpt lat="47.62633583508432" lon="12.204070715233684">
<ele>484</ele>
<time>2012-03-03T10:10:54Z</time>
<extensions>
<gpxtpx:TrackPointExtension>
<gpxtpx:hr>137</gpxtpx:hr>
<gpxtpx:atemp>4</gpxtpx:atemp>
</gpxtpx:TrackPointExtension>
</extensions>
</trkpt>
<trkpt lat="47.626391323283315" lon="12.20411203801632">
<ele>484</ele>
<time>2012-03-03T10:10:55Z</time>
<extensions>
<gpxtpx:TrackPointExtension>
<gpxtpx:hr>138</gpxtpx:hr>
<gpxtpx:atemp>4</gpxtpx:atemp>
</gpxtpx:TrackPointExtension>
</extensions>
</trkpt>
<trkpt lat="47.62676096521318" lon="12.204417055472732">
<ele>484</ele>
<time>2012-03-03T10:11:02Z</time>
<extensions>
<gpxtpx:TrackPointExtension>
<gpxtpx:hr>137</gpxtpx:hr>
<gpxtpx:atemp>4</gpxtpx:atemp>
</gpxtpx:TrackPointExtension>
</extensions>
</trkpt>
<trkpt lat="47.626929273828864" lon="12.204510513693094">
<ele>484</ele>
<time>2012-03-03T10:11:05Z</time>
<extensions>
<gpxtpx:TrackPointExtension>
<gpxtpx:hr>138</gpxtpx:hr>
<gpxtpx:atemp>4</gpxtpx:atemp>
</gpxtpx:TrackPointExtension>
</extensions>
</trkpt>
<trkpt lat="47.627052990719676" lon="12.204534653574228">
<ele>484</ele>
<time>2012-03-03T10:11:07Z</time>
<extensions>
<gpxtpx:TrackPointExtension>
<gpxtpx:hr>138</gpxtpx:hr>
<gpxtpx:atemp>4</gpxtpx:atemp>
</gpxtpx:TrackPointExtension>
</extensions>
</trkpt>
<trkpt lat="47.62717402540147" lon="12.204525182023644">
<ele>484</ele>
<time>2012-03-03T10:11:09Z</time>
<extensions>
<gpxtpx:TrackPointExtension>
<gpxtpx:hr>138</gpxtpx:hr>
<gpxtpx:atemp>4</gpxtpx:atemp>
</gpxtpx:TrackPointExtension>
</extensions>
</trkpt>
<trkpt lat="47.62735666707158" lon="12.20450347289443">
<ele>484</ele>
<time>2012-03-03T10:11:12Z</time>
<extensions>
<gpxtpx:TrackPointExtension>
<gpxtpx:hr>138</gpxtpx:hr>
<gpxtpx:atemp>4</gpxtpx:atemp>
</gpxtpx:TrackPointExtension>
</extensions>
</trkpt>
<trkpt lat="47.62774692848325" lon="12.204517889767885">
<ele>484</ele>
<time>2012-03-03T10:11:18Z</time>
<extensions>
<gpxtpx:TrackPointExtension>
<gpxtpx:hr>140</gpxtpx:hr>
<gpxtpx:atemp>4</gpxtpx:atemp>
</gpxtpx:TrackPointExtension>
</extensions>
</trkpt>
<trkpt lat="47.62822930701077" lon="12.204486457630992">
<ele>484</ele>
<time>2012-03-03T10:11:26Z</time>
<extensions>
<gpxtpx:TrackPointExtension>
<gpxtpx:hr>141</gpxtpx:hr>
<gpxtpx:atemp>4</gpxtpx:atemp>
</gpxtpx:TrackPointExtension>
</extensions>
</trkpt>
<trkpt lat="47.628734819591045" lon="12.2044238448143">
<ele>484</ele>
<time>2012-03-03T10:11:34Z</time>
<extensions>
<gpxtpx:TrackPointExtension>
<gpxtpx:hr>139</gpxtpx:hr>
<gpxtpx:atemp>4</gpxtpx:atemp>
</gpxtpx:TrackPointExtension>
</extensions>
</trkpt>
<trkpt lat="47.62904293835163" lon="12.204207424074411">
<ele>484</ele>
<time>2012-03-03T10:11:39Z</time>
<extensions>
<gpxtpx:TrackPointExtension>
<gpxtpx:hr>139</gpxtpx:hr>
<gpxtpx:atemp>4</gpxtpx:atemp>
</gpxtpx:TrackPointExtension>
</extensions>
</trkpt>
<trkpt lat="47.62919012457132" lon="12.2040940169245">
<ele>484</ele>
<time>2012-03-03T10:11:41Z</time>
<extensions>
<gpxtpx:TrackPointExtension>
<gpxtpx:hr>142</gpxtpx:hr>
<gpxtpx:atemp>4</gpxtpx:atemp>
</gpxtpx:TrackPointExtension>
</extensions>
</trkpt>
<trkpt lat="47.62933747842908" lon="12.203987566754222">
<ele>484</ele>
<time>2012-03-03T10:11:43Z</time>
<extensions>
<gpxtpx:TrackPointExtension>
<gpxtpx:hr>143</gpxtpx:hr>
<gpxtpx:atemp>4</gpxtpx:atemp>
</gpxtpx:TrackPointExtension>
</extensions>
</trkpt>
<trkpt lat="47.629574686288834" lon="12.203816240653396">
<ele>484</ele>
<time>2012-03-03T10:11:46Z</time>
<extensions>
<gpxtpx:TrackPointExtension>
<gpxtpx:hr>147</gpxtpx:hr>
<gpxtpx:atemp>4</gpxtpx:atemp>
</gpxtpx:TrackPointExtension>
</extensions>
</trkpt>
<trkpt lat="47.62974349781871" lon="12.203727811574936">
<ele>484</ele>
<time>2012-03-03T10:11:48Z</time>
<extensions>
<gpxtpx:TrackPointExtension>
<gpxtpx:hr>150</gpxtpx:hr>
<gpxtpx:atemp>4</gpxtpx:atemp>
</gpxtpx:TrackPointExtension>
</extensions>
</trkpt>
<trkpt lat="47.62983259744942" lon="12.203703671693802">
<ele>484</ele>
<time>2012-03-03T10:11:49Z</time>
<extensions>
<gpxtpx:TrackPointExtension>
<gpxtpx:hr>151</gpxtpx:hr>
<gpxtpx:atemp>4</gpxtpx:atemp>
</gpxtpx:TrackPointExtension>
</extensions>
</trkpt>
<trkpt lat="47.630019346252084" lon="12.203674418851733">
<ele>484</ele>
<time>2012-03-03T10:11:51Z</time>
<extensions>
<gpxtpx:TrackPointExtension>
<gpxtpx:hr>154</gpxtpx:hr>
<gpxtpx:atemp>4</gpxtpx:atemp>
</gpxtpx:TrackPointExtension>
</extensions>
</trkpt>
<trkpt lat="47.630216823890805" lon="12.203645333647728">
<ele>484</ele>
<time>2012-03-03T10:11:53Z</time>
<extensions>
<gpxtpx:TrackPointExtension>
<gpxtpx:hr>157</gpxtpx:hr>
<gpxtpx:atemp>4</gpxtpx:atemp>
</gpxtpx:TrackPointExtension>
</extensions>
</trkpt>
<trkpt lat="47.63031103648245" lon="12.203625719994307">
<ele>484</ele>
<time>2012-03-03T10:11:54Z</time>
<extensions>
<gpxtpx:TrackPointExtension>
<gpxtpx:hr>158</gpxtpx:hr>
<gpxtpx:atemp>4</gpxtpx:atemp>
</gpxtpx:TrackPointExtension>
</extensions>
</trkpt>
<trkpt lat="47.630575401708484" lon="12.20354718156159">
<ele>484</ele>
<time>2012-03-03T10:11:57Z</time>
<extensions>
<gpxtpx:TrackPointExtension>
<gpxtpx:hr>161</gpxtpx:hr>
<gpxtpx:atemp>4</gpxtpx:atemp>
</gpxtpx:TrackPointExtension>
</extensions>
</trkpt>
<trkpt lat="47.63073977082968" lon="12.203496806323528">
<ele>484</ele>
<time>2012-03-03T10:11:59Z</time>
<extensions>
<gpxtpx:TrackPointExtension>
<gpxtpx:hr>162</gpxtpx:hr>
<gpxtpx:atemp>4</gpxtpx:atemp>
</gpxtpx:TrackPointExtension>
</extensions>
</trkpt>
<trkpt lat="47.63127244077623" lon="12.203355822712183">
<ele>484</ele>
<time>2012-03-03T10:12:06Z</time>
<extensions>
<gpxtpx:TrackPointExtension>
<gpxtpx:hr>163</gpxtpx:hr>
<gpxtpx:atemp>4</gpxtpx:atemp>
</gpxtpx:TrackPointExtension>
</extensions>
</trkpt>
<trkpt lat="47.631346536800265" lon="12.203333443030715">
<ele>484</ele>
<time>2012-03-03T10:12:07Z</time>
<extensions>
<gpxtpx:TrackPointExtension>
<gpxtpx:hr>163</gpxtpx:hr>
<gpxtpx:atemp>4</gpxtpx:atemp>
</gpxtpx:TrackPointExtension>
</extensions>
</trkpt>
<trkpt lat="47.631917679682374" lon="12.203171756118536">
<ele>484</ele>
<time>2012-03-03T10:12:15Z</time>
<extensions>
<gpxtpx:TrackPointExtension>
<gpxtpx:hr>161</gpxtpx:hr>
<gpxtpx:atemp>4</gpxtpx:atemp>
</gpxtpx:TrackPointExtension>
</extensions>
</trkpt>
<trkpt lat="47.6324568875134" lon="12.202998837456107">
<ele>484</ele>
<time>2012-03-03T10:12:23Z</time>
<extensions>
<gpxtpx:TrackPointExtension>
<gpxtpx:hr>160</gpxtpx:hr>
<gpxtpx:atemp>4</gpxtpx:atemp>
</gpxtpx:TrackPointExtension>
</extensions>
</trkpt>
<trkpt lat="47.632915964350104" lon="12.202856512740254">
<ele>484</ele>
<time>2012-03-03T10:12:30Z</time>
<extensions>
<gpxtpx:TrackPointExtension>
<gpxtpx:hr>159</gpxtpx:hr>
<gpxtpx:atemp>4</gpxtpx:atemp>
</gpxtpx:TrackPointExtension>
</extensions>
</trkpt>
<trkpt lat="47.63343631289899" lon="12.202697424218059">
<ele>484</ele>
<time>2012-03-03T10:12:38Z</time>
<extensions>
<gpxtpx:TrackPointExtension>
<gpxtpx:hr>157</gpxtpx:hr>
<gpxtpx:atemp>4</gpxtpx:atemp>
</gpxtpx:TrackPointExtension>
</extensions>
</trkpt>
<trkpt lat="47.63389161787927" lon="12.20256163738668">
<ele>484</ele>
<time>2012-03-03T10:12:45Z</time>
<extensions>
<gpxtpx:TrackPointExtension>
<gpxtpx:hr>155</gpxtpx:hr>
<gpxtpx:atemp>4</gpxtpx:atemp>
</gpxtpx:TrackPointExtension>
</extensions>
</trkpt>
<trkpt lat="47.634479105472565" lon="12.202392825856805">
<ele>484</ele>
<time>2012-03-03T10:12:54Z</time>
<extensions>
<gpxtpx:TrackPointExtension>
<gpxtpx:hr>154</gpxtpx:hr>
<gpxtpx:atemp>4</gpxtpx:atemp>
</gpxtpx:TrackPointExtension>
</extensions>
</trkpt>
<trkpt lat="47.63506047427654" lon="12.202217476442456">
<ele>484</ele>
<time>2012-03-03T10:13:03Z</time>
<extensions>
<gpxtpx:TrackPointExtension>
<gpxtpx:hr>152</gpxtpx:hr>
<gpxtpx:atemp>4</gpxtpx:atemp>
</gpxtpx:TrackPointExtension>
</extensions>
</trkpt>
<trkpt lat="47.63512685894966" lon="12.202195096760988">
<ele>484</ele>
<time>2012-03-03T10:13:04Z</time>
<extensions>
<gpxtpx:TrackPointExtension>
<gpxtpx:hr>152</gpxtpx:hr>
<gpxtpx:atemp>4</gpxtpx:atemp>
</gpxtpx:TrackPointExtension>
</extensions>
</trkpt>
<trkpt lat="47.63563354499638" lon="12.202023100107908">
<ele>484</ele>
<time>2012-03-03T10:13:12Z</time>
<extensions>
<gpxtpx:TrackPointExtension>
<gpxtpx:hr>149</gpxtpx:hr>
<gpxtpx:atemp>4</gpxtpx:atemp>
</gpxtpx:TrackPointExtension>
</extensions>
</trkpt>
<trkpt lat="47.63621239922941" lon="12.201854959130287">
<ele>484</ele>
<time>2012-03-03T10:13:21Z</time>
<extensions>
<gpxtpx:TrackPointExtension>
<gpxtpx:hr>148</gpxtpx:hr>
<gpxtpx:atemp>4</gpxtpx:atemp>
</gpxtpx:TrackPointExtension>
</extensions>
</trkpt>
<trkpt lat="47.63678563758731" lon="12.201665947213769">
<ele>484</ele>
<time>2012-03-03T10:13:30Z</time>
<extensions>
<gpxtpx:TrackPointExtension>
<gpxtpx:hr>146</gpxtpx:hr>
<gpxtpx:atemp>4</gpxtpx:atemp>
</gpxtpx:TrackPointExtension>
</extensions>
</trkpt>
<trkpt lat="47.63684690929949" lon="12.201642813161016">
<ele>484</ele>
<time>2012-03-03T10:13:31Z</time>
<extensions>
<gpxtpx:TrackPointExtension>
<gpxtpx:hr>146</gpxtpx:hr>
<gpxtpx:atemp>4</gpxtpx:atemp>
</gpxtpx:TrackPointExtension>
</extensions>
</trkpt>
<trkpt lat="47.63740464113653" lon="12.201426308602095">
<ele>484</ele>
<time>2012-03-03T10:13:40Z</time>
<extensions>
<gpxtpx:TrackPointExtension>
<gpxtpx:hr>144</gpxtpx:hr>
<gpxtpx:atemp>4</gpxtpx:atemp>
</gpxtpx:TrackPointExtension>
</extensions>
</trkpt>
<trkpt lat="47.63747211545706" lon="12.20140309073031">
<ele>484</ele>
<time>2012-03-03T10:13:41Z</time>
<extensions>
<gpxtpx:TrackPointExtension>
<gpxtpx:hr>144</gpxtpx:hr>
<gpxtpx:atemp>4</gpxtpx:atemp>
</gpxtpx:TrackPointExtension>
</extensions>
</trkpt>
<trkpt lat="47.637906381860375" lon="12.20126235857606">
<ele>484</ele>
<time>2012-03-03T10:13:48Z</time>
<extensions>
<gpxtpx:TrackPointExtension>
<gpxtpx:hr>142</gpxtpx:hr>
<gpxtpx:atemp>4</gpxtpx:atemp>
</gpxtpx:TrackPointExtension>
</extensions>
</trkpt>
<trkpt lat="47.63841281645" lon="12.201076280325651">
<ele>484</ele>
<time>2012-03-03T10:13:56Z</time>
<extensions>
<gpxtpx:TrackPointExtension>
<gpxtpx:hr>141</gpxtpx:hr>
<gpxtpx:atemp>4</gpxtpx:atemp>
</gpxtpx:TrackPointExtension>
</extensions>
</trkpt>
<trkpt lat="47.638981277123094" lon="12.200909899547696">
<ele>484</ele>
<time>2012-03-03T10:14:05Z</time>
<extensions>
<gpxtpx:TrackPointExtension>
<gpxtpx:hr>142</gpxtpx:hr>
<gpxtpx:atemp>4</gpxtpx:atemp>
</gpxtpx:TrackPointExtension>
</extensions>
</trkpt>
<trkpt lat="47.6391570456326" lon="12.20105767250061">
<ele>484</ele>
<time>2012-03-03T10:14:08Z</time>
<extensions>
<gpxtpx:TrackPointExtension>
<gpxtpx:hr>142</gpxtpx:hr>
<gpxtpx:atemp>4</gpxtpx:atemp>
</gpxtpx:TrackPointExtension>
</extensions>
</trkpt>
<trkpt lat="47.63927313499153" lon="12.201395044103265">
<ele>484</ele>
<time>2012-03-03T10:14:12Z</time>
<extensions>
<gpxtpx:TrackPointExtension>
<gpxtpx:hr>142</gpxtpx:hr>
<gpxtpx:atemp>4</gpxtpx:atemp>
</gpxtpx:TrackPointExtension>
</extensions>
</trkpt>
<trkpt lat="47.6392606459558" lon="12.201617332175374">
<ele>484</ele>
<time>2012-03-03T10:14:15Z</time>
<extensions>
<gpxtpx:TrackPointExtension>
<gpxtpx:hr>141</gpxtpx:hr>
<gpxtpx:atemp>4</gpxtpx:atemp>
</gpxtpx:TrackPointExtension>
</extensions>
</trkpt>
<trkpt lat="47.639364413917065" lon="12.20167675986886">
<ele>484</ele>
<time>2012-03-03T10:14:17Z</time>
<extensions>
<gpxtpx:TrackPointExtension>
<gpxtpx:hr>142</gpxtpx:hr>
<gpxtpx:atemp>4</gpxtpx:atemp>
</gpxtpx:TrackPointExtension>
</extensions>
</trkpt>
<trkpt lat="47.63947430066764" lon="12.201691009104252">
<ele>484</ele>
<time>2012-03-03T10:14:19Z</time>
<extensions>
<gpxtpx:TrackPointExtension>
<gpxtpx:hr>144</gpxtpx:hr>
<gpxtpx:atemp>4</gpxtpx:atemp>
</gpxtpx:TrackPointExtension>
</extensions>
</trkpt>
<trkpt lat="47.63957714661956" lon="12.201711544767022">
<ele>484</ele>
<time>2012-03-03T10:14:21Z</time>
<extensions>
<gpxtpx:TrackPointExtension>
<gpxtpx:hr>144</gpxtpx:hr>
<gpxtpx:atemp>4</gpxtpx:atemp>
</gpxtpx:TrackPointExtension>
</extensions>
</trkpt>
<trkpt lat="47.63967789709568" lon="12.201710538938642">
<ele>484</ele>
<time>2012-03-03T10:14:23Z</time>
<extensions>
<gpxtpx:TrackPointExtension>
<gpxtpx:hr>145</gpxtpx:hr>
<gpxtpx:atemp>4</gpxtpx:atemp>
</gpxtpx:TrackPointExtension>
</extensions>
</trkpt>
<trkpt lat="47.63972785323858" lon="12.201583217829466">
<ele>484</ele>
<time>2012-03-03T10:14:25Z</time>
<extensions>
<gpxtpx:TrackPointExtension>
<gpxtpx:hr>145</gpxtpx:hr>
<gpxtpx:atemp>4</gpxtpx:atemp>
</gpxtpx:TrackPointExtension>
</extensions>
</trkpt>
<trkpt lat="47.639692313969135" lon="12.201407616958022">
<ele>484</ele>
<time>2012-03-03T10:14:27Z</time>
<extensions>
<gpxtpx:TrackPointExtension>
<gpxtpx:hr>146</gpxtpx:hr>
<gpxtpx:atemp>4</gpxtpx:atemp>
</gpxtpx:TrackPointExtension>
</extensions>
</trkpt>
<trkpt lat="47.639679573476315" lon="12.201318265870214">
<ele>484</ele>
<time>2012-03-03T10:14:28Z</time>
<extensions>
<gpxtpx:TrackPointExtension>
<gpxtpx:hr>146</gpxtpx:hr>
<gpxtpx:atemp>4</gpxtpx:atemp>
</gpxtpx:TrackPointExtension>
</extensions>
</trkpt>
<trkpt lat="47.63967647217214" lon="12.201225310564041">
<ele>484</ele>
<time>2012-03-03T10:14:29Z</time>
<extensions>
<gpxtpx:TrackPointExtension>
<gpxtpx:hr>147</gpxtpx:hr>
<gpxtpx:atemp>4</gpxtpx:atemp>
</gpxtpx:TrackPointExtension>
</extensions>
</trkpt>
<trkpt lat="47.63968636281788" lon="12.201027665287256">
<ele>484</ele>
<time>2012-03-03T10:14:31Z</time>
<extensions>
<gpxtpx:TrackPointExtension>
<gpxtpx:hr>146</gpxtpx:hr>
<gpxtpx:atemp>4</gpxtpx:atemp>
</gpxtpx:TrackPointExtension>
</extensions>
</trkpt>
<trkpt lat="47.63971100561321" lon="12.20083094201982">
<ele>484</ele>
<time>2012-03-03T10:14:33Z</time>
<extensions>
<gpxtpx:TrackPointExtension>
<gpxtpx:hr>146</gpxtpx:hr>
<gpxtpx:atemp>4</gpxtpx:atemp>
</gpxtpx:TrackPointExtension>
</extensions>
</trkpt>
<trkpt lat="47.63978845439851" lon="12.200661962851882">
<ele>484</ele>
<time>2012-03-03T10:14:35Z</time>
<extensions>
<gpxtpx:TrackPointExtension>
<gpxtpx:hr>146</gpxtpx:hr>
<gpxtpx:atemp>4</gpxtpx:atemp>
</gpxtpx:TrackPointExtension>
</extensions>
</trkpt>
<trkpt lat="47.6399792265147" lon="12.200566744431853">
<ele>484</ele>
<time>2012-03-03T10:14:38Z</time>
<extensions>
<gpxtpx:TrackPointExtension>
<gpxtpx:hr>146</gpxtpx:hr>
<gpxtpx:atemp>4</gpxtpx:atemp>
</gpxtpx:TrackPointExtension>
</extensions>
</trkpt>
<trkpt lat="47.64011409133673" lon="12.200540341436863">
<ele>484</ele>
<time>2012-03-03T10:14:40Z</time>
<extensions>
<gpxtpx:TrackPointExtension>
<gpxtpx:hr>144</gpxtpx:hr>
<gpxtpx:atemp>4</gpxtpx:atemp>
</gpxtpx:TrackPointExtension>
</extensions>
</trkpt>
<trkpt lat="47.64037032611668" lon="12.20044101588428">
<ele>484</ele>
<time>2012-03-03T10:14:44Z</time>
<extensions>
<gpxtpx:TrackPointExtension>
<gpxtpx:hr>143</gpxtpx:hr>
<gpxtpx:atemp>4</gpxtpx:atemp>
</gpxtpx:TrackPointExtension>
</extensions>
</trkpt>
<trkpt lat="47.640690514817834" lon="12.200296260416508">
<ele>484</ele>
<time>2012-03-03T10:14:49Z</time>
<extensions>
<gpxtpx:TrackPointExtension>
<gpxtpx:hr>145</gpxtpx:hr>
<gpxtpx:atemp>4</gpxtpx:atemp>
</gpxtpx:TrackPointExtension>
</extensions>
</trkpt>
<trkpt lat="47.64082655310631" lon="12.200269857421517">
<ele>484</ele>
<time>2012-03-03T10:14:51Z</time>
<extensions>
<gpxtpx:TrackPointExtension>
<gpxtpx:hr>146</gpxtpx:hr>
<gpxtpx:atemp>4</gpxtpx:atemp>
</gpxtpx:TrackPointExtension>
</extensions>
</trkpt>
<trkpt lat="47.64089293777943" lon="12.200266337022185">
<ele>484</ele>
<time>2012-03-03T10:14:52Z</time>
<extensions>
<gpxtpx:TrackPointExtension>
<gpxtpx:hr>146</gpxtpx:hr>
<gpxtpx:atemp>4</gpxtpx:atemp>
</gpxtpx:TrackPointExtension>
</extensions>
</trkpt>
<trkpt lat="47.641034089028835" lon="12.200260553508997">
<ele>484</ele>
<time>2012-03-03T10:14:54Z</time>
<extensions>
<gpxtpx:TrackPointExtension>
<gpxtpx:hr>146</gpxtpx:hr>
<gpxtpx:atemp>4</gpxtpx:atemp>
</gpxtpx:TrackPointExtension>
</extensions>
</trkpt>
<trkpt lat="47.641106341034174" lon="12.200258625671268">
<ele>483</ele>
<time>2012-03-03T10:14:55Z</time>
<extensions>
<gpxtpx:TrackPointExtension>
<gpxtpx:hr>146</gpxtpx:hr>
<gpxtpx:atemp>4</gpxtpx:atemp>
</gpxtpx:TrackPointExtension>
</extensions>
</trkpt>
<trkpt lat="47.64118789695203" lon="12.200257452204823">
<ele>482</ele>
<time>2012-03-03T10:14:56Z</time>
<extensions>
<gpxtpx:TrackPointExtension>
<gpxtpx:hr>146</gpxtpx:hr>
<gpxtpx:atemp>4</gpxtpx:atemp>
</gpxtpx:TrackPointExtension>
</extensions>
</trkpt>
<trkpt lat="47.641271548345685" lon="12.200252087786794">
<ele>482</ele>
<time>2012-03-03T10:14:57Z</time>
<extensions>
<gpxtpx:TrackPointExtension>
<gpxtpx:hr>146</gpxtpx:hr>
<gpxtpx:atemp>4</gpxtpx:atemp>
</gpxtpx:TrackPointExtension>
</extensions>
</trkpt>
<trkpt lat="47.64135478064418" lon="12.200245382264256">
<ele>482</ele>
<time>2012-03-03T10:14:58Z</time>
<extensions>
<gpxtpx:TrackPointExtension>
<gpxtpx:hr>146</gpxtpx:hr>
<gpxtpx:atemp>4</gpxtpx:atemp>
</gpxtpx:TrackPointExtension>
</extensions>
</trkpt>
<trkpt lat="47.641444047912955" lon="12.200253261253238">
<ele>482</ele>
<time>2012-03-03T10:14:59Z</time>
<extensions>
<gpxtpx:TrackPointExtension>
<gpxtpx:hr>146</gpxtpx:hr>
<gpxtpx:atemp>4</gpxtpx:atemp>
</gpxtpx:TrackPointExtension>
</extensions>
</trkpt>
<trkpt lat="47.641536835581064" lon="12.200282095000148">
<ele>481</ele>
<time>2012-03-03T10:15:00Z</time>
<extensions>
<gpxtpx:TrackPointExtension>
<gpxtpx:hr>145</gpxtpx:hr>
<gpxtpx:atemp>4</gpxtpx:atemp>
</gpxtpx:TrackPointExtension>
</extensions>
</trkpt>
<trkpt lat="47.641632221639156" lon="12.200315287336707">
<ele>481</ele>
<time>2012-03-03T10:15:01Z</time>
<extensions>
<gpxtpx:TrackPointExtension>
<gpxtpx:hr>145</gpxtpx:hr>
<gpxtpx:atemp>4</gpxtpx:atemp>
</gpxtpx:TrackPointExtension>
</extensions>
</trkpt>
<trkpt lat="47.64172903262079" lon="12.200330374762416">
<ele>480</ele>
<time>2012-03-03T10:15:02Z</time>
<extensions>
<gpxtpx:TrackPointExtension>
<gpxtpx:hr>145</gpxtpx:hr>
<gpxtpx:atemp>4</gpxtpx:atemp>
</gpxtpx:TrackPointExtension>
</extensions>
</trkpt>
<trkpt lat="47.64181947335601" lon="12.200319143012166">
<ele>480</ele>
<time>2012-03-03T10:15:03Z</time>
<extensions>
<gpxtpx:TrackPointExtension>
<gpxtpx:hr>145</gpxtpx:hr>
<gpxtpx:atemp>4</gpxtpx:atemp>
</gpxtpx:TrackPointExtension>
</extensions>
</trkpt>
<trkpt lat="47.64199063181877" lon="12.200259631499648">
<ele>479</ele>
<time>2012-03-03T10:15:05Z</time>
<extensions>
<gpxtpx:TrackPointExtension>
<gpxtpx:hr>144</gpxtpx:hr>
<gpxtpx:atemp>4</gpxtpx:atemp>
</gpxtpx:TrackPointExtension>
</extensions>
</trkpt>
<trkpt lat="47.642065063118935" lon="12.200203975662589">
<ele>479</ele>
<time>2012-03-03T10:15:06Z</time>
<extensions>
<gpxtpx:TrackPointExtension>
<gpxtpx:hr>145</gpxtpx:hr>
<gpxtpx:atemp>4</gpxtpx:atemp>
</gpxtpx:TrackPointExtension>
</extensions>
</trkpt>
<trkpt lat="47.64213773421943" lon="12.20014831982553">
<ele>479</ele>
<time>2012-03-03T10:15:07Z</time>
<extensions>
<gpxtpx:TrackPointExtension>
<gpxtpx:hr>144</gpxtpx:hr>
<gpxtpx:atemp>4</gpxtpx:atemp>
</gpxtpx:TrackPointExtension>
</extensions>
</trkpt>
<trkpt lat="47.64220361597836" lon="12.200080510228872">
<ele>478</ele>
<time>2012-03-03T10:15:08Z</time>
<extensions>
<gpxtpx:TrackPointExtension>
<gpxtpx:hr>144</gpxtpx:hr>
<gpxtpx:atemp>4</gpxtpx:atemp>
</gpxtpx:TrackPointExtension>
</extensions>
</trkpt>
<trkpt lat="47.642268827185035" lon="12.20000951550901">
<ele>478</ele>
<time>2012-03-03T10:15:09Z</time>
<extensions>
<gpxtpx:TrackPointExtension>
<gpxtpx:hr>143</gpxtpx:hr>
<gpxtpx:atemp>4</gpxtpx:atemp>
</gpxtpx:TrackPointExtension>
</extensions>
</trkpt>
<trkpt lat="47.64252154156566" lon="12.199721597135067">
<ele>478</ele>
<time>2012-03-03T10:15:13Z</time>
<extensions>
<gpxtpx:TrackPointExtension>
<gpxtpx:hr>140</gpxtpx:hr>
<gpxtpx:atemp>4</gpxtpx:atemp>
</gpxtpx:TrackPointExtension>
</extensions>
</trkpt>
<trkpt lat="47.64270460233092" lon="12.199514899402857">
<ele>478</ele>
<time>2012-03-03T10:15:16Z</time>
<extensions>
<gpxtpx:TrackPointExtension>
<gpxtpx:hr>136</gpxtpx:hr>
<gpxtpx:atemp>4</gpxtpx:atemp>
</gpxtpx:TrackPointExtension>
</extensions>
</trkpt>
<trkpt lat="47.642827816307545" lon="12.19938020221889">
<ele>478</ele>
<time>2012-03-03T10:15:18Z</time>
<extensions>
<gpxtpx:TrackPointExtension>
<gpxtpx:hr>133</gpxtpx:hr>
<gpxtpx:atemp>4</gpxtpx:atemp>
</gpxtpx:TrackPointExtension>
</extensions>
</trkpt>
<trkpt lat="47.643182622268796" lon="12.199023803696036">
<ele>478</ele>
<time>2012-03-03T10:15:24Z</time>
<extensions>
<gpxtpx:TrackPointExtension>
<gpxtpx:hr>131</gpxtpx:hr>
<gpxtpx:atemp>4</gpxtpx:atemp>
</gpxtpx:TrackPointExtension>
</extensions>
</trkpt>
<trkpt lat="47.64334011822939" lon="12.198932440951467">
<ele>477</ele>
<time>2012-03-03T10:15:27Z</time>
<extensions>
<gpxtpx:TrackPointExtension>
<gpxtpx:hr>128</gpxtpx:hr>
<gpxtpx:atemp>4</gpxtpx:atemp>
</gpxtpx:TrackPointExtension>
</extensions>
</trkpt>
<trkpt lat="47.64339099638164" lon="12.198950629681349">
<ele>477</ele>
<time>2012-03-03T10:15:28Z</time>
<extensions>
<gpxtpx:TrackPointExtension>
<gpxtpx:hr>128</gpxtpx:hr>
<gpxtpx:atemp>4</gpxtpx:atemp>
</gpxtpx:TrackPointExtension>
</extensions>
</trkpt>
<trkpt lat="47.64343357644975" lon="12.198963537812233">
<ele>476</ele>
<time>2012-03-03T10:15:29Z</time>
<extensions>
<gpxtpx:TrackPointExtension>
<gpxtpx:hr>128</gpxtpx:hr>
<gpxtpx:atemp>4</gpxtpx:atemp>
</gpxtpx:TrackPointExtension>
</extensions>
</trkpt>
<trkpt lat="47.64347875490785" lon="12.199013493955135">
<ele>476</ele>
<time>2012-03-03T10:15:30Z</time>
<extensions>
<gpxtpx:TrackPointExtension>
<gpxtpx:hr>129</gpxtpx:hr>
<gpxtpx:atemp>4</gpxtpx:atemp>
</gpxtpx:TrackPointExtension>
</extensions>
</trkpt>
<trkpt lat="47.64350172132254" lon="12.199079208076">
<ele>476</ele>
<time>2012-03-03T10:15:31Z</time>
<extensions>
<gpxtpx:TrackPointExtension>
<gpxtpx:hr>128</gpxtpx:hr>
<gpxtpx:atemp>4</gpxtpx:atemp>
</gpxtpx:TrackPointExtension>
</extensions>
</trkpt>
<trkpt lat="47.64350784011185" lon="12.199160093441606">
<ele>475</ele>
<time>2012-03-03T10:15:32Z</time>
<extensions>
<gpxtpx:TrackPointExtension>
<gpxtpx:hr>127</gpxtpx:hr>
<gpxtpx:atemp>4</gpxtpx:atemp>
</gpxtpx:TrackPointExtension>
</extensions>
</trkpt>
<trkpt lat="47.64350918121636" lon="12.19924433156848">
<ele>475</ele>
<time>2012-03-03T10:15:33Z</time>
<extensions>
<gpxtpx:TrackPointExtension>
<gpxtpx:hr>128</gpxtpx:hr>
<gpxtpx:atemp>4</gpxtpx:atemp>
</gpxtpx:TrackPointExtension>
</extensions>
</trkpt>
<trkpt lat="47.64351789839566" lon="12.19933527521789">
<ele>474</ele>
<time>2012-03-03T10:15:34Z</time>
<extensions>
<gpxtpx:TrackPointExtension>
<gpxtpx:hr>128</gpxtpx:hr>
<gpxtpx:atemp>4</gpxtpx:atemp>
</gpxtpx:TrackPointExtension>
</extensions>
</trkpt>
<trkpt lat="47.64352812431753" lon="12.199421776458621">
<ele>474</ele>
<time>2012-03-03T10:15:35Z</time>
<extensions>
<gpxtpx:TrackPointExtension>
<gpxtpx:hr>128</gpxtpx:hr>
<gpxtpx:atemp>4</gpxtpx:atemp>
</gpxtpx:TrackPointExtension>
</extensions>
</trkpt>
<trkpt lat="47.64353700913489" lon="12.199508780613542">
<ele>474</ele>
<time>2012-03-03T10:15:36Z</time>
<extensions>
<gpxtpx:TrackPointExtension>
<gpxtpx:hr>129</gpxtpx:hr>
<gpxtpx:atemp>4</gpxtpx:atemp>
</gpxtpx:TrackPointExtension>
</extensions>
</trkpt>
<trkpt lat="47.643569530919194" lon="12.199672730639577">
<ele>474</ele>
<time>2012-03-03T10:15:38Z</time>
<extensions>
<gpxtpx:TrackPointExtension>
<gpxtpx:hr>129</gpxtpx:hr>
<gpxtpx:atemp>4</gpxtpx:atemp>
</gpxtpx:TrackPointExtension>
</extensions>
</trkpt>
<trkpt lat="47.64362937770784" lon="12.19981069676578">
<ele>474</ele>
<time>2012-03-03T10:15:40Z</time>
<extensions>
<gpxtpx:TrackPointExtension>
<gpxtpx:hr>128</gpxtpx:hr>
<gpxtpx:atemp>4</gpxtpx:atemp>
</gpxtpx:TrackPointExtension>
</extensions>
</trkpt>
<trkpt lat="47.643785113468766" lon="12.199895353987813">
<ele>474</ele>
<time>2012-03-03T10:15:43Z</time>
<extensions>
<gpxtpx:TrackPointExtension>
<gpxtpx:hr>127</gpxtpx:hr>
<gpxtpx:atemp>4</gpxtpx:atemp>
</gpxtpx:TrackPointExtension>
</extensions>
</trkpt>
<trkpt lat="47.64393783174455" lon="12.19989719800651">
<ele>474</ele>
<time>2012-03-03T10:15:45Z</time>
<extensions>
<gpxtpx:TrackPointExtension>
<gpxtpx:hr>128</gpxtpx:hr>
<gpxtpx:atemp>4</gpxtpx:atemp>
</gpxtpx:TrackPointExtension>
</extensions>
</trkpt>
<trkpt lat="47.64408786781132" lon="12.19992259517312">
<ele>474</ele>
<time>2012-03-03T10:15:47Z</time>
<extensions>
<gpxtpx:TrackPointExtension>
<gpxtpx:hr>129</gpxtpx:hr>
<gpxtpx:atemp>4</gpxtpx:atemp>
</gpxtpx:TrackPointExtension>
</extensions>
</trkpt>
<trkpt lat="47.64415358193219" lon="12.199956960976124">
<ele>474</ele>
<time>2012-03-03T10:15:48Z</time>
<extensions>
<gpxtpx:TrackPointExtension>
<gpxtpx:hr>128</gpxtpx:hr>
<gpxtpx:atemp>4</gpxtpx:atemp>
</gpxtpx:TrackPointExtension>
</extensions>
</trkpt>
<trkpt lat="47.64432507567108" lon="12.200120156630874">
<ele>474</ele>
<time>2012-03-03T10:15:51Z</time>
<extensions>
<gpxtpx:TrackPointExtension>
<gpxtpx:hr>127</gpxtpx:hr>
<gpxtpx:atemp>4</gpxtpx:atemp>
</gpxtpx:TrackPointExtension>
</extensions>
</trkpt>
<trkpt lat="47.644500844180584" lon="12.20025091432035">
<ele>474</ele>
<time>2012-03-03T10:15:54Z</time>
<extensions>
<gpxtpx:TrackPointExtension>
<gpxtpx:hr>129</gpxtpx:hr>
<gpxtpx:atemp>4</gpxtpx:atemp>
</gpxtpx:TrackPointExtension>
</extensions>
</trkpt>
<trkpt lat="47.644636295735836" lon="12.200264828279614">
<ele>474</ele>
<time>2012-03-03T10:15:56Z</time>
<extensions>
<gpxtpx:TrackPointExtension>
<gpxtpx:hr>128</gpxtpx:hr>
<gpxtpx:atemp>4</gpxtpx:atemp>
</gpxtpx:TrackPointExtension>
</extensions>
</trkpt>
<trkpt lat="47.64476898126304" lon="12.200264995917678">
<ele>474</ele>
<time>2012-03-03T10:15:58Z</time>
<extensions>
<gpxtpx:TrackPointExtension>
<gpxtpx:hr>127</gpxtpx:hr>
<gpxtpx:atemp>4</gpxtpx:atemp>
</gpxtpx:TrackPointExtension>
</extensions>
</trkpt>
<trkpt lat="47.645035944879055" lon="12.200252758339047">
<ele>474</ele>
<time>2012-03-03T10:16:02Z</time>
<extensions>
<gpxtpx:TrackPointExtension>
<gpxtpx:hr>129</gpxtpx:hr>
<gpxtpx:atemp>5</gpxtpx:atemp>
</gpxtpx:TrackPointExtension>
</extensions>
</trkpt>
<trkpt lat="47.64523157849908" lon="12.200234904885292">
<ele>474</ele>
<time>2012-03-03T10:16:05Z</time>
<extensions>
<gpxtpx:TrackPointExtension>
<gpxtpx:hr>132</gpxtpx:hr>
<gpxtpx:atemp>5</gpxtpx:atemp>
</gpxtpx:TrackPointExtension>
</extensions>
</trkpt>
<trkpt lat="47.64540323987603" lon="12.200168101117015">
<ele>474</ele>
<time>2012-03-03T10:16:08Z</time>
<extensions>
<gpxtpx:TrackPointExtension>
<gpxtpx:hr>133</gpxtpx:hr>
<gpxtpx:atemp>5</gpxtpx:atemp>
</gpxtpx:TrackPointExtension>
</extensions>
</trkpt>
<trkpt lat="47.645627623423934" lon="12.199997529387474">
<ele>474</ele>
<time>2012-03-03T10:16:12Z</time>
<extensions>
<gpxtpx:TrackPointExtension>
<gpxtpx:hr>133</gpxtpx:hr>
<gpxtpx:atemp>5</gpxtpx:atemp>
</gpxtpx:TrackPointExtension>
</extensions>
</trkpt>
<trkpt lat="47.64567741192877" lon="12.199928211048245">
<ele>474</ele>
<time>2012-03-03T10:16:13Z</time>
<extensions>
<gpxtpx:TrackPointExtension>
<gpxtpx:hr>134</gpxtpx:hr>
<gpxtpx:atemp>5</gpxtpx:atemp>
</gpxtpx:TrackPointExtension>
</extensions>
</trkpt>
<trkpt lat="47.64579492621124" lon="12.199670383706689">
<ele>474</ele>
<time>2012-03-03T10:16:16Z</time>
<extensions>
<gpxtpx:TrackPointExtension>
<gpxtpx:hr>135</gpxtpx:hr>
<gpxtpx:atemp>5</gpxtpx:atemp>
</gpxtpx:TrackPointExtension>
</extensions>
</trkpt>
<trkpt lat="47.645836332812905" lon="12.199586564674973">
<ele>474</ele>
<time>2012-03-03T10:16:17Z</time>
<extensions>
<gpxtpx:TrackPointExtension>
<gpxtpx:hr>135</gpxtpx:hr>
<gpxtpx:atemp>5</gpxtpx:atemp>
</gpxtpx:TrackPointExtension>
</extensions>
</trkpt>
<trkpt lat="47.645885702222586" lon="12.199516324326396">
<ele>474</ele>
<time>2012-03-03T10:16:18Z</time>
<extensions>
<gpxtpx:TrackPointExtension>
<gpxtpx:hr>136</gpxtpx:hr>
<gpxtpx:atemp>5</gpxtpx:atemp>
</gpxtpx:TrackPointExtension>
</extensions>
</trkpt>
<trkpt lat="47.64606138691306" lon="12.199365785345435">
<ele>474</ele>
<time>2012-03-03T10:16:21Z</time>
<extensions>
<gpxtpx:TrackPointExtension>
<gpxtpx:hr>138</gpxtpx:hr>
<gpxtpx:atemp>5</gpxtpx:atemp>
</gpxtpx:TrackPointExtension>
</extensions>
</trkpt>
<trkpt lat="47.64612039551139" lon="12.199328988790512">
<ele>474</ele>
<time>2012-03-03T10:16:22Z</time>
<extensions>
<gpxtpx:TrackPointExtension>
<gpxtpx:hr>138</gpxtpx:hr>
<gpxtpx:atemp>5</gpxtpx:atemp>
</gpxtpx:TrackPointExtension>
</extensions>
</trkpt>
<trkpt lat="47.646183259785175" lon="12.199305687099695">
<ele>474</ele>
<time>2012-03-03T10:16:23Z</time>
<extensions>
<gpxtpx:TrackPointExtension>
<gpxtpx:hr>138</gpxtpx:hr>
<gpxtpx:atemp>5</gpxtpx:atemp>
</gpxtpx:TrackPointExtension>
</extensions>
</trkpt>
<trkpt lat="47.64637419953942" lon="12.199270818382502">
<ele>474</ele>
<time>2012-03-03T10:16:26Z</time>
<extensions>
<gpxtpx:TrackPointExtension>
<gpxtpx:hr>137</gpxtpx:hr>
<gpxtpx:atemp>5</gpxtpx:atemp>
</gpxtpx:TrackPointExtension>
</extensions>
</trkpt>
<trkpt lat="47.64674920588732" lon="12.199147855862975">
<ele>474</ele>
<time>2012-03-03T10:16:32Z</time>
<extensions>
<gpxtpx:TrackPointExtension>
<gpxtpx:hr>140</gpxtpx:hr>
<gpxtpx:atemp>5</gpxtpx:atemp>
</gpxtpx:TrackPointExtension>
</extensions>
</trkpt>
<trkpt lat="47.64681441709399" lon="12.199127739295363">
<ele>474</ele>
<time>2012-03-03T10:16:33Z</time>
<extensions>
<gpxtpx:TrackPointExtension>
<gpxtpx:hr>140</gpxtpx:hr>
<gpxtpx:atemp>5</gpxtpx:atemp>
</gpxtpx:TrackPointExtension>
</extensions>
</trkpt>
<trkpt lat="47.6472111325711" lon="12.199101587757468">
<ele>474</ele>
<time>2012-03-03T10:16:39Z</time>
<extensions>
<gpxtpx:TrackPointExtension>
<gpxtpx:hr>141</gpxtpx:hr>
<gpxtpx:atemp>5</gpxtpx:atemp>
</gpxtpx:TrackPointExtension>
</extensions>
</trkpt>
<trkpt lat="47.64759820885956" lon="12.199160009622574">
<ele>474</ele>
<time>2012-03-03T10:16:45Z</time>
<extensions>
<gpxtpx:TrackPointExtension>
<gpxtpx:hr>141</gpxtpx:hr>
<gpxtpx:atemp>5</gpxtpx:atemp>
</gpxtpx:TrackPointExtension>
</extensions>
</trkpt>
<trkpt lat="47.6476583071053" lon="12.199179623275995">
<ele>474</ele>
<time>2012-03-03T10:16:46Z</time>
<extensions>
<gpxtpx:TrackPointExtension>
<gpxtpx:hr>141</gpxtpx:hr>
<gpxtpx:atemp>5</gpxtpx:atemp>
</gpxtpx:TrackPointExtension>
</extensions>
</trkpt>
<trkpt lat="47.647823095321655" lon="12.199246678501368">
<ele>474</ele>
<time>2012-03-03T10:16:49Z</time>
<extensions>
<gpxtpx:TrackPointExtension>
<gpxtpx:hr>140</gpxtpx:hr>
<gpxtpx:atemp>5</gpxtpx:atemp>
</gpxtpx:TrackPointExtension>
</extensions>
</trkpt>
<trkpt lat="47.647889060899615" lon="12.199288252741098">
<ele>473</ele>
<time>2012-03-03T10:16:50Z</time>
<extensions>
<gpxtpx:TrackPointExtension>
<gpxtpx:hr>139</gpxtpx:hr>
<gpxtpx:atemp>5</gpxtpx:atemp>
</gpxtpx:TrackPointExtension>
</extensions>
</trkpt>
<trkpt lat="47.647952092811465" lon="12.199328066781163">
<ele>473</ele>
<time>2012-03-03T10:16:51Z</time>
<extensions>
<gpxtpx:TrackPointExtension>
<gpxtpx:hr>139</gpxtpx:hr>
<gpxtpx:atemp>5</gpxtpx:atemp>
</gpxtpx:TrackPointExtension>
</extensions>
</trkpt>
<trkpt lat="47.648025434464216" lon="12.199355894699693">
<ele>472</ele>
<time>2012-03-03T10:16:52Z</time>
<extensions>
<gpxtpx:TrackPointExtension>
<gpxtpx:hr>138</gpxtpx:hr>
<gpxtpx:atemp>5</gpxtpx:atemp>
</gpxtpx:TrackPointExtension>
</extensions>
</trkpt>
<trkpt lat="47.64809416607022" lon="12.199396966025233">
<ele>472</ele>
<time>2012-03-03T10:16:53Z</time>
<extensions>
<gpxtpx:TrackPointExtension>
<gpxtpx:hr>138</gpxtpx:hr>
<gpxtpx:atemp>5</gpxtpx:atemp>
</gpxtpx:TrackPointExtension>
</extensions>
</trkpt>
<trkpt lat="47.64816482551396" lon="12.199430745095015">
<ele>472</ele>
<time>2012-03-03T10:16:54Z</time>
<extensions>
<gpxtpx:TrackPointExtension>
<gpxtpx:hr>138</gpxtpx:hr>
<gpxtpx:atemp>5</gpxtpx:atemp>
</gpxtpx:TrackPointExtension>
</extensions>
</trkpt>
<trkpt lat="47.64822886325419" lon="12.19945840537548">
<ele>471</ele>
<time>2012-03-03T10:16:55Z</time>
<extensions>
<gpxtpx:TrackPointExtension>
<gpxtpx:hr>138</gpxtpx:hr>
<gpxtpx:atemp>5</gpxtpx:atemp>
</gpxtpx:TrackPointExtension>
</extensions>
</trkpt>
<trkpt lat="47.64829181134701" lon="12.199497213587165">
<ele>471</ele>
<time>2012-03-03T10:16:56Z</time>
<extensions>
<gpxtpx:TrackPointExtension>
<gpxtpx:hr>138</gpxtpx:hr>
<gpxtpx:atemp>5</gpxtpx:atemp>
</gpxtpx:TrackPointExtension>
</extensions>
</trkpt>
<trkpt lat="47.648352747783065" lon="12.199524706229568">
<ele>470</ele>
<time>2012-03-03T10:16:57Z</time>
<extensions>
<gpxtpx:TrackPointExtension>
<gpxtpx:hr>137</gpxtpx:hr>
<gpxtpx:atemp>5</gpxtpx:atemp>
</gpxtpx:TrackPointExtension>
</extensions>
</trkpt>
<trkpt lat="47.64839440584183" lon="12.199474330991507">
<ele>470</ele>
<time>2012-03-03T10:16:58Z</time>
<extensions>
<gpxtpx:TrackPointExtension>
<gpxtpx:hr>136</gpxtpx:hr>
<gpxtpx:atemp>5</gpxtpx:atemp>
</gpxtpx:TrackPointExtension>
</extensions>
</trkpt>
<trkpt lat="47.64841712079942" lon="12.199404677376151">
<ele>469</ele>
<time>2012-03-03T10:16:59Z</time>
<extensions>
<gpxtpx:TrackPointExtension>
<gpxtpx:hr>136</gpxtpx:hr>
<gpxtpx:atemp>5</gpxtpx:atemp>
</gpxtpx:TrackPointExtension>
</extensions>
</trkpt>
<trkpt lat="47.64850898645818" lon="12.19912706874311">
<ele>469</ele>
<time>2012-03-03T10:17:02Z</time>
<extensions>
<gpxtpx:TrackPointExtension>
<gpxtpx:hr>136</gpxtpx:hr>
<gpxtpx:atemp>5</gpxtpx:atemp>
</gpxtpx:TrackPointExtension>
</extensions>
</trkpt>
<trkpt lat="47.64855198562145" lon="12.199027659371495">
<ele>469</ele>
<time>2012-03-03T10:17:03Z</time>
<extensions>
<gpxtpx:TrackPointExtension>
<gpxtpx:hr>136</gpxtpx:hr>
<gpxtpx:atemp>5</gpxtpx:atemp>
</gpxtpx:TrackPointExtension>
</extensions>
</trkpt>
<trkpt lat="47.648608814924955" lon="12.198928166180849">
<ele>470</ele>
<time>2012-03-03T10:17:04Z</time>
<extensions>
<gpxtpx:TrackPointExtension>
<gpxtpx:hr>137</gpxtpx:hr>
<gpxtpx:atemp>5</gpxtpx:atemp>
</gpxtpx:TrackPointExtension>
</extensions>
</trkpt>
<trkpt lat="47.648667069152" lon="12.198845269158483">
<ele>470</ele>
<time>2012-03-03T10:17:05Z</time>
<extensions>
<gpxtpx:TrackPointExtension>
<gpxtpx:hr>138</gpxtpx:hr>
<gpxtpx:atemp>5</gpxtpx:atemp>
</gpxtpx:TrackPointExtension>
</extensions>
</trkpt>
<trkpt lat="47.648717779666185" lon="12.198775364086032">
<ele>471</ele>
<time>2012-03-03T10:17:06Z</time>
<extensions>
<gpxtpx:TrackPointExtension>
<gpxtpx:hr>139</gpxtpx:hr>
<gpxtpx:atemp>5</gpxtpx:atemp>
</gpxtpx:TrackPointExtension>
</extensions>
</trkpt>
<trkpt lat="47.64876731671393" lon="12.198710571974516">
<ele>471</ele>
<time>2012-03-03T10:17:07Z</time>
<extensions>
<gpxtpx:TrackPointExtension>
<gpxtpx:hr>140</gpxtpx:hr>
<gpxtpx:atemp>5</gpxtpx:atemp>
</gpxtpx:TrackPointExtension>
</extensions>
</trkpt>
<trkpt lat="47.64881291426718" lon="12.198645528405905">
<ele>472</ele>
<time>2012-03-03T10:17:08Z</time>
<extensions>
<gpxtpx:TrackPointExtension>
<gpxtpx:hr>141</gpxtpx:hr>
<gpxtpx:atemp>5</gpxtpx:atemp>
</gpxtpx:TrackPointExtension>
</extensions>
</trkpt>
<trkpt lat="47.64890511520207" lon="12.19851871021092">
<ele>472</ele>
<time>2012-03-03T10:17:10Z</time>
<extensions>
<gpxtpx:TrackPointExtension>
<gpxtpx:hr>144</gpxtpx:hr>
<gpxtpx:atemp>5</gpxtpx:atemp>
</gpxtpx:TrackPointExtension>
</extensions>
</trkpt>
<trkpt lat="47.649099910631776" lon="12.198255769908428">
<ele>472</ele>
<time>2012-03-03T10:17:14Z</time>
<extensions>
<gpxtpx:TrackPointExtension>
<gpxtpx:hr>147</gpxtpx:hr>
<gpxtpx:atemp>5</gpxtpx:atemp>
</gpxtpx:TrackPointExtension>
</extensions>
</trkpt>
<trkpt lat="47.649446250870824" lon="12.197793507948518">
<ele>472</ele>
<time>2012-03-03T10:17:21Z</time>
<extensions>
<gpxtpx:TrackPointExtension>
<gpxtpx:hr>145</gpxtpx:hr>
<gpxtpx:atemp>5</gpxtpx:atemp>
</gpxtpx:TrackPointExtension>
</extensions>
</trkpt>
<trkpt lat="47.64985277317464" lon="12.197261089459062">
<ele>472</ele>
<time>2012-03-03T10:17:29Z</time>
<extensions>
<gpxtpx:TrackPointExtension>
<gpxtpx:hr>144</gpxtpx:hr>
<gpxtpx:atemp>5</gpxtpx:atemp>
</gpxtpx:TrackPointExtension>
</extensions>
</trkpt>
<trkpt lat="47.65030497685075" lon="12.196707632392645">
<ele>472</ele>
<time>2012-03-03T10:17:38Z</time>
<extensions>
<gpxtpx:TrackPointExtension>
<gpxtpx:hr>146</gpxtpx:hr>
<gpxtpx:atemp>5</gpxtpx:atemp>
</gpxtpx:TrackPointExtension>
</extensions>
</trkpt>
<trkpt lat="47.65077218413353" lon="12.196164149791002">
<ele>472</ele>
<time>2012-03-03T10:17:47Z</time>
<extensions>
<gpxtpx:TrackPointExtension>
<gpxtpx:hr>146</gpxtpx:hr>
<gpxtpx:atemp>5</gpxtpx:atemp>
</gpxtpx:TrackPointExtension>
</extensions>
</trkpt>
<trkpt lat="47.65124659985304" lon="12.19562217593193">
<ele>472</ele>
<time>2012-03-03T10:17:56Z</time>
<extensions>
<gpxtpx:TrackPointExtension>
<gpxtpx:hr>145</gpxtpx:hr>
<gpxtpx:atemp>5</gpxtpx:atemp>
</gpxtpx:TrackPointExtension>
</extensions>
</trkpt>
<trkpt lat="47.651359755545855" lon="12.195496866479516">
<ele>472</ele>
<time>2012-03-03T10:17:58Z</time>
<extensions>
<gpxtpx:TrackPointExtension>
<gpxtpx:hr>145</gpxtpx:hr>
<gpxtpx:atemp>5</gpxtpx:atemp>
</gpxtpx:TrackPointExtension>
</extensions>
</trkpt>
<trkpt lat="47.651620684191585" lon="12.195196878165007">
<ele>472</ele>
<time>2012-03-03T10:18:03Z</time>
<extensions>
<gpxtpx:TrackPointExtension>
<gpxtpx:hr>142</gpxtpx:hr>
<gpxtpx:atemp>5</gpxtpx:atemp>
</gpxtpx:TrackPointExtension>
</extensions>
</trkpt>
<trkpt lat="47.65167064033449" lon="12.19513451680541">
<ele>472</ele>
<time>2012-03-03T10:18:04Z</time>
<extensions>
<gpxtpx:TrackPointExtension>
<gpxtpx:hr>142</gpxtpx:hr>
<gpxtpx:atemp>5</gpxtpx:atemp>
</gpxtpx:TrackPointExtension>
</extensions>
</trkpt>
<trkpt lat="47.65177398920059" lon="12.195009123533964">
<ele>472</ele>
<time>2012-03-03T10:18:06Z</time>
<extensions>
<gpxtpx:TrackPointExtension>
<gpxtpx:hr>141</gpxtpx:hr>
<gpxtpx:atemp>5</gpxtpx:atemp>
</gpxtpx:TrackPointExtension>
</extensions>
</trkpt>
<trkpt lat="47.65198529697955" lon="12.194776106625795">
<ele>472</ele>
<time>2012-03-03T10:18:10Z</time>
<extensions>
<gpxtpx:TrackPointExtension>
<gpxtpx:hr>144</gpxtpx:hr>
<gpxtpx:atemp>5</gpxtpx:atemp>
</gpxtpx:TrackPointExtension>
</extensions>
</trkpt>
<trkpt lat="47.652095099911094" lon="12.194654904305935">
<ele>472</ele>
<time>2012-03-03T10:18:12Z</time>
<extensions>
<gpxtpx:TrackPointExtension>
<gpxtpx:hr>144</gpxtpx:hr>
<gpxtpx:atemp>5</gpxtpx:atemp>
</gpxtpx:TrackPointExtension>
</extensions>
</trkpt>
<trkpt lat="47.65257186256349" lon="12.194106308743358">
<ele>472</ele>
<time>2012-03-03T10:18:21Z</time>
<extensions>
<gpxtpx:TrackPointExtension>
<gpxtpx:hr>142</gpxtpx:hr>
<gpxtpx:atemp>5</gpxtpx:atemp>
</gpxtpx:TrackPointExtension>
</extensions>
</trkpt>
<trkpt lat="47.65299824997783" lon="12.193613955751061">
<ele>472</ele>
<time>2012-03-03T10:18:29Z</time>
<extensions>
<gpxtpx:TrackPointExtension>
<gpxtpx:hr>143</gpxtpx:hr>
<gpxtpx:atemp>5</gpxtpx:atemp>
</gpxtpx:TrackPointExtension>
</extensions>
</trkpt>
<trkpt lat="47.653049966320395" lon="12.193555785343051">
<ele>472</ele>
<time>2012-03-03T10:18:30Z</time>
<extensions>
<gpxtpx:TrackPointExtension>
<gpxtpx:hr>143</gpxtpx:hr>
<gpxtpx:atemp>5</gpxtpx:atemp>
</gpxtpx:TrackPointExtension>
</extensions>
</trkpt>
<trkpt lat="47.65347023494542" lon="12.193050105124712">
<ele>472</ele>
<time>2012-03-03T10:18:38Z</time>
<extensions>
<gpxtpx:TrackPointExtension>
<gpxtpx:hr>142</gpxtpx:hr>
<gpxtpx:atemp>5</gpxtpx:atemp>
</gpxtpx:TrackPointExtension>
</extensions>
</trkpt>
<trkpt lat="47.653518514707685" lon="12.192987659946084">
<ele>472</ele>
<time>2012-03-03T10:18:39Z</time>
<extensions>
<gpxtpx:TrackPointExtension>
<gpxtpx:hr>141</gpxtpx:hr>
<gpxtpx:atemp>5</gpxtpx:atemp>
</gpxtpx:TrackPointExtension>
</extensions>
</trkpt>
<trkpt lat="47.65384851023555" lon="12.192645343020558">
<ele>472</ele>
<time>2012-03-03T10:18:45Z</time>
<extensions>
<gpxtpx:TrackPointExtension>
<gpxtpx:hr>143</gpxtpx:hr>
<gpxtpx:atemp>6</gpxtpx:atemp>
</gpxtpx:TrackPointExtension>
</extensions>
</trkpt>
<trkpt lat="47.654170794412494" lon="12.192497570067644">
<ele>472</ele>
<time>2012-03-03T10:18:50Z</time>
<extensions>
<gpxtpx:TrackPointExtension>
<gpxtpx:hr>145</gpxtpx:hr>
<gpxtpx:atemp>6</gpxtpx:atemp>
</gpxtpx:TrackPointExtension>
</extensions>
</trkpt>
<trkpt lat="47.65461922623217" lon="12.19232389703393">
<ele>472</ele>
<time>2012-03-03T10:18:57Z</time>
<extensions>
<gpxtpx:TrackPointExtension>
<gpxtpx:hr>143</gpxtpx:hr>
<gpxtpx:atemp>6</gpxtpx:atemp>
</gpxtpx:TrackPointExtension>
</extensions>
</trkpt>
<trkpt lat="47.655176455155015" lon="12.192094065248966">
<ele>472</ele>
<time>2012-03-03T10:19:06Z</time>
<extensions>
<gpxtpx:TrackPointExtension>
<gpxtpx:hr>145</gpxtpx:hr>
<gpxtpx:atemp>6</gpxtpx:atemp>
</gpxtpx:TrackPointExtension>
</extensions>
</trkpt>
<trkpt lat="47.655746173113585" lon="12.191871274262667">
<ele>472</ele>
<time>2012-03-03T10:19:15Z</time>
<extensions>
<gpxtpx:TrackPointExtension>
<gpxtpx:hr>146</gpxtpx:hr>
<gpxtpx:atemp>6</gpxtpx:atemp>
</gpxtpx:TrackPointExtension>
</extensions>
</trkpt>
<trkpt lat="47.65586921945214" lon="12.191809331998229">
<ele>472</ele>
<time>2012-03-03T10:19:17Z</time>
<extensions>
<gpxtpx:TrackPointExtension>
<gpxtpx:hr>146</gpxtpx:hr>
<gpxtpx:atemp>6</gpxtpx:atemp>
</gpxtpx:TrackPointExtension>
</extensions>
</trkpt>
<trkpt lat="47.65599184669554" lon="12.191737834364176">
<ele>472</ele>
<time>2012-03-03T10:19:19Z</time>
<extensions>
<gpxtpx:TrackPointExtension>
<gpxtpx:hr>145</gpxtpx:hr>
<gpxtpx:atemp>6</gpxtpx:atemp>
</gpxtpx:TrackPointExtension>
</extensions>
</trkpt>
<trkpt lat="47.65621639788151" lon="12.191557455807924">
<ele>472</ele>
<time>2012-03-03T10:19:23Z</time>
<extensions>
<gpxtpx:TrackPointExtension>
<gpxtpx:hr>144</gpxtpx:hr>
<gpxtpx:atemp>6</gpxtpx:atemp>
</gpxtpx:TrackPointExtension>
</extensions>
</trkpt>
<trkpt lat="47.65663222409785" lon="12.191259227693081">
<ele>472</ele>
<time>2012-03-03T10:19:30Z</time>
<extensions>
<gpxtpx:TrackPointExtension>
<gpxtpx:hr>145</gpxtpx:hr>
<gpxtpx:atemp>6</gpxtpx:atemp>
</gpxtpx:TrackPointExtension>
</extensions>
</trkpt>
<trkpt lat="47.65682970173657" lon="12.191256545484066">
<ele>472</ele>
<time>2012-03-03T10:19:33Z</time>
<extensions>
<gpxtpx:TrackPointExtension>
<gpxtpx:hr>142</gpxtpx:hr>
<gpxtpx:atemp>6</gpxtpx:atemp>
</gpxtpx:TrackPointExtension>
</extensions>
</trkpt>
<trkpt lat="47.656895415857434" lon="12.191288145259023">
<ele>472</ele>
<time>2012-03-03T10:19:34Z</time>
<extensions>
<gpxtpx:TrackPointExtension>
<gpxtpx:hr>141</gpxtpx:hr>
<gpxtpx:atemp>6</gpxtpx:atemp>
</gpxtpx:TrackPointExtension>
</extensions>
</trkpt>
<trkpt lat="47.657042015343904" lon="12.191442791372538">
<ele>472</ele>
<time>2012-03-03T10:19:37Z</time>
<extensions>
<gpxtpx:TrackPointExtension>
<gpxtpx:hr>141</gpxtpx:hr>
<gpxtpx:atemp>6</gpxtpx:atemp>
</gpxtpx:TrackPointExtension>
</extensions>
</trkpt>
<trkpt lat="47.65719179995358" lon="12.19147271476686">
<ele>472</ele>
<time>2012-03-03T10:19:40Z</time>
<extensions>
<gpxtpx:TrackPointExtension>
<gpxtpx:hr>143</gpxtpx:hr>
<gpxtpx:atemp>6</gpxtpx:atemp>
</gpxtpx:TrackPointExtension>
</extensions>
</trkpt>
<trkpt lat="47.65724686905742" lon="12.191444551572204">
<ele>472</ele>
<time>2012-03-03T10:19:41Z</time>
<extensions>
<gpxtpx:TrackPointExtension>
<gpxtpx:hr>145</gpxtpx:hr>
<gpxtpx:atemp>6</gpxtpx:atemp>
</gpxtpx:TrackPointExtension>
</extensions>
</trkpt>
<trkpt lat="47.65734954737127" lon="12.191382106393576">
<ele>472</ele>
<time>2012-03-03T10:19:43Z</time>
<extensions>
<gpxtpx:TrackPointExtension>
<gpxtpx:hr>148</gpxtpx:hr>
<gpxtpx:atemp>6</gpxtpx:atemp>
</gpxtpx:TrackPointExtension>
</extensions>
</trkpt>
<trkpt lat="47.657399168238044" lon="12.191351931542158">
<ele>473</ele>
<time>2012-03-03T10:19:44Z</time>
<extensions>
<gpxtpx:TrackPointExtension>
<gpxtpx:hr>149</gpxtpx:hr>
<gpxtpx:atemp>6</gpxtpx:atemp>
</gpxtpx:TrackPointExtension>
</extensions>
</trkpt>
<trkpt lat="47.65744233503938" lon="12.19131731428206">
<ele>474</ele>
<time>2012-03-03T10:19:45Z</time>
<extensions>
<gpxtpx:TrackPointExtension>
<gpxtpx:hr>150</gpxtpx:hr>
<gpxtpx:atemp>6</gpxtpx:atemp>
</gpxtpx:TrackPointExtension>
</extensions>
</trkpt>
<trkpt lat="47.6574775390327" lon="12.191283032298088">
<ele>475</ele>
<time>2012-03-03T10:19:46Z</time>
<extensions>
<gpxtpx:TrackPointExtension>
<gpxtpx:hr>152</gpxtpx:hr>
<gpxtpx:atemp>6</gpxtpx:atemp>
</gpxtpx:TrackPointExtension>
</extensions>
</trkpt>
<trkpt lat="47.65750193037093" lon="12.191257635131478">
<ele>475</ele>
<time>2012-03-03T10:19:47Z</time>
<extensions>
<gpxtpx:TrackPointExtension>
<gpxtpx:hr>154</gpxtpx:hr>
<gpxtpx:atemp>6</gpxtpx:atemp>
</gpxtpx:TrackPointExtension>
</extensions>
</trkpt>
<trkpt lat="47.65751567669213" lon="12.191235087811947">
<ele>476</ele>
<time>2012-03-03T10:19:48Z</time>
<extensions>
<gpxtpx:TrackPointExtension>
<gpxtpx:hr>155</gpxtpx:hr>
<gpxtpx:atemp>6</gpxtpx:atemp>
</gpxtpx:TrackPointExtension>
</extensions>
</trkpt>
<trkpt lat="47.65751710161567" lon="12.19122452661395">
<ele>477</ele>
<time>2012-03-03T10:19:49Z</time>
<extensions>
<gpxtpx:TrackPointExtension>
<gpxtpx:hr>157</gpxtpx:hr>
<gpxtpx:atemp>6</gpxtpx:atemp>
</gpxtpx:TrackPointExtension>
</extensions>
</trkpt>
<trkpt lat="47.657516933977604" lon="12.191214468330145">
<ele>477</ele>
<time>2012-03-03T10:19:50Z</time>
<extensions>
<gpxtpx:TrackPointExtension>
<gpxtpx:hr>158</gpxtpx:hr>
<gpxtpx:atemp>6</gpxtpx:atemp>
</gpxtpx:TrackPointExtension>
</extensions>
</trkpt>
<trkpt lat="47.65753176994622" lon="12.191150011494756">
<ele>477</ele>
<time>2012-03-03T10:21:35Z</time>
<extensions>
<gpxtpx:TrackPointExtension>
<gpxtpx:hr>124</gpxtpx:hr>
<gpxtpx:atemp>6</gpxtpx:atemp>
</gpxtpx:TrackPointExtension>
</extensions>
</trkpt>
<trkpt lat="47.657554652541876" lon="12.19110868871212">
<ele>477</ele>
<time>2012-03-03T10:21:36Z</time>
<extensions>
<gpxtpx:TrackPointExtension>
<gpxtpx:hr>124</gpxtpx:hr>
<gpxtpx:atemp>6</gpxtpx:atemp>
</gpxtpx:TrackPointExtension>
</extensions>
</trkpt>
<trkpt lat="47.657650876790285" lon="12.19093811698258">
<ele>477</ele>
<time>2012-03-03T10:21:40Z</time>
<extensions>
<gpxtpx:TrackPointExtension>
<gpxtpx:hr>122</gpxtpx:hr>
<gpxtpx:atemp>6</gpxtpx:atemp>
</gpxtpx:TrackPointExtension>
</extensions>
</trkpt>
<trkpt lat="47.657714327797294" lon="12.190796881914139">
<ele>477</ele>
<time>2012-03-03T10:21:43Z</time>
<extensions>
<gpxtpx:TrackPointExtension>
<gpxtpx:hr>121</gpxtpx:hr>
<gpxtpx:atemp>6</gpxtpx:atemp>
</gpxtpx:TrackPointExtension>
</extensions>
</trkpt>
<trkpt lat="47.6577709056437" lon="12.190678026527166">
<ele>477</ele>
<time>2012-03-03T10:21:45Z</time>
<extensions>
<gpxtpx:TrackPointExtension>
<gpxtpx:hr>120</gpxtpx:hr>
<gpxtpx:atemp>6</gpxtpx:atemp>
</gpxtpx:TrackPointExtension>
</extensions>
</trkpt>
<trkpt lat="47.65796033665538" lon="12.190227415412664">
<ele>477</ele>
<time>2012-03-03T10:21:51Z</time>
<extensions>
<gpxtpx:TrackPointExtension>
<gpxtpx:hr>119</gpxtpx:hr>
<gpxtpx:atemp>6</gpxtpx:atemp>
</gpxtpx:TrackPointExtension>
</extensions>
</trkpt>
<trkpt lat="47.65803602524102" lon="12.18994033522904">
<ele>477</ele>
<time>2012-03-03T10:21:54Z</time>
<extensions>
<gpxtpx:TrackPointExtension>
<gpxtpx:hr>113</gpxtpx:hr>
<gpxtpx:atemp>6</gpxtpx:atemp>
</gpxtpx:TrackPointExtension>
</extensions>
</trkpt>
<trkpt lat="47.658042730763555" lon="12.189826760441065">
<ele>477</ele>
<time>2012-03-03T10:21:55Z</time>
<extensions>
<gpxtpx:TrackPointExtension>
<gpxtpx:hr>110</gpxtpx:hr>
<gpxtpx:atemp>6</gpxtpx:atemp>
</gpxtpx:TrackPointExtension>
</extensions>
</trkpt>
<trkpt lat="47.658055890351534" lon="12.189716789871454">
<ele>477</ele>
<time>2012-03-03T10:21:56Z</time>
<extensions>
<gpxtpx:TrackPointExtension>
<gpxtpx:hr>109</gpxtpx:hr>
<gpxtpx:atemp>6</gpxtpx:atemp>
</gpxtpx:TrackPointExtension>
</extensions>
</trkpt>
<trkpt lat="47.65811422839761" lon="12.189389141276479">
<ele>477</ele>
<time>2012-03-03T10:21:59Z</time>
<extensions>
<gpxtpx:TrackPointExtension>
<gpxtpx:hr>113</gpxtpx:hr>
<gpxtpx:atemp>6</gpxtpx:atemp>
</gpxtpx:TrackPointExtension>
</extensions>
</trkpt>
<trkpt lat="47.65813929028809" lon="12.189280176535249">
<ele>476</ele>
<time>2012-03-03T10:22:00Z</time>
<extensions>
<gpxtpx:TrackPointExtension>
<gpxtpx:hr>115</gpxtpx:hr>
<gpxtpx:atemp>6</gpxtpx:atemp>
</gpxtpx:TrackPointExtension>
</extensions>
</trkpt>
<trkpt lat="47.658163933083415" lon="12.189171127974987">
<ele>476</ele>
<time>2012-03-03T10:22:01Z</time>
<extensions>
<gpxtpx:TrackPointExtension>
<gpxtpx:hr>115</gpxtpx:hr>
<gpxtpx:atemp>6</gpxtpx:atemp>
</gpxtpx:TrackPointExtension>
</extensions>
</trkpt>
<trkpt lat="47.65819234773517" lon="12.189060151576996">
<ele>475</ele>
<time>2012-03-03T10:22:02Z</time>
<extensions>
<gpxtpx:TrackPointExtension>
<gpxtpx:hr>115</gpxtpx:hr>
<gpxtpx:atemp>6</gpxtpx:atemp>
</gpxtpx:TrackPointExtension>
</extensions>
</trkpt>
<trkpt lat="47.658222103491426" lon="12.188955210149288">
<ele>475</ele>
<time>2012-03-03T10:22:03Z</time>
<extensions>
<gpxtpx:TrackPointExtension>
<gpxtpx:hr>114</gpxtpx:hr>
<gpxtpx:atemp>6</gpxtpx:atemp>
</gpxtpx:TrackPointExtension>
</extensions>
</trkpt>
<trkpt lat="47.658252697438" lon="12.188849179074168">
<ele>474</ele>
<time>2012-03-03T10:22:04Z</time>
<extensions>
<gpxtpx:TrackPointExtension>
<gpxtpx:hr>113</gpxtpx:hr>
<gpxtpx:atemp>6</gpxtpx:atemp>
</gpxtpx:TrackPointExtension>
</extensions>
</trkpt>
<trkpt lat="47.65836853533983" lon="12.188434274867177">
<ele>474</ele>
<time>2012-03-03T10:22:08Z</time>
<extensions>
<gpxtpx:TrackPointExtension>
<gpxtpx:hr>114</gpxtpx:hr>
<gpxtpx:atemp>6</gpxtpx:atemp>
</gpxtpx:TrackPointExtension>
</extensions>
</trkpt>
<trkpt lat="47.658401392400265" lon="12.188330003991723">
<ele>474</ele>
<time>2012-03-03T10:22:09Z</time>
<extensions>
<gpxtpx:TrackPointExtension>
<gpxtpx:hr>115</gpxtpx:hr>
<gpxtpx:atemp>6</gpxtpx:atemp>
</gpxtpx:TrackPointExtension>
</extensions>
</trkpt>
<trkpt lat="47.6584342494607" lon="12.188232773914933">
<ele>473</ele>
<time>2012-03-03T10:22:10Z</time>
<extensions>
<gpxtpx:TrackPointExtension>
<gpxtpx:hr>117</gpxtpx:hr>
<gpxtpx:atemp>6</gpxtpx:atemp>
</gpxtpx:TrackPointExtension>
</extensions>
</trkpt>
<trkpt lat="47.65846752561629" lon="12.188135292381048">
<ele>473</ele>
<time>2012-03-03T10:22:11Z</time>
<extensions>
<gpxtpx:TrackPointExtension>
<gpxtpx:hr>118</gpxtpx:hr>
<gpxtpx:atemp>6</gpxtpx:atemp>
</gpxtpx:TrackPointExtension>
</extensions>
</trkpt>
<trkpt lat="47.658500047400594" lon="12.188037475571036">
<ele>472</ele>
<time>2012-03-03T10:22:12Z</time>
<extensions>
<gpxtpx:TrackPointExtension>
<gpxtpx:hr>119</gpxtpx:hr>
<gpxtpx:atemp>6</gpxtpx:atemp>
</gpxtpx:TrackPointExtension>
</extensions>
</trkpt>
<trkpt lat="47.658600211143494" lon="12.187770595774055">
<ele>472</ele>
<time>2012-03-03T10:22:15Z</time>
<extensions>
<gpxtpx:TrackPointExtension>
<gpxtpx:hr>118</gpxtpx:hr>
<gpxtpx:atemp>6</gpxtpx:atemp>
</gpxtpx:TrackPointExtension>
</extensions>
</trkpt>
<trkpt lat="47.65873247757554" lon="12.18753146007657">
<ele>472</ele>
<time>2012-03-03T10:22:18Z</time>
<extensions>
<gpxtpx:TrackPointExtension>
<gpxtpx:hr>119</gpxtpx:hr>
<gpxtpx:atemp>6</gpxtpx:atemp>
</gpxtpx:TrackPointExtension>
</extensions>
</trkpt>
<trkpt lat="47.6588364969939" lon="12.187404138967395">
<ele>472</ele>
<time>2012-03-03T10:22:20Z</time>
<extensions>
<gpxtpx:TrackPointExtension>
<gpxtpx:hr>120</gpxtpx:hr>
<gpxtpx:atemp>6</gpxtpx:atemp>
</gpxtpx:TrackPointExtension>
</extensions>
</trkpt>
<trkpt lat="47.65898737125099" lon="12.187213283032179">
<ele>472</ele>
<time>2012-03-03T10:22:23Z</time>
<extensions>
<gpxtpx:TrackPointExtension>
<gpxtpx:hr>123</gpxtpx:hr>
<gpxtpx:atemp>6</gpxtpx:atemp>
</gpxtpx:TrackPointExtension>
</extensions>
</trkpt>
<trkpt lat="47.659122152253985" lon="12.187029719352722">
<ele>472</ele>
<time>2012-03-03T10:22:26Z</time>
<extensions>
<gpxtpx:TrackPointExtension>
<gpxtpx:hr>123</gpxtpx:hr>
<gpxtpx:atemp>6</gpxtpx:atemp>
</gpxtpx:TrackPointExtension>
</extensions>
</trkpt>
<trkpt lat="47.6592752058059" lon="12.18678580597043">
<ele>472</ele>
<time>2012-03-03T10:22:30Z</time>
<extensions>
<gpxtpx:TrackPointExtension>
<gpxtpx:hr>125</gpxtpx:hr>
<gpxtpx:atemp>6</gpxtpx:atemp>
</gpxtpx:TrackPointExtension>
</extensions>
</trkpt>
<trkpt lat="47.65936288051307" lon="12.186683965846896">
<ele>472</ele>
<time>2012-03-03T10:22:32Z</time>
<extensions>
<gpxtpx:TrackPointExtension>
<gpxtpx:hr>128</gpxtpx:hr>
<gpxtpx:atemp>6</gpxtpx:atemp>
</gpxtpx:TrackPointExtension>
</extensions>
</trkpt>
<trkpt lat="47.659406466409564" lon="12.186620431020856">
<ele>472</ele>
<time>2012-03-03T10:22:33Z</time>
<extensions>
<gpxtpx:TrackPointExtension>
<gpxtpx:hr>129</gpxtpx:hr>
<gpxtpx:atemp>6</gpxtpx:atemp>
</gpxtpx:TrackPointExtension>
</extensions>
</trkpt>
<trkpt lat="47.659582486376166" lon="12.18636017292738">
<ele>472</ele>
<time>2012-03-03T10:22:37Z</time>
<extensions>
<gpxtpx:TrackPointExtension>
<gpxtpx:hr>131</gpxtpx:hr>
<gpxtpx:atemp>6</gpxtpx:atemp>
</gpxtpx:TrackPointExtension>
</extensions>
</trkpt>
<trkpt lat="47.65979429706931" lon="12.186206532642245">
<ele>472</ele>
<time>2012-03-03T10:22:41Z</time>
<extensions>
<gpxtpx:TrackPointExtension>
<gpxtpx:hr>133</gpxtpx:hr>
<gpxtpx:atemp>6</gpxtpx:atemp>
</gpxtpx:TrackPointExtension>
</extensions>
</trkpt>
<trkpt lat="47.65993704088032" lon="12.186109218746424">
<ele>472</ele>
<time>2012-03-03T10:22:44Z</time>
<extensions>
<gpxtpx:TrackPointExtension>
<gpxtpx:hr>135</gpxtpx:hr>
<gpxtpx:atemp>6</gpxtpx:atemp>
</gpxtpx:TrackPointExtension>
</extensions>
</trkpt>
<trkpt lat="47.660072576254606" lon="12.185993045568466">
<ele>472</ele>
<time>2012-03-03T10:22:47Z</time>
<extensions>
<gpxtpx:TrackPointExtension>
<gpxtpx:hr>137</gpxtpx:hr>
<gpxtpx:atemp>6</gpxtpx:atemp>
</gpxtpx:TrackPointExtension>
</extensions>
</trkpt>
<trkpt lat="47.66037616878748" lon="12.185737313702703">
<ele>472</ele>
<time>2012-03-03T10:22:54Z</time>
<extensions>
<gpxtpx:TrackPointExtension>
<gpxtpx:hr>140</gpxtpx:hr>
<gpxtpx:atemp>6</gpxtpx:atemp>
</gpxtpx:TrackPointExtension>
</extensions>
</trkpt>
<trkpt lat="47.66042411327362" lon="12.185710743069649">
<ele>473</ele>
<time>2012-03-03T10:22:55Z</time>
<extensions>
<gpxtpx:TrackPointExtension>
<gpxtpx:hr>140</gpxtpx:hr>
<gpxtpx:atemp>6</gpxtpx:atemp>
</gpxtpx:TrackPointExtension>
</extensions>
</trkpt>
<trkpt lat="47.660466777160764" lon="12.185688531026244">
<ele>473</ele>
<time>2012-03-03T10:22:56Z</time>
<extensions>
<gpxtpx:TrackPointExtension>
<gpxtpx:hr>141</gpxtpx:hr>
<gpxtpx:atemp>6</gpxtpx:atemp>
</gpxtpx:TrackPointExtension>
</extensions>
</trkpt>
<trkpt lat="47.66051011160016" lon="12.185667576268315">
<ele>474</ele>
<time>2012-03-03T10:22:57Z</time>
<extensions>
<gpxtpx:TrackPointExtension>
<gpxtpx:hr>142</gpxtpx:hr>
<gpxtpx:atemp>6</gpxtpx:atemp>
</gpxtpx:TrackPointExtension>
</extensions>
</trkpt>
<trkpt lat="47.660553278401494" lon="12.185643436387181">
<ele>474</ele>
<time>2012-03-03T10:22:58Z</time>
<extensions>
<gpxtpx:TrackPointExtension>
<gpxtpx:hr>142</gpxtpx:hr>
<gpxtpx:atemp>6</gpxtpx:atemp>
</gpxtpx:TrackPointExtension>
</extensions>
</trkpt>
<trkpt lat="47.66059946268797" lon="12.18562675639987">
<ele>475</ele>
<time>2012-03-03T10:22:59Z</time>
<extensions>
<gpxtpx:TrackPointExtension>
<gpxtpx:hr>143</gpxtpx:hr>
<gpxtpx:atemp>6</gpxtpx:atemp>
</gpxtpx:TrackPointExtension>
</extensions>
</trkpt>
<trkpt lat="47.66073876991868" lon="12.185564311221242">
<ele>475</ele>
<time>2012-03-03T10:23:02Z</time>
<extensions>
<gpxtpx:TrackPointExtension>
<gpxtpx:hr>146</gpxtpx:hr>
<gpxtpx:atemp>6</gpxtpx:atemp>
</gpxtpx:TrackPointExtension>
</extensions>
</trkpt>
<trkpt lat="47.660897774621844" lon="12.18550899066031">
<ele>475</ele>
<time>2012-03-03T10:23:05Z</time>
<extensions>
<gpxtpx:TrackPointExtension>
<gpxtpx:hr>149</gpxtpx:hr>
<gpxtpx:atemp>6</gpxtpx:atemp>
</gpxtpx:TrackPointExtension>
</extensions>
</trkpt>
<trkpt lat="47.660952005535364" lon="12.185485856607556">
<ele>475</ele>
<time>2012-03-03T10:23:06Z</time>
<extensions>
<gpxtpx:TrackPointExtension>
<gpxtpx:hr>149</gpxtpx:hr>
<gpxtpx:atemp>6</gpxtpx:atemp>
</gpxtpx:TrackPointExtension>
</extensions>
</trkpt>
<trkpt lat="47.661004811525345" lon="12.185460040345788">
<ele>476</ele>
<time>2012-03-03T10:23:07Z</time>
<extensions>
<gpxtpx:TrackPointExtension>
<gpxtpx:hr>150</gpxtpx:hr>
<gpxtpx:atemp>6</gpxtpx:atemp>
</gpxtpx:TrackPointExtension>
</extensions>
</trkpt>
<trkpt lat="47.661058623343706" lon="12.185438917949796">
<ele>476</ele>
<time>2012-03-03T10:23:08Z</time>
<extensions>
<gpxtpx:TrackPointExtension>
<gpxtpx:hr>150</gpxtpx:hr>
<gpxtpx:atemp>6</gpxtpx:atemp>
</gpxtpx:TrackPointExtension>
</extensions>
</trkpt>
<trkpt lat="47.66111394390464" lon="12.185418298467994">
<ele>477</ele>
<time>2012-03-03T10:23:09Z</time>
<extensions>
<gpxtpx:TrackPointExtension>
<gpxtpx:hr>151</gpxtpx:hr>
<gpxtpx:atemp>6</gpxtpx:atemp>
</gpxtpx:TrackPointExtension>
</extensions>
</trkpt>
<trkpt lat="47.66134360805154" lon="12.185333305969834">
<ele>477</ele>
<time>2012-03-03T10:23:13Z</time>
<extensions>
<gpxtpx:TrackPointExtension>
<gpxtpx:hr>153</gpxtpx:hr>
<gpxtpx:atemp>6</gpxtpx:atemp>
</gpxtpx:TrackPointExtension>
</extensions>
</trkpt>
<trkpt lat="47.6618136651814" lon="12.185281170532107">
<ele>477</ele>
<time>2012-03-03T10:23:20Z</time>
<extensions>
<gpxtpx:TrackPointExtension>
<gpxtpx:hr>154</gpxtpx:hr>
<gpxtpx:atemp>6</gpxtpx:atemp>
</gpxtpx:TrackPointExtension>
</extensions>
</trkpt>
<trkpt lat="47.66204684972763" lon="12.185362307354808">
<ele>477</ele>
<time>2012-03-03T10:23:24Z</time>
<extensions>
<gpxtpx:TrackPointExtension>
<gpxtpx:hr>153</gpxtpx:hr>
<gpxtpx:atemp>6</gpxtpx:atemp>
</gpxtpx:TrackPointExtension>
</extensions>
</trkpt>
<trkpt lat="47.66224944032729" lon="12.185389045625925">
<ele>477</ele>
<time>2012-03-03T10:23:28Z</time>
<extensions>
<gpxtpx:TrackPointExtension>
<gpxtpx:hr>152</gpxtpx:hr>
<gpxtpx:atemp>6</gpxtpx:atemp>
</gpxtpx:TrackPointExtension>
</extensions>
</trkpt>
<trkpt lat="47.66253643669188" lon="12.185378149151802">
<ele>477</ele>
<time>2012-03-03T10:23:33Z</time>
<extensions>
<gpxtpx:TrackPointExtension>
<gpxtpx:hr>152</gpxtpx:hr>
<gpxtpx:atemp>6</gpxtpx:atemp>
</gpxtpx:TrackPointExtension>
</extensions>
</trkpt>
<trkpt lat="47.66259636729956" lon="12.18538586050272">
<ele>477</ele>
<time>2012-03-03T10:23:34Z</time>
<extensions>
<gpxtpx:TrackPointExtension>
<gpxtpx:hr>152</gpxtpx:hr>
<gpxtpx:atemp>6</gpxtpx:atemp>
</gpxtpx:TrackPointExtension>
</extensions>
</trkpt>
<trkpt lat="47.66295628622174" lon="12.185417711734772">
<ele>477</ele>
<time>2012-03-03T10:23:40Z</time>
<extensions>
<gpxtpx:TrackPointExtension>
<gpxtpx:hr>151</gpxtpx:hr>
<gpxtpx:atemp>6</gpxtpx:atemp>
</gpxtpx:TrackPointExtension>
</extensions>
</trkpt>
<trkpt lat="47.66328644938767" lon="12.185494406148791">
<ele>477</ele>
<time>2012-03-03T10:23:45Z</time>
<extensions>
<gpxtpx:TrackPointExtension>
<gpxtpx:hr>148</gpxtpx:hr>
<gpxtpx:atemp>6</gpxtpx:atemp>
</gpxtpx:TrackPointExtension>
</extensions>
</trkpt>
<trkpt lat="47.66341159120202" lon="12.185536231845617">
<ele>476</ele>
<time>2012-03-03T10:23:47Z</time>
<extensions>
<gpxtpx:TrackPointExtension>
<gpxtpx:hr>147</gpxtpx:hr>
<gpxtpx:atemp>6</gpxtpx:atemp>
</gpxtpx:TrackPointExtension>
</extensions>
</trkpt>
<trkpt lat="47.663477221503854" lon="12.185549810528755">
<ele>476</ele>
<time>2012-03-03T10:23:48Z</time>
<extensions>
<gpxtpx:TrackPointExtension>
<gpxtpx:hr>147</gpxtpx:hr>
<gpxtpx:atemp>6</gpxtpx:atemp>
</gpxtpx:TrackPointExtension>
</extensions>
</trkpt>
<trkpt lat="47.6635473780334" lon="12.185557438060641">
<ele>475</ele>
<time>2012-03-03T10:23:49Z</time>
<extensions>
<gpxtpx:TrackPointExtension>
<gpxtpx:hr>146</gpxtpx:hr>
<gpxtpx:atemp>6</gpxtpx:atemp>
</gpxtpx:TrackPointExtension>
</extensions>
</trkpt>
<trkpt lat="47.66361644491553" lon="12.185553833842278">
<ele>475</ele>
<time>2012-03-03T10:23:50Z</time>
<extensions>
<gpxtpx:TrackPointExtension>
<gpxtpx:hr>145</gpxtpx:hr>
<gpxtpx:atemp>6</gpxtpx:atemp>
</gpxtpx:TrackPointExtension>
</extensions>
</trkpt>
<trkpt lat="47.66368509270251" lon="12.185543859377503">
<ele>475</ele>
<time>2012-03-03T10:23:51Z</time>
<extensions>
<gpxtpx:TrackPointExtension>
<gpxtpx:hr>144</gpxtpx:hr>
<gpxtpx:atemp>6</gpxtpx:atemp>
</gpxtpx:TrackPointExtension>
</extensions>
</trkpt>
<trkpt lat="47.66398315317929" lon="12.185469008982182">
<ele>475</ele>
<time>2012-03-03T10:23:55Z</time>
<extensions>
<gpxtpx:TrackPointExtension>
<gpxtpx:hr>141</gpxtpx:hr>
<gpxtpx:atemp>6</gpxtpx:atemp>
</gpxtpx:TrackPointExtension>
</extensions>
</trkpt>
<trkpt lat="47.664064541459084" lon="12.185452412813902">
<ele>474</ele>
<time>2012-03-03T10:23:56Z</time>
<extensions>
<gpxtpx:TrackPointExtension>
<gpxtpx:hr>141</gpxtpx:hr>
<gpxtpx:atemp>6</gpxtpx:atemp>
</gpxtpx:TrackPointExtension>
</extensions>
</trkpt>
<trkpt lat="47.66414207406342" lon="12.185440678149462">
<ele>474</ele>
<time>2012-03-03T10:23:57Z</time>
<extensions>
<gpxtpx:TrackPointExtension>
<gpxtpx:hr>141</gpxtpx:hr>
<gpxtpx:atemp>6</gpxtpx:atemp>
</gpxtpx:TrackPointExtension>
</extensions>
</trkpt>
<trkpt lat="47.66421935521066" lon="12.185426680371165">
<ele>473</ele>
<time>2012-03-03T10:23:58Z</time>
<extensions>
<gpxtpx:TrackPointExtension>
<gpxtpx:hr>140</gpxtpx:hr>
<gpxtpx:atemp>6</gpxtpx:atemp>
</gpxtpx:TrackPointExtension>
</extensions>
</trkpt>
<trkpt lat="47.66429705545306" lon="12.185408407822251">
<ele>473</ele>
<time>2012-03-03T10:23:59Z</time>
<extensions>
<gpxtpx:TrackPointExtension>
<gpxtpx:hr>139</gpxtpx:hr>
<gpxtpx:atemp>6</gpxtpx:atemp>
</gpxtpx:TrackPointExtension>
</extensions>
</trkpt>
<trkpt lat="47.66437232494354" lon="12.185390386730433">
<ele>473</ele>
<time>2012-03-03T10:24:00Z</time>
<extensions>
<gpxtpx:TrackPointExtension>
<gpxtpx:hr>137</gpxtpx:hr>
<gpxtpx:atemp>6</gpxtpx:atemp>
</gpxtpx:TrackPointExtension>
</extensions>
</trkpt>
<trkpt lat="47.66451733186841" lon="12.185346717014909">
<ele>473</ele>
<time>2012-03-03T10:24:02Z</time>
<extensions>
<gpxtpx:TrackPointExtension>
<gpxtpx:hr>129</gpxtpx:hr>
<gpxtpx:atemp>6</gpxtpx:atemp>
</gpxtpx:TrackPointExtension>
</extensions>
</trkpt>
<trkpt lat="47.664650939404964" lon="12.185278572142124">
<ele>473</ele>
<time>2012-03-03T10:24:04Z</time>
<extensions>
<gpxtpx:TrackPointExtension>
<gpxtpx:hr>126</gpxtpx:hr>
<gpxtpx:atemp>6</gpxtpx:atemp>
</gpxtpx:TrackPointExtension>
</extensions>
</trkpt>
<trkpt lat="47.66481497325003" lon="12.185146640986204">
<ele>473</ele>
<time>2012-03-03T10:24:07Z</time>
<extensions>
<gpxtpx:TrackPointExtension>
<gpxtpx:hr>125</gpxtpx:hr>
<gpxtpx:atemp>6</gpxtpx:atemp>
</gpxtpx:TrackPointExtension>
</extensions>
</trkpt>
<trkpt lat="47.6649753190577" lon="12.184879258275032">
<ele>473</ele>
<time>2012-03-03T10:24:11Z</time>
<extensions>
<gpxtpx:TrackPointExtension>
<gpxtpx:hr>128</gpxtpx:hr>
<gpxtpx:atemp>6</gpxtpx:atemp>
</gpxtpx:TrackPointExtension>
</extensions>
</trkpt>
<trkpt lat="47.66500532627106" lon="12.184809856116772">
<ele>473</ele>
<time>2012-03-03T10:24:12Z</time>
<extensions>
<gpxtpx:TrackPointExtension>
<gpxtpx:hr>128</gpxtpx:hr>
<gpxtpx:atemp>6</gpxtpx:atemp>
</gpxtpx:TrackPointExtension>
</extensions>
</trkpt>
<trkpt lat="47.66507154330611" lon="12.184691168367863">
<ele>472</ele>
<time>2012-03-03T10:24:14Z</time>
<extensions>
<gpxtpx:TrackPointExtension>
<gpxtpx:hr>126</gpxtpx:hr>
<gpxtpx:atemp>6</gpxtpx:atemp>
</gpxtpx:TrackPointExtension>
</extensions>
</trkpt>
<trkpt lat="47.66511362046003" lon="12.184648672118783">
<ele>472</ele>
<time>2012-03-03T10:24:15Z</time>
<extensions>
<gpxtpx:TrackPointExtension>
<gpxtpx:hr>125</gpxtpx:hr>
<gpxtpx:atemp>6</gpxtpx:atemp>
</gpxtpx:TrackPointExtension>
</extensions>
</trkpt>
<trkpt lat="47.665166007354856" lon="12.184625705704093">
<ele>471</ele>
<time>2012-03-03T10:24:16Z</time>
<extensions>
<gpxtpx:TrackPointExtension>
<gpxtpx:hr>125</gpxtpx:hr>
<gpxtpx:atemp>6</gpxtpx:atemp>
</gpxtpx:TrackPointExtension>
</extensions>
</trkpt>
<trkpt lat="47.665229542180896" lon="12.184609109535813">
<ele>470</ele>
<time>2012-03-03T10:24:17Z</time>
<extensions>
<gpxtpx:TrackPointExtension>
<gpxtpx:hr>126</gpxtpx:hr>
<gpxtpx:atemp>6</gpxtpx:atemp>
</gpxtpx:TrackPointExtension>
</extensions>
</trkpt>
<trkpt lat="47.66529131680727" lon="12.184595195576549">
<ele>470</ele>
<time>2012-03-03T10:24:18Z</time>
<extensions>
<gpxtpx:TrackPointExtension>
<gpxtpx:hr>127</gpxtpx:hr>
<gpxtpx:atemp>6</gpxtpx:atemp>
</gpxtpx:TrackPointExtension>
</extensions>
</trkpt>
<trkpt lat="47.66540807671845" lon="12.184570468962193">
<ele>470</ele>
<time>2012-03-03T10:24:20Z</time>
<extensions>
<gpxtpx:TrackPointExtension>
<gpxtpx:hr>131</gpxtpx:hr>
<gpxtpx:atemp>6</gpxtpx:atemp>
</gpxtpx:TrackPointExtension>
</extensions>
</trkpt>
<trkpt lat="47.6654607988894" lon="12.184555632993579">
<ele>470</ele>
<time>2012-03-03T10:24:21Z</time>
<extensions>
<gpxtpx:TrackPointExtension>
<gpxtpx:hr>132</gpxtpx:hr>
<gpxtpx:atemp>6</gpxtpx:atemp>
</gpxtpx:TrackPointExtension>
</extensions>
</trkpt>
<trkpt lat="47.66563572920859" lon="12.184510035440326">
<ele>470</ele>
<time>2012-03-03T10:24:24Z</time>
<extensions>
<gpxtpx:TrackPointExtension>
<gpxtpx:hr>135</gpxtpx:hr>
<gpxtpx:atemp>6</gpxtpx:atemp>
</gpxtpx:TrackPointExtension>
</extensions>
</trkpt>
<trkpt lat="47.665866231545806" lon="12.184443483129144">
<ele>470</ele>
<time>2012-03-03T10:24:28Z</time>
<extensions>
<gpxtpx:TrackPointExtension>
<gpxtpx:hr>137</gpxtpx:hr>
<gpxtpx:atemp>6</gpxtpx:atemp>
</gpxtpx:TrackPointExtension>
</extensions>
</trkpt>
<trkpt lat="47.66623109579086" lon="12.184368968009949">
<ele>470</ele>
<time>2012-03-03T10:24:34Z</time>
<extensions>
<gpxtpx:TrackPointExtension>
<gpxtpx:hr>137</gpxtpx:hr>
<gpxtpx:atemp>6</gpxtpx:atemp>
</gpxtpx:TrackPointExtension>
</extensions>
</trkpt>
<trkpt lat="47.66635548323393" lon="12.184369470924139">
<ele>470</ele>
<time>2012-03-03T10:24:36Z</time>
<extensions>
<gpxtpx:TrackPointExtension>
<gpxtpx:hr>135</gpxtpx:hr>
<gpxtpx:atemp>6</gpxtpx:atemp>
</gpxtpx:TrackPointExtension>
</extensions>
</trkpt>
<trkpt lat="47.666597636416554" lon="12.184420097619295">
<ele>470</ele>
<time>2012-03-03T10:24:40Z</time>
<extensions>
<gpxtpx:TrackPointExtension>
<gpxtpx:hr>135</gpxtpx:hr>
<gpxtpx:atemp>6</gpxtpx:atemp>
</gpxtpx:TrackPointExtension>
</extensions>
</trkpt>
<trkpt lat="47.66702779568732" lon="12.184490254148841">
<ele>470</ele>
<time>2012-03-03T10:24:47Z</time>
<extensions>
<gpxtpx:TrackPointExtension>
<gpxtpx:hr>136</gpxtpx:hr>
<gpxtpx:atemp>6</gpxtpx:atemp>
</gpxtpx:TrackPointExtension>
</extensions>
</trkpt>
<trkpt lat="47.6673723757267" lon="12.18455906957388">
<ele>470</ele>
<time>2012-03-03T10:24:53Z</time>
<extensions>
<gpxtpx:TrackPointExtension>
<gpxtpx:hr>139</gpxtpx:hr>
<gpxtpx:atemp>6</gpxtpx:atemp>
</gpxtpx:TrackPointExtension>
</extensions>
</trkpt>
<trkpt lat="47.66746859997511" lon="12.18457960523665">
<ele>470</ele>
<time>2012-03-03T10:24:55Z</time>
<extensions>
<gpxtpx:TrackPointExtension>
<gpxtpx:hr>138</gpxtpx:hr>
<gpxtpx:atemp>6</gpxtpx:atemp>
</gpxtpx:TrackPointExtension>
</extensions>
</trkpt>
<trkpt lat="47.66779398545623" lon="12.184677086770535">
<ele>470</ele>
<time>2012-03-03T10:25:01Z</time>
<extensions>
<gpxtpx:TrackPointExtension>
<gpxtpx:hr>136</gpxtpx:hr>
<gpxtpx:atemp>6</gpxtpx:atemp>
</gpxtpx:TrackPointExtension>
</extensions>
</trkpt>
<trkpt lat="47.66789473593235" lon="12.184701981022954">
<ele>470</ele>
<time>2012-03-03T10:25:03Z</time>
<extensions>
<gpxtpx:TrackPointExtension>
<gpxtpx:hr>137</gpxtpx:hr>
<gpxtpx:atemp>6</gpxtpx:atemp>
</gpxtpx:TrackPointExtension>
</extensions>
</trkpt>
<trkpt lat="47.66795424744487" lon="12.184713715687394">
<ele>470</ele>
<time>2012-03-03T10:25:04Z</time>
<extensions>
<gpxtpx:TrackPointExtension>
<gpxtpx:hr>137</gpxtpx:hr>
<gpxtpx:atemp>6</gpxtpx:atemp>
</gpxtpx:TrackPointExtension>
</extensions>
</trkpt>
<trkpt lat="47.66802482306957" lon="12.184730479493737">
<ele>470</ele>
<time>2012-03-03T10:25:05Z</time>
<extensions>
<gpxtpx:TrackPointExtension>
<gpxtpx:hr>138</gpxtpx:hr>
<gpxtpx:atemp>6</gpxtpx:atemp>
</gpxtpx:TrackPointExtension>
</extensions>
</trkpt>
<trkpt lat="47.668088441714644" lon="12.184746321290731">
<ele>469</ele>
<time>2012-03-03T10:25:06Z</time>
<extensions>
<gpxtpx:TrackPointExtension>
<gpxtpx:hr>139</gpxtpx:hr>
<gpxtpx:atemp>6</gpxtpx:atemp>
</gpxtpx:TrackPointExtension>
</extensions>
</trkpt>
<trkpt lat="47.66814745031297" lon="12.18476627022028">
<ele>468</ele>
<time>2012-03-03T10:25:07Z</time>
<extensions>
<gpxtpx:TrackPointExtension>
<gpxtpx:hr>140</gpxtpx:hr>
<gpxtpx:atemp>6</gpxtpx:atemp>
</gpxtpx:TrackPointExtension>
</extensions>
</trkpt>
<trkpt lat="47.66830972395837" lon="12.18481756746769">
<ele>468</ele>
<time>2012-03-03T10:25:10Z</time>
<extensions>
<gpxtpx:TrackPointExtension>
<gpxtpx:hr>141</gpxtpx:hr>
<gpxtpx:atemp>6</gpxtpx:atemp>
</gpxtpx:TrackPointExtension>
</extensions>
</trkpt>
<trkpt lat="47.66836269758642" lon="12.184823099523783">
<ele>468</ele>
<time>2012-03-03T10:25:11Z</time>
<extensions>
<gpxtpx:TrackPointExtension>
<gpxtpx:hr>142</gpxtpx:hr>
<gpxtpx:atemp>6</gpxtpx:atemp>
</gpxtpx:TrackPointExtension>
</extensions>
</trkpt>
<trkpt lat="47.66847082413733" lon="12.184767611324787">
<ele>468</ele>
<time>2012-03-03T10:25:13Z</time>
<extensions>
<gpxtpx:TrackPointExtension>
<gpxtpx:hr>143</gpxtpx:hr>
<gpxtpx:atemp>6</gpxtpx:atemp>
</gpxtpx:TrackPointExtension>
</extensions>
</trkpt>
<trkpt lat="47.66856126487255" lon="12.18465487472713">
<ele>468</ele>
<time>2012-03-03T10:25:15Z</time>
<extensions>
<gpxtpx:TrackPointExtension>
<gpxtpx:hr>143</gpxtpx:hr>
<gpxtpx:atemp>6</gpxtpx:atemp>
</gpxtpx:TrackPointExtension>
</extensions>
</trkpt>
<trkpt lat="47.66869663260877" lon="12.184494528919458">
<ele>468</ele>
<time>2012-03-03T10:25:18Z</time>
<extensions>
<gpxtpx:TrackPointExtension>
<gpxtpx:hr>142</gpxtpx:hr>
<gpxtpx:atemp>6</gpxtpx:atemp>
</gpxtpx:TrackPointExtension>
</extensions>
</trkpt>
<trkpt lat="47.66893258318305" lon="12.184232091531157">
<ele>468</ele>
<time>2012-03-03T10:25:23Z</time>
<extensions>
<gpxtpx:TrackPointExtension>
<gpxtpx:hr>141</gpxtpx:hr>
<gpxtpx:atemp>6</gpxtpx:atemp>
</gpxtpx:TrackPointExtension>
</extensions>
</trkpt>
<trkpt lat="47.66898740082979" lon="12.184194708243012">
<ele>468</ele>
<time>2012-03-03T10:25:24Z</time>
<extensions>
<gpxtpx:TrackPointExtension>
<gpxtpx:hr>140</gpxtpx:hr>
<gpxtpx:atemp>6</gpxtpx:atemp>
</gpxtpx:TrackPointExtension>
</extensions>
</trkpt>
<trkpt lat="47.6692789234221" lon="12.184000164270401">
<ele>468</ele>
<time>2012-03-03T10:25:29Z</time>
<extensions>
<gpxtpx:TrackPointExtension>
<gpxtpx:hr>139</gpxtpx:hr>
<gpxtpx:atemp>6</gpxtpx:atemp>
</gpxtpx:TrackPointExtension>
</extensions>
</trkpt>
<trkpt lat="47.669330555945635" lon="12.18395171687007">
<ele>468</ele>
<time>2012-03-03T10:25:30Z</time>
<extensions>
<gpxtpx:TrackPointExtension>
<gpxtpx:hr>139</gpxtpx:hr>
<gpxtpx:atemp>6</gpxtpx:atemp>
</gpxtpx:TrackPointExtension>
</extensions>
</trkpt>
<trkpt lat="47.6697467174381" lon="12.183545362204313">
<ele>468</ele>
<time>2012-03-03T10:25:38Z</time>
<extensions>
<gpxtpx:TrackPointExtension>
<gpxtpx:hr>138</gpxtpx:hr>
<gpxtpx:atemp>6</gpxtpx:atemp>
</gpxtpx:TrackPointExtension>
</extensions>
</trkpt>
<trkpt lat="47.670193053781986" lon="12.183069018647075">
<ele>468</ele>
<time>2012-03-03T10:25:47Z</time>
<extensions>
<gpxtpx:TrackPointExtension>
<gpxtpx:hr>138</gpxtpx:hr>
<gpxtpx:atemp>6</gpxtpx:atemp>
</gpxtpx:TrackPointExtension>
</extensions>
</trkpt>
<trkpt lat="47.670622458681464" lon="12.182534169405699">
<ele>468</ele>
<time>2012-03-03T10:25:56Z</time>
<extensions>
<gpxtpx:TrackPointExtension>
<gpxtpx:hr>138</gpxtpx:hr>
<gpxtpx:atemp>6</gpxtpx:atemp>
</gpxtpx:TrackPointExtension>
</extensions>
</trkpt>
<trkpt lat="47.670717258006334" lon="12.182406429201365">
<ele>468</ele>
<time>2012-03-03T10:25:58Z</time>
<extensions>
<gpxtpx:TrackPointExtension>
<gpxtpx:hr>138</gpxtpx:hr>
<gpxtpx:atemp>6</gpxtpx:atemp>
</gpxtpx:TrackPointExtension>
</extensions>
</trkpt>
<trkpt lat="47.671046080067754" lon="12.181963445618749">
<ele>468</ele>
<time>2012-03-03T10:26:05Z</time>
<extensions>
<gpxtpx:TrackPointExtension>
<gpxtpx:hr>139</gpxtpx:hr>
<gpxtpx:atemp>6</gpxtpx:atemp>
</gpxtpx:TrackPointExtension>
</extensions>
</trkpt>
<trkpt lat="47.671477580443025" lon="12.181459525600076">
<ele>468</ele>
<time>2012-03-03T10:26:14Z</time>
<extensions>
<gpxtpx:TrackPointExtension>
<gpxtpx:hr>137</gpxtpx:hr>
<gpxtpx:atemp>6</gpxtpx:atemp>
</gpxtpx:TrackPointExtension>
</extensions>
</trkpt>
<trkpt lat="47.6715219207108" lon="12.18140353448689">
<ele>468</ele>
<time>2012-03-03T10:26:15Z</time>
<extensions>
<gpxtpx:TrackPointExtension>
<gpxtpx:hr>136</gpxtpx:hr>
<gpxtpx:atemp>6</gpxtpx:atemp>
</gpxtpx:TrackPointExtension>
</extensions>
</trkpt>
<trkpt lat="47.67175007611513" lon="12.181110167875886">
<ele>468</ele>
<time>2012-03-03T10:26:20Z</time>
<extensions>
<gpxtpx:TrackPointExtension>
<gpxtpx:hr>137</gpxtpx:hr>
<gpxtpx:atemp>6</gpxtpx:atemp>
</gpxtpx:TrackPointExtension>
</extensions>
</trkpt>
<trkpt lat="47.67189214937389" lon="12.18094814568758">
<ele>468</ele>
<time>2012-03-03T10:26:23Z</time>
<extensions>
<gpxtpx:TrackPointExtension>
<gpxtpx:hr>136</gpxtpx:hr>
<gpxtpx:atemp>6</gpxtpx:atemp>
</gpxtpx:TrackPointExtension>
</extensions>
</trkpt>
<trkpt lat="47.67224108800292" lon="12.180507509037852">
<ele>468</ele>
<time>2012-03-03T10:26:31Z</time>
<extensions>
<gpxtpx:TrackPointExtension>
<gpxtpx:hr>133</gpxtpx:hr>
<gpxtpx:atemp>6</gpxtpx:atemp>
</gpxtpx:TrackPointExtension>
</extensions>
</trkpt>
<trkpt lat="47.6725114043802" lon="12.180153792724013">
<ele>468</ele>
<time>2012-03-03T10:26:37Z</time>
<extensions>
<gpxtpx:TrackPointExtension>
<gpxtpx:hr>135</gpxtpx:hr>
<gpxtpx:atemp>6</gpxtpx:atemp>
</gpxtpx:TrackPointExtension>
</extensions>
</trkpt>
<trkpt lat="47.67291381955147" lon="12.179634785279632">
<ele>468</ele>
<time>2012-03-03T10:26:46Z</time>
<extensions>
<gpxtpx:TrackPointExtension>
<gpxtpx:hr>133</gpxtpx:hr>
<gpxtpx:atemp>7</gpxtpx:atemp>
</gpxtpx:TrackPointExtension>
</extensions>
</trkpt>
<trkpt lat="47.6732281409204" lon="12.1792530734092">
<ele>468</ele>
<time>2012-03-03T10:26:53Z</time>
<extensions>
<gpxtpx:TrackPointExtension>
<gpxtpx:hr>134</gpxtpx:hr>
<gpxtpx:atemp>7</gpxtpx:atemp>
</gpxtpx:TrackPointExtension>
</extensions>
</trkpt>
<trkpt lat="47.673530811443925" lon="12.178853759542108">
<ele>468</ele>
<time>2012-03-03T10:27:00Z</time>
<extensions>
<gpxtpx:TrackPointExtension>
<gpxtpx:hr>136</gpxtpx:hr>
<gpxtpx:atemp>7</gpxtpx:atemp>
</gpxtpx:TrackPointExtension>
</extensions>
</trkpt>
<trkpt lat="47.67378067597747" lon="12.178500797599554">
<ele>468</ele>
<time>2012-03-03T10:27:06Z</time>
<extensions>
<gpxtpx:TrackPointExtension>
<gpxtpx:hr>134</gpxtpx:hr>
<gpxtpx:atemp>7</gpxtpx:atemp>
</gpxtpx:TrackPointExtension>
</extensions>
</trkpt>
<trkpt lat="47.673821579664946" lon="12.178463749587536">
<ele>468</ele>
<time>2012-03-03T10:27:07Z</time>
<extensions>
<gpxtpx:TrackPointExtension>
<gpxtpx:hr>135</gpxtpx:hr>
<gpxtpx:atemp>7</gpxtpx:atemp>
</gpxtpx:TrackPointExtension>
</extensions>
</trkpt>
<trkpt lat="47.67397756688297" lon="12.178295189514756">
<ele>468</ele>
<time>2012-03-03T10:27:12Z</time>
<extensions>
<gpxtpx:TrackPointExtension>
<gpxtpx:hr>135</gpxtpx:hr>
<gpxtpx:atemp>7</gpxtpx:atemp>
</gpxtpx:TrackPointExtension>
</extensions>
</trkpt>
<trkpt lat="47.67394890077412" lon="12.1781409624964">
<ele>468</ele>
<time>2012-03-03T10:27:15Z</time>
<extensions>
<gpxtpx:TrackPointExtension>
<gpxtpx:hr>136</gpxtpx:hr>
<gpxtpx:atemp>7</gpxtpx:atemp>
</gpxtpx:TrackPointExtension>
</extensions>
</trkpt>
<trkpt lat="47.67393565736711" lon="12.178072649985552">
<ele>468</ele>
<time>2012-03-03T10:27:16Z</time>
<extensions>
<gpxtpx:TrackPointExtension>
<gpxtpx:hr>137</gpxtpx:hr>
<gpxtpx:atemp>7</gpxtpx:atemp>
</gpxtpx:TrackPointExtension>
</extensions>
</trkpt>
<trkpt lat="47.67392719164491" lon="12.178003834560513">
<ele>468</ele>
<time>2012-03-03T10:27:17Z</time>
<extensions>
<gpxtpx:TrackPointExtension>
<gpxtpx:hr>138</gpxtpx:hr>
<gpxtpx:atemp>7</gpxtpx:atemp>
</gpxtpx:TrackPointExtension>
</extensions>
</trkpt>
<trkpt lat="47.673902129754424" lon="12.177791520953178">
<ele>468</ele>
<time>2012-03-03T10:27:20Z</time>
<extensions>
<gpxtpx:TrackPointExtension>
<gpxtpx:hr>139</gpxtpx:hr>
<gpxtpx:atemp>7</gpxtpx:atemp>
</gpxtpx:TrackPointExtension>
</extensions>
</trkpt>
<trkpt lat="47.67388494685292" lon="12.177481558173895">
<ele>468</ele>
<time>2012-03-03T10:27:24Z</time>
<extensions>
<gpxtpx:TrackPointExtension>
<gpxtpx:hr>142</gpxtpx:hr>
<gpxtpx:atemp>7</gpxtpx:atemp>
</gpxtpx:TrackPointExtension>
</extensions>
</trkpt>
<trkpt lat="47.673886036500335" lon="12.177248038351536">
<ele>468</ele>
<time>2012-03-03T10:27:27Z</time>
<extensions>
<gpxtpx:TrackPointExtension>
<gpxtpx:hr>143</gpxtpx:hr>
<gpxtpx:atemp>7</gpxtpx:atemp>
</gpxtpx:TrackPointExtension>
</extensions>
</trkpt>
<trkpt lat="47.67394730821252" lon="12.176604894921184">
<ele>468</ele>
<time>2012-03-03T10:27:35Z</time>
<extensions>
<gpxtpx:TrackPointExtension>
<gpxtpx:hr>145</gpxtpx:hr>
<gpxtpx:atemp>7</gpxtpx:atemp>
</gpxtpx:TrackPointExtension>
</extensions>
</trkpt>
<trkpt lat="47.67399734817445" lon="12.17627733014524">
<ele>468</ele>
<time>2012-03-03T10:27:39Z</time>
<extensions>
<gpxtpx:TrackPointExtension>
<gpxtpx:hr>146</gpxtpx:hr>
<gpxtpx:atemp>7</gpxtpx:atemp>
</gpxtpx:TrackPointExtension>
</extensions>
</trkpt>
<trkpt lat="47.67402509227395" lon="12.176114888861775">
<ele>468</ele>
<time>2012-03-03T10:27:41Z</time>
<extensions>
<gpxtpx:TrackPointExtension>
<gpxtpx:hr>146</gpxtpx:hr>
<gpxtpx:atemp>7</gpxtpx:atemp>
</gpxtpx:TrackPointExtension>
</extensions>
</trkpt>
<trkpt lat="47.67415291629732" lon="12.175622871145606">
<ele>468</ele>
<time>2012-03-03T10:27:47Z</time>
<extensions>
<gpxtpx:TrackPointExtension>
<gpxtpx:hr>148</gpxtpx:hr>
<gpxtpx:atemp>7</gpxtpx:atemp>
</gpxtpx:TrackPointExtension>
</extensions>
</trkpt>
<trkpt lat="47.67418392933905" lon="12.175554223358631">
<ele>468</ele>
<time>2012-03-03T10:27:48Z</time>
<extensions>
<gpxtpx:TrackPointExtension>
<gpxtpx:hr>149</gpxtpx:hr>
<gpxtpx:atemp>7</gpxtpx:atemp>
</gpxtpx:TrackPointExtension>
</extensions>
</trkpt>
<trkpt lat="47.6742192171514" lon="12.17549110762775">
<ele>468</ele>
<time>2012-03-03T10:27:49Z</time>
<extensions>
<gpxtpx:TrackPointExtension>
<gpxtpx:hr>149</gpxtpx:hr>
<gpxtpx:atemp>7</gpxtpx:atemp>
</gpxtpx:TrackPointExtension>
</extensions>
</trkpt>
<trkpt lat="47.674332708120346" lon="12.17530989088118">
<ele>468</ele>
<time>2012-03-03T10:27:52Z</time>
<extensions>
<gpxtpx:TrackPointExtension>
<gpxtpx:hr>150</gpxtpx:hr>
<gpxtpx:atemp>7</gpxtpx:atemp>
</gpxtpx:TrackPointExtension>
</extensions>
</trkpt>
<trkpt lat="47.67441443167627" lon="12.175196735188365">
<ele>468</ele>
<time>2012-03-03T10:27:54Z</time>
<extensions>
<gpxtpx:TrackPointExtension>
<gpxtpx:hr>150</gpxtpx:hr>
<gpxtpx:atemp>7</gpxtpx:atemp>
</gpxtpx:TrackPointExtension>
</extensions>
</trkpt>
<trkpt lat="47.67481424845755" lon="12.174625676125288">
<ele>468</ele>
<time>2012-03-03T10:28:04Z</time>
<extensions>
<gpxtpx:TrackPointExtension>
<gpxtpx:hr>151</gpxtpx:hr>
<gpxtpx:atemp>7</gpxtpx:atemp>
</gpxtpx:TrackPointExtension>
</extensions>
</trkpt>
<trkpt lat="47.67522596754134" lon="12.17408730648458">
<ele>468</ele>
<time>2012-03-03T10:28:14Z</time>
<extensions>
<gpxtpx:TrackPointExtension>
<gpxtpx:hr>153</gpxtpx:hr>
<gpxtpx:atemp>7</gpxtpx:atemp>
</gpxtpx:TrackPointExtension>
</extensions>
</trkpt>
<trkpt lat="47.67551438882947" lon="12.173718502745032">
<ele>468</ele>
<time>2012-03-03T10:28:21Z</time>
<extensions>
<gpxtpx:TrackPointExtension>
<gpxtpx:hr>154</gpxtpx:hr>
<gpxtpx:atemp>7</gpxtpx:atemp>
</gpxtpx:TrackPointExtension>
</extensions>
</trkpt>
<trkpt lat="47.67584220506251" lon="12.173315081745386">
<ele>468</ele>
<time>2012-03-03T10:28:29Z</time>
<extensions>
<gpxtpx:TrackPointExtension>
<gpxtpx:hr>154</gpxtpx:hr>
<gpxtpx:atemp>7</gpxtpx:atemp>
</gpxtpx:TrackPointExtension>
</extensions>
</trkpt>
<trkpt lat="47.6761672552675" lon="12.172942338511348">
<ele>468</ele>
<time>2012-03-03T10:28:37Z</time>
<extensions>
<gpxtpx:TrackPointExtension>
<gpxtpx:hr>154</gpxtpx:hr>
<gpxtpx:atemp>7</gpxtpx:atemp>
</gpxtpx:TrackPointExtension>
</extensions>
</trkpt>
<trkpt lat="47.67650990746915" lon="12.172577222809196">
<ele>468</ele>
<time>2012-03-03T10:28:45Z</time>
<extensions>
<gpxtpx:TrackPointExtension>
<gpxtpx:hr>155</gpxtpx:hr>
<gpxtpx:atemp>8</gpxtpx:atemp>
</gpxtpx:TrackPointExtension>
</extensions>
</trkpt>
<trkpt lat="47.67687074840069" lon="12.172192241996527">
<ele>468</ele>
<time>2012-03-03T10:28:53Z</time>
<extensions>
<gpxtpx:TrackPointExtension>
<gpxtpx:hr>154</gpxtpx:hr>
<gpxtpx:atemp>8</gpxtpx:atemp>
</gpxtpx:TrackPointExtension>
</extensions>
</trkpt>
<trkpt lat="47.677199402824044" lon="12.171862665563822">
<ele>468</ele>
<time>2012-03-03T10:29:00Z</time>
<extensions>
<gpxtpx:TrackPointExtension>
<gpxtpx:hr>156</gpxtpx:hr>
<gpxtpx:atemp>8</gpxtpx:atemp>
</gpxtpx:TrackPointExtension>
</extensions>
</trkpt>
<trkpt lat="47.67763886600733" lon="12.171454802155495">
<ele>468</ele>
<time>2012-03-03T10:29:09Z</time>
<extensions>
<gpxtpx:TrackPointExtension>
<gpxtpx:hr>156</gpxtpx:hr>
<gpxtpx:atemp>8</gpxtpx:atemp>
</gpxtpx:TrackPointExtension>
</extensions>
</trkpt>
<trkpt lat="47.677789656445384" lon="12.17132211662829">
<ele>468</ele>
<time>2012-03-03T10:29:12Z</time>
<extensions>
<gpxtpx:TrackPointExtension>
<gpxtpx:hr>153</gpxtpx:hr>
<gpxtpx:atemp>8</gpxtpx:atemp>
</gpxtpx:TrackPointExtension>
</extensions>
</trkpt>
<trkpt lat="47.67810028977692" lon="12.171067474409938">
<ele>468</ele>
<time>2012-03-03T10:29:18Z</time>
<extensions>
<gpxtpx:TrackPointExtension>
<gpxtpx:hr>153</gpxtpx:hr>
<gpxtpx:atemp>8</gpxtpx:atemp>
</gpxtpx:TrackPointExtension>
</extensions>
</trkpt>
<trkpt lat="47.67851787619293" lon="12.17073580250144">
<ele>468</ele>
<time>2012-03-03T10:29:26Z</time>
<extensions>
<gpxtpx:TrackPointExtension>
<gpxtpx:hr>151</gpxtpx:hr>
<gpxtpx:atemp>8</gpxtpx:atemp>
</gpxtpx:TrackPointExtension>
</extensions>
</trkpt>
<trkpt lat="47.67895004712045" lon="12.17040253803134">
<ele>468</ele>
<time>2012-03-03T10:29:34Z</time>
<extensions>
<gpxtpx:TrackPointExtension>
<gpxtpx:hr>150</gpxtpx:hr>
<gpxtpx:atemp>8</gpxtpx:atemp>
</gpxtpx:TrackPointExtension>
</extensions>
</trkpt>
<trkpt lat="47.679384648799896" lon="12.17009081505239">
<ele>468</ele>
<time>2012-03-03T10:29:42Z</time>
<extensions>
<gpxtpx:TrackPointExtension>
<gpxtpx:hr>150</gpxtpx:hr>
<gpxtpx:atemp>8</gpxtpx:atemp>
</gpxtpx:TrackPointExtension>
</extensions>
</trkpt>
<trkpt lat="47.6798215135932" lon="12.169783366844058">
<ele>468</ele>
<time>2012-03-03T10:29:50Z</time>
<extensions>
<gpxtpx:TrackPointExtension>
<gpxtpx:hr>147</gpxtpx:hr>
<gpxtpx:atemp>8</gpxtpx:atemp>
</gpxtpx:TrackPointExtension>
</extensions>
</trkpt>
<trkpt lat="47.67987918108702" lon="12.169744474813342">
<ele>468</ele>
<time>2012-03-03T10:29:52Z</time>
<extensions>
<gpxtpx:TrackPointExtension>
<gpxtpx:hr>148</gpxtpx:hr>
<gpxtpx:atemp>8</gpxtpx:atemp>
</gpxtpx:TrackPointExtension>
</extensions>
</trkpt>
<trkpt lat="47.68031897954643" lon="12.169450521469116">
<ele>468</ele>
<time>2012-03-03T10:30:00Z</time>
<extensions>
<gpxtpx:TrackPointExtension>
<gpxtpx:hr>146</gpxtpx:hr>
<gpxtpx:atemp>8</gpxtpx:atemp>
</gpxtpx:TrackPointExtension>
</extensions>
</trkpt>
<trkpt lat="47.680755173787475" lon="12.169178612530231">
<ele>468</ele>
<time>2012-03-03T10:30:08Z</time>
<extensions>
<gpxtpx:TrackPointExtension>
<gpxtpx:hr>147</gpxtpx:hr>
<gpxtpx:atemp>8</gpxtpx:atemp>
</gpxtpx:TrackPointExtension>
</extensions>
</trkpt>
<trkpt lat="47.68119874410331" lon="12.168925059959292">
<ele>468</ele>
<time>2012-03-03T10:30:16Z</time>
<extensions>
<gpxtpx:TrackPointExtension>
<gpxtpx:hr>147</gpxtpx:hr>
<gpxtpx:atemp>8</gpxtpx:atemp>
</gpxtpx:TrackPointExtension>
</extensions>
</trkpt>
<trkpt lat="47.68151340074837" lon="12.168741580098867">
<ele>468</ele>
<time>2012-03-03T10:30:22Z</time>
<extensions>
<gpxtpx:TrackPointExtension>
<gpxtpx:hr>148</gpxtpx:hr>
<gpxtpx:atemp>8</gpxtpx:atemp>
</gpxtpx:TrackPointExtension>
</extensions>
</trkpt>
<trkpt lat="47.681986475363374" lon="12.168513676151633">
<ele>468</ele>
<time>2012-03-03T10:30:31Z</time>
<extensions>
<gpxtpx:TrackPointExtension>
<gpxtpx:hr>147</gpxtpx:hr>
<gpxtpx:atemp>8</gpxtpx:atemp>
</gpxtpx:TrackPointExtension>
</extensions>
</trkpt>
<trkpt lat="47.68242669291794" lon="12.168316282331944">
<ele>468</ele>
<time>2012-03-03T10:30:39Z</time>
<extensions>
<gpxtpx:TrackPointExtension>
<gpxtpx:hr>148</gpxtpx:hr>
<gpxtpx:atemp>8</gpxtpx:atemp>
</gpxtpx:TrackPointExtension>
</extensions>
</trkpt>
<trkpt lat="47.68282542005181" lon="12.168143782764673">
<ele>468</ele>
<time>2012-03-03T10:30:46Z</time>
<extensions>
<gpxtpx:TrackPointExtension>
<gpxtpx:hr>149</gpxtpx:hr>
<gpxtpx:atemp>8</gpxtpx:atemp>
</gpxtpx:TrackPointExtension>
</extensions>
</trkpt>
<trkpt lat="47.68316539004445" lon="12.167994920164347">
<ele>468</ele>
<time>2012-03-03T10:30:52Z</time>
<extensions>
<gpxtpx:TrackPointExtension>
<gpxtpx:hr>149</gpxtpx:hr>
<gpxtpx:atemp>7</gpxtpx:atemp>
</gpxtpx:TrackPointExtension>
</extensions>
</trkpt>
<trkpt lat="47.68351717852056" lon="12.167875980958343">
<ele>468</ele>
<time>2012-03-03T10:30:58Z</time>
<extensions>
<gpxtpx:TrackPointExtension>
<gpxtpx:hr>146</gpxtpx:hr>
<gpxtpx:atemp>7</gpxtpx:atemp>
</gpxtpx:TrackPointExtension>
</extensions>
</trkpt>
<trkpt lat="47.683575600385666" lon="12.167855277657509">
<ele>468</ele>
<time>2012-03-03T10:30:59Z</time>
<extensions>
<gpxtpx:TrackPointExtension>
<gpxtpx:hr>146</gpxtpx:hr>
<gpxtpx:atemp>7</gpxtpx:atemp>
</gpxtpx:TrackPointExtension>
</extensions>
</trkpt>
<trkpt lat="47.68403400667012" lon="12.167694345116615">
<ele>468</ele>
<time>2012-03-03T10:31:07Z</time>
<extensions>
<gpxtpx:TrackPointExtension>
<gpxtpx:hr>148</gpxtpx:hr>
<gpxtpx:atemp>7</gpxtpx:atemp>
</gpxtpx:TrackPointExtension>
</extensions>
</trkpt>
<trkpt lat="47.68457011319697" lon="12.167507261037827">
<ele>468</ele>
<time>2012-03-03T10:31:16Z</time>
<extensions>
<gpxtpx:TrackPointExtension>
<gpxtpx:hr>149</gpxtpx:hr>
<gpxtpx:atemp>7</gpxtpx:atemp>
</gpxtpx:TrackPointExtension>
</extensions>
</trkpt>
<trkpt lat="47.68503723666072" lon="12.167343646287918">
<ele>468</ele>
<time>2012-03-03T10:31:24Z</time>
<extensions>
<gpxtpx:TrackPointExtension>
<gpxtpx:hr>149</gpxtpx:hr>
<gpxtpx:atemp>7</gpxtpx:atemp>
</gpxtpx:TrackPointExtension>
</extensions>
</trkpt>
<trkpt lat="47.685444513335824" lon="12.167215989902616">
<ele>468</ele>
<time>2012-03-03T10:31:31Z</time>
<extensions>
<gpxtpx:TrackPointExtension>
<gpxtpx:hr>148</gpxtpx:hr>
<gpxtpx:atemp>7</gpxtpx:atemp>
</gpxtpx:TrackPointExtension>
</extensions>
</trkpt>
<trkpt lat="47.685798313468695" lon="12.16709503903985">
<ele>468</ele>
<time>2012-03-03T10:31:37Z</time>
<extensions>
<gpxtpx:TrackPointExtension>
<gpxtpx:hr>150</gpxtpx:hr>
<gpxtpx:atemp>7</gpxtpx:atemp>
</gpxtpx:TrackPointExtension>
</extensions>
</trkpt>
<trkpt lat="47.68624724820256" lon="12.166941063478589">
<ele>468</ele>
<time>2012-03-03T10:31:45Z</time>
<extensions>
<gpxtpx:TrackPointExtension>
<gpxtpx:hr>150</gpxtpx:hr>
<gpxtpx:atemp>7</gpxtpx:atemp>
</gpxtpx:TrackPointExtension>
</extensions>
</trkpt>
<trkpt lat="47.68676499836147" lon="12.166765462607145">
<ele>468</ele>
<time>2012-03-03T10:31:54Z</time>
<extensions>
<gpxtpx:TrackPointExtension>
<gpxtpx:hr>152</gpxtpx:hr>
<gpxtpx:atemp>7</gpxtpx:atemp>
</gpxtpx:TrackPointExtension>
</extensions>
</trkpt>
<trkpt lat="47.687204629182816" lon="12.166605368256569">
<ele>468</ele>
<time>2012-03-03T10:32:02Z</time>
<extensions>
<gpxtpx:TrackPointExtension>
<gpxtpx:hr>154</gpxtpx:hr>
<gpxtpx:atemp>7</gpxtpx:atemp>
</gpxtpx:TrackPointExtension>
</extensions>
</trkpt>
<trkpt lat="47.68749757669866" lon="12.16651693917811">
<ele>468</ele>
<time>2012-03-03T10:32:07Z</time>
<extensions>
<gpxtpx:TrackPointExtension>
<gpxtpx:hr>155</gpxtpx:hr>
<gpxtpx:atemp>7</gpxtpx:atemp>
</gpxtpx:TrackPointExtension>
</extensions>
</trkpt>
<trkpt lat="47.68779136240482" lon="12.166414763778448">
<ele>468</ele>
<time>2012-03-03T10:32:12Z</time>
<extensions>
<gpxtpx:TrackPointExtension>
<gpxtpx:hr>158</gpxtpx:hr>
<gpxtpx:atemp>7</gpxtpx:atemp>
</gpxtpx:TrackPointExtension>
</extensions>
</trkpt>
<trkpt lat="47.68790560774505" lon="12.166373524814844">
<ele>468</ele>
<time>2012-03-03T10:32:14Z</time>
<extensions>
<gpxtpx:TrackPointExtension>
<gpxtpx:hr>158</gpxtpx:hr>
<gpxtpx:atemp>7</gpxtpx:atemp>
</gpxtpx:TrackPointExtension>
</extensions>
</trkpt>
<trkpt lat="47.68830483779311" lon="12.166255759075284">
<ele>468</ele>
<time>2012-03-03T10:32:21Z</time>
<extensions>
<gpxtpx:TrackPointExtension>
<gpxtpx:hr>161</gpxtpx:hr>
<gpxtpx:atemp>7</gpxtpx:atemp>
</gpxtpx:TrackPointExtension>
</extensions>
</trkpt>
<trkpt lat="47.68870691768825" lon="12.16610748320818">
<ele>468</ele>
<time>2012-03-03T10:32:28Z</time>
<extensions>
<gpxtpx:TrackPointExtension>
<gpxtpx:hr>158</gpxtpx:hr>
<gpxtpx:atemp>7</gpxtpx:atemp>
</gpxtpx:TrackPointExtension>
</extensions>
</trkpt>
<trkpt lat="47.688763830810785" lon="12.166087701916695">
<ele>468</ele>
<time>2012-03-03T10:32:29Z</time>
<extensions>
<gpxtpx:TrackPointExtension>
<gpxtpx:hr>158</gpxtpx:hr>
<gpxtpx:atemp>7</gpxtpx:atemp>
</gpxtpx:TrackPointExtension>
</extensions>
</trkpt>
<trkpt lat="47.689282670617104" lon="12.16589936055243">
<ele>468</ele>
<time>2012-03-03T10:32:38Z</time>
<extensions>
<gpxtpx:TrackPointExtension>
<gpxtpx:hr>160</gpxtpx:hr>
<gpxtpx:atemp>7</gpxtpx:atemp>
</gpxtpx:TrackPointExtension>
</extensions>
</trkpt>
<trkpt lat="47.68980301916599" lon="12.165713952854276">
<ele>468</ele>
<time>2012-03-03T10:32:47Z</time>
<extensions>
<gpxtpx:TrackPointExtension>
<gpxtpx:hr>160</gpxtpx:hr>
<gpxtpx:atemp>7</gpxtpx:atemp>
</gpxtpx:TrackPointExtension>
</extensions>
</trkpt>
<trkpt lat="47.690265532583" lon="12.165587553754449">
<ele>468</ele>
<time>2012-03-03T10:32:55Z</time>
<extensions>
<gpxtpx:TrackPointExtension>
<gpxtpx:hr>162</gpxtpx:hr>
<gpxtpx:atemp>7</gpxtpx:atemp>
</gpxtpx:TrackPointExtension>
</extensions>
</trkpt>
<trkpt lat="47.69062427803874" lon="12.165509182959795">
<ele>468</ele>
<time>2012-03-03T10:33:01Z</time>
<extensions>
<gpxtpx:TrackPointExtension>
<gpxtpx:hr>162</gpxtpx:hr>
<gpxtpx:atemp>7</gpxtpx:atemp>
</gpxtpx:TrackPointExtension>
</extensions>
</trkpt>
<trkpt lat="47.691103890538216" lon="12.165409689769149">
<ele>468</ele>
<time>2012-03-03T10:33:09Z</time>
<extensions>
<gpxtpx:TrackPointExtension>
<gpxtpx:hr>162</gpxtpx:hr>
<gpxtpx:atemp>7</gpxtpx:atemp>
</gpxtpx:TrackPointExtension>
</extensions>
</trkpt>
<trkpt lat="47.69163371063769" lon="12.165296953171492">
<ele>468</ele>
<time>2012-03-03T10:33:18Z</time>
<extensions>
<gpxtpx:TrackPointExtension>
<gpxtpx:hr>163</gpxtpx:hr>
<gpxtpx:atemp>7</gpxtpx:atemp>
</gpxtpx:TrackPointExtension>
</extensions>
</trkpt>
<trkpt lat="47.692115250974894" lon="12.165191173553467">
<ele>468</ele>
<time>2012-03-03T10:33:26Z</time>
<extensions>
<gpxtpx:TrackPointExtension>
<gpxtpx:hr>163</gpxtpx:hr>
<gpxtpx:atemp>7</gpxtpx:atemp>
</gpxtpx:TrackPointExtension>
</extensions>
</trkpt>
<trkpt lat="47.692407527938485" lon="12.165131326764822">
<ele>468</ele>
<time>2012-03-03T10:33:31Z</time>
<extensions>
<gpxtpx:TrackPointExtension>
<gpxtpx:hr>161</gpxtpx:hr>
<gpxtpx:atemp>7</gpxtpx:atemp>
</gpxtpx:TrackPointExtension>
</extensions>
</trkpt>
<trkpt lat="47.692530155181885" lon="12.165107522159815">
<ele>468</ele>
<time>2012-03-03T10:33:33Z</time>
<extensions>
<gpxtpx:TrackPointExtension>
<gpxtpx:hr>161</gpxtpx:hr>
<gpxtpx:atemp>7</gpxtpx:atemp>
</gpxtpx:TrackPointExtension>
</extensions>
</trkpt>
<trkpt lat="47.6928869727999" lon="12.165024038404226">
<ele>467</ele>
<time>2012-03-03T10:33:39Z</time>
<extensions>
<gpxtpx:TrackPointExtension>
<gpxtpx:hr>161</gpxtpx:hr>
<gpxtpx:atemp>6</gpxtpx:atemp>
</gpxtpx:TrackPointExtension>
</extensions>
</trkpt>
<trkpt lat="47.692946987226605" lon="12.165012052282691">
<ele>467</ele>
<time>2012-03-03T10:33:40Z</time>
<extensions>
<gpxtpx:TrackPointExtension>
<gpxtpx:hr>161</gpxtpx:hr>
<gpxtpx:atemp>6</gpxtpx:atemp>
</gpxtpx:TrackPointExtension>
</extensions>
</trkpt>
<trkpt lat="47.69300633110106" lon="12.165003502741456">
<ele>467</ele>
<time>2012-03-03T10:33:41Z</time>
<extensions>
<gpxtpx:TrackPointExtension>
<gpxtpx:hr>160</gpxtpx:hr>
<gpxtpx:atemp>6</gpxtpx:atemp>
</gpxtpx:TrackPointExtension>
</extensions>
</trkpt>
<trkpt lat="47.693065255880356" lon="12.164992773905396">
<ele>466</ele>
<time>2012-03-03T10:33:42Z</time>
<extensions>
<gpxtpx:TrackPointExtension>
<gpxtpx:hr>160</gpxtpx:hr>
<gpxtpx:atemp>6</gpxtpx:atemp>
</gpxtpx:TrackPointExtension>
</extensions>
</trkpt>
<trkpt lat="47.69312895834446" lon="12.164978524670005">
<ele>466</ele>
<time>2012-03-03T10:33:43Z</time>
<extensions>
<gpxtpx:TrackPointExtension>
<gpxtpx:hr>160</gpxtpx:hr>
<gpxtpx:atemp>6</gpxtpx:atemp>
</gpxtpx:TrackPointExtension>
</extensions>
</trkpt>
<trkpt lat="47.69367177039385" lon="12.16487081721425">
<ele>466</ele>
<time>2012-03-03T10:33:52Z</time>
<extensions>
<gpxtpx:TrackPointExtension>
<gpxtpx:hr>160</gpxtpx:hr>
<gpxtpx:atemp>6</gpxtpx:atemp>
</gpxtpx:TrackPointExtension>
</extensions>
</trkpt>
<trkpt lat="47.6940902788192" lon="12.164776101708412">
<ele>466</ele>
<time>2012-03-03T10:33:59Z</time>
<extensions>
<gpxtpx:TrackPointExtension>
<gpxtpx:hr>159</gpxtpx:hr>
<gpxtpx:atemp>6</gpxtpx:atemp>
</gpxtpx:TrackPointExtension>
</extensions>
</trkpt>
<trkpt lat="47.69462806172669" lon="12.164665879681706">
<ele>466</ele>
<time>2012-03-03T10:34:08Z</time>
<extensions>
<gpxtpx:TrackPointExtension>
<gpxtpx:hr>159</gpxtpx:hr>
<gpxtpx:atemp>6</gpxtpx:atemp>
</gpxtpx:TrackPointExtension>
</extensions>
</trkpt>
<trkpt lat="47.69513919018209" lon="12.164546521380544">
<ele>466</ele>
<time>2012-03-03T10:34:17Z</time>
<extensions>
<gpxtpx:TrackPointExtension>
<gpxtpx:hr>160</gpxtpx:hr>
<gpxtpx:atemp>6</gpxtpx:atemp>
</gpxtpx:TrackPointExtension>
</extensions>
</trkpt>
<trkpt lat="47.69562114961445" lon="12.16446815058589">
<ele>466</ele>
<time>2012-03-03T10:34:25Z</time>
<extensions>
<gpxtpx:TrackPointExtension>
<gpxtpx:hr>160</gpxtpx:hr>
<gpxtpx:atemp>6</gpxtpx:atemp>
</gpxtpx:TrackPointExtension>
</extensions>
</trkpt>
<trkpt lat="47.69604653120041" lon="12.164380475878716">
<ele>466</ele>
<time>2012-03-03T10:34:32Z</time>
<extensions>
<gpxtpx:TrackPointExtension>
<gpxtpx:hr>162</gpxtpx:hr>
<gpxtpx:atemp>6</gpxtpx:atemp>
</gpxtpx:TrackPointExtension>
</extensions>
</trkpt>
<trkpt lat="47.69647233188152" lon="12.164282826706767">
<ele>466</ele>
<time>2012-03-03T10:34:39Z</time>
<extensions>
<gpxtpx:TrackPointExtension>
<gpxtpx:hr>164</gpxtpx:hr>
<gpxtpx:atemp>6</gpxtpx:atemp>
</gpxtpx:TrackPointExtension>
</extensions>
</trkpt>
<trkpt lat="47.69653368741274" lon="12.164266901090741">
<ele>466</ele>
<time>2012-03-03T10:34:40Z</time>
<extensions>
<gpxtpx:TrackPointExtension>
<gpxtpx:hr>164</gpxtpx:hr>
<gpxtpx:atemp>6</gpxtpx:atemp>
</gpxtpx:TrackPointExtension>
</extensions>
</trkpt>
<trkpt lat="47.697015311568975" lon="12.164167156443">
<ele>466</ele>
<time>2012-03-03T10:34:48Z</time>
<extensions>
<gpxtpx:TrackPointExtension>
<gpxtpx:hr>165</gpxtpx:hr>
<gpxtpx:atemp>6</gpxtpx:atemp>
</gpxtpx:TrackPointExtension>
</extensions>
</trkpt>
<trkpt lat="47.69748570397496" lon="12.164067663252354">
<ele>466</ele>
<time>2012-03-03T10:34:56Z</time>
<extensions>
<gpxtpx:TrackPointExtension>
<gpxtpx:hr>165</gpxtpx:hr>
<gpxtpx:atemp>6</gpxtpx:atemp>
</gpxtpx:TrackPointExtension>
</extensions>
</trkpt>
<trkpt lat="47.69796724431217" lon="12.163968170061707">
<ele>466</ele>
<time>2012-03-03T10:35:04Z</time>
<extensions>
<gpxtpx:TrackPointExtension>
<gpxtpx:hr>165</gpxtpx:hr>
<gpxtpx:atemp>6</gpxtpx:atemp>
</gpxtpx:TrackPointExtension>
</extensions>
</trkpt>
<trkpt lat="47.698316518217325" lon="12.163902204483747">
<ele>466</ele>
<time>2012-03-03T10:35:10Z</time>
<extensions>
<gpxtpx:TrackPointExtension>
<gpxtpx:hr>162</gpxtpx:hr>
<gpxtpx:atemp>6</gpxtpx:atemp>
</gpxtpx:TrackPointExtension>
</extensions>
</trkpt>
<trkpt lat="47.69837494008243" lon="12.163891391828656">
<ele>466</ele>
<time>2012-03-03T10:35:11Z</time>
<extensions>
<gpxtpx:TrackPointExtension>
<gpxtpx:hr>162</gpxtpx:hr>
<gpxtpx:atemp>6</gpxtpx:atemp>
</gpxtpx:TrackPointExtension>
</extensions>
</trkpt>
<trkpt lat="47.69877643324435" lon="12.163811596110463">
<ele>466</ele>
<time>2012-03-03T10:35:18Z</time>
<extensions>
<gpxtpx:TrackPointExtension>
<gpxtpx:hr>161</gpxtpx:hr>
<gpxtpx:atemp>6</gpxtpx:atemp>
</gpxtpx:TrackPointExtension>
</extensions>
</trkpt>
<trkpt lat="47.69912017509341" lon="12.163741020485759">
<ele>466</ele>
<time>2012-03-03T10:35:24Z</time>
<extensions>
<gpxtpx:TrackPointExtension>
<gpxtpx:hr>160</gpxtpx:hr>
<gpxtpx:atemp>6</gpxtpx:atemp>
</gpxtpx:TrackPointExtension>
</extensions>
</trkpt>
<trkpt lat="47.69952007569373" lon="12.16365116648376">
<ele>466</ele>
<time>2012-03-03T10:35:31Z</time>
<extensions>
<gpxtpx:TrackPointExtension>
<gpxtpx:hr>160</gpxtpx:hr>
<gpxtpx:atemp>6</gpxtpx:atemp>
</gpxtpx:TrackPointExtension>
</extensions>
</trkpt>
<trkpt lat="47.69996993243694" lon="12.163551421836019">
<ele>466</ele>
<time>2012-03-03T10:35:39Z</time>
<extensions>
<gpxtpx:TrackPointExtension>
<gpxtpx:hr>160</gpxtpx:hr>
<gpxtpx:atemp>6</gpxtpx:atemp>
</gpxtpx:TrackPointExtension>
</extensions>
</trkpt>
<trkpt lat="47.700414089486" lon="12.163471709936857">
<ele>466</ele>
<time>2012-03-03T10:35:47Z</time>
<extensions>
<gpxtpx:TrackPointExtension>
<gpxtpx:hr>160</gpxtpx:hr>
<gpxtpx:atemp>6</gpxtpx:atemp>
</gpxtpx:TrackPointExtension>
</extensions>
</trkpt>
<trkpt lat="47.70076286047697" lon="12.163400379940867">
<ele>466</ele>
<time>2012-03-03T10:35:54Z</time>
<extensions>
<gpxtpx:TrackPointExtension>
<gpxtpx:hr>161</gpxtpx:hr>
<gpxtpx:atemp>6</gpxtpx:atemp>
</gpxtpx:TrackPointExtension>
</extensions>
</trkpt>
<trkpt lat="47.700897892937064" lon="12.16337171383202">
<ele>466</ele>
<time>2012-03-03T10:35:57Z</time>
<extensions>
<gpxtpx:TrackPointExtension>
<gpxtpx:hr>161</gpxtpx:hr>
<gpxtpx:atemp>6</gpxtpx:atemp>
</gpxtpx:TrackPointExtension>
</extensions>
</trkpt>
<trkpt lat="47.701030410826206" lon="12.16334380209446">
<ele>466</ele>
<time>2012-03-03T10:36:00Z</time>
<extensions>
<gpxtpx:TrackPointExtension>
<gpxtpx:hr>163</gpxtpx:hr>
<gpxtpx:atemp>6</gpxtpx:atemp>
</gpxtpx:TrackPointExtension>
</extensions>
</trkpt>
<trkpt lat="47.70127038471401" lon="12.163283284753561">
<ele>466</ele>
<time>2012-03-03T10:36:06Z</time>
<extensions>
<gpxtpx:TrackPointExtension>
<gpxtpx:hr>163</gpxtpx:hr>
<gpxtpx:atemp>6</gpxtpx:atemp>
</gpxtpx:TrackPointExtension>
</extensions>
</trkpt>
<trkpt lat="47.701578168198466" lon="12.163227964192629">
<ele>466</ele>
<time>2012-03-03T10:36:13Z</time>
<extensions>
<gpxtpx:TrackPointExtension>
<gpxtpx:hr>165</gpxtpx:hr>
<gpxtpx:atemp>6</gpxtpx:atemp>
</gpxtpx:TrackPointExtension>
</extensions>
</trkpt>
<trkpt lat="47.701817471534014" lon="12.163177588954568">
<ele>466</ele>
<time>2012-03-03T10:36:19Z</time>
<extensions>
<gpxtpx:TrackPointExtension>
<gpxtpx:hr>167</gpxtpx:hr>
<gpxtpx:atemp>6</gpxtpx:atemp>
</gpxtpx:TrackPointExtension>
</extensions>
</trkpt>
<trkpt lat="47.70216372795403" lon="12.163113635033369">
<ele>466</ele>
<time>2012-03-03T10:36:27Z</time>
<extensions>
<gpxtpx:TrackPointExtension>
<gpxtpx:hr>166</gpxtpx:hr>
<gpxtpx:atemp>6</gpxtpx:atemp>
</gpxtpx:TrackPointExtension>
</extensions>
</trkpt>
<trkpt lat="47.70255407318473" lon="12.163023110479116">
<ele>466</ele>
<time>2012-03-03T10:36:35Z</time>
<extensions>
<gpxtpx:TrackPointExtension>
<gpxtpx:hr>165</gpxtpx:hr>
<gpxtpx:atemp>6</gpxtpx:atemp>
</gpxtpx:TrackPointExtension>
</extensions>
</trkpt>
<trkpt lat="47.70289923995733" lon="12.162938956171274">
<ele>466</ele>
<time>2012-03-03T10:36:42Z</time>
<extensions>
<gpxtpx:TrackPointExtension>
<gpxtpx:hr>167</gpxtpx:hr>
<gpxtpx:atemp>6</gpxtpx:atemp>
</gpxtpx:TrackPointExtension>
</extensions>
</trkpt>
<trkpt lat="47.703293692320585" lon="12.162844492122531">
<ele>466</ele>
<time>2012-03-03T10:36:50Z</time>
<extensions>
<gpxtpx:TrackPointExtension>
<gpxtpx:hr>167</gpxtpx:hr>
<gpxtpx:atemp>6</gpxtpx:atemp>
</gpxtpx:TrackPointExtension>
</extensions>
</trkpt>
<trkpt lat="47.70361790433526" lon="12.162780789658427">
<ele>466</ele>
<time>2012-03-03T10:36:57Z</time>
<extensions>
<gpxtpx:TrackPointExtension>
<gpxtpx:hr>168</gpxtpx:hr>
<gpxtpx:atemp>6</gpxtpx:atemp>
</gpxtpx:TrackPointExtension>
</extensions>
</trkpt>
<trkpt lat="47.70398620516062" lon="12.162667717784643">
<ele>466</ele>
<time>2012-03-03T10:37:05Z</time>
<extensions>
<gpxtpx:TrackPointExtension>
<gpxtpx:hr>168</gpxtpx:hr>
<gpxtpx:atemp>6</gpxtpx:atemp>
</gpxtpx:TrackPointExtension>
</extensions>
</trkpt>
<trkpt lat="47.704034987837076" lon="12.162650702521205">
<ele>466</ele>
<time>2012-03-03T10:37:06Z</time>
<extensions>
<gpxtpx:TrackPointExtension>
<gpxtpx:hr>168</gpxtpx:hr>
<gpxtpx:atemp>6</gpxtpx:atemp>
</gpxtpx:TrackPointExtension>
</extensions>
</trkpt>
<trkpt lat="47.70429013296962" lon="12.162604853510857">
<ele>466</ele>
<time>2012-03-03T10:37:11Z</time>
<extensions>
<gpxtpx:TrackPointExtension>
<gpxtpx:hr>169</gpxtpx:hr>
<gpxtpx:atemp>6</gpxtpx:atemp>
</gpxtpx:TrackPointExtension>
</extensions>
</trkpt>
<trkpt lat="47.7043291926384" lon="12.162631256505847">
<ele>466</ele>
<time>2012-03-03T10:37:12Z</time>
<extensions>
<gpxtpx:TrackPointExtension>
<gpxtpx:hr>168</gpxtpx:hr>
<gpxtpx:atemp>6</gpxtpx:atemp>
</gpxtpx:TrackPointExtension>
</extensions>
</trkpt>
<trkpt lat="47.70437638275325" lon="12.16271935030818">
<ele>466</ele>
<time>2012-03-03T10:37:14Z</time>
<extensions>
<gpxtpx:TrackPointExtension>
<gpxtpx:hr>168</gpxtpx:hr>
<gpxtpx:atemp>6</gpxtpx:atemp>
</gpxtpx:TrackPointExtension>
</extensions>
</trkpt>
<trkpt lat="47.70439918152988" lon="12.162757068872452">
<ele>465</ele>
<time>2012-03-03T10:37:15Z</time>
<extensions>
<gpxtpx:TrackPointExtension>
<gpxtpx:hr>168</gpxtpx:hr>
<gpxtpx:atemp>6</gpxtpx:atemp>
</gpxtpx:TrackPointExtension>
</extensions>
</trkpt>
<trkpt lat="47.704441929236054" lon="12.162758074700832">
<ele>465</ele>
<time>2012-03-03T10:37:16Z</time>
<extensions>
<gpxtpx:TrackPointExtension>
<gpxtpx:hr>168</gpxtpx:hr>
<gpxtpx:atemp>6</gpxtpx:atemp>
</gpxtpx:TrackPointExtension>
</extensions>
</trkpt>
<trkpt lat="47.70447294227779" lon="12.162763103842735">
<ele>465</ele>
<time>2012-03-03T10:37:17Z</time>
<extensions>
<gpxtpx:TrackPointExtension>
<gpxtpx:hr>167</gpxtpx:hr>
<gpxtpx:atemp>6</gpxtpx:atemp>
</gpxtpx:TrackPointExtension>
</extensions>
</trkpt>
<trkpt lat="47.70450185984373" lon="12.162757236510515">
<ele>464</ele>
<time>2012-03-03T10:37:18Z</time>
<extensions>
<gpxtpx:TrackPointExtension>
<gpxtpx:hr>167</gpxtpx:hr>
<gpxtpx:atemp>5</gpxtpx:atemp>
</gpxtpx:TrackPointExtension>
</extensions>
</trkpt>
<trkpt lat="47.70456832833588" lon="12.162599992007017">
<ele>464</ele>
<time>2012-03-03T10:37:22Z</time>
<extensions>
<gpxtpx:TrackPointExtension>
<gpxtpx:hr>166</gpxtpx:hr>
<gpxtpx:atemp>5</gpxtpx:atemp>
</gpxtpx:TrackPointExtension>
</extensions>
</trkpt>
<trkpt lat="47.704653572291136" lon="12.162469737231731">
<ele>464</ele>
<time>2012-03-03T10:37:25Z</time>
<extensions>
<gpxtpx:TrackPointExtension>
<gpxtpx:hr>164</gpxtpx:hr>
<gpxtpx:atemp>5</gpxtpx:atemp>
</gpxtpx:TrackPointExtension>
</extensions>
</trkpt>
<trkpt lat="47.704787934198976" lon="12.162429252639413">
<ele>464</ele>
<time>2012-03-03T10:37:28Z</time>
<extensions>
<gpxtpx:TrackPointExtension>
<gpxtpx:hr>163</gpxtpx:hr>
<gpxtpx:atemp>5</gpxtpx:atemp>
</gpxtpx:TrackPointExtension>
</extensions>
</trkpt>
<trkpt lat="47.70483361557126" lon="12.162409806624055">
<ele>464</ele>
<time>2012-03-03T10:37:29Z</time>
<extensions>
<gpxtpx:TrackPointExtension>
<gpxtpx:hr>163</gpxtpx:hr>
<gpxtpx:atemp>5</gpxtpx:atemp>
</gpxtpx:TrackPointExtension>
</extensions>
</trkpt>
<trkpt lat="47.70516277290881" lon="12.16229623183608">
<ele>464</ele>
<time>2012-03-03T10:37:36Z</time>
<extensions>
<gpxtpx:TrackPointExtension>
<gpxtpx:hr>162</gpxtpx:hr>
<gpxtpx:atemp>5</gpxtpx:atemp>
</gpxtpx:TrackPointExtension>
</extensions>
</trkpt>
<trkpt lat="47.70553316920996" lon="12.162150805816054">
<ele>464</ele>
<time>2012-03-03T10:37:44Z</time>
<extensions>
<gpxtpx:TrackPointExtension>
<gpxtpx:hr>162</gpxtpx:hr>
<gpxtpx:atemp>5</gpxtpx:atemp>
</gpxtpx:TrackPointExtension>
</extensions>
</trkpt>
<trkpt lat="47.70601512864232" lon="12.16194486245513">
<ele>464</ele>
<time>2012-03-03T10:37:54Z</time>
<extensions>
<gpxtpx:TrackPointExtension>
<gpxtpx:hr>160</gpxtpx:hr>
<gpxtpx:atemp>5</gpxtpx:atemp>
</gpxtpx:TrackPointExtension>
</extensions>
</trkpt>
<trkpt lat="47.706408742815256" lon="12.161756185814738">
<ele>464</ele>
<time>2012-03-03T10:38:02Z</time>
<extensions>
<gpxtpx:TrackPointExtension>
<gpxtpx:hr>159</gpxtpx:hr>
<gpxtpx:atemp>5</gpxtpx:atemp>
</gpxtpx:TrackPointExtension>
</extensions>
</trkpt>
<trkpt lat="47.70685373805463" lon="12.161528030410409">
<ele>464</ele>
<time>2012-03-03T10:38:11Z</time>
<extensions>
<gpxtpx:TrackPointExtension>
<gpxtpx:hr>158</gpxtpx:hr>
<gpxtpx:atemp>5</gpxtpx:atemp>
</gpxtpx:TrackPointExtension>
</extensions>
</trkpt>
<trkpt lat="47.70728842355311" lon="12.16129350475967">
<ele>464</ele>
<time>2012-03-03T10:38:20Z</time>
<extensions>
<gpxtpx:TrackPointExtension>
<gpxtpx:hr>157</gpxtpx:hr>
<gpxtpx:atemp>5</gpxtpx:atemp>
</gpxtpx:TrackPointExtension>
</extensions>
</trkpt>
<trkpt lat="47.707665944471955" lon="12.161069372668862">
<ele>464</ele>
<time>2012-03-03T10:38:28Z</time>
<extensions>
<gpxtpx:TrackPointExtension>
<gpxtpx:hr>158</gpxtpx:hr>
<gpxtpx:atemp>5</gpxtpx:atemp>
</gpxtpx:TrackPointExtension>
</extensions>
</trkpt>
<trkpt lat="47.70808931440115" lon="12.16080542653799">
<ele>464</ele>
<time>2012-03-03T10:38:37Z</time>
<extensions>
<gpxtpx:TrackPointExtension>
<gpxtpx:hr>159</gpxtpx:hr>
<gpxtpx:atemp>5</gpxtpx:atemp>
</gpxtpx:TrackPointExtension>
</extensions>
</trkpt>
<trkpt lat="47.70861402153969" lon="12.16045062057674">
<ele>464</ele>
<time>2012-03-03T10:38:48Z</time>
<extensions>
<gpxtpx:TrackPointExtension>
<gpxtpx:hr>158</gpxtpx:hr>
<gpxtpx:atemp>5</gpxtpx:atemp>
</gpxtpx:TrackPointExtension>
</extensions>
</trkpt>
<trkpt lat="47.70895516499877" lon="12.160209137946367">
<ele>464</ele>
<time>2012-03-03T10:38:55Z</time>
<extensions>
<gpxtpx:TrackPointExtension>
<gpxtpx:hr>157</gpxtpx:hr>
<gpxtpx:atemp>5</gpxtpx:atemp>
</gpxtpx:TrackPointExtension>
</extensions>
</trkpt>
<trkpt lat="47.709341989830136" lon="12.159927505999804">
<ele>464</ele>
<time>2012-03-03T10:39:03Z</time>
<extensions>
<gpxtpx:TrackPointExtension>
<gpxtpx:hr>157</gpxtpx:hr>
<gpxtpx:atemp>5</gpxtpx:atemp>
</gpxtpx:TrackPointExtension>
</extensions>
</trkpt>
<trkpt lat="47.70964373834431" lon="12.159726172685623">
<ele>464</ele>
<time>2012-03-03T10:39:09Z</time>
<extensions>
<gpxtpx:TrackPointExtension>
<gpxtpx:hr>157</gpxtpx:hr>
<gpxtpx:atemp>5</gpxtpx:atemp>
</gpxtpx:TrackPointExtension>
</extensions>
</trkpt>
<trkpt lat="47.710088063031435" lon="12.159397769719362">
<ele>464</ele>
<time>2012-03-03T10:39:18Z</time>
<extensions>
<gpxtpx:TrackPointExtension>
<gpxtpx:hr>158</gpxtpx:hr>
<gpxtpx:atemp>5</gpxtpx:atemp>
</gpxtpx:TrackPointExtension>
</extensions>
</trkpt>
<trkpt lat="47.71047882735729" lon="12.159114545211196">
<ele>464</ele>
<time>2012-03-03T10:39:26Z</time>
<extensions>
<gpxtpx:TrackPointExtension>
<gpxtpx:hr>160</gpxtpx:hr>
<gpxtpx:atemp>5</gpxtpx:atemp>
</gpxtpx:TrackPointExtension>
</extensions>
</trkpt>
<trkpt lat="47.71086908876896" lon="12.158802822232246">
<ele>464</ele>
<time>2012-03-03T10:39:34Z</time>
<extensions>
<gpxtpx:TrackPointExtension>
<gpxtpx:hr>161</gpxtpx:hr>
<gpxtpx:atemp>5</gpxtpx:atemp>
</gpxtpx:TrackPointExtension>
</extensions>
</trkpt>
<trkpt lat="47.711241161450744" lon="12.158465785905719">
<ele>464</ele>
<time>2012-03-03T10:39:42Z</time>
<extensions>
<gpxtpx:TrackPointExtension>
<gpxtpx:hr>162</gpxtpx:hr>
<gpxtpx:atemp>5</gpxtpx:atemp>
</gpxtpx:TrackPointExtension>
</extensions>
</trkpt>
<trkpt lat="47.71159177646041" lon="12.15812087059021">
<ele>464</ele>
<time>2012-03-03T10:39:50Z</time>
<extensions>
<gpxtpx:TrackPointExtension>
<gpxtpx:hr>162</gpxtpx:hr>
<gpxtpx:atemp>5</gpxtpx:atemp>
</gpxtpx:TrackPointExtension>
</extensions>
</trkpt>
<trkpt lat="47.71189101040363" lon="12.157789366319776">
<ele>464</ele>
<time>2012-03-03T10:39:57Z</time>
<extensions>
<gpxtpx:TrackPointExtension>
<gpxtpx:hr>162</gpxtpx:hr>
<gpxtpx:atemp>5</gpxtpx:atemp>
</gpxtpx:TrackPointExtension>
</extensions>
</trkpt>
<trkpt lat="47.71214875392616" lon="12.157498011365533">
<ele>464</ele>
<time>2012-03-03T10:40:03Z</time>
<extensions>
<gpxtpx:TrackPointExtension>
<gpxtpx:hr>163</gpxtpx:hr>
<gpxtpx:atemp>5</gpxtpx:atemp>
</gpxtpx:TrackPointExtension>
</extensions>
</trkpt>
<trkpt lat="47.71256952546537" lon="12.156961234286427">
<ele>464</ele>
<time>2012-03-03T10:40:13Z</time>
<extensions>
<gpxtpx:TrackPointExtension>
<gpxtpx:hr>163</gpxtpx:hr>
<gpxtpx:atemp>5</gpxtpx:atemp>
</gpxtpx:TrackPointExtension>
</extensions>
</trkpt>
<trkpt lat="47.71285920403898" lon="12.156553035601974">
<ele>464</ele>
<time>2012-03-03T10:40:20Z</time>
<extensions>
<gpxtpx:TrackPointExtension>
<gpxtpx:hr>163</gpxtpx:hr>
<gpxtpx:atemp>5</gpxtpx:atemp>
</gpxtpx:TrackPointExtension>
</extensions>
</trkpt>
<trkpt lat="47.71290044300258" lon="12.156491931527853">
<ele>463</ele>
<time>2012-03-03T10:40:21Z</time>
<extensions>
<gpxtpx:TrackPointExtension>
<gpxtpx:hr>163</gpxtpx:hr>
<gpxtpx:atemp>5</gpxtpx:atemp>
</gpxtpx:TrackPointExtension>
</extensions>
</trkpt>
<trkpt lat="47.712942687794566" lon="12.156429570168257">
<ele>463</ele>
<time>2012-03-03T10:40:22Z</time>
<extensions>
<gpxtpx:TrackPointExtension>
<gpxtpx:hr>163</gpxtpx:hr>
<gpxtpx:atemp>5</gpxtpx:atemp>
</gpxtpx:TrackPointExtension>
</extensions>
</trkpt>
<trkpt lat="47.71298308856785" lon="12.156365783885121">
<ele>462</ele>
<time>2012-03-03T10:40:23Z</time>
<extensions>
<gpxtpx:TrackPointExtension>
<gpxtpx:hr>162</gpxtpx:hr>
<gpxtpx:atemp>5</gpxtpx:atemp>
</gpxtpx:TrackPointExtension>
</extensions>
</trkpt>
<trkpt lat="47.713024662807584" lon="12.15630216524005">
<ele>462</ele>
<time>2012-03-03T10:40:24Z</time>
<extensions>
<gpxtpx:TrackPointExtension>
<gpxtpx:hr>162</gpxtpx:hr>
<gpxtpx:atemp>5</gpxtpx:atemp>
</gpxtpx:TrackPointExtension>
</extensions>
</trkpt>
<trkpt lat="47.71334711462259" lon="12.155777541920543">
<ele>462</ele>
<time>2012-03-03T10:40:32Z</time>
<extensions>
<gpxtpx:TrackPointExtension>
<gpxtpx:hr>162</gpxtpx:hr>
<gpxtpx:atemp>5</gpxtpx:atemp>
</gpxtpx:TrackPointExtension>
</extensions>
</trkpt>
<trkpt lat="47.713728323578835" lon="12.155094165354967">
<ele>462</ele>
<time>2012-03-03T10:40:42Z</time>
<extensions>
<gpxtpx:TrackPointExtension>
<gpxtpx:hr>160</gpxtpx:hr>
<gpxtpx:atemp>5</gpxtpx:atemp>
</gpxtpx:TrackPointExtension>
</extensions>
</trkpt>
<trkpt lat="47.71376755088568" lon="12.15502786450088">
<ele>462</ele>
<time>2012-03-03T10:40:43Z</time>
<extensions>
<gpxtpx:TrackPointExtension>
<gpxtpx:hr>160</gpxtpx:hr>
<gpxtpx:atemp>5</gpxtpx:atemp>
</gpxtpx:TrackPointExtension>
</extensions>
</trkpt>
<trkpt lat="47.71409360691905" lon="12.154434341937304">
<ele>462</ele>
<time>2012-03-03T10:40:52Z</time>
<extensions>
<gpxtpx:TrackPointExtension>
<gpxtpx:hr>160</gpxtpx:hr>
<gpxtpx:atemp>5</gpxtpx:atemp>
</gpxtpx:TrackPointExtension>
</extensions>
</trkpt>
<trkpt lat="47.714362079277635" lon="12.153966967016459">
<ele>462</ele>
<time>2012-03-03T10:40:59Z</time>
<extensions>
<gpxtpx:TrackPointExtension>
<gpxtpx:hr>159</gpxtpx:hr>
<gpxtpx:atemp>5</gpxtpx:atemp>
</gpxtpx:TrackPointExtension>
</extensions>
</trkpt>
<trkpt lat="47.71470716223121" lon="12.153366319835186">
<ele>462</ele>
<time>2012-03-03T10:41:08Z</time>
<extensions>
<gpxtpx:TrackPointExtension>
<gpxtpx:hr>157</gpxtpx:hr>
<gpxtpx:atemp>5</gpxtpx:atemp>
</gpxtpx:TrackPointExtension>
</extensions>
</trkpt>
<trkpt lat="47.71510178223252" lon="12.1527249366045">
<ele>462</ele>
<time>2012-03-03T10:41:18Z</time>
<extensions>
<gpxtpx:TrackPointExtension>
<gpxtpx:hr>158</gpxtpx:hr>
<gpxtpx:atemp>5</gpxtpx:atemp>
</gpxtpx:TrackPointExtension>
</extensions>
</trkpt>
<trkpt lat="47.715402944013476" lon="12.152302404865623">
<ele>462</ele>
<time>2012-03-03T10:41:25Z</time>
<extensions>
<gpxtpx:TrackPointExtension>
<gpxtpx:hr>158</gpxtpx:hr>
<gpxtpx:atemp>5</gpxtpx:atemp>
</gpxtpx:TrackPointExtension>
</extensions>
</trkpt>
<trkpt lat="47.71580033004284" lon="12.151821199804544">
<ele>462</ele>
<time>2012-03-03T10:41:34Z</time>
<extensions>
<gpxtpx:TrackPointExtension>
<gpxtpx:hr>160</gpxtpx:hr>
<gpxtpx:atemp>6</gpxtpx:atemp>
</gpxtpx:TrackPointExtension>
</extensions>
</trkpt>
<trkpt lat="47.71621221676469" lon="12.151384251192212">
<ele>462</ele>
<time>2012-03-03T10:41:43Z</time>
<extensions>
<gpxtpx:TrackPointExtension>
<gpxtpx:hr>160</gpxtpx:hr>
<gpxtpx:atemp>6</gpxtpx:atemp>
</gpxtpx:TrackPointExtension>
</extensions>
</trkpt>
<trkpt lat="47.716580433771014" lon="12.151037827134132">
<ele>462</ele>
<time>2012-03-03T10:41:51Z</time>
<extensions>
<gpxtpx:TrackPointExtension>
<gpxtpx:hr>160</gpxtpx:hr>
<gpxtpx:atemp>6</gpxtpx:atemp>
</gpxtpx:TrackPointExtension>
</extensions>
</trkpt>
<trkpt lat="47.71697354502976" lon="12.150717722252011">
<ele>462</ele>
<time>2012-03-03T10:41:59Z</time>
<extensions>
<gpxtpx:TrackPointExtension>
<gpxtpx:hr>161</gpxtpx:hr>
<gpxtpx:atemp>6</gpxtpx:atemp>
</gpxtpx:TrackPointExtension>
</extensions>
</trkpt>
<trkpt lat="47.717437567189336" lon="12.150393258780241">
<ele>462</ele>
<time>2012-03-03T10:42:08Z</time>
<extensions>
<gpxtpx:TrackPointExtension>
<gpxtpx:hr>162</gpxtpx:hr>
<gpxtpx:atemp>6</gpxtpx:atemp>
</gpxtpx:TrackPointExtension>
</extensions>
</trkpt>
<trkpt lat="47.71779698319733" lon="12.150168875232339">
<ele>462</ele>
<time>2012-03-03T10:42:15Z</time>
<extensions>
<gpxtpx:TrackPointExtension>
<gpxtpx:hr>163</gpxtpx:hr>
<gpxtpx:atemp>6</gpxtpx:atemp>
</gpxtpx:TrackPointExtension>
</extensions>
</trkpt>
<trkpt lat="47.71799923852086" lon="12.150054713711143">
<ele>462</ele>
<time>2012-03-03T10:42:19Z</time>
<extensions>
<gpxtpx:TrackPointExtension>
<gpxtpx:hr>162</gpxtpx:hr>
<gpxtpx:atemp>6</gpxtpx:atemp>
</gpxtpx:TrackPointExtension>
</extensions>
</trkpt>
<trkpt lat="47.71810619160533" lon="12.150052534416318">
<ele>462</ele>
<time>2012-03-03T10:42:21Z</time>
<extensions>
<gpxtpx:TrackPointExtension>
<gpxtpx:hr>163</gpxtpx:hr>
<gpxtpx:atemp>6</gpxtpx:atemp>
</gpxtpx:TrackPointExtension>
</extensions>
</trkpt>
<trkpt lat="47.7182615082711" lon="12.150102574378252">
<ele>462</ele>
<time>2012-03-03T10:42:24Z</time>
<extensions>
<gpxtpx:TrackPointExtension>
<gpxtpx:hr>163</gpxtpx:hr>
<gpxtpx:atemp>6</gpxtpx:atemp>
</gpxtpx:TrackPointExtension>
</extensions>
</trkpt>
<trkpt lat="47.718308195471764" lon="12.15009218081832">
<ele>462</ele>
<time>2012-03-03T10:42:25Z</time>
<extensions>
<gpxtpx:TrackPointExtension>
<gpxtpx:hr>163</gpxtpx:hr>
<gpxtpx:atemp>6</gpxtpx:atemp>
</gpxtpx:TrackPointExtension>
</extensions>
</trkpt>
<trkpt lat="47.71841062232852" lon="12.150087486952543">
<ele>462</ele>
<time>2012-03-03T10:42:29Z</time>
<extensions>
<gpxtpx:TrackPointExtension>
<gpxtpx:hr>163</gpxtpx:hr>
<gpxtpx:atemp>6</gpxtpx:atemp>
</gpxtpx:TrackPointExtension>
</extensions>
</trkpt>
<trkpt lat="47.71844532340765" lon="12.15013719163835">
<ele>462</ele>
<time>2012-03-03T10:42:31Z</time>
<extensions>
<gpxtpx:TrackPointExtension>
<gpxtpx:hr>161</gpxtpx:hr>
<gpxtpx:atemp>6</gpxtpx:atemp>
</gpxtpx:TrackPointExtension>
</extensions>
</trkpt>
<trkpt lat="47.718493435531855" lon="12.15028228238225">
<ele>462</ele>
<time>2012-03-03T10:42:35Z</time>
<extensions>
<gpxtpx:TrackPointExtension>
<gpxtpx:hr>158</gpxtpx:hr>
<gpxtpx:atemp>6</gpxtpx:atemp>
</gpxtpx:TrackPointExtension>
</extensions>
</trkpt>
<trkpt lat="47.71854565478861" lon="12.150376327335835">
<ele>462</ele>
<time>2012-03-03T10:42:38Z</time>
<extensions>
<gpxtpx:TrackPointExtension>
<gpxtpx:hr>156</gpxtpx:hr>
<gpxtpx:atemp>6</gpxtpx:atemp>
</gpxtpx:TrackPointExtension>
</extensions>
</trkpt>
<trkpt lat="47.71856996230781" lon="12.150418739765882">
<ele>461</ele>
<time>2012-03-03T10:42:39Z</time>
<extensions>
<gpxtpx:TrackPointExtension>
<gpxtpx:hr>155</gpxtpx:hr>
<gpxtpx:atemp>6</gpxtpx:atemp>
</gpxtpx:TrackPointExtension>
</extensions>
</trkpt>
<trkpt lat="47.71859535947442" lon="12.150465929880738">
<ele>461</ele>
<time>2012-03-03T10:42:40Z</time>
<extensions>
<gpxtpx:TrackPointExtension>
<gpxtpx:hr>155</gpxtpx:hr>
<gpxtpx:atemp>6</gpxtpx:atemp>
</gpxtpx:TrackPointExtension>
</extensions>
</trkpt>
<trkpt lat="47.71863358095288" lon="12.150523345917463">
<ele>460</ele>
<time>2012-03-03T10:42:41Z</time>
<extensions>
<gpxtpx:TrackPointExtension>
<gpxtpx:hr>154</gpxtpx:hr>
<gpxtpx:atemp>6</gpxtpx:atemp>
</gpxtpx:TrackPointExtension>
</extensions>
</trkpt>
<trkpt lat="47.71868915297091" lon="12.150581516325474">
<ele>460</ele>
<time>2012-03-03T10:42:42Z</time>
<extensions>
<gpxtpx:TrackPointExtension>
<gpxtpx:hr>153</gpxtpx:hr>
<gpxtpx:atemp>6</gpxtpx:atemp>
</gpxtpx:TrackPointExtension>
</extensions>
</trkpt>
<trkpt lat="47.718742713332176" lon="12.150673130527139">
<ele>460</ele>
<time>2012-03-03T10:42:43Z</time>
<extensions>
<gpxtpx:TrackPointExtension>
<gpxtpx:hr>152</gpxtpx:hr>
<gpxtpx:atemp>6</gpxtpx:atemp>
</gpxtpx:TrackPointExtension>
</extensions>
</trkpt>
<trkpt lat="47.71877456456423" lon="12.150763822719455">
<ele>460</ele>
<time>2012-03-03T10:42:44Z</time>
<extensions>
<gpxtpx:TrackPointExtension>
<gpxtpx:hr>151</gpxtpx:hr>
<gpxtpx:atemp>6</gpxtpx:atemp>
</gpxtpx:TrackPointExtension>
</extensions>
</trkpt>
<trkpt lat="47.71878403611481" lon="12.150861723348498">
<ele>459</ele>
<time>2012-03-03T10:42:45Z</time>
<extensions>
<gpxtpx:TrackPointExtension>
<gpxtpx:hr>150</gpxtpx:hr>
<gpxtpx:atemp>6</gpxtpx:atemp>
</gpxtpx:TrackPointExtension>
</extensions>
</trkpt>
<trkpt lat="47.71876911632717" lon="12.150964066386223">
<ele>459</ele>
<time>2012-03-03T10:42:46Z</time>
<extensions>
<gpxtpx:TrackPointExtension>
<gpxtpx:hr>150</gpxtpx:hr>
<gpxtpx:atemp>6</gpxtpx:atemp>
</gpxtpx:TrackPointExtension>
</extensions>
</trkpt>
<trkpt lat="47.71875059232116" lon="12.151063811033964">
<ele>458</ele>
<time>2012-03-03T10:42:47Z</time>
<extensions>
<gpxtpx:TrackPointExtension>
<gpxtpx:hr>149</gpxtpx:hr>
<gpxtpx:atemp>6</gpxtpx:atemp>
</gpxtpx:TrackPointExtension>
</extensions>
</trkpt>
<trkpt lat="47.71872175857425" lon="12.151160286739469">
<ele>458</ele>
<time>2012-03-03T10:42:48Z</time>
<extensions>
<gpxtpx:TrackPointExtension>
<gpxtpx:hr>149</gpxtpx:hr>
<gpxtpx:atemp>6</gpxtpx:atemp>
</gpxtpx:TrackPointExtension>
</extensions>
</trkpt>
<trkpt lat="47.718654703348875" lon="12.151531772688031">
<ele>458</ele>
<time>2012-03-03T10:42:52Z</time>
<extensions>
<gpxtpx:TrackPointExtension>
<gpxtpx:hr>146</gpxtpx:hr>
<gpxtpx:atemp>6</gpxtpx:atemp>
</gpxtpx:TrackPointExtension>
</extensions>
</trkpt>
<trkpt lat="47.718624360859394" lon="12.1517198625952">
<ele>458</ele>
<time>2012-03-03T10:42:54Z</time>
<extensions>
<gpxtpx:TrackPointExtension>
<gpxtpx:hr>143</gpxtpx:hr>
<gpxtpx:atemp>6</gpxtpx:atemp>
</gpxtpx:TrackPointExtension>
</extensions>
</trkpt>
<trkpt lat="47.718590749427676" lon="12.152011720463634">
<ele>458</ele>
<time>2012-03-03T10:42:57Z</time>
<extensions>
<gpxtpx:TrackPointExtension>
<gpxtpx:hr>140</gpxtpx:hr>
<gpxtpx:atemp>6</gpxtpx:atemp>
</gpxtpx:TrackPointExtension>
</extensions>
</trkpt>
<trkpt lat="47.718565352261066" lon="12.152302404865623">
<ele>458</ele>
<time>2012-03-03T10:43:00Z</time>
<extensions>
<gpxtpx:TrackPointExtension>
<gpxtpx:hr>138</gpxtpx:hr>
<gpxtpx:atemp>6</gpxtpx:atemp>
</gpxtpx:TrackPointExtension>
</extensions>
</trkpt>
<trkpt lat="47.71850206889212" lon="12.152975890785456">
<ele>458</ele>
<time>2012-03-03T10:43:07Z</time>
<extensions>
<gpxtpx:TrackPointExtension>
<gpxtpx:hr>139</gpxtpx:hr>
<gpxtpx:atemp>6</gpxtpx:atemp>
</gpxtpx:TrackPointExtension>
</extensions>
</trkpt>
<trkpt lat="47.71854263730347" lon="12.153237909078598">
<ele>458</ele>
<time>2012-03-03T10:43:10Z</time>
<extensions>
<gpxtpx:TrackPointExtension>
<gpxtpx:hr>138</gpxtpx:hr>
<gpxtpx:atemp>6</gpxtpx:atemp>
</gpxtpx:TrackPointExtension>
</extensions>
</trkpt>
<trkpt lat="47.71865654736757" lon="12.153451899066567">
<ele>458</ele>
<time>2012-03-03T10:43:13Z</time>
<extensions>
<gpxtpx:TrackPointExtension>
<gpxtpx:hr>138</gpxtpx:hr>
<gpxtpx:atemp>6</gpxtpx:atemp>
</gpxtpx:TrackPointExtension>
</extensions>
</trkpt>
<trkpt lat="47.71871404722333" lon="12.153483498841524">
<ele>458</ele>
<time>2012-03-03T10:43:14Z</time>
<extensions>
<gpxtpx:TrackPointExtension>
<gpxtpx:hr>139</gpxtpx:hr>
<gpxtpx:atemp>6</gpxtpx:atemp>
</gpxtpx:TrackPointExtension>
</extensions>
</trkpt>
<trkpt lat="47.718892162665725" lon="12.153514930978417">
<ele>458</ele>
<time>2012-03-03T10:43:17Z</time>
<extensions>
<gpxtpx:TrackPointExtension>
<gpxtpx:hr>139</gpxtpx:hr>
<gpxtpx:atemp>6</gpxtpx:atemp>
</gpxtpx:TrackPointExtension>
</extensions>
</trkpt>
<trkpt lat="47.71906843408942" lon="12.153442427515984">
<ele>458</ele>
<time>2012-03-03T10:43:20Z</time>
<extensions>
<gpxtpx:TrackPointExtension>
<gpxtpx:hr>141</gpxtpx:hr>
<gpxtpx:atemp>6</gpxtpx:atemp>
</gpxtpx:TrackPointExtension>
</extensions>
</trkpt>
<trkpt lat="47.71912316791713" lon="12.153413007035851">
<ele>458</ele>
<time>2012-03-03T10:43:21Z</time>
<extensions>
<gpxtpx:TrackPointExtension>
<gpxtpx:hr>141</gpxtpx:hr>
<gpxtpx:atemp>6</gpxtpx:atemp>
</gpxtpx:TrackPointExtension>
</extensions>
</trkpt>
<trkpt lat="47.719179997220635" lon="12.153375875204802">
<ele>458</ele>
<time>2012-03-03T10:43:22Z</time>
<extensions>
<gpxtpx:TrackPointExtension>
<gpxtpx:hr>141</gpxtpx:hr>
<gpxtpx:atemp>6</gpxtpx:atemp>
</gpxtpx:TrackPointExtension>
</extensions>
</trkpt>
<trkpt lat="47.71939775906503" lon="12.153226928785443">
<ele>458</ele>
<time>2012-03-03T10:43:26Z</time>
<extensions>
<gpxtpx:TrackPointExtension>
<gpxtpx:hr>141</gpxtpx:hr>
<gpxtpx:atemp>6</gpxtpx:atemp>
</gpxtpx:TrackPointExtension>
</extensions>
</trkpt>
<trkpt lat="47.71961317397654" lon="12.1530737914145">
<ele>458</ele>
<time>2012-03-03T10:43:30Z</time>
<extensions>
<gpxtpx:TrackPointExtension>
<gpxtpx:hr>144</gpxtpx:hr>
<gpxtpx:atemp>6</gpxtpx:atemp>
</gpxtpx:TrackPointExtension>
</extensions>
</trkpt>
<trkpt lat="47.719833701848984" lon="12.152923922985792">
<ele>458</ele>
<time>2012-03-03T10:43:34Z</time>
<extensions>
<gpxtpx:TrackPointExtension>
<gpxtpx:hr>145</gpxtpx:hr>
<gpxtpx:atemp>6</gpxtpx:atemp>
</gpxtpx:TrackPointExtension>
</extensions>
</trkpt>
<trkpt lat="47.720219269394875" lon="12.152674477547407">
<ele>458</ele>
<time>2012-03-03T10:43:41Z</time>
<extensions>
<gpxtpx:TrackPointExtension>
<gpxtpx:hr>148</gpxtpx:hr>
<gpxtpx:atemp>6</gpxtpx:atemp>
</gpxtpx:TrackPointExtension>
</extensions>
</trkpt>
<trkpt lat="47.72056711837649" lon="12.152442131191492">
<ele>458</ele>
<time>2012-03-03T10:43:47Z</time>
<extensions>
<gpxtpx:TrackPointExtension>
<gpxtpx:hr>151</gpxtpx:hr>
<gpxtpx:atemp>6</gpxtpx:atemp>
</gpxtpx:TrackPointExtension>
</extensions>
</trkpt>
<trkpt lat="47.72062394768" lon="12.152402400970459">
<ele>458</ele>
<time>2012-03-03T10:43:48Z</time>
<extensions>
<gpxtpx:TrackPointExtension>
<gpxtpx:hr>151</gpxtpx:hr>
<gpxtpx:atemp>6</gpxtpx:atemp>
</gpxtpx:TrackPointExtension>
</extensions>
</trkpt>
<trkpt lat="47.721082186326385" lon="12.15209067799151">
<ele>457</ele>
<time>2012-03-03T10:43:56Z</time>
<extensions>
<gpxtpx:TrackPointExtension>
<gpxtpx:hr>151</gpxtpx:hr>
<gpxtpx:atemp>6</gpxtpx:atemp>
</gpxtpx:TrackPointExtension>
</extensions>
</trkpt>
<trkpt lat="47.72113909944892" lon="12.152055809274316">
<ele>457</ele>
<time>2012-03-03T10:43:57Z</time>
<extensions>
<gpxtpx:TrackPointExtension>
<gpxtpx:hr>151</gpxtpx:hr>
<gpxtpx:atemp>6</gpxtpx:atemp>
</gpxtpx:TrackPointExtension>
</extensions>
</trkpt>
<trkpt lat="47.72119626402855" lon="12.152023036032915">
<ele>456</ele>
<time>2012-03-03T10:43:58Z</time>
<extensions>
<gpxtpx:TrackPointExtension>
<gpxtpx:hr>151</gpxtpx:hr>
<gpxtpx:atemp>6</gpxtpx:atemp>
</gpxtpx:TrackPointExtension>
</extensions>
</trkpt>
<trkpt lat="47.72125409916043" lon="12.151989256963134">
<ele>456</ele>
<time>2012-03-03T10:43:59Z</time>
<extensions>
<gpxtpx:TrackPointExtension>
<gpxtpx:hr>152</gpxtpx:hr>
<gpxtpx:atemp>6</gpxtpx:atemp>
</gpxtpx:TrackPointExtension>
</extensions>
</trkpt>
<trkpt lat="47.72148460149765" lon="12.151846177875996">
<ele>456</ele>
<time>2012-03-03T10:44:03Z</time>
<extensions>
<gpxtpx:TrackPointExtension>
<gpxtpx:hr>152</gpxtpx:hr>
<gpxtpx:atemp>6</gpxtpx:atemp>
</gpxtpx:TrackPointExtension>
</extensions>
</trkpt>
<trkpt lat="47.721920711919665" lon="12.15156496502459">
<ele>456</ele>
<time>2012-03-03T10:44:11Z</time>
<extensions>
<gpxtpx:TrackPointExtension>
<gpxtpx:hr>152</gpxtpx:hr>
<gpxtpx:atemp>6</gpxtpx:atemp>
</gpxtpx:TrackPointExtension>
</extensions>
</trkpt>
<trkpt lat="47.72226160392165" lon="12.151342509314418">
<ele>456</ele>
<time>2012-03-03T10:44:17Z</time>
<extensions>
<gpxtpx:TrackPointExtension>
<gpxtpx:hr>152</gpxtpx:hr>
<gpxtpx:atemp>6</gpxtpx:atemp>
</gpxtpx:TrackPointExtension>
</extensions>
</trkpt>
<trkpt lat="47.72271204739809" lon="12.151048136875033">
<ele>456</ele>
<time>2012-03-03T10:44:25Z</time>
<extensions>
<gpxtpx:TrackPointExtension>
<gpxtpx:hr>152</gpxtpx:hr>
<gpxtpx:atemp>6</gpxtpx:atemp>
</gpxtpx:TrackPointExtension>
</extensions>
</trkpt>
<trkpt lat="47.72309987805784" lon="12.150789555162191">
<ele>456</ele>
<time>2012-03-03T10:44:32Z</time>
<extensions>
<gpxtpx:TrackPointExtension>
<gpxtpx:hr>153</gpxtpx:hr>
<gpxtpx:atemp>6</gpxtpx:atemp>
</gpxtpx:TrackPointExtension>
</extensions>
</trkpt>
<trkpt lat="47.723493073135614" lon="12.15052175335586">
<ele>456</ele>
<time>2012-03-03T10:44:39Z</time>
<extensions>
<gpxtpx:TrackPointExtension>
<gpxtpx:hr>153</gpxtpx:hr>
<gpxtpx:atemp>6</gpxtpx:atemp>
</gpxtpx:TrackPointExtension>
</extensions>
</trkpt>
<trkpt lat="47.723945528268814" lon="12.15022025629878">
<ele>456</ele>
<time>2012-03-03T10:44:47Z</time>
<extensions>
<gpxtpx:TrackPointExtension>
<gpxtpx:hr>153</gpxtpx:hr>
<gpxtpx:atemp>6</gpxtpx:atemp>
</gpxtpx:TrackPointExtension>
</extensions>
</trkpt>
<trkpt lat="47.72439303807914" lon="12.14992118999362">
<ele>456</ele>
<time>2012-03-03T10:44:55Z</time>
<extensions>
<gpxtpx:TrackPointExtension>
<gpxtpx:hr>154</gpxtpx:hr>
<gpxtpx:atemp>6</gpxtpx:atemp>
</gpxtpx:TrackPointExtension>
</extensions>
</trkpt>
<trkpt lat="47.72473636083305" lon="12.14970426633954">
<ele>456</ele>
<time>2012-03-03T10:45:01Z</time>
<extensions>
<gpxtpx:TrackPointExtension>
<gpxtpx:hr>154</gpxtpx:hr>
<gpxtpx:atemp>6</gpxtpx:atemp>
</gpxtpx:TrackPointExtension>
</extensions>
</trkpt>
<trkpt lat="47.72484482266009" lon="12.149623548611999">
<ele>456</ele>
<time>2012-03-03T10:45:03Z</time>
<extensions>
<gpxtpx:TrackPointExtension>
<gpxtpx:hr>155</gpxtpx:hr>
<gpxtpx:atemp>6</gpxtpx:atemp>
</gpxtpx:TrackPointExtension>
</extensions>
</trkpt>
<trkpt lat="47.725253608077765" lon="12.149371923878789">
<ele>456</ele>
<time>2012-03-03T10:45:10Z</time>
<extensions>
<gpxtpx:TrackPointExtension>
<gpxtpx:hr>155</gpxtpx:hr>
<gpxtpx:atemp>6</gpxtpx:atemp>
</gpxtpx:TrackPointExtension>
</extensions>
</trkpt>
<trkpt lat="47.72566926665604" lon="12.149118203669786">
<ele>456</ele>
<time>2012-03-03T10:45:17Z</time>
<extensions>
<gpxtpx:TrackPointExtension>
<gpxtpx:hr>158</gpxtpx:hr>
<gpxtpx:atemp>6</gpxtpx:atemp>
</gpxtpx:TrackPointExtension>
</extensions>
</trkpt>
<trkpt lat="47.72605324164033" lon="12.148875966668129">
<ele>456</ele>
<time>2012-03-03T10:45:24Z</time>
<extensions>
<gpxtpx:TrackPointExtension>
<gpxtpx:hr>159</gpxtpx:hr>
<gpxtpx:atemp>6</gpxtpx:atemp>
</gpxtpx:TrackPointExtension>
</extensions>
</trkpt>
<trkpt lat="47.72650293074548" lon="12.148558460175991">
<ele>456</ele>
<time>2012-03-03T10:45:32Z</time>
<extensions>
<gpxtpx:TrackPointExtension>
<gpxtpx:hr>159</gpxtpx:hr>
<gpxtpx:atemp>6</gpxtpx:atemp>
</gpxtpx:TrackPointExtension>
</extensions>
</trkpt>
<trkpt lat="47.726892437785864" lon="12.148299040272832">
<ele>456</ele>
<time>2012-03-03T10:45:39Z</time>
<extensions>
<gpxtpx:TrackPointExtension>
<gpxtpx:hr>159</gpxtpx:hr>
<gpxtpx:atemp>6</gpxtpx:atemp>
</gpxtpx:TrackPointExtension>
</extensions>
</trkpt>
<trkpt lat="47.727327374741435" lon="12.147995699197054">
<ele>456</ele>
<time>2012-03-03T10:45:47Z</time>
<extensions>
<gpxtpx:TrackPointExtension>
<gpxtpx:hr>158</gpxtpx:hr>
<gpxtpx:atemp>6</gpxtpx:atemp>
</gpxtpx:TrackPointExtension>
</extensions>
</trkpt>
<trkpt lat="47.72771646268666" lon="12.1477170009166">
<ele>456</ele>
<time>2012-03-03T10:45:54Z</time>
<extensions>
<gpxtpx:TrackPointExtension>
<gpxtpx:hr>158</gpxtpx:hr>
<gpxtpx:atemp>6</gpxtpx:atemp>
</gpxtpx:TrackPointExtension>
</extensions>
</trkpt>
<trkpt lat="47.72782861255109" lon="12.147634355351329">
<ele>456</ele>
<time>2012-03-03T10:45:56Z</time>
<extensions>
<gpxtpx:TrackPointExtension>
<gpxtpx:hr>157</gpxtpx:hr>
<gpxtpx:atemp>6</gpxtpx:atemp>
</gpxtpx:TrackPointExtension>
</extensions>
</trkpt>
<trkpt lat="47.728054923936725" lon="12.147482391446829">
<ele>456</ele>
<time>2012-03-03T10:46:00Z</time>
<extensions>
<gpxtpx:TrackPointExtension>
<gpxtpx:hr>157</gpxtpx:hr>
<gpxtpx:atemp>6</gpxtpx:atemp>
</gpxtpx:TrackPointExtension>
</extensions>
</trkpt>
<trkpt lat="47.72857426665723" lon="12.147144181653857">
<ele>456</ele>
<time>2012-03-03T10:46:09Z</time>
<extensions>
<gpxtpx:TrackPointExtension>
<gpxtpx:hr>158</gpxtpx:hr>
<gpxtpx:atemp>6</gpxtpx:atemp>
</gpxtpx:TrackPointExtension>
</extensions>
</trkpt>
<trkpt lat="47.728639394044876" lon="12.147109815850854">
<ele>456</ele>
<time>2012-03-03T10:46:10Z</time>
<extensions>
<gpxtpx:TrackPointExtension>
<gpxtpx:hr>158</gpxtpx:hr>
<gpxtpx:atemp>6</gpxtpx:atemp>
</gpxtpx:TrackPointExtension>
</extensions>
</trkpt>
<trkpt lat="47.7291767578572" lon="12.14678954333067">
<ele>456</ele>
<time>2012-03-03T10:46:19Z</time>
<extensions>
<gpxtpx:TrackPointExtension>
<gpxtpx:hr>156</gpxtpx:hr>
<gpxtpx:atemp>6</gpxtpx:atemp>
</gpxtpx:TrackPointExtension>
</extensions>
</trkpt>
<trkpt lat="47.72961286827922" lon="12.14649391360581">
<ele>456</ele>
<time>2012-03-03T10:46:27Z</time>
<extensions>
<gpxtpx:TrackPointExtension>
<gpxtpx:hr>155</gpxtpx:hr>
<gpxtpx:atemp>6</gpxtpx:atemp>
</gpxtpx:TrackPointExtension>
</extensions>
</trkpt>
<trkpt lat="47.72997060790658" lon="12.146254861727357">
<ele>456</ele>
<time>2012-03-03T10:46:34Z</time>
<extensions>
<gpxtpx:TrackPointExtension>
<gpxtpx:hr>154</gpxtpx:hr>
<gpxtpx:atemp>6</gpxtpx:atemp>
</gpxtpx:TrackPointExtension>
</extensions>
</trkpt>
<trkpt lat="47.73010807111859" lon="12.146174479275942">
<ele>456</ele>
<time>2012-03-03T10:46:37Z</time>
<extensions>
<gpxtpx:TrackPointExtension>
<gpxtpx:hr>153</gpxtpx:hr>
<gpxtpx:atemp>6</gpxtpx:atemp>
</gpxtpx:TrackPointExtension>
</extensions>
</trkpt>
<trkpt lat="47.730170264840126" lon="12.146117985248566">
<ele>456</ele>
<time>2012-03-03T10:46:39Z</time>
<extensions>
<gpxtpx:TrackPointExtension>
<gpxtpx:hr>152</gpxtpx:hr>
<gpxtpx:atemp>6</gpxtpx:atemp>
</gpxtpx:TrackPointExtension>
</extensions>
</trkpt>
<trkpt lat="47.73025877773762" lon="12.146003991365433">
<ele>456</ele>
<time>2012-03-03T10:46:42Z</time>
<extensions>
<gpxtpx:TrackPointExtension>
<gpxtpx:hr>152</gpxtpx:hr>
<gpxtpx:atemp>6</gpxtpx:atemp>
</gpxtpx:TrackPointExtension>
</extensions>
</trkpt>
<trkpt lat="47.73030077107251" lon="12.145990412682295">
<ele>456</ele>
<time>2012-03-03T10:46:43Z</time>
<extensions>
<gpxtpx:TrackPointExtension>
<gpxtpx:hr>151</gpxtpx:hr>
<gpxtpx:atemp>6</gpxtpx:atemp>
</gpxtpx:TrackPointExtension>
</extensions>
</trkpt>
<trkpt lat="47.730387104675174" lon="12.14597255922854">
<ele>456</ele>
<time>2012-03-03T10:46:45Z</time>
<extensions>
<gpxtpx:TrackPointExtension>
<gpxtpx:hr>148</gpxtpx:hr>
<gpxtpx:atemp>6</gpxtpx:atemp>
</gpxtpx:TrackPointExtension>
</extensions>
</trkpt>
<trkpt lat="47.730427170172334" lon="12.145956885069609">
<ele>456</ele>
<time>2012-03-03T10:46:46Z</time>
<extensions>
<gpxtpx:TrackPointExtension>
<gpxtpx:hr>146</gpxtpx:hr>
<gpxtpx:atemp>6</gpxtpx:atemp>
</gpxtpx:TrackPointExtension>
</extensions>
</trkpt>
<trkpt lat="47.73051937110722" lon="12.145901480689645">
<ele>456</ele>
<time>2012-03-03T10:46:48Z</time>
<extensions>
<gpxtpx:TrackPointExtension>
<gpxtpx:hr>144</gpxtpx:hr>
<gpxtpx:atemp>6</gpxtpx:atemp>
</gpxtpx:TrackPointExtension>
</extensions>
</trkpt>
<trkpt lat="47.73089689202607" lon="12.145665949210525">
<ele>456</ele>
<time>2012-03-03T10:46:55Z</time>
<extensions>
<gpxtpx:TrackPointExtension>
<gpxtpx:hr>146</gpxtpx:hr>
<gpxtpx:atemp>6</gpxtpx:atemp>
</gpxtpx:TrackPointExtension>
</extensions>
</trkpt>
<trkpt lat="47.7313563041389" lon="12.145378114655614">
<ele>456</ele>
<time>2012-03-03T10:47:03Z</time>
<extensions>
<gpxtpx:TrackPointExtension>
<gpxtpx:hr>149</gpxtpx:hr>
<gpxtpx:atemp>6</gpxtpx:atemp>
</gpxtpx:TrackPointExtension>
</extensions>
</trkpt>
<trkpt lat="47.73177841678262" lon="12.145107463002205">
<ele>456</ele>
<time>2012-03-03T10:47:10Z</time>
<extensions>
<gpxtpx:TrackPointExtension>
<gpxtpx:hr>150</gpxtpx:hr>
<gpxtpx:atemp>6</gpxtpx:atemp>
</gpxtpx:TrackPointExtension>
</extensions>
</trkpt>
<trkpt lat="47.732260627672076" lon="12.144791381433606">
<ele>456</ele>
<time>2012-03-03T10:47:18Z</time>
<extensions>
<gpxtpx:TrackPointExtension>
<gpxtpx:hr>148</gpxtpx:hr>
<gpxtpx:atemp>6</gpxtpx:atemp>
</gpxtpx:TrackPointExtension>
</extensions>
</trkpt>
<trkpt lat="47.7326116617769" lon="12.144553419202566">
<ele>456</ele>
<time>2012-03-03T10:47:24Z</time>
<extensions>
<gpxtpx:TrackPointExtension>
<gpxtpx:hr>151</gpxtpx:hr>
<gpxtpx:atemp>6</gpxtpx:atemp>
</gpxtpx:TrackPointExtension>
</extensions>
</trkpt>
<trkpt lat="47.73266991600394" lon="12.144514694809914">
<ele>456</ele>
<time>2012-03-03T10:47:25Z</time>
<extensions>
<gpxtpx:TrackPointExtension>
<gpxtpx:hr>152</gpxtpx:hr>
<gpxtpx:atemp>6</gpxtpx:atemp>
</gpxtpx:TrackPointExtension>
</extensions>
</trkpt>
<trkpt lat="47.73320174776018" lon="12.144165588542819">
<ele>456</ele>
<time>2012-03-03T10:47:34Z</time>
<extensions>
<gpxtpx:TrackPointExtension>
<gpxtpx:hr>153</gpxtpx:hr>
<gpxtpx:atemp>6</gpxtpx:atemp>
</gpxtpx:TrackPointExtension>
</extensions>
</trkpt>
<trkpt lat="47.73372955620289" lon="12.14380843564868">
<ele>456</ele>
<time>2012-03-03T10:47:43Z</time>
<extensions>
<gpxtpx:TrackPointExtension>
<gpxtpx:hr>154</gpxtpx:hr>
<gpxtpx:atemp>6</gpxtpx:atemp>
</gpxtpx:TrackPointExtension>
</extensions>
</trkpt>
<trkpt lat="47.73414513096213" lon="12.143524205312133">
<ele>456</ele>
<time>2012-03-03T10:47:50Z</time>
<extensions>
<gpxtpx:TrackPointExtension>
<gpxtpx:hr>154</gpxtpx:hr>
<gpxtpx:atemp>6</gpxtpx:atemp>
</gpxtpx:TrackPointExtension>
</extensions>
</trkpt>
<trkpt lat="47.73462633602321" lon="12.143218936398625">
<ele>456</ele>
<time>2012-03-03T10:47:58Z</time>
<extensions>
<gpxtpx:TrackPointExtension>
<gpxtpx:hr>153</gpxtpx:hr>
<gpxtpx:atemp>6</gpxtpx:atemp>
</gpxtpx:TrackPointExtension>
</extensions>
</trkpt>
<trkpt lat="47.7350948844105" lon="12.142897238954902">
<ele>456</ele>
<time>2012-03-03T10:48:06Z</time>
<extensions>
<gpxtpx:TrackPointExtension>
<gpxtpx:hr>155</gpxtpx:hr>
<gpxtpx:atemp>6</gpxtpx:atemp>
</gpxtpx:TrackPointExtension>
</extensions>
</trkpt>
<trkpt lat="47.73538514971733" lon="12.142704287543893">
<ele>456</ele>
<time>2012-03-03T10:48:11Z</time>
<extensions>
<gpxtpx:TrackPointExtension>
<gpxtpx:hr>155</gpxtpx:hr>
<gpxtpx:atemp>6</gpxtpx:atemp>
</gpxtpx:TrackPointExtension>
</extensions>
</trkpt>
<trkpt lat="47.73583970032632" lon="12.142405891790986">
<ele>456</ele>
<time>2012-03-03T10:48:19Z</time>
<extensions>
<gpxtpx:TrackPointExtension>
<gpxtpx:hr>156</gpxtpx:hr>
<gpxtpx:atemp>6</gpxtpx:atemp>
</gpxtpx:TrackPointExtension>
</extensions>
</trkpt>
<trkpt lat="47.73637178353965" lon="12.142069106921554">
<ele>456</ele>
<time>2012-03-03T10:48:28Z</time>
<extensions>
<gpxtpx:TrackPointExtension>
<gpxtpx:hr>156</gpxtpx:hr>
<gpxtpx:atemp>6</gpxtpx:atemp>
</gpxtpx:TrackPointExtension>
</extensions>
</trkpt>
<trkpt lat="47.73677947930992" lon="12.141809770837426">
<ele>456</ele>
<time>2012-03-03T10:48:35Z</time>
<extensions>
<gpxtpx:TrackPointExtension>
<gpxtpx:hr>158</gpxtpx:hr>
<gpxtpx:atemp>6</gpxtpx:atemp>
</gpxtpx:TrackPointExtension>
</extensions>
</trkpt>
<trkpt lat="47.73706739768386" lon="12.141624111682177">
<ele>456</ele>
<time>2012-03-03T10:48:40Z</time>
<extensions>
<gpxtpx:TrackPointExtension>
<gpxtpx:hr>155</gpxtpx:hr>
<gpxtpx:atemp>6</gpxtpx:atemp>
</gpxtpx:TrackPointExtension>
</extensions>
</trkpt>
<trkpt lat="47.73729655891657" lon="12.141474913805723">
<ele>456</ele>
<time>2012-03-03T10:48:44Z</time>
<extensions>
<gpxtpx:TrackPointExtension>
<gpxtpx:hr>155</gpxtpx:hr>
<gpxtpx:atemp>6</gpxtpx:atemp>
</gpxtpx:TrackPointExtension>
</extensions>
</trkpt>
<trkpt lat="47.7377406321466" lon="12.141182888299227">
<ele>456</ele>
<time>2012-03-03T10:48:52Z</time>
<extensions>
<gpxtpx:TrackPointExtension>
<gpxtpx:hr>156</gpxtpx:hr>
<gpxtpx:atemp>6</gpxtpx:atemp>
</gpxtpx:TrackPointExtension>
</extensions>
</trkpt>
<trkpt lat="47.738130474463105" lon="12.140917433425784">
<ele>456</ele>
<time>2012-03-03T10:48:59Z</time>
<extensions>
<gpxtpx:TrackPointExtension>
<gpxtpx:hr>155</gpxtpx:hr>
<gpxtpx:atemp>6</gpxtpx:atemp>
</gpxtpx:TrackPointExtension>
</extensions>
</trkpt>
<trkpt lat="47.73863347247243" lon="12.140587354078889">
<ele>456</ele>
<time>2012-03-03T10:49:08Z</time>
<extensions>
<gpxtpx:TrackPointExtension>
<gpxtpx:hr>156</gpxtpx:hr>
<gpxtpx:atemp>6</gpxtpx:atemp>
</gpxtpx:TrackPointExtension>
</extensions>
</trkpt>
<trkpt lat="47.738976795226336" lon="12.140358863398433">
<ele>456</ele>
<time>2012-03-03T10:49:14Z</time>
<extensions>
<gpxtpx:TrackPointExtension>
<gpxtpx:hr>156</gpxtpx:hr>
<gpxtpx:atemp>6</gpxtpx:atemp>
</gpxtpx:TrackPointExtension>
</extensions>
</trkpt>
<trkpt lat="47.73942790925503" lon="12.140066921710968">
<ele>456</ele>
<time>2012-03-03T10:49:22Z</time>
<extensions>
<gpxtpx:TrackPointExtension>
<gpxtpx:hr>156</gpxtpx:hr>
<gpxtpx:atemp>6</gpxtpx:atemp>
</gpxtpx:TrackPointExtension>
</extensions>
</trkpt>
<trkpt lat="47.739811800420284" lon="12.139809262007475">
<ele>456</ele>
<time>2012-03-03T10:49:29Z</time>
<extensions>
<gpxtpx:TrackPointExtension>
<gpxtpx:hr>156</gpxtpx:hr>
<gpxtpx:atemp>6</gpxtpx:atemp>
</gpxtpx:TrackPointExtension>
</extensions>
</trkpt>
<trkpt lat="47.740168534219265" lon="12.139541795477271">
<ele>456</ele>
<time>2012-03-03T10:49:36Z</time>
<extensions>
<gpxtpx:TrackPointExtension>
<gpxtpx:hr>156</gpxtpx:hr>
<gpxtpx:atemp>6</gpxtpx:atemp>
</gpxtpx:TrackPointExtension>
</extensions>
</trkpt>
<trkpt lat="47.74042476899922" lon="12.139338115230203">
<ele>456</ele>
<time>2012-03-03T10:49:42Z</time>
<extensions>
<gpxtpx:TrackPointExtension>
<gpxtpx:hr>157</gpxtpx:hr>
<gpxtpx:atemp>6</gpxtpx:atemp>
</gpxtpx:TrackPointExtension>
</extensions>
</trkpt>
<trkpt lat="47.74050699546933" lon="12.139298552647233">
<ele>456</ele>
<time>2012-03-03T10:49:47Z</time>
<extensions>
<gpxtpx:TrackPointExtension>
<gpxtpx:hr>159</gpxtpx:hr>
<gpxtpx:atemp>6</gpxtpx:atemp>
</gpxtpx:TrackPointExtension>
</extensions>
</trkpt>
<trkpt lat="47.74050942622125" lon="12.139297546818852">
<ele>456</ele>
<time>2012-03-03T10:49:48Z</time>
<extensions>
<gpxtpx:TrackPointExtension>
<gpxtpx:hr>159</gpxtpx:hr>
<gpxtpx:atemp>6</gpxtpx:atemp>
</gpxtpx:TrackPointExtension>
</extensions>
</trkpt>
<trkpt lat="47.74052074179053" lon="12.139318501576781">
<ele>456</ele>
<time>2012-03-03T10:49:59Z</time>
<extensions>
<gpxtpx:TrackPointExtension>
<gpxtpx:hr>161</gpxtpx:hr>
<gpxtpx:atemp>6</gpxtpx:atemp>
</gpxtpx:TrackPointExtension>
</extensions>
</trkpt>
<trkpt lat="47.74054639041424" lon="12.139384550973773">
<ele>456</ele>
<time>2012-03-03T10:50:01Z</time>
<extensions>
<gpxtpx:TrackPointExtension>
<gpxtpx:hr>160</gpxtpx:hr>
<gpxtpx:atemp>6</gpxtpx:atemp>
</gpxtpx:TrackPointExtension>
</extensions>
</trkpt>
<trkpt lat="47.740594083443284" lon="12.139559229835868">
<ele>456</ele>
<time>2012-03-03T10:50:04Z</time>
<extensions>
<gpxtpx:TrackPointExtension>
<gpxtpx:hr>157</gpxtpx:hr>
<gpxtpx:atemp>6</gpxtpx:atemp>
</gpxtpx:TrackPointExtension>
</extensions>
</trkpt>
<trkpt lat="47.74061679840088" lon="12.139625363051891">
<ele>456</ele>
<time>2012-03-03T10:50:05Z</time>
<extensions>
<gpxtpx:TrackPointExtension>
<gpxtpx:hr>154</gpxtpx:hr>
<gpxtpx:atemp>6</gpxtpx:atemp>
</gpxtpx:TrackPointExtension>
</extensions>
</trkpt>
<trkpt lat="47.74066960439086" lon="12.139769531786442">
<ele>456</ele>
<time>2012-03-03T10:50:07Z</time>
<extensions>
<gpxtpx:TrackPointExtension>
<gpxtpx:hr>152</gpxtpx:hr>
<gpxtpx:atemp>6</gpxtpx:atemp>
</gpxtpx:TrackPointExtension>
</extensions>
</trkpt>
<trkpt lat="47.740788124501705" lon="12.140051499009132">
<ele>456</ele>
<time>2012-03-03T10:50:11Z</time>
<extensions>
<gpxtpx:TrackPointExtension>
<gpxtpx:hr>151</gpxtpx:hr>
<gpxtpx:atemp>6</gpxtpx:atemp>
</gpxtpx:TrackPointExtension>
</extensions>
</trkpt>
<trkpt lat="47.74088568985462" lon="12.140274541452527">
<ele>456</ele>
<time>2012-03-03T10:50:14Z</time>
<extensions>
<gpxtpx:TrackPointExtension>
<gpxtpx:hr>148</gpxtpx:hr>
<gpxtpx:atemp>6</gpxtpx:atemp>
</gpxtpx:TrackPointExtension>
</extensions>
</trkpt>
<trkpt lat="47.74098233319819" lon="12.140493309125304">
<ele>456</ele>
<time>2012-03-03T10:50:17Z</time>
<extensions>
<gpxtpx:TrackPointExtension>
<gpxtpx:hr>145</gpxtpx:hr>
<gpxtpx:atemp>6</gpxtpx:atemp>
</gpxtpx:TrackPointExtension>
</extensions>
</trkpt>
<trkpt lat="47.741216691210866" lon="12.141065206378698">
<ele>456</ele>
<time>2012-03-03T10:50:25Z</time>
<extensions>
<gpxtpx:TrackPointExtension>
<gpxtpx:hr>143</gpxtpx:hr>
<gpxtpx:atemp>6</gpxtpx:atemp>
</gpxtpx:TrackPointExtension>
</extensions>
</trkpt>
<trkpt lat="47.74142833426595" lon="12.141552278771996">
<ele>456</ele>
<time>2012-03-03T10:50:32Z</time>
<extensions>
<gpxtpx:TrackPointExtension>
<gpxtpx:hr>143</gpxtpx:hr>
<gpxtpx:atemp>6</gpxtpx:atemp>
</gpxtpx:TrackPointExtension>
</extensions>
</trkpt>
<trkpt lat="47.7415534760803" lon="12.141840197145939">
<ele>456</ele>
<time>2012-03-03T10:50:37Z</time>
<extensions>
<gpxtpx:TrackPointExtension>
<gpxtpx:hr>144</gpxtpx:hr>
<gpxtpx:atemp>6</gpxtpx:atemp>
</gpxtpx:TrackPointExtension>
</extensions>
</trkpt>
<trkpt lat="47.74161206558347" lon="12.141979672014713">
<ele>456</ele>
<time>2012-03-03T10:50:42Z</time>
<extensions>
<gpxtpx:TrackPointExtension>
<gpxtpx:hr>142</gpxtpx:hr>
<gpxtpx:atemp>6</gpxtpx:atemp>
</gpxtpx:TrackPointExtension>
</extensions>
</trkpt>
<trkpt lat="47.74162631481886" lon="12.141989143565297">
<ele>456</ele>
<time>2012-03-03T10:50:43Z</time>
<extensions>
<gpxtpx:TrackPointExtension>
<gpxtpx:hr>142</gpxtpx:hr>
<gpxtpx:atemp>6</gpxtpx:atemp>
</gpxtpx:TrackPointExtension>
</extensions>
</trkpt>
<trkpt lat="47.741673002019525" lon="12.142064915969968">
<ele>456</ele>
<time>2012-03-03T10:50:46Z</time>
<extensions>
<gpxtpx:TrackPointExtension>
<gpxtpx:hr>145</gpxtpx:hr>
<gpxtpx:atemp>6</gpxtpx:atemp>
</gpxtpx:TrackPointExtension>
</extensions>
</trkpt>
<trkpt lat="47.741800490766764" lon="12.142278905957937">
<ele>456</ele>
<time>2012-03-03T10:50:50Z</time>
<extensions>
<gpxtpx:TrackPointExtension>
<gpxtpx:hr>147</gpxtpx:hr>
<gpxtpx:atemp>6</gpxtpx:atemp>
</gpxtpx:TrackPointExtension>
</extensions>
</trkpt>
<trkpt lat="47.74182957597077" lon="12.142348475754261">
<ele>456</ele>
<time>2012-03-03T10:50:51Z</time>
<extensions>
<gpxtpx:TrackPointExtension>
<gpxtpx:hr>148</gpxtpx:hr>
<gpxtpx:atemp>6</gpxtpx:atemp>
</gpxtpx:TrackPointExtension>
</extensions>
</trkpt>
<trkpt lat="47.74185849353671" lon="12.142417626455426">
<ele>457</ele>
<time>2012-03-03T10:50:52Z</time>
<extensions>
<gpxtpx:TrackPointExtension>
<gpxtpx:hr>148</gpxtpx:hr>
<gpxtpx:atemp>6</gpxtpx:atemp>
</gpxtpx:TrackPointExtension>
</extensions>
</trkpt>
<trkpt lat="47.74188783019781" lon="12.1424915548414">
<ele>457</ele>
<time>2012-03-03T10:50:53Z</time>
<extensions>
<gpxtpx:TrackPointExtension>
<gpxtpx:hr>149</gpxtpx:hr>
<gpxtpx:atemp>6</gpxtpx:atemp>
</gpxtpx:TrackPointExtension>
</extensions>
</trkpt>
<trkpt lat="47.74191549047828" lon="12.142563974484801">
<ele>458</ele>
<time>2012-03-03T10:50:54Z</time>
<extensions>
<gpxtpx:TrackPointExtension>
<gpxtpx:hr>149</gpxtpx:hr>
<gpxtpx:atemp>6</gpxtpx:atemp>
</gpxtpx:TrackPointExtension>
</extensions>
</trkpt>
<trkpt lat="47.74194348603487" lon="12.142636980861425">
<ele>458</ele>
<time>2012-03-03T10:50:55Z</time>
<extensions>
<gpxtpx:TrackPointExtension>
<gpxtpx:hr>149</gpxtpx:hr>
<gpxtpx:atemp>6</gpxtpx:atemp>
</gpxtpx:TrackPointExtension>
</extensions>
</trkpt>
<trkpt lat="47.741997968405485" lon="12.14278282597661">
<ele>458</ele>
<time>2012-03-03T10:50:57Z</time>
<extensions>
<gpxtpx:TrackPointExtension>
<gpxtpx:hr>150</gpxtpx:hr>
<gpxtpx:atemp>6</gpxtpx:atemp>
</gpxtpx:TrackPointExtension>
</extensions>
</trkpt>
<trkpt lat="47.742085475474596" lon="12.142998408526182">
<ele>458</ele>
<time>2012-03-03T10:51:00Z</time>
<extensions>
<gpxtpx:TrackPointExtension>
<gpxtpx:hr>150</gpxtpx:hr>
<gpxtpx:atemp>6</gpxtpx:atemp>
</gpxtpx:TrackPointExtension>
</extensions>
</trkpt>
<trkpt lat="47.74217474274337" lon="12.143225725740194">
<ele>458</ele>
<time>2012-03-03T10:51:03Z</time>
<extensions>
<gpxtpx:TrackPointExtension>
<gpxtpx:hr>150</gpxtpx:hr>
<gpxtpx:atemp>6</gpxtpx:atemp>
</gpxtpx:TrackPointExtension>
</extensions>
</trkpt>
<trkpt lat="47.74228270165622" lon="12.143530743196607">
<ele>459</ele>
<time>2012-03-03T10:51:07Z</time>
<extensions>
<gpxtpx:TrackPointExtension>
<gpxtpx:hr>151</gpxtpx:hr>
<gpxtpx:atemp>6</gpxtpx:atemp>
</gpxtpx:TrackPointExtension>
</extensions>
</trkpt>
<trkpt lat="47.742311619222164" lon="12.143606347963214">
<ele>459</ele>
<time>2012-03-03T10:51:08Z</time>
<extensions>
<gpxtpx:TrackPointExtension>
<gpxtpx:hr>151</gpxtpx:hr>
<gpxtpx:atemp>6</gpxtpx:atemp>
</gpxtpx:TrackPointExtension>
</extensions>
</trkpt>
<trkpt lat="47.742339950054884" lon="12.14368580840528">
<ele>460</ele>
<time>2012-03-03T10:51:09Z</time>
<extensions>
<gpxtpx:TrackPointExtension>
<gpxtpx:hr>152</gpxtpx:hr>
<gpxtpx:atemp>6</gpxtpx:atemp>
</gpxtpx:TrackPointExtension>
</extensions>
</trkpt>
<trkpt lat="47.74236710742116" lon="12.143759401515126">
<ele>460</ele>
<time>2012-03-03T10:51:10Z</time>
<extensions>
<gpxtpx:TrackPointExtension>
<gpxtpx:hr>152</gpxtpx:hr>
<gpxtpx:atemp>6</gpxtpx:atemp>
</gpxtpx:TrackPointExtension>
</extensions>
</trkpt>
<trkpt lat="47.74239292368293" lon="12.143835509195924">
<ele>460</ele>
<time>2012-03-03T10:51:11Z</time>
<extensions>
<gpxtpx:TrackPointExtension>
<gpxtpx:hr>152</gpxtpx:hr>
<gpxtpx:atemp>6</gpxtpx:atemp>
</gpxtpx:TrackPointExtension>
</extensions>
</trkpt>
<trkpt lat="47.74258302524686" lon="12.144378237426281">
<ele>460</ele>
<time>2012-03-03T10:51:18Z</time>
<extensions>
<gpxtpx:TrackPointExtension>
<gpxtpx:hr>155</gpxtpx:hr>
<gpxtpx:atemp>6</gpxtpx:atemp>
</gpxtpx:TrackPointExtension>
</extensions>
</trkpt>
<trkpt lat="47.74278888478875" lon="12.145086256787181">
<ele>460</ele>
<time>2012-03-03T10:51:27Z</time>
<extensions>
<gpxtpx:TrackPointExtension>
<gpxtpx:hr>158</gpxtpx:hr>
<gpxtpx:atemp>6</gpxtpx:atemp>
</gpxtpx:TrackPointExtension>
</extensions>
</trkpt>
<trkpt lat="47.742847641929984" lon="12.145326230674982">
<ele>461</ele>
<time>2012-03-03T10:51:30Z</time>
<extensions>
<gpxtpx:TrackPointExtension>
<gpxtpx:hr>159</gpxtpx:hr>
<gpxtpx:atemp>6</gpxtpx:atemp>
</gpxtpx:TrackPointExtension>
</extensions>
</trkpt>
<trkpt lat="47.742865830659866" lon="12.145407032221556">
<ele>461</ele>
<time>2012-03-03T10:51:31Z</time>
<extensions>
<gpxtpx:TrackPointExtension>
<gpxtpx:hr>159</gpxtpx:hr>
<gpxtpx:atemp>6</gpxtpx:atemp>
</gpxtpx:TrackPointExtension>
</extensions>
</trkpt>
<trkpt lat="47.7428812533617" lon="12.145486744120717">
<ele>462</ele>
<time>2012-03-03T10:51:32Z</time>
<extensions>
<gpxtpx:TrackPointExtension>
<gpxtpx:hr>160</gpxtpx:hr>
<gpxtpx:atemp>6</gpxtpx:atemp>
</gpxtpx:TrackPointExtension>
</extensions>
</trkpt>
<trkpt lat="47.742896592244506" lon="12.145571736618876">
<ele>462</ele>
<time>2012-03-03T10:51:33Z</time>
<extensions>
<gpxtpx:TrackPointExtension>
<gpxtpx:hr>160</gpxtpx:hr>
<gpxtpx:atemp>6</gpxtpx:atemp>
</gpxtpx:TrackPointExtension>
</extensions>
</trkpt>
<trkpt lat="47.742911176756024" lon="12.145652789622545">
<ele>463</ele>
<time>2012-03-03T10:51:34Z</time>
<extensions>
<gpxtpx:TrackPointExtension>
<gpxtpx:hr>160</gpxtpx:hr>
<gpxtpx:atemp>6</gpxtpx:atemp>
</gpxtpx:TrackPointExtension>
</extensions>
</trkpt>
<trkpt lat="47.74292550981045" lon="12.145733004435897">
<ele>463</ele>
<time>2012-03-03T10:51:35Z</time>
<extensions>
<gpxtpx:TrackPointExtension>
<gpxtpx:hr>160</gpxtpx:hr>
<gpxtpx:atemp>6</gpxtpx:atemp>
</gpxtpx:TrackPointExtension>
</extensions>
</trkpt>
<trkpt lat="47.74304428137839" lon="12.146462397649884">
<ele>463</ele>
<time>2012-03-03T10:51:44Z</time>
<extensions>
<gpxtpx:TrackPointExtension>
<gpxtpx:hr>161</gpxtpx:hr>
<gpxtpx:atemp>6</gpxtpx:atemp>
</gpxtpx:TrackPointExtension>
</extensions>
</trkpt>
<trkpt lat="47.74310630746186" lon="12.147028595209122">
<ele>463</ele>
<time>2012-03-03T10:51:51Z</time>
<extensions>
<gpxtpx:TrackPointExtension>
<gpxtpx:hr>162</gpxtpx:hr>
<gpxtpx:atemp>6</gpxtpx:atemp>
</gpxtpx:TrackPointExtension>
</extensions>
</trkpt>
<trkpt lat="47.74312097579241" lon="12.147268988192081">
<ele>463</ele>
<time>2012-03-03T10:51:54Z</time>
<extensions>
<gpxtpx:TrackPointExtension>
<gpxtpx:hr>161</gpxtpx:hr>
<gpxtpx:atemp>6</gpxtpx:atemp>
</gpxtpx:TrackPointExtension>
</extensions>
</trkpt>
<trkpt lat="47.743125753477216" lon="12.147354232147336">
<ele>464</ele>
<time>2012-03-03T10:51:55Z</time>
<extensions>
<gpxtpx:TrackPointExtension>
<gpxtpx:hr>162</gpxtpx:hr>
<gpxtpx:atemp>6</gpxtpx:atemp>
</gpxtpx:TrackPointExtension>
</extensions>
</trkpt>
<trkpt lat="47.74312893860042" lon="12.147437129169703">
<ele>464</ele>
<time>2012-03-03T10:51:56Z</time>
<extensions>
<gpxtpx:TrackPointExtension>
<gpxtpx:hr>161</gpxtpx:hr>
<gpxtpx:atemp>6</gpxtpx:atemp>
</gpxtpx:TrackPointExtension>
</extensions>
</trkpt>
<trkpt lat="47.74313220754266" lon="12.147523630410433">
<ele>464</ele>
<time>2012-03-03T10:51:57Z</time>
<extensions>
<gpxtpx:TrackPointExtension>
<gpxtpx:hr>161</gpxtpx:hr>
<gpxtpx:atemp>6</gpxtpx:atemp>
</gpxtpx:TrackPointExtension>
</extensions>
</trkpt>
<trkpt lat="47.743135476484895" lon="12.147608706727624">
<ele>465</ele>
<time>2012-03-03T10:51:58Z</time>
<extensions>
<gpxtpx:TrackPointExtension>
<gpxtpx:hr>162</gpxtpx:hr>
<gpxtpx:atemp>6</gpxtpx:atemp>
</gpxtpx:TrackPointExtension>
</extensions>
</trkpt>
<trkpt lat="47.743137907236814" lon="12.148137353360653">
<ele>465</ele>
<time>2012-03-03T10:52:04Z</time>
<extensions>
<gpxtpx:TrackPointExtension>
<gpxtpx:hr>162</gpxtpx:hr>
<gpxtpx:atemp>6</gpxtpx:atemp>
</gpxtpx:TrackPointExtension>
</extensions>
</trkpt>
<trkpt lat="47.743117958307266" lon="12.14871327392757">
<ele>465</ele>
<time>2012-03-03T10:52:11Z</time>
<extensions>
<gpxtpx:TrackPointExtension>
<gpxtpx:hr>161</gpxtpx:hr>
<gpxtpx:atemp>6</gpxtpx:atemp>
</gpxtpx:TrackPointExtension>
</extensions>
</trkpt>
<trkpt lat="47.74311259388924" lon="12.14879340492189">
<ele>466</ele>
<time>2012-03-03T10:52:12Z</time>
<extensions>
<gpxtpx:TrackPointExtension>
<gpxtpx:hr>161</gpxtpx:hr>
<gpxtpx:atemp>6</gpxtpx:atemp>
</gpxtpx:TrackPointExtension>
</extensions>
</trkpt>
<trkpt lat="47.74310739710927" lon="12.148871943354607">
<ele>467</ele>
<time>2012-03-03T10:52:13Z</time>
<extensions>
<gpxtpx:TrackPointExtension>
<gpxtpx:hr>161</gpxtpx:hr>
<gpxtpx:atemp>6</gpxtpx:atemp>
</gpxtpx:TrackPointExtension>
</extensions>
</trkpt>
<trkpt lat="47.743102703243494" lon="12.148954253643751">
<ele>467</ele>
<time>2012-03-03T10:52:14Z</time>
<extensions>
<gpxtpx:TrackPointExtension>
<gpxtpx:hr>161</gpxtpx:hr>
<gpxtpx:atemp>6</gpxtpx:atemp>
</gpxtpx:TrackPointExtension>
</extensions>
</trkpt>
<trkpt lat="47.7430990152061" lon="12.149035893380642">
<ele>467</ele>
<time>2012-03-03T10:52:15Z</time>
<extensions>
<gpxtpx:TrackPointExtension>
<gpxtpx:hr>161</gpxtpx:hr>
<gpxtpx:atemp>6</gpxtpx:atemp>
</gpxtpx:TrackPointExtension>
</extensions>
</trkpt>
<trkpt lat="47.74309465661645" lon="12.149798227474093">
<ele>467</ele>
<time>2012-03-03T10:52:24Z</time>
<extensions>
<gpxtpx:TrackPointExtension>
<gpxtpx:hr>161</gpxtpx:hr>
<gpxtpx:atemp>6</gpxtpx:atemp>
</gpxtpx:TrackPointExtension>
</extensions>
</trkpt>
<trkpt lat="47.743098763749" lon="12.149976845830679">
<ele>467</ele>
<time>2012-03-03T10:52:26Z</time>
<extensions>
<gpxtpx:TrackPointExtension>
<gpxtpx:hr>161</gpxtpx:hr>
<gpxtpx:atemp>6</gpxtpx:atemp>
</gpxtpx:TrackPointExtension>
</extensions>
</trkpt>
<trkpt lat="47.74310898967087" lon="12.150149177759886">
<ele>467</ele>
<time>2012-03-03T10:52:28Z</time>
<extensions>
<gpxtpx:TrackPointExtension>
<gpxtpx:hr>161</gpxtpx:hr>
<gpxtpx:atemp>6</gpxtpx:atemp>
</gpxtpx:TrackPointExtension>
</extensions>
</trkpt>
<trkpt lat="47.743117371574044" lon="12.150232829153538">
<ele>468</ele>
<time>2012-03-03T10:52:29Z</time>
<extensions>
<gpxtpx:TrackPointExtension>
<gpxtpx:hr>160</gpxtpx:hr>
<gpxtpx:atemp>6</gpxtpx:atemp>
</gpxtpx:TrackPointExtension>
</extensions>
</trkpt>
<trkpt lat="47.743129190057516" lon="12.15031555853784">
<ele>468</ele>
<time>2012-03-03T10:52:30Z</time>
<extensions>
<gpxtpx:TrackPointExtension>
<gpxtpx:hr>160</gpxtpx:hr>
<gpxtpx:atemp>6</gpxtpx:atemp>
</gpxtpx:TrackPointExtension>
</extensions>
</trkpt>
<trkpt lat="47.74314159527421" lon="12.150396946817636">
<ele>469</ele>
<time>2012-03-03T10:52:31Z</time>
<extensions>
<gpxtpx:TrackPointExtension>
<gpxtpx:hr>160</gpxtpx:hr>
<gpxtpx:atemp>6</gpxtpx:atemp>
</gpxtpx:TrackPointExtension>
</extensions>
</trkpt>
<trkpt lat="47.74315282702446" lon="12.150478502735496">
<ele>469</ele>
<time>2012-03-03T10:52:32Z</time>
<extensions>
<gpxtpx:TrackPointExtension>
<gpxtpx:hr>160</gpxtpx:hr>
<gpxtpx:atemp>6</gpxtpx:atemp>
</gpxtpx:TrackPointExtension>
</extensions>
</trkpt>
<trkpt lat="47.74323438294232" lon="12.151070600375533">
<ele>469</ele>
<time>2012-03-03T10:52:39Z</time>
<extensions>
<gpxtpx:TrackPointExtension>
<gpxtpx:hr>159</gpxtpx:hr>
<gpxtpx:atemp>6</gpxtpx:atemp>
</gpxtpx:TrackPointExtension>
</extensions>
</trkpt>
<trkpt lat="47.743290374055505" lon="12.151490785181522">
<ele>469</ele>
<time>2012-03-03T10:52:44Z</time>
<extensions>
<gpxtpx:TrackPointExtension>
<gpxtpx:hr>159</gpxtpx:hr>
<gpxtpx:atemp>6</gpxtpx:atemp>
</gpxtpx:TrackPointExtension>
</extensions>
</trkpt>
<trkpt lat="47.74330101907253" lon="12.151574101299047">
<ele>470</ele>
<time>2012-03-03T10:52:45Z</time>
<extensions>
<gpxtpx:TrackPointExtension>
<gpxtpx:hr>159</gpxtpx:hr>
<gpxtpx:atemp>6</gpxtpx:atemp>
</gpxtpx:TrackPointExtension>
</extensions>
</trkpt>
<trkpt lat="47.743312418460846" lon="12.15165733359754">
<ele>470</ele>
<time>2012-03-03T10:52:46Z</time>
<extensions>
<gpxtpx:TrackPointExtension>
<gpxtpx:hr>159</gpxtpx:hr>
<gpxtpx:atemp>6</gpxtpx:atemp>
</gpxtpx:TrackPointExtension>
</extensions>
</trkpt>
<trkpt lat="47.74332398548722" lon="12.151740230619907">
<ele>471</ele>
<time>2012-03-03T10:52:47Z</time>
<extensions>
<gpxtpx:TrackPointExtension>
<gpxtpx:hr>159</gpxtpx:hr>
<gpxtpx:atemp>6</gpxtpx:atemp>
</gpxtpx:TrackPointExtension>
</extensions>
</trkpt>
<trkpt lat="47.74333664216101" lon="12.151824636384845">
<ele>471</ele>
<time>2012-03-03T10:52:48Z</time>
<extensions>
<gpxtpx:TrackPointExtension>
<gpxtpx:hr>159</gpxtpx:hr>
<gpxtpx:atemp>6</gpxtpx:atemp>
</gpxtpx:TrackPointExtension>
</extensions>
</trkpt>
<trkpt lat="47.743409564718604" lon="12.152588730677962">
<ele>471</ele>
<time>2012-03-03T10:52:57Z</time>
<extensions>
<gpxtpx:TrackPointExtension>
<gpxtpx:hr>160</gpxtpx:hr>
<gpxtpx:atemp>6</gpxtpx:atemp>
</gpxtpx:TrackPointExtension>
</extensions>
</trkpt>
<trkpt lat="47.74337452836335" lon="12.153280908241868">
<ele>471</ele>
<time>2012-03-03T10:53:05Z</time>
<extensions>
<gpxtpx:TrackPointExtension>
<gpxtpx:hr>161</gpxtpx:hr>
<gpxtpx:atemp>7</gpxtpx:atemp>
</gpxtpx:TrackPointExtension>
</extensions>
</trkpt>
<trkpt lat="47.74333010427654" lon="12.153533874079585">
<ele>471</ele>
<time>2012-03-03T10:53:08Z</time>
<extensions>
<gpxtpx:TrackPointExtension>
<gpxtpx:hr>161</gpxtpx:hr>
<gpxtpx:atemp>7</gpxtpx:atemp>
</gpxtpx:TrackPointExtension>
</extensions>
</trkpt>
<trkpt lat="47.743314849212766" lon="12.153614927083254">
<ele>472</ele>
<time>2012-03-03T10:53:09Z</time>
<extensions>
<gpxtpx:TrackPointExtension>
<gpxtpx:hr>161</gpxtpx:hr>
<gpxtpx:atemp>7</gpxtpx:atemp>
</gpxtpx:TrackPointExtension>
</extensions>
</trkpt>
<trkpt lat="47.74330051615834" lon="12.153696734458208">
<ele>472</ele>
<time>2012-03-03T10:53:10Z</time>
<extensions>
<gpxtpx:TrackPointExtension>
<gpxtpx:hr>161</gpxtpx:hr>
<gpxtpx:atemp>7</gpxtpx:atemp>
</gpxtpx:TrackPointExtension>
</extensions>
</trkpt>
<trkpt lat="47.74328668601811" lon="12.15377795509994">
<ele>473</ele>
<time>2012-03-03T10:53:11Z</time>
<extensions>
<gpxtpx:TrackPointExtension>
<gpxtpx:hr>161</gpxtpx:hr>
<gpxtpx:atemp>7</gpxtpx:atemp>
</gpxtpx:TrackPointExtension>
</extensions>
</trkpt>
<trkpt lat="47.74327293969691" lon="12.153861438855529">
<ele>473</ele>
<time>2012-03-03T10:53:12Z</time>
<extensions>
<gpxtpx:TrackPointExtension>
<gpxtpx:hr>161</gpxtpx:hr>
<gpxtpx:atemp>7</gpxtpx:atemp>
</gpxtpx:TrackPointExtension>
</extensions>
</trkpt>
<trkpt lat="47.74318811483681" lon="12.154522687196732">
<ele>473</ele>
<time>2012-03-03T10:53:20Z</time>
<extensions>
<gpxtpx:TrackPointExtension>
<gpxtpx:hr>160</gpxtpx:hr>
<gpxtpx:atemp>7</gpxtpx:atemp>
</gpxtpx:TrackPointExtension>
</extensions>
</trkpt>
<trkpt lat="47.7431317884475" lon="12.154948990792036">
<ele>474</ele>
<time>2012-03-03T10:53:25Z</time>
<extensions>
<gpxtpx:TrackPointExtension>
<gpxtpx:hr>159</gpxtpx:hr>
<gpxtpx:atemp>7</gpxtpx:atemp>
</gpxtpx:TrackPointExtension>
</extensions>
</trkpt>
<trkpt lat="47.743118880316615" lon="12.155033648014069">
<ele>475</ele>
<time>2012-03-03T10:53:26Z</time>
<extensions>
<gpxtpx:TrackPointExtension>
<gpxtpx:hr>160</gpxtpx:hr>
<gpxtpx:atemp>7</gpxtpx:atemp>
</gpxtpx:TrackPointExtension>
</extensions>
</trkpt>
<trkpt lat="47.74310387670994" lon="12.155120735988021">
<ele>475</ele>
<time>2012-03-03T10:53:27Z</time>
<extensions>
<gpxtpx:TrackPointExtension>
<gpxtpx:hr>159</gpxtpx:hr>
<gpxtpx:atemp>7</gpxtpx:atemp>
</gpxtpx:TrackPointExtension>
</extensions>
</trkpt>
<trkpt lat="47.74309038184583" lon="12.15520371682942">
<ele>475</ele>
<time>2012-03-03T10:53:28Z</time>
<extensions>
<gpxtpx:TrackPointExtension>
<gpxtpx:hr>160</gpxtpx:hr>
<gpxtpx:atemp>7</gpxtpx:atemp>
</gpxtpx:TrackPointExtension>
</extensions>
</trkpt>
<trkpt lat="47.74307806044817" lon="12.15528971515596">
<ele>475</ele>
<time>2012-03-03T10:53:29Z</time>
<extensions>
<gpxtpx:TrackPointExtension>
<gpxtpx:hr>159</gpxtpx:hr>
<gpxtpx:atemp>7</gpxtpx:atemp>
</gpxtpx:TrackPointExtension>
</extensions>
</trkpt>
<trkpt lat="47.74296616204083" lon="12.155880136415362">
<ele>475</ele>
<time>2012-03-03T10:53:36Z</time>
<extensions>
<gpxtpx:TrackPointExtension>
<gpxtpx:hr>160</gpxtpx:hr>
<gpxtpx:atemp>7</gpxtpx:atemp>
</gpxtpx:TrackPointExtension>
</extensions>
</trkpt>
<trkpt lat="47.74287924170494" lon="12.156352372840047">
<ele>475</ele>
<time>2012-03-03T10:53:42Z</time>
<extensions>
<gpxtpx:TrackPointExtension>
<gpxtpx:hr>158</gpxtpx:hr>
<gpxtpx:atemp>7</gpxtpx:atemp>
</gpxtpx:TrackPointExtension>
</extensions>
</trkpt>
<trkpt lat="47.74284202605486" lon="12.156493021175265">
<ele>475</ele>
<time>2012-03-03T10:53:46Z</time>
<extensions>
<gpxtpx:TrackPointExtension>
<gpxtpx:hr>157</gpxtpx:hr>
<gpxtpx:atemp>7</gpxtpx:atemp>
</gpxtpx:TrackPointExtension>
</extensions>
</trkpt>
<trkpt lat="47.74282358586788" lon="12.15656946413219">
<ele>475</ele>
<time>2012-03-03T10:53:51Z</time>
<extensions>
<gpxtpx:TrackPointExtension>
<gpxtpx:hr>156</gpxtpx:hr>
<gpxtpx:atemp>7</gpxtpx:atemp>
</gpxtpx:TrackPointExtension>
</extensions>
</trkpt>
<trkpt lat="47.7428278606385" lon="12.156606679782271">
<ele>475</ele>
<time>2012-03-03T10:53:52Z</time>
<extensions>
<gpxtpx:TrackPointExtension>
<gpxtpx:hr>157</gpxtpx:hr>
<gpxtpx:atemp>7</gpxtpx:atemp>
</gpxtpx:TrackPointExtension>
</extensions>
</trkpt>
<trkpt lat="47.74287756532431" lon="12.156676752492785">
<ele>476</ele>
<time>2012-03-03T10:53:54Z</time>
<extensions>
<gpxtpx:TrackPointExtension>
<gpxtpx:hr>158</gpxtpx:hr>
<gpxtpx:atemp>7</gpxtpx:atemp>
</gpxtpx:TrackPointExtension>
</extensions>
</trkpt>
<trkpt lat="47.74291478097439" lon="12.15670826844871">
<ele>476</ele>
<time>2012-03-03T10:53:55Z</time>
<extensions>
<gpxtpx:TrackPointExtension>
<gpxtpx:hr>158</gpxtpx:hr>
<gpxtpx:atemp>7</gpxtpx:atemp>
</gpxtpx:TrackPointExtension>
</extensions>
</trkpt>
<trkpt lat="47.742956103757024" lon="12.1567312348634">
<ele>477</ele>
<time>2012-03-03T10:53:56Z</time>
<extensions>
<gpxtpx:TrackPointExtension>
<gpxtpx:hr>158</gpxtpx:hr>
<gpxtpx:atemp>7</gpxtpx:atemp>
</gpxtpx:TrackPointExtension>
</extensions>
</trkpt>
<trkpt lat="47.74300119839609" lon="12.15675319544971">
<ele>477</ele>
<time>2012-03-03T10:53:57Z</time>
<extensions>
<gpxtpx:TrackPointExtension>
<gpxtpx:hr>157</gpxtpx:hr>
<gpxtpx:atemp>7</gpxtpx:atemp>
</gpxtpx:TrackPointExtension>
</extensions>
</trkpt>
<trkpt lat="47.74304889142513" lon="12.156777586787939">
<ele>477</ele>
<time>2012-03-03T10:53:58Z</time>
<extensions>
<gpxtpx:TrackPointExtension>
<gpxtpx:hr>157</gpxtpx:hr>
<gpxtpx:atemp>7</gpxtpx:atemp>
</gpxtpx:TrackPointExtension>
</extensions>
</trkpt>
<trkpt lat="47.743186270818114" lon="12.156840283423662">
<ele>477</ele>
<time>2012-03-03T10:54:01Z</time>
<extensions>
<gpxtpx:TrackPointExtension>
<gpxtpx:hr>157</gpxtpx:hr>
<gpxtpx:atemp>7</gpxtpx:atemp>
</gpxtpx:TrackPointExtension>
</extensions>
</trkpt>
<trkpt lat="47.74331736378372" lon="12.156911110505462">
<ele>477</ele>
<time>2012-03-03T10:54:04Z</time>
<extensions>
<gpxtpx:TrackPointExtension>
<gpxtpx:hr>157</gpxtpx:hr>
<gpxtpx:atemp>7</gpxtpx:atemp>
</gpxtpx:TrackPointExtension>
</extensions>
</trkpt>
<trkpt lat="47.743350472301245" lon="12.156961234286427">
<ele>477</ele>
<time>2012-03-03T10:54:05Z</time>
<extensions>
<gpxtpx:TrackPointExtension>
<gpxtpx:hr>156</gpxtpx:hr>
<gpxtpx:atemp>7</gpxtpx:atemp>
</gpxtpx:TrackPointExtension>
</extensions>
</trkpt>
<trkpt lat="47.74335105903447" lon="12.157170195132494">
<ele>477</ele>
<time>2012-03-03T10:54:08Z</time>
<extensions>
<gpxtpx:TrackPointExtension>
<gpxtpx:hr>155</gpxtpx:hr>
<gpxtpx:atemp>7</gpxtpx:atemp>
</gpxtpx:TrackPointExtension>
</extensions>
</trkpt>
<trkpt lat="47.743339240550995" lon="12.157238507643342">
<ele>477</ele>
<time>2012-03-03T10:54:09Z</time>
<extensions>
<gpxtpx:TrackPointExtension>
<gpxtpx:hr>155</gpxtpx:hr>
<gpxtpx:atemp>7</gpxtpx:atemp>
</gpxtpx:TrackPointExtension>
</extensions>
</trkpt>
<trkpt lat="47.74332239292562" lon="12.157305059954524">
<ele>477</ele>
<time>2012-03-03T10:54:10Z</time>
<extensions>
<gpxtpx:TrackPointExtension>
<gpxtpx:hr>155</gpxtpx:hr>
<gpxtpx:atemp>7</gpxtpx:atemp>
</gpxtpx:TrackPointExtension>
</extensions>
</trkpt>
<trkpt lat="47.74329163134098" lon="12.157456772401929">
<ele>478</ele>
<time>2012-03-03T10:54:12Z</time>
<extensions>
<gpxtpx:TrackPointExtension>
<gpxtpx:hr>155</gpxtpx:hr>
<gpxtpx:atemp>7</gpxtpx:atemp>
</gpxtpx:TrackPointExtension>
</extensions>
</trkpt>
<trkpt lat="47.74327302351594" lon="12.157530449330807">
<ele>478</ele>
<time>2012-03-03T10:54:13Z</time>
<extensions>
<gpxtpx:TrackPointExtension>
<gpxtpx:hr>155</gpxtpx:hr>
<gpxtpx:atemp>7</gpxtpx:atemp>
</gpxtpx:TrackPointExtension>
</extensions>
</trkpt>
<trkpt lat="47.743254248052835" lon="12.157609490677714">
<ele>479</ele>
<time>2012-03-03T10:54:14Z</time>
<extensions>
<gpxtpx:TrackPointExtension>
<gpxtpx:hr>154</gpxtpx:hr>
<gpxtpx:atemp>7</gpxtpx:atemp>
</gpxtpx:TrackPointExtension>
</extensions>
</trkpt>
<trkpt lat="47.7432372327894" lon="12.157686101272702">
<ele>479</ele>
<time>2012-03-03T10:54:15Z</time>
<extensions>
<gpxtpx:TrackPointExtension>
<gpxtpx:hr>154</gpxtpx:hr>
<gpxtpx:atemp>7</gpxtpx:atemp>
</gpxtpx:TrackPointExtension>
</extensions>
</trkpt>
<trkpt lat="47.74312357418239" lon="12.158209048211575">
<ele>479</ele>
<time>2012-03-03T10:54:22Z</time>
<extensions>
<gpxtpx:TrackPointExtension>
<gpxtpx:hr>151</gpxtpx:hr>
<gpxtpx:atemp>7</gpxtpx:atemp>
</gpxtpx:TrackPointExtension>
</extensions>
</trkpt>
<trkpt lat="47.74310781620443" lon="12.158281300216913">
<ele>479</ele>
<time>2012-03-03T10:54:23Z</time>
<extensions>
<gpxtpx:TrackPointExtension>
<gpxtpx:hr>151</gpxtpx:hr>
<gpxtpx:atemp>7</gpxtpx:atemp>
</gpxtpx:TrackPointExtension>
</extensions>
</trkpt>
<trkpt lat="47.74299952201545" lon="12.15880399569869">
<ele>479</ele>
<time>2012-03-03T10:54:30Z</time>
<extensions>
<gpxtpx:TrackPointExtension>
<gpxtpx:hr>147</gpxtpx:hr>
<gpxtpx:atemp>7</gpxtpx:atemp>
</gpxtpx:TrackPointExtension>
</extensions>
</trkpt>
<trkpt lat="47.74298535659909" lon="12.158877169713378">
<ele>479</ele>
<time>2012-03-03T10:54:31Z</time>
<extensions>
<gpxtpx:TrackPointExtension>
<gpxtpx:hr>147</gpxtpx:hr>
<gpxtpx:atemp>7</gpxtpx:atemp>
</gpxtpx:TrackPointExtension>
</extensions>
</trkpt>
<trkpt lat="47.742864741012454" lon="12.159449318423867">
<ele>479</ele>
<time>2012-03-03T10:54:39Z</time>
<extensions>
<gpxtpx:TrackPointExtension>
<gpxtpx:hr>145</gpxtpx:hr>
<gpxtpx:atemp>7</gpxtpx:atemp>
</gpxtpx:TrackPointExtension>
</extensions>
</trkpt>
<trkpt lat="47.742847725749016" lon="12.15952173806727">
<ele>479</ele>
<time>2012-03-03T10:54:40Z</time>
<extensions>
<gpxtpx:TrackPointExtension>
<gpxtpx:hr>145</gpxtpx:hr>
<gpxtpx:atemp>7</gpxtpx:atemp>
</gpxtpx:TrackPointExtension>
</extensions>
</trkpt>
<trkpt lat="47.74279617704451" lon="12.15974503196776">
<ele>480</ele>
<time>2012-03-03T10:54:43Z</time>
<extensions>
<gpxtpx:TrackPointExtension>
<gpxtpx:hr>145</gpxtpx:hr>
<gpxtpx:atemp>7</gpxtpx:atemp>
</gpxtpx:TrackPointExtension>
</extensions>
</trkpt>
<trkpt lat="47.7427779044956" lon="12.159818457439542">
<ele>480</ele>
<time>2012-03-03T10:54:44Z</time>
<extensions>
<gpxtpx:TrackPointExtension>
<gpxtpx:hr>145</gpxtpx:hr>
<gpxtpx:atemp>7</gpxtpx:atemp>
</gpxtpx:TrackPointExtension>
</extensions>
</trkpt>
<trkpt lat="47.74275762028992" lon="12.159891128540039">
<ele>481</ele>
<time>2012-03-03T10:54:45Z</time>
<extensions>
<gpxtpx:TrackPointExtension>
<gpxtpx:hr>145</gpxtpx:hr>
<gpxtpx:atemp>7</gpxtpx:atemp>
</gpxtpx:TrackPointExtension>
</extensions>
</trkpt>
<trkpt lat="47.74274060502648" lon="12.159961452707648">
<ele>481</ele>
<time>2012-03-03T10:54:46Z</time>
<extensions>
<gpxtpx:TrackPointExtension>
<gpxtpx:hr>145</gpxtpx:hr>
<gpxtpx:atemp>7</gpxtpx:atemp>
</gpxtpx:TrackPointExtension>
</extensions>
</trkpt>
<trkpt lat="47.742723505944014" lon="12.160032531246543">
<ele>481</ele>
<time>2012-03-03T10:54:47Z</time>
<extensions>
<gpxtpx:TrackPointExtension>
<gpxtpx:hr>145</gpxtpx:hr>
<gpxtpx:atemp>7</gpxtpx:atemp>
</gpxtpx:TrackPointExtension>
</extensions>
</trkpt>
<trkpt lat="47.74261085316539" lon="12.16044475324452">
<ele>481</ele>
<time>2012-03-03T10:54:53Z</time>
<extensions>
<gpxtpx:TrackPointExtension>
<gpxtpx:hr>146</gpxtpx:hr>
<gpxtpx:atemp>7</gpxtpx:atemp>
</gpxtpx:TrackPointExtension>
</extensions>
</trkpt>
<trkpt lat="47.74259174242616" lon="12.160512814298272">
<ele>481</ele>
<time>2012-03-03T10:54:54Z</time>
<extensions>
<gpxtpx:TrackPointExtension>
<gpxtpx:hr>146</gpxtpx:hr>
<gpxtpx:atemp>7</gpxtpx:atemp>
</gpxtpx:TrackPointExtension>
</extensions>
</trkpt>
<trkpt lat="47.742409855127335" lon="12.161132823675871">
<ele>482</ele>
<time>2012-03-03T10:55:03Z</time>
<extensions>
<gpxtpx:TrackPointExtension>
<gpxtpx:hr>147</gpxtpx:hr>
<gpxtpx:atemp>7</gpxtpx:atemp>
</gpxtpx:TrackPointExtension>
</extensions>
</trkpt>
<trkpt lat="47.742391331121325" lon="12.161201806738973">
<ele>483</ele>
<time>2012-03-03T10:55:04Z</time>
<extensions>
<gpxtpx:TrackPointExtension>
<gpxtpx:hr>147</gpxtpx:hr>
<gpxtpx:atemp>7</gpxtpx:atemp>
</gpxtpx:TrackPointExtension>
</extensions>
</trkpt>
<trkpt lat="47.74237406440079" lon="12.161268778145313">
<ele>483</ele>
<time>2012-03-03T10:55:05Z</time>
<extensions>
<gpxtpx:TrackPointExtension>
<gpxtpx:hr>148</gpxtpx:hr>
<gpxtpx:atemp>7</gpxtpx:atemp>
</gpxtpx:TrackPointExtension>
</extensions>
</trkpt>
<trkpt lat="47.74235721677542" lon="12.161334995180368">
<ele>484</ele>
<time>2012-03-03T10:55:06Z</time>
<extensions>
<gpxtpx:TrackPointExtension>
<gpxtpx:hr>149</gpxtpx:hr>
<gpxtpx:atemp>7</gpxtpx:atemp>
</gpxtpx:TrackPointExtension>
</extensions>
</trkpt>
<trkpt lat="47.74231790564954" lon="12.16154471039772">
<ele>484</ele>
<time>2012-03-03T10:55:09Z</time>
<extensions>
<gpxtpx:TrackPointExtension>
<gpxtpx:hr>150</gpxtpx:hr>
<gpxtpx:atemp>7</gpxtpx:atemp>
</gpxtpx:TrackPointExtension>
</extensions>
</trkpt>
<trkpt lat="47.74231438525021" lon="12.161614866927266">
<ele>484</ele>
<time>2012-03-03T10:55:10Z</time>
<extensions>
<gpxtpx:TrackPointExtension>
<gpxtpx:hr>149</gpxtpx:hr>
<gpxtpx:atemp>7</gpxtpx:atemp>
</gpxtpx:TrackPointExtension>
</extensions>
</trkpt>
<trkpt lat="47.74233684875071" lon="12.161884177476168">
<ele>484</ele>
<time>2012-03-03T10:55:14Z</time>
<extensions>
<gpxtpx:TrackPointExtension>
<gpxtpx:hr>150</gpxtpx:hr>
<gpxtpx:atemp>7</gpxtpx:atemp>
</gpxtpx:TrackPointExtension>
</extensions>
</trkpt>
<trkpt lat="47.742348751053214" lon="12.161948047578335">
<ele>484</ele>
<time>2012-03-03T10:55:15Z</time>
<extensions>
<gpxtpx:TrackPointExtension>
<gpxtpx:hr>150</gpxtpx:hr>
<gpxtpx:atemp>7</gpxtpx:atemp>
</gpxtpx:TrackPointExtension>
</extensions>
</trkpt>
<trkpt lat="47.74236182682216" lon="12.162012588232756">
<ele>484</ele>
<time>2012-03-03T10:55:16Z</time>
<extensions>
<gpxtpx:TrackPointExtension>
<gpxtpx:hr>150</gpxtpx:hr>
<gpxtpx:atemp>7</gpxtpx:atemp>
</gpxtpx:TrackPointExtension>
</extensions>
</trkpt>
<trkpt lat="47.74237247183919" lon="12.162075284868479">
<ele>485</ele>
<time>2012-03-03T10:55:17Z</time>
<extensions>
<gpxtpx:TrackPointExtension>
<gpxtpx:hr>150</gpxtpx:hr>
<gpxtpx:atemp>7</gpxtpx:atemp>
</gpxtpx:TrackPointExtension>
</extensions>
</trkpt>
<trkpt lat="47.74238429032266" lon="12.16213303618133">
<ele>485</ele>
<time>2012-03-03T10:55:18Z</time>
<extensions>
<gpxtpx:TrackPointExtension>
<gpxtpx:hr>151</gpxtpx:hr>
<gpxtpx:atemp>7</gpxtpx:atemp>
</gpxtpx:TrackPointExtension>
</extensions>
</trkpt>
<trkpt lat="47.74239778518677" lon="12.162190368399024">
<ele>486</ele>
<time>2012-03-03T10:55:19Z</time>
<extensions>
<gpxtpx:TrackPointExtension>
<gpxtpx:hr>150</gpxtpx:hr>
<gpxtpx:atemp>7</gpxtpx:atemp>
</gpxtpx:TrackPointExtension>
</extensions>
</trkpt>
<trkpt lat="47.742451848462224" lon="12.162411650642753">
<ele>486</ele>
<time>2012-03-03T10:55:23Z</time>
<extensions>
<gpxtpx:TrackPointExtension>
<gpxtpx:hr>149</gpxtpx:hr>
<gpxtpx:atemp>7</gpxtpx:atemp>
</gpxtpx:TrackPointExtension>
</extensions>
</trkpt>
<trkpt lat="47.74246484041214" lon="12.162579707801342">
<ele>486</ele>
<time>2012-03-03T10:55:26Z</time>
<extensions>
<gpxtpx:TrackPointExtension>
<gpxtpx:hr>149</gpxtpx:hr>
<gpxtpx:atemp>7</gpxtpx:atemp>
</gpxtpx:TrackPointExtension>
</extensions>
</trkpt>
<trkpt lat="47.74245888926089" lon="12.16263678856194">
<ele>486</ele>
<time>2012-03-03T10:55:27Z</time>
<extensions>
<gpxtpx:TrackPointExtension>
<gpxtpx:hr>150</gpxtpx:hr>
<gpxtpx:atemp>7</gpxtpx:atemp>
</gpxtpx:TrackPointExtension>
</extensions>
</trkpt>
<trkpt lat="47.74244765751064" lon="12.162689343094826">
<ele>487</ele>
<time>2012-03-03T10:55:28Z</time>
<extensions>
<gpxtpx:TrackPointExtension>
<gpxtpx:hr>150</gpxtpx:hr>
<gpxtpx:atemp>7</gpxtpx:atemp>
</gpxtpx:TrackPointExtension>
</extensions>
</trkpt>
<trkpt lat="47.742434246465564" lon="12.16274281963706">
<ele>488</ele>
<time>2012-03-03T10:55:29Z</time>
<extensions>
<gpxtpx:TrackPointExtension>
<gpxtpx:hr>151</gpxtpx:hr>
<gpxtpx:atemp>7</gpxtpx:atemp>
</gpxtpx:TrackPointExtension>
</extensions>
</trkpt>
<trkpt lat="47.74231564253569" lon="12.16303308494389">
<ele>488</ele>
<time>2012-03-03T10:55:35Z</time>
<extensions>
<gpxtpx:TrackPointExtension>
<gpxtpx:hr>152</gpxtpx:hr>
<gpxtpx:atemp>8</gpxtpx:atemp>
</gpxtpx:TrackPointExtension>
</extensions>
</trkpt>
<trkpt lat="47.7422961127013" lon="12.16307993978262">
<ele>489</ele>
<time>2012-03-03T10:55:36Z</time>
<extensions>
<gpxtpx:TrackPointExtension>
<gpxtpx:hr>152</gpxtpx:hr>
<gpxtpx:atemp>8</gpxtpx:atemp>
</gpxtpx:TrackPointExtension>
</extensions>
</trkpt>
<trkpt lat="47.74227574467659" lon="12.163126794621348">
<ele>489</ele>
<time>2012-03-03T10:55:37Z</time>
<extensions>
<gpxtpx:TrackPointExtension>
<gpxtpx:hr>153</gpxtpx:hr>
<gpxtpx:atemp>8</gpxtpx:atemp>
</gpxtpx:TrackPointExtension>
</extensions>
</trkpt>
<trkpt lat="47.742252526804805" lon="12.163173984736204">
<ele>489</ele>
<time>2012-03-03T10:55:38Z</time>
<extensions>
<gpxtpx:TrackPointExtension>
<gpxtpx:hr>153</gpxtpx:hr>
<gpxtpx:atemp>8</gpxtpx:atemp>
</gpxtpx:TrackPointExtension>
</extensions>
</trkpt>
<trkpt lat="47.742230482399464" lon="12.163219917565584">
<ele>490</ele>
<time>2012-03-03T10:55:39Z</time>
<extensions>
<gpxtpx:TrackPointExtension>
<gpxtpx:hr>153</gpxtpx:hr>
<gpxtpx:atemp>8</gpxtpx:atemp>
</gpxtpx:TrackPointExtension>
</extensions>
</trkpt>
<trkpt lat="47.74217206053436" lon="12.163352854549885">
<ele>490</ele>
<time>2012-03-03T10:55:42Z</time>
<extensions>
<gpxtpx:TrackPointExtension>
<gpxtpx:hr>154</gpxtpx:hr>
<gpxtpx:atemp>8</gpxtpx:atemp>
</gpxtpx:TrackPointExtension>
</extensions>
</trkpt>
<trkpt lat="47.74210383184254" lon="12.163593666628003">
<ele>490</ele>
<time>2012-03-03T10:55:47Z</time>
<extensions>
<gpxtpx:TrackPointExtension>
<gpxtpx:hr>154</gpxtpx:hr>
<gpxtpx:atemp>8</gpxtpx:atemp>
</gpxtpx:TrackPointExtension>
</extensions>
</trkpt>
<trkpt lat="47.74209285154939" lon="12.16364236548543">
<ele>491</ele>
<time>2012-03-03T10:55:48Z</time>
<extensions>
<gpxtpx:TrackPointExtension>
<gpxtpx:hr>155</gpxtpx:hr>
<gpxtpx:atemp>8</gpxtpx:atemp>
</gpxtpx:TrackPointExtension>
</extensions>
</trkpt>
<trkpt lat="47.74208229035139" lon="12.163693327456713">
<ele>491</ele>
<time>2012-03-03T10:55:49Z</time>
<extensions>
<gpxtpx:TrackPointExtension>
<gpxtpx:hr>154</gpxtpx:hr>
<gpxtpx:atemp>8</gpxtpx:atemp>
</gpxtpx:TrackPointExtension>
</extensions>
</trkpt>
<trkpt lat="47.742070723325014" lon="12.16374697163701">
<ele>491</ele>
<time>2012-03-03T10:55:50Z</time>
<extensions>
<gpxtpx:TrackPointExtension>
<gpxtpx:hr>154</gpxtpx:hr>
<gpxtpx:atemp>8</gpxtpx:atemp>
</gpxtpx:TrackPointExtension>
</extensions>
</trkpt>
<trkpt lat="47.74206225760281" lon="12.16379877179861">
<ele>492</ele>
<time>2012-03-03T10:55:51Z</time>
<extensions>
<gpxtpx:TrackPointExtension>
<gpxtpx:hr>155</gpxtpx:hr>
<gpxtpx:atemp>8</gpxtpx:atemp>
</gpxtpx:TrackPointExtension>
</extensions>
</trkpt>
<trkpt lat="47.74203275330365" lon="12.164015863090754">
<ele>492</ele>
<time>2012-03-03T10:55:55Z</time>
<extensions>
<gpxtpx:TrackPointExtension>
<gpxtpx:hr>155</gpxtpx:hr>
<gpxtpx:atemp>8</gpxtpx:atemp>
</gpxtpx:TrackPointExtension>
</extensions>
</trkpt>
<trkpt lat="47.74201573804021" lon="12.164182998239994">
<ele>492</ele>
<time>2012-03-03T10:55:58Z</time>
<extensions>
<gpxtpx:TrackPointExtension>
<gpxtpx:hr>155</gpxtpx:hr>
<gpxtpx:atemp>8</gpxtpx:atemp>
</gpxtpx:TrackPointExtension>
</extensions>
</trkpt>
<trkpt lat="47.74200894869864" lon="12.16423848643899">
<ele>493</ele>
<time>2012-03-03T10:55:59Z</time>
<extensions>
<gpxtpx:TrackPointExtension>
<gpxtpx:hr>155</gpxtpx:hr>
<gpxtpx:atemp>8</gpxtpx:atemp>
</gpxtpx:TrackPointExtension>
</extensions>
</trkpt>
<trkpt lat="47.74200517684221" lon="12.1642932202667">
<ele>493</ele>
<time>2012-03-03T10:56:00Z</time>
<extensions>
<gpxtpx:TrackPointExtension>
<gpxtpx:hr>155</gpxtpx:hr>
<gpxtpx:atemp>8</gpxtpx:atemp>
</gpxtpx:TrackPointExtension>
</extensions>
</trkpt>
<trkpt lat="47.7420006506145" lon="12.164351977407932">
<ele>494</ele>
<time>2012-03-03T10:56:01Z</time>
<extensions>
<gpxtpx:TrackPointExtension>
<gpxtpx:hr>156</gpxtpx:hr>
<gpxtpx:atemp>8</gpxtpx:atemp>
</gpxtpx:TrackPointExtension>
</extensions>
</trkpt>
<trkpt lat="47.741997046396136" lon="12.164406878873706">
<ele>494</ele>
<time>2012-03-03T10:56:02Z</time>
<extensions>
<gpxtpx:TrackPointExtension>
<gpxtpx:hr>156</gpxtpx:hr>
<gpxtpx:atemp>8</gpxtpx:atemp>
</gpxtpx:TrackPointExtension>
</extensions>
</trkpt>
<trkpt lat="47.741984808817506" lon="12.164519615471363">
<ele>494</ele>
<time>2012-03-03T10:56:04Z</time>
<extensions>
<gpxtpx:TrackPointExtension>
<gpxtpx:hr>156</gpxtpx:hr>
<gpxtpx:atemp>8</gpxtpx:atemp>
</gpxtpx:TrackPointExtension>
</extensions>
</trkpt>
<trkpt lat="47.74196024984121" lon="12.164819687604904">
<ele>494</ele>
<time>2012-03-03T10:56:09Z</time>
<extensions>
<gpxtpx:TrackPointExtension>
<gpxtpx:hr>156</gpxtpx:hr>
<gpxtpx:atemp>8</gpxtpx:atemp>
</gpxtpx:TrackPointExtension>
</extensions>
</trkpt>
<trkpt lat="47.741955472156405" lon="12.164880959317088">
<ele>495</ele>
<time>2012-03-03T10:56:10Z</time>
<extensions>
<gpxtpx:TrackPointExtension>
<gpxtpx:hr>156</gpxtpx:hr>
<gpxtpx:atemp>8</gpxtpx:atemp>
</gpxtpx:TrackPointExtension>
</extensions>
</trkpt>
<trkpt lat="47.741951029747725" lon="12.16494214721024">
<ele>495</ele>
<time>2012-03-03T10:56:11Z</time>
<extensions>
<gpxtpx:TrackPointExtension>
<gpxtpx:hr>157</gpxtpx:hr>
<gpxtpx:atemp>8</gpxtpx:atemp>
</gpxtpx:TrackPointExtension>
</extensions>
</trkpt>
<trkpt lat="47.741948598995805" lon="12.165002664551139">
<ele>496</ele>
<time>2012-03-03T10:56:12Z</time>
<extensions>
<gpxtpx:TrackPointExtension>
<gpxtpx:hr>156</gpxtpx:hr>
<gpxtpx:atemp>8</gpxtpx:atemp>
</gpxtpx:TrackPointExtension>
</extensions>
</trkpt>
<trkpt lat="47.741948096081614" lon="12.165064020082355">
<ele>496</ele>
<time>2012-03-03T10:56:13Z</time>
<extensions>
<gpxtpx:TrackPointExtension>
<gpxtpx:hr>157</gpxtpx:hr>
<gpxtpx:atemp>8</gpxtpx:atemp>
</gpxtpx:TrackPointExtension>
</extensions>
</trkpt>
<trkpt lat="47.74193418212235" lon="12.165255965664983">
<ele>496</ele>
<time>2012-03-03T10:56:16Z</time>
<extensions>
<gpxtpx:TrackPointExtension>
<gpxtpx:hr>157</gpxtpx:hr>
<gpxtpx:atemp>8</gpxtpx:atemp>
</gpxtpx:TrackPointExtension>
</extensions>
</trkpt>
<trkpt lat="47.74191850796342" lon="12.165512703359127">
<ele>496</ele>
<time>2012-03-03T10:56:20Z</time>
<extensions>
<gpxtpx:TrackPointExtension>
<gpxtpx:hr>157</gpxtpx:hr>
<gpxtpx:atemp>8</gpxtpx:atemp>
</gpxtpx:TrackPointExtension>
</extensions>
</trkpt>
<trkpt lat="47.741915909573436" lon="12.165759047493339">
<ele>496</ele>
<time>2012-03-03T10:56:24Z</time>
<extensions>
<gpxtpx:TrackPointExtension>
<gpxtpx:hr>157</gpxtpx:hr>
<gpxtpx:atemp>8</gpxtpx:atemp>
</gpxtpx:TrackPointExtension>
</extensions>
</trkpt>
<trkpt lat="47.7419073600322" lon="12.165891733020544">
<ele>496</ele>
<time>2012-03-03T10:56:26Z</time>
<extensions>
<gpxtpx:TrackPointExtension>
<gpxtpx:hr>157</gpxtpx:hr>
<gpxtpx:atemp>8</gpxtpx:atemp>
</gpxtpx:TrackPointExtension>
</extensions>
</trkpt>
<trkpt lat="47.74190191179514" lon="12.165956273674965">
<ele>497</ele>
<time>2012-03-03T10:56:27Z</time>
<extensions>
<gpxtpx:TrackPointExtension>
<gpxtpx:hr>157</gpxtpx:hr>
<gpxtpx:atemp>8</gpxtpx:atemp>
</gpxtpx:TrackPointExtension>
</extensions>
</trkpt>
<trkpt lat="47.74190057069063" lon="12.166020814329386">
<ele>497</ele>
<time>2012-03-03T10:56:28Z</time>
<extensions>
<gpxtpx:TrackPointExtension>
<gpxtpx:hr>158</gpxtpx:hr>
<gpxtpx:atemp>8</gpxtpx:atemp>
</gpxtpx:TrackPointExtension>
</extensions>
</trkpt>
<trkpt lat="47.74190031923354" lon="12.16608552262187">
<ele>498</ele>
<time>2012-03-03T10:56:29Z</time>
<extensions>
<gpxtpx:TrackPointExtension>
<gpxtpx:hr>157</gpxtpx:hr>
<gpxtpx:atemp>8</gpxtpx:atemp>
</gpxtpx:TrackPointExtension>
</extensions>
</trkpt>
<trkpt lat="47.74189956486225" lon="12.166150147095323">
<ele>498</ele>
<time>2012-03-03T10:56:30Z</time>
<extensions>
<gpxtpx:TrackPointExtension>
<gpxtpx:hr>157</gpxtpx:hr>
<gpxtpx:atemp>8</gpxtpx:atemp>
</gpxtpx:TrackPointExtension>
</extensions>
</trkpt>
<trkpt lat="47.7418954577297" lon="12.166468827053905">
<ele>498</ele>
<time>2012-03-03T10:56:35Z</time>
<extensions>
<gpxtpx:TrackPointExtension>
<gpxtpx:hr>156</gpxtpx:hr>
<gpxtpx:atemp>8</gpxtpx:atemp>
</gpxtpx:TrackPointExtension>
</extensions>
</trkpt>
<trkpt lat="47.74188053794205" lon="12.166651468724012">
<ele>499</ele>
<time>2012-03-03T10:56:38Z</time>
<extensions>
<gpxtpx:TrackPointExtension>
<gpxtpx:hr>156</gpxtpx:hr>
<gpxtpx:atemp>8</gpxtpx:atemp>
</gpxtpx:TrackPointExtension>
</extensions>
</trkpt>
<trkpt lat="47.741873832419515" lon="12.166709387674928">
<ele>499</ele>
<time>2012-03-03T10:56:39Z</time>
<extensions>
<gpxtpx:TrackPointExtension>
<gpxtpx:hr>156</gpxtpx:hr>
<gpxtpx:atemp>8</gpxtpx:atemp>
</gpxtpx:TrackPointExtension>
</extensions>
</trkpt>
<trkpt lat="47.74187056347728" lon="12.166768815368414">
<ele>499</ele>
<time>2012-03-03T10:56:40Z</time>
<extensions>
<gpxtpx:TrackPointExtension>
<gpxtpx:hr>157</gpxtpx:hr>
<gpxtpx:atemp>8</gpxtpx:atemp>
</gpxtpx:TrackPointExtension>
</extensions>
</trkpt>
<trkpt lat="47.74186637252569" lon="12.166832853108644">
<ele>500</ele>
<time>2012-03-03T10:56:41Z</time>
<extensions>
<gpxtpx:TrackPointExtension>
<gpxtpx:hr>157</gpxtpx:hr>
<gpxtpx:atemp>8</gpxtpx:atemp>
</gpxtpx:TrackPointExtension>
</extensions>
</trkpt>
<trkpt lat="47.74186385795474" lon="12.16689714230597">
<ele>500</ele>
<time>2012-03-03T10:56:42Z</time>
<extensions>
<gpxtpx:TrackPointExtension>
<gpxtpx:hr>157</gpxtpx:hr>
<gpxtpx:atemp>8</gpxtpx:atemp>
</gpxtpx:TrackPointExtension>
</extensions>
</trkpt>
<trkpt lat="47.74186050519347" lon="12.16696361079812">
<ele>500</ele>
<time>2012-03-03T10:56:43Z</time>
<extensions>
<gpxtpx:TrackPointExtension>
<gpxtpx:hr>156</gpxtpx:hr>
<gpxtpx:atemp>8</gpxtpx:atemp>
</gpxtpx:TrackPointExtension>
</extensions>
</trkpt>
<trkpt lat="47.741853799670935" lon="12.167146503925323">
<ele>500</ele>
<time>2012-03-03T10:56:46Z</time>
<extensions>
<gpxtpx:TrackPointExtension>
<gpxtpx:hr>157</gpxtpx:hr>
<gpxtpx:atemp>8</gpxtpx:atemp>
</gpxtpx:TrackPointExtension>
</extensions>
</trkpt>
<trkpt lat="47.74184541776776" lon="12.167268544435501">
<ele>500</ele>
<time>2012-03-03T10:56:48Z</time>
<extensions>
<gpxtpx:TrackPointExtension>
<gpxtpx:hr>157</gpxtpx:hr>
<gpxtpx:atemp>8</gpxtpx:atemp>
</gpxtpx:TrackPointExtension>
</extensions>
</trkpt>
<trkpt lat="47.74183988571167" lon="12.167392764240503">
<ele>501</ele>
<time>2012-03-03T10:56:50Z</time>
<extensions>
<gpxtpx:TrackPointExtension>
<gpxtpx:hr>157</gpxtpx:hr>
<gpxtpx:atemp>8</gpxtpx:atemp>
</gpxtpx:TrackPointExtension>
</extensions>
</trkpt>
<trkpt lat="47.74183779023588" lon="12.167457053437829">
<ele>501</ele>
<time>2012-03-03T10:56:51Z</time>
<extensions>
<gpxtpx:TrackPointExtension>
<gpxtpx:hr>158</gpxtpx:hr>
<gpxtpx:atemp>8</gpxtpx:atemp>
</gpxtpx:TrackPointExtension>
</extensions>
</trkpt>
<trkpt lat="47.74183636531234" lon="12.167521007359028">
<ele>502</ele>
<time>2012-03-03T10:56:52Z</time>
<extensions>
<gpxtpx:TrackPointExtension>
<gpxtpx:hr>158</gpxtpx:hr>
<gpxtpx:atemp>8</gpxtpx:atemp>
</gpxtpx:TrackPointExtension>
</extensions>
</trkpt>
<trkpt lat="47.74183510802686" lon="12.16758563183248">
<ele>502</ele>
<time>2012-03-03T10:56:53Z</time>
<extensions>
<gpxtpx:TrackPointExtension>
<gpxtpx:hr>158</gpxtpx:hr>
<gpxtpx:atemp>8</gpxtpx:atemp>
</gpxtpx:TrackPointExtension>
</extensions>
</trkpt>
<trkpt lat="47.741832761093974" lon="12.167650004848838">
<ele>502</ele>
<time>2012-03-03T10:56:54Z</time>
<extensions>
<gpxtpx:TrackPointExtension>
<gpxtpx:hr>158</gpxtpx:hr>
<gpxtpx:atemp>8</gpxtpx:atemp>
</gpxtpx:TrackPointExtension>
</extensions>
</trkpt>
<trkpt lat="47.74182974360883" lon="12.167718568816781">
<ele>502</ele>
<time>2012-03-03T10:56:55Z</time>
<extensions>
<gpxtpx:TrackPointExtension>
<gpxtpx:hr>158</gpxtpx:hr>
<gpxtpx:atemp>8</gpxtpx:atemp>
</gpxtpx:TrackPointExtension>
</extensions>
</trkpt>
<trkpt lat="47.74180090986192" lon="12.168218046426773">
<ele>502</ele>
<time>2012-03-03T10:57:02Z</time>
<extensions>
<gpxtpx:TrackPointExtension>
<gpxtpx:hr>158</gpxtpx:hr>
<gpxtpx:atemp>8</gpxtpx:atemp>
</gpxtpx:TrackPointExtension>
</extensions>
</trkpt>
<trkpt lat="47.74184717796743" lon="12.16863957233727">
<ele>502</ele>
<time>2012-03-03T10:57:08Z</time>
<extensions>
<gpxtpx:TrackPointExtension>
<gpxtpx:hr>158</gpxtpx:hr>
<gpxtpx:atemp>8</gpxtpx:atemp>
</gpxtpx:TrackPointExtension>
</extensions>
</trkpt>
<trkpt lat="47.74187156930566" lon="12.168856663629413">
<ele>503</ele>
<time>2012-03-03T10:57:11Z</time>
<extensions>
<gpxtpx:TrackPointExtension>
<gpxtpx:hr>156</gpxtpx:hr>
<gpxtpx:atemp>8</gpxtpx:atemp>
</gpxtpx:TrackPointExtension>
</extensions>
</trkpt>
<trkpt lat="47.741880202665925" lon="12.16892497614026">
<ele>503</ele>
<time>2012-03-03T10:57:12Z</time>
<extensions>
<gpxtpx:TrackPointExtension>
<gpxtpx:hr>156</gpxtpx:hr>
<gpxtpx:atemp>8</gpxtpx:atemp>
</gpxtpx:TrackPointExtension>
</extensions>
</trkpt>
<trkpt lat="47.741890428587794" lon="12.168995048850775">
<ele>504</ele>
<time>2012-03-03T10:57:13Z</time>
<extensions>
<gpxtpx:TrackPointExtension>
<gpxtpx:hr>155</gpxtpx:hr>
<gpxtpx:atemp>8</gpxtpx:atemp>
</gpxtpx:TrackPointExtension>
</extensions>
</trkpt>
<trkpt lat="47.74190057069063" lon="12.169064031913877">
<ele>504</ele>
<time>2012-03-03T10:57:14Z</time>
<extensions>
<gpxtpx:TrackPointExtension>
<gpxtpx:hr>154</gpxtpx:hr>
<gpxtpx:atemp>8</gpxtpx:atemp>
</gpxtpx:TrackPointExtension>
</extensions>
</trkpt>
<trkpt lat="47.741909958422184" lon="12.169128404930234">
<ele>504</ele>
<time>2012-03-03T10:57:15Z</time>
<extensions>
<gpxtpx:TrackPointExtension>
<gpxtpx:hr>154</gpxtpx:hr>
<gpxtpx:atemp>8</gpxtpx:atemp>
</gpxtpx:TrackPointExtension>
</extensions>
</trkpt>
<trkpt lat="47.741928566247225" lon="12.169261425733566">
<ele>504</ele>
<time>2012-03-03T10:57:17Z</time>
<extensions>
<gpxtpx:TrackPointExtension>
<gpxtpx:hr>153</gpxtpx:hr>
<gpxtpx:atemp>8</gpxtpx:atemp>
</gpxtpx:TrackPointExtension>
</extensions>
</trkpt>
<trkpt lat="47.741976510733366" lon="12.169595779851079">
<ele>504</ele>
<time>2012-03-03T10:57:22Z</time>
<extensions>
<gpxtpx:TrackPointExtension>
<gpxtpx:hr>152</gpxtpx:hr>
<gpxtpx:atemp>8</gpxtpx:atemp>
</gpxtpx:TrackPointExtension>
</extensions>
</trkpt>
<trkpt lat="47.74198053404689" lon="12.169735925272107">
<ele>504</ele>
<time>2012-03-03T10:57:24Z</time>
<extensions>
<gpxtpx:TrackPointExtension>
<gpxtpx:hr>152</gpxtpx:hr>
<gpxtpx:atemp>8</gpxtpx:atemp>
</gpxtpx:TrackPointExtension>
</extensions>
</trkpt>
<trkpt lat="47.741937870159745" lon="12.170182764530182">
<ele>504</ele>
<time>2012-03-03T10:57:30Z</time>
<extensions>
<gpxtpx:TrackPointExtension>
<gpxtpx:hr>151</gpxtpx:hr>
<gpxtpx:atemp>8</gpxtpx:atemp>
</gpxtpx:TrackPointExtension>
</extensions>
</trkpt>
<trkpt lat="47.741936445236206" lon="12.1702525857836">
<ele>504</ele>
<time>2012-03-03T10:57:31Z</time>
<extensions>
<gpxtpx:TrackPointExtension>
<gpxtpx:hr>151</gpxtpx:hr>
<gpxtpx:atemp>8</gpxtpx:atemp>
</gpxtpx:TrackPointExtension>
</extensions>
</trkpt>
<trkpt lat="47.74197072722018" lon="12.170466240495443">
<ele>504</ele>
<time>2012-03-03T10:57:34Z</time>
<extensions>
<gpxtpx:TrackPointExtension>
<gpxtpx:hr>149</gpxtpx:hr>
<gpxtpx:atemp>8</gpxtpx:atemp>
</gpxtpx:TrackPointExtension>
</extensions>
</trkpt>
<trkpt lat="47.74198883213103" lon="12.170538241043687">
<ele>504</ele>
<time>2012-03-03T10:57:35Z</time>
<extensions>
<gpxtpx:TrackPointExtension>
<gpxtpx:hr>149</gpxtpx:hr>
<gpxtpx:atemp>8</gpxtpx:atemp>
</gpxtpx:TrackPointExtension>
</extensions>
</trkpt>
<trkpt lat="47.742110872641206" lon="12.17089363373816">
<ele>504</ele>
<time>2012-03-03T10:57:40Z</time>
<extensions>
<gpxtpx:TrackPointExtension>
<gpxtpx:hr>146</gpxtpx:hr>
<gpxtpx:atemp>8</gpxtpx:atemp>
</gpxtpx:TrackPointExtension>
</extensions>
</trkpt>
<trkpt lat="47.74214322678745" lon="12.17096253298223">
<ele>504</ele>
<time>2012-03-03T10:57:41Z</time>
<extensions>
<gpxtpx:TrackPointExtension>
<gpxtpx:hr>146</gpxtpx:hr>
<gpxtpx:atemp>8</gpxtpx:atemp>
</gpxtpx:TrackPointExtension>
</extensions>
</trkpt>
<trkpt lat="47.742182118818164" lon="12.17102992348373">
<ele>504</ele>
<time>2012-03-03T10:57:42Z</time>
<extensions>
<gpxtpx:TrackPointExtension>
<gpxtpx:hr>145</gpxtpx:hr>
<gpxtpx:atemp>8</gpxtpx:atemp>
</gpxtpx:TrackPointExtension>
</extensions>
</trkpt>
<trkpt lat="47.74231924675405" lon="12.171196807175875">
<ele>504</ele>
<time>2012-03-03T10:57:45Z</time>
<extensions>
<gpxtpx:TrackPointExtension>
<gpxtpx:hr>144</gpxtpx:hr>
<gpxtpx:atemp>8</gpxtpx:atemp>
</gpxtpx:TrackPointExtension>
</extensions>
</trkpt>
<trkpt lat="47.74236467666924" lon="12.171255564317107">
<ele>504</ele>
<time>2012-03-03T10:57:46Z</time>
<extensions>
<gpxtpx:TrackPointExtension>
<gpxtpx:hr>144</gpxtpx:hr>
<gpxtpx:atemp>8</gpxtpx:atemp>
</gpxtpx:TrackPointExtension>
</extensions>
</trkpt>
<trkpt lat="47.742482610046864" lon="12.171458154916763">
<ele>504</ele>
<time>2012-03-03T10:57:49Z</time>
<extensions>
<gpxtpx:TrackPointExtension>
<gpxtpx:hr>142</gpxtpx:hr>
<gpxtpx:atemp>8</gpxtpx:atemp>
</gpxtpx:TrackPointExtension>
</extensions>
</trkpt>
<trkpt lat="47.74251119233668" lon="12.171532921493053">
<ele>504</ele>
<time>2012-03-03T10:57:50Z</time>
<extensions>
<gpxtpx:TrackPointExtension>
<gpxtpx:hr>141</gpxtpx:hr>
<gpxtpx:atemp>8</gpxtpx:atemp>
</gpxtpx:TrackPointExtension>
</extensions>
</trkpt>
<trkpt lat="47.74261085316539" lon="12.171834586188197">
<ele>505</ele>
<time>2012-03-03T10:57:55Z</time>
<extensions>
<gpxtpx:TrackPointExtension>
<gpxtpx:hr>140</gpxtpx:hr>
<gpxtpx:atemp>8</gpxtpx:atemp>
</gpxtpx:TrackPointExtension>
</extensions>
</trkpt>
<trkpt lat="47.74261646904051" lon="12.17189334332943">
<ele>505</ele>
<time>2012-03-03T10:57:56Z</time>
<extensions>
<gpxtpx:TrackPointExtension>
<gpxtpx:hr>139</gpxtpx:hr>
<gpxtpx:atemp>8</gpxtpx:atemp>
</gpxtpx:TrackPointExtension>
</extensions>
</trkpt>
<trkpt lat="47.742620911449194" lon="12.171955285593867">
<ele>506</ele>
<time>2012-03-03T10:57:57Z</time>
<extensions>
<gpxtpx:TrackPointExtension>
<gpxtpx:hr>139</gpxtpx:hr>
<gpxtpx:atemp>8</gpxtpx:atemp>
</gpxtpx:TrackPointExtension>
</extensions>
</trkpt>
<trkpt lat="47.74262367747724" lon="12.172013875097036">
<ele>507</ele>
<time>2012-03-03T10:57:58Z</time>
<extensions>
<gpxtpx:TrackPointExtension>
<gpxtpx:hr>140</gpxtpx:hr>
<gpxtpx:atemp>8</gpxtpx:atemp>
</gpxtpx:TrackPointExtension>
</extensions>
</trkpt>
<trkpt lat="47.74261579848826" lon="12.172078164294362">
<ele>507</ele>
<time>2012-03-03T10:57:59Z</time>
<extensions>
<gpxtpx:TrackPointExtension>
<gpxtpx:hr>140</gpxtpx:hr>
<gpxtpx:atemp>8</gpxtpx:atemp>
</gpxtpx:TrackPointExtension>
</extensions>
</trkpt>
<trkpt lat="47.74259911850095" lon="12.172203725203872">
<ele>507</ele>
<time>2012-03-03T10:58:01Z</time>
<extensions>
<gpxtpx:TrackPointExtension>
<gpxtpx:hr>140</gpxtpx:hr>
<gpxtpx:atemp>8</gpxtpx:atemp>
</gpxtpx:TrackPointExtension>
</extensions>
</trkpt>
<trkpt lat="47.7425844501704" lon="12.172321574762464">
<ele>507</ele>
<time>2012-03-03T10:58:03Z</time>
<extensions>
<gpxtpx:TrackPointExtension>
<gpxtpx:hr>142</gpxtpx:hr>
<gpxtpx:atemp>8</gpxtpx:atemp>
</gpxtpx:TrackPointExtension>
</extensions>
</trkpt>
<trkpt lat="47.74255067110062" lon="12.17255936935544">
<ele>507</ele>
<time>2012-03-03T10:58:07Z</time>
<extensions>
<gpxtpx:TrackPointExtension>
<gpxtpx:hr>142</gpxtpx:hr>
<gpxtpx:atemp>8</gpxtpx:atemp>
</gpxtpx:TrackPointExtension>
</extensions>
</trkpt>
<trkpt lat="47.74252410046756" lon="12.17268099077046">
<ele>507</ele>
<time>2012-03-03T10:58:09Z</time>
<extensions>
<gpxtpx:TrackPointExtension>
<gpxtpx:hr>143</gpxtpx:hr>
<gpxtpx:atemp>8</gpxtpx:atemp>
</gpxtpx:TrackPointExtension>
</extensions>
</trkpt>
<trkpt lat="47.74250264279544" lon="12.172745112329721">
<ele>507</ele>
<time>2012-03-03T10:58:10Z</time>
<extensions>
<gpxtpx:TrackPointExtension>
<gpxtpx:hr>143</gpxtpx:hr>
<gpxtpx:atemp>8</gpxtpx:atemp>
</gpxtpx:TrackPointExtension>
</extensions>
</trkpt>
<trkpt lat="47.74248227477074" lon="12.17280956916511">
<ele>508</ele>
<time>2012-03-03T10:58:11Z</time>
<extensions>
<gpxtpx:TrackPointExtension>
<gpxtpx:hr>143</gpxtpx:hr>
<gpxtpx:atemp>8</gpxtpx:atemp>
</gpxtpx:TrackPointExtension>
</extensions>
</trkpt>
<trkpt lat="47.742475904524326" lon="12.17286329716444">
<ele>508</ele>
<time>2012-03-03T10:58:12Z</time>
<extensions>
<gpxtpx:TrackPointExtension>
<gpxtpx:hr>143</gpxtpx:hr>
<gpxtpx:atemp>8</gpxtpx:atemp>
</gpxtpx:TrackPointExtension>
</extensions>
</trkpt>
<trkpt lat="47.742455368861556" lon="12.172929011285305">
<ele>509</ele>
<time>2012-03-03T10:58:13Z</time>
<extensions>
<gpxtpx:TrackPointExtension>
<gpxtpx:hr>144</gpxtpx:hr>
<gpxtpx:atemp>8</gpxtpx:atemp>
</gpxtpx:TrackPointExtension>
</extensions>
</trkpt>
<trkpt lat="47.74229711852968" lon="12.173324720934033">
<ele>509</ele>
<time>2012-03-03T10:58:19Z</time>
<extensions>
<gpxtpx:TrackPointExtension>
<gpxtpx:hr>146</gpxtpx:hr>
<gpxtpx:atemp>8</gpxtpx:atemp>
</gpxtpx:TrackPointExtension>
</extensions>
</trkpt>
<trkpt lat="47.74227172136307" lon="12.173495208844543">
<ele>510</ele>
<time>2012-03-03T10:58:22Z</time>
<extensions>
<gpxtpx:TrackPointExtension>
<gpxtpx:hr>146</gpxtpx:hr>
<gpxtpx:atemp>8</gpxtpx:atemp>
</gpxtpx:TrackPointExtension>
</extensions>
</trkpt>
<trkpt lat="47.74226292036474" lon="12.17354977503419">
<ele>510</ele>
<time>2012-03-03T10:58:23Z</time>
<extensions>
<gpxtpx:TrackPointExtension>
<gpxtpx:hr>147</gpxtpx:hr>
<gpxtpx:atemp>8</gpxtpx:atemp>
</gpxtpx:TrackPointExtension>
</extensions>
</trkpt>
<trkpt lat="47.74225026369095" lon="12.173609370365739">
<ele>510</ele>
<time>2012-03-03T10:58:24Z</time>
<extensions>
<gpxtpx:TrackPointExtension>
<gpxtpx:hr>147</gpxtpx:hr>
<gpxtpx:atemp>8</gpxtpx:atemp>
</gpxtpx:TrackPointExtension>
</extensions>
</trkpt>
<trkpt lat="47.74223458953202" lon="12.173668881878257">
<ele>511</ele>
<time>2012-03-03T10:58:25Z</time>
<extensions>
<gpxtpx:TrackPointExtension>
<gpxtpx:hr>147</gpxtpx:hr>
<gpxtpx:atemp>8</gpxtpx:atemp>
</gpxtpx:TrackPointExtension>
</extensions>
</trkpt>
<trkpt lat="47.74221086874604" lon="12.173797208815813">
<ele>511</ele>
<time>2012-03-03T10:58:27Z</time>
<extensions>
<gpxtpx:TrackPointExtension>
<gpxtpx:hr>147</gpxtpx:hr>
<gpxtpx:atemp>8</gpxtpx:atemp>
</gpxtpx:TrackPointExtension>
</extensions>
</trkpt>
<trkpt lat="47.742205671966076" lon="12.173935929313302">
<ele>511</ele>
<time>2012-03-03T10:58:29Z</time>
<extensions>
<gpxtpx:TrackPointExtension>
<gpxtpx:hr>148</gpxtpx:hr>
<gpxtpx:atemp>8</gpxtpx:atemp>
</gpxtpx:TrackPointExtension>
</extensions>
</trkpt>
<trkpt lat="47.742211455479264" lon="12.174069620668888">
<ele>511</ele>
<time>2012-03-03T10:58:31Z</time>
<extensions>
<gpxtpx:TrackPointExtension>
<gpxtpx:hr>148</gpxtpx:hr>
<gpxtpx:atemp>8</gpxtpx:atemp>
</gpxtpx:TrackPointExtension>
</extensions>
</trkpt>
<trkpt lat="47.74224967695773" lon="12.174321915954351">
<ele>511</ele>
<time>2012-03-03T10:58:35Z</time>
<extensions>
<gpxtpx:TrackPointExtension>
<gpxtpx:hr>150</gpxtpx:hr>
<gpxtpx:atemp>8</gpxtpx:atemp>
</gpxtpx:TrackPointExtension>
</extensions>
</trkpt>
<trkpt lat="47.74237146601081" lon="12.174712596461177">
<ele>511</ele>
<time>2012-03-03T10:58:42Z</time>
<extensions>
<gpxtpx:TrackPointExtension>
<gpxtpx:hr>151</gpxtpx:hr>
<gpxtpx:atemp>8</gpxtpx:atemp>
</gpxtpx:TrackPointExtension>
</extensions>
</trkpt>
<trkpt lat="47.74238873273134" lon="12.174773029983044">
<ele>511</ele>
<time>2012-03-03T10:58:43Z</time>
<extensions>
<gpxtpx:TrackPointExtension>
<gpxtpx:hr>150</gpxtpx:hr>
<gpxtpx:atemp>8</gpxtpx:atemp>
</gpxtpx:TrackPointExtension>
</extensions>
</trkpt>
<trkpt lat="47.74240675382316" lon="12.174828266724944">
<ele>512</ele>
<time>2012-03-03T10:58:44Z</time>
<extensions>
<gpxtpx:TrackPointExtension>
<gpxtpx:hr>150</gpxtpx:hr>
<gpxtpx:atemp>8</gpxtpx:atemp>
</gpxtpx:TrackPointExtension>
</extensions>
</trkpt>
<trkpt lat="47.74241412989795" lon="12.174887862056494">
<ele>512</ele>
<time>2012-03-03T10:58:45Z</time>
<extensions>
<gpxtpx:TrackPointExtension>
<gpxtpx:hr>149</gpxtpx:hr>
<gpxtpx:atemp>8</gpxtpx:atemp>
</gpxtpx:TrackPointExtension>
</extensions>
</trkpt>
<trkpt lat="47.742410358041525" lon="12.174957264214754">
<ele>513</ele>
<time>2012-03-03T10:58:46Z</time>
<extensions>
<gpxtpx:TrackPointExtension>
<gpxtpx:hr>150</gpxtpx:hr>
<gpxtpx:atemp>8</gpxtpx:atemp>
</gpxtpx:TrackPointExtension>
</extensions>
</trkpt>
<trkpt lat="47.742403484880924" lon="12.175023145973682">
<ele>513</ele>
<time>2012-03-03T10:58:47Z</time>
<extensions>
<gpxtpx:TrackPointExtension>
<gpxtpx:hr>149</gpxtpx:hr>
<gpxtpx:atemp>8</gpxtpx:atemp>
</gpxtpx:TrackPointExtension>
</extensions>
</trkpt>
<trkpt lat="47.74246450513601" lon="12.175239818170667">
<ele>513</ele>
<time>2012-03-03T10:58:51Z</time>
<extensions>
<gpxtpx:TrackPointExtension>
<gpxtpx:hr>151</gpxtpx:hr>
<gpxtpx:atemp>7</gpxtpx:atemp>
</gpxtpx:TrackPointExtension>
</extensions>
</trkpt>
<trkpt lat="47.74253164418042" lon="12.175320200622082">
<ele>513</ele>
<time>2012-03-03T10:58:53Z</time>
<extensions>
<gpxtpx:TrackPointExtension>
<gpxtpx:hr>151</gpxtpx:hr>
<gpxtpx:atemp>7</gpxtpx:atemp>
</gpxtpx:TrackPointExtension>
</extensions>
</trkpt>
<trkpt lat="47.74260993115604" lon="12.175403935834765">
<ele>513</ele>
<time>2012-03-03T10:58:55Z</time>
<extensions>
<gpxtpx:TrackPointExtension>
<gpxtpx:hr>151</gpxtpx:hr>
<gpxtpx:atemp>7</gpxtpx:atemp>
</gpxtpx:TrackPointExtension>
</extensions>
</trkpt>
<trkpt lat="47.74265251122415" lon="12.175438804551959">
<ele>513</ele>
<time>2012-03-03T10:58:56Z</time>
<extensions>
<gpxtpx:TrackPointExtension>
<gpxtpx:hr>151</gpxtpx:hr>
<gpxtpx:atemp>7</gpxtpx:atemp>
</gpxtpx:TrackPointExtension>
</extensions>
</trkpt>
<trkpt lat="47.74273415096104" lon="12.175513319671154">
<ele>513</ele>
<time>2012-03-03T10:58:58Z</time>
<extensions>
<gpxtpx:TrackPointExtension>
<gpxtpx:hr>150</gpxtpx:hr>
<gpxtpx:atemp>7</gpxtpx:atemp>
</gpxtpx:TrackPointExtension>
</extensions>
</trkpt>
<trkpt lat="47.74277740158141" lon="12.175546092912555">
<ele>514</ele>
<time>2012-03-03T10:58:59Z</time>
<extensions>
<gpxtpx:TrackPointExtension>
<gpxtpx:hr>150</gpxtpx:hr>
<gpxtpx:atemp>7</gpxtpx:atemp>
</gpxtpx:TrackPointExtension>
</extensions>
</trkpt>
<trkpt lat="47.74281964637339" lon="12.175583140924573">
<ele>514</ele>
<time>2012-03-03T10:59:00Z</time>
<extensions>
<gpxtpx:TrackPointExtension>
<gpxtpx:hr>150</gpxtpx:hr>
<gpxtpx:atemp>7</gpxtpx:atemp>
</gpxtpx:TrackPointExtension>
</extensions>
</trkpt>
<trkpt lat="47.74285677820444" lon="12.175621697679162">
<ele>515</ele>
<time>2012-03-03T10:59:01Z</time>
<extensions>
<gpxtpx:TrackPointExtension>
<gpxtpx:hr>151</gpxtpx:hr>
<gpxtpx:atemp>7</gpxtpx:atemp>
</gpxtpx:TrackPointExtension>
</extensions>
</trkpt>
<trkpt lat="47.74289248511195" lon="12.175661344081163">
<ele>515</ele>
<time>2012-03-03T10:59:02Z</time>
<extensions>
<gpxtpx:TrackPointExtension>
<gpxtpx:hr>151</gpxtpx:hr>
<gpxtpx:atemp>7</gpxtpx:atemp>
</gpxtpx:TrackPointExtension>
</extensions>
</trkpt>
<trkpt lat="47.742928359657526" lon="12.175701661035419">
<ele>515</ele>
<time>2012-03-03T10:59:03Z</time>
<extensions>
<gpxtpx:TrackPointExtension>
<gpxtpx:hr>152</gpxtpx:hr>
<gpxtpx:atemp>7</gpxtpx:atemp>
</gpxtpx:TrackPointExtension>
</extensions>
</trkpt>
<trkpt lat="47.743087615817785" lon="12.175934677943587">
<ele>515</ele>
<time>2012-03-03T10:59:09Z</time>
<extensions>
<gpxtpx:TrackPointExtension>
<gpxtpx:hr>152</gpxtpx:hr>
<gpxtpx:atemp>7</gpxtpx:atemp>
</gpxtpx:TrackPointExtension>
</extensions>
</trkpt>
<trkpt lat="47.74315542541444" lon="12.176151098683476">
<ele>515</ele>
<time>2012-03-03T10:59:13Z</time>
<extensions>
<gpxtpx:TrackPointExtension>
<gpxtpx:hr>151</gpxtpx:hr>
<gpxtpx:atemp>7</gpxtpx:atemp>
</gpxtpx:TrackPointExtension>
</extensions>
</trkpt>
<trkpt lat="47.74317663162947" lon="12.176206838339567">
<ele>515</ele>
<time>2012-03-03T10:59:14Z</time>
<extensions>
<gpxtpx:TrackPointExtension>
<gpxtpx:hr>152</gpxtpx:hr>
<gpxtpx:atemp>7</gpxtpx:atemp>
</gpxtpx:TrackPointExtension>
</extensions>
</trkpt>
<trkpt lat="47.743229856714606" lon="12.176309349015355">
<ele>515</ele>
<time>2012-03-03T10:59:16Z</time>
<extensions>
<gpxtpx:TrackPointExtension>
<gpxtpx:hr>152</gpxtpx:hr>
<gpxtpx:atemp>7</gpxtpx:atemp>
</gpxtpx:TrackPointExtension>
</extensions>
</trkpt>
<trkpt lat="47.74325609207153" lon="12.176369195804">
<ele>516</ele>
<time>2012-03-03T10:59:17Z</time>
<extensions>
<gpxtpx:TrackPointExtension>
<gpxtpx:hr>153</gpxtpx:hr>
<gpxtpx:atemp>7</gpxtpx:atemp>
</gpxtpx:TrackPointExtension>
</extensions>
</trkpt>
<trkpt lat="47.74328626692295" lon="12.176412865519524">
<ele>516</ele>
<time>2012-03-03T10:59:18Z</time>
<extensions>
<gpxtpx:TrackPointExtension>
<gpxtpx:hr>153</gpxtpx:hr>
<gpxtpx:atemp>7</gpxtpx:atemp>
</gpxtpx:TrackPointExtension>
</extensions>
</trkpt>
<trkpt lat="47.74330956861377" lon="12.176470197737217">
<ele>517</ele>
<time>2012-03-03T10:59:19Z</time>
<extensions>
<gpxtpx:TrackPointExtension>
<gpxtpx:hr>153</gpxtpx:hr>
<gpxtpx:atemp>7</gpxtpx:atemp>
</gpxtpx:TrackPointExtension>
</extensions>
</trkpt>
<trkpt lat="47.743332870304585" lon="12.176532223820686">
<ele>517</ele>
<time>2012-03-03T10:59:20Z</time>
<extensions>
<gpxtpx:TrackPointExtension>
<gpxtpx:hr>153</gpxtpx:hr>
<gpxtpx:atemp>7</gpxtpx:atemp>
</gpxtpx:TrackPointExtension>
</extensions>
</trkpt>
<trkpt lat="47.743373438715935" lon="12.176960203796625">
<ele>518</ele>
<time>2012-03-03T10:59:26Z</time>
<extensions>
<gpxtpx:TrackPointExtension>
<gpxtpx:hr>153</gpxtpx:hr>
<gpxtpx:atemp>7</gpxtpx:atemp>
</gpxtpx:TrackPointExtension>
</extensions>
</trkpt>
<trkpt lat="47.74338282644749" lon="12.17701661400497">
<ele>518</ele>
<time>2012-03-03T10:59:27Z</time>
<extensions>
<gpxtpx:TrackPointExtension>
<gpxtpx:hr>153</gpxtpx:hr>
<gpxtpx:atemp>7</gpxtpx:atemp>
</gpxtpx:TrackPointExtension>
</extensions>
</trkpt>
<trkpt lat="47.7433960698545" lon="12.17706698924303">
<ele>518</ele>
<time>2012-03-03T10:59:28Z</time>
<extensions>
<gpxtpx:TrackPointExtension>
<gpxtpx:hr>153</gpxtpx:hr>
<gpxtpx:atemp>7</gpxtpx:atemp>
</gpxtpx:TrackPointExtension>
</extensions>
</trkpt>
<trkpt lat="47.743406211957335" lon="12.177117699757218">
<ele>519</ele>
<time>2012-03-03T10:59:29Z</time>
<extensions>
<gpxtpx:TrackPointExtension>
<gpxtpx:hr>152</gpxtpx:hr>
<gpxtpx:atemp>7</gpxtpx:atemp>
</gpxtpx:TrackPointExtension>
</extensions>
</trkpt>
<trkpt lat="47.74341568350792" lon="12.177164554595947">
<ele>519</ele>
<time>2012-03-03T10:59:30Z</time>
<extensions>
<gpxtpx:TrackPointExtension>
<gpxtpx:hr>152</gpxtpx:hr>
<gpxtpx:atemp>7</gpxtpx:atemp>
</gpxtpx:TrackPointExtension>
</extensions>
</trkpt>
<trkpt lat="47.74344015866518" lon="12.1772482059896">
<ele>519</ele>
<time>2012-03-03T10:59:32Z</time>
<extensions>
<gpxtpx:TrackPointExtension>
<gpxtpx:hr>152</gpxtpx:hr>
<gpxtpx:atemp>7</gpxtpx:atemp>
</gpxtpx:TrackPointExtension>
</extensions>
</trkpt>
<trkpt lat="47.74348768405616" lon="12.17736111022532">
<ele>520</ele>
<time>2012-03-03T10:59:35Z</time>
<extensions>
<gpxtpx:TrackPointExtension>
<gpxtpx:hr>153</gpxtpx:hr>
<gpxtpx:atemp>7</gpxtpx:atemp>
</gpxtpx:TrackPointExtension>
</extensions>
</trkpt>
<trkpt lat="47.74349891580641" lon="12.177401427179575">
<ele>520</ele>
<time>2012-03-03T10:59:36Z</time>
<extensions>
<gpxtpx:TrackPointExtension>
<gpxtpx:hr>152</gpxtpx:hr>
<gpxtpx:atemp>7</gpxtpx:atemp>
</gpxtpx:TrackPointExtension>
</extensions>
</trkpt>
<trkpt lat="47.7435150090605" lon="12.17743587680161">
<ele>521</ele>
<time>2012-03-03T10:59:37Z</time>
<extensions>
<gpxtpx:TrackPointExtension>
<gpxtpx:hr>153</gpxtpx:hr>
<gpxtpx:atemp>7</gpxtpx:atemp>
</gpxtpx:TrackPointExtension>
</extensions>
</trkpt>
<trkpt lat="47.743537472561" lon="12.177463872358203">
<ele>521</ele>
<time>2012-03-03T10:59:38Z</time>
<extensions>
<gpxtpx:TrackPointExtension>
<gpxtpx:hr>153</gpxtpx:hr>
<gpxtpx:atemp>7</gpxtpx:atemp>
</gpxtpx:TrackPointExtension>
</extensions>
</trkpt>
<trkpt lat="47.743622213602066" lon="12.177573926746845">
<ele>522</ele>
<time>2012-03-03T10:59:42Z</time>
<extensions>
<gpxtpx:TrackPointExtension>
<gpxtpx:hr>153</gpxtpx:hr>
<gpxtpx:atemp>7</gpxtpx:atemp>
</gpxtpx:TrackPointExtension>
</extensions>
</trkpt>
<trkpt lat="47.743639228865504" lon="12.177598737180233">
<ele>522</ele>
<time>2012-03-03T10:59:43Z</time>
<extensions>
<gpxtpx:TrackPointExtension>
<gpxtpx:hr>154</gpxtpx:hr>
<gpxtpx:atemp>7</gpxtpx:atemp>
</gpxtpx:TrackPointExtension>
</extensions>
</trkpt>
<trkpt lat="47.74365406483412" lon="12.177622457966208">
<ele>523</ele>
<time>2012-03-03T10:59:44Z</time>
<extensions>
<gpxtpx:TrackPointExtension>
<gpxtpx:hr>154</gpxtpx:hr>
<gpxtpx:atemp>7</gpxtpx:atemp>
</gpxtpx:TrackPointExtension>
</extensions>
</trkpt>
<trkpt lat="47.74366588331759" lon="12.177642239257693">
<ele>523</ele>
<time>2012-03-03T10:59:45Z</time>
<extensions>
<gpxtpx:TrackPointExtension>
<gpxtpx:hr>154</gpxtpx:hr>
<gpxtpx:atemp>7</gpxtpx:atemp>
</gpxtpx:TrackPointExtension>
</extensions>
</trkpt>
<trkpt lat="47.743676444515586" lon="12.177664367482066">
<ele>523</ele>
<time>2012-03-03T10:59:46Z</time>
<extensions>
<gpxtpx:TrackPointExtension>
<gpxtpx:hr>155</gpxtpx:hr>
<gpxtpx:atemp>7</gpxtpx:atemp>
</gpxtpx:TrackPointExtension>
</extensions>
</trkpt>
<trkpt lat="47.743728160858154" lon="12.177730165421963">
<ele>523</ele>
<time>2012-03-03T10:59:49Z</time>
<extensions>
<gpxtpx:TrackPointExtension>
<gpxtpx:hr>156</gpxtpx:hr>
<gpxtpx:atemp>7</gpxtpx:atemp>
</gpxtpx:TrackPointExtension>
</extensions>
</trkpt>
<trkpt lat="47.74378214031458" lon="12.177790934219956">
<ele>524</ele>
<time>2012-03-03T10:59:52Z</time>
<extensions>
<gpxtpx:TrackPointExtension>
<gpxtpx:hr>156</gpxtpx:hr>
<gpxtpx:atemp>7</gpxtpx:atemp>
</gpxtpx:TrackPointExtension>
</extensions>
</trkpt>
<trkpt lat="47.743797646835446" lon="12.177806692197919">
<ele>524</ele>
<time>2012-03-03T10:59:53Z</time>
<extensions>
<gpxtpx:TrackPointExtension>
<gpxtpx:hr>156</gpxtpx:hr>
<gpxtpx:atemp>7</gpxtpx:atemp>
</gpxtpx:TrackPointExtension>
</extensions>
</trkpt>
<trkpt lat="47.74381340481341" lon="12.177823288366199">
<ele>525</ele>
<time>2012-03-03T10:59:54Z</time>
<extensions>
<gpxtpx:TrackPointExtension>
<gpxtpx:hr>157</gpxtpx:hr>
<gpxtpx:atemp>7</gpxtpx:atemp>
</gpxtpx:TrackPointExtension>
</extensions>
</trkpt>
<trkpt lat="47.74382958188653" lon="12.177838627249002">
<ele>525</ele>
<time>2012-03-03T10:59:55Z</time>
<extensions>
<gpxtpx:TrackPointExtension>
<gpxtpx:hr>157</gpxtpx:hr>
<gpxtpx:atemp>7</gpxtpx:atemp>
</gpxtpx:TrackPointExtension>
</extensions>
</trkpt>
<trkpt lat="47.74384374730289" lon="12.177854385226965">
<ele>525</ele>
<time>2012-03-03T10:59:56Z</time>
<extensions>
<gpxtpx:TrackPointExtension>
<gpxtpx:hr>157</gpxtpx:hr>
<gpxtpx:atemp>7</gpxtpx:atemp>
</gpxtpx:TrackPointExtension>
</extensions>
</trkpt>
<trkpt lat="47.74391055107117" lon="12.177891852334142">
<ele>525</ele>
<time>2012-03-03T10:59:59Z</time>
<extensions>
<gpxtpx:TrackPointExtension>
<gpxtpx:hr>158</gpxtpx:hr>
<gpxtpx:atemp>7</gpxtpx:atemp>
</gpxtpx:TrackPointExtension>
</extensions>
</trkpt>
<trkpt lat="47.743946090340614" lon="12.177889505401254">
<ele>525</ele>
<time>2012-03-03T11:00:00Z</time>
<extensions>
<gpxtpx:TrackPointExtension>
<gpxtpx:hr>157</gpxtpx:hr>
<gpxtpx:atemp>7</gpxtpx:atemp>
</gpxtpx:TrackPointExtension>
</extensions>
</trkpt>
<trkpt lat="47.74412554688752" lon="12.177909119054675">
<ele>525</ele>
<time>2012-03-03T11:00:04Z</time>
<extensions>
<gpxtpx:TrackPointExtension>
<gpxtpx:hr>156</gpxtpx:hr>
<gpxtpx:atemp>7</gpxtpx:atemp>
</gpxtpx:TrackPointExtension>
</extensions>
</trkpt>
<trkpt lat="47.74427424184978" lon="12.177928816527128">
<ele>525</ele>
<time>2012-03-03T11:00:07Z</time>
<extensions>
<gpxtpx:TrackPointExtension>
<gpxtpx:hr>156</gpxtpx:hr>
<gpxtpx:atemp>7</gpxtpx:atemp>
</gpxtpx:TrackPointExtension>
</extensions>
</trkpt>
<trkpt lat="47.744329730048776" lon="12.177948346361518">
<ele>525</ele>
<time>2012-03-03T11:00:08Z</time>
<extensions>
<gpxtpx:TrackPointExtension>
<gpxtpx:hr>156</gpxtpx:hr>
<gpxtpx:atemp>7</gpxtpx:atemp>
</gpxtpx:TrackPointExtension>
</extensions>
</trkpt>
<trkpt lat="47.744543720036745" lon="12.178078768774867">
<ele>525</ele>
<time>2012-03-03T11:00:12Z</time>
<extensions>
<gpxtpx:TrackPointExtension>
<gpxtpx:hr>155</gpxtpx:hr>
<gpxtpx:atemp>7</gpxtpx:atemp>
</gpxtpx:TrackPointExtension>
</extensions>
</trkpt>
<trkpt lat="47.744602309539914" lon="12.178124701604247">
<ele>525</ele>
<time>2012-03-03T11:00:13Z</time>
<extensions>
<gpxtpx:TrackPointExtension>
<gpxtpx:hr>155</gpxtpx:hr>
<gpxtpx:atemp>7</gpxtpx:atemp>
</gpxtpx:TrackPointExtension>
</extensions>
</trkpt>
<trkpt lat="47.74506272748113" lon="12.1785001270473">
<ele>525</ele>
<time>2012-03-03T11:00:21Z</time>
<extensions>
<gpxtpx:TrackPointExtension>
<gpxtpx:hr>153</gpxtpx:hr>
<gpxtpx:atemp>6</gpxtpx:atemp>
</gpxtpx:TrackPointExtension>
</extensions>
</trkpt>
<trkpt lat="47.74514973163605" lon="12.178632477298379">
<ele>525</ele>
<time>2012-03-03T11:00:23Z</time>
<extensions>
<gpxtpx:TrackPointExtension>
<gpxtpx:hr>152</gpxtpx:hr>
<gpxtpx:atemp>6</gpxtpx:atemp>
</gpxtpx:TrackPointExtension>
</extensions>
</trkpt>
<trkpt lat="47.745225336402655" lon="12.178779663518071">
<ele>525</ele>
<time>2012-03-03T11:00:25Z</time>
<extensions>
<gpxtpx:TrackPointExtension>
<gpxtpx:hr>151</gpxtpx:hr>
<gpxtpx:atemp>6</gpxtpx:atemp>
</gpxtpx:TrackPointExtension>
</extensions>
</trkpt>
<trkpt lat="47.74536665529013" lon="12.179178390651941">
<ele>525</ele>
<time>2012-03-03T11:00:31Z</time>
<extensions>
<gpxtpx:TrackPointExtension>
<gpxtpx:hr>149</gpxtpx:hr>
<gpxtpx:atemp>6</gpxtpx:atemp>
</gpxtpx:TrackPointExtension>
</extensions>
</trkpt>
<trkpt lat="47.745547369122505" lon="12.179561778903008">
<ele>526</ele>
<time>2012-03-03T11:00:38Z</time>
<extensions>
<gpxtpx:TrackPointExtension>
<gpxtpx:hr>148</gpxtpx:hr>
<gpxtpx:atemp>6</gpxtpx:atemp>
</gpxtpx:TrackPointExtension>
</extensions>
</trkpt>
<trkpt lat="47.74556966498494" lon="12.179618440568447">
<ele>526</ele>
<time>2012-03-03T11:00:39Z</time>
<extensions>
<gpxtpx:TrackPointExtension>
<gpxtpx:hr>148</gpxtpx:hr>
<gpxtpx:atemp>6</gpxtpx:atemp>
</gpxtpx:TrackPointExtension>
</extensions>
</trkpt>
<trkpt lat="47.745587937533855" lon="12.179674599319696">
<ele>527</ele>
<time>2012-03-03T11:00:40Z</time>
<extensions>
<gpxtpx:TrackPointExtension>
<gpxtpx:hr>148</gpxtpx:hr>
<gpxtpx:atemp>6</gpxtpx:atemp>
</gpxtpx:TrackPointExtension>
</extensions>
</trkpt>
<trkpt lat="47.74560780264437" lon="12.17973050661385">
<ele>527</ele>
<time>2012-03-03T11:00:41Z</time>
<extensions>
<gpxtpx:TrackPointExtension>
<gpxtpx:hr>148</gpxtpx:hr>
<gpxtpx:atemp>6</gpxtpx:atemp>
</gpxtpx:TrackPointExtension>
</extensions>
</trkpt>
<trkpt lat="47.74562783539295" lon="12.179784569889307">
<ele>527</ele>
<time>2012-03-03T11:00:42Z</time>
<extensions>
<gpxtpx:TrackPointExtension>
<gpxtpx:hr>148</gpxtpx:hr>
<gpxtpx:atemp>6</gpxtpx:atemp>
</gpxtpx:TrackPointExtension>
</extensions>
</trkpt>
<trkpt lat="47.74567502550781" lon="12.179895965382457">
<ele>527</ele>
<time>2012-03-03T11:00:44Z</time>
<extensions>
<gpxtpx:TrackPointExtension>
<gpxtpx:hr>149</gpxtpx:hr>
<gpxtpx:atemp>6</gpxtpx:atemp>
</gpxtpx:TrackPointExtension>
</extensions>
</trkpt>
<trkpt lat="47.745775524526834" lon="12.180155972018838">
<ele>527</ele>
<time>2012-03-03T11:00:49Z</time>
<extensions>
<gpxtpx:TrackPointExtension>
<gpxtpx:hr>149</gpxtpx:hr>
<gpxtpx:atemp>6</gpxtpx:atemp>
</gpxtpx:TrackPointExtension>
</extensions>
</trkpt>
<trkpt lat="47.74579530581832" lon="12.180203413590789">
<ele>528</ele>
<time>2012-03-03T11:00:50Z</time>
<extensions>
<gpxtpx:TrackPointExtension>
<gpxtpx:hr>149</gpxtpx:hr>
<gpxtpx:atemp>6</gpxtpx:atemp>
</gpxtpx:TrackPointExtension>
</extensions>
</trkpt>
<trkpt lat="47.745814584195614" lon="12.18024993315339">
<ele>529</ele>
<time>2012-03-03T11:00:51Z</time>
<extensions>
<gpxtpx:TrackPointExtension>
<gpxtpx:hr>150</gpxtpx:hr>
<gpxtpx:atemp>6</gpxtpx:atemp>
</gpxtpx:TrackPointExtension>
</extensions>
</trkpt>
<trkpt lat="47.74583260528743" lon="12.180294776335359">
<ele>529</ele>
<time>2012-03-03T11:00:52Z</time>
<extensions>
<gpxtpx:TrackPointExtension>
<gpxtpx:hr>150</gpxtpx:hr>
<gpxtpx:atemp>6</gpxtpx:atemp>
</gpxtpx:TrackPointExtension>
</extensions>
</trkpt>
<trkpt lat="47.74584794417024" lon="12.180343978106976">
<ele>529</ele>
<time>2012-03-03T11:00:53Z</time>
<extensions>
<gpxtpx:TrackPointExtension>
<gpxtpx:hr>150</gpxtpx:hr>
<gpxtpx:atemp>6</gpxtpx:atemp>
</gpxtpx:TrackPointExtension>
</extensions>
</trkpt>
<trkpt lat="47.74588708765805" lon="12.180445063859224">
<ele>529</ele>
<time>2012-03-03T11:00:55Z</time>
<extensions>
<gpxtpx:TrackPointExtension>
<gpxtpx:hr>151</gpxtpx:hr>
<gpxtpx:atemp>6</gpxtpx:atemp>
</gpxtpx:TrackPointExtension>
</extensions>
</trkpt>
<trkpt lat="47.74592447094619" lon="12.180661903694272">
<ele>530</ele>
<time>2012-03-03T11:00:59Z</time>
<extensions>
<gpxtpx:TrackPointExtension>
<gpxtpx:hr>152</gpxtpx:hr>
<gpxtpx:atemp>6</gpxtpx:atemp>
</gpxtpx:TrackPointExtension>
</extensions>
</trkpt>
<trkpt lat="47.74592279456556" lon="12.180719235911965">
<ele>530</ele>
<time>2012-03-03T11:01:00Z</time>
<extensions>
<gpxtpx:TrackPointExtension>
<gpxtpx:hr>152</gpxtpx:hr>
<gpxtpx:atemp>6</gpxtpx:atemp>
</gpxtpx:TrackPointExtension>
</extensions>
</trkpt>
<trkpt lat="47.7459223754704" lon="12.180778998881578">
<ele>531</ele>
<time>2012-03-03T11:01:01Z</time>
<extensions>
<gpxtpx:TrackPointExtension>
<gpxtpx:hr>152</gpxtpx:hr>
<gpxtpx:atemp>6</gpxtpx:atemp>
</gpxtpx:TrackPointExtension>
</extensions>
</trkpt>
<trkpt lat="47.74591608904302" lon="12.180843288078904">
<ele>531</ele>
<time>2012-03-03T11:01:02Z</time>
<extensions>
<gpxtpx:TrackPointExtension>
<gpxtpx:hr>152</gpxtpx:hr>
<gpxtpx:atemp>6</gpxtpx:atemp>
</gpxtpx:TrackPointExtension>
</extensions>
</trkpt>
<trkpt lat="47.74588239379227" lon="12.180916545912623">
<ele>532</ele>
<time>2012-03-03T11:01:03Z</time>
<extensions>
<gpxtpx:TrackPointExtension>
<gpxtpx:hr>152</gpxtpx:hr>
<gpxtpx:atemp>6</gpxtpx:atemp>
</gpxtpx:TrackPointExtension>
</extensions>
</trkpt>
<trkpt lat="47.745878705754876" lon="12.181221144273877">
<ele>532</ele>
<time>2012-03-03T11:01:08Z</time>
<extensions>
<gpxtpx:TrackPointExtension>
<gpxtpx:hr>154</gpxtpx:hr>
<gpxtpx:atemp>6</gpxtpx:atemp>
</gpxtpx:TrackPointExtension>
</extensions>
</trkpt>
<trkpt lat="47.74588675238192" lon="12.18133270740509">
<ele>532</ele>
<time>2012-03-03T11:01:10Z</time>
<extensions>
<gpxtpx:TrackPointExtension>
<gpxtpx:hr>154</gpxtpx:hr>
<gpxtpx:atemp>6</gpxtpx:atemp>
</gpxtpx:TrackPointExtension>
</extensions>
</trkpt>
<trkpt lat="47.74589002132416" lon="12.181385345757008">
<ele>532</ele>
<time>2012-03-03T11:01:11Z</time>
<extensions>
<gpxtpx:TrackPointExtension>
<gpxtpx:hr>155</gpxtpx:hr>
<gpxtpx:atemp>6</gpxtpx:atemp>
</gpxtpx:TrackPointExtension>
</extensions>
</trkpt>
<trkpt lat="47.74589848704636" lon="12.181431697681546">
<ele>533</ele>
<time>2012-03-03T11:01:12Z</time>
<extensions>
<gpxtpx:TrackPointExtension>
<gpxtpx:hr>155</gpxtpx:hr>
<gpxtpx:atemp>6</gpxtpx:atemp>
</gpxtpx:TrackPointExtension>
</extensions>
</trkpt>
<trkpt lat="47.74590544402599" lon="12.18148022890091">
<ele>533</ele>
<time>2012-03-03T11:01:13Z</time>
<extensions>
<gpxtpx:TrackPointExtension>
<gpxtpx:hr>155</gpxtpx:hr>
<gpxtpx:atemp>6</gpxtpx:atemp>
</gpxtpx:TrackPointExtension>
</extensions>
</trkpt>
<trkpt lat="47.74591902270913" lon="12.18153152614832">
<ele>534</ele>
<time>2012-03-03T11:01:14Z</time>
<extensions>
<gpxtpx:TrackPointExtension>
<gpxtpx:hr>155</gpxtpx:hr>
<gpxtpx:atemp>6</gpxtpx:atemp>
</gpxtpx:TrackPointExtension>
</extensions>
</trkpt>
<trkpt lat="47.74606604129076" lon="12.181830257177353">
<ele>534</ele>
<time>2012-03-03T11:01:21Z</time>
<extensions>
<gpxtpx:TrackPointExtension>
<gpxtpx:hr>156</gpxtpx:hr>
<gpxtpx:atemp>6</gpxtpx:atemp>
</gpxtpx:TrackPointExtension>
</extensions>
</trkpt>
<trkpt lat="47.74610409513116" lon="12.181891780346632">
<ele>534</ele>
<time>2012-03-03T11:01:23Z</time>
<extensions>
<gpxtpx:TrackPointExtension>
<gpxtpx:hr>157</gpxtpx:hr>
<gpxtpx:atemp>6</gpxtpx:atemp>
</gpxtpx:TrackPointExtension>
</extensions>
</trkpt>
<trkpt lat="47.74612630717456" lon="12.181919440627098">
<ele>534</ele>
<time>2012-03-03T11:01:24Z</time>
<extensions>
<gpxtpx:TrackPointExtension>
<gpxtpx:hr>157</gpxtpx:hr>
<gpxtpx:atemp>6</gpxtpx:atemp>
</gpxtpx:TrackPointExtension>
</extensions>
</trkpt>
<trkpt lat="47.746143490076065" lon="12.18194986693561">
<ele>535</ele>
<time>2012-03-03T11:01:25Z</time>
<extensions>
<gpxtpx:TrackPointExtension>
<gpxtpx:hr>157</gpxtpx:hr>
<gpxtpx:atemp>6</gpxtpx:atemp>
</gpxtpx:TrackPointExtension>
</extensions>
</trkpt>
<trkpt lat="47.74616218172014" lon="12.181974342092872">
<ele>535</ele>
<time>2012-03-03T11:01:26Z</time>
<extensions>
<gpxtpx:TrackPointExtension>
<gpxtpx:hr>157</gpxtpx:hr>
<gpxtpx:atemp>6</gpxtpx:atemp>
</gpxtpx:TrackPointExtension>
</extensions>
</trkpt>
<trkpt lat="47.74618590250611" lon="12.181996805593371">
<ele>536</ele>
<time>2012-03-03T11:01:27Z</time>
<extensions>
<gpxtpx:TrackPointExtension>
<gpxtpx:hr>157</gpxtpx:hr>
<gpxtpx:atemp>6</gpxtpx:atemp>
</gpxtpx:TrackPointExtension>
</extensions>
</trkpt>
<trkpt lat="47.746245665475726" lon="12.18203779309988">
<ele>536</ele>
<time>2012-03-03T11:01:29Z</time>
<extensions>
<gpxtpx:TrackPointExtension>
<gpxtpx:hr>157</gpxtpx:hr>
<gpxtpx:atemp>6</gpxtpx:atemp>
</gpxtpx:TrackPointExtension>
</extensions>
</trkpt>
<trkpt lat="47.74642629548907" lon="12.182171400636435">
<ele>536</ele>
<time>2012-03-03T11:01:34Z</time>
<extensions>
<gpxtpx:TrackPointExtension>
<gpxtpx:hr>157</gpxtpx:hr>
<gpxtpx:atemp>6</gpxtpx:atemp>
</gpxtpx:TrackPointExtension>
</extensions>
</trkpt>
<trkpt lat="47.74656199850142" lon="12.182321939617395">
<ele>536</ele>
<time>2012-03-03T11:01:38Z</time>
<extensions>
<gpxtpx:TrackPointExtension>
<gpxtpx:hr>157</gpxtpx:hr>
<gpxtpx:atemp>6</gpxtpx:atemp>
</gpxtpx:TrackPointExtension>
</extensions>
</trkpt>
<trkpt lat="47.74659410119057" lon="12.182371560484171">
<ele>537</ele>
<time>2012-03-03T11:01:39Z</time>
<extensions>
<gpxtpx:TrackPointExtension>
<gpxtpx:hr>157</gpxtpx:hr>
<gpxtpx:atemp>6</gpxtpx:atemp>
</gpxtpx:TrackPointExtension>
</extensions>
</trkpt>
<trkpt lat="47.7466200850904" lon="12.182424450293183">
<ele>537</ele>
<time>2012-03-03T11:01:40Z</time>
<extensions>
<gpxtpx:TrackPointExtension>
<gpxtpx:hr>157</gpxtpx:hr>
<gpxtpx:atemp>6</gpxtpx:atemp>
</gpxtpx:TrackPointExtension>
</extensions>
</trkpt>
<trkpt lat="47.74664464406669" lon="12.182470969855785">
<ele>538</ele>
<time>2012-03-03T11:01:41Z</time>
<extensions>
<gpxtpx:TrackPointExtension>
<gpxtpx:hr>157</gpxtpx:hr>
<gpxtpx:atemp>6</gpxtpx:atemp>
</gpxtpx:TrackPointExtension>
</extensions>
</trkpt>
<trkpt lat="47.746609188616276" lon="12.182666854932904">
<ele>538</ele>
<time>2012-03-03T11:01:44Z</time>
<extensions>
<gpxtpx:TrackPointExtension>
<gpxtpx:hr>157</gpxtpx:hr>
<gpxtpx:atemp>6</gpxtpx:atemp>
</gpxtpx:TrackPointExtension>
</extensions>
</trkpt>
<trkpt lat="47.746586222201586" lon="12.182862237095833">
<ele>538</ele>
<time>2012-03-03T11:01:47Z</time>
<extensions>
<gpxtpx:TrackPointExtension>
<gpxtpx:hr>158</gpxtpx:hr>
<gpxtpx:atemp>6</gpxtpx:atemp>
</gpxtpx:TrackPointExtension>
</extensions>
</trkpt>
<trkpt lat="47.74657658301294" lon="12.18308980576694">
<ele>538</ele>
<time>2012-03-03T11:01:51Z</time>
<extensions>
<gpxtpx:TrackPointExtension>
<gpxtpx:hr>158</gpxtpx:hr>
<gpxtpx:atemp>6</gpxtpx:atemp>
</gpxtpx:TrackPointExtension>
</extensions>
</trkpt>
<trkpt lat="47.7466132119298" lon="12.18320849351585">
<ele>538</ele>
<time>2012-03-03T11:01:54Z</time>
<extensions>
<gpxtpx:TrackPointExtension>
<gpxtpx:hr>158</gpxtpx:hr>
<gpxtpx:atemp>6</gpxtpx:atemp>
</gpxtpx:TrackPointExtension>
</extensions>
</trkpt>
<trkpt lat="47.74662804789841" lon="12.183246966451406">
<ele>539</ele>
<time>2012-03-03T11:01:55Z</time>
<extensions>
<gpxtpx:TrackPointExtension>
<gpxtpx:hr>158</gpxtpx:hr>
<gpxtpx:atemp>6</gpxtpx:atemp>
</gpxtpx:TrackPointExtension>
</extensions>
</trkpt>
<trkpt lat="47.74664154276252" lon="12.183291055262089">
<ele>539</ele>
<time>2012-03-03T11:01:56Z</time>
<extensions>
<gpxtpx:TrackPointExtension>
<gpxtpx:hr>158</gpxtpx:hr>
<gpxtpx:atemp>6</gpxtpx:atemp>
</gpxtpx:TrackPointExtension>
</extensions>
</trkpt>
<trkpt lat="47.746659060940146" lon="12.183333719149232">
<ele>540</ele>
<time>2012-03-03T11:01:57Z</time>
<extensions>
<gpxtpx:TrackPointExtension>
<gpxtpx:hr>158</gpxtpx:hr>
<gpxtpx:atemp>6</gpxtpx:atemp>
</gpxtpx:TrackPointExtension>
</extensions>
</trkpt>
<trkpt lat="47.74668496102095" lon="12.183377221226692">
<ele>540</ele>
<time>2012-03-03T11:01:58Z</time>
<extensions>
<gpxtpx:TrackPointExtension>
<gpxtpx:hr>157</gpxtpx:hr>
<gpxtpx:atemp>6</gpxtpx:atemp>
</gpxtpx:TrackPointExtension>
</extensions>
</trkpt>
<trkpt lat="47.74676375091076" lon="12.183513091877103">
<ele>540</ele>
<time>2012-03-03T11:02:01Z</time>
<extensions>
<gpxtpx:TrackPointExtension>
<gpxtpx:hr>158</gpxtpx:hr>
<gpxtpx:atemp>5</gpxtpx:atemp>
</gpxtpx:TrackPointExtension>
</extensions>
</trkpt>
<trkpt lat="47.74687506258488" lon="12.18367863446474">
<ele>540</ele>
<time>2012-03-03T11:02:04Z</time>
<extensions>
<gpxtpx:TrackPointExtension>
<gpxtpx:hr>158</gpxtpx:hr>
<gpxtpx:atemp>5</gpxtpx:atemp>
</gpxtpx:TrackPointExtension>
</extensions>
</trkpt>
<trkpt lat="47.74691135622561" lon="12.183731608092785">
<ele>541</ele>
<time>2012-03-03T11:02:05Z</time>
<extensions>
<gpxtpx:TrackPointExtension>
<gpxtpx:hr>159</gpxtpx:hr>
<gpxtpx:atemp>5</gpxtpx:atemp>
</gpxtpx:TrackPointExtension>
</extensions>
</trkpt>
<trkpt lat="47.746940022334456" lon="12.183784916996956">
<ele>542</ele>
<time>2012-03-03T11:02:06Z</time>
<extensions>
<gpxtpx:TrackPointExtension>
<gpxtpx:hr>159</gpxtpx:hr>
<gpxtpx:atemp>5</gpxtpx:atemp>
</gpxtpx:TrackPointExtension>
</extensions>
</trkpt>
<trkpt lat="47.74696935899556" lon="12.183833783492446">
<ele>542</ele>
<time>2012-03-03T11:02:07Z</time>
<extensions>
<gpxtpx:TrackPointExtension>
<gpxtpx:hr>160</gpxtpx:hr>
<gpxtpx:atemp>5</gpxtpx:atemp>
</gpxtpx:TrackPointExtension>
</extensions>
</trkpt>
<trkpt lat="47.747075809165835" lon="12.184085492044687">
<ele>543</ele>
<time>2012-03-03T11:02:12Z</time>
<extensions>
<gpxtpx:TrackPointExtension>
<gpxtpx:hr>162</gpxtpx:hr>
<gpxtpx:atemp>5</gpxtpx:atemp>
</gpxtpx:TrackPointExtension>
</extensions>
</trkpt>
<trkpt lat="47.7470984403044" lon="12.184132179245353">
<ele>543</ele>
<time>2012-03-03T11:02:13Z</time>
<extensions>
<gpxtpx:TrackPointExtension>
<gpxtpx:hr>163</gpxtpx:hr>
<gpxtpx:atemp>5</gpxtpx:atemp>
</gpxtpx:TrackPointExtension>
</extensions>
</trkpt>
<trkpt lat="47.74712375365198" lon="12.18418138101697">
<ele>543</ele>
<time>2012-03-03T11:02:14Z</time>
<extensions>
<gpxtpx:TrackPointExtension>
<gpxtpx:hr>164</gpxtpx:hr>
<gpxtpx:atemp>5</gpxtpx:atemp>
</gpxtpx:TrackPointExtension>
</extensions>
</trkpt>
<trkpt lat="47.74714604951441" lon="12.184234270825982">
<ele>544</ele>
<time>2012-03-03T11:02:15Z</time>
<extensions>
<gpxtpx:TrackPointExtension>
<gpxtpx:hr>164</gpxtpx:hr>
<gpxtpx:atemp>5</gpxtpx:atemp>
</gpxtpx:TrackPointExtension>
</extensions>
</trkpt>
<trkpt lat="47.74716264568269" lon="12.184288250282407">
<ele>544</ele>
<time>2012-03-03T11:02:16Z</time>
<extensions>
<gpxtpx:TrackPointExtension>
<gpxtpx:hr>165</gpxtpx:hr>
<gpxtpx:atemp>5</gpxtpx:atemp>
</gpxtpx:TrackPointExtension>
</extensions>
</trkpt>
<trkpt lat="47.747206734493375" lon="12.184438537806273">
<ele>544</ele>
<time>2012-03-03T11:02:19Z</time>
<extensions>
<gpxtpx:TrackPointExtension>
<gpxtpx:hr>166</gpxtpx:hr>
<gpxtpx:atemp>5</gpxtpx:atemp>
</gpxtpx:TrackPointExtension>
</extensions>
</trkpt>
<trkpt lat="47.74724059738219" lon="12.184536186978221">
<ele>545</ele>
<time>2012-03-03T11:02:21Z</time>
<extensions>
<gpxtpx:TrackPointExtension>
<gpxtpx:hr>166</gpxtpx:hr>
<gpxtpx:atemp>5</gpxtpx:atemp>
</gpxtpx:TrackPointExtension>
</extensions>
</trkpt>
<trkpt lat="47.74725878611207" lon="12.184590334072709">
<ele>545</ele>
<time>2012-03-03T11:02:22Z</time>
<extensions>
<gpxtpx:TrackPointExtension>
<gpxtpx:hr>166</gpxtpx:hr>
<gpxtpx:atemp>5</gpxtpx:atemp>
</gpxtpx:TrackPointExtension>
</extensions>
</trkpt>
<trkpt lat="47.74727923795581" lon="12.184638697654009">
<ele>545</ele>
<time>2012-03-03T11:02:23Z</time>
<extensions>
<gpxtpx:TrackPointExtension>
<gpxtpx:hr>166</gpxtpx:hr>
<gpxtpx:atemp>5</gpxtpx:atemp>
</gpxtpx:TrackPointExtension>
</extensions>
</trkpt>
<trkpt lat="47.7472987677902" lon="12.184683792293072">
<ele>546</ele>
<time>2012-03-03T11:02:24Z</time>
<extensions>
<gpxtpx:TrackPointExtension>
<gpxtpx:hr>166</gpxtpx:hr>
<gpxtpx:atemp>5</gpxtpx:atemp>
</gpxtpx:TrackPointExtension>
</extensions>
</trkpt>
<trkpt lat="47.747318632900715" lon="12.184732155874372">
<ele>546</ele>
<time>2012-03-03T11:02:25Z</time>
<extensions>
<gpxtpx:TrackPointExtension>
<gpxtpx:hr>165</gpxtpx:hr>
<gpxtpx:atemp>5</gpxtpx:atemp>
</gpxtpx:TrackPointExtension>
</extensions>
</trkpt>
<trkpt lat="47.74733749218285" lon="12.184781525284052">
<ele>546</ele>
<time>2012-03-03T11:02:26Z</time>
<extensions>
<gpxtpx:TrackPointExtension>
<gpxtpx:hr>165</gpxtpx:hr>
<gpxtpx:atemp>5</gpxtpx:atemp>
</gpxtpx:TrackPointExtension>
</extensions>
</trkpt>
<trkpt lat="47.74744394235313" lon="12.185061564669013">
<ele>546</ele>
<time>2012-03-03T11:02:31Z</time>
<extensions>
<gpxtpx:TrackPointExtension>
<gpxtpx:hr>165</gpxtpx:hr>
<gpxtpx:atemp>5</gpxtpx:atemp>
</gpxtpx:TrackPointExtension>
</extensions>
</trkpt>
<trkpt lat="47.74746154434979" lon="12.1851209923625">
<ele>546</ele>
<time>2012-03-03T11:02:32Z</time>
<extensions>
<gpxtpx:TrackPointExtension>
<gpxtpx:hr>164</gpxtpx:hr>
<gpxtpx:atemp>5</gpxtpx:atemp>
</gpxtpx:TrackPointExtension>
</extensions>
</trkpt>
<trkpt lat="47.74761836975813" lon="12.185576548799872">
<ele>546</ele>
<time>2012-03-03T11:02:39Z</time>
<extensions>
<gpxtpx:TrackPointExtension>
<gpxtpx:hr>163</gpxtpx:hr>
<gpxtpx:atemp>5</gpxtpx:atemp>
</gpxtpx:TrackPointExtension>
</extensions>
</trkpt>
<trkpt lat="47.747777458280325" lon="12.185967899858952">
<ele>546</ele>
<time>2012-03-03T11:02:45Z</time>
<extensions>
<gpxtpx:TrackPointExtension>
<gpxtpx:hr>160</gpxtpx:hr>
<gpxtpx:atemp>5</gpxtpx:atemp>
</gpxtpx:TrackPointExtension>
</extensions>
</trkpt>
<trkpt lat="47.74783277884126" lon="12.186092119663954">
<ele>546</ele>
<time>2012-03-03T11:02:47Z</time>
<extensions>
<gpxtpx:TrackPointExtension>
<gpxtpx:hr>159</gpxtpx:hr>
<gpxtpx:atemp>5</gpxtpx:atemp>
</gpxtpx:TrackPointExtension>
</extensions>
</trkpt>
<trkpt lat="47.747858511283994" lon="12.18615691177547">
<ele>546</ele>
<time>2012-03-03T11:02:48Z</time>
<extensions>
<gpxtpx:TrackPointExtension>
<gpxtpx:hr>158</gpxtpx:hr>
<gpxtpx:atemp>5</gpxtpx:atemp>
</gpxtpx:TrackPointExtension>
</extensions>
</trkpt>
<trkpt lat="47.74790997616947" lon="12.186273587867618">
<ele>546</ele>
<time>2012-03-03T11:02:50Z</time>
<extensions>
<gpxtpx:TrackPointExtension>
<gpxtpx:hr>157</gpxtpx:hr>
<gpxtpx:atemp>5</gpxtpx:atemp>
</gpxtpx:TrackPointExtension>
</extensions>
</trkpt>
<trkpt lat="47.74797108024359" lon="12.186402920633554">
<ele>547</ele>
<time>2012-03-03T11:02:52Z</time>
<extensions>
<gpxtpx:TrackPointExtension>
<gpxtpx:hr>155</gpxtpx:hr>
<gpxtpx:atemp>5</gpxtpx:atemp>
</gpxtpx:TrackPointExtension>
</extensions>
</trkpt>
<trkpt lat="47.7480030991137" lon="12.186461007222533">
<ele>547</ele>
<time>2012-03-03T11:02:53Z</time>
<extensions>
<gpxtpx:TrackPointExtension>
<gpxtpx:hr>154</gpxtpx:hr>
<gpxtpx:atemp>5</gpxtpx:atemp>
</gpxtpx:TrackPointExtension>
</extensions>
</trkpt>
<trkpt lat="47.7480358723551" lon="12.186517920345068">
<ele>548</ele>
<time>2012-03-03T11:02:54Z</time>
<extensions>
<gpxtpx:TrackPointExtension>
<gpxtpx:hr>154</gpxtpx:hr>
<gpxtpx:atemp>5</gpxtpx:atemp>
</gpxtpx:TrackPointExtension>
</extensions>
</trkpt>
<trkpt lat="47.74807275272906" lon="12.186574330553412">
<ele>548</ele>
<time>2012-03-03T11:02:55Z</time>
<extensions>
<gpxtpx:TrackPointExtension>
<gpxtpx:hr>153</gpxtpx:hr>
<gpxtpx:atemp>5</gpxtpx:atemp>
</gpxtpx:TrackPointExtension>
</extensions>
</trkpt>
<trkpt lat="47.748176604509354" lon="12.186748338863254">
<ele>548</ele>
<time>2012-03-03T11:02:58Z</time>
<extensions>
<gpxtpx:TrackPointExtension>
<gpxtpx:hr>154</gpxtpx:hr>
<gpxtpx:atemp>5</gpxtpx:atemp>
</gpxtpx:TrackPointExtension>
</extensions>
</trkpt>
<trkpt lat="47.74826536886394" lon="12.187023516744375">
<ele>548</ele>
<time>2012-03-03T11:03:02Z</time>
<extensions>
<gpxtpx:TrackPointExtension>
<gpxtpx:hr>154</gpxtpx:hr>
<gpxtpx:atemp>5</gpxtpx:atemp>
</gpxtpx:TrackPointExtension>
</extensions>
</trkpt>
<trkpt lat="47.748274840414524" lon="12.187097109854221">
<ele>548</ele>
<time>2012-03-03T11:03:03Z</time>
<extensions>
<gpxtpx:TrackPointExtension>
<gpxtpx:hr>153</gpxtpx:hr>
<gpxtpx:atemp>5</gpxtpx:atemp>
</gpxtpx:TrackPointExtension>
</extensions>
</trkpt>
<trkpt lat="47.748283641412854" lon="12.187238009646535">
<ele>548</ele>
<time>2012-03-03T11:03:05Z</time>
<extensions>
<gpxtpx:TrackPointExtension>
<gpxtpx:hr>152</gpxtpx:hr>
<gpxtpx:atemp>5</gpxtpx:atemp>
</gpxtpx:TrackPointExtension>
</extensions>
</trkpt>
<trkpt lat="47.74828045628965" lon="12.187526011839509">
<ele>548</ele>
<time>2012-03-03T11:03:09Z</time>
<extensions>
<gpxtpx:TrackPointExtension>
<gpxtpx:hr>151</gpxtpx:hr>
<gpxtpx:atemp>5</gpxtpx:atemp>
</gpxtpx:TrackPointExtension>
</extensions>
</trkpt>
<trkpt lat="47.748291017487645" lon="12.188060693442822">
<ele>549</ele>
<time>2012-03-03T11:03:17Z</time>
<extensions>
<gpxtpx:TrackPointExtension>
<gpxtpx:hr>149</gpxtpx:hr>
<gpxtpx:atemp>5</gpxtpx:atemp>
</gpxtpx:TrackPointExtension>
</extensions>
</trkpt>
<trkpt lat="47.748303674161434" lon="12.188125066459179">
<ele>550</ele>
<time>2012-03-03T11:03:18Z</time>
<extensions>
<gpxtpx:TrackPointExtension>
<gpxtpx:hr>150</gpxtpx:hr>
<gpxtpx:atemp>5</gpxtpx:atemp>
</gpxtpx:TrackPointExtension>
</extensions>
</trkpt>
<trkpt lat="47.748315408825874" lon="12.188188433647156">
<ele>550</ele>
<time>2012-03-03T11:03:19Z</time>
<extensions>
<gpxtpx:TrackPointExtension>
<gpxtpx:hr>149</gpxtpx:hr>
<gpxtpx:atemp>5</gpxtpx:atemp>
</gpxtpx:TrackPointExtension>
</extensions>
</trkpt>
<trkpt lat="47.748329071328044" lon="12.188250878825784">
<ele>550</ele>
<time>2012-03-03T11:03:20Z</time>
<extensions>
<gpxtpx:TrackPointExtension>
<gpxtpx:hr>149</gpxtpx:hr>
<gpxtpx:atemp>5</gpxtpx:atemp>
</gpxtpx:TrackPointExtension>
</extensions>
</trkpt>
<trkpt lat="47.748386822640896" lon="12.188646169379354">
<ele>550</ele>
<time>2012-03-03T11:03:26Z</time>
<extensions>
<gpxtpx:TrackPointExtension>
<gpxtpx:hr>150</gpxtpx:hr>
<gpxtpx:atemp>5</gpxtpx:atemp>
</gpxtpx:TrackPointExtension>
</extensions>
</trkpt>
<trkpt lat="47.74839721620083" lon="12.18870903365314">
<ele>551</ele>
<time>2012-03-03T11:03:27Z</time>
<extensions>
<gpxtpx:TrackPointExtension>
<gpxtpx:hr>150</gpxtpx:hr>
<gpxtpx:atemp>5</gpxtpx:atemp>
</gpxtpx:TrackPointExtension>
</extensions>
</trkpt>
<trkpt lat="47.74840543046594" lon="12.18877642415464">
<ele>551</ele>
<time>2012-03-03T11:03:28Z</time>
<extensions>
<gpxtpx:TrackPointExtension>
<gpxtpx:hr>151</gpxtpx:hr>
<gpxtpx:atemp>5</gpxtpx:atemp>
</gpxtpx:TrackPointExtension>
</extensions>
</trkpt>
<trkpt lat="47.7484143152833" lon="12.188842808827758">
<ele>552</ele>
<time>2012-03-03T11:03:29Z</time>
<extensions>
<gpxtpx:TrackPointExtension>
<gpxtpx:hr>151</gpxtpx:hr>
<gpxtpx:atemp>5</gpxtpx:atemp>
</gpxtpx:TrackPointExtension>
</extensions>
</trkpt>
<trkpt lat="47.74842655286193" lon="12.188907181844115">
<ele>552</ele>
<time>2012-03-03T11:03:30Z</time>
<extensions>
<gpxtpx:TrackPointExtension>
<gpxtpx:hr>151</gpxtpx:hr>
<gpxtpx:atemp>5</gpxtpx:atemp>
</gpxtpx:TrackPointExtension>
</extensions>
</trkpt>
<trkpt lat="47.7484383713454" lon="12.188974656164646">
<ele>553</ele>
<time>2012-03-03T11:03:31Z</time>
<extensions>
<gpxtpx:TrackPointExtension>
<gpxtpx:hr>151</gpxtpx:hr>
<gpxtpx:atemp>5</gpxtpx:atemp>
</gpxtpx:TrackPointExtension>
</extensions>
</trkpt>
<trkpt lat="47.74846175685525" lon="12.189101809635758">
<ele>553</ele>
<time>2012-03-03T11:03:33Z</time>
<extensions>
<gpxtpx:TrackPointExtension>
<gpxtpx:hr>151</gpxtpx:hr>
<gpxtpx:atemp>5</gpxtpx:atemp>
</gpxtpx:TrackPointExtension>
</extensions>
</trkpt>
<trkpt lat="47.74848380126059" lon="12.18923281878233">
<ele>553</ele>
<time>2012-03-03T11:03:35Z</time>
<extensions>
<gpxtpx:TrackPointExtension>
<gpxtpx:hr>151</gpxtpx:hr>
<gpxtpx:atemp>5</gpxtpx:atemp>
</gpxtpx:TrackPointExtension>
</extensions>
</trkpt>
<trkpt lat="47.74854272603989" lon="12.189486538991332">
<ele>553</ele>
<time>2012-03-03T11:03:39Z</time>
<extensions>
<gpxtpx:TrackPointExtension>
<gpxtpx:hr>150</gpxtpx:hr>
<gpxtpx:atemp>5</gpxtpx:atemp>
</gpxtpx:TrackPointExtension>
</extensions>
</trkpt>
<trkpt lat="47.748599890619516" lon="12.189666917547584">
<ele>553</ele>
<time>2012-03-03T11:03:42Z</time>
<extensions>
<gpxtpx:TrackPointExtension>
<gpxtpx:hr>151</gpxtpx:hr>
<gpxtpx:atemp>5</gpxtpx:atemp>
</gpxtpx:TrackPointExtension>
</extensions>
</trkpt>
<trkpt lat="47.74868840351701" lon="12.189904293045402">
<ele>553</ele>
<time>2012-03-03T11:03:46Z</time>
<extensions>
<gpxtpx:TrackPointExtension>
<gpxtpx:hr>150</gpxtpx:hr>
<gpxtpx:atemp>5</gpxtpx:atemp>
</gpxtpx:TrackPointExtension>
</extensions>
</trkpt>
<trkpt lat="47.74871430359781" lon="12.189958859235048">
<ele>553</ele>
<time>2012-03-03T11:03:47Z</time>
<extensions>
<gpxtpx:TrackPointExtension>
<gpxtpx:hr>151</gpxtpx:hr>
<gpxtpx:atemp>5</gpxtpx:atemp>
</gpxtpx:TrackPointExtension>
</extensions>
</trkpt>
<trkpt lat="47.74874037131667" lon="12.190011916682124">
<ele>554</ele>
<time>2012-03-03T11:03:48Z</time>
<extensions>
<gpxtpx:TrackPointExtension>
<gpxtpx:hr>151</gpxtpx:hr>
<gpxtpx:atemp>5</gpxtpx:atemp>
</gpxtpx:TrackPointExtension>
</extensions>
</trkpt>
<trkpt lat="47.74876928888261" lon="12.19006396830082">
<ele>554</ele>
<time>2012-03-03T11:03:49Z</time>
<extensions>
<gpxtpx:TrackPointExtension>
<gpxtpx:hr>151</gpxtpx:hr>
<gpxtpx:atemp>5</gpxtpx:atemp>
</gpxtpx:TrackPointExtension>
</extensions>
</trkpt>
<trkpt lat="47.74879661388695" lon="12.190116690471768">
<ele>555</ele>
<time>2012-03-03T11:03:50Z</time>
<extensions>
<gpxtpx:TrackPointExtension>
<gpxtpx:hr>150</gpxtpx:hr>
<gpxtpx:atemp>5</gpxtpx:atemp>
</gpxtpx:TrackPointExtension>
</extensions>
</trkpt>
<trkpt lat="47.74890775792301" lon="12.19031517393887">
<ele>555</ele>
<time>2012-03-03T11:03:54Z</time>
<extensions>
<gpxtpx:TrackPointExtension>
<gpxtpx:hr>151</gpxtpx:hr>
<gpxtpx:atemp>5</gpxtpx:atemp>
</gpxtpx:TrackPointExtension>
</extensions>
</trkpt>
<trkpt lat="47.74906424805522" lon="12.1905985660851">
<ele>555</ele>
<time>2012-03-03T11:04:00Z</time>
<extensions>
<gpxtpx:TrackPointExtension>
<gpxtpx:hr>152</gpxtpx:hr>
<gpxtpx:atemp>5</gpxtpx:atemp>
</gpxtpx:TrackPointExtension>
</extensions>
</trkpt>
<trkpt lat="47.74909107014537" lon="12.190646091476083">
<ele>555</ele>
<time>2012-03-03T11:04:01Z</time>
<extensions>
<gpxtpx:TrackPointExtension>
<gpxtpx:hr>152</gpxtpx:hr>
<gpxtpx:atemp>5</gpxtpx:atemp>
</gpxtpx:TrackPointExtension>
</extensions>
</trkpt>
<trkpt lat="47.7491154614836" lon="12.190691186115146">
<ele>556</ele>
<time>2012-03-03T11:04:02Z</time>
<extensions>
<gpxtpx:TrackPointExtension>
<gpxtpx:hr>152</gpxtpx:hr>
<gpxtpx:atemp>5</gpxtpx:atemp>
</gpxtpx:TrackPointExtension>
</extensions>
</trkpt>
<trkpt lat="47.74913842789829" lon="12.190741309896111">
<ele>556</ele>
<time>2012-03-03T11:04:03Z</time>
<extensions>
<gpxtpx:TrackPointExtension>
<gpxtpx:hr>152</gpxtpx:hr>
<gpxtpx:atemp>5</gpxtpx:atemp>
</gpxtpx:TrackPointExtension>
</extensions>
</trkpt>
<trkpt lat="47.74915938265622" lon="12.190792607143521">
<ele>556</ele>
<time>2012-03-03T11:04:04Z</time>
<extensions>
<gpxtpx:TrackPointExtension>
<gpxtpx:hr>152</gpxtpx:hr>
<gpxtpx:atemp>5</gpxtpx:atemp>
</gpxtpx:TrackPointExtension>
</extensions>
</trkpt>
<trkpt lat="47.749183690175414" lon="12.190843904390931">
<ele>557</ele>
<time>2012-03-03T11:04:05Z</time>
<extensions>
<gpxtpx:TrackPointExtension>
<gpxtpx:hr>152</gpxtpx:hr>
<gpxtpx:atemp>5</gpxtpx:atemp>
</gpxtpx:TrackPointExtension>
</extensions>
</trkpt>
<trkpt lat="47.749223252758384" lon="12.190952450037003">
<ele>557</ele>
<time>2012-03-03T11:04:07Z</time>
<extensions>
<gpxtpx:TrackPointExtension>
<gpxtpx:hr>152</gpxtpx:hr>
<gpxtpx:atemp>5</gpxtpx:atemp>
</gpxtpx:TrackPointExtension>
</extensions>
</trkpt>
<trkpt lat="47.74925149977207" lon="12.191070802509785">
<ele>557</ele>
<time>2012-03-03T11:04:09Z</time>
<extensions>
<gpxtpx:TrackPointExtension>
<gpxtpx:hr>152</gpxtpx:hr>
<gpxtpx:atemp>5</gpxtpx:atemp>
</gpxtpx:TrackPointExtension>
</extensions>
</trkpt>
<trkpt lat="47.74926692247391" lon="12.191129811108112">
<ele>558</ele>
<time>2012-03-03T11:04:10Z</time>
<extensions>
<gpxtpx:TrackPointExtension>
<gpxtpx:hr>153</gpxtpx:hr>
<gpxtpx:atemp>5</gpxtpx:atemp>
</gpxtpx:TrackPointExtension>
</extensions>
</trkpt>
<trkpt lat="47.749279495328665" lon="12.191188149154186">
<ele>558</ele>
<time>2012-03-03T11:04:11Z</time>
<extensions>
<gpxtpx:TrackPointExtension>
<gpxtpx:hr>153</gpxtpx:hr>
<gpxtpx:atemp>5</gpxtpx:atemp>
</gpxtpx:TrackPointExtension>
</extensions>
</trkpt>
<trkpt lat="47.74928946979344" lon="12.191247828304768">
<ele>559</ele>
<time>2012-03-03T11:04:12Z</time>
<extensions>
<gpxtpx:TrackPointExtension>
<gpxtpx:hr>153</gpxtpx:hr>
<gpxtpx:atemp>5</gpxtpx:atemp>
</gpxtpx:TrackPointExtension>
</extensions>
</trkpt>
<trkpt lat="47.74929843842983" lon="12.19130901619792">
<ele>559</ele>
<time>2012-03-03T11:04:13Z</time>
<extensions>
<gpxtpx:TrackPointExtension>
<gpxtpx:hr>153</gpxtpx:hr>
<gpxtpx:atemp>5</gpxtpx:atemp>
</gpxtpx:TrackPointExtension>
</extensions>
</trkpt>
<trkpt lat="47.74931159801781" lon="12.191505571827292">
<ele>559</ele>
<time>2012-03-03T11:04:16Z</time>
<extensions>
<gpxtpx:TrackPointExtension>
<gpxtpx:hr>155</gpxtpx:hr>
<gpxtpx:atemp>5</gpxtpx:atemp>
</gpxtpx:TrackPointExtension>
</extensions>
</trkpt>
<trkpt lat="47.7493086643517" lon="12.19164764508605">
<ele>559</ele>
<time>2012-03-03T11:04:18Z</time>
<extensions>
<gpxtpx:TrackPointExtension>
<gpxtpx:hr>156</gpxtpx:hr>
<gpxtpx:atemp>5</gpxtpx:atemp>
</gpxtpx:TrackPointExtension>
</extensions>
</trkpt>
<trkpt lat="47.7492933254689" lon="12.19213924370706">
<ele>559</ele>
<time>2012-03-03T11:04:25Z</time>
<extensions>
<gpxtpx:TrackPointExtension>
<gpxtpx:hr>156</gpxtpx:hr>
<gpxtpx:atemp>5</gpxtpx:atemp>
</gpxtpx:TrackPointExtension>
</extensions>
</trkpt>
<trkpt lat="47.749299025163054" lon="12.192279975861311">
<ele>559</ele>
<time>2012-03-03T11:04:27Z</time>
<extensions>
<gpxtpx:TrackPointExtension>
<gpxtpx:hr>156</gpxtpx:hr>
<gpxtpx:atemp>6</gpxtpx:atemp>
</gpxtpx:TrackPointExtension>
</extensions>
</trkpt>
<trkpt lat="47.74930329993367" lon="12.192347031086683">
<ele>560</ele>
<time>2012-03-03T11:04:28Z</time>
<extensions>
<gpxtpx:TrackPointExtension>
<gpxtpx:hr>156</gpxtpx:hr>
<gpxtpx:atemp>6</gpxtpx:atemp>
</gpxtpx:TrackPointExtension>
</extensions>
</trkpt>
<trkpt lat="47.74931042455137" lon="12.192417522892356">
<ele>560</ele>
<time>2012-03-03T11:04:29Z</time>
<extensions>
<gpxtpx:TrackPointExtension>
<gpxtpx:hr>156</gpxtpx:hr>
<gpxtpx:atemp>5</gpxtpx:atemp>
</gpxtpx:TrackPointExtension>
</extensions>
</trkpt>
<trkpt lat="47.749319141730666" lon="12.192487930878997">
<ele>561</ele>
<time>2012-03-03T11:04:30Z</time>
<extensions>
<gpxtpx:TrackPointExtension>
<gpxtpx:hr>156</gpxtpx:hr>
<gpxtpx:atemp>6</gpxtpx:atemp>
</gpxtpx:TrackPointExtension>
</extensions>
</trkpt>
<trkpt lat="47.74932651780546" lon="12.19255548901856">
<ele>561</ele>
<time>2012-03-03T11:04:31Z</time>
<extensions>
<gpxtpx:TrackPointExtension>
<gpxtpx:hr>156</gpxtpx:hr>
<gpxtpx:atemp>6</gpxtpx:atemp>
</gpxtpx:TrackPointExtension>
</extensions>
</trkpt>
<trkpt lat="47.74933774955571" lon="12.192623298615217">
<ele>561</ele>
<time>2012-03-03T11:04:32Z</time>
<extensions>
<gpxtpx:TrackPointExtension>
<gpxtpx:hr>156</gpxtpx:hr>
<gpxtpx:atemp>6</gpxtpx:atemp>
</gpxtpx:TrackPointExtension>
</extensions>
</trkpt>
<trkpt lat="47.74945618584752" lon="12.192918928340077">
<ele>561</ele>
<time>2012-03-03T11:04:37Z</time>
<extensions>
<gpxtpx:TrackPointExtension>
<gpxtpx:hr>155</gpxtpx:hr>
<gpxtpx:atemp>6</gpxtpx:atemp>
</gpxtpx:TrackPointExtension>
</extensions>
</trkpt>
<trkpt lat="47.749556098133326" lon="12.193049266934395">
<ele>561</ele>
<time>2012-03-03T11:04:40Z</time>
<extensions>
<gpxtpx:TrackPointExtension>
<gpxtpx:hr>153</gpxtpx:hr>
<gpxtpx:atemp>6</gpxtpx:atemp>
</gpxtpx:TrackPointExtension>
</extensions>
</trkpt>
<trkpt lat="47.74963312782347" lon="12.193122273311019">
<ele>561</ele>
<time>2012-03-03T11:04:42Z</time>
<extensions>
<gpxtpx:TrackPointExtension>
<gpxtpx:hr>153</gpxtpx:hr>
<gpxtpx:atemp>6</gpxtpx:atemp>
</gpxtpx:TrackPointExtension>
</extensions>
</trkpt>
<trkpt lat="47.74986421689391" lon="12.193320170044899">
<ele>561</ele>
<time>2012-03-03T11:04:48Z</time>
<extensions>
<gpxtpx:TrackPointExtension>
<gpxtpx:hr>152</gpxtpx:hr>
<gpxtpx:atemp>6</gpxtpx:atemp>
</gpxtpx:TrackPointExtension>
</extensions>
</trkpt>
<trkpt lat="47.74990176782012" lon="12.193359062075615">
<ele>562</ele>
<time>2012-03-03T11:04:49Z</time>
<extensions>
<gpxtpx:TrackPointExtension>
<gpxtpx:hr>152</gpxtpx:hr>
<gpxtpx:atemp>6</gpxtpx:atemp>
</gpxtpx:TrackPointExtension>
</extensions>
</trkpt>
<trkpt lat="47.74993889965117" lon="12.193404575809836">
<ele>562</ele>
<time>2012-03-03T11:04:50Z</time>
<extensions>
<gpxtpx:TrackPointExtension>
<gpxtpx:hr>152</gpxtpx:hr>
<gpxtpx:atemp>6</gpxtpx:atemp>
</gpxtpx:TrackPointExtension>
</extensions>
</trkpt>
<trkpt lat="47.74997368454933" lon="12.193456627428532">
<ele>563</ele>
<time>2012-03-03T11:04:51Z</time>
<extensions>
<gpxtpx:TrackPointExtension>
<gpxtpx:hr>153</gpxtpx:hr>
<gpxtpx:atemp>6</gpxtpx:atemp>
</gpxtpx:TrackPointExtension>
</extensions>
</trkpt>
<trkpt lat="47.75000779889524" lon="12.193510020151734">
<ele>563</ele>
<time>2012-03-03T11:04:52Z</time>
<extensions>
<gpxtpx:TrackPointExtension>
<gpxtpx:hr>153</gpxtpx:hr>
<gpxtpx:atemp>6</gpxtpx:atemp>
</gpxtpx:TrackPointExtension>
</extensions>
</trkpt>
<trkpt lat="47.7500391472131" lon="12.193570453673601">
<ele>563</ele>
<time>2012-03-03T11:04:53Z</time>
<extensions>
<gpxtpx:TrackPointExtension>
<gpxtpx:hr>153</gpxtpx:hr>
<gpxtpx:atemp>6</gpxtpx:atemp>
</gpxtpx:TrackPointExtension>
</extensions>
</trkpt>
<trkpt lat="47.75009077973664" lon="12.193693667650223">
<ele>563</ele>
<time>2012-03-03T11:04:55Z</time>
<extensions>
<gpxtpx:TrackPointExtension>
<gpxtpx:hr>154</gpxtpx:hr>
<gpxtpx:atemp>6</gpxtpx:atemp>
</gpxtpx:TrackPointExtension>
</extensions>
</trkpt>
<trkpt lat="47.75011123158038" lon="12.19375066459179">
<ele>563</ele>
<time>2012-03-03T11:04:56Z</time>
<extensions>
<gpxtpx:TrackPointExtension>
<gpxtpx:hr>154</gpxtpx:hr>
<gpxtpx:atemp>6</gpxtpx:atemp>
</gpxtpx:TrackPointExtension>
</extensions>
</trkpt>
<trkpt lat="47.75012958794832" lon="12.19380782917142">
<ele>563</ele>
<time>2012-03-03T11:04:57Z</time>
<extensions>
<gpxtpx:TrackPointExtension>
<gpxtpx:hr>155</gpxtpx:hr>
<gpxtpx:atemp>6</gpxtpx:atemp>
</gpxtpx:TrackPointExtension>
</extensions>
</trkpt>
<trkpt lat="47.75017434731126" lon="12.194066662341356">
<ele>563</ele>
<time>2012-03-03T11:05:02Z</time>
<extensions>
<gpxtpx:TrackPointExtension>
<gpxtpx:hr>154</gpxtpx:hr>
<gpxtpx:atemp>6</gpxtpx:atemp>
</gpxtpx:TrackPointExtension>
</extensions>
</trkpt>
<trkpt lat="47.75016169063747" lon="12.194116953760386">
<ele>564</ele>
<time>2012-03-03T11:05:03Z</time>
<extensions>
<gpxtpx:TrackPointExtension>
<gpxtpx:hr>154</gpxtpx:hr>
<gpxtpx:atemp>6</gpxtpx:atemp>
</gpxtpx:TrackPointExtension>
</extensions>
</trkpt>
<trkpt lat="47.75015448220074" lon="12.194155426695943">
<ele>564</ele>
<time>2012-03-03T11:05:04Z</time>
<extensions>
<gpxtpx:TrackPointExtension>
<gpxtpx:hr>154</gpxtpx:hr>
<gpxtpx:atemp>6</gpxtpx:atemp>
</gpxtpx:TrackPointExtension>
</extensions>
</trkpt>
<trkpt lat="47.7501464355737" lon="12.194191720336676">
<ele>564</ele>
<time>2012-03-03T11:05:05Z</time>
<extensions>
<gpxtpx:TrackPointExtension>
<gpxtpx:hr>154</gpxtpx:hr>
<gpxtpx:atemp>6</gpxtpx:atemp>
</gpxtpx:TrackPointExtension>
</extensions>
</trkpt>
<trkpt lat="47.750136544927955" lon="12.194228265434504">
<ele>565</ele>
<time>2012-03-03T11:05:06Z</time>
<extensions>
<gpxtpx:TrackPointExtension>
<gpxtpx:hr>154</gpxtpx:hr>
<gpxtpx:atemp>6</gpxtpx:atemp>
</gpxtpx:TrackPointExtension>
</extensions>
</trkpt>
<trkpt lat="47.75012447498739" lon="12.19426330178976">
<ele>565</ele>
<time>2012-03-03T11:05:07Z</time>
<extensions>
<gpxtpx:TrackPointExtension>
<gpxtpx:hr>153</gpxtpx:hr>
<gpxtpx:atemp>6</gpxtpx:atemp>
</gpxtpx:TrackPointExtension>
</extensions>
</trkpt>
<trkpt lat="47.74995264597237" lon="12.194510400295258">
<ele>565</ele>
<time>2012-03-03T11:05:11Z</time>
<extensions>
<gpxtpx:TrackPointExtension>
<gpxtpx:hr>152</gpxtpx:hr>
<gpxtpx:atemp>6</gpxtpx:atemp>
</gpxtpx:TrackPointExtension>
</extensions>
</trkpt>
<trkpt lat="47.749929428100586" lon="12.194616179913282">
<ele>566</ele>
<time>2012-03-03T11:05:13Z</time>
<extensions>
<gpxtpx:TrackPointExtension>
<gpxtpx:hr>152</gpxtpx:hr>
<gpxtpx:atemp>6</gpxtpx:atemp>
</gpxtpx:TrackPointExtension>
</extensions>
</trkpt>
<trkpt lat="47.749923560768366" lon="12.19467367976904">
<ele>566</ele>
<time>2012-03-03T11:05:14Z</time>
<extensions>
<gpxtpx:TrackPointExtension>
<gpxtpx:hr>152</gpxtpx:hr>
<gpxtpx:atemp>6</gpxtpx:atemp>
</gpxtpx:TrackPointExtension>
</extensions>
</trkpt>
<trkpt lat="47.749916687607765" lon="12.194733023643494">
<ele>567</ele>
<time>2012-03-03T11:05:15Z</time>
<extensions>
<gpxtpx:TrackPointExtension>
<gpxtpx:hr>152</gpxtpx:hr>
<gpxtpx:atemp>6</gpxtpx:atemp>
</gpxtpx:TrackPointExtension>
</extensions>
</trkpt>
<trkpt lat="47.7499114908278" lon="12.194793792441487">
<ele>567</ele>
<time>2012-03-03T11:05:16Z</time>
<extensions>
<gpxtpx:TrackPointExtension>
<gpxtpx:hr>152</gpxtpx:hr>
<gpxtpx:atemp>6</gpxtpx:atemp>
</gpxtpx:TrackPointExtension>
</extensions>
</trkpt>
<trkpt lat="47.749899085611105" lon="12.194858836010098">
<ele>568</ele>
<time>2012-03-03T11:05:18Z</time>
<extensions>
<gpxtpx:TrackPointExtension>
<gpxtpx:hr>152</gpxtpx:hr>
<gpxtpx:atemp>6</gpxtpx:atemp>
</gpxtpx:TrackPointExtension>
</extensions>
</trkpt>
<trkpt lat="47.74992858991027" lon="12.195123368874192">
<ele>568</ele>
<time>2012-03-03T11:05:23Z</time>
<extensions>
<gpxtpx:TrackPointExtension>
<gpxtpx:hr>153</gpxtpx:hr>
<gpxtpx:atemp>6</gpxtpx:atemp>
</gpxtpx:TrackPointExtension>
</extensions>
</trkpt>
<trkpt lat="47.74995884858072" lon="12.195214228704572">
<ele>568</ele>
<time>2012-03-03T11:05:25Z</time>
<extensions>
<gpxtpx:TrackPointExtension>
<gpxtpx:hr>154</gpxtpx:hr>
<gpxtpx:atemp>6</gpxtpx:atemp>
</gpxtpx:TrackPointExtension>
</extensions>
</trkpt>
<trkpt lat="47.749975863844156" lon="12.195267956703901">
<ele>568</ele>
<time>2012-03-03T11:05:26Z</time>
<extensions>
<gpxtpx:TrackPointExtension>
<gpxtpx:hr>154</gpxtpx:hr>
<gpxtpx:atemp>6</gpxtpx:atemp>
</gpxtpx:TrackPointExtension>
</extensions>
</trkpt>
<trkpt lat="47.74999128654599" lon="12.195318918675184">
<ele>569</ele>
<time>2012-03-03T11:05:27Z</time>
<extensions>
<gpxtpx:TrackPointExtension>
<gpxtpx:hr>154</gpxtpx:hr>
<gpxtpx:atemp>6</gpxtpx:atemp>
</gpxtpx:TrackPointExtension>
</extensions>
</trkpt>
<trkpt lat="47.74999916553497" lon="12.1953768376261">
<ele>569</ele>
<time>2012-03-03T11:05:28Z</time>
<extensions>
<gpxtpx:TrackPointExtension>
<gpxtpx:hr>154</gpxtpx:hr>
<gpxtpx:atemp>6</gpxtpx:atemp>
</gpxtpx:TrackPointExtension>
</extensions>
</trkpt>
<trkpt lat="47.75000863708556" lon="12.195432158187032">
<ele>570</ele>
<time>2012-03-03T11:05:29Z</time>
<extensions>
<gpxtpx:TrackPointExtension>
<gpxtpx:hr>155</gpxtpx:hr>
<gpxtpx:atemp>6</gpxtpx:atemp>
</gpxtpx:TrackPointExtension>
</extensions>
</trkpt>
<trkpt lat="47.750064712017775" lon="12.195752346888185">
<ele>570</ele>
<time>2012-03-03T11:05:35Z</time>
<extensions>
<gpxtpx:TrackPointExtension>
<gpxtpx:hr>156</gpxtpx:hr>
<gpxtpx:atemp>6</gpxtpx:atemp>
</gpxtpx:TrackPointExtension>
</extensions>
</trkpt>
<trkpt lat="47.75010025128722" lon="12.195958876982331">
<ele>570</ele>
<time>2012-03-03T11:05:40Z</time>
<extensions>
<gpxtpx:TrackPointExtension>
<gpxtpx:hr>156</gpxtpx:hr>
<gpxtpx:atemp>6</gpxtpx:atemp>
</gpxtpx:TrackPointExtension>
</extensions>
</trkpt>
<trkpt lat="47.75010536424816" lon="12.195997685194016">
<ele>570</ele>
<time>2012-03-03T11:05:41Z</time>
<extensions>
<gpxtpx:TrackPointExtension>
<gpxtpx:hr>156</gpxtpx:hr>
<gpxtpx:atemp>6</gpxtpx:atemp>
</gpxtpx:TrackPointExtension>
</extensions>
</trkpt>
<trkpt lat="47.75010980665684" lon="12.19603456556797">
<ele>571</ele>
<time>2012-03-03T11:05:42Z</time>
<extensions>
<gpxtpx:TrackPointExtension>
<gpxtpx:hr>156</gpxtpx:hr>
<gpxtpx:atemp>6</gpxtpx:atemp>
</gpxtpx:TrackPointExtension>
</extensions>
</trkpt>
<trkpt lat="47.7501115668565" lon="12.196073289960623">
<ele>571</ele>
<time>2012-03-03T11:05:43Z</time>
<extensions>
<gpxtpx:TrackPointExtension>
<gpxtpx:hr>157</gpxtpx:hr>
<gpxtpx:atemp>6</gpxtpx:atemp>
</gpxtpx:TrackPointExtension>
</extensions>
</trkpt>
<trkpt lat="47.75008214637637" lon="12.196133472025394">
<ele>571</ele>
<time>2012-03-03T11:05:44Z</time>
<extensions>
<gpxtpx:TrackPointExtension>
<gpxtpx:hr>158</gpxtpx:hr>
<gpxtpx:atemp>6</gpxtpx:atemp>
</gpxtpx:TrackPointExtension>
</extensions>
</trkpt>
<trkpt lat="47.75005674920976" lon="12.196192061528563">
<ele>572</ele>
<time>2012-03-03T11:05:45Z</time>
<extensions>
<gpxtpx:TrackPointExtension>
<gpxtpx:hr>158</gpxtpx:hr>
<gpxtpx:atemp>6</gpxtpx:atemp>
</gpxtpx:TrackPointExtension>
</extensions>
</trkpt>
<trkpt lat="47.750030597671866" lon="12.19625199213624">
<ele>572</ele>
<time>2012-03-03T11:05:46Z</time>
<extensions>
<gpxtpx:TrackPointExtension>
<gpxtpx:hr>159</gpxtpx:hr>
<gpxtpx:atemp>6</gpxtpx:atemp>
</gpxtpx:TrackPointExtension>
</extensions>
</trkpt>
<trkpt lat="47.75000746361911" lon="12.196467658504844">
<ele>572</ele>
<time>2012-03-03T11:05:50Z</time>
<extensions>
<gpxtpx:TrackPointExtension>
<gpxtpx:hr>161</gpxtpx:hr>
<gpxtpx:atemp>6</gpxtpx:atemp>
</gpxtpx:TrackPointExtension>
</extensions>
</trkpt>
<trkpt lat="47.75000226683915" lon="12.196525996550918">
<ele>573</ele>
<time>2012-03-03T11:05:51Z</time>
<extensions>
<gpxtpx:TrackPointExtension>
<gpxtpx:hr>162</gpxtpx:hr>
<gpxtpx:atemp>6</gpxtpx:atemp>
</gpxtpx:TrackPointExtension>
</extensions>
</trkpt>
<trkpt lat="47.74999639950693" lon="12.196580143645406">
<ele>573</ele>
<time>2012-03-03T11:05:52Z</time>
<extensions>
<gpxtpx:TrackPointExtension>
<gpxtpx:hr>163</gpxtpx:hr>
<gpxtpx:atemp>6</gpxtpx:atemp>
</gpxtpx:TrackPointExtension>
</extensions>
</trkpt>
<trkpt lat="47.749989442527294" lon="12.196633201092482">
<ele>573</ele>
<time>2012-03-03T11:05:53Z</time>
<extensions>
<gpxtpx:TrackPointExtension>
<gpxtpx:hr>164</gpxtpx:hr>
<gpxtpx:atemp>6</gpxtpx:atemp>
</gpxtpx:TrackPointExtension>
</extensions>
</trkpt>
<trkpt lat="47.7499855030328" lon="12.196694556623697">
<ele>574</ele>
<time>2012-03-03T11:05:54Z</time>
<extensions>
<gpxtpx:TrackPointExtension>
<gpxtpx:hr>165</gpxtpx:hr>
<gpxtpx:atemp>6</gpxtpx:atemp>
</gpxtpx:TrackPointExtension>
</extensions>
</trkpt>
<trkpt lat="47.74996136315167" lon="12.196848448365927">
<ele>574</ele>
<time>2012-03-03T11:05:57Z</time>
<extensions>
<gpxtpx:TrackPointExtension>
<gpxtpx:hr>167</gpxtpx:hr>
<gpxtpx:atemp>6</gpxtpx:atemp>
</gpxtpx:TrackPointExtension>
</extensions>
</trkpt>
<trkpt lat="47.74994099512696" lon="12.196951042860746">
<ele>574</ele>
<time>2012-03-03T11:05:59Z</time>
<extensions>
<gpxtpx:TrackPointExtension>
<gpxtpx:hr>168</gpxtpx:hr>
<gpxtpx:atemp>6</gpxtpx:atemp>
</gpxtpx:TrackPointExtension>
</extensions>
</trkpt>
<trkpt lat="47.74992666207254" lon="12.19700057990849">
<ele>575</ele>
<time>2012-03-03T11:06:00Z</time>
<extensions>
<gpxtpx:TrackPointExtension>
<gpxtpx:hr>168</gpxtpx:hr>
<gpxtpx:atemp>6</gpxtpx:atemp>
</gpxtpx:TrackPointExtension>
</extensions>
</trkpt>
<trkpt lat="47.749913251027465" lon="12.197048105299473">
<ele>575</ele>
<time>2012-03-03T11:06:01Z</time>
<extensions>
<gpxtpx:TrackPointExtension>
<gpxtpx:hr>169</gpxtpx:hr>
<gpxtpx:atemp>6</gpxtpx:atemp>
</gpxtpx:TrackPointExtension>
</extensions>
</trkpt>
<trkpt lat="47.74989942088723" lon="12.197093786671758">
<ele>575</ele>
<time>2012-03-03T11:06:02Z</time>
<extensions>
<gpxtpx:TrackPointExtension>
<gpxtpx:hr>169</gpxtpx:hr>
<gpxtpx:atemp>6</gpxtpx:atemp>
</gpxtpx:TrackPointExtension>
</extensions>
</trkpt>
<trkpt lat="47.74988383054733" lon="12.197137037292123">
<ele>576</ele>
<time>2012-03-03T11:06:03Z</time>
<extensions>
<gpxtpx:TrackPointExtension>
<gpxtpx:hr>170</gpxtpx:hr>
<gpxtpx:atemp>6</gpxtpx:atemp>
</gpxtpx:TrackPointExtension>
</extensions>
</trkpt>
<trkpt lat="47.74986748583615" lon="12.197182970121503">
<ele>576</ele>
<time>2012-03-03T11:06:04Z</time>
<extensions>
<gpxtpx:TrackPointExtension>
<gpxtpx:hr>170</gpxtpx:hr>
<gpxtpx:atemp>6</gpxtpx:atemp>
</gpxtpx:TrackPointExtension>
</extensions>
</trkpt>
<trkpt lat="47.74982255883515" lon="12.19737634062767">
<ele>576</ele>
<time>2012-03-03T11:06:08Z</time>
<extensions>
<gpxtpx:TrackPointExtension>
<gpxtpx:hr>170</gpxtpx:hr>
<gpxtpx:atemp>6</gpxtpx:atemp>
</gpxtpx:TrackPointExtension>
</extensions>
</trkpt>
<trkpt lat="47.74981141090393" lon="12.197424285113811">
<ele>577</ele>
<time>2012-03-03T11:06:09Z</time>
<extensions>
<gpxtpx:TrackPointExtension>
<gpxtpx:hr>170</gpxtpx:hr>
<gpxtpx:atemp>6</gpxtpx:atemp>
</gpxtpx:TrackPointExtension>
</extensions>
</trkpt>
<trkpt lat="47.74980177171528" lon="12.197474744170904">
<ele>577</ele>
<time>2012-03-03T11:06:10Z</time>
<extensions>
<gpxtpx:TrackPointExtension>
<gpxtpx:hr>169</gpxtpx:hr>
<gpxtpx:atemp>6</gpxtpx:atemp>
</gpxtpx:TrackPointExtension>
</extensions>
</trkpt>
<trkpt lat="47.74978995323181" lon="12.197523191571236">
<ele>578</ele>
<time>2012-03-03T11:06:11Z</time>
<extensions>
<gpxtpx:TrackPointExtension>
<gpxtpx:hr>169</gpxtpx:hr>
<gpxtpx:atemp>6</gpxtpx:atemp>
</gpxtpx:TrackPointExtension>
</extensions>
</trkpt>
<trkpt lat="47.749738320708275" lon="12.19785762950778">
<ele>578</ele>
<time>2012-03-03T11:06:18Z</time>
<extensions>
<gpxtpx:TrackPointExtension>
<gpxtpx:hr>168</gpxtpx:hr>
<gpxtpx:atemp>6</gpxtpx:atemp>
</gpxtpx:TrackPointExtension>
</extensions>
</trkpt>
<trkpt lat="47.749736895784736" lon="12.197903813794255">
<ele>578</ele>
<time>2012-03-03T11:06:19Z</time>
<extensions>
<gpxtpx:TrackPointExtension>
<gpxtpx:hr>168</gpxtpx:hr>
<gpxtpx:atemp>6</gpxtpx:atemp>
</gpxtpx:TrackPointExtension>
</extensions>
</trkpt>
<trkpt lat="47.74973949417472" lon="12.197953602299094">
<ele>579</ele>
<time>2012-03-03T11:06:20Z</time>
<extensions>
<gpxtpx:TrackPointExtension>
<gpxtpx:hr>167</gpxtpx:hr>
<gpxtpx:atemp>6</gpxtpx:atemp>
</gpxtpx:TrackPointExtension>
</extensions>
</trkpt>
<trkpt lat="47.74974452331662" lon="12.19799785874784">
<ele>579</ele>
<time>2012-03-03T11:06:21Z</time>
<extensions>
<gpxtpx:TrackPointExtension>
<gpxtpx:hr>167</gpxtpx:hr>
<gpxtpx:atemp>6</gpxtpx:atemp>
</gpxtpx:TrackPointExtension>
</extensions>
</trkpt>
<trkpt lat="47.749751983210444" lon="12.19803985208273">
<ele>580</ele>
<time>2012-03-03T11:06:22Z</time>
<extensions>
<gpxtpx:TrackPointExtension>
<gpxtpx:hr>167</gpxtpx:hr>
<gpxtpx:atemp>6</gpxtpx:atemp>
</gpxtpx:TrackPointExtension>
</extensions>
</trkpt>
<trkpt lat="47.7497648075223" lon="12.198080085217953">
<ele>580</ele>
<time>2012-03-03T11:06:23Z</time>
<extensions>
<gpxtpx:TrackPointExtension>
<gpxtpx:hr>166</gpxtpx:hr>
<gpxtpx:atemp>6</gpxtpx:atemp>
</gpxtpx:TrackPointExtension>
</extensions>
</trkpt>
<trkpt lat="47.74979481473565" lon="12.198159545660019">
<ele>580</ele>
<time>2012-03-03T11:06:25Z</time>
<extensions>
<gpxtpx:TrackPointExtension>
<gpxtpx:hr>166</gpxtpx:hr>
<gpxtpx:atemp>6</gpxtpx:atemp>
</gpxtpx:TrackPointExtension>
</extensions>
</trkpt>
<trkpt lat="47.74987578392029" lon="12.198323244228959">
<ele>580</ele>
<time>2012-03-03T11:06:29Z</time>
<extensions>
<gpxtpx:TrackPointExtension>
<gpxtpx:hr>166</gpxtpx:hr>
<gpxtpx:atemp>6</gpxtpx:atemp>
</gpxtpx:TrackPointExtension>
</extensions>
</trkpt>
<trkpt lat="47.74989556521177" lon="12.198360962793231">
<ele>581</ele>
<time>2012-03-03T11:06:30Z</time>
<extensions>
<gpxtpx:TrackPointExtension>
<gpxtpx:hr>165</gpxtpx:hr>
<gpxtpx:atemp>6</gpxtpx:atemp>
</gpxtpx:TrackPointExtension>
</extensions>
</trkpt>
<trkpt lat="47.7499202080071" lon="12.19839901663363">
<ele>581</ele>
<time>2012-03-03T11:06:31Z</time>
<extensions>
<gpxtpx:TrackPointExtension>
<gpxtpx:hr>165</gpxtpx:hr>
<gpxtpx:atemp>6</gpxtpx:atemp>
</gpxtpx:TrackPointExtension>
</extensions>
</trkpt>
<trkpt lat="47.74994518607855" lon="12.198437321931124">
<ele>582</ele>
<time>2012-03-03T11:06:32Z</time>
<extensions>
<gpxtpx:TrackPointExtension>
<gpxtpx:hr>165</gpxtpx:hr>
<gpxtpx:atemp>6</gpxtpx:atemp>
</gpxtpx:TrackPointExtension>
</extensions>
</trkpt>
<trkpt lat="47.74997033178806" lon="12.198471771553159">
<ele>582</ele>
<time>2012-03-03T11:06:33Z</time>
<extensions>
<gpxtpx:TrackPointExtension>
<gpxtpx:hr>165</gpxtpx:hr>
<gpxtpx:atemp>6</gpxtpx:atemp>
</gpxtpx:TrackPointExtension>
</extensions>
</trkpt>
<trkpt lat="47.750066136941314" lon="12.198592219501734">
<ele>583</ele>
<time>2012-03-03T11:06:37Z</time>
<extensions>
<gpxtpx:TrackPointExtension>
<gpxtpx:hr>164</gpxtpx:hr>
<gpxtpx:atemp>6</gpxtpx:atemp>
</gpxtpx:TrackPointExtension>
</extensions>
</trkpt>
<trkpt lat="47.750091617926955" lon="12.198616862297058">
<ele>583</ele>
<time>2012-03-03T11:06:38Z</time>
<extensions>
<gpxtpx:TrackPointExtension>
<gpxtpx:hr>164</gpxtpx:hr>
<gpxtpx:atemp>6</gpxtpx:atemp>
</gpxtpx:TrackPointExtension>
</extensions>
</trkpt>
<trkpt lat="47.75011475197971" lon="12.198637397959828">
<ele>583</ele>
<time>2012-03-03T11:06:39Z</time>
<extensions>
<gpxtpx:TrackPointExtension>
<gpxtpx:hr>164</gpxtpx:hr>
<gpxtpx:atemp>6</gpxtpx:atemp>
</gpxtpx:TrackPointExtension>
</extensions>
</trkpt>
<trkpt lat="47.7501374669373" lon="12.198657346889377">
<ele>584</ele>
<time>2012-03-03T11:06:40Z</time>
<extensions>
<gpxtpx:TrackPointExtension>
<gpxtpx:hr>164</gpxtpx:hr>
<gpxtpx:atemp>6</gpxtpx:atemp>
</gpxtpx:TrackPointExtension>
</extensions>
</trkpt>
<trkpt lat="47.75015733204782" lon="12.198674948886037">
<ele>584</ele>
<time>2012-03-03T11:06:41Z</time>
<extensions>
<gpxtpx:TrackPointExtension>
<gpxtpx:hr>165</gpxtpx:hr>
<gpxtpx:atemp>6</gpxtpx:atemp>
</gpxtpx:TrackPointExtension>
</extensions>
</trkpt>
<trkpt lat="47.75025707669556" lon="12.198719875887036">
<ele>585</ele>
<time>2012-03-03T11:06:45Z</time>
<extensions>
<gpxtpx:TrackPointExtension>
<gpxtpx:hr>165</gpxtpx:hr>
<gpxtpx:atemp>6</gpxtpx:atemp>
</gpxtpx:TrackPointExtension>
</extensions>
</trkpt>
<trkpt lat="47.75027467869222" lon="12.198729598894715">
<ele>585</ele>
<time>2012-03-03T11:06:46Z</time>
<extensions>
<gpxtpx:TrackPointExtension>
<gpxtpx:hr>165</gpxtpx:hr>
<gpxtpx:atemp>6</gpxtpx:atemp>
</gpxtpx:TrackPointExtension>
</extensions>
</trkpt>
<trkpt lat="47.750291023403406" lon="12.198737394064665">
<ele>585</ele>
<time>2012-03-03T11:06:47Z</time>
<extensions>
<gpxtpx:TrackPointExtension>
<gpxtpx:hr>165</gpxtpx:hr>
<gpxtpx:atemp>6</gpxtpx:atemp>
</gpxtpx:TrackPointExtension>
</extensions>
</trkpt>
<trkpt lat="47.7503118943423" lon="12.198748206719756">
<ele>586</ele>
<time>2012-03-03T11:06:48Z</time>
<extensions>
<gpxtpx:TrackPointExtension>
<gpxtpx:hr>165</gpxtpx:hr>
<gpxtpx:atemp>6</gpxtpx:atemp>
</gpxtpx:TrackPointExtension>
</extensions>
</trkpt>
<trkpt lat="47.750334022566676" lon="12.198763461783528">
<ele>586</ele>
<time>2012-03-03T11:06:49Z</time>
<extensions>
<gpxtpx:TrackPointExtension>
<gpxtpx:hr>166</gpxtpx:hr>
<gpxtpx:atemp>6</gpxtpx:atemp>
</gpxtpx:TrackPointExtension>
</extensions>
</trkpt>
<trkpt lat="47.750382805243134" lon="12.198793888092041">
<ele>586</ele>
<time>2012-03-03T11:06:51Z</time>
<extensions>
<gpxtpx:TrackPointExtension>
<gpxtpx:hr>166</gpxtpx:hr>
<gpxtpx:atemp>6</gpxtpx:atemp>
</gpxtpx:TrackPointExtension>
</extensions>
</trkpt>
<trkpt lat="47.75041515938938" lon="12.1988270804286">
<ele>587</ele>
<time>2012-03-03T11:06:53Z</time>
<extensions>
<gpxtpx:TrackPointExtension>
<gpxtpx:hr>167</gpxtpx:hr>
<gpxtpx:atemp>6</gpxtpx:atemp>
</gpxtpx:TrackPointExtension>
</extensions>
</trkpt>
<trkpt lat="47.75043544359505" lon="12.198842503130436">
<ele>587</ele>
<time>2012-03-03T11:06:54Z</time>
<extensions>
<gpxtpx:TrackPointExtension>
<gpxtpx:hr>168</gpxtpx:hr>
<gpxtpx:atemp>6</gpxtpx:atemp>
</gpxtpx:TrackPointExtension>
</extensions>
</trkpt>
<trkpt lat="47.750455141067505" lon="12.198862200602889">
<ele>588</ele>
<time>2012-03-03T11:06:55Z</time>
<extensions>
<gpxtpx:TrackPointExtension>
<gpxtpx:hr>168</gpxtpx:hr>
<gpxtpx:atemp>6</gpxtpx:atemp>
</gpxtpx:TrackPointExtension>
</extensions>
</trkpt>
<trkpt lat="47.75047576054931" lon="12.19888080842793">
<ele>588</ele>
<time>2012-03-03T11:06:56Z</time>
<extensions>
<gpxtpx:TrackPointExtension>
<gpxtpx:hr>168</gpxtpx:hr>
<gpxtpx:atemp>6</gpxtpx:atemp>
</gpxtpx:TrackPointExtension>
</extensions>
</trkpt>
<trkpt lat="47.75049654766917" lon="12.198899500072002">
<ele>588</ele>
<time>2012-03-03T11:06:57Z</time>
<extensions>
<gpxtpx:TrackPointExtension>
<gpxtpx:hr>169</gpxtpx:hr>
<gpxtpx:atemp>6</gpxtpx:atemp>
</gpxtpx:TrackPointExtension>
</extensions>
</trkpt>
<trkpt lat="47.75052135810256" lon="12.198916180059314">
<ele>588</ele>
<time>2012-03-03T11:06:58Z</time>
<extensions>
<gpxtpx:TrackPointExtension>
<gpxtpx:hr>169</gpxtpx:hr>
<gpxtpx:atemp>6</gpxtpx:atemp>
</gpxtpx:TrackPointExtension>
</extensions>
</trkpt>
<trkpt lat="47.750586066395044" lon="12.198951886966825">
<ele>589</ele>
<time>2012-03-03T11:07:01Z</time>
<extensions>
<gpxtpx:TrackPointExtension>
<gpxtpx:hr>170</gpxtpx:hr>
<gpxtpx:atemp>6</gpxtpx:atemp>
</gpxtpx:TrackPointExtension>
</extensions>
</trkpt>
<trkpt lat="47.75060433894396" lon="12.19896437600255">
<ele>589</ele>
<time>2012-03-03T11:07:02Z</time>
<extensions>
<gpxtpx:TrackPointExtension>
<gpxtpx:hr>170</gpxtpx:hr>
<gpxtpx:atemp>6</gpxtpx:atemp>
</gpxtpx:TrackPointExtension>
</extensions>
</trkpt>
<trkpt lat="47.750619845464826" lon="12.198981810361147">
<ele>590</ele>
<time>2012-03-03T11:07:03Z</time>
<extensions>
<gpxtpx:TrackPointExtension>
<gpxtpx:hr>170</gpxtpx:hr>
<gpxtpx:atemp>6</gpxtpx:atemp>
</gpxtpx:TrackPointExtension>
</extensions>
</trkpt>
<trkpt lat="47.75063526816666" lon="12.198995808139443">
<ele>590</ele>
<time>2012-03-03T11:07:04Z</time>
<extensions>
<gpxtpx:TrackPointExtension>
<gpxtpx:hr>170</gpxtpx:hr>
<gpxtpx:atemp>6</gpxtpx:atemp>
</gpxtpx:TrackPointExtension>
</extensions>
</trkpt>
<trkpt lat="47.750657312572" lon="12.199010895565152">
<ele>591</ele>
<time>2012-03-03T11:07:05Z</time>
<extensions>
<gpxtpx:TrackPointExtension>
<gpxtpx:hr>170</gpxtpx:hr>
<gpxtpx:atemp>6</gpxtpx:atemp>
</gpxtpx:TrackPointExtension>
</extensions>
</trkpt>
<trkpt lat="47.750679859891534" lon="12.199028162285686">
<ele>591</ele>
<time>2012-03-03T11:07:06Z</time>
<extensions>
<gpxtpx:TrackPointExtension>
<gpxtpx:hr>171</gpxtpx:hr>
<gpxtpx:atemp>6</gpxtpx:atemp>
</gpxtpx:TrackPointExtension>
</extensions>
</trkpt>
<trkpt lat="47.750763930380344" lon="12.199078788980842">
<ele>591</ele>
<time>2012-03-03T11:07:09Z</time>
<extensions>
<gpxtpx:TrackPointExtension>
<gpxtpx:hr>171</gpxtpx:hr>
<gpxtpx:atemp>6</gpxtpx:atemp>
</gpxtpx:TrackPointExtension>
</extensions>
</trkpt>
<trkpt lat="47.750792093575" lon="12.199101755395532">
<ele>591</ele>
<time>2012-03-03T11:07:10Z</time>
<extensions>
<gpxtpx:TrackPointExtension>
<gpxtpx:hr>170</gpxtpx:hr>
<gpxtpx:atemp>6</gpxtpx:atemp>
</gpxtpx:TrackPointExtension>
</extensions>
</trkpt>
<trkpt lat="47.75081790983677" lon="12.199126398190856">
<ele>592</ele>
<time>2012-03-03T11:07:11Z</time>
<extensions>
<gpxtpx:TrackPointExtension>
<gpxtpx:hr>170</gpxtpx:hr>
<gpxtpx:atemp>6</gpxtpx:atemp>
</gpxtpx:TrackPointExtension>
</extensions>
</trkpt>
<trkpt lat="47.75084858760238" lon="12.199147269129753">
<ele>592</ele>
<time>2012-03-03T11:07:12Z</time>
<extensions>
<gpxtpx:TrackPointExtension>
<gpxtpx:hr>170</gpxtpx:hr>
<gpxtpx:atemp>6</gpxtpx:atemp>
</gpxtpx:TrackPointExtension>
</extensions>
</trkpt>
<trkpt lat="47.750873398035765" lon="12.199166379868984">
<ele>593</ele>
<time>2012-03-03T11:07:13Z</time>
<extensions>
<gpxtpx:TrackPointExtension>
<gpxtpx:hr>170</gpxtpx:hr>
<gpxtpx:atemp>6</gpxtpx:atemp>
</gpxtpx:TrackPointExtension>
</extensions>
</trkpt>
<trkpt lat="47.75100423954427" lon="12.199252881109715">
<ele>593</ele>
<time>2012-03-03T11:07:18Z</time>
<extensions>
<gpxtpx:TrackPointExtension>
<gpxtpx:hr>170</gpxtpx:hr>
<gpxtpx:atemp>6</gpxtpx:atemp>
</gpxtpx:TrackPointExtension>
</extensions>
</trkpt>
<trkpt lat="47.751034162938595" lon="12.199276769533753">
<ele>594</ele>
<time>2012-03-03T11:07:19Z</time>
<extensions>
<gpxtpx:TrackPointExtension>
<gpxtpx:hr>169</gpxtpx:hr>
<gpxtpx:atemp>6</gpxtpx:atemp>
</gpxtpx:TrackPointExtension>
</extensions>
</trkpt>
<trkpt lat="47.75106911547482" lon="12.199301663786173">
<ele>594</ele>
<time>2012-03-03T11:07:20Z</time>
<extensions>
<gpxtpx:TrackPointExtension>
<gpxtpx:hr>169</gpxtpx:hr>
<gpxtpx:atemp>6</gpxtpx:atemp>
</gpxtpx:TrackPointExtension>
</extensions>
</trkpt>
<trkpt lat="47.751097697764635" lon="12.199318092316389">
<ele>594</ele>
<time>2012-03-03T11:07:21Z</time>
<extensions>
<gpxtpx:TrackPointExtension>
<gpxtpx:hr>169</gpxtpx:hr>
<gpxtpx:atemp>6</gpxtpx:atemp>
</gpxtpx:TrackPointExtension>
</extensions>
</trkpt>
<trkpt lat="47.75112519040704" lon="12.199338376522064">
<ele>595</ele>
<time>2012-03-03T11:07:22Z</time>
<extensions>
<gpxtpx:TrackPointExtension>
<gpxtpx:hr>169</gpxtpx:hr>
<gpxtpx:atemp>6</gpxtpx:atemp>
</gpxtpx:TrackPointExtension>
</extensions>
</trkpt>
<trkpt lat="47.75120917707682" lon="12.199407862499356">
<ele>595</ele>
<time>2012-03-03T11:07:25Z</time>
<extensions>
<gpxtpx:TrackPointExtension>
<gpxtpx:hr>167</gpxtpx:hr>
<gpxtpx:atemp>6</gpxtpx:atemp>
</gpxtpx:TrackPointExtension>
</extensions>
</trkpt>
<trkpt lat="47.751420233398676" lon="12.199634173884988">
<ele>595</ele>
<time>2012-03-03T11:07:32Z</time>
<extensions>
<gpxtpx:TrackPointExtension>
<gpxtpx:hr>166</gpxtpx:hr>
<gpxtpx:atemp>6</gpxtpx:atemp>
</gpxtpx:TrackPointExtension>
</extensions>
</trkpt>
<trkpt lat="47.75167973712087" lon="12.199929300695658">
<ele>595</ele>
<time>2012-03-03T11:07:39Z</time>
<extensions>
<gpxtpx:TrackPointExtension>
<gpxtpx:hr>164</gpxtpx:hr>
<gpxtpx:atemp>6</gpxtpx:atemp>
</gpxtpx:TrackPointExtension>
</extensions>
</trkpt>
<trkpt lat="47.75191753171384" lon="12.200202634558082">
<ele>595</ele>
<time>2012-03-03T11:07:46Z</time>
<extensions>
<gpxtpx:TrackPointExtension>
<gpxtpx:hr>161</gpxtpx:hr>
<gpxtpx:atemp>6</gpxtpx:atemp>
</gpxtpx:TrackPointExtension>
</extensions>
</trkpt>
<trkpt lat="47.75199104100466" lon="12.200307995080948">
<ele>596</ele>
<time>2012-03-03T11:07:49Z</time>
<extensions>
<gpxtpx:TrackPointExtension>
<gpxtpx:hr>161</gpxtpx:hr>
<gpxtpx:atemp>6</gpxtpx:atemp>
</gpxtpx:TrackPointExtension>
</extensions>
</trkpt>
<trkpt lat="47.752017360180616" lon="12.20033791847527">
<ele>596</ele>
<time>2012-03-03T11:07:50Z</time>
<extensions>
<gpxtpx:TrackPointExtension>
<gpxtpx:hr>160</gpxtpx:hr>
<gpxtpx:atemp>6</gpxtpx:atemp>
</gpxtpx:TrackPointExtension>
</extensions>
</trkpt>
<trkpt lat="47.752045188099146" lon="12.200365662574768">
<ele>597</ele>
<time>2012-03-03T11:07:51Z</time>
<extensions>
<gpxtpx:TrackPointExtension>
<gpxtpx:hr>160</gpxtpx:hr>
<gpxtpx:atemp>6</gpxtpx:atemp>
</gpxtpx:TrackPointExtension>
</extensions>
</trkpt>
<trkpt lat="47.752069998532534" lon="12.200393993407488">
<ele>597</ele>
<time>2012-03-03T11:07:52Z</time>
<extensions>
<gpxtpx:TrackPointExtension>
<gpxtpx:hr>160</gpxtpx:hr>
<gpxtpx:atemp>6</gpxtpx:atemp>
</gpxtpx:TrackPointExtension>
</extensions>
</trkpt>
<trkpt lat="47.75208642706275" lon="12.200418468564749">
<ele>597</ele>
<time>2012-03-03T11:07:53Z</time>
<extensions>
<gpxtpx:TrackPointExtension>
<gpxtpx:hr>160</gpxtpx:hr>
<gpxtpx:atemp>6</gpxtpx:atemp>
</gpxtpx:TrackPointExtension>
</extensions>
</trkpt>
<trkpt lat="47.752145854756236" lon="12.200500359758735">
<ele>598</ele>
<time>2012-03-03T11:07:56Z</time>
<extensions>
<gpxtpx:TrackPointExtension>
<gpxtpx:hr>160</gpxtpx:hr>
<gpxtpx:atemp>6</gpxtpx:atemp>
</gpxtpx:TrackPointExtension>
</extensions>
</trkpt>
<trkpt lat="47.75216211564839" lon="12.200530115514994">
<ele>598</ele>
<time>2012-03-03T11:07:57Z</time>
<extensions>
<gpxtpx:TrackPointExtension>
<gpxtpx:hr>161</gpxtpx:hr>
<gpxtpx:atemp>6</gpxtpx:atemp>
</gpxtpx:TrackPointExtension>
</extensions>
</trkpt>
<trkpt lat="47.75218256749213" lon="12.200560122728348">
<ele>599</ele>
<time>2012-03-03T11:07:58Z</time>
<extensions>
<gpxtpx:TrackPointExtension>
<gpxtpx:hr>162</gpxtpx:hr>
<gpxtpx:atemp>6</gpxtpx:atemp>
</gpxtpx:TrackPointExtension>
</extensions>
</trkpt>
<trkpt lat="47.75220109149814" lon="12.200588285923004">
<ele>599</ele>
<time>2012-03-03T11:07:59Z</time>
<extensions>
<gpxtpx:TrackPointExtension>
<gpxtpx:hr>162</gpxtpx:hr>
<gpxtpx:atemp>6</gpxtpx:atemp>
</gpxtpx:TrackPointExtension>
</extensions>
</trkpt>
<trkpt lat="47.752223471179605" lon="12.200615275651217">
<ele>599</ele>
<time>2012-03-03T11:08:00Z</time>
<extensions>
<gpxtpx:TrackPointExtension>
<gpxtpx:hr>162</gpxtpx:hr>
<gpxtpx:atemp>6</gpxtpx:atemp>
</gpxtpx:TrackPointExtension>
</extensions>
</trkpt>
<trkpt lat="47.75224685668945" lon="12.20063254237175">
<ele>599</ele>
<time>2012-03-03T11:08:01Z</time>
<extensions>
<gpxtpx:TrackPointExtension>
<gpxtpx:hr>163</gpxtpx:hr>
<gpxtpx:atemp>6</gpxtpx:atemp>
</gpxtpx:TrackPointExtension>
</extensions>
</trkpt>
<trkpt lat="47.75226714089513" lon="12.200650479644537">
<ele>600</ele>
<time>2012-03-03T11:08:02Z</time>
<extensions>
<gpxtpx:TrackPointExtension>
<gpxtpx:hr>163</gpxtpx:hr>
<gpxtpx:atemp>6</gpxtpx:atemp>
</gpxtpx:TrackPointExtension>
</extensions>
</trkpt>
<trkpt lat="47.752285497263074" lon="12.200662968680263">
<ele>600</ele>
<time>2012-03-03T11:08:03Z</time>
<extensions>
<gpxtpx:TrackPointExtension>
<gpxtpx:hr>164</gpxtpx:hr>
<gpxtpx:atemp>6</gpxtpx:atemp>
</gpxtpx:TrackPointExtension>
</extensions>
</trkpt>
<trkpt lat="47.752307541668415" lon="12.200685096904635">
<ele>601</ele>
<time>2012-03-03T11:08:04Z</time>
<extensions>
<gpxtpx:TrackPointExtension>
<gpxtpx:hr>165</gpxtpx:hr>
<gpxtpx:atemp>6</gpxtpx:atemp>
</gpxtpx:TrackPointExtension>
</extensions>
</trkpt>
<trkpt lat="47.75232346728444" lon="12.200702782720327">
<ele>601</ele>
<time>2012-03-03T11:08:05Z</time>
<extensions>
<gpxtpx:TrackPointExtension>
<gpxtpx:hr>165</gpxtpx:hr>
<gpxtpx:atemp>6</gpxtpx:atemp>
</gpxtpx:TrackPointExtension>
</extensions>
</trkpt>
<trkpt lat="47.752340817824006" lon="12.200727760791779">
<ele>602</ele>
<time>2012-03-03T11:08:06Z</time>
<extensions>
<gpxtpx:TrackPointExtension>
<gpxtpx:hr>165</gpxtpx:hr>
<gpxtpx:atemp>6</gpxtpx:atemp>
</gpxtpx:TrackPointExtension>
</extensions>
</trkpt>
<trkpt lat="47.75237468071282" lon="12.200767071917653">
<ele>602</ele>
<time>2012-03-03T11:08:08Z</time>
<extensions>
<gpxtpx:TrackPointExtension>
<gpxtpx:hr>166</gpxtpx:hr>
<gpxtpx:atemp>6</gpxtpx:atemp>
</gpxtpx:TrackPointExtension>
</extensions>
</trkpt>
<trkpt lat="47.752390103414655" lon="12.200786517933011">
<ele>603</ele>
<time>2012-03-03T11:08:09Z</time>
<extensions>
<gpxtpx:TrackPointExtension>
<gpxtpx:hr>167</gpxtpx:hr>
<gpxtpx:atemp>6</gpxtpx:atemp>
</gpxtpx:TrackPointExtension>
</extensions>
</trkpt>
<trkpt lat="47.752405777573586" lon="12.200808143243194">
<ele>603</ele>
<time>2012-03-03T11:08:10Z</time>
<extensions>
<gpxtpx:TrackPointExtension>
<gpxtpx:hr>167</gpxtpx:hr>
<gpxtpx:atemp>6</gpxtpx:atemp>
</gpxtpx:TrackPointExtension>
</extensions>
</trkpt>
<trkpt lat="47.7524256426841" lon="12.200832283124328">
<ele>603</ele>
<time>2012-03-03T11:08:11Z</time>
<extensions>
<gpxtpx:TrackPointExtension>
<gpxtpx:hr>168</gpxtpx:hr>
<gpxtpx:atemp>6</gpxtpx:atemp>
</gpxtpx:TrackPointExtension>
</extensions>
</trkpt>
<trkpt lat="47.752446765080094" lon="12.200843766331673">
<ele>604</ele>
<time>2012-03-03T11:08:12Z</time>
<extensions>
<gpxtpx:TrackPointExtension>
<gpxtpx:hr>169</gpxtpx:hr>
<gpxtpx:atemp>6</gpxtpx:atemp>
</gpxtpx:TrackPointExtension>
</extensions>
</trkpt>
<trkpt lat="47.75246562436223" lon="12.200851645320654">
<ele>604</ele>
<time>2012-03-03T11:08:13Z</time>
<extensions>
<gpxtpx:TrackPointExtension>
<gpxtpx:hr>169</gpxtpx:hr>
<gpxtpx:atemp>6</gpxtpx:atemp>
</gpxtpx:TrackPointExtension>
</extensions>
</trkpt>
<trkpt lat="47.75250652804971" lon="12.200885759666562">
<ele>604</ele>
<time>2012-03-03T11:08:15Z</time>
<extensions>
<gpxtpx:TrackPointExtension>
<gpxtpx:hr>170</gpxtpx:hr>
<gpxtpx:atemp>6</gpxtpx:atemp>
</gpxtpx:TrackPointExtension>
</extensions>
</trkpt>
<trkpt lat="47.752523040398955" lon="12.200903361663222">
<ele>605</ele>
<time>2012-03-03T11:08:16Z</time>
<extensions>
<gpxtpx:TrackPointExtension>
<gpxtpx:hr>170</gpxtpx:hr>
<gpxtpx:atemp>6</gpxtpx:atemp>
</gpxtpx:TrackPointExtension>
</extensions>
</trkpt>
<trkpt lat="47.75253368541598" lon="12.20092230476439">
<ele>605</ele>
<time>2012-03-03T11:08:17Z</time>
<extensions>
<gpxtpx:TrackPointExtension>
<gpxtpx:hr>170</gpxtpx:hr>
<gpxtpx:atemp>6</gpxtpx:atemp>
</gpxtpx:TrackPointExtension>
</extensions>
</trkpt>
<trkpt lat="47.752555729821324" lon="12.200949378311634">
<ele>606</ele>
<time>2012-03-03T11:08:18Z</time>
<extensions>
<gpxtpx:TrackPointExtension>
<gpxtpx:hr>171</gpxtpx:hr>
<gpxtpx:atemp>6</gpxtpx:atemp>
</gpxtpx:TrackPointExtension>
</extensions>
</trkpt>
<trkpt lat="47.7525744214654" lon="12.200980056077242">
<ele>606</ele>
<time>2012-03-03T11:08:19Z</time>
<extensions>
<gpxtpx:TrackPointExtension>
<gpxtpx:hr>171</gpxtpx:hr>
<gpxtpx:atemp>6</gpxtpx:atemp>
</gpxtpx:TrackPointExtension>
</extensions>
</trkpt>
<trkpt lat="47.75264784693718" lon="12.201078375801444">
<ele>606</ele>
<time>2012-03-03T11:08:23Z</time>
<extensions>
<gpxtpx:TrackPointExtension>
<gpxtpx:hr>172</gpxtpx:hr>
<gpxtpx:atemp>6</gpxtpx:atemp>
</gpxtpx:TrackPointExtension>
</extensions>
</trkpt>
<trkpt lat="47.75267047807574" lon="12.201106119900942">
<ele>607</ele>
<time>2012-03-03T11:08:24Z</time>
<extensions>
<gpxtpx:TrackPointExtension>
<gpxtpx:hr>172</gpxtpx:hr>
<gpxtpx:atemp>6</gpxtpx:atemp>
</gpxtpx:TrackPointExtension>
</extensions>
</trkpt>
<trkpt lat="47.75269470177591" lon="12.20113000832498">
<ele>607</ele>
<time>2012-03-03T11:08:25Z</time>
<extensions>
<gpxtpx:TrackPointExtension>
<gpxtpx:hr>173</gpxtpx:hr>
<gpxtpx:atemp>6</gpxtpx:atemp>
</gpxtpx:TrackPointExtension>
</extensions>
</trkpt>
<trkpt lat="47.7527139801532" lon="12.201150879263878">
<ele>608</ele>
<time>2012-03-03T11:08:26Z</time>
<extensions>
<gpxtpx:TrackPointExtension>
<gpxtpx:hr>173</gpxtpx:hr>
<gpxtpx:atemp>6</gpxtpx:atemp>
</gpxtpx:TrackPointExtension>
</extensions>
</trkpt>
<trkpt lat="47.75273870676756" lon="12.201177533715963">
<ele>608</ele>
<time>2012-03-03T11:08:27Z</time>
<extensions>
<gpxtpx:TrackPointExtension>
<gpxtpx:hr>172</gpxtpx:hr>
<gpxtpx:atemp>6</gpxtpx:atemp>
</gpxtpx:TrackPointExtension>
</extensions>
</trkpt>
<trkpt lat="47.75278363376856" lon="12.2012360394001">
<ele>608</ele>
<time>2012-03-03T11:08:29Z</time>
<extensions>
<gpxtpx:TrackPointExtension>
<gpxtpx:hr>172</gpxtpx:hr>
<gpxtpx:atemp>6</gpxtpx:atemp>
</gpxtpx:TrackPointExtension>
</extensions>
</trkpt>
<trkpt lat="47.752907518297434" lon="12.201405270025134">
<ele>608</ele>
<time>2012-03-03T11:08:34Z</time>
<extensions>
<gpxtpx:TrackPointExtension>
<gpxtpx:hr>171</gpxtpx:hr>
<gpxtpx:atemp>6</gpxtpx:atemp>
</gpxtpx:TrackPointExtension>
</extensions>
</trkpt>
<trkpt lat="47.75292889215052" lon="12.201437959447503">
<ele>609</ele>
<time>2012-03-03T11:08:35Z</time>
<extensions>
<gpxtpx:TrackPointExtension>
<gpxtpx:hr>171</gpxtpx:hr>
<gpxtpx:atemp>6</gpxtpx:atemp>
</gpxtpx:TrackPointExtension>
</extensions>
</trkpt>
<trkpt lat="47.752950098365545" lon="12.20147400163114">
<ele>609</ele>
<time>2012-03-03T11:08:36Z</time>
<extensions>
<gpxtpx:TrackPointExtension>
<gpxtpx:hr>171</gpxtpx:hr>
<gpxtpx:atemp>6</gpxtpx:atemp>
</gpxtpx:TrackPointExtension>
</extensions>
</trkpt>
<trkpt lat="47.752969628199935" lon="12.201508115977049">
<ele>610</ele>
<time>2012-03-03T11:08:37Z</time>
<extensions>
<gpxtpx:TrackPointExtension>
<gpxtpx:hr>171</gpxtpx:hr>
<gpxtpx:atemp>6</gpxtpx:atemp>
</gpxtpx:TrackPointExtension>
</extensions>
</trkpt>
<trkpt lat="47.75299008004367" lon="12.20154189504683">
<ele>611</ele>
<time>2012-03-03T11:08:38Z</time>
<extensions>
<gpxtpx:TrackPointExtension>
<gpxtpx:hr>171</gpxtpx:hr>
<gpxtpx:atemp>6</gpxtpx:atemp>
</gpxtpx:TrackPointExtension>
</extensions>
</trkpt>
<trkpt lat="47.753057051450014" lon="12.201641891151667">
<ele>611</ele>
<time>2012-03-03T11:08:41Z</time>
<extensions>
<gpxtpx:TrackPointExtension>
<gpxtpx:hr>170</gpxtpx:hr>
<gpxtpx:atemp>6</gpxtpx:atemp>
</gpxtpx:TrackPointExtension>
</extensions>
</trkpt>
<trkpt lat="47.753192419186234" lon="12.201863760128617">
<ele>611</ele>
<time>2012-03-03T11:08:48Z</time>
<extensions>
<gpxtpx:TrackPointExtension>
<gpxtpx:hr>168</gpxtpx:hr>
<gpxtpx:atemp>6</gpxtpx:atemp>
</gpxtpx:TrackPointExtension>
</extensions>
</trkpt>
<trkpt lat="47.75323214940727" lon="12.201977586373687">
<ele>612</ele>
<time>2012-03-03T11:08:51Z</time>
<extensions>
<gpxtpx:TrackPointExtension>
<gpxtpx:hr>167</gpxtpx:hr>
<gpxtpx:atemp>6</gpxtpx:atemp>
</gpxtpx:TrackPointExtension>
</extensions>
</trkpt>
<trkpt lat="47.75323952548206" lon="12.202019914984703">
<ele>612</ele>
<time>2012-03-03T11:08:52Z</time>
<extensions>
<gpxtpx:TrackPointExtension>
<gpxtpx:hr>167</gpxtpx:hr>
<gpxtpx:atemp>6</gpxtpx:atemp>
</gpxtpx:TrackPointExtension>
</extensions>
</trkpt>
<trkpt lat="47.75325117632747" lon="12.202066266909242">
<ele>612</ele>
<time>2012-03-03T11:08:53Z</time>
<extensions>
<gpxtpx:TrackPointExtension>
<gpxtpx:hr>167</gpxtpx:hr>
<gpxtpx:atemp>6</gpxtpx:atemp>
</gpxtpx:TrackPointExtension>
</extensions>
</trkpt>
<trkpt lat="47.75326098315418" lon="12.202119575813413">
<ele>613</ele>
<time>2012-03-03T11:08:54Z</time>
<extensions>
<gpxtpx:TrackPointExtension>
<gpxtpx:hr>166</gpxtpx:hr>
<gpxtpx:atemp>6</gpxtpx:atemp>
</gpxtpx:TrackPointExtension>
</extensions>
</trkpt>
<trkpt lat="47.753264335915446" lon="12.202174393460155">
<ele>613</ele>
<time>2012-03-03T11:08:55Z</time>
<extensions>
<gpxtpx:TrackPointExtension>
<gpxtpx:hr>166</gpxtpx:hr>
<gpxtpx:atemp>6</gpxtpx:atemp>
</gpxtpx:TrackPointExtension>
</extensions>
</trkpt>
<trkpt lat="47.7532821893692" lon="12.20239064656198">
<ele>613</ele>
<time>2012-03-03T11:08:59Z</time>
<extensions>
<gpxtpx:TrackPointExtension>
<gpxtpx:hr>165</gpxtpx:hr>
<gpxtpx:atemp>6</gpxtpx:atemp>
</gpxtpx:TrackPointExtension>
</extensions>
</trkpt>
<trkpt lat="47.75325913913548" lon="12.202558033168316">
<ele>614</ele>
<time>2012-03-03T11:09:03Z</time>
<extensions>
<gpxtpx:TrackPointExtension>
<gpxtpx:hr>164</gpxtpx:hr>
<gpxtpx:atemp>6</gpxtpx:atemp>
</gpxtpx:TrackPointExtension>
</extensions>
</trkpt>
<trkpt lat="47.75326651521027" lon="12.20260706730187">
<ele>614</ele>
<time>2012-03-03T11:09:04Z</time>
<extensions>
<gpxtpx:TrackPointExtension>
<gpxtpx:hr>164</gpxtpx:hr>
<gpxtpx:atemp>6</gpxtpx:atemp>
</gpxtpx:TrackPointExtension>
</extensions>
</trkpt>
<trkpt lat="47.753271125257015" lon="12.202653754502535">
<ele>615</ele>
<time>2012-03-03T11:09:05Z</time>
<extensions>
<gpxtpx:TrackPointExtension>
<gpxtpx:hr>164</gpxtpx:hr>
<gpxtpx:atemp>6</gpxtpx:atemp>
</gpxtpx:TrackPointExtension>
</extensions>
</trkpt>
<trkpt lat="47.753272047266364" lon="12.202698849141598">
<ele>615</ele>
<time>2012-03-03T11:09:06Z</time>
<extensions>
<gpxtpx:TrackPointExtension>
<gpxtpx:hr>163</gpxtpx:hr>
<gpxtpx:atemp>6</gpxtpx:atemp>
</gpxtpx:TrackPointExtension>
</extensions>
</trkpt>
<trkpt lat="47.75328688323498" lon="12.202862799167633">
<ele>615</ele>
<time>2012-03-03T11:09:10Z</time>
<extensions>
<gpxtpx:TrackPointExtension>
<gpxtpx:hr>163</gpxtpx:hr>
<gpxtpx:atemp>6</gpxtpx:atemp>
</gpxtpx:TrackPointExtension>
</extensions>
</trkpt>
<trkpt lat="47.753297444432974" lon="12.203003112226725">
<ele>616</ele>
<time>2012-03-03T11:09:13Z</time>
<extensions>
<gpxtpx:TrackPointExtension>
<gpxtpx:hr>163</gpxtpx:hr>
<gpxtpx:atemp>6</gpxtpx:atemp>
</gpxtpx:TrackPointExtension>
</extensions>
</trkpt>
<trkpt lat="47.75330808945" lon="12.203051643446088">
<ele>616</ele>
<time>2012-03-03T11:09:14Z</time>
<extensions>
<gpxtpx:TrackPointExtension>
<gpxtpx:hr>163</gpxtpx:hr>
<gpxtpx:atemp>6</gpxtpx:atemp>
</gpxtpx:TrackPointExtension>
</extensions>
</trkpt>
<trkpt lat="47.75331957265735" lon="12.203087685629725">
<ele>616</ele>
<time>2012-03-03T11:09:15Z</time>
<extensions>
<gpxtpx:TrackPointExtension>
<gpxtpx:hr>163</gpxtpx:hr>
<gpxtpx:atemp>6</gpxtpx:atemp>
</gpxtpx:TrackPointExtension>
</extensions>
</trkpt>
<trkpt lat="47.7533411141485" lon="12.203134624287486">
<ele>617</ele>
<time>2012-03-03T11:09:16Z</time>
<extensions>
<gpxtpx:TrackPointExtension>
<gpxtpx:hr>163</gpxtpx:hr>
<gpxtpx:atemp>6</gpxtpx:atemp>
</gpxtpx:TrackPointExtension>
</extensions>
</trkpt>
<trkpt lat="47.75335695594549" lon="12.203178629279137">
<ele>617</ele>
<time>2012-03-03T11:09:17Z</time>
<extensions>
<gpxtpx:TrackPointExtension>
<gpxtpx:hr>163</gpxtpx:hr>
<gpxtpx:atemp>6</gpxtpx:atemp>
</gpxtpx:TrackPointExtension>
</extensions>
</trkpt>
<trkpt lat="47.75344689376652" lon="12.203376861289144">
<ele>617</ele>
<time>2012-03-03T11:09:22Z</time>
<extensions>
<gpxtpx:TrackPointExtension>
<gpxtpx:hr>163</gpxtpx:hr>
<gpxtpx:atemp>6</gpxtpx:atemp>
</gpxtpx:TrackPointExtension>
</extensions>
</trkpt>
<trkpt lat="47.75352878496051" lon="12.203543158248067">
<ele>618</ele>
<time>2012-03-03T11:09:26Z</time>
<extensions>
<gpxtpx:TrackPointExtension>
<gpxtpx:hr>161</gpxtpx:hr>
<gpxtpx:atemp>6</gpxtpx:atemp>
</gpxtpx:TrackPointExtension>
</extensions>
</trkpt>
<trkpt lat="47.75355443358421" lon="12.20358045771718">
<ele>619</ele>
<time>2012-03-03T11:09:27Z</time>
<extensions>
<gpxtpx:TrackPointExtension>
<gpxtpx:hr>161</gpxtpx:hr>
<gpxtpx:atemp>6</gpxtpx:atemp>
</gpxtpx:TrackPointExtension>
</extensions>
</trkpt>
<trkpt lat="47.75358167476952" lon="12.20362102612853">
<ele>619</ele>
<time>2012-03-03T11:09:28Z</time>
<extensions>
<gpxtpx:TrackPointExtension>
<gpxtpx:hr>161</gpxtpx:hr>
<gpxtpx:atemp>6</gpxtpx:atemp>
</gpxtpx:TrackPointExtension>
</extensions>
</trkpt>
<trkpt lat="47.75361394509673" lon="12.203656481578946">
<ele>619</ele>
<time>2012-03-03T11:09:29Z</time>
<extensions>
<gpxtpx:TrackPointExtension>
<gpxtpx:hr>161</gpxtpx:hr>
<gpxtpx:atemp>6</gpxtpx:atemp>
</gpxtpx:TrackPointExtension>
</extensions>
</trkpt>
<trkpt lat="47.75375501252711" lon="12.203749101608992">
<ele>619</ele>
<time>2012-03-03T11:09:33Z</time>
<extensions>
<gpxtpx:TrackPointExtension>
<gpxtpx:hr>160</gpxtpx:hr>
<gpxtpx:atemp>6</gpxtpx:atemp>
</gpxtpx:TrackPointExtension>
</extensions>
</trkpt>
<trkpt lat="47.753813518211246" lon="12.203781036660075">
<ele>620</ele>
<time>2012-03-03T11:09:35Z</time>
<extensions>
<gpxtpx:TrackPointExtension>
<gpxtpx:hr>159</gpxtpx:hr>
<gpxtpx:atemp>6</gpxtpx:atemp>
</gpxtpx:TrackPointExtension>
</extensions>
</trkpt>
<trkpt lat="47.75384981185198" lon="12.203799895942211">
<ele>620</ele>
<time>2012-03-03T11:09:36Z</time>
<extensions>
<gpxtpx:TrackPointExtension>
<gpxtpx:hr>159</gpxtpx:hr>
<gpxtpx:atemp>6</gpxtpx:atemp>
</gpxtpx:TrackPointExtension>
</extensions>
</trkpt>
<trkpt lat="47.753890631720424" lon="12.203811630606651">
<ele>621</ele>
<time>2012-03-03T11:09:37Z</time>
<extensions>
<gpxtpx:TrackPointExtension>
<gpxtpx:hr>159</gpxtpx:hr>
<gpxtpx:atemp>6</gpxtpx:atemp>
</gpxtpx:TrackPointExtension>
</extensions>
</trkpt>
<trkpt lat="47.75392843410373" lon="12.203818084672093">
<ele>621</ele>
<time>2012-03-03T11:09:38Z</time>
<extensions>
<gpxtpx:TrackPointExtension>
<gpxtpx:hr>160</gpxtpx:hr>
<gpxtpx:atemp>6</gpxtpx:atemp>
</gpxtpx:TrackPointExtension>
</extensions>
</trkpt>
<trkpt lat="47.75396238081157" lon="12.203814145177603">
<ele>622</ele>
<time>2012-03-03T11:09:39Z</time>
<extensions>
<gpxtpx:TrackPointExtension>
<gpxtpx:hr>160</gpxtpx:hr>
<gpxtpx:atemp>6</gpxtpx:atemp>
</gpxtpx:TrackPointExtension>
</extensions>
</trkpt>
<trkpt lat="47.75412188842893" lon="12.203755471855402">
<ele>622</ele>
<time>2012-03-03T11:09:44Z</time>
<extensions>
<gpxtpx:TrackPointExtension>
<gpxtpx:hr>160</gpxtpx:hr>
<gpxtpx:atemp>6</gpxtpx:atemp>
</gpxtpx:TrackPointExtension>
</extensions>
</trkpt>
<trkpt lat="47.75435892865062" lon="12.203593282029033">
<ele>622</ele>
<time>2012-03-03T11:09:51Z</time>
<extensions>
<gpxtpx:TrackPointExtension>
<gpxtpx:hr>160</gpxtpx:hr>
<gpxtpx:atemp>6</gpxtpx:atemp>
</gpxtpx:TrackPointExtension>
</extensions>
</trkpt>
<trkpt lat="47.754398323595524" lon="12.203571572899818">
<ele>622</ele>
<time>2012-03-03T11:09:52Z</time>
<extensions>
<gpxtpx:TrackPointExtension>
<gpxtpx:hr>160</gpxtpx:hr>
<gpxtpx:atemp>6</gpxtpx:atemp>
</gpxtpx:TrackPointExtension>
</extensions>
</trkpt>
<trkpt lat="47.75443637743592" lon="12.20354818738997">
<ele>623</ele>
<time>2012-03-03T11:09:53Z</time>
<extensions>
<gpxtpx:TrackPointExtension>
<gpxtpx:hr>160</gpxtpx:hr>
<gpxtpx:atemp>6</gpxtpx:atemp>
</gpxtpx:TrackPointExtension>
</extensions>
</trkpt>
<trkpt lat="47.75447300635278" lon="12.203528992831707">
<ele>623</ele>
<time>2012-03-03T11:09:54Z</time>
<extensions>
<gpxtpx:TrackPointExtension>
<gpxtpx:hr>161</gpxtpx:hr>
<gpxtpx:atemp>6</gpxtpx:atemp>
</gpxtpx:TrackPointExtension>
</extensions>
</trkpt>
<trkpt lat="47.75450468994677" lon="12.20350912772119">
<ele>624</ele>
<time>2012-03-03T11:09:55Z</time>
<extensions>
<gpxtpx:TrackPointExtension>
<gpxtpx:hr>161</gpxtpx:hr>
<gpxtpx:atemp>6</gpxtpx:atemp>
</gpxtpx:TrackPointExtension>
</extensions>
</trkpt>
<trkpt lat="47.75459932163358" lon="12.203450286760926">
<ele>624</ele>
<time>2012-03-03T11:09:58Z</time>
<extensions>
<gpxtpx:TrackPointExtension>
<gpxtpx:hr>161</gpxtpx:hr>
<gpxtpx:atemp>6</gpxtpx:atemp>
</gpxtpx:TrackPointExtension>
</extensions>
</trkpt>
<trkpt lat="47.754739886149764" lon="12.203416423872113">
<ele>624</ele>
<time>2012-03-03T11:10:02Z</time>
<extensions>
<gpxtpx:TrackPointExtension>
<gpxtpx:hr>161</gpxtpx:hr>
<gpxtpx:atemp>6</gpxtpx:atemp>
</gpxtpx:TrackPointExtension>
</extensions>
</trkpt>
<trkpt lat="47.754776095971465" lon="12.203420279547572">
<ele>625</ele>
<time>2012-03-03T11:10:03Z</time>
<extensions>
<gpxtpx:TrackPointExtension>
<gpxtpx:hr>161</gpxtpx:hr>
<gpxtpx:atemp>6</gpxtpx:atemp>
</gpxtpx:TrackPointExtension>
</extensions>
</trkpt>
<trkpt lat="47.75480752810836" lon="12.20342799089849">
<ele>625</ele>
<time>2012-03-03T11:10:04Z</time>
<extensions>
<gpxtpx:TrackPointExtension>
<gpxtpx:hr>161</gpxtpx:hr>
<gpxtpx:atemp>5</gpxtpx:atemp>
</gpxtpx:TrackPointExtension>
</extensions>
</trkpt>
<trkpt lat="47.75484759360552" lon="12.20345045439899">
<ele>625</ele>
<time>2012-03-03T11:10:05Z</time>
<extensions>
<gpxtpx:TrackPointExtension>
<gpxtpx:hr>162</gpxtpx:hr>
<gpxtpx:atemp>5</gpxtpx:atemp>
</gpxtpx:TrackPointExtension>
</extensions>
</trkpt>
<trkpt lat="47.754877181723714" lon="12.203470403328538">
<ele>626</ele>
<time>2012-03-03T11:10:06Z</time>
<extensions>
<gpxtpx:TrackPointExtension>
<gpxtpx:hr>162</gpxtpx:hr>
<gpxtpx:atemp>5</gpxtpx:atemp>
</gpxtpx:TrackPointExtension>
</extensions>
</trkpt>
<trkpt lat="47.754977429285645" lon="12.20352279022336">
<ele>626</ele>
<time>2012-03-03T11:10:10Z</time>
<extensions>
<gpxtpx:TrackPointExtension>
<gpxtpx:hr>165</gpxtpx:hr>
<gpxtpx:atemp>5</gpxtpx:atemp>
</gpxtpx:TrackPointExtension>
</extensions>
</trkpt>
<trkpt lat="47.75500123389065" lon="12.203532010316849">
<ele>627</ele>
<time>2012-03-03T11:10:11Z</time>
<extensions>
<gpxtpx:TrackPointExtension>
<gpxtpx:hr>165</gpxtpx:hr>
<gpxtpx:atemp>5</gpxtpx:atemp>
</gpxtpx:TrackPointExtension>
</extensions>
</trkpt>
<trkpt lat="47.7550280559808" lon="12.203541984781623">
<ele>627</ele>
<time>2012-03-03T11:10:12Z</time>
<extensions>
<gpxtpx:TrackPointExtension>
<gpxtpx:hr>165</gpxtpx:hr>
<gpxtpx:atemp>5</gpxtpx:atemp>
</gpxtpx:TrackPointExtension>
</extensions>
</trkpt>
<trkpt lat="47.75505831465125" lon="12.203554389998317">
<ele>628</ele>
<time>2012-03-03T11:10:13Z</time>
<extensions>
<gpxtpx:TrackPointExtension>
<gpxtpx:hr>166</gpxtpx:hr>
<gpxtpx:atemp>5</gpxtpx:atemp>
</gpxtpx:TrackPointExtension>
</extensions>
</trkpt>
<trkpt lat="47.75508270598948" lon="12.203569309785962">
<ele>628</ele>
<time>2012-03-03T11:10:14Z</time>
<extensions>
<gpxtpx:TrackPointExtension>
<gpxtpx:hr>166</gpxtpx:hr>
<gpxtpx:atemp>5</gpxtpx:atemp>
</gpxtpx:TrackPointExtension>
</extensions>
</trkpt>
<trkpt lat="47.75512754917145" lon="12.203607363626361">
<ele>628</ele>
<time>2012-03-03T11:10:16Z</time>
<extensions>
<gpxtpx:TrackPointExtension>
<gpxtpx:hr>167</gpxtpx:hr>
<gpxtpx:atemp>5</gpxtpx:atemp>
</gpxtpx:TrackPointExtension>
</extensions>
</trkpt>
<trkpt lat="47.75514707900584" lon="12.203631587326527">
<ele>629</ele>
<time>2012-03-03T11:10:17Z</time>
<extensions>
<gpxtpx:TrackPointExtension>
<gpxtpx:hr>167</gpxtpx:hr>
<gpxtpx:atemp>5</gpxtpx:atemp>
</gpxtpx:TrackPointExtension>
</extensions>
</trkpt>
<trkpt lat="47.755165519192815" lon="12.20365664921701">
<ele>630</ele>
<time>2012-03-03T11:10:18Z</time>
<extensions>
<gpxtpx:TrackPointExtension>
<gpxtpx:hr>168</gpxtpx:hr>
<gpxtpx:atemp>5</gpxtpx:atemp>
</gpxtpx:TrackPointExtension>
</extensions>
</trkpt>
<trkpt lat="47.75518295355141" lon="12.203677603974938">
<ele>630</ele>
<time>2012-03-03T11:10:19Z</time>
<extensions>
<gpxtpx:TrackPointExtension>
<gpxtpx:hr>168</gpxtpx:hr>
<gpxtpx:atemp>5</gpxtpx:atemp>
</gpxtpx:TrackPointExtension>
</extensions>
</trkpt>
<trkpt lat="47.7552492544055" lon="12.203748347237706">
<ele>631</ele>
<time>2012-03-03T11:10:22Z</time>
<extensions>
<gpxtpx:TrackPointExtension>
<gpxtpx:hr>169</gpxtpx:hr>
<gpxtpx:atemp>5</gpxtpx:atemp>
</gpxtpx:TrackPointExtension>
</extensions>
</trkpt>
<trkpt lat="47.75527222082019" lon="12.203765446320176">
<ele>631</ele>
<time>2012-03-03T11:10:23Z</time>
<extensions>
<gpxtpx:TrackPointExtension>
<gpxtpx:hr>170</gpxtpx:hr>
<gpxtpx:atemp>5</gpxtpx:atemp>
</gpxtpx:TrackPointExtension>
</extensions>
</trkpt>
<trkpt lat="47.75528873316944" lon="12.203788496553898">
<ele>632</ele>
<time>2012-03-03T11:10:24Z</time>
<extensions>
<gpxtpx:TrackPointExtension>
<gpxtpx:hr>170</gpxtpx:hr>
<gpxtpx:atemp>5</gpxtpx:atemp>
</gpxtpx:TrackPointExtension>
</extensions>
</trkpt>
<trkpt lat="47.7553063351661" lon="12.203820515424013">
<ele>632</ele>
<time>2012-03-03T11:10:25Z</time>
<extensions>
<gpxtpx:TrackPointExtension>
<gpxtpx:hr>171</gpxtpx:hr>
<gpxtpx:atemp>5</gpxtpx:atemp>
</gpxtpx:TrackPointExtension>
</extensions>
</trkpt>
<trkpt lat="47.75532033294439" lon="12.203855635598302">
<ele>632</ele>
<time>2012-03-03T11:10:26Z</time>
<extensions>
<gpxtpx:TrackPointExtension>
<gpxtpx:hr>171</gpxtpx:hr>
<gpxtpx:atemp>5</gpxtpx:atemp>
</gpxtpx:TrackPointExtension>
</extensions>
</trkpt>
<trkpt lat="47.75534807704389" lon="12.203956637531519">
<ele>632</ele>
<time>2012-03-03T11:10:29Z</time>
<extensions>
<gpxtpx:TrackPointExtension>
<gpxtpx:hr>173</gpxtpx:hr>
<gpxtpx:atemp>5</gpxtpx:atemp>
</gpxtpx:TrackPointExtension>
</extensions>
</trkpt>
<trkpt lat="47.755367355421185" lon="12.204028805717826">
<ele>633</ele>
<time>2012-03-03T11:10:31Z</time>
<extensions>
<gpxtpx:TrackPointExtension>
<gpxtpx:hr>173</gpxtpx:hr>
<gpxtpx:atemp>5</gpxtpx:atemp>
</gpxtpx:TrackPointExtension>
</extensions>
</trkpt>
<trkpt lat="47.75538043119013" lon="12.204062668606639">
<ele>633</ele>
<time>2012-03-03T11:10:32Z</time>
<extensions>
<gpxtpx:TrackPointExtension>
<gpxtpx:hr>174</gpxtpx:hr>
<gpxtpx:atemp>5</gpxtpx:atemp>
</gpxtpx:TrackPointExtension>
</extensions>
</trkpt>
<trkpt lat="47.75539644062519" lon="12.204091418534517">
<ele>634</ele>
<time>2012-03-03T11:10:33Z</time>
<extensions>
<gpxtpx:TrackPointExtension>
<gpxtpx:hr>174</gpxtpx:hr>
<gpxtpx:atemp>5</gpxtpx:atemp>
</gpxtpx:TrackPointExtension>
</extensions>
</trkpt>
<trkpt lat="47.75541169568896" lon="12.204120503738523">
<ele>634</ele>
<time>2012-03-03T11:10:34Z</time>
<extensions>
<gpxtpx:TrackPointExtension>
<gpxtpx:hr>174</gpxtpx:hr>
<gpxtpx:atemp>5</gpxtpx:atemp>
</gpxtpx:TrackPointExtension>
</extensions>
</trkpt>
<trkpt lat="47.75542653165758" lon="12.204148918390274">
<ele>635</ele>
<time>2012-03-03T11:10:35Z</time>
<extensions>
<gpxtpx:TrackPointExtension>
<gpxtpx:hr>174</gpxtpx:hr>
<gpxtpx:atemp>5</gpxtpx:atemp>
</gpxtpx:TrackPointExtension>
</extensions>
</trkpt>
<trkpt lat="47.7554876357317" lon="12.204284453764558">
<ele>635</ele>
<time>2012-03-03T11:10:39Z</time>
<extensions>
<gpxtpx:TrackPointExtension>
<gpxtpx:hr>174</gpxtpx:hr>
<gpxtpx:atemp>5</gpxtpx:atemp>
</gpxtpx:TrackPointExtension>
</extensions>
</trkpt>
<trkpt lat="47.75549895130098" lon="12.204330135136843">
<ele>635</ele>
<time>2012-03-03T11:10:40Z</time>
<extensions>
<gpxtpx:TrackPointExtension>
<gpxtpx:hr>175</gpxtpx:hr>
<gpxtpx:atemp>5</gpxtpx:atemp>
</gpxtpx:TrackPointExtension>
</extensions>
</trkpt>
<trkpt lat="47.75551068596542" lon="12.204369697719812">
<ele>636</ele>
<time>2012-03-03T11:10:41Z</time>
<extensions>
<gpxtpx:TrackPointExtension>
<gpxtpx:hr>174</gpxtpx:hr>
<gpxtpx:atemp>5</gpxtpx:atemp>
</gpxtpx:TrackPointExtension>
</extensions>
</trkpt>
<trkpt lat="47.755520157516" lon="12.204408925026655">
<ele>637</ele>
<time>2012-03-03T11:10:42Z</time>
<extensions>
<gpxtpx:TrackPointExtension>
<gpxtpx:hr>174</gpxtpx:hr>
<gpxtpx:atemp>5</gpxtpx:atemp>
</gpxtpx:TrackPointExtension>
</extensions>
</trkpt>
<trkpt lat="47.75553021579981" lon="12.204452427104115">
<ele>637</ele>
<time>2012-03-03T11:10:43Z</time>
<extensions>
<gpxtpx:TrackPointExtension>
<gpxtpx:hr>174</gpxtpx:hr>
<gpxtpx:atemp>5</gpxtpx:atemp>
</gpxtpx:TrackPointExtension>
</extensions>
</trkpt>
<trkpt lat="47.75555896572769" lon="12.204631213098764">
<ele>637</ele>
<time>2012-03-03T11:10:47Z</time>
<extensions>
<gpxtpx:TrackPointExtension>
<gpxtpx:hr>173</gpxtpx:hr>
<gpxtpx:atemp>5</gpxtpx:atemp>
</gpxtpx:TrackPointExtension>
</extensions>
</trkpt>
<trkpt lat="47.75556240230799" lon="12.20468183979392">
<ele>638</ele>
<time>2012-03-03T11:10:48Z</time>
<extensions>
<gpxtpx:TrackPointExtension>
<gpxtpx:hr>173</gpxtpx:hr>
<gpxtpx:atemp>5</gpxtpx:atemp>
</gpxtpx:TrackPointExtension>
</extensions>
</trkpt>
<trkpt lat="47.75556013919413" lon="12.204729616641998">
<ele>638</ele>
<time>2012-03-03T11:10:49Z</time>
<extensions>
<gpxtpx:TrackPointExtension>
<gpxtpx:hr>173</gpxtpx:hr>
<gpxtpx:atemp>5</gpxtpx:atemp>
</gpxtpx:TrackPointExtension>
</extensions>
</trkpt>
<trkpt lat="47.75556290522218" lon="12.204777812585235">
<ele>638</ele>
<time>2012-03-03T11:10:50Z</time>
<extensions>
<gpxtpx:TrackPointExtension>
<gpxtpx:hr>173</gpxtpx:hr>
<gpxtpx:atemp>5</gpxtpx:atemp>
</gpxtpx:TrackPointExtension>
</extensions>
</trkpt>
<trkpt lat="47.75556256994605" lon="12.20482743345201">
<ele>639</ele>
<time>2012-03-03T11:10:51Z</time>
<extensions>
<gpxtpx:TrackPointExtension>
<gpxtpx:hr>173</gpxtpx:hr>
<gpxtpx:atemp>5</gpxtpx:atemp>
</gpxtpx:TrackPointExtension>
</extensions>
</trkpt>
<trkpt lat="47.7555238455534" lon="12.205080902203918">
<ele>639</ele>
<time>2012-03-03T11:10:56Z</time>
<extensions>
<gpxtpx:TrackPointExtension>
<gpxtpx:hr>172</gpxtpx:hr>
<gpxtpx:atemp>6</gpxtpx:atemp>
</gpxtpx:TrackPointExtension>
</extensions>
</trkpt>
<trkpt lat="47.755475230515" lon="12.205436043441296">
<ele>639</ele>
<time>2012-03-03T11:11:04Z</time>
<extensions>
<gpxtpx:TrackPointExtension>
<gpxtpx:hr>170</gpxtpx:hr>
<gpxtpx:atemp>6</gpxtpx:atemp>
</gpxtpx:TrackPointExtension>
</extensions>
</trkpt>
<trkpt lat="47.75547539815307" lon="12.205483904108405">
<ele>639</ele>
<time>2012-03-03T11:11:05Z</time>
<extensions>
<gpxtpx:TrackPointExtension>
<gpxtpx:hr>170</gpxtpx:hr>
<gpxtpx:atemp>6</gpxtpx:atemp>
</gpxtpx:TrackPointExtension>
</extensions>
</trkpt>
<trkpt lat="47.75547422468662" lon="12.205529501661658">
<ele>640</ele>
<time>2012-03-03T11:11:06Z</time>
<extensions>
<gpxtpx:TrackPointExtension>
<gpxtpx:hr>169</gpxtpx:hr>
<gpxtpx:atemp>6</gpxtpx:atemp>
</gpxtpx:TrackPointExtension>
</extensions>
</trkpt>
<trkpt lat="47.75547296740115" lon="12.205575602129102">
<ele>640</ele>
<time>2012-03-03T11:11:07Z</time>
<extensions>
<gpxtpx:TrackPointExtension>
<gpxtpx:hr>169</gpxtpx:hr>
<gpxtpx:atemp>6</gpxtpx:atemp>
</gpxtpx:TrackPointExtension>
</extensions>
</trkpt>
<trkpt lat="47.75547539815307" lon="12.205624636262655">
<ele>641</ele>
<time>2012-03-03T11:11:08Z</time>
<extensions>
<gpxtpx:TrackPointExtension>
<gpxtpx:hr>168</gpxtpx:hr>
<gpxtpx:atemp>6</gpxtpx:atemp>
</gpxtpx:TrackPointExtension>
</extensions>
</trkpt>
<trkpt lat="47.7554789185524" lon="12.205671072006226">
<ele>641</ele>
<time>2012-03-03T11:11:09Z</time>
<extensions>
<gpxtpx:TrackPointExtension>
<gpxtpx:hr>168</gpxtpx:hr>
<gpxtpx:atemp>6</gpxtpx:atemp>
</gpxtpx:TrackPointExtension>
</extensions>
</trkpt>
<trkpt lat="47.75548428297043" lon="12.205720692873001">
<ele>642</ele>
<time>2012-03-03T11:11:10Z</time>
<extensions>
<gpxtpx:TrackPointExtension>
<gpxtpx:hr>168</gpxtpx:hr>
<gpxtpx:atemp>6</gpxtpx:atemp>
</gpxtpx:TrackPointExtension>
</extensions>
</trkpt>
<trkpt lat="47.75549056939781" lon="12.205767631530762">
<ele>642</ele>
<time>2012-03-03T11:11:11Z</time>
<extensions>
<gpxtpx:TrackPointExtension>
<gpxtpx:hr>168</gpxtpx:hr>
<gpxtpx:atemp>6</gpxtpx:atemp>
</gpxtpx:TrackPointExtension>
</extensions>
</trkpt>
<trkpt lat="47.75549761019647" lon="12.205813731998205">
<ele>642</ele>
<time>2012-03-03T11:11:12Z</time>
<extensions>
<gpxtpx:TrackPointExtension>
<gpxtpx:hr>167</gpxtpx:hr>
<gpxtpx:atemp>6</gpxtpx:atemp>
</gpxtpx:TrackPointExtension>
</extensions>
</trkpt>
<trkpt lat="47.755501214414835" lon="12.205858742818236">
<ele>643</ele>
<time>2012-03-03T11:11:13Z</time>
<extensions>
<gpxtpx:TrackPointExtension>
<gpxtpx:hr>167</gpxtpx:hr>
<gpxtpx:atemp>6</gpxtpx:atemp>
</gpxtpx:TrackPointExtension>
</extensions>
</trkpt>
<trkpt lat="47.75554991327226" lon="12.2060954477638">
<ele>643</ele>
<time>2012-03-03T11:11:18Z</time>
<extensions>
<gpxtpx:TrackPointExtension>
<gpxtpx:hr>167</gpxtpx:hr>
<gpxtpx:atemp>6</gpxtpx:atemp>
</gpxtpx:TrackPointExtension>
</extensions>
</trkpt>
<trkpt lat="47.75563968345523" lon="12.206411613151431">
<ele>643</ele>
<time>2012-03-03T11:11:23Z</time>
<extensions>
<gpxtpx:TrackPointExtension>
<gpxtpx:hr>166</gpxtpx:hr>
<gpxtpx:atemp>6</gpxtpx:atemp>
</gpxtpx:TrackPointExtension>
</extensions>
</trkpt>
<trkpt lat="47.7556620631367" lon="12.206460228189826">
<ele>643</ele>
<time>2012-03-03T11:11:24Z</time>
<extensions>
<gpxtpx:TrackPointExtension>
<gpxtpx:hr>167</gpxtpx:hr>
<gpxtpx:atemp>6</gpxtpx:atemp>
</gpxtpx:TrackPointExtension>
</extensions>
</trkpt>
<trkpt lat="47.755731884390116" lon="12.206658460199833">
<ele>643</ele>
<time>2012-03-03T11:11:28Z</time>
<extensions>
<gpxtpx:TrackPointExtension>
<gpxtpx:hr>166</gpxtpx:hr>
<gpxtpx:atemp>6</gpxtpx:atemp>
</gpxtpx:TrackPointExtension>
</extensions>
</trkpt>
<trkpt lat="47.755714282393456" lon="12.206826768815517">
<ele>643</ele>
<time>2012-03-03T11:11:32Z</time>
<extensions>
<gpxtpx:TrackPointExtension>
<gpxtpx:hr>165</gpxtpx:hr>
<gpxtpx:atemp>6</gpxtpx:atemp>
</gpxtpx:TrackPointExtension>
</extensions>
</trkpt>
<trkpt lat="47.755586709827185" lon="12.206841185688972">
<ele>643</ele>
<time>2012-03-03T11:11:35Z</time>
<extensions>
<gpxtpx:TrackPointExtension>
<gpxtpx:hr>163</gpxtpx:hr>
<gpxtpx:atemp>6</gpxtpx:atemp>
</gpxtpx:TrackPointExtension>
</extensions>
</trkpt>
<trkpt lat="47.75538370013237" lon="12.206862308084965">
<ele>643</ele>
<time>2012-03-03T11:11:40Z</time>
<extensions>
<gpxtpx:TrackPointExtension>
<gpxtpx:hr>160</gpxtpx:hr>
<gpxtpx:atemp>6</gpxtpx:atemp>
</gpxtpx:TrackPointExtension>
</extensions>
</trkpt>
<trkpt lat="47.75530658662319" lon="12.206887789070606">
<ele>643</ele>
<time>2012-03-03T11:11:42Z</time>
<extensions>
<gpxtpx:TrackPointExtension>
<gpxtpx:hr>159</gpxtpx:hr>
<gpxtpx:atemp>6</gpxtpx:atemp>
</gpxtpx:TrackPointExtension>
</extensions>
</trkpt>
<trkpt lat="47.75526920333505" lon="12.206906396895647">
<ele>643</ele>
<time>2012-03-03T11:11:43Z</time>
<extensions>
<gpxtpx:TrackPointExtension>
<gpxtpx:hr>159</gpxtpx:hr>
<gpxtpx:atemp>6</gpxtpx:atemp>
</gpxtpx:TrackPointExtension>
</extensions>
</trkpt>
<trkpt lat="47.75523123331368" lon="12.20691829919815">
<ele>644</ele>
<time>2012-03-03T11:11:44Z</time>
<extensions>
<gpxtpx:TrackPointExtension>
<gpxtpx:hr>158</gpxtpx:hr>
<gpxtpx:atemp>6</gpxtpx:atemp>
</gpxtpx:TrackPointExtension>
</extensions>
</trkpt>
<trkpt lat="47.75519250892103" lon="12.20693439245224">
<ele>644</ele>
<time>2012-03-03T11:11:45Z</time>
<extensions>
<gpxtpx:TrackPointExtension>
<gpxtpx:hr>158</gpxtpx:hr>
<gpxtpx:atemp>6</gpxtpx:atemp>
</gpxtpx:TrackPointExtension>
</extensions>
</trkpt>
<trkpt lat="47.755155209451914" lon="12.206947635859251">
<ele>645</ele>
<time>2012-03-03T11:11:46Z</time>
<extensions>
<gpxtpx:TrackPointExtension>
<gpxtpx:hr>158</gpxtpx:hr>
<gpxtpx:atemp>6</gpxtpx:atemp>
</gpxtpx:TrackPointExtension>
</extensions>
</trkpt>
<trkpt lat="47.755116652697325" lon="12.206961130723357">
<ele>645</ele>
<time>2012-03-03T11:11:47Z</time>
<extensions>
<gpxtpx:TrackPointExtension>
<gpxtpx:hr>158</gpxtpx:hr>
<gpxtpx:atemp>6</gpxtpx:atemp>
</gpxtpx:TrackPointExtension>
</extensions>
</trkpt>
<trkpt lat="47.75504129938781" lon="12.20698376186192">
<ele>645</ele>
<time>2012-03-03T11:11:49Z</time>
<extensions>
<gpxtpx:TrackPointExtension>
<gpxtpx:hr>158</gpxtpx:hr>
<gpxtpx:atemp>6</gpxtpx:atemp>
</gpxtpx:TrackPointExtension>
</extensions>
</trkpt>
<trkpt lat="47.754902159795165" lon="12.207019552588463">
<ele>645</ele>
<time>2012-03-03T11:11:53Z</time>
<extensions>
<gpxtpx:TrackPointExtension>
<gpxtpx:hr>158</gpxtpx:hr>
<gpxtpx:atemp>6</gpxtpx:atemp>
</gpxtpx:TrackPointExtension>
</extensions>
</trkpt>
<trkpt lat="47.754864022135735" lon="12.207027012482285">
<ele>646</ele>
<time>2012-03-03T11:11:54Z</time>
<extensions>
<gpxtpx:TrackPointExtension>
<gpxtpx:hr>158</gpxtpx:hr>
<gpxtpx:atemp>6</gpxtpx:atemp>
</gpxtpx:TrackPointExtension>
</extensions>
</trkpt>
<trkpt lat="47.75482336990535" lon="12.207034304738045">
<ele>646</ele>
<time>2012-03-03T11:11:55Z</time>
<extensions>
<gpxtpx:TrackPointExtension>
<gpxtpx:hr>158</gpxtpx:hr>
<gpxtpx:atemp>6</gpxtpx:atemp>
</gpxtpx:TrackPointExtension>
</extensions>
</trkpt>
<trkpt lat="47.75478087365627" lon="12.207041261717677">
<ele>647</ele>
<time>2012-03-03T11:11:56Z</time>
<extensions>
<gpxtpx:TrackPointExtension>
<gpxtpx:hr>158</gpxtpx:hr>
<gpxtpx:atemp>6</gpxtpx:atemp>
</gpxtpx:TrackPointExtension>
</extensions>
</trkpt>
<trkpt lat="47.754454063251615" lon="12.207094570621848">
<ele>648</ele>
<time>2012-03-03T11:12:04Z</time>
<extensions>
<gpxtpx:TrackPointExtension>
<gpxtpx:hr>158</gpxtpx:hr>
<gpxtpx:atemp>6</gpxtpx:atemp>
</gpxtpx:TrackPointExtension>
</extensions>
</trkpt>
<trkpt lat="47.75441810488701" lon="12.207102701067924">
<ele>648</ele>
<time>2012-03-03T11:12:05Z</time>
<extensions>
<gpxtpx:TrackPointExtension>
<gpxtpx:hr>158</gpxtpx:hr>
<gpxtpx:atemp>6</gpxtpx:atemp>
</gpxtpx:TrackPointExtension>
</extensions>
</trkpt>
<trkpt lat="47.75438097305596" lon="12.207108233124018">
<ele>648</ele>
<time>2012-03-03T11:12:06Z</time>
<extensions>
<gpxtpx:TrackPointExtension>
<gpxtpx:hr>157</gpxtpx:hr>
<gpxtpx:atemp>6</gpxtpx:atemp>
</gpxtpx:TrackPointExtension>
</extensions>
</trkpt>
<trkpt lat="47.754340237006545" lon="12.20711519010365">
<ele>649</ele>
<time>2012-03-03T11:12:07Z</time>
<extensions>
<gpxtpx:TrackPointExtension>
<gpxtpx:hr>157</gpxtpx:hr>
<gpxtpx:atemp>6</gpxtpx:atemp>
</gpxtpx:TrackPointExtension>
</extensions>
</trkpt>
<trkpt lat="47.75429790839553" lon="12.207120638340712">
<ele>649</ele>
<time>2012-03-03T11:12:08Z</time>
<extensions>
<gpxtpx:TrackPointExtension>
<gpxtpx:hr>157</gpxtpx:hr>
<gpxtpx:atemp>6</gpxtpx:atemp>
</gpxtpx:TrackPointExtension>
</extensions>
</trkpt>
<trkpt lat="47.7541942242533" lon="12.207142263650894">
<ele>649</ele>
<time>2012-03-03T11:12:10Z</time>
<extensions>
<gpxtpx:TrackPointExtension>
<gpxtpx:hr>156</gpxtpx:hr>
<gpxtpx:atemp>6</gpxtpx:atemp>
</gpxtpx:TrackPointExtension>
</extensions>
</trkpt>
<trkpt lat="47.754135970026255" lon="12.20716212876141">
<ele>649</ele>
<time>2012-03-03T11:12:11Z</time>
<extensions>
<gpxtpx:TrackPointExtension>
<gpxtpx:hr>157</gpxtpx:hr>
<gpxtpx:atemp>6</gpxtpx:atemp>
</gpxtpx:TrackPointExtension>
</extensions>
</trkpt>
<trkpt lat="47.75395550765097" lon="12.207278301939368">
<ele>649</ele>
<time>2012-03-03T11:12:14Z</time>
<extensions>
<gpxtpx:TrackPointExtension>
<gpxtpx:hr>156</gpxtpx:hr>
<gpxtpx:atemp>6</gpxtpx:atemp>
</gpxtpx:TrackPointExtension>
</extensions>
</trkpt>
<trkpt lat="47.753895157948136" lon="12.207333203405142">
<ele>649</ele>
<time>2012-03-03T11:12:15Z</time>
<extensions>
<gpxtpx:TrackPointExtension>
<gpxtpx:hr>156</gpxtpx:hr>
<gpxtpx:atemp>6</gpxtpx:atemp>
</gpxtpx:TrackPointExtension>
</extensions>
</trkpt>
<trkpt lat="47.75370631366968" lon="12.207512073218822">
<ele>649</ele>
<time>2012-03-03T11:12:18Z</time>
<extensions>
<gpxtpx:TrackPointExtension>
<gpxtpx:hr>155</gpxtpx:hr>
<gpxtpx:atemp>6</gpxtpx:atemp>
</gpxtpx:TrackPointExtension>
</extensions>
</trkpt>
<trkpt lat="47.75364990346134" lon="12.207569321617484">
<ele>649</ele>
<time>2012-03-03T11:12:19Z</time>
<extensions>
<gpxtpx:TrackPointExtension>
<gpxtpx:hr>156</gpxtpx:hr>
<gpxtpx:atemp>6</gpxtpx:atemp>
</gpxtpx:TrackPointExtension>
</extensions>
</trkpt>
<trkpt lat="47.7535932417959" lon="12.207621457055211">
<ele>648</ele>
<time>2012-03-03T11:12:20Z</time>
<extensions>
<gpxtpx:TrackPointExtension>
<gpxtpx:hr>156</gpxtpx:hr>
<gpxtpx:atemp>6</gpxtpx:atemp>
</gpxtpx:TrackPointExtension>
</extensions>
</trkpt>
<trkpt lat="47.75353926233947" lon="12.207678956910968">
<ele>647</ele>
<time>2012-03-03T11:12:21Z</time>
<extensions>
<gpxtpx:TrackPointExtension>
<gpxtpx:hr>155</gpxtpx:hr>
<gpxtpx:atemp>6</gpxtpx:atemp>
</gpxtpx:TrackPointExtension>
</extensions>
</trkpt>
<trkpt lat="47.75348972529173" lon="12.207736289128661">
<ele>646</ele>
<time>2012-03-03T11:12:22Z</time>
<extensions>
<gpxtpx:TrackPointExtension>
<gpxtpx:hr>155</gpxtpx:hr>
<gpxtpx:atemp>6</gpxtpx:atemp>
</gpxtpx:TrackPointExtension>
</extensions>
</trkpt>
<trkpt lat="47.753442618995905" lon="12.207791861146688">
<ele>646</ele>
<time>2012-03-03T11:12:23Z</time>
<extensions>
<gpxtpx:TrackPointExtension>
<gpxtpx:hr>155</gpxtpx:hr>
<gpxtpx:atemp>6</gpxtpx:atemp>
</gpxtpx:TrackPointExtension>
</extensions>
</trkpt>
<trkpt lat="47.75340079329908" lon="12.207846427336335">
<ele>645</ele>
<time>2012-03-03T11:12:24Z</time>
<extensions>
<gpxtpx:TrackPointExtension>
<gpxtpx:hr>154</gpxtpx:hr>
<gpxtpx:atemp>6</gpxtpx:atemp>
</gpxtpx:TrackPointExtension>
</extensions>
</trkpt>
<trkpt lat="47.75336307473481" lon="12.207920020446181">
<ele>644</ele>
<time>2012-03-03T11:12:25Z</time>
<extensions>
<gpxtpx:TrackPointExtension>
<gpxtpx:hr>153</gpxtpx:hr>
<gpxtpx:atemp>6</gpxtpx:atemp>
</gpxtpx:TrackPointExtension>
</extensions>
</trkpt>
<trkpt lat="47.75332426652312" lon="12.207996882498264">
<ele>643</ele>
<time>2012-03-03T11:12:26Z</time>
<extensions>
<gpxtpx:TrackPointExtension>
<gpxtpx:hr>151</gpxtpx:hr>
<gpxtpx:atemp>6</gpxtpx:atemp>
</gpxtpx:TrackPointExtension>
</extensions>
</trkpt>
<trkpt lat="47.75329132564366" lon="12.20807726494968">
<ele>642</ele>
<time>2012-03-03T11:12:27Z</time>
<extensions>
<gpxtpx:TrackPointExtension>
<gpxtpx:hr>149</gpxtpx:hr>
<gpxtpx:atemp>6</gpxtpx:atemp>
</gpxtpx:TrackPointExtension>
</extensions>
</trkpt>
<trkpt lat="47.753256959840655" lon="12.208155719563365">
<ele>642</ele>
<time>2012-03-03T11:12:28Z</time>
<extensions>
<gpxtpx:TrackPointExtension>
<gpxtpx:hr>146</gpxtpx:hr>
<gpxtpx:atemp>6</gpxtpx:atemp>
</gpxtpx:TrackPointExtension>
</extensions>
</trkpt>
<trkpt lat="47.75321764871478" lon="12.208217326551676">
<ele>641</ele>
<time>2012-03-03T11:12:29Z</time>
<extensions>
<gpxtpx:TrackPointExtension>
<gpxtpx:hr>145</gpxtpx:hr>
<gpxtpx:atemp>6</gpxtpx:atemp>
</gpxtpx:TrackPointExtension>
</extensions>
</trkpt>
<trkpt lat="47.75317079387605" lon="12.208252782002091">
<ele>640</ele>
<time>2012-03-03T11:12:30Z</time>
<extensions>
<gpxtpx:TrackPointExtension>
<gpxtpx:hr>143</gpxtpx:hr>
<gpxtpx:atemp>6</gpxtpx:atemp>
</gpxtpx:TrackPointExtension>
</extensions>
</trkpt>
<trkpt lat="47.753109438344836" lon="12.20826392993331">
<ele>640</ele>
<time>2012-03-03T11:12:31Z</time>
<extensions>
<gpxtpx:TrackPointExtension>
<gpxtpx:hr>143</gpxtpx:hr>
<gpxtpx:atemp>6</gpxtpx:atemp>
</gpxtpx:TrackPointExtension>
</extensions>
</trkpt>
<trkpt lat="47.753045819699764" lon="12.208253284916282">
<ele>639</ele>
<time>2012-03-03T11:12:32Z</time>
<extensions>
<gpxtpx:TrackPointExtension>
<gpxtpx:hr>143</gpxtpx:hr>
<gpxtpx:atemp>6</gpxtpx:atemp>
</gpxtpx:TrackPointExtension>
</extensions>
</trkpt>
<trkpt lat="47.7529869787395" lon="12.208230905234814">
<ele>638</ele>
<time>2012-03-03T11:12:33Z</time>
<extensions>
<gpxtpx:TrackPointExtension>
<gpxtpx:hr>142</gpxtpx:hr>
<gpxtpx:atemp>6</gpxtpx:atemp>
</gpxtpx:TrackPointExtension>
</extensions>
</trkpt>
<trkpt lat="47.7529333345592" lon="12.208195785060525">
<ele>638</ele>
<time>2012-03-03T11:12:34Z</time>
<extensions>
<gpxtpx:TrackPointExtension>
<gpxtpx:hr>142</gpxtpx:hr>
<gpxtpx:atemp>6</gpxtpx:atemp>
</gpxtpx:TrackPointExtension>
</extensions>
</trkpt>
<trkpt lat="47.75280341506004" lon="12.207952039316297">
<ele>638</ele>
<time>2012-03-03T11:12:38Z</time>
<extensions>
<gpxtpx:TrackPointExtension>
<gpxtpx:hr>143</gpxtpx:hr>
<gpxtpx:atemp>6</gpxtpx:atemp>
</gpxtpx:TrackPointExtension>
</extensions>
</trkpt>
<trkpt lat="47.7528091147542" lon="12.207715921103954">
<ele>638</ele>
<time>2012-03-03T11:12:41Z</time>
<extensions>
<gpxtpx:TrackPointExtension>
<gpxtpx:hr>140</gpxtpx:hr>
<gpxtpx:atemp>6</gpxtpx:atemp>
</gpxtpx:TrackPointExtension>
</extensions>
</trkpt>
<trkpt lat="47.75281213223934" lon="12.207640903070569">
<ele>638</ele>
<time>2012-03-03T11:12:42Z</time>
<extensions>
<gpxtpx:TrackPointExtension>
<gpxtpx:hr>138</gpxtpx:hr>
<gpxtpx:atemp>6</gpxtpx:atemp>
</gpxtpx:TrackPointExtension>
</extensions>
</trkpt>
<trkpt lat="47.75279989466071" lon="12.207558089867234">
<ele>638</ele>
<time>2012-03-03T11:12:43Z</time>
<extensions>
<gpxtpx:TrackPointExtension>
<gpxtpx:hr>138</gpxtpx:hr>
<gpxtpx:atemp>6</gpxtpx:atemp>
</gpxtpx:TrackPointExtension>
</extensions>
</trkpt>
<trkpt lat="47.752744406461716" lon="12.20741911791265">
<ele>638</ele>
<time>2012-03-03T11:12:45Z</time>
<extensions>
<gpxtpx:TrackPointExtension>
<gpxtpx:hr>134</gpxtpx:hr>
<gpxtpx:atemp>6</gpxtpx:atemp>
</gpxtpx:TrackPointExtension>
</extensions>
</trkpt>
<trkpt lat="47.75260568596423" lon="12.207274530082941">
<ele>638</ele>
<time>2012-03-03T11:12:48Z</time>
<extensions>
<gpxtpx:TrackPointExtension>
<gpxtpx:hr>133</gpxtpx:hr>
<gpxtpx:atemp>6</gpxtpx:atemp>
</gpxtpx:TrackPointExtension>
</extensions>
</trkpt>
<trkpt lat="47.75255095213652" lon="12.207221472635865">
<ele>638</ele>
<time>2012-03-03T11:12:49Z</time>
<extensions>
<gpxtpx:TrackPointExtension>
<gpxtpx:hr>133</gpxtpx:hr>
<gpxtpx:atemp>6</gpxtpx:atemp>
</gpxtpx:TrackPointExtension>
</extensions>
</trkpt>
<trkpt lat="47.7522131614387" lon="12.20698133111">
<ele>637</ele>
<time>2012-03-03T11:12:54Z</time>
<extensions>
<gpxtpx:TrackPointExtension>
<gpxtpx:hr>134</gpxtpx:hr>
<gpxtpx:atemp>6</gpxtpx:atemp>
</gpxtpx:TrackPointExtension>
</extensions>
</trkpt>
<trkpt lat="47.75213981978595" lon="12.206924837082624">
<ele>637</ele>
<time>2012-03-03T11:12:55Z</time>
<extensions>
<gpxtpx:TrackPointExtension>
<gpxtpx:hr>133</gpxtpx:hr>
<gpxtpx:atemp>6</gpxtpx:atemp>
</gpxtpx:TrackPointExtension>
</extensions>
</trkpt>
<trkpt lat="47.75206639431417" lon="12.206868510693312">
<ele>636</ele>
<time>2012-03-03T11:12:56Z</time>
<extensions>
<gpxtpx:TrackPointExtension>
<gpxtpx:hr>132</gpxtpx:hr>
<gpxtpx:atemp>6</gpxtpx:atemp>
</gpxtpx:TrackPointExtension>
</extensions>
</trkpt>
<trkpt lat="47.75199665687978" lon="12.206808244809508">
<ele>636</ele>
<time>2012-03-03T11:12:57Z</time>
<extensions>
<gpxtpx:TrackPointExtension>
<gpxtpx:hr>132</gpxtpx:hr>
<gpxtpx:atemp>6</gpxtpx:atemp>
</gpxtpx:TrackPointExtension>
</extensions>
</trkpt>
<trkpt lat="47.75192876346409" lon="12.20675753429532">
<ele>636</ele>
<time>2012-03-03T11:12:58Z</time>
<extensions>
<gpxtpx:TrackPointExtension>
<gpxtpx:hr>131</gpxtpx:hr>
<gpxtpx:atemp>6</gpxtpx:atemp>
</gpxtpx:TrackPointExtension>
</extensions>
</trkpt>
<trkpt lat="47.751787193119526" lon="12.206686455756426">
<ele>636</ele>
<time>2012-03-03T11:13:00Z</time>
<extensions>
<gpxtpx:TrackPointExtension>
<gpxtpx:hr>130</gpxtpx:hr>
<gpxtpx:atemp>6</gpxtpx:atemp>
</gpxtpx:TrackPointExtension>
</extensions>
</trkpt>
<trkpt lat="47.751717204228044" lon="12.206667512655258">
<ele>635</ele>
<time>2012-03-03T11:13:01Z</time>
<extensions>
<gpxtpx:TrackPointExtension>
<gpxtpx:hr>129</gpxtpx:hr>
<gpxtpx:atemp>6</gpxtpx:atemp>
</gpxtpx:TrackPointExtension>
</extensions>
</trkpt>
<trkpt lat="47.751644533127546" lon="12.206655694171786">
<ele>635</ele>
<time>2012-03-03T11:13:02Z</time>
<extensions>
<gpxtpx:TrackPointExtension>
<gpxtpx:hr>129</gpxtpx:hr>
<gpxtpx:atemp>6</gpxtpx:atemp>
</gpxtpx:TrackPointExtension>
</extensions>
</trkpt>
<trkpt lat="47.751572197303176" lon="12.206653766334057">
<ele>634</ele>
<time>2012-03-03T11:13:03Z</time>
<extensions>
<gpxtpx:TrackPointExtension>
<gpxtpx:hr>130</gpxtpx:hr>
<gpxtpx:atemp>6</gpxtpx:atemp>
</gpxtpx:TrackPointExtension>
</extensions>
</trkpt>
<trkpt lat="47.751498352736235" lon="12.2066636569798">
<ele>634</ele>
<time>2012-03-03T11:13:04Z</time>
<extensions>
<gpxtpx:TrackPointExtension>
<gpxtpx:hr>132</gpxtpx:hr>
<gpxtpx:atemp>6</gpxtpx:atemp>
</gpxtpx:TrackPointExtension>
</extensions>
</trkpt>
<trkpt lat="47.751426100730896" lon="12.206678157672286">
<ele>634</ele>
<time>2012-03-03T11:13:05Z</time>
<extensions>
<gpxtpx:TrackPointExtension>
<gpxtpx:hr>133</gpxtpx:hr>
<gpxtpx:atemp>6</gpxtpx:atemp>
</gpxtpx:TrackPointExtension>
</extensions>
</trkpt>
<trkpt lat="47.751076659187675" lon="12.20679072663188">
<ele>634</ele>
<time>2012-03-03T11:13:10Z</time>
<extensions>
<gpxtpx:TrackPointExtension>
<gpxtpx:hr>131</gpxtpx:hr>
<gpxtpx:atemp>6</gpxtpx:atemp>
</gpxtpx:TrackPointExtension>
</extensions>
</trkpt>
<trkpt lat="47.75100231170654" lon="12.206808077171445">
<ele>633</ele>
<time>2012-03-03T11:13:11Z</time>
<extensions>
<gpxtpx:TrackPointExtension>
<gpxtpx:hr>131</gpxtpx:hr>
<gpxtpx:atemp>6</gpxtpx:atemp>
</gpxtpx:TrackPointExtension>
</extensions>
</trkpt>
<trkpt lat="47.75092930532992" lon="12.20683079212904">
<ele>633</ele>
<time>2012-03-03T11:13:12Z</time>
<extensions>
<gpxtpx:TrackPointExtension>
<gpxtpx:hr>131</gpxtpx:hr>
<gpxtpx:atemp>6</gpxtpx:atemp>
</gpxtpx:TrackPointExtension>
</extensions>
</trkpt>
<trkpt lat="47.75085755623877" lon="12.206854010000825">
<ele>632</ele>
<time>2012-03-03T11:13:13Z</time>
<extensions>
<gpxtpx:TrackPointExtension>
<gpxtpx:hr>131</gpxtpx:hr>
<gpxtpx:atemp>6</gpxtpx:atemp>
</gpxtpx:TrackPointExtension>
</extensions>
</trkpt>
<trkpt lat="47.75078563950956" lon="12.206883765757084">
<ele>632</ele>
<time>2012-03-03T11:13:14Z</time>
<extensions>
<gpxtpx:TrackPointExtension>
<gpxtpx:hr>131</gpxtpx:hr>
<gpxtpx:atemp>6</gpxtpx:atemp>
</gpxtpx:TrackPointExtension>
</extensions>
</trkpt>
<trkpt lat="47.750711711123586" lon="12.206903798505664">
<ele>632</ele>
<time>2012-03-03T11:13:15Z</time>
<extensions>
<gpxtpx:TrackPointExtension>
<gpxtpx:hr>131</gpxtpx:hr>
<gpxtpx:atemp>6</gpxtpx:atemp>
</gpxtpx:TrackPointExtension>
</extensions>
</trkpt>
<trkpt lat="47.75056142359972" lon="12.20693581737578">
<ele>632</ele>
<time>2012-03-03T11:13:17Z</time>
<extensions>
<gpxtpx:TrackPointExtension>
<gpxtpx:hr>131</gpxtpx:hr>
<gpxtpx:atemp>6</gpxtpx:atemp>
</gpxtpx:TrackPointExtension>
</extensions>
</trkpt>
<trkpt lat="47.75033955462277" lon="12.206995245069265">
<ele>632</ele>
<time>2012-03-03T11:13:20Z</time>
<extensions>
<gpxtpx:TrackPointExtension>
<gpxtpx:hr>131</gpxtpx:hr>
<gpxtpx:atemp>6</gpxtpx:atemp>
</gpxtpx:TrackPointExtension>
</extensions>
</trkpt>
<trkpt lat="47.74989397265017" lon="12.207158859819174">
<ele>632</ele>
<time>2012-03-03T11:13:27Z</time>
<extensions>
<gpxtpx:TrackPointExtension>
<gpxtpx:hr>133</gpxtpx:hr>
<gpxtpx:atemp>6</gpxtpx:atemp>
</gpxtpx:TrackPointExtension>
</extensions>
</trkpt>
<trkpt lat="47.74968727491796" lon="12.207273188978434">
<ele>632</ele>
<time>2012-03-03T11:13:32Z</time>
<extensions>
<gpxtpx:TrackPointExtension>
<gpxtpx:hr>134</gpxtpx:hr>
<gpxtpx:atemp>6</gpxtpx:atemp>
</gpxtpx:TrackPointExtension>
</extensions>
</trkpt>
<trkpt lat="47.74952030740678" lon="12.207367233932018">
<ele>632</ele>
<time>2012-03-03T11:13:37Z</time>
<extensions>
<gpxtpx:TrackPointExtension>
<gpxtpx:hr>137</gpxtpx:hr>
<gpxtpx:atemp>6</gpxtpx:atemp>
</gpxtpx:TrackPointExtension>
</extensions>
</trkpt>
<trkpt lat="47.74948443286121" lon="12.207380728796124">
<ele>632</ele>
<time>2012-03-03T11:13:38Z</time>
<extensions>
<gpxtpx:TrackPointExtension>
<gpxtpx:hr>138</gpxtpx:hr>
<gpxtpx:atemp>6</gpxtpx:atemp>
</gpxtpx:TrackPointExtension>
</extensions>
</trkpt>
<trkpt lat="47.74944679811597" lon="12.20739128999412">
<ele>632</ele>
<time>2012-03-03T11:13:39Z</time>
<extensions>
<gpxtpx:TrackPointExtension>
<gpxtpx:hr>138</gpxtpx:hr>
<gpxtpx:atemp>6</gpxtpx:atemp>
</gpxtpx:TrackPointExtension>
</extensions>
</trkpt>
<trkpt lat="47.74941117502749" lon="12.207390619441867">
<ele>633</ele>
<time>2012-03-03T11:13:40Z</time>
<extensions>
<gpxtpx:TrackPointExtension>
<gpxtpx:hr>140</gpxtpx:hr>
<gpxtpx:atemp>6</gpxtpx:atemp>
</gpxtpx:TrackPointExtension>
</extensions>
</trkpt>
<trkpt lat="47.749376809224486" lon="12.207378465682268">
<ele>633</ele>
<time>2012-03-03T11:13:41Z</time>
<extensions>
<gpxtpx:TrackPointExtension>
<gpxtpx:hr>141</gpxtpx:hr>
<gpxtpx:atemp>6</gpxtpx:atemp>
</gpxtpx:TrackPointExtension>
</extensions>
</trkpt>
<trkpt lat="47.74934294633567" lon="12.20736044459045">
<ele>634</ele>
<time>2012-03-03T11:13:42Z</time>
<extensions>
<gpxtpx:TrackPointExtension>
<gpxtpx:hr>142</gpxtpx:hr>
<gpxtpx:atemp>6</gpxtpx:atemp>
</gpxtpx:TrackPointExtension>
</extensions>
</trkpt>
<trkpt lat="47.74927714839578" lon="12.207312500104308">
<ele>634</ele>
<time>2012-03-03T11:13:44Z</time>
<extensions>
<gpxtpx:TrackPointExtension>
<gpxtpx:hr>143</gpxtpx:hr>
<gpxtpx:atemp>6</gpxtpx:atemp>
</gpxtpx:TrackPointExtension>
</extensions>
</trkpt>
<trkpt lat="47.74913214147091" lon="12.207150142639875">
<ele>634</ele>
<time>2012-03-03T11:13:49Z</time>
<extensions>
<gpxtpx:TrackPointExtension>
<gpxtpx:hr>146</gpxtpx:hr>
<gpxtpx:atemp>6</gpxtpx:atemp>
</gpxtpx:TrackPointExtension>
</extensions>
</trkpt>
<trkpt lat="47.74910347536206" lon="12.207112675532699">
<ele>634</ele>
<time>2012-03-03T11:13:50Z</time>
<extensions>
<gpxtpx:TrackPointExtension>
<gpxtpx:hr>146</gpxtpx:hr>
<gpxtpx:atemp>6</gpxtpx:atemp>
</gpxtpx:TrackPointExtension>
</extensions>
</trkpt>
<trkpt lat="47.74902845732868" lon="12.207003878429532">
<ele>634</ele>
<time>2012-03-03T11:13:53Z</time>
<extensions>
<gpxtpx:TrackPointExtension>
<gpxtpx:hr>146</gpxtpx:hr>
<gpxtpx:atemp>6</gpxtpx:atemp>
</gpxtpx:TrackPointExtension>
</extensions>
</trkpt>
<trkpt lat="47.749003395438194" lon="12.206970602273941">
<ele>635</ele>
<time>2012-03-03T11:13:54Z</time>
<extensions>
<gpxtpx:TrackPointExtension>
<gpxtpx:hr>146</gpxtpx:hr>
<gpxtpx:atemp>6</gpxtpx:atemp>
</gpxtpx:TrackPointExtension>
</extensions>
</trkpt>
<trkpt lat="47.748978082090616" lon="12.206940008327365">
<ele>635</ele>
<time>2012-03-03T11:13:55Z</time>
<extensions>
<gpxtpx:TrackPointExtension>
<gpxtpx:hr>147</gpxtpx:hr>
<gpxtpx:atemp>6</gpxtpx:atemp>
</gpxtpx:TrackPointExtension>
</extensions>
</trkpt>
<trkpt lat="47.74895000271499" lon="12.206906648352742">
<ele>635</ele>
<time>2012-03-03T11:13:56Z</time>
<extensions>
<gpxtpx:TrackPointExtension>
<gpxtpx:hr>147</gpxtpx:hr>
<gpxtpx:atemp>6</gpxtpx:atemp>
</gpxtpx:TrackPointExtension>
</extensions>
</trkpt>
<trkpt lat="47.748925276100636" lon="12.206873958930373">
<ele>636</ele>
<time>2012-03-03T11:13:57Z</time>
<extensions>
<gpxtpx:TrackPointExtension>
<gpxtpx:hr>148</gpxtpx:hr>
<gpxtpx:atemp>6</gpxtpx:atemp>
</gpxtpx:TrackPointExtension>
</extensions>
</trkpt>
<trkpt lat="47.74887322448194" lon="12.206810005009174">
<ele>636</ele>
<time>2012-03-03T11:13:59Z</time>
<extensions>
<gpxtpx:TrackPointExtension>
<gpxtpx:hr>148</gpxtpx:hr>
<gpxtpx:atemp>6</gpxtpx:atemp>
</gpxtpx:TrackPointExtension>
</extensions>
</trkpt>
<trkpt lat="47.74882586672902" lon="12.206745129078627">
<ele>636</ele>
<time>2012-03-03T11:14:01Z</time>
<extensions>
<gpxtpx:TrackPointExtension>
<gpxtpx:hr>149</gpxtpx:hr>
<gpxtpx:atemp>6</gpxtpx:atemp>
</gpxtpx:TrackPointExtension>
</extensions>
</trkpt>
<trkpt lat="47.74880189448595" lon="12.206716211512685">
<ele>637</ele>
<time>2012-03-03T11:14:02Z</time>
<extensions>
<gpxtpx:TrackPointExtension>
<gpxtpx:hr>150</gpxtpx:hr>
<gpxtpx:atemp>6</gpxtpx:atemp>
</gpxtpx:TrackPointExtension>
</extensions>
</trkpt>
<trkpt lat="47.74877951480448" lon="12.206686371937394">
<ele>637</ele>
<time>2012-03-03T11:14:03Z</time>
<extensions>
<gpxtpx:TrackPointExtension>
<gpxtpx:hr>150</gpxtpx:hr>
<gpxtpx:atemp>6</gpxtpx:atemp>
</gpxtpx:TrackPointExtension>
</extensions>
</trkpt>
<trkpt lat="47.74875554256141" lon="12.206661058589816">
<ele>637</ele>
<time>2012-03-03T11:14:04Z</time>
<extensions>
<gpxtpx:TrackPointExtension>
<gpxtpx:hr>151</gpxtpx:hr>
<gpxtpx:atemp>6</gpxtpx:atemp>
</gpxtpx:TrackPointExtension>
</extensions>
</trkpt>
<trkpt lat="47.748731821775436" lon="12.206634990870953">
<ele>638</ele>
<time>2012-03-03T11:14:05Z</time>
<extensions>
<gpxtpx:TrackPointExtension>
<gpxtpx:hr>151</gpxtpx:hr>
<gpxtpx:atemp>6</gpxtpx:atemp>
</gpxtpx:TrackPointExtension>
</extensions>
</trkpt>
<trkpt lat="47.74868027307093" lon="12.206592913717031">
<ele>638</ele>
<time>2012-03-03T11:14:07Z</time>
<extensions>
<gpxtpx:TrackPointExtension>
<gpxtpx:hr>151</gpxtpx:hr>
<gpxtpx:atemp>6</gpxtpx:atemp>
</gpxtpx:TrackPointExtension>
</extensions>
</trkpt>
<trkpt lat="47.74858740158379" lon="12.206516722217202">
<ele>638</ele>
<time>2012-03-03T11:14:11Z</time>
<extensions>
<gpxtpx:TrackPointExtension>
<gpxtpx:hr>153</gpxtpx:hr>
<gpxtpx:atemp>6</gpxtpx:atemp>
</gpxtpx:TrackPointExtension>
</extensions>
</trkpt>
<trkpt lat="47.74856535717845" lon="12.206501886248589">
<ele>639</ele>
<time>2012-03-03T11:14:12Z</time>
<extensions>
<gpxtpx:TrackPointExtension>
<gpxtpx:hr>153</gpxtpx:hr>
<gpxtpx:atemp>6</gpxtpx:atemp>
</gpxtpx:TrackPointExtension>
</extensions>
</trkpt>
<trkpt lat="47.748541636392474" lon="12.206485876813531">
<ele>639</ele>
<time>2012-03-03T11:14:13Z</time>
<extensions>
<gpxtpx:TrackPointExtension>
<gpxtpx:hr>153</gpxtpx:hr>
<gpxtpx:atemp>6</gpxtpx:atemp>
</gpxtpx:TrackPointExtension>
</extensions>
</trkpt>
<trkpt lat="47.74851850233972" lon="12.206478919833899">
<ele>639</ele>
<time>2012-03-03T11:14:14Z</time>
<extensions>
<gpxtpx:TrackPointExtension>
<gpxtpx:hr>153</gpxtpx:hr>
<gpxtpx:atemp>6</gpxtpx:atemp>
</gpxtpx:TrackPointExtension>
</extensions>
</trkpt>
<trkpt lat="47.74849981069565" lon="12.206470118835568">
<ele>640</ele>
<time>2012-03-03T11:14:15Z</time>
<extensions>
<gpxtpx:TrackPointExtension>
<gpxtpx:hr>153</gpxtpx:hr>
<gpxtpx:atemp>6</gpxtpx:atemp>
</gpxtpx:TrackPointExtension>
</extensions>
</trkpt>
<trkpt lat="47.74839486926794" lon="12.206419324502349">
<ele>640</ele>
<time>2012-03-03T11:14:19Z</time>
<extensions>
<gpxtpx:TrackPointExtension>
<gpxtpx:hr>154</gpxtpx:hr>
<gpxtpx:atemp>6</gpxtpx:atemp>
</gpxtpx:TrackPointExtension>
</extensions>
</trkpt>
<trkpt lat="47.74836880154908" lon="12.206402057781816">
<ele>640</ele>
<time>2012-03-03T11:14:20Z</time>
<extensions>
<gpxtpx:TrackPointExtension>
<gpxtpx:hr>154</gpxtpx:hr>
<gpxtpx:atemp>6</gpxtpx:atemp>
</gpxtpx:TrackPointExtension>
</extensions>
</trkpt>
<trkpt lat="47.748346254229546" lon="12.206387557089329">
<ele>641</ele>
<time>2012-03-03T11:14:21Z</time>
<extensions>
<gpxtpx:TrackPointExtension>
<gpxtpx:hr>154</gpxtpx:hr>
<gpxtpx:atemp>6</gpxtpx:atemp>
</gpxtpx:TrackPointExtension>
</extensions>
</trkpt>
<trkpt lat="47.74832395836711" lon="12.206379007548094">
<ele>641</ele>
<time>2012-03-03T11:14:22Z</time>
<extensions>
<gpxtpx:TrackPointExtension>
<gpxtpx:hr>154</gpxtpx:hr>
<gpxtpx:atemp>6</gpxtpx:atemp>
</gpxtpx:TrackPointExtension>
</extensions>
</trkpt>
<trkpt lat="47.748298309743404" lon="12.206363081932068">
<ele>642</ele>
<time>2012-03-03T11:14:23Z</time>
<extensions>
<gpxtpx:TrackPointExtension>
<gpxtpx:hr>155</gpxtpx:hr>
<gpxtpx:atemp>6</gpxtpx:atemp>
</gpxtpx:TrackPointExtension>
</extensions>
</trkpt>
<trkpt lat="47.74827844463289" lon="12.20635050907731">
<ele>642</ele>
<time>2012-03-03T11:14:24Z</time>
<extensions>
<gpxtpx:TrackPointExtension>
<gpxtpx:hr>155</gpxtpx:hr>
<gpxtpx:atemp>6</gpxtpx:atemp>
</gpxtpx:TrackPointExtension>
</extensions>
</trkpt>
<trkpt lat="47.74823100306094" lon="12.206326788291335">
<ele>642</ele>
<time>2012-03-03T11:14:26Z</time>
<extensions>
<gpxtpx:TrackPointExtension>
<gpxtpx:hr>155</gpxtpx:hr>
<gpxtpx:atemp>6</gpxtpx:atemp>
</gpxtpx:TrackPointExtension>
</extensions>
</trkpt>
<trkpt lat="47.7481880877167" lon="12.206305833533406">
<ele>643</ele>
<time>2012-03-03T11:14:28Z</time>
<extensions>
<gpxtpx:TrackPointExtension>
<gpxtpx:hr>155</gpxtpx:hr>
<gpxtpx:atemp>6</gpxtpx:atemp>
</gpxtpx:TrackPointExtension>
</extensions>
</trkpt>
<trkpt lat="47.74816369637847" lon="12.206290578469634">
<ele>643</ele>
<time>2012-03-03T11:14:29Z</time>
<extensions>
<gpxtpx:TrackPointExtension>
<gpxtpx:hr>155</gpxtpx:hr>
<gpxtpx:atemp>6</gpxtpx:atemp>
</gpxtpx:TrackPointExtension>
</extensions>
</trkpt>
<trkpt lat="47.74814357981086" lon="12.20628060400486">
<ele>643</ele>
<time>2012-03-03T11:14:30Z</time>
<extensions>
<gpxtpx:TrackPointExtension>
<gpxtpx:hr>155</gpxtpx:hr>
<gpxtpx:atemp>6</gpxtpx:atemp>
</gpxtpx:TrackPointExtension>
</extensions>
</trkpt>
<trkpt lat="47.74812606163323" lon="12.2062733117491">
<ele>644</ele>
<time>2012-03-03T11:14:31Z</time>
<extensions>
<gpxtpx:TrackPointExtension>
<gpxtpx:hr>156</gpxtpx:hr>
<gpxtpx:atemp>6</gpxtpx:atemp>
</gpxtpx:TrackPointExtension>
</extensions>
</trkpt>
<trkpt lat="47.748105274513364" lon="12.206262331455946">
<ele>644</ele>
<time>2012-03-03T11:14:32Z</time>
<extensions>
<gpxtpx:TrackPointExtension>
<gpxtpx:hr>156</gpxtpx:hr>
<gpxtpx:atemp>6</gpxtpx:atemp>
</gpxtpx:TrackPointExtension>
</extensions>
</trkpt>
<trkpt lat="47.74805909022689" lon="12.20623467117548">
<ele>644</ele>
<time>2012-03-03T11:14:34Z</time>
<extensions>
<gpxtpx:TrackPointExtension>
<gpxtpx:hr>156</gpxtpx:hr>
<gpxtpx:atemp>6</gpxtpx:atemp>
</gpxtpx:TrackPointExtension>
</extensions>
</trkpt>
<trkpt lat="47.74796294979751" lon="12.2061697114259">
<ele>645</ele>
<time>2012-03-03T11:14:38Z</time>
<extensions>
<gpxtpx:TrackPointExtension>
<gpxtpx:hr>157</gpxtpx:hr>
<gpxtpx:atemp>6</gpxtpx:atemp>
</gpxtpx:TrackPointExtension>
</extensions>
</trkpt>
<trkpt lat="47.747939145192504" lon="12.206153701990843">
<ele>645</ele>
<time>2012-03-03T11:14:39Z</time>
<extensions>
<gpxtpx:TrackPointExtension>
<gpxtpx:hr>157</gpxtpx:hr>
<gpxtpx:atemp>6</gpxtpx:atemp>
</gpxtpx:TrackPointExtension>
</extensions>
</trkpt>
<trkpt lat="47.74791995063424" lon="12.206139285117388">
<ele>646</ele>
<time>2012-03-03T11:14:40Z</time>
<extensions>
<gpxtpx:TrackPointExtension>
<gpxtpx:hr>158</gpxtpx:hr>
<gpxtpx:atemp>6</gpxtpx:atemp>
</gpxtpx:TrackPointExtension>
</extensions>
</trkpt>
<trkpt lat="47.74790125899017" lon="12.206124113872647">
<ele>646</ele>
<time>2012-03-03T11:14:41Z</time>
<extensions>
<gpxtpx:TrackPointExtension>
<gpxtpx:hr>158</gpxtpx:hr>
<gpxtpx:atemp>6</gpxtpx:atemp>
</gpxtpx:TrackPointExtension>
</extensions>
</trkpt>
<trkpt lat="47.74788483045995" lon="12.20611011609435">
<ele>646</ele>
<time>2012-03-03T11:14:42Z</time>
<extensions>
<gpxtpx:TrackPointExtension>
<gpxtpx:hr>158</gpxtpx:hr>
<gpxtpx:atemp>6</gpxtpx:atemp>
</gpxtpx:TrackPointExtension>
</extensions>
</trkpt>
<trkpt lat="47.74780612438917" lon="12.206049095839262">
<ele>647</ele>
<time>2012-03-03T11:14:46Z</time>
<extensions>
<gpxtpx:TrackPointExtension>
<gpxtpx:hr>160</gpxtpx:hr>
<gpxtpx:atemp>6</gpxtpx:atemp>
</gpxtpx:TrackPointExtension>
</extensions>
</trkpt>
<trkpt lat="47.74779028259218" lon="12.206023782491684">
<ele>647</ele>
<time>2012-03-03T11:14:47Z</time>
<extensions>
<gpxtpx:TrackPointExtension>
<gpxtpx:hr>161</gpxtpx:hr>
<gpxtpx:atemp>6</gpxtpx:atemp>
</gpxtpx:TrackPointExtension>
</extensions>
</trkpt>
<trkpt lat="47.747775446623564" lon="12.206004420295358">
<ele>648</ele>
<time>2012-03-03T11:14:48Z</time>
<extensions>
<gpxtpx:TrackPointExtension>
<gpxtpx:hr>161</gpxtpx:hr>
<gpxtpx:atemp>6</gpxtpx:atemp>
</gpxtpx:TrackPointExtension>
</extensions>
</trkpt>
<trkpt lat="47.7477578446269" lon="12.20598405227065">
<ele>648</ele>
<time>2012-03-03T11:14:49Z</time>
<extensions>
<gpxtpx:TrackPointExtension>
<gpxtpx:hr>161</gpxtpx:hr>
<gpxtpx:atemp>6</gpxtpx:atemp>
</gpxtpx:TrackPointExtension>
</extensions>
</trkpt>
<trkpt lat="47.74767075665295" lon="12.205852204933763">
<ele>649</ele>
<time>2012-03-03T11:14:54Z</time>
<extensions>
<gpxtpx:TrackPointExtension>
<gpxtpx:hr>162</gpxtpx:hr>
<gpxtpx:atemp>6</gpxtpx:atemp>
</gpxtpx:TrackPointExtension>
</extensions>
</trkpt>
<trkpt lat="47.7476579323411" lon="12.205828567966819">
<ele>649</ele>
<time>2012-03-03T11:14:55Z</time>
<extensions>
<gpxtpx:TrackPointExtension>
<gpxtpx:hr>163</gpxtpx:hr>
<gpxtpx:atemp>6</gpxtpx:atemp>
</gpxtpx:TrackPointExtension>
</extensions>
</trkpt>
<trkpt lat="47.74764443747699" lon="12.205808199942112">
<ele>650</ele>
<time>2012-03-03T11:14:56Z</time>
<extensions>
<gpxtpx:TrackPointExtension>
<gpxtpx:hr>163</gpxtpx:hr>
<gpxtpx:atemp>6</gpxtpx:atemp>
</gpxtpx:TrackPointExtension>
</extensions>
</trkpt>
<trkpt lat="47.74763714522123" lon="12.205787245184183">
<ele>650</ele>
<time>2012-03-03T11:14:57Z</time>
<extensions>
<gpxtpx:TrackPointExtension>
<gpxtpx:hr>163</gpxtpx:hr>
<gpxtpx:atemp>6</gpxtpx:atemp>
</gpxtpx:TrackPointExtension>
</extensions>
</trkpt>
<trkpt lat="47.74763396009803" lon="12.205766374245286">
<ele>651</ele>
<time>2012-03-03T11:14:58Z</time>
<extensions>
<gpxtpx:TrackPointExtension>
<gpxtpx:hr>163</gpxtpx:hr>
<gpxtpx:atemp>6</gpxtpx:atemp>
</gpxtpx:TrackPointExtension>
</extensions>
</trkpt>
<trkpt lat="47.747620129957795" lon="12.20572111196816">
<ele>651</ele>
<time>2012-03-03T11:15:00Z</time>
<extensions>
<gpxtpx:TrackPointExtension>
<gpxtpx:hr>163</gpxtpx:hr>
<gpxtpx:atemp>6</gpxtpx:atemp>
</gpxtpx:TrackPointExtension>
</extensions>
</trkpt>
<trkpt lat="47.74760998785496" lon="12.205686494708061">
<ele>651</ele>
<time>2012-03-03T11:15:02Z</time>
<extensions>
<gpxtpx:TrackPointExtension>
<gpxtpx:hr>163</gpxtpx:hr>
<gpxtpx:atemp>6</gpxtpx:atemp>
</gpxtpx:TrackPointExtension>
</extensions>
</trkpt>
<trkpt lat="47.74760076776147" lon="12.20567719079554">
<ele>651</ele>
<time>2012-03-03T11:15:03Z</time>
<extensions>
<gpxtpx:TrackPointExtension>
<gpxtpx:hr>163</gpxtpx:hr>
<gpxtpx:atemp>6</gpxtpx:atemp>
</gpxtpx:TrackPointExtension>
</extensions>
</trkpt>
<trkpt lat="47.74759339168668" lon="12.205656403675675">
<ele>652</ele>
<time>2012-03-03T11:15:04Z</time>
<extensions>
<gpxtpx:TrackPointExtension>
<gpxtpx:hr>163</gpxtpx:hr>
<gpxtpx:atemp>6</gpxtpx:atemp>
</gpxtpx:TrackPointExtension>
</extensions>
</trkpt>
<trkpt lat="47.74758459068835" lon="12.20562974922359">
<ele>652</ele>
<time>2012-03-03T11:15:05Z</time>
<extensions>
<gpxtpx:TrackPointExtension>
<gpxtpx:hr>163</gpxtpx:hr>
<gpxtpx:atemp>6</gpxtpx:atemp>
</gpxtpx:TrackPointExtension>
</extensions>
</trkpt>
<trkpt lat="47.747584423050284" lon="12.205596724525094">
<ele>653</ele>
<time>2012-03-03T11:15:06Z</time>
<extensions>
<gpxtpx:TrackPointExtension>
<gpxtpx:hr>163</gpxtpx:hr>
<gpxtpx:atemp>6</gpxtpx:atemp>
</gpxtpx:TrackPointExtension>
</extensions>
</trkpt>
<trkpt lat="47.74758324958384" lon="12.205487843602896">
<ele>653</ele>
<time>2012-03-03T11:15:10Z</time>
<extensions>
<gpxtpx:TrackPointExtension>
<gpxtpx:hr>164</gpxtpx:hr>
<gpxtpx:atemp>6</gpxtpx:atemp>
</gpxtpx:TrackPointExtension>
</extensions>
</trkpt>
<trkpt lat="47.74757042527199" lon="12.205457165837288">
<ele>654</ele>
<time>2012-03-03T11:15:11Z</time>
<extensions>
<gpxtpx:TrackPointExtension>
<gpxtpx:hr>164</gpxtpx:hr>
<gpxtpx:atemp>6</gpxtpx:atemp>
</gpxtpx:TrackPointExtension>
</extensions>
</trkpt>
<trkpt lat="47.747567407786846" lon="12.205435037612915">
<ele>654</ele>
<time>2012-03-03T11:15:12Z</time>
<extensions>
<gpxtpx:TrackPointExtension>
<gpxtpx:hr>165</gpxtpx:hr>
<gpxtpx:atemp>6</gpxtpx:atemp>
</gpxtpx:TrackPointExtension>
</extensions>
</trkpt>
<trkpt lat="47.74755978025496" lon="12.205397989600897">
<ele>655</ele>
<time>2012-03-03T11:15:13Z</time>
<extensions>
<gpxtpx:TrackPointExtension>
<gpxtpx:hr>164</gpxtpx:hr>
<gpxtpx:atemp>6</gpxtpx:atemp>
</gpxtpx:TrackPointExtension>
</extensions>
</trkpt>
<trkpt lat="47.747548297047615" lon="12.205362701788545">
<ele>655</ele>
<time>2012-03-03T11:15:14Z</time>
<extensions>
<gpxtpx:TrackPointExtension>
<gpxtpx:hr>165</gpxtpx:hr>
<gpxtpx:atemp>6</gpxtpx:atemp>
</gpxtpx:TrackPointExtension>
</extensions>
</trkpt>
<trkpt lat="47.74752507917583" lon="12.205298328772187">
<ele>655</ele>
<time>2012-03-03T11:15:16Z</time>
<extensions>
<gpxtpx:TrackPointExtension>
<gpxtpx:hr>165</gpxtpx:hr>
<gpxtpx:atemp>6</gpxtpx:atemp>
</gpxtpx:TrackPointExtension>
</extensions>
</trkpt>
<trkpt lat="47.74751435033977" lon="12.205268740653992">
<ele>655</ele>
<time>2012-03-03T11:15:17Z</time>
<extensions>
<gpxtpx:TrackPointExtension>
<gpxtpx:hr>165</gpxtpx:hr>
<gpxtpx:atemp>6</gpxtpx:atemp>
</gpxtpx:TrackPointExtension>
</extensions>
</trkpt>
<trkpt lat="47.74750311858952" lon="12.205234542489052">
<ele>656</ele>
<time>2012-03-03T11:15:18Z</time>
<extensions>
<gpxtpx:TrackPointExtension>
<gpxtpx:hr>166</gpxtpx:hr>
<gpxtpx:atemp>6</gpxtpx:atemp>
</gpxtpx:TrackPointExtension>
</extensions>
</trkpt>
<trkpt lat="47.74749188683927" lon="12.205210402607918">
<ele>656</ele>
<time>2012-03-03T11:15:19Z</time>
<extensions>
<gpxtpx:TrackPointExtension>
<gpxtpx:hr>166</gpxtpx:hr>
<gpxtpx:atemp>6</gpxtpx:atemp>
</gpxtpx:TrackPointExtension>
</extensions>
</trkpt>
<trkpt lat="47.74747671559453" lon="12.20518165268004">
<ele>657</ele>
<time>2012-03-03T11:15:20Z</time>
<extensions>
<gpxtpx:TrackPointExtension>
<gpxtpx:hr>167</gpxtpx:hr>
<gpxtpx:atemp>6</gpxtpx:atemp>
</gpxtpx:TrackPointExtension>
</extensions>
</trkpt>
<trkpt lat="47.747471518814564" lon="12.205151142552495">
<ele>657</ele>
<time>2012-03-03T11:15:21Z</time>
<extensions>
<gpxtpx:TrackPointExtension>
<gpxtpx:hr>167</gpxtpx:hr>
<gpxtpx:atemp>6</gpxtpx:atemp>
</gpxtpx:TrackPointExtension>
</extensions>
</trkpt>
<trkpt lat="47.74745861068368" lon="12.205079812556505">
<ele>658</ele>
<time>2012-03-03T11:15:24Z</time>
<extensions>
<gpxtpx:TrackPointExtension>
<gpxtpx:hr>167</gpxtpx:hr>
<gpxtpx:atemp>6</gpxtpx:atemp>
</gpxtpx:TrackPointExtension>
</extensions>
</trkpt>
<trkpt lat="47.747454000636935" lon="12.20504930242896">
<ele>658</ele>
<time>2012-03-03T11:15:25Z</time>
<extensions>
<gpxtpx:TrackPointExtension>
<gpxtpx:hr>168</gpxtpx:hr>
<gpxtpx:atemp>6</gpxtpx:atemp>
</gpxtpx:TrackPointExtension>
</extensions>
</trkpt>
<trkpt lat="47.74744452908635" lon="12.205016277730465">
<ele>659</ele>
<time>2012-03-03T11:15:26Z</time>
<extensions>
<gpxtpx:TrackPointExtension>
<gpxtpx:hr>168</gpxtpx:hr>
<gpxtpx:atemp>6</gpxtpx:atemp>
</gpxtpx:TrackPointExtension>
</extensions>
</trkpt>
<trkpt lat="47.747433045879006" lon="12.204977804794908">
<ele>659</ele>
<time>2012-03-03T11:15:27Z</time>
<extensions>
<gpxtpx:TrackPointExtension>
<gpxtpx:hr>168</gpxtpx:hr>
<gpxtpx:atemp>6</gpxtpx:atemp>
</gpxtpx:TrackPointExtension>
</extensions>
</trkpt>
<trkpt lat="47.7474195510149" lon="12.204947210848331">
<ele>659</ele>
<time>2012-03-03T11:15:28Z</time>
<extensions>
<gpxtpx:TrackPointExtension>
<gpxtpx:hr>168</gpxtpx:hr>
<gpxtpx:atemp>6</gpxtpx:atemp>
</gpxtpx:TrackPointExtension>
</extensions>
</trkpt>
<trkpt lat="47.74738376028836" lon="12.20485576428473">
<ele>660</ele>
<time>2012-03-03T11:15:31Z</time>
<extensions>
<gpxtpx:TrackPointExtension>
<gpxtpx:hr>169</gpxtpx:hr>
<gpxtpx:atemp>6</gpxtpx:atemp>
</gpxtpx:TrackPointExtension>
</extensions>
</trkpt>
<trkpt lat="47.74737227708101" lon="12.20482743345201">
<ele>660</ele>
<time>2012-03-03T11:15:32Z</time>
<extensions>
<gpxtpx:TrackPointExtension>
<gpxtpx:hr>169</gpxtpx:hr>
<gpxtpx:atemp>6</gpxtpx:atemp>
</gpxtpx:TrackPointExtension>
</extensions>
</trkpt>
<trkpt lat="47.74736339226365" lon="12.2047917265445">
<ele>661</ele>
<time>2012-03-03T11:15:33Z</time>
<extensions>
<gpxtpx:TrackPointExtension>
<gpxtpx:hr>169</gpxtpx:hr>
<gpxtpx:atemp>6</gpxtpx:atemp>
</gpxtpx:TrackPointExtension>
</extensions>
</trkpt>
<trkpt lat="47.7473521605134" lon="12.20475459471345">
<ele>661</ele>
<time>2012-03-03T11:15:34Z</time>
<extensions>
<gpxtpx:TrackPointExtension>
<gpxtpx:hr>169</gpxtpx:hr>
<gpxtpx:atemp>6</gpxtpx:atemp>
</gpxtpx:TrackPointExtension>
</extensions>
</trkpt>
<trkpt lat="47.74733740836382" lon="12.20470966771245">
<ele>661</ele>
<time>2012-03-03T11:15:35Z</time>
<extensions>
<gpxtpx:TrackPointExtension>
<gpxtpx:hr>169</gpxtpx:hr>
<gpxtpx:atemp>6</gpxtpx:atemp>
</gpxtpx:TrackPointExtension>
</extensions>
</trkpt>
<trkpt lat="47.74727596901357" lon="12.204477321356535">
<ele>661</ele>
<time>2012-03-03T11:15:40Z</time>
<extensions>
<gpxtpx:TrackPointExtension>
<gpxtpx:hr>169</gpxtpx:hr>
<gpxtpx:atemp>6</gpxtpx:atemp>
</gpxtpx:TrackPointExtension>
</extensions>
</trkpt>
<trkpt lat="47.74725300259888" lon="12.20436567440629">
<ele>662</ele>
<time>2012-03-03T11:15:42Z</time>
<extensions>
<gpxtpx:TrackPointExtension>
<gpxtpx:hr>169</gpxtpx:hr>
<gpxtpx:atemp>6</gpxtpx:atemp>
</gpxtpx:TrackPointExtension>
</extensions>
</trkpt>
<trkpt lat="47.74723498150706" lon="12.204316388815641">
<ele>662</ele>
<time>2012-03-03T11:15:43Z</time>
<extensions>
<gpxtpx:TrackPointExtension>
<gpxtpx:hr>169</gpxtpx:hr>
<gpxtpx:atemp>6</gpxtpx:atemp>
</gpxtpx:TrackPointExtension>
</extensions>
</trkpt>
<trkpt lat="47.747216541320086" lon="12.204277999699116">
<ele>663</ele>
<time>2012-03-03T11:15:44Z</time>
<extensions>
<gpxtpx:TrackPointExtension>
<gpxtpx:hr>168</gpxtpx:hr>
<gpxtpx:atemp>6</gpxtpx:atemp>
</gpxtpx:TrackPointExtension>
</extensions>
</trkpt>
<trkpt lat="47.74720128625631" lon="12.204239945858717">
<ele>663</ele>
<time>2012-03-03T11:15:45Z</time>
<extensions>
<gpxtpx:TrackPointExtension>
<gpxtpx:hr>169</gpxtpx:hr>
<gpxtpx:atemp>6</gpxtpx:atemp>
</gpxtpx:TrackPointExtension>
</extensions>
</trkpt>
<trkpt lat="47.747189216315746" lon="12.204206082969904">
<ele>664</ele>
<time>2012-03-03T11:15:46Z</time>
<extensions>
<gpxtpx:TrackPointExtension>
<gpxtpx:hr>168</gpxtpx:hr>
<gpxtpx:atemp>6</gpxtpx:atemp>
</gpxtpx:TrackPointExtension>
</extensions>
</trkpt>
<trkpt lat="47.74702903814614" lon="12.204019669443369">
<ele>664</ele>
<time>2012-03-03T11:15:53Z</time>
<extensions>
<gpxtpx:TrackPointExtension>
<gpxtpx:hr>168</gpxtpx:hr>
<gpxtpx:atemp>6</gpxtpx:atemp>
</gpxtpx:TrackPointExtension>
</extensions>
</trkpt>
<trkpt lat="47.74680230766535" lon="12.203801572322845">
<ele>664</ele>
<time>2012-03-03T11:16:01Z</time>
<extensions>
<gpxtpx:TrackPointExtension>
<gpxtpx:hr>168</gpxtpx:hr>
<gpxtpx:atemp>6</gpxtpx:atemp>
</gpxtpx:TrackPointExtension>
</extensions>
</trkpt>
<trkpt lat="47.74676827713847" lon="12.203769972547889">
<ele>664</ele>
<time>2012-03-03T11:16:02Z</time>
<extensions>
<gpxtpx:TrackPointExtension>
<gpxtpx:hr>168</gpxtpx:hr>
<gpxtpx:atemp>6</gpxtpx:atemp>
</gpxtpx:TrackPointExtension>
</extensions>
</trkpt>
<trkpt lat="47.7467321511358" lon="12.203740552067757">
<ele>665</ele>
<time>2012-03-03T11:16:03Z</time>
<extensions>
<gpxtpx:TrackPointExtension>
<gpxtpx:hr>168</gpxtpx:hr>
<gpxtpx:atemp>6</gpxtpx:atemp>
</gpxtpx:TrackPointExtension>
</extensions>
</trkpt>
<trkpt lat="47.746696108952165" lon="12.203709036111832">
<ele>666</ele>
<time>2012-03-03T11:16:04Z</time>
<extensions>
<gpxtpx:TrackPointExtension>
<gpxtpx:hr>167</gpxtpx:hr>
<gpxtpx:atemp>6</gpxtpx:atemp>
</gpxtpx:TrackPointExtension>
</extensions>
</trkpt>
<trkpt lat="47.74654196575284" lon="12.203553803265095">
<ele>666</ele>
<time>2012-03-03T11:16:09Z</time>
<extensions>
<gpxtpx:TrackPointExtension>
<gpxtpx:hr>167</gpxtpx:hr>
<gpxtpx:atemp>6</gpxtpx:atemp>
</gpxtpx:TrackPointExtension>
</extensions>
</trkpt>
<trkpt lat="47.74641347117722" lon="12.203401252627373">
<ele>666</ele>
<time>2012-03-03T11:16:15Z</time>
<extensions>
<gpxtpx:TrackPointExtension>
<gpxtpx:hr>167</gpxtpx:hr>
<gpxtpx:atemp>6</gpxtpx:atemp>
</gpxtpx:TrackPointExtension>
</extensions>
</trkpt>
<trkpt lat="47.74631263688207" lon="12.20331466756761">
<ele>666</ele>
<time>2012-03-03T11:16:19Z</time>
<extensions>
<gpxtpx:TrackPointExtension>
<gpxtpx:hr>164</gpxtpx:hr>
<gpxtpx:atemp>6</gpxtpx:atemp>
</gpxtpx:TrackPointExtension>
</extensions>
</trkpt>
<trkpt lat="47.74628640152514" lon="12.20328826457262">
<ele>666</ele>
<time>2012-03-03T11:16:20Z</time>
<extensions>
<gpxtpx:TrackPointExtension>
<gpxtpx:hr>163</gpxtpx:hr>
<gpxtpx:atemp>6</gpxtpx:atemp>
</gpxtpx:TrackPointExtension>
</extensions>
</trkpt>
<trkpt lat="47.74625714868307" lon="12.203264711424708">
<ele>666</ele>
<time>2012-03-03T11:16:21Z</time>
<extensions>
<gpxtpx:TrackPointExtension>
<gpxtpx:hr>162</gpxtpx:hr>
<gpxtpx:atemp>6</gpxtpx:atemp>
</gpxtpx:TrackPointExtension>
</extensions>
</trkpt>
<trkpt lat="47.74623015895486" lon="12.203246019780636">
<ele>667</ele>
<time>2012-03-03T11:16:22Z</time>
<extensions>
<gpxtpx:TrackPointExtension>
<gpxtpx:hr>162</gpxtpx:hr>
<gpxtpx:atemp>6</gpxtpx:atemp>
</gpxtpx:TrackPointExtension>
</extensions>
</trkpt>
<trkpt lat="47.746204510331154" lon="12.203226489946246">
<ele>667</ele>
<time>2012-03-03T11:16:23Z</time>
<extensions>
<gpxtpx:TrackPointExtension>
<gpxtpx:hr>161</gpxtpx:hr>
<gpxtpx:atemp>6</gpxtpx:atemp>
</gpxtpx:TrackPointExtension>
</extensions>
</trkpt>
<trkpt lat="47.74617852643132" lon="12.203213581815362">
<ele>668</ele>
<time>2012-03-03T11:16:24Z</time>
<extensions>
<gpxtpx:TrackPointExtension>
<gpxtpx:hr>161</gpxtpx:hr>
<gpxtpx:atemp>6</gpxtpx:atemp>
</gpxtpx:TrackPointExtension>
</extensions>
</trkpt>
<trkpt lat="47.746100993826985" lon="12.203205954283476">
<ele>668</ele>
<time>2012-03-03T11:16:27Z</time>
<extensions>
<gpxtpx:TrackPointExtension>
<gpxtpx:hr>161</gpxtpx:hr>
<gpxtpx:atemp>6</gpxtpx:atemp>
</gpxtpx:TrackPointExtension>
</extensions>
</trkpt>
<trkpt lat="47.74607492610812" lon="12.20320763066411">
<ele>668</ele>
<time>2012-03-03T11:16:28Z</time>
<extensions>
<gpxtpx:TrackPointExtension>
<gpxtpx:hr>161</gpxtpx:hr>
<gpxtpx:atemp>6</gpxtpx:atemp>
</gpxtpx:TrackPointExtension>
</extensions>
</trkpt>
<trkpt lat="47.74605036713183" lon="12.203211151063442">
<ele>669</ele>
<time>2012-03-03T11:16:29Z</time>
<extensions>
<gpxtpx:TrackPointExtension>
<gpxtpx:hr>161</gpxtpx:hr>
<gpxtpx:atemp>6</gpxtpx:atemp>
</gpxtpx:TrackPointExtension>
</extensions>
</trkpt>
<trkpt lat="47.746024718508124" lon="12.203220622614026">
<ele>669</ele>
<time>2012-03-03T11:16:30Z</time>
<extensions>
<gpxtpx:TrackPointExtension>
<gpxtpx:hr>161</gpxtpx:hr>
<gpxtpx:atemp>6</gpxtpx:atemp>
</gpxtpx:TrackPointExtension>
</extensions>
</trkpt>
<trkpt lat="47.74600057862699" lon="12.20322766341269">
<ele>669</ele>
<time>2012-03-03T11:16:31Z</time>
<extensions>
<gpxtpx:TrackPointExtension>
<gpxtpx:hr>161</gpxtpx:hr>
<gpxtpx:atemp>6</gpxtpx:atemp>
</gpxtpx:TrackPointExtension>
</extensions>
</trkpt>
<trkpt lat="47.74597719311714" lon="12.203228585422039">
<ele>670</ele>
<time>2012-03-03T11:16:32Z</time>
<extensions>
<gpxtpx:TrackPointExtension>
<gpxtpx:hr>161</gpxtpx:hr>
<gpxtpx:atemp>6</gpxtpx:atemp>
</gpxtpx:TrackPointExtension>
</extensions>
</trkpt>
<trkpt lat="47.74593126028776" lon="12.203252138569951">
<ele>670</ele>
<time>2012-03-03T11:16:34Z</time>
<extensions>
<gpxtpx:TrackPointExtension>
<gpxtpx:hr>161</gpxtpx:hr>
<gpxtpx:atemp>6</gpxtpx:atemp>
</gpxtpx:TrackPointExtension>
</extensions>
</trkpt>
<trkpt lat="47.74589060805738" lon="12.20328725874424">
<ele>670</ele>
<time>2012-03-03T11:16:36Z</time>
<extensions>
<gpxtpx:TrackPointExtension>
<gpxtpx:hr>161</gpxtpx:hr>
<gpxtpx:atemp>6</gpxtpx:atemp>
</gpxtpx:TrackPointExtension>
</extensions>
</trkpt>
<trkpt lat="47.74586680345237" lon="12.20330242998898">
<ele>671</ele>
<time>2012-03-03T11:16:37Z</time>
<extensions>
<gpxtpx:TrackPointExtension>
<gpxtpx:hr>160</gpxtpx:hr>
<gpxtpx:atemp>7</gpxtpx:atemp>
</gpxtpx:TrackPointExtension>
</extensions>
</trkpt>
<trkpt lat="47.74584551341832" lon="12.20332145690918">
<ele>671</ele>
<time>2012-03-03T11:16:38Z</time>
<extensions>
<gpxtpx:TrackPointExtension>
<gpxtpx:hr>161</gpxtpx:hr>
<gpxtpx:atemp>7</gpxtpx:atemp>
</gpxtpx:TrackPointExtension>
</extensions>
</trkpt>
<trkpt lat="47.745824474841356" lon="12.203340483829379">
<ele>671</ele>
<time>2012-03-03T11:16:39Z</time>
<extensions>
<gpxtpx:TrackPointExtension>
<gpxtpx:hr>160</gpxtpx:hr>
<gpxtpx:atemp>7</gpxtpx:atemp>
</gpxtpx:TrackPointExtension>
</extensions>
</trkpt>
<trkpt lat="47.745803939178586" lon="12.20336152240634">
<ele>672</ele>
<time>2012-03-03T11:16:40Z</time>
<extensions>
<gpxtpx:TrackPointExtension>
<gpxtpx:hr>161</gpxtpx:hr>
<gpxtpx:atemp>7</gpxtpx:atemp>
</gpxtpx:TrackPointExtension>
</extensions>
</trkpt>
<trkpt lat="47.74576940573752" lon="12.203411059454083">
<ele>672</ele>
<time>2012-03-03T11:16:42Z</time>
<extensions>
<gpxtpx:TrackPointExtension>
<gpxtpx:hr>161</gpxtpx:hr>
<gpxtpx:atemp>7</gpxtpx:atemp>
</gpxtpx:TrackPointExtension>
</extensions>
</trkpt>
<trkpt lat="47.74571953341365" lon="12.203479455783963">
<ele>672</ele>
<time>2012-03-03T11:16:45Z</time>
<extensions>
<gpxtpx:TrackPointExtension>
<gpxtpx:hr>161</gpxtpx:hr>
<gpxtpx:atemp>7</gpxtpx:atemp>
</gpxtpx:TrackPointExtension>
</extensions>
</trkpt>
<trkpt lat="47.745704697445035" lon="12.203504014760256">
<ele>673</ele>
<time>2012-03-03T11:16:46Z</time>
<extensions>
<gpxtpx:TrackPointExtension>
<gpxtpx:hr>161</gpxtpx:hr>
<gpxtpx:atemp>7</gpxtpx:atemp>
</gpxtpx:TrackPointExtension>
</extensions>
</trkpt>
<trkpt lat="47.74569011293352" lon="12.20352672971785">
<ele>673</ele>
<time>2012-03-03T11:16:47Z</time>
<extensions>
<gpxtpx:TrackPointExtension>
<gpxtpx:hr>161</gpxtpx:hr>
<gpxtpx:atemp>7</gpxtpx:atemp>
</gpxtpx:TrackPointExtension>
</extensions>
</trkpt>
<trkpt lat="47.74567569606006" lon="12.203551037237048">
<ele>674</ele>
<time>2012-03-03T11:16:48Z</time>
<extensions>
<gpxtpx:TrackPointExtension>
<gpxtpx:hr>161</gpxtpx:hr>
<gpxtpx:atemp>7</gpxtpx:atemp>
</gpxtpx:TrackPointExtension>
</extensions>
</trkpt>
<trkpt lat="47.74566035717726" lon="12.20357459038496">
<ele>674</ele>
<time>2012-03-03T11:16:49Z</time>
<extensions>
<gpxtpx:TrackPointExtension>
<gpxtpx:hr>162</gpxtpx:hr>
<gpxtpx:atemp>7</gpxtpx:atemp>
</gpxtpx:TrackPointExtension>
</extensions>
</trkpt>
<trkpt lat="47.745620124042034" lon="12.203658577054739">
<ele>674</ele>
<time>2012-03-03T11:16:52Z</time>
<extensions>
<gpxtpx:TrackPointExtension>
<gpxtpx:hr>162</gpxtpx:hr>
<gpxtpx:atemp>7</gpxtpx:atemp>
</gpxtpx:TrackPointExtension>
</extensions>
</trkpt>
<trkpt lat="47.745606964454055" lon="12.203680537641048">
<ele>675</ele>
<time>2012-03-03T11:16:53Z</time>
<extensions>
<gpxtpx:TrackPointExtension>
<gpxtpx:hr>162</gpxtpx:hr>
<gpxtpx:atemp>7</gpxtpx:atemp>
</gpxtpx:TrackPointExtension>
</extensions>
</trkpt>
<trkpt lat="47.745597241446376" lon="12.203706270083785">
<ele>675</ele>
<time>2012-03-03T11:16:54Z</time>
<extensions>
<gpxtpx:TrackPointExtension>
<gpxtpx:hr>161</gpxtpx:hr>
<gpxtpx:atemp>7</gpxtpx:atemp>
</gpxtpx:TrackPointExtension>
</extensions>
</trkpt>
<trkpt lat="47.745586931705475" lon="12.203731499612331">
<ele>676</ele>
<time>2012-03-03T11:16:55Z</time>
<extensions>
<gpxtpx:TrackPointExtension>
<gpxtpx:hr>162</gpxtpx:hr>
<gpxtpx:atemp>7</gpxtpx:atemp>
</gpxtpx:TrackPointExtension>
</extensions>
</trkpt>
<trkpt lat="47.745577124878764" lon="12.203754633665085">
<ele>676</ele>
<time>2012-03-03T11:16:56Z</time>
<extensions>
<gpxtpx:TrackPointExtension>
<gpxtpx:hr>162</gpxtpx:hr>
<gpxtpx:atemp>7</gpxtpx:atemp>
</gpxtpx:TrackPointExtension>
</extensions>
</trkpt>
<trkpt lat="47.74555038660765" lon="12.203837363049388">
<ele>676</ele>
<time>2012-03-03T11:16:59Z</time>
<extensions>
<gpxtpx:TrackPointExtension>
<gpxtpx:hr>163</gpxtpx:hr>
<gpxtpx:atemp>7</gpxtpx:atemp>
</gpxtpx:TrackPointExtension>
</extensions>
</trkpt>
<trkpt lat="47.745539573952556" lon="12.203866699710488">
<ele>677</ele>
<time>2012-03-03T11:17:00Z</time>
<extensions>
<gpxtpx:TrackPointExtension>
<gpxtpx:hr>163</gpxtpx:hr>
<gpxtpx:atemp>7</gpxtpx:atemp>
</gpxtpx:TrackPointExtension>
</extensions>
</trkpt>
<trkpt lat="47.745531694963574" lon="12.20389612019062">
<ele>677</ele>
<time>2012-03-03T11:17:01Z</time>
<extensions>
<gpxtpx:TrackPointExtension>
<gpxtpx:hr>163</gpxtpx:hr>
<gpxtpx:atemp>7</gpxtpx:atemp>
</gpxtpx:TrackPointExtension>
</extensions>
</trkpt>
<trkpt lat="47.74553395807743" lon="12.203927803784609">
<ele>677</ele>
<time>2012-03-03T11:17:02Z</time>
<extensions>
<gpxtpx:TrackPointExtension>
<gpxtpx:hr>164</gpxtpx:hr>
<gpxtpx:atemp>7</gpxtpx:atemp>
</gpxtpx:TrackPointExtension>
</extensions>
</trkpt>
<trkpt lat="47.74553295224905" lon="12.203955547884107">
<ele>678</ele>
<time>2012-03-03T11:17:03Z</time>
<extensions>
<gpxtpx:TrackPointExtension>
<gpxtpx:hr>164</gpxtpx:hr>
<gpxtpx:atemp>7</gpxtpx:atemp>
</gpxtpx:TrackPointExtension>
</extensions>
</trkpt>
<trkpt lat="47.74553186260164" lon="12.203979603946209">
<ele>678</ele>
<time>2012-03-03T11:17:04Z</time>
<extensions>
<gpxtpx:TrackPointExtension>
<gpxtpx:hr>164</gpxtpx:hr>
<gpxtpx:atemp>7</gpxtpx:atemp>
</gpxtpx:TrackPointExtension>
</extensions>
</trkpt>
<trkpt lat="47.74553094059229" lon="12.204002318903804">
<ele>678</ele>
<time>2012-03-03T11:17:05Z</time>
<extensions>
<gpxtpx:TrackPointExtension>
<gpxtpx:hr>164</gpxtpx:hr>
<gpxtpx:atemp>7</gpxtpx:atemp>
</gpxtpx:TrackPointExtension>
</extensions>
</trkpt>
<trkpt lat="47.745528761297464" lon="12.20409938134253">
<ele>679</ele>
<time>2012-03-03T11:17:09Z</time>
<extensions>
<gpxtpx:TrackPointExtension>
<gpxtpx:hr>165</gpxtpx:hr>
<gpxtpx:atemp>7</gpxtpx:atemp>
</gpxtpx:TrackPointExtension>
</extensions>
</trkpt>
<trkpt lat="47.74553194642067" lon="12.204125113785267">
<ele>679</ele>
<time>2012-03-03T11:17:10Z</time>
<extensions>
<gpxtpx:TrackPointExtension>
<gpxtpx:hr>165</gpxtpx:hr>
<gpxtpx:atemp>7</gpxtpx:atemp>
</gpxtpx:TrackPointExtension>
</extensions>
</trkpt>
<trkpt lat="47.745534628629684" lon="12.204152774065733">
<ele>680</ele>
<time>2012-03-03T11:17:11Z</time>
<extensions>
<gpxtpx:TrackPointExtension>
<gpxtpx:hr>165</gpxtpx:hr>
<gpxtpx:atemp>7</gpxtpx:atemp>
</gpxtpx:TrackPointExtension>
</extensions>
</trkpt>
<trkpt lat="47.745532197877765" lon="12.204177752137184">
<ele>680</ele>
<time>2012-03-03T11:17:12Z</time>
<extensions>
<gpxtpx:TrackPointExtension>
<gpxtpx:hr>165</gpxtpx:hr>
<gpxtpx:atemp>7</gpxtpx:atemp>
</gpxtpx:TrackPointExtension>
</extensions>
</trkpt>
<trkpt lat="47.74553647264838" lon="12.204204741865396">
<ele>681</ele>
<time>2012-03-03T11:17:13Z</time>
<extensions>
<gpxtpx:TrackPointExtension>
<gpxtpx:hr>165</gpxtpx:hr>
<gpxtpx:atemp>7</gpxtpx:atemp>
</gpxtpx:TrackPointExtension>
</extensions>
</trkpt>
<trkpt lat="47.74557016789913" lon="12.20429828390479">
<ele>681</ele>
<time>2012-03-03T11:17:17Z</time>
<extensions>
<gpxtpx:TrackPointExtension>
<gpxtpx:hr>165</gpxtpx:hr>
<gpxtpx:atemp>7</gpxtpx:atemp>
</gpxtpx:TrackPointExtension>
</extensions>
</trkpt>
<trkpt lat="47.74557947181165" lon="12.204322423785925">
<ele>682</ele>
<time>2012-03-03T11:17:18Z</time>
<extensions>
<gpxtpx:TrackPointExtension>
<gpxtpx:hr>166</gpxtpx:hr>
<gpxtpx:atemp>7</gpxtpx:atemp>
</gpxtpx:TrackPointExtension>
</extensions>
</trkpt>
<trkpt lat="47.74558860808611" lon="12.204347737133503">
<ele>682</ele>
<time>2012-03-03T11:17:19Z</time>
<extensions>
<gpxtpx:TrackPointExtension>
<gpxtpx:hr>166</gpxtpx:hr>
<gpxtpx:atemp>7</gpxtpx:atemp>
</gpxtpx:TrackPointExtension>
</extensions>
</trkpt>
<trkpt lat="47.745597241446376" lon="12.204371625557542">
<ele>683</ele>
<time>2012-03-03T11:17:20Z</time>
<extensions>
<gpxtpx:TrackPointExtension>
<gpxtpx:hr>166</gpxtpx:hr>
<gpxtpx:atemp>7</gpxtpx:atemp>
</gpxtpx:TrackPointExtension>
</extensions>
</trkpt>
<trkpt lat="47.745634876191616" lon="12.204440189525485">
<ele>683</ele>
<time>2012-03-03T11:17:23Z</time>
<extensions>
<gpxtpx:TrackPointExtension>
<gpxtpx:hr>167</gpxtpx:hr>
<gpxtpx:atemp>7</gpxtpx:atemp>
</gpxtpx:TrackPointExtension>
</extensions>
</trkpt>
<trkpt lat="47.74564577266574" lon="12.204461228102446">
<ele>684</ele>
<time>2012-03-03T11:17:24Z</time>
<extensions>
<gpxtpx:TrackPointExtension>
<gpxtpx:hr>167</gpxtpx:hr>
<gpxtpx:atemp>7</gpxtpx:atemp>
</gpxtpx:TrackPointExtension>
</extensions>
</trkpt>
<trkpt lat="47.745654825121164" lon="12.204482685774565">
<ele>684</ele>
<time>2012-03-03T11:17:25Z</time>
<extensions>
<gpxtpx:TrackPointExtension>
<gpxtpx:hr>167</gpxtpx:hr>
<gpxtpx:atemp>7</gpxtpx:atemp>
</gpxtpx:TrackPointExtension>
</extensions>
</trkpt>
<trkpt lat="47.745662117376924" lon="12.204507244750857">
<ele>684</ele>
<time>2012-03-03T11:17:26Z</time>
<extensions>
<gpxtpx:TrackPointExtension>
<gpxtpx:hr>167</gpxtpx:hr>
<gpxtpx:atemp>7</gpxtpx:atemp>
</gpxtpx:TrackPointExtension>
</extensions>
</trkpt>
<trkpt lat="47.745669074356556" lon="12.204530881717801">
<ele>685</ele>
<time>2012-03-03T11:17:27Z</time>
<extensions>
<gpxtpx:TrackPointExtension>
<gpxtpx:hr>168</gpxtpx:hr>
<gpxtpx:atemp>7</gpxtpx:atemp>
</gpxtpx:TrackPointExtension>
</extensions>
</trkpt>
<trkpt lat="47.745681731030345" lon="12.204553261399269">
<ele>685</ele>
<time>2012-03-03T11:17:28Z</time>
<extensions>
<gpxtpx:TrackPointExtension>
<gpxtpx:hr>167</gpxtpx:hr>
<gpxtpx:atemp>7</gpxtpx:atemp>
</gpxtpx:TrackPointExtension>
</extensions>
</trkpt>
<trkpt lat="47.745716851204634" lon="12.204621070995927">
<ele>685</ele>
<time>2012-03-03T11:17:31Z</time>
<extensions>
<gpxtpx:TrackPointExtension>
<gpxtpx:hr>168</gpxtpx:hr>
<gpxtpx:atemp>7</gpxtpx:atemp>
</gpxtpx:TrackPointExtension>
</extensions>
</trkpt>
<trkpt lat="47.745729172602296" lon="12.20464269630611">
<ele>686</ele>
<time>2012-03-03T11:17:32Z</time>
<extensions>
<gpxtpx:TrackPointExtension>
<gpxtpx:hr>168</gpxtpx:hr>
<gpxtpx:atemp>7</gpxtpx:atemp>
</gpxtpx:TrackPointExtension>
</extensions>
</trkpt>
<trkpt lat="47.745743338018656" lon="12.204662980511785">
<ele>686</ele>
<time>2012-03-03T11:17:33Z</time>
<extensions>
<gpxtpx:TrackPointExtension>
<gpxtpx:hr>168</gpxtpx:hr>
<gpxtpx:atemp>7</gpxtpx:atemp>
</gpxtpx:TrackPointExtension>
</extensions>
</trkpt>
<trkpt lat="47.745758006349206" lon="12.204684354364872">
<ele>687</ele>
<time>2012-03-03T11:17:34Z</time>
<extensions>
<gpxtpx:TrackPointExtension>
<gpxtpx:hr>168</gpxtpx:hr>
<gpxtpx:atemp>7</gpxtpx:atemp>
</gpxtpx:TrackPointExtension>
</extensions>
</trkpt>
<trkpt lat="47.7457722555846" lon="12.204703465104103">
<ele>687</ele>
<time>2012-03-03T11:17:35Z</time>
<extensions>
<gpxtpx:TrackPointExtension>
<gpxtpx:hr>169</gpxtpx:hr>
<gpxtpx:atemp>7</gpxtpx:atemp>
</gpxtpx:TrackPointExtension>
</extensions>
</trkpt>
<trkpt lat="47.74579714983702" lon="12.204739088192582">
<ele>687</ele>
<time>2012-03-03T11:17:37Z</time>
<extensions>
<gpxtpx:TrackPointExtension>
<gpxtpx:hr>168</gpxtpx:hr>
<gpxtpx:atemp>7</gpxtpx:atemp>
</gpxtpx:TrackPointExtension>
</extensions>
</trkpt>
<trkpt lat="47.74582916870713" lon="12.204801114276052">
<ele>687</ele>
<time>2012-03-03T11:17:40Z</time>
<extensions>
<gpxtpx:TrackPointExtension>
<gpxtpx:hr>169</gpxtpx:hr>
<gpxtpx:atemp>7</gpxtpx:atemp>
</gpxtpx:TrackPointExtension>
</extensions>
</trkpt>
<trkpt lat="47.745836125686765" lon="12.204827098175883">
<ele>688</ele>
<time>2012-03-03T11:17:41Z</time>
<extensions>
<gpxtpx:TrackPointExtension>
<gpxtpx:hr>169</gpxtpx:hr>
<gpxtpx:atemp>7</gpxtpx:atemp>
</gpxtpx:TrackPointExtension>
</extensions>
</trkpt>
<trkpt lat="47.74584140628576" lon="12.20484939403832">
<ele>688</ele>
<time>2012-03-03T11:17:42Z</time>
<extensions>
<gpxtpx:TrackPointExtension>
<gpxtpx:hr>169</gpxtpx:hr>
<gpxtpx:atemp>7</gpxtpx:atemp>
</gpxtpx:TrackPointExtension>
</extensions>
</trkpt>
<trkpt lat="47.745851296931505" lon="12.204869175329804">
<ele>689</ele>
<time>2012-03-03T11:17:43Z</time>
<extensions>
<gpxtpx:TrackPointExtension>
<gpxtpx:hr>170</gpxtpx:hr>
<gpxtpx:atemp>7</gpxtpx:atemp>
</gpxtpx:TrackPointExtension>
</extensions>
</trkpt>
<trkpt lat="47.745861606672406" lon="12.204891135916114">
<ele>689</ele>
<time>2012-03-03T11:17:44Z</time>
<extensions>
<gpxtpx:TrackPointExtension>
<gpxtpx:hr>170</gpxtpx:hr>
<gpxtpx:atemp>7</gpxtpx:atemp>
</gpxtpx:TrackPointExtension>
</extensions>
</trkpt>
<trkpt lat="47.745929416269064" lon="12.204976547509432">
<ele>690</ele>
<time>2012-03-03T11:17:49Z</time>
<extensions>
<gpxtpx:TrackPointExtension>
<gpxtpx:hr>172</gpxtpx:hr>
<gpxtpx:atemp>7</gpxtpx:atemp>
</gpxtpx:TrackPointExtension>
</extensions>
</trkpt>
<trkpt lat="47.74594148620963" lon="12.204998256638646">
<ele>690</ele>
<time>2012-03-03T11:17:50Z</time>
<extensions>
<gpxtpx:TrackPointExtension>
<gpxtpx:hr>171</gpxtpx:hr>
<gpxtpx:atemp>7</gpxtpx:atemp>
</gpxtpx:TrackPointExtension>
</extensions>
</trkpt>
<trkpt lat="47.7459517121315" lon="12.20502046868205">
<ele>691</ele>
<time>2012-03-03T11:17:51Z</time>
<extensions>
<gpxtpx:TrackPointExtension>
<gpxtpx:hr>172</gpxtpx:hr>
<gpxtpx:atemp>7</gpxtpx:atemp>
</gpxtpx:TrackPointExtension>
</extensions>
</trkpt>
<trkpt lat="47.74596294388175" lon="12.205043770372868">
<ele>691</ele>
<time>2012-03-03T11:17:52Z</time>
<extensions>
<gpxtpx:TrackPointExtension>
<gpxtpx:hr>172</gpxtpx:hr>
<gpxtpx:atemp>7</gpxtpx:atemp>
</gpxtpx:TrackPointExtension>
</extensions>
</trkpt>
<trkpt lat="47.74597308598459" lon="12.20506883226335">
<ele>691</ele>
<time>2012-03-03T11:17:53Z</time>
<extensions>
<gpxtpx:TrackPointExtension>
<gpxtpx:hr>172</gpxtpx:hr>
<gpxtpx:atemp>7</gpxtpx:atemp>
</gpxtpx:TrackPointExtension>
</extensions>
</trkpt>
<trkpt lat="47.74602857418358" lon="12.205168157815933">
<ele>692</ele>
<time>2012-03-03T11:17:58Z</time>
<extensions>
<gpxtpx:TrackPointExtension>
<gpxtpx:hr>171</gpxtpx:hr>
<gpxtpx:atemp>7</gpxtpx:atemp>
</gpxtpx:TrackPointExtension>
</extensions>
</trkpt>
<trkpt lat="47.746039386838675" lon="12.205190788954496">
<ele>692</ele>
<time>2012-03-03T11:17:59Z</time>
<extensions>
<gpxtpx:TrackPointExtension>
<gpxtpx:hr>170</gpxtpx:hr>
<gpxtpx:atemp>7</gpxtpx:atemp>
</gpxtpx:TrackPointExtension>
</extensions>
</trkpt>
<trkpt lat="47.746051121503115" lon="12.205211073160172">
<ele>693</ele>
<time>2012-03-03T11:18:00Z</time>
<extensions>
<gpxtpx:TrackPointExtension>
<gpxtpx:hr>170</gpxtpx:hr>
<gpxtpx:atemp>7</gpxtpx:atemp>
</gpxtpx:TrackPointExtension>
</extensions>
</trkpt>
<trkpt lat="47.74606109596789" lon="12.205231860280037">
<ele>693</ele>
<time>2012-03-03T11:18:01Z</time>
<extensions>
<gpxtpx:TrackPointExtension>
<gpxtpx:hr>170</gpxtpx:hr>
<gpxtpx:atemp>7</gpxtpx:atemp>
</gpxtpx:TrackPointExtension>
</extensions>
</trkpt>
<trkpt lat="47.746071154251695" lon="12.205254323780537">
<ele>694</ele>
<time>2012-03-03T11:18:02Z</time>
<extensions>
<gpxtpx:TrackPointExtension>
<gpxtpx:hr>170</gpxtpx:hr>
<gpxtpx:atemp>7</gpxtpx:atemp>
</gpxtpx:TrackPointExtension>
</extensions>
</trkpt>
<trkpt lat="47.74611507542431" lon="12.205370832234621">
<ele>694</ele>
<time>2012-03-03T11:18:07Z</time>
<extensions>
<gpxtpx:TrackPointExtension>
<gpxtpx:hr>169</gpxtpx:hr>
<gpxtpx:atemp>7</gpxtpx:atemp>
</gpxtpx:TrackPointExtension>
</extensions>
</trkpt>
<trkpt lat="47.74612597189844" lon="12.205393882468343">
<ele>695</ele>
<time>2012-03-03T11:18:08Z</time>
<extensions>
<gpxtpx:TrackPointExtension>
<gpxtpx:hr>169</gpxtpx:hr>
<gpxtpx:atemp>7</gpxtpx:atemp>
</gpxtpx:TrackPointExtension>
</extensions>
</trkpt>
<trkpt lat="47.74614022113383" lon="12.205411903560162">
<ele>695</ele>
<time>2012-03-03T11:18:09Z</time>
<extensions>
<gpxtpx:TrackPointExtension>
<gpxtpx:hr>169</gpxtpx:hr>
<gpxtpx:atemp>7</gpxtpx:atemp>
</gpxtpx:TrackPointExtension>
</extensions>
</trkpt>
<trkpt lat="47.74615145288408" lon="12.20543042756617">
<ele>696</ele>
<time>2012-03-03T11:18:10Z</time>
<extensions>
<gpxtpx:TrackPointExtension>
<gpxtpx:hr>169</gpxtpx:hr>
<gpxtpx:atemp>7</gpxtpx:atemp>
</gpxtpx:TrackPointExtension>
</extensions>
</trkpt>
<trkpt lat="47.74621708318591" lon="12.205563113093376">
<ele>696</ele>
<time>2012-03-03T11:18:16Z</time>
<extensions>
<gpxtpx:TrackPointExtension>
<gpxtpx:hr>167</gpxtpx:hr>
<gpxtpx:atemp>7</gpxtpx:atemp>
</gpxtpx:TrackPointExtension>
</extensions>
</trkpt>
<trkpt lat="47.746228063479066" lon="12.205581720918417">
<ele>696</ele>
<time>2012-03-03T11:18:17Z</time>
<extensions>
<gpxtpx:TrackPointExtension>
<gpxtpx:hr>167</gpxtpx:hr>
<gpxtpx:atemp>7</gpxtpx:atemp>
</gpxtpx:TrackPointExtension>
</extensions>
</trkpt>
<trkpt lat="47.7462366130203" lon="12.205607453361154">
<ele>697</ele>
<time>2012-03-03T11:18:18Z</time>
<extensions>
<gpxtpx:TrackPointExtension>
<gpxtpx:hr>167</gpxtpx:hr>
<gpxtpx:atemp>7</gpxtpx:atemp>
</gpxtpx:TrackPointExtension>
</extensions>
</trkpt>
<trkpt lat="47.746250526979566" lon="12.205627905204892">
<ele>697</ele>
<time>2012-03-03T11:18:19Z</time>
<extensions>
<gpxtpx:TrackPointExtension>
<gpxtpx:hr>167</gpxtpx:hr>
<gpxtpx:atemp>8</gpxtpx:atemp>
</gpxtpx:TrackPointExtension>
</extensions>
</trkpt>
<trkpt lat="47.746263183653355" lon="12.205648943781853">
<ele>698</ele>
<time>2012-03-03T11:18:20Z</time>
<extensions>
<gpxtpx:TrackPointExtension>
<gpxtpx:hr>167</gpxtpx:hr>
<gpxtpx:atemp>8</gpxtpx:atemp>
</gpxtpx:TrackPointExtension>
</extensions>
</trkpt>
<trkpt lat="47.746318923309445" lon="12.205760506913066">
<ele>698</ele>
<time>2012-03-03T11:18:25Z</time>
<extensions>
<gpxtpx:TrackPointExtension>
<gpxtpx:hr>166</gpxtpx:hr>
<gpxtpx:atemp>8</gpxtpx:atemp>
</gpxtpx:TrackPointExtension>
</extensions>
</trkpt>
<trkpt lat="47.74632856249809" lon="12.205780623480678">
<ele>699</ele>
<time>2012-03-03T11:18:26Z</time>
<extensions>
<gpxtpx:TrackPointExtension>
<gpxtpx:hr>166</gpxtpx:hr>
<gpxtpx:atemp>8</gpxtpx:atemp>
</gpxtpx:TrackPointExtension>
</extensions>
</trkpt>
<trkpt lat="47.746339458972216" lon="12.205802164971828">
<ele>699</ele>
<time>2012-03-03T11:18:27Z</time>
<extensions>
<gpxtpx:TrackPointExtension>
<gpxtpx:hr>166</gpxtpx:hr>
<gpxtpx:atemp>8</gpxtpx:atemp>
</gpxtpx:TrackPointExtension>
</extensions>
</trkpt>
<trkpt lat="47.74634976871312" lon="12.205826053395867">
<ele>699</ele>
<time>2012-03-03T11:18:28Z</time>
<extensions>
<gpxtpx:TrackPointExtension>
<gpxtpx:hr>166</gpxtpx:hr>
<gpxtpx:atemp>8</gpxtpx:atemp>
</gpxtpx:TrackPointExtension>
</extensions>
</trkpt>
<trkpt lat="47.746362341567874" lon="12.205846505239606">
<ele>700</ele>
<time>2012-03-03T11:18:29Z</time>
<extensions>
<gpxtpx:TrackPointExtension>
<gpxtpx:hr>166</gpxtpx:hr>
<gpxtpx:atemp>8</gpxtpx:atemp>
</gpxtpx:TrackPointExtension>
</extensions>
</trkpt>
<trkpt lat="47.74640550836921" lon="12.205913895741105">
<ele>700</ele>
<time>2012-03-03T11:18:32Z</time>
<extensions>
<gpxtpx:TrackPointExtension>
<gpxtpx:hr>167</gpxtpx:hr>
<gpxtpx:atemp>8</gpxtpx:atemp>
</gpxtpx:TrackPointExtension>
</extensions>
</trkpt>
<trkpt lat="47.746418584138155" lon="12.205936945974827">
<ele>701</ele>
<time>2012-03-03T11:18:33Z</time>
<extensions>
<gpxtpx:TrackPointExtension>
<gpxtpx:hr>166</gpxtpx:hr>
<gpxtpx:atemp>8</gpxtpx:atemp>
</gpxtpx:TrackPointExtension>
</extensions>
</trkpt>
<trkpt lat="47.7464316599071" lon="12.205958487465978">
<ele>701</ele>
<time>2012-03-03T11:18:34Z</time>
<extensions>
<gpxtpx:TrackPointExtension>
<gpxtpx:hr>167</gpxtpx:hr>
<gpxtpx:atemp>8</gpxtpx:atemp>
</gpxtpx:TrackPointExtension>
</extensions>
</trkpt>
<trkpt lat="47.74644557386637" lon="12.205979861319065">
<ele>702</ele>
<time>2012-03-03T11:18:35Z</time>
<extensions>
<gpxtpx:TrackPointExtension>
<gpxtpx:hr>166</gpxtpx:hr>
<gpxtpx:atemp>8</gpxtpx:atemp>
</gpxtpx:TrackPointExtension>
</extensions>
</trkpt>
<trkpt lat="47.74645932018757" lon="12.206000396981835">
<ele>702</ele>
<time>2012-03-03T11:18:36Z</time>
<extensions>
<gpxtpx:TrackPointExtension>
<gpxtpx:hr>167</gpxtpx:hr>
<gpxtpx:atemp>8</gpxtpx:atemp>
</gpxtpx:TrackPointExtension>
</extensions>
</trkpt>
<trkpt lat="47.74651271291077" lon="12.206079186871648">
<ele>702</ele>
<time>2012-03-03T11:18:40Z</time>
<extensions>
<gpxtpx:TrackPointExtension>
<gpxtpx:hr>166</gpxtpx:hr>
<gpxtpx:atemp>8</gpxtpx:atemp>
</gpxtpx:TrackPointExtension>
</extensions>
</trkpt>
<trkpt lat="47.746524196118116" lon="12.206105841323733">
<ele>703</ele>
<time>2012-03-03T11:18:41Z</time>
<extensions>
<gpxtpx:TrackPointExtension>
<gpxtpx:hr>167</gpxtpx:hr>
<gpxtpx:atemp>8</gpxtpx:atemp>
</gpxtpx:TrackPointExtension>
</extensions>
</trkpt>
<trkpt lat="47.74653601460159" lon="12.206128388643265">
<ele>703</ele>
<time>2012-03-03T11:18:42Z</time>
<extensions>
<gpxtpx:TrackPointExtension>
<gpxtpx:hr>166</gpxtpx:hr>
<gpxtpx:atemp>8</gpxtpx:atemp>
</gpxtpx:TrackPointExtension>
</extensions>
</trkpt>
<trkpt lat="47.74654598906636" lon="12.206150433048606">
<ele>704</ele>
<time>2012-03-03T11:18:43Z</time>
<extensions>
<gpxtpx:TrackPointExtension>
<gpxtpx:hr>167</gpxtpx:hr>
<gpxtpx:atemp>8</gpxtpx:atemp>
</gpxtpx:TrackPointExtension>
</extensions>
</trkpt>
<trkpt lat="47.74655579589307" lon="12.206174740567803">
<ele>704</ele>
<time>2012-03-03T11:18:44Z</time>
<extensions>
<gpxtpx:TrackPointExtension>
<gpxtpx:hr>167</gpxtpx:hr>
<gpxtpx:atemp>8</gpxtpx:atemp>
</gpxtpx:TrackPointExtension>
</extensions>
</trkpt>
<trkpt lat="47.74661413393915" lon="12.206285884603858">
<ele>704</ele>
<time>2012-03-03T11:18:49Z</time>
<extensions>
<gpxtpx:TrackPointExtension>
<gpxtpx:hr>167</gpxtpx:hr>
<gpxtpx:atemp>8</gpxtpx:atemp>
</gpxtpx:TrackPointExtension>
</extensions>
</trkpt>
<trkpt lat="47.746624778956175" lon="12.206306252628565">
<ele>705</ele>
<time>2012-03-03T11:18:50Z</time>
<extensions>
<gpxtpx:TrackPointExtension>
<gpxtpx:hr>167</gpxtpx:hr>
<gpxtpx:atemp>8</gpxtpx:atemp>
</gpxtpx:TrackPointExtension>
</extensions>
</trkpt>
<trkpt lat="47.74663483723998" lon="12.206329638138413">
<ele>705</ele>
<time>2012-03-03T11:18:51Z</time>
<extensions>
<gpxtpx:TrackPointExtension>
<gpxtpx:hr>167</gpxtpx:hr>
<gpxtpx:atemp>8</gpxtpx:atemp>
</gpxtpx:TrackPointExtension>
</extensions>
</trkpt>
<trkpt lat="47.74664665572345" lon="12.206347743049264">
<ele>706</ele>
<time>2012-03-03T11:18:52Z</time>
<extensions>
<gpxtpx:TrackPointExtension>
<gpxtpx:hr>167</gpxtpx:hr>
<gpxtpx:atemp>8</gpxtpx:atemp>
</gpxtpx:TrackPointExtension>
</extensions>
</trkpt>
<trkpt lat="47.74665880948305" lon="12.206364506855607">
<ele>706</ele>
<time>2012-03-03T11:18:53Z</time>
<extensions>
<gpxtpx:TrackPointExtension>
<gpxtpx:hr>168</gpxtpx:hr>
<gpxtpx:atemp>8</gpxtpx:atemp>
</gpxtpx:TrackPointExtension>
</extensions>
</trkpt>
<trkpt lat="47.74670038372278" lon="12.206442290917039">
<ele>707</ele>
<time>2012-03-03T11:18:57Z</time>
<extensions>
<gpxtpx:TrackPointExtension>
<gpxtpx:hr>168</gpxtpx:hr>
<gpxtpx:atemp>8</gpxtpx:atemp>
</gpxtpx:TrackPointExtension>
</extensions>
</trkpt>
<trkpt lat="47.74671086110175" lon="12.20646534115076">
<ele>707</ele>
<time>2012-03-03T11:18:58Z</time>
<extensions>
<gpxtpx:TrackPointExtension>
<gpxtpx:hr>168</gpxtpx:hr>
<gpxtpx:atemp>8</gpxtpx:atemp>
</gpxtpx:TrackPointExtension>
</extensions>
</trkpt>
<trkpt lat="47.746723014861345" lon="12.20648143440485">
<ele>708</ele>
<time>2012-03-03T11:18:59Z</time>
<extensions>
<gpxtpx:TrackPointExtension>
<gpxtpx:hr>168</gpxtpx:hr>
<gpxtpx:atemp>8</gpxtpx:atemp>
</gpxtpx:TrackPointExtension>
</extensions>
</trkpt>
<trkpt lat="47.74673340842128" lon="12.206499623134732">
<ele>708</ele>
<time>2012-03-03T11:19:00Z</time>
<extensions>
<gpxtpx:TrackPointExtension>
<gpxtpx:hr>167</gpxtpx:hr>
<gpxtpx:atemp>8</gpxtpx:atemp>
</gpxtpx:TrackPointExtension>
</extensions>
</trkpt>
<trkpt lat="47.74674078449607" lon="12.206523343920708">
<ele>709</ele>
<time>2012-03-03T11:19:01Z</time>
<extensions>
<gpxtpx:TrackPointExtension>
<gpxtpx:hr>167</gpxtpx:hr>
<gpxtpx:atemp>8</gpxtpx:atemp>
</gpxtpx:TrackPointExtension>
</extensions>
</trkpt>
<trkpt lat="47.74679359048605" lon="12.20661973580718">
<ele>709</ele>
<time>2012-03-03T11:19:06Z</time>
<extensions>
<gpxtpx:TrackPointExtension>
<gpxtpx:hr>167</gpxtpx:hr>
<gpxtpx:atemp>8</gpxtpx:atemp>
</gpxtpx:TrackPointExtension>
</extensions>
</trkpt>
<trkpt lat="47.74680834263563" lon="12.206658963114023">
<ele>709</ele>
<time>2012-03-03T11:19:08Z</time>
<extensions>
<gpxtpx:TrackPointExtension>
<gpxtpx:hr>166</gpxtpx:hr>
<gpxtpx:atemp>8</gpxtpx:atemp>
</gpxtpx:TrackPointExtension>
</extensions>
</trkpt>
<trkpt lat="47.746818820014596" lon="12.206682432442904">
<ele>710</ele>
<time>2012-03-03T11:19:09Z</time>
<extensions>
<gpxtpx:TrackPointExtension>
<gpxtpx:hr>166</gpxtpx:hr>
<gpxtpx:atemp>8</gpxtpx:atemp>
</gpxtpx:TrackPointExtension>
</extensions>
</trkpt>
<trkpt lat="47.746822675690055" lon="12.206702213734388">
<ele>710</ele>
<time>2012-03-03T11:19:10Z</time>
<extensions>
<gpxtpx:TrackPointExtension>
<gpxtpx:hr>166</gpxtpx:hr>
<gpxtpx:atemp>8</gpxtpx:atemp>
</gpxtpx:TrackPointExtension>
</extensions>
</trkpt>
<trkpt lat="47.74683021940291" lon="12.20672182738781">
<ele>711</ele>
<time>2012-03-03T11:19:11Z</time>
<extensions>
<gpxtpx:TrackPointExtension>
<gpxtpx:hr>167</gpxtpx:hr>
<gpxtpx:atemp>8</gpxtpx:atemp>
</gpxtpx:TrackPointExtension>
</extensions>
</trkpt>
<trkpt lat="47.7468428760767" lon="12.206745129078627">
<ele>711</ele>
<time>2012-03-03T11:19:12Z</time>
<extensions>
<gpxtpx:TrackPointExtension>
<gpxtpx:hr>167</gpxtpx:hr>
<gpxtpx:atemp>8</gpxtpx:atemp>
</gpxtpx:TrackPointExtension>
</extensions>
</trkpt>
<trkpt lat="47.74685653857887" lon="12.20676390454173">
<ele>711</ele>
<time>2012-03-03T11:19:13Z</time>
<extensions>
<gpxtpx:TrackPointExtension>
<gpxtpx:hr>167</gpxtpx:hr>
<gpxtpx:atemp>8</gpxtpx:atemp>
</gpxtpx:TrackPointExtension>
</extensions>
</trkpt>
<trkpt lat="47.746883779764175" lon="12.206815956160426">
<ele>711</ele>
<time>2012-03-03T11:19:16Z</time>
<extensions>
<gpxtpx:TrackPointExtension>
<gpxtpx:hr>168</gpxtpx:hr>
<gpxtpx:atemp>8</gpxtpx:atemp>
</gpxtpx:TrackPointExtension>
</extensions>
</trkpt>
<trkpt lat="47.74688696488738" lon="12.20683665946126">
<ele>711</ele>
<time>2012-03-03T11:19:17Z</time>
<extensions>
<gpxtpx:TrackPointExtension>
<gpxtpx:hr>168</gpxtpx:hr>
<gpxtpx:atemp>8</gpxtpx:atemp>
</gpxtpx:TrackPointExtension>
</extensions>
</trkpt>
<trkpt lat="47.7468909882009" lon="12.20685233362019">
<ele>712</ele>
<time>2012-03-03T11:19:18Z</time>
<extensions>
<gpxtpx:TrackPointExtension>
<gpxtpx:hr>169</gpxtpx:hr>
<gpxtpx:atemp>8</gpxtpx:atemp>
</gpxtpx:TrackPointExtension>
</extensions>
</trkpt>
<trkpt lat="47.746893586590886" lon="12.206874210387468">
<ele>712</ele>
<time>2012-03-03T11:19:19Z</time>
<extensions>
<gpxtpx:TrackPointExtension>
<gpxtpx:hr>169</gpxtpx:hr>
<gpxtpx:atemp>8</gpxtpx:atemp>
</gpxtpx:TrackPointExtension>
</extensions>
</trkpt>
<trkpt lat="47.74689333513379" lon="12.206897847354412">
<ele>712</ele>
<time>2012-03-03T11:19:20Z</time>
<extensions>
<gpxtpx:TrackPointExtension>
<gpxtpx:hr>170</gpxtpx:hr>
<gpxtpx:atemp>8</gpxtpx:atemp>
</gpxtpx:TrackPointExtension>
</extensions>
</trkpt>
<trkpt lat="47.74689199402928" lon="12.206919640302658">
<ele>713</ele>
<time>2012-03-03T11:19:21Z</time>
<extensions>
<gpxtpx:TrackPointExtension>
<gpxtpx:hr>170</gpxtpx:hr>
<gpxtpx:atemp>8</gpxtpx:atemp>
</gpxtpx:TrackPointExtension>
</extensions>
</trkpt>
<trkpt lat="47.74689191021025" lon="12.206944534555078">
<ele>713</ele>
<time>2012-03-03T11:19:22Z</time>
<extensions>
<gpxtpx:TrackPointExtension>
<gpxtpx:hr>171</gpxtpx:hr>
<gpxtpx:atemp>8</gpxtpx:atemp>
</gpxtpx:TrackPointExtension>
</extensions>
</trkpt>
<trkpt lat="47.74688579142094" lon="12.207019971683621">
<ele>714</ele>
<time>2012-03-03T11:19:25Z</time>
<extensions>
<gpxtpx:TrackPointExtension>
<gpxtpx:hr>172</gpxtpx:hr>
<gpxtpx:atemp>8</gpxtpx:atemp>
</gpxtpx:TrackPointExtension>
</extensions>
</trkpt>
<trkpt lat="47.74687481112778" lon="12.207041177898645">
<ele>714</ele>
<time>2012-03-03T11:19:26Z</time>
<extensions>
<gpxtpx:TrackPointExtension>
<gpxtpx:hr>172</gpxtpx:hr>
<gpxtpx:atemp>8</gpxtpx:atemp>
</gpxtpx:TrackPointExtension>
</extensions>
</trkpt>
<trkpt lat="47.7468634955585" lon="12.207056600600481">
<ele>715</ele>
<time>2012-03-03T11:19:27Z</time>
<extensions>
<gpxtpx:TrackPointExtension>
<gpxtpx:hr>173</gpxtpx:hr>
<gpxtpx:atemp>8</gpxtpx:atemp>
</gpxtpx:TrackPointExtension>
</extensions>
</trkpt>
<trkpt lat="47.74685184471309" lon="12.207080405205488">
<ele>715</ele>
<time>2012-03-03T11:19:28Z</time>
<extensions>
<gpxtpx:TrackPointExtension>
<gpxtpx:hr>173</gpxtpx:hr>
<gpxtpx:atemp>8</gpxtpx:atemp>
</gpxtpx:TrackPointExtension>
</extensions>
</trkpt>
<trkpt lat="47.746839271858335" lon="12.207106053829193">
<ele>715</ele>
<time>2012-03-03T11:19:29Z</time>
<extensions>
<gpxtpx:TrackPointExtension>
<gpxtpx:hr>172</gpxtpx:hr>
<gpxtpx:atemp>8</gpxtpx:atemp>
</gpxtpx:TrackPointExtension>
</extensions>
</trkpt>
<trkpt lat="47.74679652415216" lon="12.207155926153064">
<ele>716</ele>
<time>2012-03-03T11:19:32Z</time>
<extensions>
<gpxtpx:TrackPointExtension>
<gpxtpx:hr>173</gpxtpx:hr>
<gpxtpx:atemp>9</gpxtpx:atemp>
</gpxtpx:TrackPointExtension>
</extensions>
</trkpt>
<trkpt lat="47.74678026326001" lon="12.20717386342585">
<ele>716</ele>
<time>2012-03-03T11:19:33Z</time>
<extensions>
<gpxtpx:TrackPointExtension>
<gpxtpx:hr>172</gpxtpx:hr>
<gpxtpx:atemp>9</gpxtpx:atemp>
</gpxtpx:TrackPointExtension>
</extensions>
</trkpt>
<trkpt lat="47.746761655434966" lon="12.207187861204147">
<ele>717</ele>
<time>2012-03-03T11:19:34Z</time>
<extensions>
<gpxtpx:TrackPointExtension>
<gpxtpx:hr>173</gpxtpx:hr>
<gpxtpx:atemp>9</gpxtpx:atemp>
</gpxtpx:TrackPointExtension>
</extensions>
</trkpt>
<trkpt lat="47.74674531072378" lon="12.20719339326024">
<ele>717</ele>
<time>2012-03-03T11:19:35Z</time>
<extensions>
<gpxtpx:TrackPointExtension>
<gpxtpx:hr>173</gpxtpx:hr>
<gpxtpx:atemp>9</gpxtpx:atemp>
</gpxtpx:TrackPointExtension>
</extensions>
</trkpt>
<trkpt lat="47.74672427214682" lon="12.20719674602151">
<ele>718</ele>
<time>2012-03-03T11:19:36Z</time>
<extensions>
<gpxtpx:TrackPointExtension>
<gpxtpx:hr>172</gpxtpx:hr>
<gpxtpx:atemp>9</gpxtpx:atemp>
</gpxtpx:TrackPointExtension>
</extensions>
</trkpt>
<trkpt lat="47.74665084667504" lon="12.2072041220963">
<ele>718</ele>
<time>2012-03-03T11:19:39Z</time>
<extensions>
<gpxtpx:TrackPointExtension>
<gpxtpx:hr>172</gpxtpx:hr>
<gpxtpx:atemp>9</gpxtpx:atemp>
</gpxtpx:TrackPointExtension>
</extensions>
</trkpt>
<trkpt lat="47.74662494659424" lon="12.207202110439539">
<ele>718</ele>
<time>2012-03-03T11:19:40Z</time>
<extensions>
<gpxtpx:TrackPointExtension>
<gpxtpx:hr>172</gpxtpx:hr>
<gpxtpx:atemp>9</gpxtpx:atemp>
</gpxtpx:TrackPointExtension>
</extensions>
</trkpt>
<trkpt lat="47.74659879505634" lon="12.207200098782778">
<ele>719</ele>
<time>2012-03-03T11:19:41Z</time>
<extensions>
<gpxtpx:TrackPointExtension>
<gpxtpx:hr>172</gpxtpx:hr>
<gpxtpx:atemp>9</gpxtpx:atemp>
</gpxtpx:TrackPointExtension>
</extensions>
</trkpt>
<trkpt lat="47.74657599627972" lon="12.207199176773429">
<ele>719</ele>
<time>2012-03-03T11:19:42Z</time>
<extensions>
<gpxtpx:TrackPointExtension>
<gpxtpx:hr>172</gpxtpx:hr>
<gpxtpx:atemp>9</gpxtpx:atemp>
</gpxtpx:TrackPointExtension>
</extensions>
</trkpt>
<trkpt lat="47.74655235931277" lon="12.20719632692635">
<ele>720</ele>
<time>2012-03-03T11:19:43Z</time>
<extensions>
<gpxtpx:TrackPointExtension>
<gpxtpx:hr>171</gpxtpx:hr>
<gpxtpx:atemp>9</gpxtpx:atemp>
</gpxtpx:TrackPointExtension>
</extensions>
</trkpt>
<trkpt lat="47.74645898491144" lon="12.207171265035868">
<ele>720</ele>
<time>2012-03-03T11:19:47Z</time>
<extensions>
<gpxtpx:TrackPointExtension>
<gpxtpx:hr>171</gpxtpx:hr>
<gpxtpx:atemp>9</gpxtpx:atemp>
</gpxtpx:TrackPointExtension>
</extensions>
</trkpt>
<trkpt lat="47.746435264125466" lon="12.207160452380776">
<ele>720</ele>
<time>2012-03-03T11:19:48Z</time>
<extensions>
<gpxtpx:TrackPointExtension>
<gpxtpx:hr>171</gpxtpx:hr>
<gpxtpx:atemp>9</gpxtpx:atemp>
</gpxtpx:TrackPointExtension>
</extensions>
</trkpt>
<trkpt lat="47.74641187861562" lon="12.207150645554066">
<ele>721</ele>
<time>2012-03-03T11:19:49Z</time>
<extensions>
<gpxtpx:TrackPointExtension>
<gpxtpx:hr>171</gpxtpx:hr>
<gpxtpx:atemp>9</gpxtpx:atemp>
</gpxtpx:TrackPointExtension>
</extensions>
</trkpt>
<trkpt lat="47.74639234878123" lon="12.20713622868061">
<ele>721</ele>
<time>2012-03-03T11:19:50Z</time>
<extensions>
<gpxtpx:TrackPointExtension>
<gpxtpx:hr>171</gpxtpx:hr>
<gpxtpx:atemp>9</gpxtpx:atemp>
</gpxtpx:TrackPointExtension>
</extensions>
</trkpt>
<trkpt lat="47.74637055583298" lon="12.207119297236204">
<ele>722</ele>
<time>2012-03-03T11:19:51Z</time>
<extensions>
<gpxtpx:TrackPointExtension>
<gpxtpx:hr>171</gpxtpx:hr>
<gpxtpx:atemp>9</gpxtpx:atemp>
</gpxtpx:TrackPointExtension>
</extensions>
</trkpt>
<trkpt lat="47.74624734185636" lon="12.207024497911334">
<ele>722</ele>
<time>2012-03-03T11:19:56Z</time>
<extensions>
<gpxtpx:TrackPointExtension>
<gpxtpx:hr>171</gpxtpx:hr>
<gpxtpx:atemp>9</gpxtpx:atemp>
</gpxtpx:TrackPointExtension>
</extensions>
</trkpt>
<trkpt lat="47.74614726193249" lon="12.206938667222857">
<ele>722</ele>
<time>2012-03-03T11:20:00Z</time>
<extensions>
<gpxtpx:TrackPointExtension>
<gpxtpx:hr>171</gpxtpx:hr>
<gpxtpx:atemp>9</gpxtpx:atemp>
</gpxtpx:TrackPointExtension>
</extensions>
</trkpt>
<trkpt lat="47.74612043984234" lon="12.20691679045558">
<ele>722</ele>
<time>2012-03-03T11:20:01Z</time>
<extensions>
<gpxtpx:TrackPointExtension>
<gpxtpx:hr>171</gpxtpx:hr>
<gpxtpx:atemp>9</gpxtpx:atemp>
</gpxtpx:TrackPointExtension>
</extensions>
</trkpt>
<trkpt lat="47.74609043262899" lon="12.206893656402826">
<ele>723</ele>
<time>2012-03-03T11:20:02Z</time>
<extensions>
<gpxtpx:TrackPointExtension>
<gpxtpx:hr>170</gpxtpx:hr>
<gpxtpx:atemp>9</gpxtpx:atemp>
</gpxtpx:TrackPointExtension>
</extensions>
</trkpt>
<trkpt lat="47.74606352671981" lon="12.2068708576262">
<ele>723</ele>
<time>2012-03-03T11:20:03Z</time>
<extensions>
<gpxtpx:TrackPointExtension>
<gpxtpx:hr>171</gpxtpx:hr>
<gpxtpx:atemp>9</gpxtpx:atemp>
</gpxtpx:TrackPointExtension>
</extensions>
</trkpt>
<trkpt lat="47.74603536352515" lon="12.206850573420525">
<ele>724</ele>
<time>2012-03-03T11:20:04Z</time>
<extensions>
<gpxtpx:TrackPointExtension>
<gpxtpx:hr>171</gpxtpx:hr>
<gpxtpx:atemp>9</gpxtpx:atemp>
</gpxtpx:TrackPointExtension>
</extensions>
</trkpt>
<trkpt lat="47.74597995914519" lon="12.20679810270667">
<ele>724</ele>
<time>2012-03-03T11:20:06Z</time>
<extensions>
<gpxtpx:TrackPointExtension>
<gpxtpx:hr>170</gpxtpx:hr>
<gpxtpx:atemp>9</gpxtpx:atemp>
</gpxtpx:TrackPointExtension>
</extensions>
</trkpt>
<trkpt lat="47.74569514207542" lon="12.206566678360105">
<ele>724</ele>
<time>2012-03-03T11:20:15Z</time>
<extensions>
<gpxtpx:TrackPointExtension>
<gpxtpx:hr>168</gpxtpx:hr>
<gpxtpx:atemp>9</gpxtpx:atemp>
</gpxtpx:TrackPointExtension>
</extensions>
</trkpt>
<trkpt lat="47.74543957784772" lon="12.20635679550469">
<ele>724</ele>
<time>2012-03-03T11:20:23Z</time>
<extensions>
<gpxtpx:TrackPointExtension>
<gpxtpx:hr>165</gpxtpx:hr>
<gpxtpx:atemp>9</gpxtpx:atemp>
</gpxtpx:TrackPointExtension>
</extensions>
</trkpt>
<trkpt lat="47.74537612684071" lon="12.206299714744091">
<ele>724</ele>
<time>2012-03-03T11:20:25Z</time>
<extensions>
<gpxtpx:TrackPointExtension>
<gpxtpx:hr>164</gpxtpx:hr>
<gpxtpx:atemp>9</gpxtpx:atemp>
</gpxtpx:TrackPointExtension>
</extensions>
</trkpt>
<trkpt lat="47.74525827728212" lon="12.206202149391174">
<ele>724</ele>
<time>2012-03-03T11:20:29Z</time>
<extensions>
<gpxtpx:TrackPointExtension>
<gpxtpx:hr>162</gpxtpx:hr>
<gpxtpx:atemp>9</gpxtpx:atemp>
</gpxtpx:TrackPointExtension>
</extensions>
</trkpt>
<trkpt lat="47.745228772982955" lon="12.206178177148104">
<ele>725</ele>
<time>2012-03-03T11:20:30Z</time>
<extensions>
<gpxtpx:TrackPointExtension>
<gpxtpx:hr>162</gpxtpx:hr>
<gpxtpx:atemp>9</gpxtpx:atemp>
</gpxtpx:TrackPointExtension>
</extensions>
</trkpt>
<trkpt lat="47.745199436321855" lon="12.20615353435278">
<ele>725</ele>
<time>2012-03-03T11:20:31Z</time>
<extensions>
<gpxtpx:TrackPointExtension>
<gpxtpx:hr>162</gpxtpx:hr>
<gpxtpx:atemp>9</gpxtpx:atemp>
</gpxtpx:TrackPointExtension>
</extensions>
</trkpt>
<trkpt lat="47.74516993202269" lon="12.20612377859652">
<ele>725</ele>
<time>2012-03-03T11:20:32Z</time>
<extensions>
<gpxtpx:TrackPointExtension>
<gpxtpx:hr>161</gpxtpx:hr>
<gpxtpx:atemp>9</gpxtpx:atemp>
</gpxtpx:TrackPointExtension>
</extensions>
</trkpt>
<trkpt lat="47.7451419364661" lon="12.206099387258291">
<ele>726</ele>
<time>2012-03-03T11:20:33Z</time>
<extensions>
<gpxtpx:TrackPointExtension>
<gpxtpx:hr>160</gpxtpx:hr>
<gpxtpx:atemp>9</gpxtpx:atemp>
</gpxtpx:TrackPointExtension>
</extensions>
</trkpt>
<trkpt lat="47.74487681686878" lon="12.205883301794529">
<ele>726</ele>
<time>2012-03-03T11:20:42Z</time>
<extensions>
<gpxtpx:TrackPointExtension>
<gpxtpx:hr>158</gpxtpx:hr>
<gpxtpx:atemp>9</gpxtpx:atemp>
</gpxtpx:TrackPointExtension>
</extensions>
</trkpt>
<trkpt lat="47.744848569855094" lon="12.20585991628468">
<ele>726</ele>
<time>2012-03-03T11:20:43Z</time>
<extensions>
<gpxtpx:TrackPointExtension>
<gpxtpx:hr>157</gpxtpx:hr>
<gpxtpx:atemp>9</gpxtpx:atemp>
</gpxtpx:TrackPointExtension>
</extensions>
</trkpt>
<trkpt lat="47.74481814354658" lon="12.205834183841944">
<ele>727</ele>
<time>2012-03-03T11:20:44Z</time>
<extensions>
<gpxtpx:TrackPointExtension>
<gpxtpx:hr>156</gpxtpx:hr>
<gpxtpx:atemp>9</gpxtpx:atemp>
</gpxtpx:TrackPointExtension>
</extensions>
</trkpt>
<trkpt lat="47.744787046685815" lon="12.205806858837605">
<ele>727</ele>
<time>2012-03-03T11:20:45Z</time>
<extensions>
<gpxtpx:TrackPointExtension>
<gpxtpx:hr>156</gpxtpx:hr>
<gpxtpx:atemp>9</gpxtpx:atemp>
</gpxtpx:TrackPointExtension>
</extensions>
</trkpt>
<trkpt lat="47.7447566203773" lon="12.205779450014234">
<ele>727</ele>
<time>2012-03-03T11:20:46Z</time>
<extensions>
<gpxtpx:TrackPointExtension>
<gpxtpx:hr>156</gpxtpx:hr>
<gpxtpx:atemp>9</gpxtpx:atemp>
</gpxtpx:TrackPointExtension>
</extensions>
</trkpt>
<trkpt lat="47.74472527205944" lon="12.205755645409226">
<ele>728</ele>
<time>2012-03-03T11:20:47Z</time>
<extensions>
<gpxtpx:TrackPointExtension>
<gpxtpx:hr>156</gpxtpx:hr>
<gpxtpx:atemp>9</gpxtpx:atemp>
</gpxtpx:TrackPointExtension>
</extensions>
</trkpt>
<trkpt lat="47.74462561123073" lon="12.205697558820248">
<ele>728</ele>
<time>2012-03-03T11:20:50Z</time>
<extensions>
<gpxtpx:TrackPointExtension>
<gpxtpx:hr>156</gpxtpx:hr>
<gpxtpx:atemp>9</gpxtpx:atemp>
</gpxtpx:TrackPointExtension>
</extensions>
</trkpt>
<trkpt lat="47.74459677748382" lon="12.205675598233938">
<ele>728</ele>
<time>2012-03-03T11:20:51Z</time>
<extensions>
<gpxtpx:TrackPointExtension>
<gpxtpx:hr>156</gpxtpx:hr>
<gpxtpx:atemp>9</gpxtpx:atemp>
</gpxtpx:TrackPointExtension>
</extensions>
</trkpt>
<trkpt lat="47.74450868368149" lon="12.205618182197213">
<ele>728</ele>
<time>2012-03-03T11:20:54Z</time>
<extensions>
<gpxtpx:TrackPointExtension>
<gpxtpx:hr>156</gpxtpx:hr>
<gpxtpx:atemp>9</gpxtpx:atemp>
</gpxtpx:TrackPointExtension>
</extensions>
</trkpt>
<trkpt lat="47.74447909556329" lon="12.205595718696713">
<ele>729</ele>
<time>2012-03-03T11:20:55Z</time>
<extensions>
<gpxtpx:TrackPointExtension>
<gpxtpx:hr>157</gpxtpx:hr>
<gpxtpx:atemp>9</gpxtpx:atemp>
</gpxtpx:TrackPointExtension>
</extensions>
</trkpt>
<trkpt lat="47.744452860206366" lon="12.205577697604895">
<ele>729</ele>
<time>2012-03-03T11:20:56Z</time>
<extensions>
<gpxtpx:TrackPointExtension>
<gpxtpx:hr>156</gpxtpx:hr>
<gpxtpx:atemp>9</gpxtpx:atemp>
</gpxtpx:TrackPointExtension>
</extensions>
</trkpt>
<trkpt lat="47.74442603811622" lon="12.205562023445964">
<ele>730</ele>
<time>2012-03-03T11:20:57Z</time>
<extensions>
<gpxtpx:TrackPointExtension>
<gpxtpx:hr>156</gpxtpx:hr>
<gpxtpx:atemp>9</gpxtpx:atemp>
</gpxtpx:TrackPointExtension>
</extensions>
</trkpt>
<trkpt lat="47.74439636617899" lon="12.205546097829938">
<ele>730</ele>
<time>2012-03-03T11:20:58Z</time>
<extensions>
<gpxtpx:TrackPointExtension>
<gpxtpx:hr>157</gpxtpx:hr>
<gpxtpx:atemp>9</gpxtpx:atemp>
</gpxtpx:TrackPointExtension>
</extensions>
</trkpt>
<trkpt lat="47.74423912167549" lon="12.205475270748138">
<ele>730</ele>
<time>2012-03-03T11:21:03Z</time>
<extensions>
<gpxtpx:TrackPointExtension>
<gpxtpx:hr>157</gpxtpx:hr>
<gpxtpx:atemp>9</gpxtpx:atemp>
</gpxtpx:TrackPointExtension>
</extensions>
</trkpt>
<trkpt lat="47.74420810863376" lon="12.205462949350476">
<ele>731</ele>
<time>2012-03-03T11:21:04Z</time>
<extensions>
<gpxtpx:TrackPointExtension>
<gpxtpx:hr>158</gpxtpx:hr>
<gpxtpx:atemp>9</gpxtpx:atemp>
</gpxtpx:TrackPointExtension>
</extensions>
</trkpt>
<trkpt lat="47.74417784996331" lon="12.205446688458323">
<ele>731</ele>
<time>2012-03-03T11:21:05Z</time>
<extensions>
<gpxtpx:TrackPointExtension>
<gpxtpx:hr>158</gpxtpx:hr>
<gpxtpx:atemp>9</gpxtpx:atemp>
</gpxtpx:TrackPointExtension>
</extensions>
</trkpt>
<trkpt lat="47.74414608255029" lon="12.205427661538124">
<ele>732</ele>
<time>2012-03-03T11:21:06Z</time>
<extensions>
<gpxtpx:TrackPointExtension>
<gpxtpx:hr>158</gpxtpx:hr>
<gpxtpx:atemp>9</gpxtpx:atemp>
</gpxtpx:TrackPointExtension>
</extensions>
</trkpt>
<trkpt lat="47.74411339312792" lon="12.205410059541464">
<ele>732</ele>
<time>2012-03-03T11:21:07Z</time>
<extensions>
<gpxtpx:TrackPointExtension>
<gpxtpx:hr>159</gpxtpx:hr>
<gpxtpx:atemp>9</gpxtpx:atemp>
</gpxtpx:TrackPointExtension>
</extensions>
</trkpt>
<trkpt lat="47.74387149140239" lon="12.205314924940467">
<ele>732</ele>
<time>2012-03-03T11:21:14Z</time>
<extensions>
<gpxtpx:TrackPointExtension>
<gpxtpx:hr>159</gpxtpx:hr>
<gpxtpx:atemp>9</gpxtpx:atemp>
</gpxtpx:TrackPointExtension>
</extensions>
</trkpt>
<trkpt lat="47.74376311339438" lon="12.205272512510419">
<ele>732</ele>
<time>2012-03-03T11:21:17Z</time>
<extensions>
<gpxtpx:TrackPointExtension>
<gpxtpx:hr>160</gpxtpx:hr>
<gpxtpx:atemp>9</gpxtpx:atemp>
</gpxtpx:TrackPointExtension>
</extensions>
</trkpt>
<trkpt lat="47.743727155029774" lon="12.20525935292244">
<ele>733</ele>
<time>2012-03-03T11:21:18Z</time>
<extensions>
<gpxtpx:TrackPointExtension>
<gpxtpx:hr>159</gpxtpx:hr>
<gpxtpx:atemp>9</gpxtpx:atemp>
</gpxtpx:TrackPointExtension>
</extensions>
</trkpt>
<trkpt lat="47.7436912804842" lon="12.205246528610587">
<ele>733</ele>
<time>2012-03-03T11:21:19Z</time>
<extensions>
<gpxtpx:TrackPointExtension>
<gpxtpx:hr>160</gpxtpx:hr>
<gpxtpx:atemp>9</gpxtpx:atemp>
</gpxtpx:TrackPointExtension>
</extensions>
</trkpt>
<trkpt lat="47.74365465156734" lon="12.205234877765179">
<ele>734</ele>
<time>2012-03-03T11:21:20Z</time>
<extensions>
<gpxtpx:TrackPointExtension>
<gpxtpx:hr>160</gpxtpx:hr>
<gpxtpx:atemp>9</gpxtpx:atemp>
</gpxtpx:TrackPointExtension>
</extensions>
</trkpt>
<trkpt lat="47.743618274107575" lon="12.205221466720104">
<ele>734</ele>
<time>2012-03-03T11:21:21Z</time>
<extensions>
<gpxtpx:TrackPointExtension>
<gpxtpx:hr>159</gpxtpx:hr>
<gpxtpx:atemp>9</gpxtpx:atemp>
</gpxtpx:TrackPointExtension>
</extensions>
</trkpt>
<trkpt lat="47.74357946589589" lon="12.205211324617267">
<ele>734</ele>
<time>2012-03-03T11:21:22Z</time>
<extensions>
<gpxtpx:TrackPointExtension>
<gpxtpx:hr>159</gpxtpx:hr>
<gpxtpx:atemp>9</gpxtpx:atemp>
</gpxtpx:TrackPointExtension>
</extensions>
</trkpt>
<trkpt lat="47.743195071816444" lon="12.205121219158173">
<ele>734</ele>
<time>2012-03-03T11:21:32Z</time>
<extensions>
<gpxtpx:TrackPointExtension>
<gpxtpx:hr>156</gpxtpx:hr>
<gpxtpx:atemp>9</gpxtpx:atemp>
</gpxtpx:TrackPointExtension>
</extensions>
</trkpt>
<trkpt lat="47.742905393242836" lon="12.205069838091731">
<ele>735</ele>
<time>2012-03-03T11:21:40Z</time>
<extensions>
<gpxtpx:TrackPointExtension>
<gpxtpx:hr>155</gpxtpx:hr>
<gpxtpx:atemp>9</gpxtpx:atemp>
</gpxtpx:TrackPointExtension>
</extensions>
</trkpt>
<trkpt lat="47.74286893196404" lon="12.205064306035638">
<ele>735</ele>
<time>2012-03-03T11:21:41Z</time>
<extensions>
<gpxtpx:TrackPointExtension>
<gpxtpx:hr>154</gpxtpx:hr>
<gpxtpx:atemp>9</gpxtpx:atemp>
</gpxtpx:TrackPointExtension>
</extensions>
</trkpt>
<trkpt lat="47.742832051590085" lon="12.205064138397574">
<ele>735</ele>
<time>2012-03-03T11:21:42Z</time>
<extensions>
<gpxtpx:TrackPointExtension>
<gpxtpx:hr>154</gpxtpx:hr>
<gpxtpx:atemp>9</gpxtpx:atemp>
</gpxtpx:TrackPointExtension>
</extensions>
</trkpt>
<trkpt lat="47.74279894307256" lon="12.205059109255672">
<ele>736</ele>
<time>2012-03-03T11:21:43Z</time>
<extensions>
<gpxtpx:TrackPointExtension>
<gpxtpx:hr>154</gpxtpx:hr>
<gpxtpx:atemp>9</gpxtpx:atemp>
</gpxtpx:TrackPointExtension>
</extensions>
</trkpt>
<trkpt lat="47.742765666916966" lon="12.205048631876707">
<ele>736</ele>
<time>2012-03-03T11:21:44Z</time>
<extensions>
<gpxtpx:TrackPointExtension>
<gpxtpx:hr>154</gpxtpx:hr>
<gpxtpx:atemp>9</gpxtpx:atemp>
</gpxtpx:TrackPointExtension>
</extensions>
</trkpt>
<trkpt lat="47.74259953759611" lon="12.205019881948829">
<ele>736</ele>
<time>2012-03-03T11:21:49Z</time>
<extensions>
<gpxtpx:TrackPointExtension>
<gpxtpx:hr>155</gpxtpx:hr>
<gpxtpx:atemp>9</gpxtpx:atemp>
</gpxtpx:TrackPointExtension>
</extensions>
</trkpt>
<trkpt lat="47.74256827309728" lon="12.20501602627337">
<ele>737</ele>
<time>2012-03-03T11:21:50Z</time>
<extensions>
<gpxtpx:TrackPointExtension>
<gpxtpx:hr>155</gpxtpx:hr>
<gpxtpx:atemp>9</gpxtpx:atemp>
</gpxtpx:TrackPointExtension>
</extensions>
</trkpt>
<trkpt lat="47.74253776296973" lon="12.205011919140816">
<ele>737</ele>
<time>2012-03-03T11:21:51Z</time>
<extensions>
<gpxtpx:TrackPointExtension>
<gpxtpx:hr>155</gpxtpx:hr>
<gpxtpx:atemp>9</gpxtpx:atemp>
</gpxtpx:TrackPointExtension>
</extensions>
</trkpt>
<trkpt lat="47.742506079375744" lon="12.205007644370198">
<ele>738</ele>
<time>2012-03-03T11:21:52Z</time>
<extensions>
<gpxtpx:TrackPointExtension>
<gpxtpx:hr>155</gpxtpx:hr>
<gpxtpx:atemp>9</gpxtpx:atemp>
</gpxtpx:TrackPointExtension>
</extensions>
</trkpt>
<trkpt lat="47.74247506633401" lon="12.205004207789898">
<ele>738</ele>
<time>2012-03-03T11:21:53Z</time>
<extensions>
<gpxtpx:TrackPointExtension>
<gpxtpx:hr>155</gpxtpx:hr>
<gpxtpx:atemp>9</gpxtpx:atemp>
</gpxtpx:TrackPointExtension>
</extensions>
</trkpt>
<trkpt lat="47.74244422093034" lon="12.204998843371868">
<ele>738</ele>
<time>2012-03-03T11:21:54Z</time>
<extensions>
<gpxtpx:TrackPointExtension>
<gpxtpx:hr>155</gpxtpx:hr>
<gpxtpx:atemp>9</gpxtpx:atemp>
</gpxtpx:TrackPointExtension>
</extensions>
</trkpt>
<trkpt lat="47.7422562148422" lon="12.204975709319115">
<ele>739</ele>
<time>2012-03-03T11:22:00Z</time>
<extensions>
<gpxtpx:TrackPointExtension>
<gpxtpx:hr>156</gpxtpx:hr>
<gpxtpx:atemp>9</gpxtpx:atemp>
</gpxtpx:TrackPointExtension>
</extensions>
</trkpt>
<trkpt lat="47.74222796782851" lon="12.204976547509432">
<ele>739</ele>
<time>2012-03-03T11:22:01Z</time>
<extensions>
<gpxtpx:TrackPointExtension>
<gpxtpx:hr>156</gpxtpx:hr>
<gpxtpx:atemp>9</gpxtpx:atemp>
</gpxtpx:TrackPointExtension>
</extensions>
</trkpt>
<trkpt lat="47.74219552986324" lon="12.20497403293848">
<ele>740</ele>
<time>2012-03-03T11:22:02Z</time>
<extensions>
<gpxtpx:TrackPointExtension>
<gpxtpx:hr>157</gpxtpx:hr>
<gpxtpx:atemp>9</gpxtpx:atemp>
</gpxtpx:TrackPointExtension>
</extensions>
</trkpt>
<trkpt lat="47.742163594812155" lon="12.204970931634307">
<ele>740</ele>
<time>2012-03-03T11:22:03Z</time>
<extensions>
<gpxtpx:TrackPointExtension>
<gpxtpx:hr>156</gpxtpx:hr>
<gpxtpx:atemp>9</gpxtpx:atemp>
</gpxtpx:TrackPointExtension>
</extensions>
</trkpt>
<trkpt lat="47.74213266558945" lon="12.204963136464357">
<ele>741</ele>
<time>2012-03-03T11:22:04Z</time>
<extensions>
<gpxtpx:TrackPointExtension>
<gpxtpx:hr>156</gpxtpx:hr>
<gpxtpx:atemp>9</gpxtpx:atemp>
</gpxtpx:TrackPointExtension>
</extensions>
</trkpt>
<trkpt lat="47.742016073316336" lon="12.204952742904425">
<ele>741</ele>
<time>2012-03-03T11:22:08Z</time>
<extensions>
<gpxtpx:TrackPointExtension>
<gpxtpx:hr>157</gpxtpx:hr>
<gpxtpx:atemp>9</gpxtpx:atemp>
</gpxtpx:TrackPointExtension>
</extensions>
</trkpt>
<trkpt lat="47.741961842402816" lon="12.204960873350501">
<ele>741</ele>
<time>2012-03-03T11:22:10Z</time>
<extensions>
<gpxtpx:TrackPointExtension>
<gpxtpx:hr>157</gpxtpx:hr>
<gpxtpx:atemp>9</gpxtpx:atemp>
</gpxtpx:TrackPointExtension>
</extensions>
</trkpt>
<trkpt lat="47.7419351041317" lon="12.204964980483055">
<ele>741</ele>
<time>2012-03-03T11:22:11Z</time>
<extensions>
<gpxtpx:TrackPointExtension>
<gpxtpx:hr>156</gpxtpx:hr>
<gpxtpx:atemp>9</gpxtpx:atemp>
</gpxtpx:TrackPointExtension>
</extensions>
</trkpt>
<trkpt lat="47.741907108575106" lon="12.204972691833973">
<ele>742</ele>
<time>2012-03-03T11:22:12Z</time>
<extensions>
<gpxtpx:TrackPointExtension>
<gpxtpx:hr>157</gpxtpx:hr>
<gpxtpx:atemp>9</gpxtpx:atemp>
</gpxtpx:TrackPointExtension>
</extensions>
</trkpt>
<trkpt lat="47.741883052513" lon="12.204983169212937">
<ele>742</ele>
<time>2012-03-03T11:22:13Z</time>
<extensions>
<gpxtpx:TrackPointExtension>
<gpxtpx:hr>157</gpxtpx:hr>
<gpxtpx:atemp>9</gpxtpx:atemp>
</gpxtpx:TrackPointExtension>
</extensions>
</trkpt>
<trkpt lat="47.74185790680349" lon="12.20499498769641">
<ele>743</ele>
<time>2012-03-03T11:22:14Z</time>
<extensions>
<gpxtpx:TrackPointExtension>
<gpxtpx:hr>157</gpxtpx:hr>
<gpxtpx:atemp>9</gpxtpx:atemp>
</gpxtpx:TrackPointExtension>
</extensions>
</trkpt>
<trkpt lat="47.74183259345591" lon="12.20500772818923">
<ele>743</ele>
<time>2012-03-03T11:22:15Z</time>
<extensions>
<gpxtpx:TrackPointExtension>
<gpxtpx:hr>157</gpxtpx:hr>
<gpxtpx:atemp>9</gpxtpx:atemp>
</gpxtpx:TrackPointExtension>
</extensions>
</trkpt>
<trkpt lat="47.74178221821785" lon="12.205022564157844">
<ele>743</ele>
<time>2012-03-03T11:22:17Z</time>
<extensions>
<gpxtpx:TrackPointExtension>
<gpxtpx:hr>158</gpxtpx:hr>
<gpxtpx:atemp>9</gpxtpx:atemp>
</gpxtpx:TrackPointExtension>
</extensions>
</trkpt>
<trkpt lat="47.74175598286092" lon="12.20503220334649">
<ele>744</ele>
<time>2012-03-03T11:22:18Z</time>
<extensions>
<gpxtpx:TrackPointExtension>
<gpxtpx:hr>158</gpxtpx:hr>
<gpxtpx:atemp>9</gpxtpx:atemp>
</gpxtpx:TrackPointExtension>
</extensions>
</trkpt>
<trkpt lat="47.741729244589806" lon="12.205045614391565">
<ele>744</ele>
<time>2012-03-03T11:22:19Z</time>
<extensions>
<gpxtpx:TrackPointExtension>
<gpxtpx:hr>159</gpxtpx:hr>
<gpxtpx:atemp>9</gpxtpx:atemp>
</gpxtpx:TrackPointExtension>
</extensions>
</trkpt>
<trkpt lat="47.74170460179448" lon="12.205061288550496">
<ele>744</ele>
<time>2012-03-03T11:22:20Z</time>
<extensions>
<gpxtpx:TrackPointExtension>
<gpxtpx:hr>159</gpxtpx:hr>
<gpxtpx:atemp>9</gpxtpx:atemp>
</gpxtpx:TrackPointExtension>
</extensions>
</trkpt>
<trkpt lat="47.741677360609174" lon="12.205077381804585">
<ele>745</ele>
<time>2012-03-03T11:22:21Z</time>
<extensions>
<gpxtpx:TrackPointExtension>
<gpxtpx:hr>159</gpxtpx:hr>
<gpxtpx:atemp>9</gpxtpx:atemp>
</gpxtpx:TrackPointExtension>
</extensions>
</trkpt>
<trkpt lat="47.741622710600495" lon="12.205110574141145">
<ele>745</ele>
<time>2012-03-03T11:22:23Z</time>
<extensions>
<gpxtpx:TrackPointExtension>
<gpxtpx:hr>160</gpxtpx:hr>
<gpxtpx:atemp>9</gpxtpx:atemp>
</gpxtpx:TrackPointExtension>
</extensions>
</trkpt>
<trkpt lat="47.74144006893039" lon="12.205294892191887">
<ele>745</ele>
<time>2012-03-03T11:22:30Z</time>
<extensions>
<gpxtpx:TrackPointExtension>
<gpxtpx:hr>162</gpxtpx:hr>
<gpxtpx:atemp>10</gpxtpx:atemp>
</gpxtpx:TrackPointExtension>
</extensions>
</trkpt>
<trkpt lat="47.74141433648765" lon="12.205325150862336">
<ele>746</ele>
<time>2012-03-03T11:22:31Z</time>
<extensions>
<gpxtpx:TrackPointExtension>
<gpxtpx:hr>162</gpxtpx:hr>
<gpxtpx:atemp>10</gpxtpx:atemp>
</gpxtpx:TrackPointExtension>
</extensions>
</trkpt>
<trkpt lat="47.741389190778136" lon="12.205358678475022">
<ele>746</ele>
<time>2012-03-03T11:22:32Z</time>
<extensions>
<gpxtpx:TrackPointExtension>
<gpxtpx:hr>163</gpxtpx:hr>
<gpxtpx:atemp>10</gpxtpx:atemp>
</gpxtpx:TrackPointExtension>
</extensions>
</trkpt>
<trkpt lat="47.741363290697336" lon="12.20539664849639">
<ele>747</ele>
<time>2012-03-03T11:22:33Z</time>
<extensions>
<gpxtpx:TrackPointExtension>
<gpxtpx:hr>162</gpxtpx:hr>
<gpxtpx:atemp>10</gpxtpx:atemp>
</gpxtpx:TrackPointExtension>
</extensions>
</trkpt>
<trkpt lat="47.741335378959775" lon="12.20543478615582">
<ele>747</ele>
<time>2012-03-03T11:22:34Z</time>
<extensions>
<gpxtpx:TrackPointExtension>
<gpxtpx:hr>162</gpxtpx:hr>
<gpxtpx:atemp>10</gpxtpx:atemp>
</gpxtpx:TrackPointExtension>
</extensions>
</trkpt>
<trkpt lat="47.741253236308694" lon="12.205599155277014">
<ele>747</ele>
<time>2012-03-03T11:22:38Z</time>
<extensions>
<gpxtpx:TrackPointExtension>
<gpxtpx:hr>161</gpxtpx:hr>
<gpxtpx:atemp>10</gpxtpx:atemp>
</gpxtpx:TrackPointExtension>
</extensions>
</trkpt>
<trkpt lat="47.7411768771708" lon="12.20581297762692">
<ele>747</ele>
<time>2012-03-03T11:22:43Z</time>
<extensions>
<gpxtpx:TrackPointExtension>
<gpxtpx:hr>161</gpxtpx:hr>
<gpxtpx:atemp>10</gpxtpx:atemp>
</gpxtpx:TrackPointExtension>
</extensions>
</trkpt>
<trkpt lat="47.74116547778249" lon="12.205856060609221">
<ele>748</ele>
<time>2012-03-03T11:22:44Z</time>
<extensions>
<gpxtpx:TrackPointExtension>
<gpxtpx:hr>161</gpxtpx:hr>
<gpxtpx:atemp>10</gpxtpx:atemp>
</gpxtpx:TrackPointExtension>
</extensions>
</trkpt>
<trkpt lat="47.74115533567965" lon="12.20589998178184">
<ele>748</ele>
<time>2012-03-03T11:22:45Z</time>
<extensions>
<gpxtpx:TrackPointExtension>
<gpxtpx:hr>160</gpxtpx:hr>
<gpxtpx:atemp>10</gpxtpx:atemp>
</gpxtpx:TrackPointExtension>
</extensions>
</trkpt>
<trkpt lat="47.741140918806195" lon="12.205941136926413">
<ele>749</ele>
<time>2012-03-03T11:22:46Z</time>
<extensions>
<gpxtpx:TrackPointExtension>
<gpxtpx:hr>161</gpxtpx:hr>
<gpxtpx:atemp>10</gpxtpx:atemp>
</gpxtpx:TrackPointExtension>
</extensions>
</trkpt>
<trkpt lat="47.74113136343658" lon="12.205985728651285">
<ele>749</ele>
<time>2012-03-03T11:22:47Z</time>
<extensions>
<gpxtpx:TrackPointExtension>
<gpxtpx:hr>160</gpxtpx:hr>
<gpxtpx:atemp>10</gpxtpx:atemp>
</gpxtpx:TrackPointExtension>
</extensions>
</trkpt>
<trkpt lat="47.74107269011438" lon="12.206274317577481">
<ele>750</ele>
<time>2012-03-03T11:22:54Z</time>
<extensions>
<gpxtpx:TrackPointExtension>
<gpxtpx:hr>161</gpxtpx:hr>
<gpxtpx:atemp>10</gpxtpx:atemp>
</gpxtpx:TrackPointExtension>
</extensions>
</trkpt>
<trkpt lat="47.741066571325064" lon="12.206314047798514">
<ele>750</ele>
<time>2012-03-03T11:22:55Z</time>
<extensions>
<gpxtpx:TrackPointExtension>
<gpxtpx:hr>160</gpxtpx:hr>
<gpxtpx:atemp>10</gpxtpx:atemp>
</gpxtpx:TrackPointExtension>
</extensions>
</trkpt>
<trkpt lat="47.741061709821224" lon="12.206355202943087">
<ele>750</ele>
<time>2012-03-03T11:22:56Z</time>
<extensions>
<gpxtpx:TrackPointExtension>
<gpxtpx:hr>160</gpxtpx:hr>
<gpxtpx:atemp>10</gpxtpx:atemp>
</gpxtpx:TrackPointExtension>
</extensions>
</trkpt>
<trkpt lat="47.74105567485094" lon="12.206395687535405">
<ele>751</ele>
<time>2012-03-03T11:22:57Z</time>
<extensions>
<gpxtpx:TrackPointExtension>
<gpxtpx:hr>160</gpxtpx:hr>
<gpxtpx:atemp>10</gpxtpx:atemp>
</gpxtpx:TrackPointExtension>
</extensions>
</trkpt>
<trkpt lat="47.74104729294777" lon="12.20643407665193">
<ele>751</ele>
<time>2012-03-03T11:22:58Z</time>
<extensions>
<gpxtpx:TrackPointExtension>
<gpxtpx:hr>161</gpxtpx:hr>
<gpxtpx:atemp>10</gpxtpx:atemp>
</gpxtpx:TrackPointExtension>
</extensions>
</trkpt>
<trkpt lat="47.741032876074314" lon="12.206547902897">
<ele>751</ele>
<time>2012-03-03T11:23:01Z</time>
<extensions>
<gpxtpx:TrackPointExtension>
<gpxtpx:hr>161</gpxtpx:hr>
<gpxtpx:atemp>10</gpxtpx:atemp>
</gpxtpx:TrackPointExtension>
</extensions>
</trkpt>
<trkpt lat="47.74102876894176" lon="12.206654017791152">
<ele>752</ele>
<time>2012-03-03T11:23:04Z</time>
<extensions>
<gpxtpx:TrackPointExtension>
<gpxtpx:hr>161</gpxtpx:hr>
<gpxtpx:atemp>10</gpxtpx:atemp>
</gpxtpx:TrackPointExtension>
</extensions>
</trkpt>
<trkpt lat="47.74102818220854" lon="12.20668570138514">
<ele>753</ele>
<time>2012-03-03T11:23:05Z</time>
<extensions>
<gpxtpx:TrackPointExtension>
<gpxtpx:hr>161</gpxtpx:hr>
<gpxtpx:atemp>10</gpxtpx:atemp>
</gpxtpx:TrackPointExtension>
</extensions>
</trkpt>
<trkpt lat="47.74102793075144" lon="12.20672040246427">
<ele>753</ele>
<time>2012-03-03T11:23:06Z</time>
<extensions>
<gpxtpx:TrackPointExtension>
<gpxtpx:hr>161</gpxtpx:hr>
<gpxtpx:atemp>10</gpxtpx:atemp>
</gpxtpx:TrackPointExtension>
</extensions>
</trkpt>
<trkpt lat="47.74103119969368" lon="12.20675359480083">
<ele>753</ele>
<time>2012-03-03T11:23:07Z</time>
<extensions>
<gpxtpx:TrackPointExtension>
<gpxtpx:hr>161</gpxtpx:hr>
<gpxtpx:atemp>10</gpxtpx:atemp>
</gpxtpx:TrackPointExtension>
</extensions>
</trkpt>
<trkpt lat="47.74103648029268" lon="12.206818973645568">
<ele>753</ele>
<time>2012-03-03T11:23:09Z</time>
<extensions>
<gpxtpx:TrackPointExtension>
<gpxtpx:hr>161</gpxtpx:hr>
<gpxtpx:atemp>10</gpxtpx:atemp>
</gpxtpx:TrackPointExtension>
</extensions>
</trkpt>
<trkpt lat="47.74103564210236" lon="12.206850741058588">
<ele>754</ele>
<time>2012-03-03T11:23:10Z</time>
<extensions>
<gpxtpx:TrackPointExtension>
<gpxtpx:hr>162</gpxtpx:hr>
<gpxtpx:atemp>10</gpxtpx:atemp>
</gpxtpx:TrackPointExtension>
</extensions>
</trkpt>
<trkpt lat="47.74103161878884" lon="12.206881670281291">
<ele>754</ele>
<time>2012-03-03T11:23:11Z</time>
<extensions>
<gpxtpx:TrackPointExtension>
<gpxtpx:hr>162</gpxtpx:hr>
<gpxtpx:atemp>10</gpxtpx:atemp>
</gpxtpx:TrackPointExtension>
</extensions>
</trkpt>
<trkpt lat="47.74103404954076" lon="12.206915114074945">
<ele>755</ele>
<time>2012-03-03T11:23:12Z</time>
<extensions>
<gpxtpx:TrackPointExtension>
<gpxtpx:hr>162</gpxtpx:hr>
<gpxtpx:atemp>10</gpxtpx:atemp>
</gpxtpx:TrackPointExtension>
</extensions>
</trkpt>
<trkpt lat="47.741035306826234" lon="12.206947468221188">
<ele>755</ele>
<time>2012-03-03T11:23:13Z</time>
<extensions>
<gpxtpx:TrackPointExtension>
<gpxtpx:hr>162</gpxtpx:hr>
<gpxtpx:atemp>10</gpxtpx:atemp>
</gpxtpx:TrackPointExtension>
</extensions>
</trkpt>
<trkpt lat="47.74103430099785" lon="12.206977810710669">
<ele>756</ele>
<time>2012-03-03T11:23:14Z</time>
<extensions>
<gpxtpx:TrackPointExtension>
<gpxtpx:hr>162</gpxtpx:hr>
<gpxtpx:atemp>10</gpxtpx:atemp>
</gpxtpx:TrackPointExtension>
</extensions>
</trkpt>
<trkpt lat="47.741036312654614" lon="12.207009829580784">
<ele>756</ele>
<time>2012-03-03T11:23:15Z</time>
<extensions>
<gpxtpx:TrackPointExtension>
<gpxtpx:hr>163</gpxtpx:hr>
<gpxtpx:atemp>10</gpxtpx:atemp>
</gpxtpx:TrackPointExtension>
</extensions>
</trkpt>
<trkpt lat="47.74104184471071" lon="12.207073029130697">
<ele>756</ele>
<time>2012-03-03T11:23:17Z</time>
<extensions>
<gpxtpx:TrackPointExtension>
<gpxtpx:hr>164</gpxtpx:hr>
<gpxtpx:atemp>10</gpxtpx:atemp>
</gpxtpx:TrackPointExtension>
</extensions>
</trkpt>
<trkpt lat="47.741044694557786" lon="12.207105550915003">
<ele>756</ele>
<time>2012-03-03T11:23:18Z</time>
<extensions>
<gpxtpx:TrackPointExtension>
<gpxtpx:hr>164</gpxtpx:hr>
<gpxtpx:atemp>10</gpxtpx:atemp>
</gpxtpx:TrackPointExtension>
</extensions>
</trkpt>
<trkpt lat="47.74104687385261" lon="12.207140754908323">
<ele>757</ele>
<time>2012-03-03T11:23:19Z</time>
<extensions>
<gpxtpx:TrackPointExtension>
<gpxtpx:hr>165</gpxtpx:hr>
<gpxtpx:atemp>10</gpxtpx:atemp>
</gpxtpx:TrackPointExtension>
</extensions>
</trkpt>
<trkpt lat="47.74105232208967" lon="12.20716942101717">
<ele>757</ele>
<time>2012-03-03T11:23:20Z</time>
<extensions>
<gpxtpx:TrackPointExtension>
<gpxtpx:hr>165</gpxtpx:hr>
<gpxtpx:atemp>10</gpxtpx:atemp>
</gpxtpx:TrackPointExtension>
</extensions>
</trkpt>
<trkpt lat="47.74105567485094" lon="12.207200266420841">
<ele>758</ele>
<time>2012-03-03T11:23:21Z</time>
<extensions>
<gpxtpx:TrackPointExtension>
<gpxtpx:hr>165</gpxtpx:hr>
<gpxtpx:atemp>10</gpxtpx:atemp>
</gpxtpx:TrackPointExtension>
</extensions>
</trkpt>
<trkpt lat="47.741058776155114" lon="12.207252569496632">
<ele>758</ele>
<time>2012-03-03T11:23:23Z</time>
<extensions>
<gpxtpx:TrackPointExtension>
<gpxtpx:hr>166</gpxtpx:hr>
<gpxtpx:atemp>10</gpxtpx:atemp>
</gpxtpx:TrackPointExtension>
</extensions>
</trkpt>
<trkpt lat="47.741060284897685" lon="12.207284420728683">
<ele>758</ele>
<time>2012-03-03T11:23:24Z</time>
<extensions>
<gpxtpx:TrackPointExtension>
<gpxtpx:hr>167</gpxtpx:hr>
<gpxtpx:atemp>10</gpxtpx:atemp>
</gpxtpx:TrackPointExtension>
</extensions>
</trkpt>
<trkpt lat="47.74106531403959" lon="12.207319540902972">
<ele>759</ele>
<time>2012-03-03T11:23:25Z</time>
<extensions>
<gpxtpx:TrackPointExtension>
<gpxtpx:hr>167</gpxtpx:hr>
<gpxtpx:atemp>10</gpxtpx:atemp>
</gpxtpx:TrackPointExtension>
</extensions>
</trkpt>
<trkpt lat="47.74107503704727" lon="12.207349548116326">
<ele>759</ele>
<time>2012-03-03T11:23:26Z</time>
<extensions>
<gpxtpx:TrackPointExtension>
<gpxtpx:hr>168</gpxtpx:hr>
<gpxtpx:atemp>10</gpxtpx:atemp>
</gpxtpx:TrackPointExtension>
</extensions>
</trkpt>
<trkpt lat="47.741088615730405" lon="12.2073716763407">
<ele>759</ele>
<time>2012-03-03T11:23:27Z</time>
<extensions>
<gpxtpx:TrackPointExtension>
<gpxtpx:hr>168</gpxtpx:hr>
<gpxtpx:atemp>10</gpxtpx:atemp>
</gpxtpx:TrackPointExtension>
</extensions>
</trkpt>
<trkpt lat="47.741097416728735" lon="12.207396235316992">
<ele>760</ele>
<time>2012-03-03T11:23:28Z</time>
<extensions>
<gpxtpx:TrackPointExtension>
<gpxtpx:hr>169</gpxtpx:hr>
<gpxtpx:atemp>10</gpxtpx:atemp>
</gpxtpx:TrackPointExtension>
</extensions>
</trkpt>
<trkpt lat="47.74110781028867" lon="12.207421967759728">
<ele>760</ele>
<time>2012-03-03T11:23:29Z</time>
<extensions>
<gpxtpx:TrackPointExtension>
<gpxtpx:hr>169</gpxtpx:hr>
<gpxtpx:atemp>10</gpxtpx:atemp>
</gpxtpx:TrackPointExtension>
</extensions>
</trkpt>
<trkpt lat="47.741119964048266" lon="12.207448370754719">
<ele>760</ele>
<time>2012-03-03T11:23:30Z</time>
<extensions>
<gpxtpx:TrackPointExtension>
<gpxtpx:hr>170</gpxtpx:hr>
<gpxtpx:atemp>10</gpxtpx:atemp>
</gpxtpx:TrackPointExtension>
</extensions>
</trkpt>
<trkpt lat="47.741131195798516" lon="12.207483071833849">
<ele>761</ele>
<time>2012-03-03T11:23:31Z</time>
<extensions>
<gpxtpx:TrackPointExtension>
<gpxtpx:hr>170</gpxtpx:hr>
<gpxtpx:atemp>10</gpxtpx:atemp>
</gpxtpx:TrackPointExtension>
</extensions>
</trkpt>
<trkpt lat="47.741136476397514" lon="12.207515006884933">
<ele>761</ele>
<time>2012-03-03T11:23:32Z</time>
<extensions>
<gpxtpx:TrackPointExtension>
<gpxtpx:hr>171</gpxtpx:hr>
<gpxtpx:atemp>10</gpxtpx:atemp>
</gpxtpx:TrackPointExtension>
</extensions>
</trkpt>
<trkpt lat="47.74114510975778" lon="12.207549875602126">
<ele>762</ele>
<time>2012-03-03T11:23:33Z</time>
<extensions>
<gpxtpx:TrackPointExtension>
<gpxtpx:hr>171</gpxtpx:hr>
<gpxtpx:atemp>10</gpxtpx:atemp>
</gpxtpx:TrackPointExtension>
</extensions>
</trkpt>
<trkpt lat="47.74115592241287" lon="12.207580972462893">
<ele>762</ele>
<time>2012-03-03T11:23:34Z</time>
<extensions>
<gpxtpx:TrackPointExtension>
<gpxtpx:hr>171</gpxtpx:hr>
<gpxtpx:atemp>10</gpxtpx:atemp>
</gpxtpx:TrackPointExtension>
</extensions>
</trkpt>
<trkpt lat="47.741158436983824" lon="12.20761215314269">
<ele>762</ele>
<time>2012-03-03T11:23:35Z</time>
<extensions>
<gpxtpx:TrackPointExtension>
<gpxtpx:hr>172</gpxtpx:hr>
<gpxtpx:atemp>10</gpxtpx:atemp>
</gpxtpx:TrackPointExtension>
</extensions>
</trkpt>
<trkpt lat="47.74117226712406" lon="12.20767267048359">
<ele>762</ele>
<time>2012-03-03T11:23:37Z</time>
<extensions>
<gpxtpx:TrackPointExtension>
<gpxtpx:hr>172</gpxtpx:hr>
<gpxtpx:atemp>10</gpxtpx:atemp>
</gpxtpx:TrackPointExtension>
</extensions>
</trkpt>
<trkpt lat="47.74117696098983" lon="12.20770251005888">
<ele>763</ele>
<time>2012-03-03T11:23:38Z</time>
<extensions>
<gpxtpx:TrackPointExtension>
<gpxtpx:hr>173</gpxtpx:hr>
<gpxtpx:atemp>10</gpxtpx:atemp>
</gpxtpx:TrackPointExtension>
</extensions>
</trkpt>
<trkpt lat="47.74118173867464" lon="12.207730002701283">
<ele>763</ele>
<time>2012-03-03T11:23:39Z</time>
<extensions>
<gpxtpx:TrackPointExtension>
<gpxtpx:hr>173</gpxtpx:hr>
<gpxtpx:atemp>10</gpxtpx:atemp>
</gpxtpx:TrackPointExtension>
</extensions>
</trkpt>
<trkpt lat="47.74119255132973" lon="12.207761518657207">
<ele>764</ele>
<time>2012-03-03T11:23:40Z</time>
<extensions>
<gpxtpx:TrackPointExtension>
<gpxtpx:hr>174</gpxtpx:hr>
<gpxtpx:atemp>10</gpxtpx:atemp>
</gpxtpx:TrackPointExtension>
</extensions>
</trkpt>
<trkpt lat="47.74120721966028" lon="12.207786245271564">
<ele>764</ele>
<time>2012-03-03T11:23:41Z</time>
<extensions>
<gpxtpx:TrackPointExtension>
<gpxtpx:hr>174</gpxtpx:hr>
<gpxtpx:atemp>10</gpxtpx:atemp>
</gpxtpx:TrackPointExtension>
</extensions>
</trkpt>
<trkpt lat="47.74123303592205" lon="12.20784567296505">
<ele>764</ele>
<time>2012-03-03T11:23:43Z</time>
<extensions>
<gpxtpx:TrackPointExtension>
<gpxtpx:hr>174</gpxtpx:hr>
<gpxtpx:atemp>10</gpxtpx:atemp>
</gpxtpx:TrackPointExtension>
</extensions>
</trkpt>
<trkpt lat="47.74125935509801" lon="12.207906022667885">
<ele>764</ele>
<time>2012-03-03T11:23:45Z</time>
<extensions>
<gpxtpx:TrackPointExtension>
<gpxtpx:hr>175</gpxtpx:hr>
<gpxtpx:atemp>10</gpxtpx:atemp>
</gpxtpx:TrackPointExtension>
</extensions>
</trkpt>
<trkpt lat="47.74126874282956" lon="12.207937370985746">
<ele>765</ele>
<time>2012-03-03T11:23:46Z</time>
<extensions>
<gpxtpx:TrackPointExtension>
<gpxtpx:hr>174</gpxtpx:hr>
<gpxtpx:atemp>10</gpxtpx:atemp>
</gpxtpx:TrackPointExtension>
</extensions>
</trkpt>
<trkpt lat="47.74127854965627" lon="12.207966623827815">
<ele>765</ele>
<time>2012-03-03T11:23:47Z</time>
<extensions>
<gpxtpx:TrackPointExtension>
<gpxtpx:hr>174</gpxtpx:hr>
<gpxtpx:atemp>10</gpxtpx:atemp>
</gpxtpx:TrackPointExtension>
</extensions>
</trkpt>
<trkpt lat="47.741291038692" lon="12.207996547222137">
<ele>766</ele>
<time>2012-03-03T11:23:48Z</time>
<extensions>
<gpxtpx:TrackPointExtension>
<gpxtpx:hr>174</gpxtpx:hr>
<gpxtpx:atemp>10</gpxtpx:atemp>
</gpxtpx:TrackPointExtension>
</extensions>
</trkpt>
<trkpt lat="47.74130076169968" lon="12.208027392625809">
<ele>766</ele>
<time>2012-03-03T11:23:49Z</time>
<extensions>
<gpxtpx:TrackPointExtension>
<gpxtpx:hr>174</gpxtpx:hr>
<gpxtpx:atemp>10</gpxtpx:atemp>
</gpxtpx:TrackPointExtension>
</extensions>
</trkpt>
<trkpt lat="47.74132146500051" lon="12.208088329061866">
<ele>766</ele>
<time>2012-03-03T11:23:51Z</time>
<extensions>
<gpxtpx:TrackPointExtension>
<gpxtpx:hr>173</gpxtpx:hr>
<gpxtpx:atemp>10</gpxtpx:atemp>
</gpxtpx:TrackPointExtension>
</extensions>
</trkpt>
<trkpt lat="47.74145289324224" lon="12.208390580490232">
<ele>766</ele>
<time>2012-03-03T11:23:59Z</time>
<extensions>
<gpxtpx:TrackPointExtension>
<gpxtpx:hr>170</gpxtpx:hr>
<gpxtpx:atemp>10</gpxtpx:atemp>
</gpxtpx:TrackPointExtension>
</extensions>
</trkpt>
<trkpt lat="47.74151642806828" lon="12.20856886357069">
<ele>766</ele>
<time>2012-03-03T11:24:03Z</time>
<extensions>
<gpxtpx:TrackPointExtension>
<gpxtpx:hr>169</gpxtpx:hr>
<gpxtpx:atemp>10</gpxtpx:atemp>
</gpxtpx:TrackPointExtension>
</extensions>
</trkpt>
<trkpt lat="47.74152774363756" lon="12.20861622132361">
<ele>767</ele>
<time>2012-03-03T11:24:04Z</time>
<extensions>
<gpxtpx:TrackPointExtension>
<gpxtpx:hr>169</gpxtpx:hr>
<gpxtpx:atemp>10</gpxtpx:atemp>
</gpxtpx:TrackPointExtension>
</extensions>
</trkpt>
<trkpt lat="47.741540567949414" lon="12.208668356761336">
<ele>767</ele>
<time>2012-03-03T11:24:05Z</time>
<extensions>
<gpxtpx:TrackPointExtension>
<gpxtpx:hr>168</gpxtpx:hr>
<gpxtpx:atemp>10</gpxtpx:atemp>
</gpxtpx:TrackPointExtension>
</extensions>
</trkpt>
<trkpt lat="47.741551380604506" lon="12.208721078932285">
<ele>768</ele>
<time>2012-03-03T11:24:06Z</time>
<extensions>
<gpxtpx:TrackPointExtension>
<gpxtpx:hr>168</gpxtpx:hr>
<gpxtpx:atemp>10</gpxtpx:atemp>
</gpxtpx:TrackPointExtension>
</extensions>
</trkpt>
<trkpt lat="47.74156152270734" lon="12.208775309845805">
<ele>768</ele>
<time>2012-03-03T11:24:07Z</time>
<extensions>
<gpxtpx:TrackPointExtension>
<gpxtpx:hr>167</gpxtpx:hr>
<gpxtpx:atemp>10</gpxtpx:atemp>
</gpxtpx:TrackPointExtension>
</extensions>
</trkpt>
<trkpt lat="47.74158298037946" lon="12.209051912650466">
<ele>768</ele>
<time>2012-03-03T11:24:12Z</time>
<extensions>
<gpxtpx:TrackPointExtension>
<gpxtpx:hr>165</gpxtpx:hr>
<gpxtpx:atemp>10</gpxtpx:atemp>
</gpxtpx:TrackPointExtension>
</extensions>
</trkpt>
<trkpt lat="47.74158725515008" lon="12.209332706406713">
<ele>768</ele>
<time>2012-03-03T11:24:17Z</time>
<extensions>
<gpxtpx:TrackPointExtension>
<gpxtpx:hr>162</gpxtpx:hr>
<gpxtpx:atemp>9</gpxtpx:atemp>
</gpxtpx:TrackPointExtension>
</extensions>
</trkpt>
<trkpt lat="47.74159505032003" lon="12.209553569555283">
<ele>768</ele>
<time>2012-03-03T11:24:21Z</time>
<extensions>
<gpxtpx:TrackPointExtension>
<gpxtpx:hr>161</gpxtpx:hr>
<gpxtpx:atemp>9</gpxtpx:atemp>
</gpxtpx:TrackPointExtension>
</extensions>
</trkpt>
<trkpt lat="47.74160619825125" lon="12.20980946905911">
<ele>768</ele>
<time>2012-03-03T11:24:26Z</time>
<extensions>
<gpxtpx:TrackPointExtension>
<gpxtpx:hr>158</gpxtpx:hr>
<gpxtpx:atemp>9</gpxtpx:atemp>
</gpxtpx:TrackPointExtension>
</extensions>
</trkpt>
<trkpt lat="47.74163553491235" lon="12.21000644378364">
<ele>769</ele>
<time>2012-03-03T11:24:30Z</time>
<extensions>
<gpxtpx:TrackPointExtension>
<gpxtpx:hr>157</gpxtpx:hr>
<gpxtpx:atemp>9</gpxtpx:atemp>
</gpxtpx:TrackPointExtension>
</extensions>
</trkpt>
<trkpt lat="47.74164534173906" lon="12.210053214803338">
<ele>769</ele>
<time>2012-03-03T11:24:31Z</time>
<extensions>
<gpxtpx:TrackPointExtension>
<gpxtpx:hr>157</gpxtpx:hr>
<gpxtpx:atemp>9</gpxtpx:atemp>
</gpxtpx:TrackPointExtension>
</extensions>
</trkpt>
<trkpt lat="47.741654394194484" lon="12.210099650546908">
<ele>769</ele>
<time>2012-03-03T11:24:32Z</time>
<extensions>
<gpxtpx:TrackPointExtension>
<gpxtpx:hr>156</gpxtpx:hr>
<gpxtpx:atemp>9</gpxtpx:atemp>
</gpxtpx:TrackPointExtension>
</extensions>
</trkpt>
<trkpt lat="47.74166411720216" lon="12.21014273352921">
<ele>770</ele>
<time>2012-03-03T11:24:33Z</time>
<extensions>
<gpxtpx:TrackPointExtension>
<gpxtpx:hr>156</gpxtpx:hr>
<gpxtpx:atemp>9</gpxtpx:atemp>
</gpxtpx:TrackPointExtension>
</extensions>
</trkpt>
<trkpt lat="47.741673085838556" lon="12.210187492892146">
<ele>770</ele>
<time>2012-03-03T11:24:34Z</time>
<extensions>
<gpxtpx:TrackPointExtension>
<gpxtpx:hr>156</gpxtpx:hr>
<gpxtpx:atemp>9</gpxtpx:atemp>
</gpxtpx:TrackPointExtension>
</extensions>
</trkpt>
<trkpt lat="47.74172027595341" lon="12.210399974137545">
<ele>770</ele>
<time>2012-03-03T11:24:39Z</time>
<extensions>
<gpxtpx:TrackPointExtension>
<gpxtpx:hr>155</gpxtpx:hr>
<gpxtpx:atemp>9</gpxtpx:atemp>
</gpxtpx:TrackPointExtension>
</extensions>
</trkpt>
<trkpt lat="47.74173620156944" lon="12.210444984957576">
<ele>771</ele>
<time>2012-03-03T11:24:40Z</time>
<extensions>
<gpxtpx:TrackPointExtension>
<gpxtpx:hr>155</gpxtpx:hr>
<gpxtpx:atemp>9</gpxtpx:atemp>
</gpxtpx:TrackPointExtension>
</extensions>
</trkpt>
<trkpt lat="47.7417485229671" lon="12.210489325225353">
<ele>771</ele>
<time>2012-03-03T11:24:41Z</time>
<extensions>
<gpxtpx:TrackPointExtension>
<gpxtpx:hr>155</gpxtpx:hr>
<gpxtpx:atemp>9</gpxtpx:atemp>
</gpxtpx:TrackPointExtension>
</extensions>
</trkpt>
<trkpt lat="47.74175967089832" lon="12.210532827302814">
<ele>771</ele>
<time>2012-03-03T11:24:42Z</time>
<extensions>
<gpxtpx:TrackPointExtension>
<gpxtpx:hr>154</gpxtpx:hr>
<gpxtpx:atemp>9</gpxtpx:atemp>
</gpxtpx:TrackPointExtension>
</extensions>
</trkpt>
<trkpt lat="47.74176612496376" lon="12.210575575008988">
<ele>772</ele>
<time>2012-03-03T11:24:43Z</time>
<extensions>
<gpxtpx:TrackPointExtension>
<gpxtpx:hr>155</gpxtpx:hr>
<gpxtpx:atemp>9</gpxtpx:atemp>
</gpxtpx:TrackPointExtension>
</extensions>
</trkpt>
<trkpt lat="47.74179537780583" lon="12.210741955786943">
<ele>772</ele>
<time>2012-03-03T11:24:47Z</time>
<extensions>
<gpxtpx:TrackPointExtension>
<gpxtpx:hr>156</gpxtpx:hr>
<gpxtpx:atemp>9</gpxtpx:atemp>
</gpxtpx:TrackPointExtension>
</extensions>
</trkpt>
<trkpt lat="47.74180116131902" lon="12.210786128416657">
<ele>773</ele>
<time>2012-03-03T11:24:48Z</time>
<extensions>
<gpxtpx:TrackPointExtension>
<gpxtpx:hr>156</gpxtpx:hr>
<gpxtpx:atemp>9</gpxtpx:atemp>
</gpxtpx:TrackPointExtension>
</extensions>
</trkpt>
<trkpt lat="47.741805436089635" lon="12.210826110094786">
<ele>773</ele>
<time>2012-03-03T11:24:49Z</time>
<extensions>
<gpxtpx:TrackPointExtension>
<gpxtpx:hr>155</gpxtpx:hr>
<gpxtpx:atemp>9</gpxtpx:atemp>
</gpxtpx:TrackPointExtension>
</extensions>
</trkpt>
<trkpt lat="47.74181121960282" lon="12.21086785197258">
<ele>774</ele>
<time>2012-03-03T11:24:50Z</time>
<extensions>
<gpxtpx:TrackPointExtension>
<gpxtpx:hr>156</gpxtpx:hr>
<gpxtpx:atemp>9</gpxtpx:atemp>
</gpxtpx:TrackPointExtension>
</extensions>
</trkpt>
<trkpt lat="47.74181557819247" lon="12.210910180583596">
<ele>774</ele>
<time>2012-03-03T11:24:51Z</time>
<extensions>
<gpxtpx:TrackPointExtension>
<gpxtpx:hr>156</gpxtpx:hr>
<gpxtpx:atemp>9</gpxtpx:atemp>
</gpxtpx:TrackPointExtension>
</extensions>
</trkpt>
<trkpt lat="47.74181943386793" lon="12.210952090099454">
<ele>775</ele>
<time>2012-03-03T11:24:52Z</time>
<extensions>
<gpxtpx:TrackPointExtension>
<gpxtpx:hr>157</gpxtpx:hr>
<gpxtpx:atemp>9</gpxtpx:atemp>
</gpxtpx:TrackPointExtension>
</extensions>
</trkpt>
<trkpt lat="47.74182823486626" lon="12.211081925779581">
<ele>775</ele>
<time>2012-03-03T11:24:55Z</time>
<extensions>
<gpxtpx:TrackPointExtension>
<gpxtpx:hr>158</gpxtpx:hr>
<gpxtpx:atemp>9</gpxtpx:atemp>
</gpxtpx:TrackPointExtension>
</extensions>
</trkpt>
<trkpt lat="47.74183100089431" lon="12.211168929934502">
<ele>775</ele>
<time>2012-03-03T11:24:57Z</time>
<extensions>
<gpxtpx:TrackPointExtension>
<gpxtpx:hr>159</gpxtpx:hr>
<gpxtpx:atemp>9</gpxtpx:atemp>
</gpxtpx:TrackPointExtension>
</extensions>
</trkpt>
<trkpt lat="47.74183175526559" lon="12.21121234819293">
<ele>775</ele>
<time>2012-03-03T11:24:58Z</time>
<extensions>
<gpxtpx:TrackPointExtension>
<gpxtpx:hr>159</gpxtpx:hr>
<gpxtpx:atemp>9</gpxtpx:atemp>
</gpxtpx:TrackPointExtension>
</extensions>
</trkpt>
<trkpt lat="47.74183066561818" lon="12.211255431175232">
<ele>776</ele>
<time>2012-03-03T11:24:59Z</time>
<extensions>
<gpxtpx:TrackPointExtension>
<gpxtpx:hr>160</gpxtpx:hr>
<gpxtpx:atemp>9</gpxtpx:atemp>
</gpxtpx:TrackPointExtension>
</extensions>
</trkpt>
<trkpt lat="47.741836197674274" lon="12.211299436166883">
<ele>776</ele>
<time>2012-03-03T11:25:00Z</time>
<extensions>
<gpxtpx:TrackPointExtension>
<gpxtpx:hr>160</gpxtpx:hr>
<gpxtpx:atemp>9</gpxtpx:atemp>
</gpxtpx:TrackPointExtension>
</extensions>
</trkpt>
<trkpt lat="47.74184122681618" lon="12.211343022063375">
<ele>777</ele>
<time>2012-03-03T11:25:01Z</time>
<extensions>
<gpxtpx:TrackPointExtension>
<gpxtpx:hr>160</gpxtpx:hr>
<gpxtpx:atemp>9</gpxtpx:atemp>
</gpxtpx:TrackPointExtension>
</extensions>
</trkpt>
<trkpt lat="47.74184240028262" lon="12.21147713251412">
<ele>777</ele>
<time>2012-03-03T11:25:04Z</time>
<extensions>
<gpxtpx:TrackPointExtension>
<gpxtpx:hr>161</gpxtpx:hr>
<gpxtpx:atemp>9</gpxtpx:atemp>
</gpxtpx:TrackPointExtension>
</extensions>
</trkpt>
<trkpt lat="47.74184265173972" lon="12.211737222969532">
<ele>777</ele>
<time>2012-03-03T11:25:10Z</time>
<extensions>
<gpxtpx:TrackPointExtension>
<gpxtpx:hr>161</gpxtpx:hr>
<gpxtpx:atemp>9</gpxtpx:atemp>
</gpxtpx:TrackPointExtension>
</extensions>
</trkpt>
<trkpt lat="47.7418418135494" lon="12.211776534095407">
<ele>777</ele>
<time>2012-03-03T11:25:11Z</time>
<extensions>
<gpxtpx:TrackPointExtension>
<gpxtpx:hr>160</gpxtpx:hr>
<gpxtpx:atemp>9</gpxtpx:atemp>
</gpxtpx:TrackPointExtension>
</extensions>
</trkpt>
<trkpt lat="47.741840640082955" lon="12.211813749745488">
<ele>778</ele>
<time>2012-03-03T11:25:12Z</time>
<extensions>
<gpxtpx:TrackPointExtension>
<gpxtpx:hr>160</gpxtpx:hr>
<gpxtpx:atemp>9</gpxtpx:atemp>
</gpxtpx:TrackPointExtension>
</extensions>
</trkpt>
<trkpt lat="47.7418365329504" lon="12.21184409223497">
<ele>778</ele>
<time>2012-03-03T11:25:13Z</time>
<extensions>
<gpxtpx:TrackPointExtension>
<gpxtpx:hr>160</gpxtpx:hr>
<gpxtpx:atemp>9</gpxtpx:atemp>
</gpxtpx:TrackPointExtension>
</extensions>
</trkpt>
<trkpt lat="47.741824546828866" lon="12.21185683272779">
<ele>779</ele>
<time>2012-03-03T11:25:14Z</time>
<extensions>
<gpxtpx:TrackPointExtension>
<gpxtpx:hr>160</gpxtpx:hr>
<gpxtpx:atemp>9</gpxtpx:atemp>
</gpxtpx:TrackPointExtension>
</extensions>
</trkpt>
<trkpt lat="47.7418175060302" lon="12.211886253207922">
<ele>779</ele>
<time>2012-03-03T11:25:16Z</time>
<extensions>
<gpxtpx:TrackPointExtension>
<gpxtpx:hr>159</gpxtpx:hr>
<gpxtpx:atemp>9</gpxtpx:atemp>
</gpxtpx:TrackPointExtension>
</extensions>
</trkpt>
<trkpt lat="47.74181113578379" lon="12.212055986747146">
<ele>779</ele>
<time>2012-03-03T11:25:22Z</time>
<extensions>
<gpxtpx:TrackPointExtension>
<gpxtpx:hr>157</gpxtpx:hr>
<gpxtpx:atemp>9</gpxtpx:atemp>
</gpxtpx:TrackPointExtension>
</extensions>
</trkpt>
<trkpt lat="47.74179822765291" lon="12.212136285379529">
<ele>779</ele>
<time>2012-03-03T11:25:25Z</time>
<extensions>
<gpxtpx:TrackPointExtension>
<gpxtpx:hr>156</gpxtpx:hr>
<gpxtpx:atemp>9</gpxtpx:atemp>
</gpxtpx:TrackPointExtension>
</extensions>
</trkpt>
<trkpt lat="47.74179428815842" lon="12.212161095812917">
<ele>779</ele>
<time>2012-03-03T11:25:26Z</time>
<extensions>
<gpxtpx:TrackPointExtension>
<gpxtpx:hr>156</gpxtpx:hr>
<gpxtpx:atemp>9</gpxtpx:atemp>
</gpxtpx:TrackPointExtension>
</extensions>
</trkpt>
<trkpt lat="47.74178942665458" lon="12.21218473277986">
<ele>780</ele>
<time>2012-03-03T11:25:27Z</time>
<extensions>
<gpxtpx:TrackPointExtension>
<gpxtpx:hr>156</gpxtpx:hr>
<gpxtpx:atemp>9</gpxtpx:atemp>
</gpxtpx:TrackPointExtension>
</extensions>
</trkpt>
<trkpt lat="47.74178431369364" lon="12.212209459394217">
<ele>780</ele>
<time>2012-03-03T11:25:28Z</time>
<extensions>
<gpxtpx:TrackPointExtension>
<gpxtpx:hr>155</gpxtpx:hr>
<gpxtpx:atemp>9</gpxtpx:atemp>
</gpxtpx:TrackPointExtension>
</extensions>
</trkpt>
<trkpt lat="47.74178372696042" lon="12.212234688922763">
<ele>781</ele>
<time>2012-03-03T11:25:29Z</time>
<extensions>
<gpxtpx:TrackPointExtension>
<gpxtpx:hr>155</gpxtpx:hr>
<gpxtpx:atemp>9</gpxtpx:atemp>
</gpxtpx:TrackPointExtension>
</extensions>
</trkpt>
<trkpt lat="47.74176654405892" lon="12.21234591677785">
<ele>781</ele>
<time>2012-03-03T11:25:33Z</time>
<extensions>
<gpxtpx:TrackPointExtension>
<gpxtpx:hr>155</gpxtpx:hr>
<gpxtpx:atemp>9</gpxtpx:atemp>
</gpxtpx:TrackPointExtension>
</extensions>
</trkpt>
<trkpt lat="47.74174743331969" lon="12.212415989488363">
<ele>781</ele>
<time>2012-03-03T11:25:36Z</time>
<extensions>
<gpxtpx:TrackPointExtension>
<gpxtpx:hr>155</gpxtpx:hr>
<gpxtpx:atemp>9</gpxtpx:atemp>
</gpxtpx:TrackPointExtension>
</extensions>
</trkpt>
<trkpt lat="47.7417450863868" lon="12.212449181824923">
<ele>782</ele>
<time>2012-03-03T11:25:37Z</time>
<extensions>
<gpxtpx:TrackPointExtension>
<gpxtpx:hr>155</gpxtpx:hr>
<gpxtpx:atemp>9</gpxtpx:atemp>
</gpxtpx:TrackPointExtension>
</extensions>
</trkpt>
<trkpt lat="47.74174232035875" lon="12.212469801306725">
<ele>782</ele>
<time>2012-03-03T11:25:38Z</time>
<extensions>
<gpxtpx:TrackPointExtension>
<gpxtpx:hr>156</gpxtpx:hr>
<gpxtpx:atemp>9</gpxtpx:atemp>
</gpxtpx:TrackPointExtension>
</extensions>
</trkpt>
<trkpt lat="47.74173175916076" lon="12.212495366111398">
<ele>782</ele>
<time>2012-03-03T11:25:39Z</time>
<extensions>
<gpxtpx:TrackPointExtension>
<gpxtpx:hr>156</gpxtpx:hr>
<gpxtpx:atemp>9</gpxtpx:atemp>
</gpxtpx:TrackPointExtension>
</extensions>
</trkpt>
<trkpt lat="47.74172505363822" lon="12.212517410516739">
<ele>783</ele>
<time>2012-03-03T11:25:40Z</time>
<extensions>
<gpxtpx:TrackPointExtension>
<gpxtpx:hr>157</gpxtpx:hr>
<gpxtpx:atemp>9</gpxtpx:atemp>
</gpxtpx:TrackPointExtension>
</extensions>
</trkpt>
<trkpt lat="47.74171365424991" lon="12.212591925635934">
<ele>783</ele>
<time>2012-03-03T11:25:43Z</time>
<extensions>
<gpxtpx:TrackPointExtension>
<gpxtpx:hr>158</gpxtpx:hr>
<gpxtpx:atemp>9</gpxtpx:atemp>
</gpxtpx:TrackPointExtension>
</extensions>
</trkpt>
<trkpt lat="47.74168046191335" lon="12.21268605440855">
<ele>783</ele>
<time>2012-03-03T11:25:47Z</time>
<extensions>
<gpxtpx:TrackPointExtension>
<gpxtpx:hr>159</gpxtpx:hr>
<gpxtpx:atemp>9</gpxtpx:atemp>
</gpxtpx:TrackPointExtension>
</extensions>
</trkpt>
<trkpt lat="47.74167224764824" lon="12.212710110470653">
<ele>784</ele>
<time>2012-03-03T11:25:48Z</time>
<extensions>
<gpxtpx:TrackPointExtension>
<gpxtpx:hr>159</gpxtpx:hr>
<gpxtpx:atemp>9</gpxtpx:atemp>
</gpxtpx:TrackPointExtension>
</extensions>
</trkpt>
<trkpt lat="47.74166478775442" lon="12.21274028532207">
<ele>784</ele>
<time>2012-03-03T11:25:49Z</time>
<extensions>
<gpxtpx:TrackPointExtension>
<gpxtpx:hr>159</gpxtpx:hr>
<gpxtpx:atemp>9</gpxtpx:atemp>
</gpxtpx:TrackPointExtension>
</extensions>
</trkpt>
<trkpt lat="47.74165699258447" lon="12.212757300585508">
<ele>784</ele>
<time>2012-03-03T11:25:50Z</time>
<extensions>
<gpxtpx:TrackPointExtension>
<gpxtpx:hr>159</gpxtpx:hr>
<gpxtpx:atemp>9</gpxtpx:atemp>
</gpxtpx:TrackPointExtension>
</extensions>
</trkpt>
<trkpt lat="47.74164877831936" lon="12.212784625589848">
<ele>785</ele>
<time>2012-03-03T11:25:51Z</time>
<extensions>
<gpxtpx:TrackPointExtension>
<gpxtpx:hr>160</gpxtpx:hr>
<gpxtpx:atemp>9</gpxtpx:atemp>
</gpxtpx:TrackPointExtension>
</extensions>
</trkpt>
<trkpt lat="47.74164098314941" lon="12.212824104353786">
<ele>785</ele>
<time>2012-03-03T11:25:53Z</time>
<extensions>
<gpxtpx:TrackPointExtension>
<gpxtpx:hr>160</gpxtpx:hr>
<gpxtpx:atemp>9</gpxtpx:atemp>
</gpxtpx:TrackPointExtension>
</extensions>
</trkpt>
<trkpt lat="47.74161114357412" lon="12.212894512340426">
<ele>785</ele>
<time>2012-03-03T11:25:56Z</time>
<extensions>
<gpxtpx:TrackPointExtension>
<gpxtpx:hr>161</gpxtpx:hr>
<gpxtpx:atemp>9</gpxtpx:atemp>
</gpxtpx:TrackPointExtension>
</extensions>
</trkpt>
<trkpt lat="47.74159563705325" lon="12.212916305288672">
<ele>786</ele>
<time>2012-03-03T11:25:57Z</time>
<extensions>
<gpxtpx:TrackPointExtension>
<gpxtpx:hr>161</gpxtpx:hr>
<gpxtpx:atemp>9</gpxtpx:atemp>
</gpxtpx:TrackPointExtension>
</extensions>
</trkpt>
<trkpt lat="47.74158960208297" lon="12.212936086580157">
<ele>786</ele>
<time>2012-03-03T11:25:58Z</time>
<extensions>
<gpxtpx:TrackPointExtension>
<gpxtpx:hr>161</gpxtpx:hr>
<gpxtpx:atemp>9</gpxtpx:atemp>
</gpxtpx:TrackPointExtension>
</extensions>
</trkpt>
<trkpt lat="47.741582645103335" lon="12.212965590879321">
<ele>787</ele>
<time>2012-03-03T11:25:59Z</time>
<extensions>
<gpxtpx:TrackPointExtension>
<gpxtpx:hr>161</gpxtpx:hr>
<gpxtpx:atemp>9</gpxtpx:atemp>
</gpxtpx:TrackPointExtension>
</extensions>
</trkpt>
<trkpt lat="47.741576777771115" lon="12.212995011359453">
<ele>787</ele>
<time>2012-03-03T11:26:00Z</time>
<extensions>
<gpxtpx:TrackPointExtension>
<gpxtpx:hr>161</gpxtpx:hr>
<gpxtpx:atemp>9</gpxtpx:atemp>
</gpxtpx:TrackPointExtension>
</extensions>
</trkpt>
<trkpt lat="47.74154467508197" lon="12.213051337748766">
<ele>787</ele>
<time>2012-03-03T11:26:03Z</time>
<extensions>
<gpxtpx:TrackPointExtension>
<gpxtpx:hr>162</gpxtpx:hr>
<gpxtpx:atemp>9</gpxtpx:atemp>
</gpxtpx:TrackPointExtension>
</extensions>
</trkpt>
<trkpt lat="47.74150947108865" lon="12.213090481236577">
<ele>787</ele>
<time>2012-03-03T11:26:05Z</time>
<extensions>
<gpxtpx:TrackPointExtension>
<gpxtpx:hr>161</gpxtpx:hr>
<gpxtpx:atemp>9</gpxtpx:atemp>
</gpxtpx:TrackPointExtension>
</extensions>
</trkpt>
<trkpt lat="47.74147334508598" lon="12.213199362158775">
<ele>787</ele>
<time>2012-03-03T11:26:10Z</time>
<extensions>
<gpxtpx:TrackPointExtension>
<gpxtpx:hr>160</gpxtpx:hr>
<gpxtpx:atemp>9</gpxtpx:atemp>
</gpxtpx:TrackPointExtension>
</extensions>
</trkpt>
<trkpt lat="47.74145976640284" lon="12.21321520395577">
<ele>788</ele>
<time>2012-03-03T11:26:11Z</time>
<extensions>
<gpxtpx:TrackPointExtension>
<gpxtpx:hr>159</gpxtpx:hr>
<gpxtpx:atemp>9</gpxtpx:atemp>
</gpxtpx:TrackPointExtension>
</extensions>
</trkpt>
<trkpt lat="47.741450630128384" lon="12.213238840922713">
<ele>788</ele>
<time>2012-03-03T11:26:12Z</time>
<extensions>
<gpxtpx:TrackPointExtension>
<gpxtpx:hr>159</gpxtpx:hr>
<gpxtpx:atemp>9</gpxtpx:atemp>
</gpxtpx:TrackPointExtension>
</extensions>
</trkpt>
<trkpt lat="47.74143738672137" lon="12.213258789852262">
<ele>789</ele>
<time>2012-03-03T11:26:13Z</time>
<extensions>
<gpxtpx:TrackPointExtension>
<gpxtpx:hr>158</gpxtpx:hr>
<gpxtpx:atemp>9</gpxtpx:atemp>
</gpxtpx:TrackPointExtension>
</extensions>
</trkpt>
<trkpt lat="47.74142883718014" lon="12.213289719074965">
<ele>789</ele>
<time>2012-03-03T11:26:14Z</time>
<extensions>
<gpxtpx:TrackPointExtension>
<gpxtpx:hr>158</gpxtpx:hr>
<gpxtpx:atemp>9</gpxtpx:atemp>
</gpxtpx:TrackPointExtension>
</extensions>
</trkpt>
<trkpt lat="47.74138977751136" lon="12.21337353810668">
<ele>789</ele>
<time>2012-03-03T11:26:17Z</time>
<extensions>
<gpxtpx:TrackPointExtension>
<gpxtpx:hr>157</gpxtpx:hr>
<gpxtpx:atemp>9</gpxtpx:atemp>
</gpxtpx:TrackPointExtension>
</extensions>
</trkpt>
<trkpt lat="47.741264551877975" lon="12.213509744033217">
<ele>789</ele>
<time>2012-03-03T11:26:23Z</time>
<extensions>
<gpxtpx:TrackPointExtension>
<gpxtpx:hr>154</gpxtpx:hr>
<gpxtpx:atemp>9</gpxtpx:atemp>
</gpxtpx:TrackPointExtension>
</extensions>
</trkpt>
<trkpt lat="47.7412339579314" lon="12.213535644114017">
<ele>789</ele>
<time>2012-03-03T11:26:24Z</time>
<extensions>
<gpxtpx:TrackPointExtension>
<gpxtpx:hr>154</gpxtpx:hr>
<gpxtpx:atemp>9</gpxtpx:atemp>
</gpxtpx:TrackPointExtension>
</extensions>
</trkpt>
<trkpt lat="47.74116028100252" lon="12.21359440125525">
<ele>789</ele>
<time>2012-03-03T11:26:26Z</time>
<extensions>
<gpxtpx:TrackPointExtension>
<gpxtpx:hr>153</gpxtpx:hr>
<gpxtpx:atemp>9</gpxtpx:atemp>
</gpxtpx:TrackPointExtension>
</extensions>
</trkpt>
<trkpt lat="47.74106279946864" lon="12.213644105941057">
<ele>789</ele>
<time>2012-03-03T11:26:28Z</time>
<extensions>
<gpxtpx:TrackPointExtension>
<gpxtpx:hr>152</gpxtpx:hr>
<gpxtpx:atemp>9</gpxtpx:atemp>
</gpxtpx:TrackPointExtension>
</extensions>
</trkpt>
<trkpt lat="47.74089667014778" lon="12.213761201128364">
<ele>789</ele>
<time>2012-03-03T11:26:31Z</time>
<extensions>
<gpxtpx:TrackPointExtension>
<gpxtpx:hr>150</gpxtpx:hr>
<gpxtpx:atemp>9</gpxtpx:atemp>
</gpxtpx:TrackPointExtension>
</extensions>
</trkpt>
<trkpt lat="47.740809163078666" lon="12.213862286880612">
<ele>789</ele>
<time>2012-03-03T11:26:33Z</time>
<extensions>
<gpxtpx:TrackPointExtension>
<gpxtpx:hr>150</gpxtpx:hr>
<gpxtpx:atemp>9</gpxtpx:atemp>
</gpxtpx:TrackPointExtension>
</extensions>
</trkpt>
<trkpt lat="47.74073037318885" lon="12.214115504175425">
<ele>789</ele>
<time>2012-03-03T11:26:37Z</time>
<extensions>
<gpxtpx:TrackPointExtension>
<gpxtpx:hr>150</gpxtpx:hr>
<gpxtpx:atemp>9</gpxtpx:atemp>
</gpxtpx:TrackPointExtension>
</extensions>
</trkpt>
<trkpt lat="47.74079474620521" lon="12.214279370382428">
<ele>789</ele>
<time>2012-03-03T11:26:40Z</time>
<extensions>
<gpxtpx:TrackPointExtension>
<gpxtpx:hr>148</gpxtpx:hr>
<gpxtpx:atemp>9</gpxtpx:atemp>
</gpxtpx:TrackPointExtension>
</extensions>
</trkpt>
<trkpt lat="47.7408626396209" lon="12.214325135573745">
<ele>789</ele>
<time>2012-03-03T11:26:42Z</time>
<extensions>
<gpxtpx:TrackPointExtension>
<gpxtpx:hr>145</gpxtpx:hr>
<gpxtpx:atemp>9</gpxtpx:atemp>
</gpxtpx:TrackPointExtension>
</extensions>
</trkpt>
<trkpt lat="47.74089298211038" lon="12.214347682893276">
<ele>789</ele>
<time>2012-03-03T11:26:43Z</time>
<extensions>
<gpxtpx:TrackPointExtension>
<gpxtpx:hr>144</gpxtpx:hr>
<gpxtpx:atemp>9</gpxtpx:atemp>
</gpxtpx:TrackPointExtension>
</extensions>
</trkpt>
<trkpt lat="47.7410336304456" lon="12.214442817494273">
<ele>789</ele>
<time>2012-03-03T11:26:47Z</time>
<extensions>
<gpxtpx:TrackPointExtension>
<gpxtpx:hr>142</gpxtpx:hr>
<gpxtpx:atemp>9</gpxtpx:atemp>
</gpxtpx:TrackPointExtension>
</extensions>
</trkpt>
<trkpt lat="47.74104679003358" lon="12.214499646797776">
<ele>789</ele>
<time>2012-03-03T11:26:49Z</time>
<extensions>
<gpxtpx:TrackPointExtension>
<gpxtpx:hr>144</gpxtpx:hr>
<gpxtpx:atemp>9</gpxtpx:atemp>
</gpxtpx:TrackPointExtension>
</extensions>
</trkpt>
<trkpt lat="47.74105475284159" lon="12.214544489979744">
<ele>790</ele>
<time>2012-03-03T11:26:50Z</time>
<extensions>
<gpxtpx:TrackPointExtension>
<gpxtpx:hr>145</gpxtpx:hr>
<gpxtpx:atemp>9</gpxtpx:atemp>
</gpxtpx:TrackPointExtension>
</extensions>
</trkpt>
<trkpt lat="47.74105676449835" lon="12.214595535770059">
<ele>790</ele>
<time>2012-03-03T11:26:51Z</time>
<extensions>
<gpxtpx:TrackPointExtension>
<gpxtpx:hr>147</gpxtpx:hr>
<gpxtpx:atemp>9</gpxtpx:atemp>
</gpxtpx:TrackPointExtension>
</extensions>
</trkpt>
<trkpt lat="47.74105064570904" lon="12.214646078646183">
<ele>791</ele>
<time>2012-03-03T11:26:52Z</time>
<extensions>
<gpxtpx:TrackPointExtension>
<gpxtpx:hr>148</gpxtpx:hr>
<gpxtpx:atemp>9</gpxtpx:atemp>
</gpxtpx:TrackPointExtension>
</extensions>
</trkpt>
<trkpt lat="47.7410423476249" lon="12.214690586552024">
<ele>791</ele>
<time>2012-03-03T11:26:53Z</time>
<extensions>
<gpxtpx:TrackPointExtension>
<gpxtpx:hr>149</gpxtpx:hr>
<gpxtpx:atemp>9</gpxtpx:atemp>
</gpxtpx:TrackPointExtension>
</extensions>
</trkpt>
<trkpt lat="47.74103505536914" lon="12.214740458875895">
<ele>792</ele>
<time>2012-03-03T11:26:54Z</time>
<extensions>
<gpxtpx:TrackPointExtension>
<gpxtpx:hr>150</gpxtpx:hr>
<gpxtpx:atemp>9</gpxtpx:atemp>
</gpxtpx:TrackPointExtension>
</extensions>
</trkpt>
<trkpt lat="47.74103354662657" lon="12.214789241552353">
<ele>792</ele>
<time>2012-03-03T11:26:55Z</time>
<extensions>
<gpxtpx:TrackPointExtension>
<gpxtpx:hr>151</gpxtpx:hr>
<gpxtpx:atemp>9</gpxtpx:atemp>
</gpxtpx:TrackPointExtension>
</extensions>
</trkpt>
<trkpt lat="47.741042263805866" lon="12.214829474687576">
<ele>792</ele>
<time>2012-03-03T11:26:56Z</time>
<extensions>
<gpxtpx:TrackPointExtension>
<gpxtpx:hr>153</gpxtpx:hr>
<gpxtpx:atemp>9</gpxtpx:atemp>
</gpxtpx:TrackPointExtension>
</extensions>
</trkpt>
<trkpt lat="47.74105039425194" lon="12.214867696166039">
<ele>793</ele>
<time>2012-03-03T11:26:57Z</time>
<extensions>
<gpxtpx:TrackPointExtension>
<gpxtpx:hr>154</gpxtpx:hr>
<gpxtpx:atemp>9</gpxtpx:atemp>
</gpxtpx:TrackPointExtension>
</extensions>
</trkpt>
<trkpt lat="47.74107336066663" lon="12.214904576539993">
<ele>793</ele>
<time>2012-03-03T11:26:58Z</time>
<extensions>
<gpxtpx:TrackPointExtension>
<gpxtpx:hr>155</gpxtpx:hr>
<gpxtpx:atemp>9</gpxtpx:atemp>
</gpxtpx:TrackPointExtension>
</extensions>
</trkpt>
<trkpt lat="47.74109096266329" lon="12.214929889887571">
<ele>794</ele>
<time>2012-03-03T11:26:59Z</time>
<extensions>
<gpxtpx:TrackPointExtension>
<gpxtpx:hr>156</gpxtpx:hr>
<gpxtpx:atemp>9</gpxtpx:atemp>
</gpxtpx:TrackPointExtension>
</extensions>
</trkpt>
<trkpt lat="47.7412270847708" lon="12.215013289824128">
<ele>794</ele>
<time>2012-03-03T11:27:03Z</time>
<extensions>
<gpxtpx:TrackPointExtension>
<gpxtpx:hr>159</gpxtpx:hr>
<gpxtpx:atemp>9</gpxtpx:atemp>
</gpxtpx:TrackPointExtension>
</extensions>
</trkpt>
<trkpt lat="47.741262624040246" lon="12.215024270117283">
<ele>794</ele>
<time>2012-03-03T11:27:04Z</time>
<extensions>
<gpxtpx:TrackPointExtension>
<gpxtpx:hr>160</gpxtpx:hr>
<gpxtpx:atemp>9</gpxtpx:atemp>
</gpxtpx:TrackPointExtension>
</extensions>
</trkpt>
<trkpt lat="47.741300174966455" lon="12.215034663677216">
<ele>795</ele>
<time>2012-03-03T11:27:05Z</time>
<extensions>
<gpxtpx:TrackPointExtension>
<gpxtpx:hr>160</gpxtpx:hr>
<gpxtpx:atemp>9</gpxtpx:atemp>
</gpxtpx:TrackPointExtension>
</extensions>
</trkpt>
<trkpt lat="47.74133521132171" lon="12.215043129399419">
<ele>795</ele>
<time>2012-03-03T11:27:06Z</time>
<extensions>
<gpxtpx:TrackPointExtension>
<gpxtpx:hr>161</gpxtpx:hr>
<gpxtpx:atemp>9</gpxtpx:atemp>
</gpxtpx:TrackPointExtension>
</extensions>
</trkpt>
<trkpt lat="47.741373935714364" lon="12.21506617963314">
<ele>795</ele>
<time>2012-03-03T11:27:07Z</time>
<extensions>
<gpxtpx:TrackPointExtension>
<gpxtpx:hr>161</gpxtpx:hr>
<gpxtpx:atemp>9</gpxtpx:atemp>
</gpxtpx:TrackPointExtension>
</extensions>
</trkpt>
<trkpt lat="47.74141374975443" lon="12.215071124956012">
<ele>796</ele>
<time>2012-03-03T11:27:08Z</time>
<extensions>
<gpxtpx:TrackPointExtension>
<gpxtpx:hr>161</gpxtpx:hr>
<gpxtpx:atemp>9</gpxtpx:atemp>
</gpxtpx:TrackPointExtension>
</extensions>
</trkpt>
<trkpt lat="47.74148172698915" lon="12.215111525729299">
<ele>796</ele>
<time>2012-03-03T11:27:10Z</time>
<extensions>
<gpxtpx:TrackPointExtension>
<gpxtpx:hr>162</gpxtpx:hr>
<gpxtpx:atemp>9</gpxtpx:atemp>
</gpxtpx:TrackPointExtension>
</extensions>
</trkpt>
<trkpt lat="47.74164735339582" lon="12.215246222913265">
<ele>796</ele>
<time>2012-03-03T11:27:15Z</time>
<extensions>
<gpxtpx:TrackPointExtension>
<gpxtpx:hr>163</gpxtpx:hr>
<gpxtpx:atemp>9</gpxtpx:atemp>
</gpxtpx:TrackPointExtension>
</extensions>
</trkpt>
<trkpt lat="47.74184424430132" lon="12.215278409421444">
<ele>796</ele>
<time>2012-03-03T11:27:20Z</time>
<extensions>
<gpxtpx:TrackPointExtension>
<gpxtpx:hr>162</gpxtpx:hr>
<gpxtpx:atemp>9</gpxtpx:atemp>
</gpxtpx:TrackPointExtension>
</extensions>
</trkpt>
<trkpt lat="47.741916915401816" lon="12.215287294238806">
<ele>796</ele>
<time>2012-03-03T11:27:22Z</time>
<extensions>
<gpxtpx:TrackPointExtension>
<gpxtpx:hr>162</gpxtpx:hr>
<gpxtpx:atemp>9</gpxtpx:atemp>
</gpxtpx:TrackPointExtension>
</extensions>
</trkpt>
<trkpt lat="47.74195471778512" lon="12.215306237339973">
<ele>797</ele>
<time>2012-03-03T11:27:23Z</time>
<extensions>
<gpxtpx:TrackPointExtension>
<gpxtpx:hr>162</gpxtpx:hr>
<gpxtpx:atemp>9</gpxtpx:atemp>
</gpxtpx:TrackPointExtension>
</extensions>
</trkpt>
<trkpt lat="47.74198371917009" lon="12.215327359735966">
<ele>797</ele>
<time>2012-03-03T11:27:24Z</time>
<extensions>
<gpxtpx:TrackPointExtension>
<gpxtpx:hr>162</gpxtpx:hr>
<gpxtpx:atemp>9</gpxtpx:atemp>
</gpxtpx:TrackPointExtension>
</extensions>
</trkpt>
<trkpt lat="47.742016492411494" lon="12.215349236503243">
<ele>798</ele>
<time>2012-03-03T11:27:25Z</time>
<extensions>
<gpxtpx:TrackPointExtension>
<gpxtpx:hr>161</gpxtpx:hr>
<gpxtpx:atemp>9</gpxtpx:atemp>
</gpxtpx:TrackPointExtension>
</extensions>
</trkpt>
<trkpt lat="47.74204893037677" lon="12.215377567335963">
<ele>798</ele>
<time>2012-03-03T11:27:26Z</time>
<extensions>
<gpxtpx:TrackPointExtension>
<gpxtpx:hr>162</gpxtpx:hr>
<gpxtpx:atemp>9</gpxtpx:atemp>
</gpxtpx:TrackPointExtension>
</extensions>
</trkpt>
<trkpt lat="47.74223995395005" lon="12.215564399957657">
<ele>798</ele>
<time>2012-03-03T11:27:32Z</time>
<extensions>
<gpxtpx:TrackPointExtension>
<gpxtpx:hr>160</gpxtpx:hr>
<gpxtpx:atemp>9</gpxtpx:atemp>
</gpxtpx:TrackPointExtension>
</extensions>
</trkpt>
<trkpt lat="47.74243650957942" lon="12.21570429392159">
<ele>798</ele>
<time>2012-03-03T11:27:38Z</time>
<extensions>
<gpxtpx:TrackPointExtension>
<gpxtpx:hr>159</gpxtpx:hr>
<gpxtpx:atemp>9</gpxtpx:atemp>
</gpxtpx:TrackPointExtension>
</extensions>
</trkpt>
<trkpt lat="47.742518316954374" lon="12.215739833191037">
<ele>798</ele>
<time>2012-03-03T11:27:42Z</time>
<extensions>
<gpxtpx:TrackPointExtension>
<gpxtpx:hr>158</gpxtpx:hr>
<gpxtpx:atemp>9</gpxtpx:atemp>
</gpxtpx:TrackPointExtension>
</extensions>
</trkpt>
<trkpt lat="47.74268000386655" lon="12.215796746313572">
<ele>798</ele>
<time>2012-03-03T11:27:47Z</time>
<extensions>
<gpxtpx:TrackPointExtension>
<gpxtpx:hr>156</gpxtpx:hr>
<gpxtpx:atemp>9</gpxtpx:atemp>
</gpxtpx:TrackPointExtension>
</extensions>
</trkpt>
<trkpt lat="47.742825681343675" lon="12.215852653607726">
<ele>798</ele>
<time>2012-03-03T11:27:51Z</time>
<extensions>
<gpxtpx:TrackPointExtension>
<gpxtpx:hr>153</gpxtpx:hr>
<gpxtpx:atemp>9</gpxtpx:atemp>
</gpxtpx:TrackPointExtension>
</extensions>
</trkpt>
<trkpt lat="47.74286599829793" lon="12.215873189270496">
<ele>798</ele>
<time>2012-03-03T11:27:52Z</time>
<extensions>
<gpxtpx:TrackPointExtension>
<gpxtpx:hr>152</gpxtpx:hr>
<gpxtpx:atemp>9</gpxtpx:atemp>
</gpxtpx:TrackPointExtension>
</extensions>
</trkpt>
<trkpt lat="47.74295216426253" lon="12.215922642499208">
<ele>798</ele>
<time>2012-03-03T11:27:54Z</time>
<extensions>
<gpxtpx:TrackPointExtension>
<gpxtpx:hr>148</gpxtpx:hr>
<gpxtpx:atemp>9</gpxtpx:atemp>
</gpxtpx:TrackPointExtension>
</extensions>
</trkpt>
<trkpt lat="47.743117455393076" lon="12.216036636382341">
<ele>798</ele>
<time>2012-03-03T11:27:58Z</time>
<extensions>
<gpxtpx:TrackPointExtension>
<gpxtpx:hr>145</gpxtpx:hr>
<gpxtpx:atemp>9</gpxtpx:atemp>
</gpxtpx:TrackPointExtension>
</extensions>
</trkpt>
<trkpt lat="47.743240585550666" lon="12.21614115871489">
<ele>798</ele>
<time>2012-03-03T11:28:01Z</time>
<extensions>
<gpxtpx:TrackPointExtension>
<gpxtpx:hr>143</gpxtpx:hr>
<gpxtpx:atemp>9</gpxtpx:atemp>
</gpxtpx:TrackPointExtension>
</extensions>
</trkpt>
<trkpt lat="47.74336262606084" lon="12.2162373829633">
<ele>798</ele>
<time>2012-03-03T11:28:04Z</time>
<extensions>
<gpxtpx:TrackPointExtension>
<gpxtpx:hr>140</gpxtpx:hr>
<gpxtpx:atemp>9</gpxtpx:atemp>
</gpxtpx:TrackPointExtension>
</extensions>
</trkpt>
<trkpt lat="47.74340696632862" lon="12.216260936111212">
<ele>798</ele>
<time>2012-03-03T11:28:05Z</time>
<extensions>
<gpxtpx:TrackPointExtension>
<gpxtpx:hr>140</gpxtpx:hr>
<gpxtpx:atemp>9</gpxtpx:atemp>
</gpxtpx:TrackPointExtension>
</extensions>
</trkpt>
<trkpt lat="47.743548871949315" lon="12.21625255420804">
<ele>798</ele>
<time>2012-03-03T11:28:08Z</time>
<extensions>
<gpxtpx:TrackPointExtension>
<gpxtpx:hr>137</gpxtpx:hr>
<gpxtpx:atemp>9</gpxtpx:atemp>
</gpxtpx:TrackPointExtension>
</extensions>
</trkpt>
<trkpt lat="47.7435927093029" lon="12.216224474832416">
<ele>798</ele>
<time>2012-03-03T11:28:09Z</time>
<extensions>
<gpxtpx:TrackPointExtension>
<gpxtpx:hr>136</gpxtpx:hr>
<gpxtpx:atemp>9</gpxtpx:atemp>
</gpxtpx:TrackPointExtension>
</extensions>
</trkpt>
<trkpt lat="47.74369228631258" lon="12.216158509254456">
<ele>798</ele>
<time>2012-03-03T11:28:11Z</time>
<extensions>
<gpxtpx:TrackPointExtension>
<gpxtpx:hr>135</gpxtpx:hr>
<gpxtpx:atemp>9</gpxtpx:atemp>
</gpxtpx:TrackPointExtension>
</extensions>
</trkpt>
<trkpt lat="47.743831845000386" lon="12.216066308319569">
<ele>798</ele>
<time>2012-03-03T11:28:13Z</time>
<extensions>
<gpxtpx:TrackPointExtension>
<gpxtpx:hr>134</gpxtpx:hr>
<gpxtpx:atemp>9</gpxtpx:atemp>
</gpxtpx:TrackPointExtension>
</extensions>
</trkpt>
<trkpt lat="47.74390770122409" lon="12.21601844765246">
<ele>798</ele>
<time>2012-03-03T11:28:14Z</time>
<extensions>
<gpxtpx:TrackPointExtension>
<gpxtpx:hr>133</gpxtpx:hr>
<gpxtpx:atemp>9</gpxtpx:atemp>
</gpxtpx:TrackPointExtension>
</extensions>
</trkpt>
<trkpt lat="47.74397425353527" lon="12.215977711603045">
<ele>797</ele>
<time>2012-03-03T11:28:15Z</time>
<extensions>
<gpxtpx:TrackPointExtension>
<gpxtpx:hr>132</gpxtpx:hr>
<gpxtpx:atemp>9</gpxtpx:atemp>
</gpxtpx:TrackPointExtension>
</extensions>
</trkpt>
<trkpt lat="47.74403678253293" lon="12.215930940583348">
<ele>797</ele>
<time>2012-03-03T11:28:16Z</time>
<extensions>
<gpxtpx:TrackPointExtension>
<gpxtpx:hr>132</gpxtpx:hr>
<gpxtpx:atemp>9</gpxtpx:atemp>
</gpxtpx:TrackPointExtension>
</extensions>
</trkpt>
<trkpt lat="47.74409788660705" lon="12.21588073298335">
<ele>796</ele>
<time>2012-03-03T11:28:17Z</time>
<extensions>
<gpxtpx:TrackPointExtension>
<gpxtpx:hr>133</gpxtpx:hr>
<gpxtpx:atemp>8</gpxtpx:atemp>
</gpxtpx:TrackPointExtension>
</extensions>
</trkpt>
<trkpt lat="47.74415211752057" lon="12.215839074924588">
<ele>796</ele>
<time>2012-03-03T11:28:18Z</time>
<extensions>
<gpxtpx:TrackPointExtension>
<gpxtpx:hr>133</gpxtpx:hr>
<gpxtpx:atemp>8</gpxtpx:atemp>
</gpxtpx:TrackPointExtension>
</extensions>
</trkpt>
<trkpt lat="47.74421464651823" lon="12.215808816254139">
<ele>795</ele>
<time>2012-03-03T11:28:19Z</time>
<extensions>
<gpxtpx:TrackPointExtension>
<gpxtpx:hr>133</gpxtpx:hr>
<gpxtpx:atemp>8</gpxtpx:atemp>
</gpxtpx:TrackPointExtension>
</extensions>
</trkpt>
<trkpt lat="47.74427868425846" lon="12.215783670544624">
<ele>795</ele>
<time>2012-03-03T11:28:20Z</time>
<extensions>
<gpxtpx:TrackPointExtension>
<gpxtpx:hr>133</gpxtpx:hr>
<gpxtpx:atemp>8</gpxtpx:atemp>
</gpxtpx:TrackPointExtension>
</extensions>
</trkpt>
<trkpt lat="47.744346829131246" lon="12.215768415480852">
<ele>794</ele>
<time>2012-03-03T11:28:21Z</time>
<extensions>
<gpxtpx:TrackPointExtension>
<gpxtpx:hr>132</gpxtpx:hr>
<gpxtpx:atemp>8</gpxtpx:atemp>
</gpxtpx:TrackPointExtension>
</extensions>
</trkpt>
<trkpt lat="47.74441338144243" lon="12.215774534270167">
<ele>794</ele>
<time>2012-03-03T11:28:22Z</time>
<extensions>
<gpxtpx:TrackPointExtension>
<gpxtpx:hr>131</gpxtpx:hr>
<gpxtpx:atemp>8</gpxtpx:atemp>
</gpxtpx:TrackPointExtension>
</extensions>
</trkpt>
<trkpt lat="47.744478173553944" lon="12.215790962800384">
<ele>793</ele>
<time>2012-03-03T11:28:23Z</time>
<extensions>
<gpxtpx:TrackPointExtension>
<gpxtpx:hr>130</gpxtpx:hr>
<gpxtpx:atemp>8</gpxtpx:atemp>
</gpxtpx:TrackPointExtension>
</extensions>
</trkpt>
<trkpt lat="47.744600381702185" lon="12.215845109894872">
<ele>793</ele>
<time>2012-03-03T11:28:25Z</time>
<extensions>
<gpxtpx:TrackPointExtension>
<gpxtpx:hr>127</gpxtpx:hr>
<gpxtpx:atemp>8</gpxtpx:atemp>
</gpxtpx:TrackPointExtension>
</extensions>
</trkpt>
<trkpt lat="47.744660982862115" lon="12.215884421020746">
<ele>793</ele>
<time>2012-03-03T11:28:26Z</time>
<extensions>
<gpxtpx:TrackPointExtension>
<gpxtpx:hr>127</gpxtpx:hr>
<gpxtpx:atemp>8</gpxtpx:atemp>
</gpxtpx:TrackPointExtension>
</extensions>
</trkpt>
<trkpt lat="47.74471295066178" lon="12.215920882299542">
<ele>793</ele>
<time>2012-03-03T11:28:27Z</time>
<extensions>
<gpxtpx:TrackPointExtension>
<gpxtpx:hr>127</gpxtpx:hr>
<gpxtpx:atemp>8</gpxtpx:atemp>
</gpxtpx:TrackPointExtension>
</extensions>
</trkpt>
<trkpt lat="47.744879834353924" lon="12.216028925031424">
<ele>793</ele>
<time>2012-03-03T11:28:30Z</time>
<extensions>
<gpxtpx:TrackPointExtension>
<gpxtpx:hr>129</gpxtpx:hr>
<gpxtpx:atemp>8</gpxtpx:atemp>
</gpxtpx:TrackPointExtension>
</extensions>
</trkpt>
<trkpt lat="47.74493599310517" lon="12.216071924194694">
<ele>793</ele>
<time>2012-03-03T11:28:31Z</time>
<extensions>
<gpxtpx:TrackPointExtension>
<gpxtpx:hr>129</gpxtpx:hr>
<gpxtpx:atemp>8</gpxtpx:atemp>
</gpxtpx:TrackPointExtension>
</extensions>
</trkpt>
<trkpt lat="47.74499877355993" lon="12.216112073510885">
<ele>792</ele>
<time>2012-03-03T11:28:32Z</time>
<extensions>
<gpxtpx:TrackPointExtension>
<gpxtpx:hr>128</gpxtpx:hr>
<gpxtpx:atemp>8</gpxtpx:atemp>
</gpxtpx:TrackPointExtension>
</extensions>
</trkpt>
<trkpt lat="47.74506138637662" lon="12.216147696599364">
<ele>792</ele>
<time>2012-03-03T11:28:33Z</time>
<extensions>
<gpxtpx:TrackPointExtension>
<gpxtpx:hr>125</gpxtpx:hr>
<gpxtpx:atemp>8</gpxtpx:atemp>
</gpxtpx:TrackPointExtension>
</extensions>
</trkpt>
<trkpt lat="47.74512332864106" lon="12.216187678277493">
<ele>791</ele>
<time>2012-03-03T11:28:34Z</time>
<extensions>
<gpxtpx:TrackPointExtension>
<gpxtpx:hr>120</gpxtpx:hr>
<gpxtpx:atemp>8</gpxtpx:atemp>
</gpxtpx:TrackPointExtension>
</extensions>
</trkpt>
<trkpt lat="47.74518300779164" lon="12.216224558651447">
<ele>791</ele>
<time>2012-03-03T11:28:35Z</time>
<extensions>
<gpxtpx:TrackPointExtension>
<gpxtpx:hr>120</gpxtpx:hr>
<gpxtpx:atemp>8</gpxtpx:atemp>
</gpxtpx:TrackPointExtension>
</extensions>
</trkpt>
<trkpt lat="47.74536942131817" lon="12.216344755142927">
<ele>791</ele>
<time>2012-03-03T11:28:38Z</time>
<extensions>
<gpxtpx:TrackPointExtension>
<gpxtpx:hr>123</gpxtpx:hr>
<gpxtpx:atemp>8</gpxtpx:atemp>
</gpxtpx:TrackPointExtension>
</extensions>
</trkpt>
<trkpt lat="47.74549439549446" lon="12.216426143422723">
<ele>791</ele>
<time>2012-03-03T11:28:40Z</time>
<extensions>
<gpxtpx:TrackPointExtension>
<gpxtpx:hr>127</gpxtpx:hr>
<gpxtpx:atemp>8</gpxtpx:atemp>
</gpxtpx:TrackPointExtension>
</extensions>
</trkpt>
<trkpt lat="47.745554242283106" lon="12.216470316052437">
<ele>791</ele>
<time>2012-03-03T11:28:41Z</time>
<extensions>
<gpxtpx:TrackPointExtension>
<gpxtpx:hr>128</gpxtpx:hr>
<gpxtpx:atemp>8</gpxtpx:atemp>
</gpxtpx:TrackPointExtension>
</extensions>
</trkpt>
<trkpt lat="47.74561744183302" lon="12.21651247702539">
<ele>791</ele>
<time>2012-03-03T11:28:42Z</time>
<extensions>
<gpxtpx:TrackPointExtension>
<gpxtpx:hr>130</gpxtpx:hr>
<gpxtpx:atemp>8</gpxtpx:atemp>
</gpxtpx:TrackPointExtension>
</extensions>
</trkpt>
<trkpt lat="47.74567645043135" lon="12.216550027951598">
<ele>790</ele>
<time>2012-03-03T11:28:43Z</time>
<extensions>
<gpxtpx:TrackPointExtension>
<gpxtpx:hr>131</gpxtpx:hr>
<gpxtpx:atemp>8</gpxtpx:atemp>
</gpxtpx:TrackPointExtension>
</extensions>
</trkpt>
<trkpt lat="47.74573428556323" lon="12.2165896743536">
<ele>790</ele>
<time>2012-03-03T11:28:44Z</time>
<extensions>
<gpxtpx:TrackPointExtension>
<gpxtpx:hr>131</gpxtpx:hr>
<gpxtpx:atemp>8</gpxtpx:atemp>
</gpxtpx:TrackPointExtension>
</extensions>
</trkpt>
<trkpt lat="47.74579245597124" lon="12.216632589697838">
<ele>789</ele>
<time>2012-03-03T11:28:45Z</time>
<extensions>
<gpxtpx:TrackPointExtension>
<gpxtpx:hr>132</gpxtpx:hr>
<gpxtpx:atemp>8</gpxtpx:atemp>
</gpxtpx:TrackPointExtension>
</extensions>
</trkpt>
<trkpt lat="47.74610116146505" lon="12.216838700696826">
<ele>789</ele>
<time>2012-03-03T11:28:50Z</time>
<extensions>
<gpxtpx:TrackPointExtension>
<gpxtpx:hr>130</gpxtpx:hr>
<gpxtpx:atemp>8</gpxtpx:atemp>
</gpxtpx:TrackPointExtension>
</extensions>
</trkpt>
<trkpt lat="47.74615949951112" lon="12.216877425089478">
<ele>788</ele>
<time>2012-03-03T11:28:51Z</time>
<extensions>
<gpxtpx:TrackPointExtension>
<gpxtpx:hr>130</gpxtpx:hr>
<gpxtpx:atemp>8</gpxtpx:atemp>
</gpxtpx:TrackPointExtension>
</extensions>
</trkpt>
<trkpt lat="47.74621984921396" lon="12.21690340898931">
<ele>788</ele>
<time>2012-03-03T11:28:52Z</time>
<extensions>
<gpxtpx:TrackPointExtension>
<gpxtpx:hr>131</gpxtpx:hr>
<gpxtpx:atemp>8</gpxtpx:atemp>
</gpxtpx:TrackPointExtension>
</extensions>
</trkpt>
<trkpt lat="47.74627843871713" lon="12.2169298119843">
<ele>788</ele>
<time>2012-03-03T11:28:53Z</time>
<extensions>
<gpxtpx:TrackPointExtension>
<gpxtpx:hr>132</gpxtpx:hr>
<gpxtpx:atemp>8</gpxtpx:atemp>
</gpxtpx:TrackPointExtension>
</extensions>
</trkpt>
<trkpt lat="47.74633870460093" lon="12.216951102018356">
<ele>787</ele>
<time>2012-03-03T11:28:54Z</time>
<extensions>
<gpxtpx:TrackPointExtension>
<gpxtpx:hr>132</gpxtpx:hr>
<gpxtpx:atemp>8</gpxtpx:atemp>
</gpxtpx:TrackPointExtension>
</extensions>
</trkpt>
<trkpt lat="47.746416656300426" lon="12.216975493356586">
<ele>787</ele>
<time>2012-03-03T11:28:56Z</time>
<extensions>
<gpxtpx:TrackPointExtension>
<gpxtpx:hr>131</gpxtpx:hr>
<gpxtpx:atemp>8</gpxtpx:atemp>
</gpxtpx:TrackPointExtension>
</extensions>
</trkpt>
<trkpt lat="47.746441969648004" lon="12.216980941593647">
<ele>787</ele>
<time>2012-03-03T11:28:57Z</time>
<extensions>
<gpxtpx:TrackPointExtension>
<gpxtpx:hr>131</gpxtpx:hr>
<gpxtpx:atemp>8</gpxtpx:atemp>
</gpxtpx:TrackPointExtension>
</extensions>
</trkpt>
<trkpt lat="47.74646770209074" lon="12.217001980170608">
<ele>786</ele>
<time>2012-03-03T11:28:58Z</time>
<extensions>
<gpxtpx:TrackPointExtension>
<gpxtpx:hr>130</gpxtpx:hr>
<gpxtpx:atemp>8</gpxtpx:atemp>
</gpxtpx:TrackPointExtension>
</extensions>
</trkpt>
<trkpt lat="47.74647541344166" lon="12.217005835846066">
<ele>786</ele>
<time>2012-03-03T11:28:59Z</time>
<extensions>
<gpxtpx:TrackPointExtension>
<gpxtpx:hr>128</gpxtpx:hr>
<gpxtpx:atemp>8</gpxtpx:atemp>
</gpxtpx:TrackPointExtension>
</extensions>
</trkpt>
<trkpt lat="47.74648128077388" lon="12.217012289911509">
<ele>785</ele>
<time>2012-03-03T11:29:00Z</time>
<extensions>
<gpxtpx:TrackPointExtension>
<gpxtpx:hr>128</gpxtpx:hr>
<gpxtpx:atemp>8</gpxtpx:atemp>
</gpxtpx:TrackPointExtension>
</extensions>
</trkpt>
<trkpt lat="47.74647742509842" lon="12.217011284083128">
<ele>784</ele>
<time>2012-03-03T11:29:01Z</time>
<extensions>
<gpxtpx:TrackPointExtension>
<gpxtpx:hr>128</gpxtpx:hr>
<gpxtpx:atemp>8</gpxtpx:atemp>
</gpxtpx:TrackPointExtension>
</extensions>
</trkpt>
<trkpt lat="47.74647859856486" lon="12.217011451721191">
<ele>784</ele>
<time>2012-03-03T11:29:02Z</time>
<extensions>
<gpxtpx:TrackPointExtension>
<gpxtpx:hr>128</gpxtpx:hr>
<gpxtpx:atemp>8</gpxtpx:atemp>
</gpxtpx:TrackPointExtension>
</extensions>
</trkpt>
<trkpt lat="47.746488908305764" lon="12.217015391215682">
<ele>785</ele>
<time>2012-03-03T11:30:24Z</time>
<extensions>
<gpxtpx:TrackPointExtension>
<gpxtpx:hr>133</gpxtpx:hr>
<gpxtpx:atemp>8</gpxtpx:atemp>
</gpxtpx:TrackPointExtension>
</extensions>
</trkpt>
<trkpt lat="47.746504163369536" lon="12.217018408700824">
<ele>785</ele>
<time>2012-03-03T11:30:25Z</time>
<extensions>
<gpxtpx:TrackPointExtension>
<gpxtpx:hr>134</gpxtpx:hr>
<gpxtpx:atemp>8</gpxtpx:atemp>
</gpxtpx:TrackPointExtension>
</extensions>
</trkpt>
<trkpt lat="47.74660097435117" lon="12.217014553025365">
<ele>785</ele>
<time>2012-03-03T11:30:28Z</time>
<extensions>
<gpxtpx:TrackPointExtension>
<gpxtpx:hr>135</gpxtpx:hr>
<gpxtpx:atemp>8</gpxtpx:atemp>
</gpxtpx:TrackPointExtension>
</extensions>
</trkpt>
<trkpt lat="47.746648248285055" lon="12.21701581031084">
<ele>785</ele>
<time>2012-03-03T11:30:29Z</time>
<extensions>
<gpxtpx:TrackPointExtension>
<gpxtpx:hr>134</gpxtpx:hr>
<gpxtpx:atemp>8</gpxtpx:atemp>
</gpxtpx:TrackPointExtension>
</extensions>
</trkpt>
<trkpt lat="47.746939435601234" lon="12.217034669592977">
<ele>785</ele>
<time>2012-03-03T11:30:35Z</time>
<extensions>
<gpxtpx:TrackPointExtension>
<gpxtpx:hr>131</gpxtpx:hr>
<gpxtpx:atemp>8</gpxtpx:atemp>
</gpxtpx:TrackPointExtension>
</extensions>
</trkpt>
<trkpt lat="47.746987799182534" lon="12.217048918828368">
<ele>785</ele>
<time>2012-03-03T11:30:36Z</time>
<extensions>
<gpxtpx:TrackPointExtension>
<gpxtpx:hr>131</gpxtpx:hr>
<gpxtpx:atemp>8</gpxtpx:atemp>
</gpxtpx:TrackPointExtension>
</extensions>
</trkpt>
<trkpt lat="47.747034737840295" lon="12.217068197205663">
<ele>785</ele>
<time>2012-03-03T11:30:37Z</time>
<extensions>
<gpxtpx:TrackPointExtension>
<gpxtpx:hr>130</gpxtpx:hr>
<gpxtpx:atemp>8</gpxtpx:atemp>
</gpxtpx:TrackPointExtension>
</extensions>
</trkpt>
<trkpt lat="47.74724151939154" lon="12.217200128361583">
<ele>785</ele>
<time>2012-03-03T11:30:41Z</time>
<extensions>
<gpxtpx:TrackPointExtension>
<gpxtpx:hr>129</gpxtpx:hr>
<gpxtpx:atemp>8</gpxtpx:atemp>
</gpxtpx:TrackPointExtension>
</extensions>
</trkpt>
<trkpt lat="47.74737906642258" lon="12.217322755604982">
<ele>785</ele>
<time>2012-03-03T11:30:44Z</time>
<extensions>
<gpxtpx:TrackPointExtension>
<gpxtpx:hr>126</gpxtpx:hr>
<gpxtpx:atemp>8</gpxtpx:atemp>
</gpxtpx:TrackPointExtension>
</extensions>
</trkpt>
<trkpt lat="47.74752901867032" lon="12.217461224645376">
<ele>784</ele>
<time>2012-03-03T11:30:47Z</time>
<extensions>
<gpxtpx:TrackPointExtension>
<gpxtpx:hr>124</gpxtpx:hr>
<gpxtpx:atemp>8</gpxtpx:atemp>
</gpxtpx:TrackPointExtension>
</extensions>
</trkpt>
<trkpt lat="47.74759070947766" lon="12.217507073655725">
<ele>784</ele>
<time>2012-03-03T11:30:48Z</time>
<extensions>
<gpxtpx:TrackPointExtension>
<gpxtpx:hr>124</gpxtpx:hr>
<gpxtpx:atemp>8</gpxtpx:atemp>
</gpxtpx:TrackPointExtension>
</extensions>
</trkpt>
<trkpt lat="47.74765223264694" lon="12.217545881867409">
<ele>783</ele>
<time>2012-03-03T11:30:49Z</time>
<extensions>
<gpxtpx:TrackPointExtension>
<gpxtpx:hr>123</gpxtpx:hr>
<gpxtpx:atemp>8</gpxtpx:atemp>
</gpxtpx:TrackPointExtension>
</extensions>
</trkpt>
<trkpt lat="47.747723646461964" lon="12.217593239620328">
<ele>783</ele>
<time>2012-03-03T11:30:50Z</time>
<extensions>
<gpxtpx:TrackPointExtension>
<gpxtpx:hr>122</gpxtpx:hr>
<gpxtpx:atemp>8</gpxtpx:atemp>
</gpxtpx:TrackPointExtension>
</extensions>
</trkpt>
<trkpt lat="47.74780176579952" lon="12.217637998983264">
<ele>782</ele>
<time>2012-03-03T11:30:51Z</time>
<extensions>
<gpxtpx:TrackPointExtension>
<gpxtpx:hr>122</gpxtpx:hr>
<gpxtpx:atemp>8</gpxtpx:atemp>
</gpxtpx:TrackPointExtension>
</extensions>
</trkpt>
<trkpt lat="47.74788189679384" lon="12.217684602364898">
<ele>782</ele>
<time>2012-03-03T11:30:52Z</time>
<extensions>
<gpxtpx:TrackPointExtension>
<gpxtpx:hr>122</gpxtpx:hr>
<gpxtpx:atemp>8</gpxtpx:atemp>
</gpxtpx:TrackPointExtension>
</extensions>
</trkpt>
<trkpt lat="47.747966051101685" lon="12.217731876298785">
<ele>781</ele>
<time>2012-03-03T11:30:53Z</time>
<extensions>
<gpxtpx:TrackPointExtension>
<gpxtpx:hr>122</gpxtpx:hr>
<gpxtpx:atemp>8</gpxtpx:atemp>
</gpxtpx:TrackPointExtension>
</extensions>
</trkpt>
<trkpt lat="47.74805523455143" lon="12.217776384204626">
<ele>780</ele>
<time>2012-03-03T11:30:54Z</time>
<extensions>
<gpxtpx:TrackPointExtension>
<gpxtpx:hr>123</gpxtpx:hr>
<gpxtpx:atemp>8</gpxtpx:atemp>
</gpxtpx:TrackPointExtension>
</extensions>
</trkpt>
<trkpt lat="47.74815489538014" lon="12.217813348397613">
<ele>780</ele>
<time>2012-03-03T11:30:55Z</time>
<extensions>
<gpxtpx:TrackPointExtension>
<gpxtpx:hr>123</gpxtpx:hr>
<gpxtpx:atemp>8</gpxtpx:atemp>
</gpxtpx:TrackPointExtension>
</extensions>
</trkpt>
<trkpt lat="47.74825958535075" lon="12.21783908084035">
<ele>779</ele>
<time>2012-03-03T11:30:56Z</time>
<extensions>
<gpxtpx:TrackPointExtension>
<gpxtpx:hr>123</gpxtpx:hr>
<gpxtpx:atemp>8</gpxtpx:atemp>
</gpxtpx:TrackPointExtension>
</extensions>
</trkpt>
<trkpt lat="47.74837198667228" lon="12.217855593189597">
<ele>779</ele>
<time>2012-03-03T11:30:57Z</time>
<extensions>
<gpxtpx:TrackPointExtension>
<gpxtpx:hr>123</gpxtpx:hr>
<gpxtpx:atemp>8</gpxtpx:atemp>
</gpxtpx:TrackPointExtension>
</extensions>
</trkpt>
<trkpt lat="47.74848229251802" lon="12.217866322025657">
<ele>778</ele>
<time>2012-03-03T11:30:58Z</time>
<extensions>
<gpxtpx:TrackPointExtension>
<gpxtpx:hr>122</gpxtpx:hr>
<gpxtpx:atemp>8</gpxtpx:atemp>
</gpxtpx:TrackPointExtension>
</extensions>
</trkpt>
<trkpt lat="47.74860257282853" lon="12.217849055305123">
<ele>778</ele>
<time>2012-03-03T11:30:59Z</time>
<extensions>
<gpxtpx:TrackPointExtension>
<gpxtpx:hr>119</gpxtpx:hr>
<gpxtpx:atemp>8</gpxtpx:atemp>
</gpxtpx:TrackPointExtension>
</extensions>
</trkpt>
<trkpt lat="47.74881178513169" lon="12.217817455530167">
<ele>777</ele>
<time>2012-03-03T11:31:01Z</time>
<extensions>
<gpxtpx:TrackPointExtension>
<gpxtpx:hr>116</gpxtpx:hr>
<gpxtpx:atemp>8</gpxtpx:atemp>
</gpxtpx:TrackPointExtension>
</extensions>
</trkpt>
<trkpt lat="47.74891471490264" lon="12.217794237658381">
<ele>777</ele>
<time>2012-03-03T11:31:02Z</time>
<extensions>
<gpxtpx:TrackPointExtension>
<gpxtpx:hr>115</gpxtpx:hr>
<gpxtpx:atemp>8</gpxtpx:atemp>
</gpxtpx:TrackPointExtension>
</extensions>
</trkpt>
<trkpt lat="47.74901244789362" lon="12.217764565721154">
<ele>776</ele>
<time>2012-03-03T11:31:03Z</time>
<extensions>
<gpxtpx:TrackPointExtension>
<gpxtpx:hr>116</gpxtpx:hr>
<gpxtpx:atemp>8</gpxtpx:atemp>
</gpxtpx:TrackPointExtension>
</extensions>
</trkpt>
<trkpt lat="47.74910976178944" lon="12.217730032280087">
<ele>776</ele>
<time>2012-03-03T11:31:04Z</time>
<extensions>
<gpxtpx:TrackPointExtension>
<gpxtpx:hr>117</gpxtpx:hr>
<gpxtpx:atemp>8</gpxtpx:atemp>
</gpxtpx:TrackPointExtension>
</extensions>
</trkpt>
<trkpt lat="47.74920925498009" lon="12.217693822458386">
<ele>775</ele>
<time>2012-03-03T11:31:05Z</time>
<extensions>
<gpxtpx:TrackPointExtension>
<gpxtpx:hr>118</gpxtpx:hr>
<gpxtpx:atemp>8</gpxtpx:atemp>
</gpxtpx:TrackPointExtension>
</extensions>
</trkpt>
<trkpt lat="47.74931360967457" lon="12.217660630121827">
<ele>775</ele>
<time>2012-03-03T11:31:06Z</time>
<extensions>
<gpxtpx:TrackPointExtension>
<gpxtpx:hr>119</gpxtpx:hr>
<gpxtpx:atemp>8</gpxtpx:atemp>
</gpxtpx:TrackPointExtension>
</extensions>
</trkpt>
<trkpt lat="47.749412935227156" lon="12.217639088630676">
<ele>774</ele>
<time>2012-03-03T11:31:07Z</time>
<extensions>
<gpxtpx:TrackPointExtension>
<gpxtpx:hr>119</gpxtpx:hr>
<gpxtpx:atemp>8</gpxtpx:atemp>
</gpxtpx:TrackPointExtension>
</extensions>
</trkpt>
<trkpt lat="47.74950974620879" lon="12.21762852743268">
<ele>773</ele>
<time>2012-03-03T11:31:08Z</time>
<extensions>
<gpxtpx:TrackPointExtension>
<gpxtpx:hr>119</gpxtpx:hr>
<gpxtpx:atemp>8</gpxtpx:atemp>
</gpxtpx:TrackPointExtension>
</extensions>
</trkpt>
<trkpt lat="47.74960563518107" lon="12.217627689242363">
<ele>773</ele>
<time>2012-03-03T11:31:09Z</time>
<extensions>
<gpxtpx:TrackPointExtension>
<gpxtpx:hr>119</gpxtpx:hr>
<gpxtpx:atemp>7</gpxtpx:atemp>
</gpxtpx:TrackPointExtension>
</extensions>
</trkpt>
<trkpt lat="47.749703619629145" lon="12.217633137479424">
<ele>772</ele>
<time>2012-03-03T11:31:10Z</time>
<extensions>
<gpxtpx:TrackPointExtension>
<gpxtpx:hr>119</gpxtpx:hr>
<gpxtpx:atemp>7</gpxtpx:atemp>
</gpxtpx:TrackPointExtension>
</extensions>
</trkpt>
<trkpt lat="47.74980755522847" lon="12.217637747526169">
<ele>771</ele>
<time>2012-03-03T11:31:11Z</time>
<extensions>
<gpxtpx:TrackPointExtension>
<gpxtpx:hr>120</gpxtpx:hr>
<gpxtpx:atemp>7</gpxtpx:atemp>
</gpxtpx:TrackPointExtension>
</extensions>
</trkpt>
<trkpt lat="47.749914759770036" lon="12.217648811638355">
<ele>771</ele>
<time>2012-03-03T11:31:12Z</time>
<extensions>
<gpxtpx:TrackPointExtension>
<gpxtpx:hr>121</gpxtpx:hr>
<gpxtpx:atemp>7</gpxtpx:atemp>
</gpxtpx:TrackPointExtension>
</extensions>
</trkpt>
<trkpt lat="47.75002581998706" lon="12.217662641778588">
<ele>770</ele>
<time>2012-03-03T11:31:13Z</time>
<extensions>
<gpxtpx:TrackPointExtension>
<gpxtpx:hr>122</gpxtpx:hr>
<gpxtpx:atemp>7</gpxtpx:atemp>
</gpxtpx:TrackPointExtension>
</extensions>
</trkpt>
<trkpt lat="47.75014375336468" lon="12.217675214633346">
<ele>769</ele>
<time>2012-03-03T11:31:14Z</time>
<extensions>
<gpxtpx:TrackPointExtension>
<gpxtpx:hr>123</gpxtpx:hr>
<gpxtpx:atemp>7</gpxtpx:atemp>
</gpxtpx:TrackPointExtension>
</extensions>
</trkpt>
<trkpt lat="47.7502585016191" lon="12.217688038945198">
<ele>768</ele>
<time>2012-03-03T11:31:15Z</time>
<extensions>
<gpxtpx:TrackPointExtension>
<gpxtpx:hr>124</gpxtpx:hr>
<gpxtpx:atemp>7</gpxtpx:atemp>
</gpxtpx:TrackPointExtension>
</extensions>
</trkpt>
<trkpt lat="47.750376518815756" lon="12.217704970389605">
<ele>768</ele>
<time>2012-03-03T11:31:16Z</time>
<extensions>
<gpxtpx:TrackPointExtension>
<gpxtpx:hr>124</gpxtpx:hr>
<gpxtpx:atemp>7</gpxtpx:atemp>
</gpxtpx:TrackPointExtension>
</extensions>
</trkpt>
<trkpt lat="47.75049017742276" lon="12.217723242938519">
<ele>767</ele>
<time>2012-03-03T11:31:17Z</time>
<extensions>
<gpxtpx:TrackPointExtension>
<gpxtpx:hr>125</gpxtpx:hr>
<gpxtpx:atemp>7</gpxtpx:atemp>
</gpxtpx:TrackPointExtension>
</extensions>
</trkpt>
<trkpt lat="47.75060593150556" lon="12.217745454981923">
<ele>766</ele>
<time>2012-03-03T11:31:18Z</time>
<extensions>
<gpxtpx:TrackPointExtension>
<gpxtpx:hr>125</gpxtpx:hr>
<gpxtpx:atemp>7</gpxtpx:atemp>
</gpxtpx:TrackPointExtension>
</extensions>
</trkpt>
<trkpt lat="47.75072554126382" lon="12.217773282900453">
<ele>766</ele>
<time>2012-03-03T11:31:19Z</time>
<extensions>
<gpxtpx:TrackPointExtension>
<gpxtpx:hr>125</gpxtpx:hr>
<gpxtpx:atemp>7</gpxtpx:atemp>
</gpxtpx:TrackPointExtension>
</extensions>
</trkpt>
<trkpt lat="47.750845067203045" lon="12.217812342569232">
<ele>765</ele>
<time>2012-03-03T11:31:20Z</time>
<extensions>
<gpxtpx:TrackPointExtension>
<gpxtpx:hr>126</gpxtpx:hr>
<gpxtpx:atemp>7</gpxtpx:atemp>
</gpxtpx:TrackPointExtension>
</extensions>
</trkpt>
<trkpt lat="47.75095378048718" lon="12.217870177701116">
<ele>764</ele>
<time>2012-03-03T11:31:21Z</time>
<extensions>
<gpxtpx:TrackPointExtension>
<gpxtpx:hr>126</gpxtpx:hr>
<gpxtpx:atemp>7</gpxtpx:atemp>
</gpxtpx:TrackPointExtension>
</extensions>
</trkpt>
<trkpt lat="47.75103718042374" lon="12.217934131622314">
<ele>763</ele>
<time>2012-03-03T11:31:22Z</time>
<extensions>
<gpxtpx:TrackPointExtension>
<gpxtpx:hr>126</gpxtpx:hr>
<gpxtpx:atemp>7</gpxtpx:atemp>
</gpxtpx:TrackPointExtension>
</extensions>
</trkpt>
<trkpt lat="47.75111932307482" lon="12.217997582629323">
<ele>762</ele>
<time>2012-03-03T11:31:23Z</time>
<extensions>
<gpxtpx:TrackPointExtension>
<gpxtpx:hr>126</gpxtpx:hr>
<gpxtpx:atemp>7</gpxtpx:atemp>
</gpxtpx:TrackPointExtension>
</extensions>
</trkpt>
<trkpt lat="47.75120875798166" lon="12.21804284490645">
<ele>760</ele>
<time>2012-03-03T11:31:24Z</time>
<extensions>
<gpxtpx:TrackPointExtension>
<gpxtpx:hr>126</gpxtpx:hr>
<gpxtpx:atemp>7</gpxtpx:atemp>
</gpxtpx:TrackPointExtension>
</extensions>
</trkpt>
<trkpt lat="47.751310179010034" lon="12.218064721673727">
<ele>759</ele>
<time>2012-03-03T11:31:25Z</time>
<extensions>
<gpxtpx:TrackPointExtension>
<gpxtpx:hr>126</gpxtpx:hr>
<gpxtpx:atemp>7</gpxtpx:atemp>
</gpxtpx:TrackPointExtension>
</extensions>
</trkpt>
<trkpt lat="47.75141520425677" lon="12.218060698360205">
<ele>758</ele>
<time>2012-03-03T11:31:26Z</time>
<extensions>
<gpxtpx:TrackPointExtension>
<gpxtpx:hr>127</gpxtpx:hr>
<gpxtpx:atemp>7</gpxtpx:atemp>
</gpxtpx:TrackPointExtension>
</extensions>
</trkpt>
<trkpt lat="47.75151947513223" lon="12.218032786622643">
<ele>757</ele>
<time>2012-03-03T11:31:27Z</time>
<extensions>
<gpxtpx:TrackPointExtension>
<gpxtpx:hr>127</gpxtpx:hr>
<gpxtpx:atemp>7</gpxtpx:atemp>
</gpxtpx:TrackPointExtension>
</extensions>
</trkpt>
<trkpt lat="47.751624416559935" lon="12.217987608164549">
<ele>756</ele>
<time>2012-03-03T11:31:28Z</time>
<extensions>
<gpxtpx:TrackPointExtension>
<gpxtpx:hr>127</gpxtpx:hr>
<gpxtpx:atemp>7</gpxtpx:atemp>
</gpxtpx:TrackPointExtension>
</extensions>
</trkpt>
<trkpt lat="47.751730531454086" lon="12.21793589182198">
<ele>755</ele>
<time>2012-03-03T11:31:29Z</time>
<extensions>
<gpxtpx:TrackPointExtension>
<gpxtpx:hr>128</gpxtpx:hr>
<gpxtpx:atemp>7</gpxtpx:atemp>
</gpxtpx:TrackPointExtension>
</extensions>
</trkpt>
<trkpt lat="47.751835975795984" lon="12.21788166090846">
<ele>754</ele>
<time>2012-03-03T11:31:30Z</time>
<extensions>
<gpxtpx:TrackPointExtension>
<gpxtpx:hr>128</gpxtpx:hr>
<gpxtpx:atemp>7</gpxtpx:atemp>
</gpxtpx:TrackPointExtension>
</extensions>
</trkpt>
<trkpt lat="47.75194292888045" lon="12.21783329732716">
<ele>753</ele>
<time>2012-03-03T11:31:31Z</time>
<extensions>
<gpxtpx:TrackPointExtension>
<gpxtpx:hr>128</gpxtpx:hr>
<gpxtpx:atemp>7</gpxtpx:atemp>
</gpxtpx:TrackPointExtension>
</extensions>
</trkpt>
<trkpt lat="47.752052983269095" lon="12.21779323183">
<ele>752</ele>
<time>2012-03-03T11:31:32Z</time>
<extensions>
<gpxtpx:TrackPointExtension>
<gpxtpx:hr>128</gpxtpx:hr>
<gpxtpx:atemp>7</gpxtpx:atemp>
</gpxtpx:TrackPointExtension>
</extensions>
</trkpt>
<trkpt lat="47.75215834379196" lon="12.217758614569902">
<ele>751</ele>
<time>2012-03-03T11:31:33Z</time>
<extensions>
<gpxtpx:TrackPointExtension>
<gpxtpx:hr>127</gpxtpx:hr>
<gpxtpx:atemp>7</gpxtpx:atemp>
</gpxtpx:TrackPointExtension>
</extensions>
</trkpt>
<trkpt lat="47.75225364603102" lon="12.217732882127166">
<ele>750</ele>
<time>2012-03-03T11:31:34Z</time>
<extensions>
<gpxtpx:TrackPointExtension>
<gpxtpx:hr>125</gpxtpx:hr>
<gpxtpx:atemp>7</gpxtpx:atemp>
</gpxtpx:TrackPointExtension>
</extensions>
</trkpt>
<trkpt lat="47.75234769098461" lon="12.217718800529838">
<ele>749</ele>
<time>2012-03-03T11:31:35Z</time>
<extensions>
<gpxtpx:TrackPointExtension>
<gpxtpx:hr>124</gpxtpx:hr>
<gpxtpx:atemp>7</gpxtpx:atemp>
</gpxtpx:TrackPointExtension>
</extensions>
</trkpt>
<trkpt lat="47.75243293493986" lon="12.21771108917892">
<ele>748</ele>
<time>2012-03-03T11:31:36Z</time>
<extensions>
<gpxtpx:TrackPointExtension>
<gpxtpx:hr>122</gpxtpx:hr>
<gpxtpx:atemp>7</gpxtpx:atemp>
</gpxtpx:TrackPointExtension>
</extensions>
</trkpt>
<trkpt lat="47.75250719860196" lon="12.217712346464396">
<ele>747</ele>
<time>2012-03-03T11:31:37Z</time>
<extensions>
<gpxtpx:TrackPointExtension>
<gpxtpx:hr>121</gpxtpx:hr>
<gpxtpx:atemp>7</gpxtpx:atemp>
</gpxtpx:TrackPointExtension>
</extensions>
</trkpt>
<trkpt lat="47.752574840560555" lon="12.217719471082091">
<ele>746</ele>
<time>2012-03-03T11:31:38Z</time>
<extensions>
<gpxtpx:TrackPointExtension>
<gpxtpx:hr>120</gpxtpx:hr>
<gpxtpx:atemp>7</gpxtpx:atemp>
</gpxtpx:TrackPointExtension>
</extensions>
</trkpt>
<trkpt lat="47.75262932293117" lon="12.217724584043026">
<ele>744</ele>
<time>2012-03-03T11:31:39Z</time>
<extensions>
<gpxtpx:TrackPointExtension>
<gpxtpx:hr>119</gpxtpx:hr>
<gpxtpx:atemp>7</gpxtpx:atemp>
</gpxtpx:TrackPointExtension>
</extensions>
</trkpt>
<trkpt lat="47.75268095545471" lon="12.217721147462726">
<ele>743</ele>
<time>2012-03-03T11:31:40Z</time>
<extensions>
<gpxtpx:TrackPointExtension>
<gpxtpx:hr>119</gpxtpx:hr>
<gpxtpx:atemp>7</gpxtpx:atemp>
</gpxtpx:TrackPointExtension>
</extensions>
</trkpt>
<trkpt lat="47.752732671797276" lon="12.217706562951207">
<ele>742</ele>
<time>2012-03-03T11:31:41Z</time>
<extensions>
<gpxtpx:TrackPointExtension>
<gpxtpx:hr>119</gpxtpx:hr>
<gpxtpx:atemp>7</gpxtpx:atemp>
</gpxtpx:TrackPointExtension>
</extensions>
</trkpt>
<trkpt lat="47.75278891436756" lon="12.217679740861058">
<ele>739</ele>
<time>2012-03-03T11:31:42Z</time>
<extensions>
<gpxtpx:TrackPointExtension>
<gpxtpx:hr>120</gpxtpx:hr>
<gpxtpx:atemp>7</gpxtpx:atemp>
</gpxtpx:TrackPointExtension>
</extensions>
</trkpt>
<trkpt lat="47.75283736176789" lon="12.21764118410647">
<ele>738</ele>
<time>2012-03-03T11:31:43Z</time>
<extensions>
<gpxtpx:TrackPointExtension>
<gpxtpx:hr>121</gpxtpx:hr>
<gpxtpx:atemp>7</gpxtpx:atemp>
</gpxtpx:TrackPointExtension>
</extensions>
</trkpt>
<trkpt lat="47.75288924574852" lon="12.217603465542197">
<ele>737</ele>
<time>2012-03-03T11:31:44Z</time>
<extensions>
<gpxtpx:TrackPointExtension>
<gpxtpx:hr>122</gpxtpx:hr>
<gpxtpx:atemp>7</gpxtpx:atemp>
</gpxtpx:TrackPointExtension>
</extensions>
</trkpt>
<trkpt lat="47.75293559767306" lon="12.217562226578593">
<ele>736</ele>
<time>2012-03-03T11:31:45Z</time>
<extensions>
<gpxtpx:TrackPointExtension>
<gpxtpx:hr>123</gpxtpx:hr>
<gpxtpx:atemp>7</gpxtpx:atemp>
</gpxtpx:TrackPointExtension>
</extensions>
</trkpt>
<trkpt lat="47.7529938519001" lon="12.21753129735589">
<ele>735</ele>
<time>2012-03-03T11:31:46Z</time>
<extensions>
<gpxtpx:TrackPointExtension>
<gpxtpx:hr>124</gpxtpx:hr>
<gpxtpx:atemp>7</gpxtpx:atemp>
</gpxtpx:TrackPointExtension>
</extensions>
</trkpt>
<trkpt lat="47.75305478833616" lon="12.217500787228346">
<ele>735</ele>
<time>2012-03-03T11:31:47Z</time>
<extensions>
<gpxtpx:TrackPointExtension>
<gpxtpx:hr>124</gpxtpx:hr>
<gpxtpx:atemp>7</gpxtpx:atemp>
</gpxtpx:TrackPointExtension>
</extensions>
</trkpt>
<trkpt lat="47.75311840698123" lon="12.217466505244374">
<ele>734</ele>
<time>2012-03-03T11:31:48Z</time>
<extensions>
<gpxtpx:TrackPointExtension>
<gpxtpx:hr>123</gpxtpx:hr>
<gpxtpx:atemp>7</gpxtpx:atemp>
</gpxtpx:TrackPointExtension>
</extensions>
</trkpt>
<trkpt lat="47.75318579748273" lon="12.217434905469418">
<ele>734</ele>
<time>2012-03-03T11:31:49Z</time>
<extensions>
<gpxtpx:TrackPointExtension>
<gpxtpx:hr>122</gpxtpx:hr>
<gpxtpx:atemp>7</gpxtpx:atemp>
</gpxtpx:TrackPointExtension>
</extensions>
</trkpt>
<trkpt lat="47.75325536727905" lon="12.217403138056397">
<ele>734</ele>
<time>2012-03-03T11:31:50Z</time>
<extensions>
<gpxtpx:TrackPointExtension>
<gpxtpx:hr>122</gpxtpx:hr>
<gpxtpx:atemp>7</gpxtpx:atemp>
</gpxtpx:TrackPointExtension>
</extensions>
</trkpt>
<trkpt lat="47.75332326069474" lon="12.217365838587284">
<ele>733</ele>
<time>2012-03-03T11:31:51Z</time>
<extensions>
<gpxtpx:TrackPointExtension>
<gpxtpx:hr>121</gpxtpx:hr>
<gpxtpx:atemp>7</gpxtpx:atemp>
</gpxtpx:TrackPointExtension>
</extensions>
</trkpt>
<trkpt lat="47.75339400395751" lon="12.217325773090124">
<ele>733</ele>
<time>2012-03-03T11:31:52Z</time>
<extensions>
<gpxtpx:TrackPointExtension>
<gpxtpx:hr>120</gpxtpx:hr>
<gpxtpx:atemp>7</gpxtpx:atemp>
</gpxtpx:TrackPointExtension>
</extensions>
</trkpt>
<trkpt lat="47.75346181355417" lon="12.217283193022013">
<ele>732</ele>
<time>2012-03-03T11:31:53Z</time>
<extensions>
<gpxtpx:TrackPointExtension>
<gpxtpx:hr>120</gpxtpx:hr>
<gpxtpx:atemp>7</gpxtpx:atemp>
</gpxtpx:TrackPointExtension>
</extensions>
</trkpt>
<trkpt lat="47.753530042245984" lon="12.217236002907157">
<ele>732</ele>
<time>2012-03-03T11:31:54Z</time>
<extensions>
<gpxtpx:TrackPointExtension>
<gpxtpx:hr>120</gpxtpx:hr>
<gpxtpx:atemp>7</gpxtpx:atemp>
</gpxtpx:TrackPointExtension>
</extensions>
</trkpt>
<trkpt lat="47.75359969586134" lon="12.217184538021684">
<ele>732</ele>
<time>2012-03-03T11:31:55Z</time>
<extensions>
<gpxtpx:TrackPointExtension>
<gpxtpx:hr>120</gpxtpx:hr>
<gpxtpx:atemp>7</gpxtpx:atemp>
</gpxtpx:TrackPointExtension>
</extensions>
</trkpt>
<trkpt lat="47.75367161259055" lon="12.217134665697813">
<ele>731</ele>
<time>2012-03-03T11:31:56Z</time>
<extensions>
<gpxtpx:TrackPointExtension>
<gpxtpx:hr>119</gpxtpx:hr>
<gpxtpx:atemp>7</gpxtpx:atemp>
</gpxtpx:TrackPointExtension>
</extensions>
</trkpt>
<trkpt lat="47.753743110224605" lon="12.217088313773274">
<ele>731</ele>
<time>2012-03-03T11:31:57Z</time>
<extensions>
<gpxtpx:TrackPointExtension>
<gpxtpx:hr>119</gpxtpx:hr>
<gpxtpx:atemp>7</gpxtpx:atemp>
</gpxtpx:TrackPointExtension>
</extensions>
</trkpt>
<trkpt lat="47.7540385723114" lon="12.216967195272446">
<ele>730</ele>
<time>2012-03-03T11:32:01Z</time>
<extensions>
<gpxtpx:TrackPointExtension>
<gpxtpx:hr>117</gpxtpx:hr>
<gpxtpx:atemp>7</gpxtpx:atemp>
</gpxtpx:TrackPointExtension>
</extensions>
</trkpt>
<trkpt lat="47.75411048904061" lon="12.216950682923198">
<ele>730</ele>
<time>2012-03-03T11:32:02Z</time>
<extensions>
<gpxtpx:TrackPointExtension>
<gpxtpx:hr>116</gpxtpx:hr>
<gpxtpx:atemp>7</gpxtpx:atemp>
</gpxtpx:TrackPointExtension>
</extensions>
</trkpt>
<trkpt lat="47.75418031029403" lon="12.216925537213683">
<ele>729</ele>
<time>2012-03-03T11:32:03Z</time>
<extensions>
<gpxtpx:TrackPointExtension>
<gpxtpx:hr>117</gpxtpx:hr>
<gpxtpx:atemp>7</gpxtpx:atemp>
</gpxtpx:TrackPointExtension>
</extensions>
</trkpt>
<trkpt lat="47.75424811989069" lon="12.216893266886473">
<ele>728</ele>
<time>2012-03-03T11:32:04Z</time>
<extensions>
<gpxtpx:TrackPointExtension>
<gpxtpx:hr>116</gpxtpx:hr>
<gpxtpx:atemp>7</gpxtpx:atemp>
</gpxtpx:TrackPointExtension>
</extensions>
</trkpt>
<trkpt lat="47.75432154536247" lon="12.216866696253419">
<ele>727</ele>
<time>2012-03-03T11:32:05Z</time>
<extensions>
<gpxtpx:TrackPointExtension>
<gpxtpx:hr>117</gpxtpx:hr>
<gpxtpx:atemp>7</gpxtpx:atemp>
</gpxtpx:TrackPointExtension>
</extensions>
</trkpt>
<trkpt lat="47.754399832338095" lon="12.216864600777626">
<ele>726</ele>
<time>2012-03-03T11:32:06Z</time>
<extensions>
<gpxtpx:TrackPointExtension>
<gpxtpx:hr>116</gpxtpx:hr>
<gpxtpx:atemp>7</gpxtpx:atemp>
</gpxtpx:TrackPointExtension>
</extensions>
</trkpt>
<trkpt lat="47.75448205880821" lon="12.216895362362266">
<ele>725</ele>
<time>2012-03-03T11:32:07Z</time>
<extensions>
<gpxtpx:TrackPointExtension>
<gpxtpx:hr>117</gpxtpx:hr>
<gpxtpx:atemp>7</gpxtpx:atemp>
</gpxtpx:TrackPointExtension>
</extensions>
</trkpt>
<trkpt lat="47.75456998497248" lon="12.21694733016193">
<ele>724</ele>
<time>2012-03-03T11:32:08Z</time>
<extensions>
<gpxtpx:TrackPointExtension>
<gpxtpx:hr>117</gpxtpx:hr>
<gpxtpx:atemp>7</gpxtpx:atemp>
</gpxtpx:TrackPointExtension>
</extensions>
</trkpt>
<trkpt lat="47.754654390737414" lon="12.216996364295483">
<ele>723</ele>
<time>2012-03-03T11:32:09Z</time>
<extensions>
<gpxtpx:TrackPointExtension>
<gpxtpx:hr>117</gpxtpx:hr>
<gpxtpx:atemp>7</gpxtpx:atemp>
</gpxtpx:TrackPointExtension>
</extensions>
</trkpt>
<trkpt lat="47.75483753532171" lon="12.217054534703493">
<ele>723</ele>
<time>2012-03-03T11:32:11Z</time>
<extensions>
<gpxtpx:TrackPointExtension>
<gpxtpx:hr>119</gpxtpx:hr>
<gpxtpx:atemp>7</gpxtpx:atemp>
</gpxtpx:TrackPointExtension>
</extensions>
</trkpt>
<trkpt lat="47.75493568740785" lon="12.217065934091806">
<ele>723</ele>
<time>2012-03-03T11:32:12Z</time>
<extensions>
<gpxtpx:TrackPointExtension>
<gpxtpx:hr>120</gpxtpx:hr>
<gpxtpx:atemp>7</gpxtpx:atemp>
</gpxtpx:TrackPointExtension>
</extensions>
</trkpt>
<trkpt lat="47.75503727607429" lon="12.217074735090137">
<ele>722</ele>
<time>2012-03-03T11:32:13Z</time>
<extensions>
<gpxtpx:TrackPointExtension>
<gpxtpx:hr>121</gpxtpx:hr>
<gpxtpx:atemp>7</gpxtpx:atemp>
</gpxtpx:TrackPointExtension>
</extensions>
</trkpt>
<trkpt lat="47.75514121167362" lon="12.217077920213342">
<ele>722</ele>
<time>2012-03-03T11:32:14Z</time>
<extensions>
<gpxtpx:TrackPointExtension>
<gpxtpx:hr>121</gpxtpx:hr>
<gpxtpx:atemp>7</gpxtpx:atemp>
</gpxtpx:TrackPointExtension>
</extensions>
</trkpt>
<trkpt lat="47.755244225263596" lon="12.217081524431705">
<ele>721</ele>
<time>2012-03-03T11:32:15Z</time>
<extensions>
<gpxtpx:TrackPointExtension>
<gpxtpx:hr>122</gpxtpx:hr>
<gpxtpx:atemp>7</gpxtpx:atemp>
</gpxtpx:TrackPointExtension>
</extensions>
</trkpt>
<trkpt lat="47.755348831415176" lon="12.217088900506496">
<ele>720</ele>
<time>2012-03-03T11:32:16Z</time>
<extensions>
<gpxtpx:TrackPointExtension>
<gpxtpx:hr>122</gpxtpx:hr>
<gpxtpx:atemp>7</gpxtpx:atemp>
</gpxtpx:TrackPointExtension>
</extensions>
</trkpt>
<trkpt lat="47.755444552749395" lon="12.217092420905828">
<ele>720</ele>
<time>2012-03-03T11:32:17Z</time>
<extensions>
<gpxtpx:TrackPointExtension>
<gpxtpx:hr>121</gpxtpx:hr>
<gpxtpx:atemp>7</gpxtpx:atemp>
</gpxtpx:TrackPointExtension>
</extensions>
</trkpt>
<trkpt lat="47.7555394358933" lon="12.217090325430036">
<ele>719</ele>
<time>2012-03-03T11:32:18Z</time>
<extensions>
<gpxtpx:TrackPointExtension>
<gpxtpx:hr>119</gpxtpx:hr>
<gpxtpx:atemp>7</gpxtpx:atemp>
</gpxtpx:TrackPointExtension>
</extensions>
</trkpt>
<trkpt lat="47.755632726475596" lon="12.217076243832707">
<ele>719</ele>
<time>2012-03-03T11:32:19Z</time>
<extensions>
<gpxtpx:TrackPointExtension>
<gpxtpx:hr>116</gpxtpx:hr>
<gpxtpx:atemp>7</gpxtpx:atemp>
</gpxtpx:TrackPointExtension>
</extensions>
</trkpt>
<trkpt lat="47.75572383776307" lon="12.217044392600656">
<ele>718</ele>
<time>2012-03-03T11:32:20Z</time>
<extensions>
<gpxtpx:TrackPointExtension>
<gpxtpx:hr>114</gpxtpx:hr>
<gpxtpx:atemp>7</gpxtpx:atemp>
</gpxtpx:TrackPointExtension>
</extensions>
</trkpt>
<trkpt lat="47.755814865231514" lon="12.21699770539999">
<ele>717</ele>
<time>2012-03-03T11:32:21Z</time>
<extensions>
<gpxtpx:TrackPointExtension>
<gpxtpx:hr>112</gpxtpx:hr>
<gpxtpx:atemp>7</gpxtpx:atemp>
</gpxtpx:TrackPointExtension>
</extensions>
</trkpt>
<trkpt lat="47.755900947377086" lon="12.216936685144901">
<ele>716</ele>
<time>2012-03-03T11:32:22Z</time>
<extensions>
<gpxtpx:TrackPointExtension>
<gpxtpx:hr>111</gpxtpx:hr>
<gpxtpx:atemp>7</gpxtpx:atemp>
</gpxtpx:TrackPointExtension>
</extensions>
</trkpt>
<trkpt lat="47.75599013082683" lon="12.216854374855757">
<ele>715</ele>
<time>2012-03-03T11:32:23Z</time>
<extensions>
<gpxtpx:TrackPointExtension>
<gpxtpx:hr>111</gpxtpx:hr>
<gpxtpx:atemp>7</gpxtpx:atemp>
</gpxtpx:TrackPointExtension>
</extensions>
</trkpt>
<trkpt lat="47.75607604533434" lon="12.216767957434058">
<ele>714</ele>
<time>2012-03-03T11:32:24Z</time>
<extensions>
<gpxtpx:TrackPointExtension>
<gpxtpx:hr>111</gpxtpx:hr>
<gpxtpx:atemp>7</gpxtpx:atemp>
</gpxtpx:TrackPointExtension>
</extensions>
</trkpt>
<trkpt lat="47.756162378937006" lon="12.216678773984313">
<ele>714</ele>
<time>2012-03-03T11:32:25Z</time>
<extensions>
<gpxtpx:TrackPointExtension>
<gpxtpx:hr>112</gpxtpx:hr>
<gpxtpx:atemp>7</gpxtpx:atemp>
</gpxtpx:TrackPointExtension>
</extensions>
</trkpt>
<trkpt lat="47.75624619796872" lon="12.216583974659443">
<ele>713</ele>
<time>2012-03-03T11:32:26Z</time>
<extensions>
<gpxtpx:TrackPointExtension>
<gpxtpx:hr>113</gpxtpx:hr>
<gpxtpx:atemp>7</gpxtpx:atemp>
</gpxtpx:TrackPointExtension>
</extensions>
</trkpt>
<trkpt lat="47.75633261539042" lon="12.216485487297177">
<ele>712</ele>
<time>2012-03-03T11:32:27Z</time>
<extensions>
<gpxtpx:TrackPointExtension>
<gpxtpx:hr>114</gpxtpx:hr>
<gpxtpx:atemp>7</gpxtpx:atemp>
</gpxtpx:TrackPointExtension>
</extensions>
</trkpt>
<trkpt lat="47.75641618296504" lon="12.216387335211039">
<ele>710</ele>
<time>2012-03-03T11:32:28Z</time>
<extensions>
<gpxtpx:TrackPointExtension>
<gpxtpx:hr>115</gpxtpx:hr>
<gpxtpx:atemp>7</gpxtpx:atemp>
</gpxtpx:TrackPointExtension>
</extensions>
</trkpt>
<trkpt lat="47.75649715214968" lon="12.216280298307538">
<ele>709</ele>
<time>2012-03-03T11:32:29Z</time>
<extensions>
<gpxtpx:TrackPointExtension>
<gpxtpx:hr>115</gpxtpx:hr>
<gpxtpx:atemp>7</gpxtpx:atemp>
</gpxtpx:TrackPointExtension>
</extensions>
</trkpt>
<trkpt lat="47.75657024234533" lon="12.216149372979999">
<ele>708</ele>
<time>2012-03-03T11:32:30Z</time>
<extensions>
<gpxtpx:TrackPointExtension>
<gpxtpx:hr>114</gpxtpx:hr>
<gpxtpx:atemp>7</gpxtpx:atemp>
</gpxtpx:TrackPointExtension>
</extensions>
</trkpt>
<trkpt lat="47.756623551249504" lon="12.216005120426416">
<ele>707</ele>
<time>2012-03-03T11:32:31Z</time>
<extensions>
<gpxtpx:TrackPointExtension>
<gpxtpx:hr>113</gpxtpx:hr>
<gpxtpx:atemp>7</gpxtpx:atemp>
</gpxtpx:TrackPointExtension>
</extensions>
</trkpt>
<trkpt lat="47.75665506720543" lon="12.215850558131933">
<ele>704</ele>
<time>2012-03-03T11:32:32Z</time>
<extensions>
<gpxtpx:TrackPointExtension>
<gpxtpx:hr>111</gpxtpx:hr>
<gpxtpx:atemp>7</gpxtpx:atemp>
</gpxtpx:TrackPointExtension>
</extensions>
</trkpt>
<trkpt lat="47.75667694397271" lon="12.215691804885864">
<ele>703</ele>
<time>2012-03-03T11:32:33Z</time>
<extensions>
<gpxtpx:TrackPointExtension>
<gpxtpx:hr>111</gpxtpx:hr>
<gpxtpx:atemp>7</gpxtpx:atemp>
</gpxtpx:TrackPointExtension>
</extensions>
</trkpt>
<trkpt lat="47.756709633395076" lon="12.21553380601108">
<ele>701</ele>
<time>2012-03-03T11:32:34Z</time>
<extensions>
<gpxtpx:TrackPointExtension>
<gpxtpx:hr>111</gpxtpx:hr>
<gpxtpx:atemp>7</gpxtpx:atemp>
</gpxtpx:TrackPointExtension>
</extensions>
</trkpt>
<trkpt lat="47.75676000863314" lon="12.215384440496564">
<ele>700</ele>
<time>2012-03-03T11:32:35Z</time>
<extensions>
<gpxtpx:TrackPointExtension>
<gpxtpx:hr>112</gpxtpx:hr>
<gpxtpx:atemp>7</gpxtpx:atemp>
</gpxtpx:TrackPointExtension>
</extensions>
</trkpt>
<trkpt lat="47.75681750848889" lon="12.215258879587054">
<ele>698</ele>
<time>2012-03-03T11:32:36Z</time>
<extensions>
<gpxtpx:TrackPointExtension>
<gpxtpx:hr>113</gpxtpx:hr>
<gpxtpx:atemp>7</gpxtpx:atemp>
</gpxtpx:TrackPointExtension>
</extensions>
</trkpt>
<trkpt lat="47.75687266141176" lon="12.215154441073537">
<ele>697</ele>
<time>2012-03-03T11:32:37Z</time>
<extensions>
<gpxtpx:TrackPointExtension>
<gpxtpx:hr>114</gpxtpx:hr>
<gpxtpx:atemp>7</gpxtpx:atemp>
</gpxtpx:TrackPointExtension>
</extensions>
</trkpt>
<trkpt lat="47.75693158619106" lon="12.215056624263525">
<ele>696</ele>
<time>2012-03-03T11:32:38Z</time>
<extensions>
<gpxtpx:TrackPointExtension>
<gpxtpx:hr>115</gpxtpx:hr>
<gpxtpx:atemp>7</gpxtpx:atemp>
</gpxtpx:TrackPointExtension>
</extensions>
</trkpt>
<trkpt lat="47.756993025541306" lon="12.2149698715657">
<ele>694</ele>
<time>2012-03-03T11:32:39Z</time>
<extensions>
<gpxtpx:TrackPointExtension>
<gpxtpx:hr>117</gpxtpx:hr>
<gpxtpx:atemp>7</gpxtpx:atemp>
</gpxtpx:TrackPointExtension>
</extensions>
</trkpt>
<trkpt lat="47.75705480016768" lon="12.214877754449844">
<ele>693</ele>
<time>2012-03-03T11:32:40Z</time>
<extensions>
<gpxtpx:TrackPointExtension>
<gpxtpx:hr>117</gpxtpx:hr>
<gpxtpx:atemp>7</gpxtpx:atemp>
</gpxtpx:TrackPointExtension>
</extensions>
</trkpt>
<trkpt lat="47.75711003690958" lon="12.214765353128314">
<ele>691</ele>
<time>2012-03-03T11:32:41Z</time>
<extensions>
<gpxtpx:TrackPointExtension>
<gpxtpx:hr>118</gpxtpx:hr>
<gpxtpx:atemp>7</gpxtpx:atemp>
</gpxtpx:TrackPointExtension>
</extensions>
</trkpt>
<trkpt lat="47.75715303607285" lon="12.214631577953696">
<ele>690</ele>
<time>2012-03-03T11:32:42Z</time>
<extensions>
<gpxtpx:TrackPointExtension>
<gpxtpx:hr>119</gpxtpx:hr>
<gpxtpx:atemp>7</gpxtpx:atemp>
</gpxtpx:TrackPointExtension>
</extensions>
</trkpt>
<trkpt lat="47.757189413532615" lon="12.214483134448528">
<ele>689</ele>
<time>2012-03-03T11:32:43Z</time>
<extensions>
<gpxtpx:TrackPointExtension>
<gpxtpx:hr>120</gpxtpx:hr>
<gpxtpx:atemp>7</gpxtpx:atemp>
</gpxtpx:TrackPointExtension>
</extensions>
</trkpt>
<trkpt lat="47.7572213485837" lon="12.21433318220079">
<ele>688</ele>
<time>2012-03-03T11:32:44Z</time>
<extensions>
<gpxtpx:TrackPointExtension>
<gpxtpx:hr>121</gpxtpx:hr>
<gpxtpx:atemp>7</gpxtpx:atemp>
</gpxtpx:TrackPointExtension>
</extensions>
</trkpt>
<trkpt lat="47.757249511778355" lon="12.214163113385439">
<ele>687</ele>
<time>2012-03-03T11:32:45Z</time>
<extensions>
<gpxtpx:TrackPointExtension>
<gpxtpx:hr>122</gpxtpx:hr>
<gpxtpx:atemp>7</gpxtpx:atemp>
</gpxtpx:TrackPointExtension>
</extensions>
</trkpt>
<trkpt lat="47.75727164000273" lon="12.213997906073928">
<ele>686</ele>
<time>2012-03-03T11:32:46Z</time>
<extensions>
<gpxtpx:TrackPointExtension>
<gpxtpx:hr>123</gpxtpx:hr>
<gpxtpx:atemp>7</gpxtpx:atemp>
</gpxtpx:TrackPointExtension>
</extensions>
</trkpt>
<trkpt lat="47.75728647597134" lon="12.21383043564856">
<ele>685</ele>
<time>2012-03-03T11:32:47Z</time>
<extensions>
<gpxtpx:TrackPointExtension>
<gpxtpx:hr>124</gpxtpx:hr>
<gpxtpx:atemp>7</gpxtpx:atemp>
</gpxtpx:TrackPointExtension>
</extensions>
</trkpt>
<trkpt lat="47.75729368440807" lon="12.213661959394813">
<ele>684</ele>
<time>2012-03-03T11:32:48Z</time>
<extensions>
<gpxtpx:TrackPointExtension>
<gpxtpx:hr>124</gpxtpx:hr>
<gpxtpx:atemp>7</gpxtpx:atemp>
</gpxtpx:TrackPointExtension>
</extensions>
</trkpt>
<trkpt lat="47.75728949345648" lon="12.213494405150414">
<ele>683</ele>
<time>2012-03-03T11:32:49Z</time>
<extensions>
<gpxtpx:TrackPointExtension>
<gpxtpx:hr>124</gpxtpx:hr>
<gpxtpx:atemp>7</gpxtpx:atemp>
</gpxtpx:TrackPointExtension>
</extensions>
</trkpt>
<trkpt lat="47.757277423515916" lon="12.213330203667283">
<ele>683</ele>
<time>2012-03-03T11:32:50Z</time>
<extensions>
<gpxtpx:TrackPointExtension>
<gpxtpx:hr>124</gpxtpx:hr>
<gpxtpx:atemp>7</gpxtpx:atemp>
</gpxtpx:TrackPointExtension>
</extensions>
</trkpt>
<trkpt lat="47.75725864805281" lon="12.213166086003184">
<ele>682</ele>
<time>2012-03-03T11:32:51Z</time>
<extensions>
<gpxtpx:TrackPointExtension>
<gpxtpx:hr>123</gpxtpx:hr>
<gpxtpx:atemp>7</gpxtpx:atemp>
</gpxtpx:TrackPointExtension>
</extensions>
</trkpt>
<trkpt lat="47.75723425671458" lon="12.213005740195513">
<ele>681</ele>
<time>2012-03-03T11:32:52Z</time>
<extensions>
<gpxtpx:TrackPointExtension>
<gpxtpx:hr>122</gpxtpx:hr>
<gpxtpx:atemp>7</gpxtpx:atemp>
</gpxtpx:TrackPointExtension>
</extensions>
</trkpt>
<trkpt lat="47.75720098055899" lon="12.212838772684336">
<ele>680</ele>
<time>2012-03-03T11:32:53Z</time>
<extensions>
<gpxtpx:TrackPointExtension>
<gpxtpx:hr>121</gpxtpx:hr>
<gpxtpx:atemp>7</gpxtpx:atemp>
</gpxtpx:TrackPointExtension>
</extensions>
</trkpt>
<trkpt lat="47.75716368108988" lon="12.212680606171489">
<ele>679</ele>
<time>2012-03-03T11:32:54Z</time>
<extensions>
<gpxtpx:TrackPointExtension>
<gpxtpx:hr>118</gpxtpx:hr>
<gpxtpx:atemp>7</gpxtpx:atemp>
</gpxtpx:TrackPointExtension>
</extensions>
</trkpt>
<trkpt lat="47.75712026283145" lon="12.212528642266989">
<ele>678</ele>
<time>2012-03-03T11:32:55Z</time>
<extensions>
<gpxtpx:TrackPointExtension>
<gpxtpx:hr>117</gpxtpx:hr>
<gpxtpx:atemp>7</gpxtpx:atemp>
</gpxtpx:TrackPointExtension>
</extensions>
</trkpt>
<trkpt lat="47.757074581459165" lon="12.212382713332772">
<ele>676</ele>
<time>2012-03-03T11:32:56Z</time>
<extensions>
<gpxtpx:TrackPointExtension>
<gpxtpx:hr>115</gpxtpx:hr>
<gpxtpx:atemp>7</gpxtpx:atemp>
</gpxtpx:TrackPointExtension>
</extensions>
</trkpt>
<trkpt lat="47.757028732448816" lon="12.212238879874349">
<ele>676</ele>
<time>2012-03-03T11:32:57Z</time>
<extensions>
<gpxtpx:TrackPointExtension>
<gpxtpx:hr>115</gpxtpx:hr>
<gpxtpx:atemp>7</gpxtpx:atemp>
</gpxtpx:TrackPointExtension>
</extensions>
</trkpt>
<trkpt lat="47.75698548182845" lon="12.212095214053988">
<ele>675</ele>
<time>2012-03-03T11:32:58Z</time>
<extensions>
<gpxtpx:TrackPointExtension>
<gpxtpx:hr>115</gpxtpx:hr>
<gpxtpx:atemp>7</gpxtpx:atemp>
</gpxtpx:TrackPointExtension>
</extensions>
</trkpt>
<trkpt lat="47.75694600306451" lon="12.211953643709421">
<ele>674</ele>
<time>2012-03-03T11:32:59Z</time>
<extensions>
<gpxtpx:TrackPointExtension>
<gpxtpx:hr>116</gpxtpx:hr>
<gpxtpx:atemp>7</gpxtpx:atemp>
</gpxtpx:TrackPointExtension>
</extensions>
</trkpt>
<trkpt lat="47.756908033043146" lon="12.211811067536473">
<ele>674</ele>
<time>2012-03-03T11:33:00Z</time>
<extensions>
<gpxtpx:TrackPointExtension>
<gpxtpx:hr>116</gpxtpx:hr>
<gpxtpx:atemp>7</gpxtpx:atemp>
</gpxtpx:TrackPointExtension>
</extensions>
</trkpt>
<trkpt lat="47.7568743377924" lon="12.211666563525796">
<ele>673</ele>
<time>2012-03-03T11:33:01Z</time>
<extensions>
<gpxtpx:TrackPointExtension>
<gpxtpx:hr>117</gpxtpx:hr>
<gpxtpx:atemp>7</gpxtpx:atemp>
</gpxtpx:TrackPointExtension>
</extensions>
</trkpt>
<trkpt lat="47.756842570379376" lon="12.211515186354518">
<ele>673</ele>
<time>2012-03-03T11:33:02Z</time>
<extensions>
<gpxtpx:TrackPointExtension>
<gpxtpx:hr>117</gpxtpx:hr>
<gpxtpx:atemp>7</gpxtpx:atemp>
</gpxtpx:TrackPointExtension>
</extensions>
</trkpt>
<trkpt lat="47.75681231170893" lon="12.211369257420301">
<ele>673</ele>
<time>2012-03-03T11:33:03Z</time>
<extensions>
<gpxtpx:TrackPointExtension>
<gpxtpx:hr>117</gpxtpx:hr>
<gpxtpx:atemp>7</gpxtpx:atemp>
</gpxtpx:TrackPointExtension>
</extensions>
</trkpt>
<trkpt lat="47.75678716599941" lon="12.211218299344182">
<ele>672</ele>
<time>2012-03-03T11:33:04Z</time>
<extensions>
<gpxtpx:TrackPointExtension>
<gpxtpx:hr>116</gpxtpx:hr>
<gpxtpx:atemp>7</gpxtpx:atemp>
</gpxtpx:TrackPointExtension>
</extensions>
</trkpt>
<trkpt lat="47.75676763616502" lon="12.211064994335175">
<ele>672</ele>
<time>2012-03-03T11:33:05Z</time>
<extensions>
<gpxtpx:TrackPointExtension>
<gpxtpx:hr>116</gpxtpx:hr>
<gpxtpx:atemp>7</gpxtpx:atemp>
</gpxtpx:TrackPointExtension>
</extensions>
</trkpt>
<trkpt lat="47.75674927979708" lon="12.210910683497787">
<ele>671</ele>
<time>2012-03-03T11:33:06Z</time>
<extensions>
<gpxtpx:TrackPointExtension>
<gpxtpx:hr>116</gpxtpx:hr>
<gpxtpx:atemp>7</gpxtpx:atemp>
</gpxtpx:TrackPointExtension>
</extensions>
</trkpt>
<trkpt lat="47.756733018904924" lon="12.210753858089447">
<ele>671</ele>
<time>2012-03-03T11:33:07Z</time>
<extensions>
<gpxtpx:TrackPointExtension>
<gpxtpx:hr>117</gpxtpx:hr>
<gpxtpx:atemp>7</gpxtpx:atemp>
</gpxtpx:TrackPointExtension>
</extensions>
</trkpt>
<trkpt lat="47.75672120042145" lon="12.210596865043044">
<ele>671</ele>
<time>2012-03-03T11:33:08Z</time>
<extensions>
<gpxtpx:TrackPointExtension>
<gpxtpx:hr>117</gpxtpx:hr>
<gpxtpx:atemp>7</gpxtpx:atemp>
</gpxtpx:TrackPointExtension>
</extensions>
</trkpt>
<trkpt lat="47.75671818293631" lon="12.210434088483453">
<ele>670</ele>
<time>2012-03-03T11:33:09Z</time>
<extensions>
<gpxtpx:TrackPointExtension>
<gpxtpx:hr>118</gpxtpx:hr>
<gpxtpx:atemp>7</gpxtpx:atemp>
</gpxtpx:TrackPointExtension>
</extensions>
</trkpt>
<trkpt lat="47.756729163229465" lon="12.210287488996983">
<ele>670</ele>
<time>2012-03-03T11:33:10Z</time>
<extensions>
<gpxtpx:TrackPointExtension>
<gpxtpx:hr>119</gpxtpx:hr>
<gpxtpx:atemp>7</gpxtpx:atemp>
</gpxtpx:TrackPointExtension>
</extensions>
</trkpt>
<trkpt lat="47.75675179436803" lon="12.210150947794318">
<ele>669</ele>
<time>2012-03-03T11:33:11Z</time>
<extensions>
<gpxtpx:TrackPointExtension>
<gpxtpx:hr>120</gpxtpx:hr>
<gpxtpx:atemp>7</gpxtpx:atemp>
</gpxtpx:TrackPointExtension>
</extensions>
</trkpt>
<trkpt lat="47.7567757666111" lon="12.210021112114191">
<ele>668</ele>
<time>2012-03-03T11:33:12Z</time>
<extensions>
<gpxtpx:TrackPointExtension>
<gpxtpx:hr>120</gpxtpx:hr>
<gpxtpx:atemp>7</gpxtpx:atemp>
</gpxtpx:TrackPointExtension>
</extensions>
</trkpt>
<trkpt lat="47.756796134635806" lon="12.209894461557269">
<ele>668</ele>
<time>2012-03-03T11:33:13Z</time>
<extensions>
<gpxtpx:TrackPointExtension>
<gpxtpx:hr>120</gpxtpx:hr>
<gpxtpx:atemp>7</gpxtpx:atemp>
</gpxtpx:TrackPointExtension>
</extensions>
</trkpt>
<trkpt lat="47.75681004859507" lon="12.209772504866123">
<ele>667</ele>
<time>2012-03-03T11:33:14Z</time>
<extensions>
<gpxtpx:TrackPointExtension>
<gpxtpx:hr>119</gpxtpx:hr>
<gpxtpx:atemp>7</gpxtpx:atemp>
</gpxtpx:TrackPointExtension>
</extensions>
</trkpt>
<trkpt lat="47.75681742466986" lon="12.209642669185996">
<ele>667</ele>
<time>2012-03-03T11:33:15Z</time>
<extensions>
<gpxtpx:TrackPointExtension>
<gpxtpx:hr>117</gpxtpx:hr>
<gpxtpx:atemp>7</gpxtpx:atemp>
</gpxtpx:TrackPointExtension>
</extensions>
</trkpt>
<trkpt lat="47.7568170055747" lon="12.209520125761628">
<ele>666</ele>
<time>2012-03-03T11:33:16Z</time>
<extensions>
<gpxtpx:TrackPointExtension>
<gpxtpx:hr>115</gpxtpx:hr>
<gpxtpx:atemp>7</gpxtpx:atemp>
</gpxtpx:TrackPointExtension>
</extensions>
</trkpt>
<trkpt lat="47.75681440718472" lon="12.209399091079831">
<ele>666</ele>
<time>2012-03-03T11:33:17Z</time>
<extensions>
<gpxtpx:TrackPointExtension>
<gpxtpx:hr>115</gpxtpx:hr>
<gpxtpx:atemp>7</gpxtpx:atemp>
</gpxtpx:TrackPointExtension>
</extensions>
</trkpt>
<trkpt lat="47.75680845603347" lon="12.209275038912892">
<ele>665</ele>
<time>2012-03-03T11:33:18Z</time>
<extensions>
<gpxtpx:TrackPointExtension>
<gpxtpx:hr>115</gpxtpx:hr>
<gpxtpx:atemp>7</gpxtpx:atemp>
</gpxtpx:TrackPointExtension>
</extensions>
</trkpt>
<trkpt lat="47.75680133141577" lon="12.209150400012732">
<ele>665</ele>
<time>2012-03-03T11:33:19Z</time>
<extensions>
<gpxtpx:TrackPointExtension>
<gpxtpx:hr>115</gpxtpx:hr>
<gpxtpx:atemp>7</gpxtpx:atemp>
</gpxtpx:TrackPointExtension>
</extensions>
</trkpt>
<trkpt lat="47.756792698055506" lon="12.209018301218748">
<ele>664</ele>
<time>2012-03-03T11:33:20Z</time>
<extensions>
<gpxtpx:TrackPointExtension>
<gpxtpx:hr>115</gpxtpx:hr>
<gpxtpx:atemp>7</gpxtpx:atemp>
</gpxtpx:TrackPointExtension>
</extensions>
</trkpt>
<trkpt lat="47.756781466305256" lon="12.208881760016084">
<ele>663</ele>
<time>2012-03-03T11:33:21Z</time>
<extensions>
<gpxtpx:TrackPointExtension>
<gpxtpx:hr>115</gpxtpx:hr>
<gpxtpx:atemp>7</gpxtpx:atemp>
</gpxtpx:TrackPointExtension>
</extensions>
</trkpt>
<trkpt lat="47.756767300888896" lon="12.208742955699563">
<ele>663</ele>
<time>2012-03-03T11:33:22Z</time>
<extensions>
<gpxtpx:TrackPointExtension>
<gpxtpx:hr>116</gpxtpx:hr>
<gpxtpx:atemp>7</gpxtpx:atemp>
</gpxtpx:TrackPointExtension>
</extensions>
</trkpt>
<trkpt lat="47.75674894452095" lon="12.20860155299306">
<ele>662</ele>
<time>2012-03-03T11:33:23Z</time>
<extensions>
<gpxtpx:TrackPointExtension>
<gpxtpx:hr>117</gpxtpx:hr>
<gpxtpx:atemp>7</gpxtpx:atemp>
</gpxtpx:TrackPointExtension>
</extensions>
</trkpt>
<trkpt lat="47.75671952404082" lon="12.208455204963684">
<ele>662</ele>
<time>2012-03-03T11:33:24Z</time>
<extensions>
<gpxtpx:TrackPointExtension>
<gpxtpx:hr>119</gpxtpx:hr>
<gpxtpx:atemp>7</gpxtpx:atemp>
</gpxtpx:TrackPointExtension>
</extensions>
</trkpt>
<trkpt lat="47.75667451322079" lon="12.208298379555345">
<ele>661</ele>
<time>2012-03-03T11:33:25Z</time>
<extensions>
<gpxtpx:TrackPointExtension>
<gpxtpx:hr>120</gpxtpx:hr>
<gpxtpx:atemp>7</gpxtpx:atemp>
</gpxtpx:TrackPointExtension>
</extensions>
</trkpt>
<trkpt lat="47.75662271305919" lon="12.208147002384067">
<ele>661</ele>
<time>2012-03-03T11:33:26Z</time>
<extensions>
<gpxtpx:TrackPointExtension>
<gpxtpx:hr>121</gpxtpx:hr>
<gpxtpx:atemp>7</gpxtpx:atemp>
</gpxtpx:TrackPointExtension>
</extensions>
</trkpt>
<trkpt lat="47.75656387209892" lon="12.207995457574725">
<ele>660</ele>
<time>2012-03-03T11:33:27Z</time>
<extensions>
<gpxtpx:TrackPointExtension>
<gpxtpx:hr>122</gpxtpx:hr>
<gpxtpx:atemp>7</gpxtpx:atemp>
</gpxtpx:TrackPointExtension>
</extensions>
</trkpt>
<trkpt lat="47.7565046120435" lon="12.207843661308289">
<ele>659</ele>
<time>2012-03-03T11:33:28Z</time>
<extensions>
<gpxtpx:TrackPointExtension>
<gpxtpx:hr>123</gpxtpx:hr>
<gpxtpx:atemp>7</gpxtpx:atemp>
</gpxtpx:TrackPointExtension>
</extensions>
</trkpt>
<trkpt lat="47.756444765254855" lon="12.207694379612803">
<ele>658</ele>
<time>2012-03-03T11:33:29Z</time>
<extensions>
<gpxtpx:TrackPointExtension>
<gpxtpx:hr>122</gpxtpx:hr>
<gpxtpx:atemp>7</gpxtpx:atemp>
</gpxtpx:TrackPointExtension>
</extensions>
</trkpt>
<trkpt lat="47.75639355182648" lon="12.207564543932676">
<ele>657</ele>
<time>2012-03-03T11:33:30Z</time>
<extensions>
<gpxtpx:TrackPointExtension>
<gpxtpx:hr>120</gpxtpx:hr>
<gpxtpx:atemp>7</gpxtpx:atemp>
</gpxtpx:TrackPointExtension>
</extensions>
</trkpt>
<trkpt lat="47.75633932091296" lon="12.207430265843868">
<ele>655</ele>
<time>2012-03-03T11:33:31Z</time>
<extensions>
<gpxtpx:TrackPointExtension>
<gpxtpx:hr>119</gpxtpx:hr>
<gpxtpx:atemp>7</gpxtpx:atemp>
</gpxtpx:TrackPointExtension>
</extensions>
</trkpt>
<trkpt lat="47.75628232397139" lon="12.207287941128016">
<ele>654</ele>
<time>2012-03-03T11:33:32Z</time>
<extensions>
<gpxtpx:TrackPointExtension>
<gpxtpx:hr>117</gpxtpx:hr>
<gpxtpx:atemp>7</gpxtpx:atemp>
</gpxtpx:TrackPointExtension>
</extensions>
</trkpt>
<trkpt lat="47.75622323155403" lon="12.207157434895635">
<ele>653</ele>
<time>2012-03-03T11:33:33Z</time>
<extensions>
<gpxtpx:TrackPointExtension>
<gpxtpx:hr>116</gpxtpx:hr>
<gpxtpx:atemp>7</gpxtpx:atemp>
</gpxtpx:TrackPointExtension>
</extensions>
</trkpt>
<trkpt lat="47.75615240447223" lon="12.207041094079614">
<ele>651</ele>
<time>2012-03-03T11:33:34Z</time>
<extensions>
<gpxtpx:TrackPointExtension>
<gpxtpx:hr>116</gpxtpx:hr>
<gpxtpx:atemp>7</gpxtpx:atemp>
</gpxtpx:TrackPointExtension>
</extensions>
</trkpt>
<trkpt lat="47.75606833398342" lon="12.206940427422523">
<ele>650</ele>
<time>2012-03-03T11:33:35Z</time>
<extensions>
<gpxtpx:TrackPointExtension>
<gpxtpx:hr>115</gpxtpx:hr>
<gpxtpx:atemp>7</gpxtpx:atemp>
</gpxtpx:TrackPointExtension>
</extensions>
</trkpt>
<trkpt lat="47.755990382283926" lon="12.20687186345458">
<ele>649</ele>
<time>2012-03-03T11:33:36Z</time>
<extensions>
<gpxtpx:TrackPointExtension>
<gpxtpx:hr>115</gpxtpx:hr>
<gpxtpx:atemp>7</gpxtpx:atemp>
</gpxtpx:TrackPointExtension>
</extensions>
</trkpt>
<trkpt lat="47.75591276586056" lon="12.206817883998156">
<ele>647</ele>
<time>2012-03-03T11:33:37Z</time>
<extensions>
<gpxtpx:TrackPointExtension>
<gpxtpx:hr>116</gpxtpx:hr>
<gpxtpx:atemp>7</gpxtpx:atemp>
</gpxtpx:TrackPointExtension>
</extensions>
</trkpt>
<trkpt lat="47.75584286078811" lon="12.206764658913016">
<ele>647</ele>
<time>2012-03-03T11:33:38Z</time>
<extensions>
<gpxtpx:TrackPointExtension>
<gpxtpx:hr>116</gpxtpx:hr>
<gpxtpx:atemp>7</gpxtpx:atemp>
</gpxtpx:TrackPointExtension>
</extensions>
</trkpt>
<trkpt lat="47.75578108616173" lon="12.20669349655509">
<ele>646</ele>
<time>2012-03-03T11:33:39Z</time>
<extensions>
<gpxtpx:TrackPointExtension>
<gpxtpx:hr>116</gpxtpx:hr>
<gpxtpx:atemp>7</gpxtpx:atemp>
</gpxtpx:TrackPointExtension>
</extensions>
</trkpt>
<trkpt lat="47.75573389604688" lon="12.206614455208182">
<ele>646</ele>
<time>2012-03-03T11:33:40Z</time>
<extensions>
<gpxtpx:TrackPointExtension>
<gpxtpx:hr>116</gpxtpx:hr>
<gpxtpx:atemp>7</gpxtpx:atemp>
</gpxtpx:TrackPointExtension>
</extensions>
</trkpt>
<trkpt lat="47.75569542311132" lon="12.206532815471292">
<ele>645</ele>
<time>2012-03-03T11:33:41Z</time>
<extensions>
<gpxtpx:TrackPointExtension>
<gpxtpx:hr>116</gpxtpx:hr>
<gpxtpx:atemp>7</gpxtpx:atemp>
</gpxtpx:TrackPointExtension>
</extensions>
</trkpt>
<trkpt lat="47.75566223077476" lon="12.206453187391162">
<ele>645</ele>
<time>2012-03-03T11:33:42Z</time>
<extensions>
<gpxtpx:TrackPointExtension>
<gpxtpx:hr>115</gpxtpx:hr>
<gpxtpx:atemp>7</gpxtpx:atemp>
</gpxtpx:TrackPointExtension>
</extensions>
</trkpt>
<trkpt lat="47.755563240498304" lon="12.206111457198858">
<ele>645</ele>
<time>2012-03-03T11:33:46Z</time>
<extensions>
<gpxtpx:TrackPointExtension>
<gpxtpx:hr>115</gpxtpx:hr>
<gpxtpx:atemp>7</gpxtpx:atemp>
</gpxtpx:TrackPointExtension>
</extensions>
</trkpt>
<trkpt lat="47.75548570789397" lon="12.205737959593534">
<ele>644</ele>
<time>2012-03-03T11:33:51Z</time>
<extensions>
<gpxtpx:TrackPointExtension>
<gpxtpx:hr>117</gpxtpx:hr>
<gpxtpx:atemp>7</gpxtpx:atemp>
</gpxtpx:TrackPointExtension>
</extensions>
</trkpt>
<trkpt lat="47.755480762571096" lon="12.205660175532103">
<ele>644</ele>
<time>2012-03-03T11:33:52Z</time>
<extensions>
<gpxtpx:TrackPointExtension>
<gpxtpx:hr>116</gpxtpx:hr>
<gpxtpx:atemp>7</gpxtpx:atemp>
</gpxtpx:TrackPointExtension>
</extensions>
</trkpt>
<trkpt lat="47.75547950528562" lon="12.205583732575178">
<ele>643</ele>
<time>2012-03-03T11:33:53Z</time>
<extensions>
<gpxtpx:TrackPointExtension>
<gpxtpx:hr>116</gpxtpx:hr>
<gpxtpx:atemp>7</gpxtpx:atemp>
</gpxtpx:TrackPointExtension>
</extensions>
</trkpt>
<trkpt lat="47.755479253828526" lon="12.20550611615181">
<ele>643</ele>
<time>2012-03-03T11:33:54Z</time>
<extensions>
<gpxtpx:TrackPointExtension>
<gpxtpx:hr>116</gpxtpx:hr>
<gpxtpx:atemp>7</gpxtpx:atemp>
</gpxtpx:TrackPointExtension>
</extensions>
</trkpt>
<trkpt lat="47.75547849945724" lon="12.205435121431947">
<ele>642</ele>
<time>2012-03-03T11:33:55Z</time>
<extensions>
<gpxtpx:TrackPointExtension>
<gpxtpx:hr>116</gpxtpx:hr>
<gpxtpx:atemp>7</gpxtpx:atemp>
</gpxtpx:TrackPointExtension>
</extensions>
</trkpt>
<trkpt lat="47.75548520497978" lon="12.205287348479033">
<ele>642</ele>
<time>2012-03-03T11:33:57Z</time>
<extensions>
<gpxtpx:TrackPointExtension>
<gpxtpx:hr>115</gpxtpx:hr>
<gpxtpx:atemp>7</gpxtpx:atemp>
</gpxtpx:TrackPointExtension>
</extensions>
</trkpt>
<trkpt lat="47.75550741702318" lon="12.205119794234633">
<ele>642</ele>
<time>2012-03-03T11:33:59Z</time>
<extensions>
<gpxtpx:TrackPointExtension>
<gpxtpx:hr>116</gpxtpx:hr>
<gpxtpx:atemp>7</gpxtpx:atemp>
</gpxtpx:TrackPointExtension>
</extensions>
</trkpt>
<trkpt lat="47.755521750077605" lon="12.205027174204588">
<ele>642</ele>
<time>2012-03-03T11:34:00Z</time>
<extensions>
<gpxtpx:TrackPointExtension>
<gpxtpx:hr>117</gpxtpx:hr>
<gpxtpx:atemp>7</gpxtpx:atemp>
</gpxtpx:TrackPointExtension>
</extensions>
</trkpt>
<trkpt lat="47.75553281418979" lon="12.204930866137147">
<ele>641</ele>
<time>2012-03-03T11:34:01Z</time>
<extensions>
<gpxtpx:TrackPointExtension>
<gpxtpx:hr>117</gpxtpx:hr>
<gpxtpx:atemp>7</gpxtpx:atemp>
</gpxtpx:TrackPointExtension>
</extensions>
</trkpt>
<trkpt lat="47.75554069317877" lon="12.20483279787004">
<ele>641</ele>
<time>2012-03-03T11:34:02Z</time>
<extensions>
<gpxtpx:TrackPointExtension>
<gpxtpx:hr>118</gpxtpx:hr>
<gpxtpx:atemp>7</gpxtpx:atemp>
</gpxtpx:TrackPointExtension>
</extensions>
</trkpt>
<trkpt lat="47.755542201921344" lon="12.204728946089745">
<ele>640</ele>
<time>2012-03-03T11:34:03Z</time>
<extensions>
<gpxtpx:TrackPointExtension>
<gpxtpx:hr>117</gpxtpx:hr>
<gpxtpx:atemp>7</gpxtpx:atemp>
</gpxtpx:TrackPointExtension>
</extensions>
</trkpt>
<trkpt lat="47.75551454164088" lon="12.204440357163548">
<ele>640</ele>
<time>2012-03-03T11:34:06Z</time>
<extensions>
<gpxtpx:TrackPointExtension>
<gpxtpx:hr>116</gpxtpx:hr>
<gpxtpx:atemp>7</gpxtpx:atemp>
</gpxtpx:TrackPointExtension>
</extensions>
</trkpt>
<trkpt lat="47.7554908208549" lon="12.204347150400281">
<ele>639</ele>
<time>2012-03-03T11:34:07Z</time>
<extensions>
<gpxtpx:TrackPointExtension>
<gpxtpx:hr>116</gpxtpx:hr>
<gpxtpx:atemp>7</gpxtpx:atemp>
</gpxtpx:TrackPointExtension>
</extensions>
</trkpt>
<trkpt lat="47.75546232238412" lon="12.204254698008299">
<ele>639</ele>
<time>2012-03-03T11:34:08Z</time>
<extensions>
<gpxtpx:TrackPointExtension>
<gpxtpx:hr>116</gpxtpx:hr>
<gpxtpx:atemp>7</gpxtpx:atemp>
</gpxtpx:TrackPointExtension>
</extensions>
</trkpt>
<trkpt lat="47.7554323989898" lon="12.204161072149873">
<ele>638</ele>
<time>2012-03-03T11:34:09Z</time>
<extensions>
<gpxtpx:TrackPointExtension>
<gpxtpx:hr>117</gpxtpx:hr>
<gpxtpx:atemp>7</gpxtpx:atemp>
</gpxtpx:TrackPointExtension>
</extensions>
</trkpt>
<trkpt lat="47.755398619920015" lon="12.204065015539527">
<ele>638</ele>
<time>2012-03-03T11:34:10Z</time>
<extensions>
<gpxtpx:TrackPointExtension>
<gpxtpx:hr>117</gpxtpx:hr>
<gpxtpx:atemp>7</gpxtpx:atemp>
</gpxtpx:TrackPointExtension>
</extensions>
</trkpt>
<trkpt lat="47.75536760687828" lon="12.203977927565575">
<ele>638</ele>
<time>2012-03-03T11:34:11Z</time>
<extensions>
<gpxtpx:TrackPointExtension>
<gpxtpx:hr>117</gpxtpx:hr>
<gpxtpx:atemp>7</gpxtpx:atemp>
</gpxtpx:TrackPointExtension>
</extensions>
</trkpt>
<trkpt lat="47.75533642619848" lon="12.203897209838033">
<ele>637</ele>
<time>2012-03-03T11:34:12Z</time>
<extensions>
<gpxtpx:TrackPointExtension>
<gpxtpx:hr>118</gpxtpx:hr>
<gpxtpx:atemp>7</gpxtpx:atemp>
</gpxtpx:TrackPointExtension>
</extensions>
</trkpt>
<trkpt lat="47.75530516169965" lon="12.203823700547218">
<ele>637</ele>
<time>2012-03-03T11:34:13Z</time>
<extensions>
<gpxtpx:TrackPointExtension>
<gpxtpx:hr>118</gpxtpx:hr>
<gpxtpx:atemp>7</gpxtpx:atemp>
</gpxtpx:TrackPointExtension>
</extensions>
</trkpt>
<trkpt lat="47.75526937097311" lon="12.203756226226687">
<ele>636</ele>
<time>2012-03-03T11:34:14Z</time>
<extensions>
<gpxtpx:TrackPointExtension>
<gpxtpx:hr>119</gpxtpx:hr>
<gpxtpx:atemp>7</gpxtpx:atemp>
</gpxtpx:TrackPointExtension>
</extensions>
</trkpt>
<trkpt lat="47.755223605781794" lon="12.203691266477108">
<ele>636</ele>
<time>2012-03-03T11:34:15Z</time>
<extensions>
<gpxtpx:TrackPointExtension>
<gpxtpx:hr>120</gpxtpx:hr>
<gpxtpx:atemp>7</gpxtpx:atemp>
</gpxtpx:TrackPointExtension>
</extensions>
</trkpt>
<trkpt lat="47.75516526773572" lon="12.20363418571651">
<ele>635</ele>
<time>2012-03-03T11:34:16Z</time>
<extensions>
<gpxtpx:TrackPointExtension>
<gpxtpx:hr>121</gpxtpx:hr>
<gpxtpx:atemp>7</gpxtpx:atemp>
</gpxtpx:TrackPointExtension>
</extensions>
</trkpt>
<trkpt lat="47.75510114617646" lon="12.203589510172606">
<ele>634</ele>
<time>2012-03-03T11:34:17Z</time>
<extensions>
<gpxtpx:TrackPointExtension>
<gpxtpx:hr>120</gpxtpx:hr>
<gpxtpx:atemp>7</gpxtpx:atemp>
</gpxtpx:TrackPointExtension>
</extensions>
</trkpt>
<trkpt lat="47.75503283366561" lon="12.203553719446063">
<ele>634</ele>
<time>2012-03-03T11:34:18Z</time>
<extensions>
<gpxtpx:TrackPointExtension>
<gpxtpx:hr>120</gpxtpx:hr>
<gpxtpx:atemp>7</gpxtpx:atemp>
</gpxtpx:TrackPointExtension>
</extensions>
</trkpt>
<trkpt lat="47.754969131201506" lon="12.203525640070438">
<ele>633</ele>
<time>2012-03-03T11:34:19Z</time>
<extensions>
<gpxtpx:TrackPointExtension>
<gpxtpx:hr>120</gpxtpx:hr>
<gpxtpx:atemp>7</gpxtpx:atemp>
</gpxtpx:TrackPointExtension>
</extensions>
</trkpt>
<trkpt lat="47.7549038361758" lon="12.203498650342226">
<ele>632</ele>
<time>2012-03-03T11:34:20Z</time>
<extensions>
<gpxtpx:TrackPointExtension>
<gpxtpx:hr>116</gpxtpx:hr>
<gpxtpx:atemp>7</gpxtpx:atemp>
</gpxtpx:TrackPointExtension>
</extensions>
</trkpt>
<trkpt lat="47.754832338541746" lon="12.203471828252077">
<ele>632</ele>
<time>2012-03-03T11:34:21Z</time>
<extensions>
<gpxtpx:TrackPointExtension>
<gpxtpx:hr>114</gpxtpx:hr>
<gpxtpx:atemp>7</gpxtpx:atemp>
</gpxtpx:TrackPointExtension>
</extensions>
</trkpt>
<trkpt lat="47.75475279428065" lon="12.203460596501827">
<ele>631</ele>
<time>2012-03-03T11:34:22Z</time>
<extensions>
<gpxtpx:TrackPointExtension>
<gpxtpx:hr>114</gpxtpx:hr>
<gpxtpx:atemp>7</gpxtpx:atemp>
</gpxtpx:TrackPointExtension>
</extensions>
</trkpt>
<trkpt lat="47.754668639972806" lon="12.203480126336217">
<ele>631</ele>
<time>2012-03-03T11:34:23Z</time>
<extensions>
<gpxtpx:TrackPointExtension>
<gpxtpx:hr>113</gpxtpx:hr>
<gpxtpx:atemp>7</gpxtpx:atemp>
</gpxtpx:TrackPointExtension>
</extensions>
</trkpt>
<trkpt lat="47.754584988579154" lon="12.203524131327868">
<ele>630</ele>
<time>2012-03-03T11:34:24Z</time>
<extensions>
<gpxtpx:TrackPointExtension>
<gpxtpx:hr>114</gpxtpx:hr>
<gpxtpx:atemp>7</gpxtpx:atemp>
</gpxtpx:TrackPointExtension>
</extensions>
</trkpt>
<trkpt lat="47.75450016371906" lon="12.203580709174275">
<ele>630</ele>
<time>2012-03-03T11:34:25Z</time>
<extensions>
<gpxtpx:TrackPointExtension>
<gpxtpx:hr>114</gpxtpx:hr>
<gpxtpx:atemp>7</gpxtpx:atemp>
</gpxtpx:TrackPointExtension>
</extensions>
</trkpt>
<trkpt lat="47.75442028418183" lon="12.203636281192303">
<ele>629</ele>
<time>2012-03-03T11:34:26Z</time>
<extensions>
<gpxtpx:TrackPointExtension>
<gpxtpx:hr>115</gpxtpx:hr>
<gpxtpx:atemp>7</gpxtpx:atemp>
</gpxtpx:TrackPointExtension>
</extensions>
</trkpt>
<trkpt lat="47.75434350594878" lon="12.20369084738195">
<ele>628</ele>
<time>2012-03-03T11:34:27Z</time>
<extensions>
<gpxtpx:TrackPointExtension>
<gpxtpx:hr>116</gpxtpx:hr>
<gpxtpx:atemp>7</gpxtpx:atemp>
</gpxtpx:TrackPointExtension>
</extensions>
</trkpt>
<trkpt lat="47.7542666438967" lon="12.203738372772932">
<ele>628</ele>
<time>2012-03-03T11:34:28Z</time>
<extensions>
<gpxtpx:TrackPointExtension>
<gpxtpx:hr>116</gpxtpx:hr>
<gpxtpx:atemp>7</gpxtpx:atemp>
</gpxtpx:TrackPointExtension>
</extensions>
</trkpt>
<trkpt lat="47.754185842350125" lon="12.203776594251394">
<ele>627</ele>
<time>2012-03-03T11:34:29Z</time>
<extensions>
<gpxtpx:TrackPointExtension>
<gpxtpx:hr>116</gpxtpx:hr>
<gpxtpx:atemp>7</gpxtpx:atemp>
</gpxtpx:TrackPointExtension>
</extensions>
</trkpt>
<trkpt lat="47.754103280603886" lon="12.203809870406985">
<ele>627</ele>
<time>2012-03-03T11:34:30Z</time>
<extensions>
<gpxtpx:TrackPointExtension>
<gpxtpx:hr>115</gpxtpx:hr>
<gpxtpx:atemp>7</gpxtpx:atemp>
</gpxtpx:TrackPointExtension>
</extensions>
</trkpt>
<trkpt lat="47.75402281433344" lon="12.203837027773261">
<ele>626</ele>
<time>2012-03-03T11:34:31Z</time>
<extensions>
<gpxtpx:TrackPointExtension>
<gpxtpx:hr>114</gpxtpx:hr>
<gpxtpx:atemp>7</gpxtpx:atemp>
</gpxtpx:TrackPointExtension>
</extensions>
</trkpt>
<trkpt lat="47.75394083932042" lon="12.203854462131858">
<ele>625</ele>
<time>2012-03-03T11:34:32Z</time>
<extensions>
<gpxtpx:TrackPointExtension>
<gpxtpx:hr>113</gpxtpx:hr>
<gpxtpx:atemp>7</gpxtpx:atemp>
</gpxtpx:TrackPointExtension>
</extensions>
</trkpt>
<trkpt lat="47.75384939275682" lon="12.203854210674763">
<ele>625</ele>
<time>2012-03-03T11:34:33Z</time>
<extensions>
<gpxtpx:TrackPointExtension>
<gpxtpx:hr>112</gpxtpx:hr>
<gpxtpx:atemp>7</gpxtpx:atemp>
</gpxtpx:TrackPointExtension>
</extensions>
</trkpt>
<trkpt lat="47.75375836528838" lon="12.203837363049388">
<ele>624</ele>
<time>2012-03-03T11:34:34Z</time>
<extensions>
<gpxtpx:TrackPointExtension>
<gpxtpx:hr>112</gpxtpx:hr>
<gpxtpx:atemp>7</gpxtpx:atemp>
</gpxtpx:TrackPointExtension>
</extensions>
</trkpt>
<trkpt lat="47.753666415810585" lon="12.203802913427353">
<ele>623</ele>
<time>2012-03-03T11:34:35Z</time>
<extensions>
<gpxtpx:TrackPointExtension>
<gpxtpx:hr>111</gpxtpx:hr>
<gpxtpx:atemp>7</gpxtpx:atemp>
</gpxtpx:TrackPointExtension>
</extensions>
</trkpt>
<trkpt lat="47.75348821654916" lon="12.203696127980947">
<ele>623</ele>
<time>2012-03-03T11:34:37Z</time>
<extensions>
<gpxtpx:TrackPointExtension>
<gpxtpx:hr>111</gpxtpx:hr>
<gpxtpx:atemp>7</gpxtpx:atemp>
</gpxtpx:TrackPointExtension>
</extensions>
</trkpt>
<trkpt lat="47.75337296538055" lon="12.203475767746568">
<ele>623</ele>
<time>2012-03-03T11:34:39Z</time>
<extensions>
<gpxtpx:TrackPointExtension>
<gpxtpx:hr>114</gpxtpx:hr>
<gpxtpx:atemp>7</gpxtpx:atemp>
</gpxtpx:TrackPointExtension>
</extensions>
</trkpt>
<trkpt lat="47.753326278179884" lon="12.203360265120864">
<ele>622</ele>
<time>2012-03-03T11:34:40Z</time>
<extensions>
<gpxtpx:TrackPointExtension>
<gpxtpx:hr>115</gpxtpx:hr>
<gpxtpx:atemp>7</gpxtpx:atemp>
</gpxtpx:TrackPointExtension>
</extensions>
</trkpt>
<trkpt lat="47.75329073891044" lon="12.203235039487481">
<ele>622</ele>
<time>2012-03-03T11:34:41Z</time>
<extensions>
<gpxtpx:TrackPointExtension>
<gpxtpx:hr>116</gpxtpx:hr>
<gpxtpx:atemp>7</gpxtpx:atemp>
</gpxtpx:TrackPointExtension>
</extensions>
</trkpt>
<trkpt lat="47.753259809687734" lon="12.20309673808515">
<ele>621</ele>
<time>2012-03-03T11:34:42Z</time>
<extensions>
<gpxtpx:TrackPointExtension>
<gpxtpx:hr>117</gpxtpx:hr>
<gpxtpx:atemp>7</gpxtpx:atemp>
</gpxtpx:TrackPointExtension>
</extensions>
</trkpt>
<trkpt lat="47.75323650799692" lon="12.202961789444089">
<ele>621</ele>
<time>2012-03-03T11:34:43Z</time>
<extensions>
<gpxtpx:TrackPointExtension>
<gpxtpx:hr>117</gpxtpx:hr>
<gpxtpx:atemp>7</gpxtpx:atemp>
</gpxtpx:TrackPointExtension>
</extensions>
</trkpt>
<trkpt lat="47.75320842862129" lon="12.202699184417725">
<ele>620</ele>
<time>2012-03-03T11:34:45Z</time>
<extensions>
<gpxtpx:TrackPointExtension>
<gpxtpx:hr>116</gpxtpx:hr>
<gpxtpx:atemp>7</gpxtpx:atemp>
</gpxtpx:TrackPointExtension>
</extensions>
</trkpt>
<trkpt lat="47.753229551017284" lon="12.20254797488451">
<ele>620</ele>
<time>2012-03-03T11:34:46Z</time>
<extensions>
<gpxtpx:TrackPointExtension>
<gpxtpx:hr>116</gpxtpx:hr>
<gpxtpx:atemp>7</gpxtpx:atemp>
</gpxtpx:TrackPointExtension>
</extensions>
</trkpt>
<trkpt lat="47.75323893874884" lon="12.202408667653799">
<ele>620</ele>
<time>2012-03-03T11:34:47Z</time>
<extensions>
<gpxtpx:TrackPointExtension>
<gpxtpx:hr>115</gpxtpx:hr>
<gpxtpx:atemp>7</gpxtpx:atemp>
</gpxtpx:TrackPointExtension>
</extensions>
</trkpt>
<trkpt lat="47.75323994457722" lon="12.20227338373661">
<ele>619</ele>
<time>2012-03-03T11:34:48Z</time>
<extensions>
<gpxtpx:TrackPointExtension>
<gpxtpx:hr>115</gpxtpx:hr>
<gpxtpx:atemp>7</gpxtpx:atemp>
</gpxtpx:TrackPointExtension>
</extensions>
</trkpt>
<trkpt lat="47.75322452187538" lon="12.202134160324931">
<ele>619</ele>
<time>2012-03-03T11:34:49Z</time>
<extensions>
<gpxtpx:TrackPointExtension>
<gpxtpx:hr>114</gpxtpx:hr>
<gpxtpx:atemp>7</gpxtpx:atemp>
</gpxtpx:TrackPointExtension>
</extensions>
</trkpt>
<trkpt lat="47.753194430842996" lon="12.2020080126822">
<ele>618</ele>
<time>2012-03-03T11:34:50Z</time>
<extensions>
<gpxtpx:TrackPointExtension>
<gpxtpx:hr>114</gpxtpx:hr>
<gpxtpx:atemp>7</gpxtpx:atemp>
</gpxtpx:TrackPointExtension>
</extensions>
</trkpt>
<trkpt lat="47.75315511971712" lon="12.20188932493329">
<ele>617</ele>
<time>2012-03-03T11:34:51Z</time>
<extensions>
<gpxtpx:TrackPointExtension>
<gpxtpx:hr>114</gpxtpx:hr>
<gpxtpx:atemp>7</gpxtpx:atemp>
</gpxtpx:TrackPointExtension>
</extensions>
</trkpt>
<trkpt lat="47.753104576841" lon="12.201781114563346">
<ele>617</ele>
<time>2012-03-03T11:34:52Z</time>
<extensions>
<gpxtpx:TrackPointExtension>
<gpxtpx:hr>115</gpxtpx:hr>
<gpxtpx:atemp>7</gpxtpx:atemp>
</gpxtpx:TrackPointExtension>
</extensions>
</trkpt>
<trkpt lat="47.75304866954684" lon="12.201672652736306">
<ele>616</ele>
<time>2012-03-03T11:34:53Z</time>
<extensions>
<gpxtpx:TrackPointExtension>
<gpxtpx:hr>116</gpxtpx:hr>
<gpxtpx:atemp>7</gpxtpx:atemp>
</gpxtpx:TrackPointExtension>
</extensions>
</trkpt>
<trkpt lat="47.75298907421529" lon="12.201563604176044">
<ele>616</ele>
<time>2012-03-03T11:34:54Z</time>
<extensions>
<gpxtpx:TrackPointExtension>
<gpxtpx:hr>118</gpxtpx:hr>
<gpxtpx:atemp>7</gpxtpx:atemp>
</gpxtpx:TrackPointExtension>
</extensions>
</trkpt>
<trkpt lat="47.75292822159827" lon="12.201454639434814">
<ele>615</ele>
<time>2012-03-03T11:34:55Z</time>
<extensions>
<gpxtpx:TrackPointExtension>
<gpxtpx:hr>118</gpxtpx:hr>
<gpxtpx:atemp>7</gpxtpx:atemp>
</gpxtpx:TrackPointExtension>
</extensions>
</trkpt>
<trkpt lat="47.75286384858191" lon="12.201347267255187">
<ele>615</ele>
<time>2012-03-03T11:34:56Z</time>
<extensions>
<gpxtpx:TrackPointExtension>
<gpxtpx:hr>119</gpxtpx:hr>
<gpxtpx:atemp>7</gpxtpx:atemp>
</gpxtpx:TrackPointExtension>
</extensions>
</trkpt>
<trkpt lat="47.7527988050133" lon="12.201235620304942">
<ele>614</ele>
<time>2012-03-03T11:34:57Z</time>
<extensions>
<gpxtpx:TrackPointExtension>
<gpxtpx:hr>118</gpxtpx:hr>
<gpxtpx:atemp>7</gpxtpx:atemp>
</gpxtpx:TrackPointExtension>
</extensions>
</trkpt>
<trkpt lat="47.752733593806624" lon="12.201134450733662">
<ele>614</ele>
<time>2012-03-03T11:34:58Z</time>
<extensions>
<gpxtpx:TrackPointExtension>
<gpxtpx:hr>118</gpxtpx:hr>
<gpxtpx:atemp>7</gpxtpx:atemp>
</gpxtpx:TrackPointExtension>
</extensions>
</trkpt>
<trkpt lat="47.75266092270613" lon="12.201036047190428">
<ele>613</ele>
<time>2012-03-03T11:34:59Z</time>
<extensions>
<gpxtpx:TrackPointExtension>
<gpxtpx:hr>117</gpxtpx:hr>
<gpxtpx:atemp>7</gpxtpx:atemp>
</gpxtpx:TrackPointExtension>
</extensions>
</trkpt>
<trkpt lat="47.75258582085371" lon="12.20094183459878">
<ele>612</ele>
<time>2012-03-03T11:35:00Z</time>
<extensions>
<gpxtpx:TrackPointExtension>
<gpxtpx:hr>116</gpxtpx:hr>
<gpxtpx:atemp>7</gpxtpx:atemp>
</gpxtpx:TrackPointExtension>
</extensions>
</trkpt>
<trkpt lat="47.75250803679228" lon="12.200853656977415">
<ele>612</ele>
<time>2012-03-03T11:35:01Z</time>
<extensions>
<gpxtpx:TrackPointExtension>
<gpxtpx:hr>115</gpxtpx:hr>
<gpxtpx:atemp>7</gpxtpx:atemp>
</gpxtpx:TrackPointExtension>
</extensions>
</trkpt>
<trkpt lat="47.75242664851248" lon="12.20076690427959">
<ele>611</ele>
<time>2012-03-03T11:35:02Z</time>
<extensions>
<gpxtpx:TrackPointExtension>
<gpxtpx:hr>115</gpxtpx:hr>
<gpxtpx:atemp>7</gpxtpx:atemp>
</gpxtpx:TrackPointExtension>
</extensions>
</trkpt>
<trkpt lat="47.75233905762434" lon="12.200675290077925">
<ele>611</ele>
<time>2012-03-03T11:35:03Z</time>
<extensions>
<gpxtpx:TrackPointExtension>
<gpxtpx:hr>115</gpxtpx:hr>
<gpxtpx:atemp>7</gpxtpx:atemp>
</gpxtpx:TrackPointExtension>
</extensions>
</trkpt>
<trkpt lat="47.752248449251056" lon="12.200565906241536">
<ele>610</ele>
<time>2012-03-03T11:35:04Z</time>
<extensions>
<gpxtpx:TrackPointExtension>
<gpxtpx:hr>115</gpxtpx:hr>
<gpxtpx:atemp>7</gpxtpx:atemp>
</gpxtpx:TrackPointExtension>
</extensions>
</trkpt>
<trkpt lat="47.75216563604772" lon="12.200440848246217">
<ele>609</ele>
<time>2012-03-03T11:35:05Z</time>
<extensions>
<gpxtpx:TrackPointExtension>
<gpxtpx:hr>116</gpxtpx:hr>
<gpxtpx:atemp>7</gpxtpx:atemp>
</gpxtpx:TrackPointExtension>
</extensions>
</trkpt>
<trkpt lat="47.75207896716893" lon="12.200311599299312">
<ele>608</ele>
<time>2012-03-03T11:35:06Z</time>
<extensions>
<gpxtpx:TrackPointExtension>
<gpxtpx:hr>116</gpxtpx:hr>
<gpxtpx:atemp>7</gpxtpx:atemp>
</gpxtpx:TrackPointExtension>
</extensions>
</trkpt>
<trkpt lat="47.751987939700484" lon="12.200186373665929">
<ele>607</ele>
<time>2012-03-03T11:35:07Z</time>
<extensions>
<gpxtpx:TrackPointExtension>
<gpxtpx:hr>117</gpxtpx:hr>
<gpxtpx:atemp>7</gpxtpx:atemp>
</gpxtpx:TrackPointExtension>
</extensions>
</trkpt>
<trkpt lat="47.751896157860756" lon="12.200068607926369">
<ele>607</ele>
<time>2012-03-03T11:35:08Z</time>
<extensions>
<gpxtpx:TrackPointExtension>
<gpxtpx:hr>118</gpxtpx:hr>
<gpxtpx:atemp>7</gpxtpx:atemp>
</gpxtpx:TrackPointExtension>
</extensions>
</trkpt>
<trkpt lat="47.7518056333065" lon="12.199959140270948">
<ele>606</ele>
<time>2012-03-03T11:35:09Z</time>
<extensions>
<gpxtpx:TrackPointExtension>
<gpxtpx:hr>117</gpxtpx:hr>
<gpxtpx:atemp>7</gpxtpx:atemp>
</gpxtpx:TrackPointExtension>
</extensions>
</trkpt>
<trkpt lat="47.751714773476124" lon="12.199857383966446">
<ele>604</ele>
<time>2012-03-03T11:35:10Z</time>
<extensions>
<gpxtpx:TrackPointExtension>
<gpxtpx:hr>117</gpxtpx:hr>
<gpxtpx:atemp>7</gpxtpx:atemp>
</gpxtpx:TrackPointExtension>
</extensions>
</trkpt>
<trkpt lat="47.75162206962705" lon="12.199760572984815">
<ele>603</ele>
<time>2012-03-03T11:35:11Z</time>
<extensions>
<gpxtpx:TrackPointExtension>
<gpxtpx:hr>114</gpxtpx:hr>
<gpxtpx:atemp>7</gpxtpx:atemp>
</gpxtpx:TrackPointExtension>
</extensions>
</trkpt>
<trkpt lat="47.75153087452054" lon="12.199667282402515">
<ele>602</ele>
<time>2012-03-03T11:35:12Z</time>
<extensions>
<gpxtpx:TrackPointExtension>
<gpxtpx:hr>112</gpxtpx:hr>
<gpxtpx:atemp>7</gpxtpx:atemp>
</gpxtpx:TrackPointExtension>
</extensions>
</trkpt>
<trkpt lat="47.7514499053359" lon="12.199584972113371">
<ele>601</ele>
<time>2012-03-03T11:35:13Z</time>
<extensions>
<gpxtpx:TrackPointExtension>
<gpxtpx:hr>112</gpxtpx:hr>
<gpxtpx:atemp>7</gpxtpx:atemp>
</gpxtpx:TrackPointExtension>
</extensions>
</trkpt>
<trkpt lat="47.751368433237076" lon="12.199505344033241">
<ele>600</ele>
<time>2012-03-03T11:35:14Z</time>
<extensions>
<gpxtpx:TrackPointExtension>
<gpxtpx:hr>111</gpxtpx:hr>
<gpxtpx:atemp>7</gpxtpx:atemp>
</gpxtpx:TrackPointExtension>
</extensions>
</trkpt>
<trkpt lat="47.751287212595344" lon="12.199425715953112">
<ele>599</ele>
<time>2012-03-03T11:35:15Z</time>
<extensions>
<gpxtpx:TrackPointExtension>
<gpxtpx:hr>111</gpxtpx:hr>
<gpxtpx:atemp>7</gpxtpx:atemp>
</gpxtpx:TrackPointExtension>
</extensions>
</trkpt>
<trkpt lat="47.75098152458668" lon="12.199147352948785">
<ele>599</ele>
<time>2012-03-03T11:35:19Z</time>
<extensions>
<gpxtpx:TrackPointExtension>
<gpxtpx:hr>110</gpxtpx:hr>
<gpxtpx:atemp>7</gpxtpx:atemp>
</gpxtpx:TrackPointExtension>
</extensions>
</trkpt>
<trkpt lat="47.75090164504945" lon="12.199084907770157">
<ele>598</ele>
<time>2012-03-03T11:35:20Z</time>
<extensions>
<gpxtpx:TrackPointExtension>
<gpxtpx:hr>108</gpxtpx:hr>
<gpxtpx:atemp>7</gpxtpx:atemp>
</gpxtpx:TrackPointExtension>
</extensions>
</trkpt>
<trkpt lat="47.750820592045784" lon="12.199024641886353">
<ele>598</ele>
<time>2012-03-03T11:35:21Z</time>
<extensions>
<gpxtpx:TrackPointExtension>
<gpxtpx:hr>107</gpxtpx:hr>
<gpxtpx:atemp>7</gpxtpx:atemp>
</gpxtpx:TrackPointExtension>
</extensions>
</trkpt>
<trkpt lat="47.750737024471164" lon="12.198969069868326">
<ele>597</ele>
<time>2012-03-03T11:35:22Z</time>
<extensions>
<gpxtpx:TrackPointExtension>
<gpxtpx:hr>106</gpxtpx:hr>
<gpxtpx:atemp>7</gpxtpx:atemp>
</gpxtpx:TrackPointExtension>
</extensions>
</trkpt>
<trkpt lat="47.750648595392704" lon="12.19891358166933">
<ele>596</ele>
<time>2012-03-03T11:35:23Z</time>
<extensions>
<gpxtpx:TrackPointExtension>
<gpxtpx:hr>107</gpxtpx:hr>
<gpxtpx:atemp>7</gpxtpx:atemp>
</gpxtpx:TrackPointExtension>
</extensions>
</trkpt>
<trkpt lat="47.750556813552976" lon="12.198858009651303">
<ele>596</ele>
<time>2012-03-03T11:35:24Z</time>
<extensions>
<gpxtpx:TrackPointExtension>
<gpxtpx:hr>107</gpxtpx:hr>
<gpxtpx:atemp>7</gpxtpx:atemp>
</gpxtpx:TrackPointExtension>
</extensions>
</trkpt>
<trkpt lat="47.75046033784747" lon="12.198805874213576">
<ele>596</ele>
<time>2012-03-03T11:35:25Z</time>
<extensions>
<gpxtpx:TrackPointExtension>
<gpxtpx:hr>107</gpxtpx:hr>
<gpxtpx:atemp>7</gpxtpx:atemp>
</gpxtpx:TrackPointExtension>
</extensions>
</trkpt>
<trkpt lat="47.750364197418094" lon="12.198751224204898">
<ele>595</ele>
<time>2012-03-03T11:35:26Z</time>
<extensions>
<gpxtpx:TrackPointExtension>
<gpxtpx:hr>108</gpxtpx:hr>
<gpxtpx:atemp>7</gpxtpx:atemp>
</gpxtpx:TrackPointExtension>
</extensions>
</trkpt>
<trkpt lat="47.75025355629623" lon="12.198690874502063">
<ele>594</ele>
<time>2012-03-03T11:35:27Z</time>
<extensions>
<gpxtpx:TrackPointExtension>
<gpxtpx:hr>108</gpxtpx:hr>
<gpxtpx:atemp>7</gpxtpx:atemp>
</gpxtpx:TrackPointExtension>
</extensions>
</trkpt>
<trkpt lat="47.7501514647156" lon="12.198621723800898">
<ele>593</ele>
<time>2012-03-03T11:35:28Z</time>
<extensions>
<gpxtpx:TrackPointExtension>
<gpxtpx:hr>107</gpxtpx:hr>
<gpxtpx:atemp>7</gpxtpx:atemp>
</gpxtpx:TrackPointExtension>
</extensions>
</trkpt>
<trkpt lat="47.750069070607424" lon="12.198531115427613">
<ele>592</ele>
<time>2012-03-03T11:35:29Z</time>
<extensions>
<gpxtpx:TrackPointExtension>
<gpxtpx:hr>106</gpxtpx:hr>
<gpxtpx:atemp>7</gpxtpx:atemp>
</gpxtpx:TrackPointExtension>
</extensions>
</trkpt>
<trkpt lat="47.74999178946018" lon="12.198435058817267">
<ele>591</ele>
<time>2012-03-03T11:35:30Z</time>
<extensions>
<gpxtpx:TrackPointExtension>
<gpxtpx:hr>104</gpxtpx:hr>
<gpxtpx:atemp>7</gpxtpx:atemp>
</gpxtpx:TrackPointExtension>
</extensions>
</trkpt>
<trkpt lat="47.749928338453174" lon="12.198319304734468">
<ele>590</ele>
<time>2012-03-03T11:35:31Z</time>
<extensions>
<gpxtpx:TrackPointExtension>
<gpxtpx:hr>103</gpxtpx:hr>
<gpxtpx:atemp>7</gpxtpx:atemp>
</gpxtpx:TrackPointExtension>
</extensions>
</trkpt>
<trkpt lat="47.74987142533064" lon="12.1982001978904">
<ele>589</ele>
<time>2012-03-03T11:35:32Z</time>
<extensions>
<gpxtpx:TrackPointExtension>
<gpxtpx:hr>103</gpxtpx:hr>
<gpxtpx:atemp>7</gpxtpx:atemp>
</gpxtpx:TrackPointExtension>
</extensions>
</trkpt>
<trkpt lat="47.74982599541545" lon="12.198077151551843">
<ele>589</ele>
<time>2012-03-03T11:35:33Z</time>
<extensions>
<gpxtpx:TrackPointExtension>
<gpxtpx:hr>104</gpxtpx:hr>
<gpxtpx:atemp>7</gpxtpx:atemp>
</gpxtpx:TrackPointExtension>
</extensions>
</trkpt>
<trkpt lat="47.74979665875435" lon="12.197935245931149">
<ele>588</ele>
<time>2012-03-03T11:35:34Z</time>
<extensions>
<gpxtpx:TrackPointExtension>
<gpxtpx:hr>105</gpxtpx:hr>
<gpxtpx:atemp>7</gpxtpx:atemp>
</gpxtpx:TrackPointExtension>
</extensions>
</trkpt>
<trkpt lat="47.749788109213114" lon="12.197792837396264">
<ele>587</ele>
<time>2012-03-03T11:35:35Z</time>
<extensions>
<gpxtpx:TrackPointExtension>
<gpxtpx:hr>106</gpxtpx:hr>
<gpxtpx:atemp>7</gpxtpx:atemp>
</gpxtpx:TrackPointExtension>
</extensions>
</trkpt>
<trkpt lat="47.74979556910694" lon="12.197652105242014">
<ele>586</ele>
<time>2012-03-03T11:35:36Z</time>
<extensions>
<gpxtpx:TrackPointExtension>
<gpxtpx:hr>108</gpxtpx:hr>
<gpxtpx:atemp>7</gpxtpx:atemp>
</gpxtpx:TrackPointExtension>
</extensions>
</trkpt>
<trkpt lat="47.749811075627804" lon="12.197507517412305">
<ele>585</ele>
<time>2012-03-03T11:35:37Z</time>
<extensions>
<gpxtpx:TrackPointExtension>
<gpxtpx:hr>109</gpxtpx:hr>
<gpxtpx:atemp>7</gpxtpx:atemp>
</gpxtpx:TrackPointExtension>
</extensions>
</trkpt>
<trkpt lat="47.74983630515635" lon="12.197362845763564">
<ele>584</ele>
<time>2012-03-03T11:35:38Z</time>
<extensions>
<gpxtpx:TrackPointExtension>
<gpxtpx:hr>110</gpxtpx:hr>
<gpxtpx:atemp>7</gpxtpx:atemp>
</gpxtpx:TrackPointExtension>
</extensions>
</trkpt>
<trkpt lat="47.74986119940877" lon="12.197219431400299">
<ele>584</ele>
<time>2012-03-03T11:35:39Z</time>
<extensions>
<gpxtpx:TrackPointExtension>
<gpxtpx:hr>112</gpxtpx:hr>
<gpxtpx:atemp>7</gpxtpx:atemp>
</gpxtpx:TrackPointExtension>
</extensions>
</trkpt>
<trkpt lat="47.74988458491862" lon="12.197075514122844">
<ele>583</ele>
<time>2012-03-03T11:35:40Z</time>
<extensions>
<gpxtpx:TrackPointExtension>
<gpxtpx:hr>113</gpxtpx:hr>
<gpxtpx:atemp>7</gpxtpx:atemp>
</gpxtpx:TrackPointExtension>
</extensions>
</trkpt>
<trkpt lat="47.74992750026286" lon="12.196770580485463">
<ele>582</ele>
<time>2012-03-03T11:35:42Z</time>
<extensions>
<gpxtpx:TrackPointExtension>
<gpxtpx:hr>116</gpxtpx:hr>
<gpxtpx:atemp>7</gpxtpx:atemp>
</gpxtpx:TrackPointExtension>
</extensions>
</trkpt>
<trkpt lat="47.749939654022455" lon="12.196620963513851">
<ele>582</ele>
<time>2012-03-03T11:35:43Z</time>
<extensions>
<gpxtpx:TrackPointExtension>
<gpxtpx:hr>117</gpxtpx:hr>
<gpxtpx:atemp>7</gpxtpx:atemp>
</gpxtpx:TrackPointExtension>
</extensions>
</trkpt>
<trkpt lat="47.74994040839374" lon="12.196470340713859">
<ele>581</ele>
<time>2012-03-03T11:35:44Z</time>
<extensions>
<gpxtpx:TrackPointExtension>
<gpxtpx:hr>117</gpxtpx:hr>
<gpxtpx:atemp>7</gpxtpx:atemp>
</gpxtpx:TrackPointExtension>
</extensions>
</trkpt>
<trkpt lat="47.749946024268866" lon="12.196319801732898">
<ele>581</ele>
<time>2012-03-03T11:35:45Z</time>
<extensions>
<gpxtpx:TrackPointExtension>
<gpxtpx:hr>116</gpxtpx:hr>
<gpxtpx:atemp>7</gpxtpx:atemp>
</gpxtpx:TrackPointExtension>
</extensions>
</trkpt>
<trkpt lat="47.74995842948556" lon="12.196168676018715">
<ele>580</ele>
<time>2012-03-03T11:35:46Z</time>
<extensions>
<gpxtpx:TrackPointExtension>
<gpxtpx:hr>114</gpxtpx:hr>
<gpxtpx:atemp>7</gpxtpx:atemp>
</gpxtpx:TrackPointExtension>
</extensions>
</trkpt>
<trkpt lat="47.749975444749" lon="12.196017550304532">
<ele>578</ele>
<time>2012-03-03T11:35:47Z</time>
<extensions>
<gpxtpx:TrackPointExtension>
<gpxtpx:hr>112</gpxtpx:hr>
<gpxtpx:atemp>7</gpxtpx:atemp>
</gpxtpx:TrackPointExtension>
</extensions>
</trkpt>
<trkpt lat="47.74998717941344" lon="12.19586986117065">
<ele>578</ele>
<time>2012-03-03T11:35:48Z</time>
<extensions>
<gpxtpx:TrackPointExtension>
<gpxtpx:hr>111</gpxtpx:hr>
<gpxtpx:atemp>7</gpxtpx:atemp>
</gpxtpx:TrackPointExtension>
</extensions>
</trkpt>
<trkpt lat="47.74999363347888" lon="12.195724099874496">
<ele>577</ele>
<time>2012-03-03T11:35:49Z</time>
<extensions>
<gpxtpx:TrackPointExtension>
<gpxtpx:hr>110</gpxtpx:hr>
<gpxtpx:atemp>7</gpxtpx:atemp>
</gpxtpx:TrackPointExtension>
</extensions>
</trkpt>
<trkpt lat="47.749995309859514" lon="12.195565681904554">
<ele>576</ele>
<time>2012-03-03T11:35:50Z</time>
<extensions>
<gpxtpx:TrackPointExtension>
<gpxtpx:hr>110</gpxtpx:hr>
<gpxtpx:atemp>7</gpxtpx:atemp>
</gpxtpx:TrackPointExtension>
</extensions>
</trkpt>
<trkpt lat="47.74998139590025" lon="12.195413885638118">
<ele>576</ele>
<time>2012-03-03T11:35:51Z</time>
<extensions>
<gpxtpx:TrackPointExtension>
<gpxtpx:hr>110</gpxtpx:hr>
<gpxtpx:atemp>7</gpxtpx:atemp>
</gpxtpx:TrackPointExtension>
</extensions>
</trkpt>
<trkpt lat="47.74994862265885" lon="12.19527080655098">
<ele>575</ele>
<time>2012-03-03T11:35:52Z</time>
<extensions>
<gpxtpx:TrackPointExtension>
<gpxtpx:hr>110</gpxtpx:hr>
<gpxtpx:atemp>7</gpxtpx:atemp>
</gpxtpx:TrackPointExtension>
</extensions>
</trkpt>
<trkpt lat="47.74990503676236" lon="12.195139462128282">
<ele>574</ele>
<time>2012-03-03T11:35:53Z</time>
<extensions>
<gpxtpx:TrackPointExtension>
<gpxtpx:hr>110</gpxtpx:hr>
<gpxtpx:atemp>7</gpxtpx:atemp>
</gpxtpx:TrackPointExtension>
</extensions>
</trkpt>
<trkpt lat="47.749862875789404" lon="12.195011135190725">
<ele>573</ele>
<time>2012-03-03T11:35:54Z</time>
<extensions>
<gpxtpx:TrackPointExtension>
<gpxtpx:hr>111</gpxtpx:hr>
<gpxtpx:atemp>7</gpxtpx:atemp>
</gpxtpx:TrackPointExtension>
</extensions>
</trkpt>
<trkpt lat="47.749828258529305" lon="12.194885909557343">
<ele>573</ele>
<time>2012-03-03T11:35:55Z</time>
<extensions>
<gpxtpx:TrackPointExtension>
<gpxtpx:hr>111</gpxtpx:hr>
<gpxtpx:atemp>7</gpxtpx:atemp>
</gpxtpx:TrackPointExtension>
</extensions>
</trkpt>
<trkpt lat="47.74980344809592" lon="12.194763701409101">
<ele>573</ele>
<time>2012-03-03T11:35:56Z</time>
<extensions>
<gpxtpx:TrackPointExtension>
<gpxtpx:hr>111</gpxtpx:hr>
<gpxtpx:atemp>7</gpxtpx:atemp>
</gpxtpx:TrackPointExtension>
</extensions>
</trkpt>
<trkpt lat="47.74979188106954" lon="12.194636212661862">
<ele>572</ele>
<time>2012-03-03T11:35:57Z</time>
<extensions>
<gpxtpx:TrackPointExtension>
<gpxtpx:hr>110</gpxtpx:hr>
<gpxtpx:atemp>7</gpxtpx:atemp>
</gpxtpx:TrackPointExtension>
</extensions>
</trkpt>
<trkpt lat="47.74980411864817" lon="12.19451048411429">
<ele>572</ele>
<time>2012-03-03T11:35:58Z</time>
<extensions>
<gpxtpx:TrackPointExtension>
<gpxtpx:hr>109</gpxtpx:hr>
<gpxtpx:atemp>7</gpxtpx:atemp>
</gpxtpx:TrackPointExtension>
</extensions>
</trkpt>
<trkpt lat="47.74983974173665" lon="12.19438148662448">
<ele>571</ele>
<time>2012-03-03T11:35:59Z</time>
<extensions>
<gpxtpx:TrackPointExtension>
<gpxtpx:hr>108</gpxtpx:hr>
<gpxtpx:atemp>7</gpxtpx:atemp>
</gpxtpx:TrackPointExtension>
</extensions>
</trkpt>
<trkpt lat="47.749889781698585" lon="12.194255590438843">
<ele>571</ele>
<time>2012-03-03T11:36:00Z</time>
<extensions>
<gpxtpx:TrackPointExtension>
<gpxtpx:hr>108</gpxtpx:hr>
<gpxtpx:atemp>7</gpxtpx:atemp>
</gpxtpx:TrackPointExtension>
</extensions>
</trkpt>
<trkpt lat="47.749940576031804" lon="12.194124916568398">
<ele>570</ele>
<time>2012-03-03T11:36:01Z</time>
<extensions>
<gpxtpx:TrackPointExtension>
<gpxtpx:hr>109</gpxtpx:hr>
<gpxtpx:atemp>7</gpxtpx:atemp>
</gpxtpx:TrackPointExtension>
</extensions>
</trkpt>
<trkpt lat="47.7499804738909" lon="12.19398820772767">
<ele>569</ele>
<time>2012-03-03T11:36:02Z</time>
<extensions>
<gpxtpx:TrackPointExtension>
<gpxtpx:hr>110</gpxtpx:hr>
<gpxtpx:atemp>7</gpxtpx:atemp>
</gpxtpx:TrackPointExtension>
</extensions>
</trkpt>
<trkpt lat="47.750010062009096" lon="12.193851163610816">
<ele>569</ele>
<time>2012-03-03T11:36:03Z</time>
<extensions>
<gpxtpx:TrackPointExtension>
<gpxtpx:hr>112</gpxtpx:hr>
<gpxtpx:atemp>7</gpxtpx:atemp>
</gpxtpx:TrackPointExtension>
</extensions>
</trkpt>
<trkpt lat="47.75002674199641" lon="12.193705150857568">
<ele>568</ele>
<time>2012-03-03T11:36:04Z</time>
<extensions>
<gpxtpx:TrackPointExtension>
<gpxtpx:hr>113</gpxtpx:hr>
<gpxtpx:atemp>7</gpxtpx:atemp>
</gpxtpx:TrackPointExtension>
</extensions>
</trkpt>
<trkpt lat="47.75001936592162" lon="12.193571124225855">
<ele>568</ele>
<time>2012-03-03T11:36:05Z</time>
<extensions>
<gpxtpx:TrackPointExtension>
<gpxtpx:hr>114</gpxtpx:hr>
<gpxtpx:atemp>7</gpxtpx:atemp>
</gpxtpx:TrackPointExtension>
</extensions>
</trkpt>
<trkpt lat="47.74989506229758" lon="12.19326694495976">
<ele>568</ele>
<time>2012-03-03T11:36:08Z</time>
<extensions>
<gpxtpx:TrackPointExtension>
<gpxtpx:hr>114</gpxtpx:hr>
<gpxtpx:atemp>7</gpxtpx:atemp>
</gpxtpx:TrackPointExtension>
</extensions>
</trkpt>
<trkpt lat="47.74975508451462" lon="12.193141300231218">
<ele>567</ele>
<time>2012-03-03T11:36:10Z</time>
<extensions>
<gpxtpx:TrackPointExtension>
<gpxtpx:hr>113</gpxtpx:hr>
<gpxtpx:atemp>7</gpxtpx:atemp>
</gpxtpx:TrackPointExtension>
</extensions>
</trkpt>
<trkpt lat="47.74968149140477" lon="12.193078435957432">
<ele>567</ele>
<time>2012-03-03T11:36:11Z</time>
<extensions>
<gpxtpx:TrackPointExtension>
<gpxtpx:hr>113</gpxtpx:hr>
<gpxtpx:atemp>7</gpxtpx:atemp>
</gpxtpx:TrackPointExtension>
</extensions>
</trkpt>
<trkpt lat="47.749610245227814" lon="12.19300844706595">
<ele>566</ele>
<time>2012-03-03T11:36:12Z</time>
<extensions>
<gpxtpx:TrackPointExtension>
<gpxtpx:hr>114</gpxtpx:hr>
<gpxtpx:atemp>7</gpxtpx:atemp>
</gpxtpx:TrackPointExtension>
</extensions>
</trkpt>
<trkpt lat="47.74954050779343" lon="12.192928567528725">
<ele>566</ele>
<time>2012-03-03T11:36:13Z</time>
<extensions>
<gpxtpx:TrackPointExtension>
<gpxtpx:hr>114</gpxtpx:hr>
<gpxtpx:atemp>7</gpxtpx:atemp>
</gpxtpx:TrackPointExtension>
</extensions>
</trkpt>
<trkpt lat="47.74942894466221" lon="12.192743998020887">
<ele>565</ele>
<time>2012-03-03T11:36:15Z</time>
<extensions>
<gpxtpx:TrackPointExtension>
<gpxtpx:hr>116</gpxtpx:hr>
<gpxtpx:atemp>7</gpxtpx:atemp>
</gpxtpx:TrackPointExtension>
</extensions>
</trkpt>
<trkpt lat="47.74938887916505" lon="12.192635871469975">
<ele>565</ele>
<time>2012-03-03T11:36:16Z</time>
<extensions>
<gpxtpx:TrackPointExtension>
<gpxtpx:hr>118</gpxtpx:hr>
<gpxtpx:atemp>7</gpxtpx:atemp>
</gpxtpx:TrackPointExtension>
</extensions>
</trkpt>
<trkpt lat="47.749358201399446" lon="12.192518776282668">
<ele>564</ele>
<time>2012-03-03T11:36:17Z</time>
<extensions>
<gpxtpx:TrackPointExtension>
<gpxtpx:hr>119</gpxtpx:hr>
<gpxtpx:atemp>7</gpxtpx:atemp>
</gpxtpx:TrackPointExtension>
</extensions>
</trkpt>
<trkpt lat="47.7493380010128" lon="12.192398244515061">
<ele>564</ele>
<time>2012-03-03T11:36:18Z</time>
<extensions>
<gpxtpx:TrackPointExtension>
<gpxtpx:hr>119</gpxtpx:hr>
<gpxtpx:atemp>7</gpxtpx:atemp>
</gpxtpx:TrackPointExtension>
</extensions>
</trkpt>
<trkpt lat="47.749323500320315" lon="12.192271342501044">
<ele>563</ele>
<time>2012-03-03T11:36:19Z</time>
<extensions>
<gpxtpx:TrackPointExtension>
<gpxtpx:hr>120</gpxtpx:hr>
<gpxtpx:atemp>7</gpxtpx:atemp>
</gpxtpx:TrackPointExtension>
</extensions>
</trkpt>
<trkpt lat="47.74931536987424" lon="12.192014185711741">
<ele>563</ele>
<time>2012-03-03T11:36:21Z</time>
<extensions>
<gpxtpx:TrackPointExtension>
<gpxtpx:hr>120</gpxtpx:hr>
<gpxtpx:atemp>7</gpxtpx:atemp>
</gpxtpx:TrackPointExtension>
</extensions>
</trkpt>
<trkpt lat="47.749319560825825" lon="12.191772367805243">
<ele>563</ele>
<time>2012-03-03T11:36:23Z</time>
<extensions>
<gpxtpx:TrackPointExtension>
<gpxtpx:hr>120</gpxtpx:hr>
<gpxtpx:atemp>7</gpxtpx:atemp>
</gpxtpx:TrackPointExtension>
</extensions>
</trkpt>
<trkpt lat="47.74929986335337" lon="12.191193765029311">
<ele>563</ele>
<time>2012-03-03T11:36:28Z</time>
<extensions>
<gpxtpx:TrackPointExtension>
<gpxtpx:hr>120</gpxtpx:hr>
<gpxtpx:atemp>7</gpxtpx:atemp>
</gpxtpx:TrackPointExtension>
</extensions>
</trkpt>
<trkpt lat="47.749278070405126" lon="12.191086141392589">
<ele>563</ele>
<time>2012-03-03T11:36:29Z</time>
<extensions>
<gpxtpx:TrackPointExtension>
<gpxtpx:hr>120</gpxtpx:hr>
<gpxtpx:atemp>7</gpxtpx:atemp>
</gpxtpx:TrackPointExtension>
</extensions>
</trkpt>
<trkpt lat="47.74925082921982" lon="12.190980361774564">
<ele>563</ele>
<time>2012-03-03T11:36:30Z</time>
<extensions>
<gpxtpx:TrackPointExtension>
<gpxtpx:hr>119</gpxtpx:hr>
<gpxtpx:atemp>7</gpxtpx:atemp>
</gpxtpx:TrackPointExtension>
</extensions>
</trkpt>
<trkpt lat="47.74921964854002" lon="12.190872402861714">
<ele>562</ele>
<time>2012-03-03T11:36:31Z</time>
<extensions>
<gpxtpx:TrackPointExtension>
<gpxtpx:hr>120</gpxtpx:hr>
<gpxtpx:atemp>7</gpxtpx:atemp>
</gpxtpx:TrackPointExtension>
</extensions>
</trkpt>
<trkpt lat="47.74918503127992" lon="12.19076570123434">
<ele>562</ele>
<time>2012-03-03T11:36:32Z</time>
<extensions>
<gpxtpx:TrackPointExtension>
<gpxtpx:hr>120</gpxtpx:hr>
<gpxtpx:atemp>7</gpxtpx:atemp>
</gpxtpx:TrackPointExtension>
</extensions>
</trkpt>
<trkpt lat="47.74914253503084" lon="12.190665118396282">
<ele>561</ele>
<time>2012-03-03T11:36:33Z</time>
<extensions>
<gpxtpx:TrackPointExtension>
<gpxtpx:hr>121</gpxtpx:hr>
<gpxtpx:atemp>7</gpxtpx:atemp>
</gpxtpx:TrackPointExtension>
</extensions>
</trkpt>
<trkpt lat="47.74909467436373" lon="12.190566463395953">
<ele>561</ele>
<time>2012-03-03T11:36:34Z</time>
<extensions>
<gpxtpx:TrackPointExtension>
<gpxtpx:hr>121</gpxtpx:hr>
<gpxtpx:atemp>7</gpxtpx:atemp>
</gpxtpx:TrackPointExtension>
</extensions>
</trkpt>
<trkpt lat="47.7489391900599" lon="12.190273264423013">
<ele>561</ele>
<time>2012-03-03T11:36:37Z</time>
<extensions>
<gpxtpx:TrackPointExtension>
<gpxtpx:hr>123</gpxtpx:hr>
<gpxtpx:atemp>7</gpxtpx:atemp>
</gpxtpx:TrackPointExtension>
</extensions>
</trkpt>
<trkpt lat="47.74888697080314" lon="12.190182404592633">
<ele>560</ele>
<time>2012-03-03T11:36:38Z</time>
<extensions>
<gpxtpx:TrackPointExtension>
<gpxtpx:hr>122</gpxtpx:hr>
<gpxtpx:atemp>7</gpxtpx:atemp>
</gpxtpx:TrackPointExtension>
</extensions>
</trkpt>
<trkpt lat="47.748837266117334" lon="12.19009188003838">
<ele>560</ele>
<time>2012-03-03T11:36:39Z</time>
<extensions>
<gpxtpx:TrackPointExtension>
<gpxtpx:hr>122</gpxtpx:hr>
<gpxtpx:atemp>7</gpxtpx:atemp>
</gpxtpx:TrackPointExtension>
</extensions>
</trkpt>
<trkpt lat="47.7487872261554" lon="12.19000043347478">
<ele>560</ele>
<time>2012-03-03T11:36:40Z</time>
<extensions>
<gpxtpx:TrackPointExtension>
<gpxtpx:hr>122</gpxtpx:hr>
<gpxtpx:atemp>7</gpxtpx:atemp>
</gpxtpx:TrackPointExtension>
</extensions>
</trkpt>
<trkpt lat="47.748737186193466" lon="12.189905298873782">
<ele>559</ele>
<time>2012-03-03T11:36:41Z</time>
<extensions>
<gpxtpx:TrackPointExtension>
<gpxtpx:hr>122</gpxtpx:hr>
<gpxtpx:atemp>7</gpxtpx:atemp>
</gpxtpx:TrackPointExtension>
</extensions>
</trkpt>
<trkpt lat="47.74860802106559" lon="12.189587540924549">
<ele>559</ele>
<time>2012-03-03T11:36:44Z</time>
<extensions>
<gpxtpx:TrackPointExtension>
<gpxtpx:hr>124</gpxtpx:hr>
<gpxtpx:atemp>7</gpxtpx:atemp>
</gpxtpx:TrackPointExtension>
</extensions>
</trkpt>
<trkpt lat="47.74857767857611" lon="12.189479665830731">
<ele>558</ele>
<time>2012-03-03T11:36:45Z</time>
<extensions>
<gpxtpx:TrackPointExtension>
<gpxtpx:hr>124</gpxtpx:hr>
<gpxtpx:atemp>7</gpxtpx:atemp>
</gpxtpx:TrackPointExtension>
</extensions>
</trkpt>
<trkpt lat="47.74854716844857" lon="12.18936969526112">
<ele>558</ele>
<time>2012-03-03T11:36:46Z</time>
<extensions>
<gpxtpx:TrackPointExtension>
<gpxtpx:hr>124</gpxtpx:hr>
<gpxtpx:atemp>7</gpxtpx:atemp>
</gpxtpx:TrackPointExtension>
</extensions>
</trkpt>
<trkpt lat="47.748517664149404" lon="12.189258802682161">
<ele>557</ele>
<time>2012-03-03T11:36:47Z</time>
<extensions>
<gpxtpx:TrackPointExtension>
<gpxtpx:hr>124</gpxtpx:hr>
<gpxtpx:atemp>7</gpxtpx:atemp>
</gpxtpx:TrackPointExtension>
</extensions>
</trkpt>
<trkpt lat="47.7484920155257" lon="12.189146988093853">
<ele>557</ele>
<time>2012-03-03T11:36:48Z</time>
<extensions>
<gpxtpx:TrackPointExtension>
<gpxtpx:hr>122</gpxtpx:hr>
<gpxtpx:atemp>7</gpxtpx:atemp>
</gpxtpx:TrackPointExtension>
</extensions>
</trkpt>
<trkpt lat="47.7484314981848" lon="12.188808023929596">
<ele>557</ele>
<time>2012-03-03T11:36:51Z</time>
<extensions>
<gpxtpx:TrackPointExtension>
<gpxtpx:hr>119</gpxtpx:hr>
<gpxtpx:atemp>7</gpxtpx:atemp>
</gpxtpx:TrackPointExtension>
</extensions>
</trkpt>
<trkpt lat="47.74841196835041" lon="12.188698137179017">
<ele>556</ele>
<time>2012-03-03T11:36:52Z</time>
<extensions>
<gpxtpx:TrackPointExtension>
<gpxtpx:hr>119</gpxtpx:hr>
<gpxtpx:atemp>7</gpxtpx:atemp>
</gpxtpx:TrackPointExtension>
</extensions>
</trkpt>
<trkpt lat="47.74839478544891" lon="12.18858640640974">
<ele>556</ele>
<time>2012-03-03T11:36:53Z</time>
<extensions>
<gpxtpx:TrackPointExtension>
<gpxtpx:hr>119</gpxtpx:hr>
<gpxtpx:atemp>7</gpxtpx:atemp>
</gpxtpx:TrackPointExtension>
</extensions>
</trkpt>
<trkpt lat="47.748376009985805" lon="12.188476184383035">
<ele>555</ele>
<time>2012-03-03T11:36:54Z</time>
<extensions>
<gpxtpx:TrackPointExtension>
<gpxtpx:hr>119</gpxtpx:hr>
<gpxtpx:atemp>7</gpxtpx:atemp>
</gpxtpx:TrackPointExtension>
</extensions>
</trkpt>
<trkpt lat="47.748357485979795" lon="12.188364621251822">
<ele>555</ele>
<time>2012-03-03T11:36:55Z</time>
<extensions>
<gpxtpx:TrackPointExtension>
<gpxtpx:hr>120</gpxtpx:hr>
<gpxtpx:atemp>7</gpxtpx:atemp>
</gpxtpx:TrackPointExtension>
</extensions>
</trkpt>
<trkpt lat="47.74830241687596" lon="12.188017442822456">
<ele>555</ele>
<time>2012-03-03T11:36:58Z</time>
<extensions>
<gpxtpx:TrackPointExtension>
<gpxtpx:hr>123</gpxtpx:hr>
<gpxtpx:atemp>7</gpxtpx:atemp>
</gpxtpx:TrackPointExtension>
</extensions>
</trkpt>
<trkpt lat="47.74828934110701" lon="12.18789841979742">
<ele>555</ele>
<time>2012-03-03T11:36:59Z</time>
<extensions>
<gpxtpx:TrackPointExtension>
<gpxtpx:hr>123</gpxtpx:hr>
<gpxtpx:atemp>7</gpxtpx:atemp>
</gpxtpx:TrackPointExtension>
</extensions>
</trkpt>
<trkpt lat="47.74827123619616" lon="12.187659367918968">
<ele>555</ele>
<time>2012-03-03T11:37:01Z</time>
<extensions>
<gpxtpx:TrackPointExtension>
<gpxtpx:hr>123</gpxtpx:hr>
<gpxtpx:atemp>7</gpxtpx:atemp>
</gpxtpx:TrackPointExtension>
</extensions>
</trkpt>
<trkpt lat="47.748272912576795" lon="12.187290145084262">
<ele>555</ele>
<time>2012-03-03T11:37:04Z</time>
<extensions>
<gpxtpx:TrackPointExtension>
<gpxtpx:hr>122</gpxtpx:hr>
<gpxtpx:atemp>7</gpxtpx:atemp>
</gpxtpx:TrackPointExtension>
</extensions>
</trkpt>
<trkpt lat="47.74827416986227" lon="12.187165087088943">
<ele>554</ele>
<time>2012-03-03T11:37:05Z</time>
<extensions>
<gpxtpx:TrackPointExtension>
<gpxtpx:hr>122</gpxtpx:hr>
<gpxtpx:atemp>7</gpxtpx:atemp>
</gpxtpx:TrackPointExtension>
</extensions>
</trkpt>
<trkpt lat="47.7482726611197" lon="12.18704380095005">
<ele>554</ele>
<time>2012-03-03T11:37:06Z</time>
<extensions>
<gpxtpx:TrackPointExtension>
<gpxtpx:hr>122</gpxtpx:hr>
<gpxtpx:atemp>7</gpxtpx:atemp>
</gpxtpx:TrackPointExtension>
</extensions>
</trkpt>
<trkpt lat="47.748262183740735" lon="12.186928046867251">
<ele>554</ele>
<time>2012-03-03T11:37:07Z</time>
<extensions>
<gpxtpx:TrackPointExtension>
<gpxtpx:hr>122</gpxtpx:hr>
<gpxtpx:atemp>7</gpxtpx:atemp>
</gpxtpx:TrackPointExtension>
</extensions>
</trkpt>
<trkpt lat="47.74824223481119" lon="12.186818830668926">
<ele>553</ele>
<time>2012-03-03T11:37:08Z</time>
<extensions>
<gpxtpx:TrackPointExtension>
<gpxtpx:hr>122</gpxtpx:hr>
<gpxtpx:atemp>7</gpxtpx:atemp>
</gpxtpx:TrackPointExtension>
</extensions>
</trkpt>
<trkpt lat="47.748209964483976" lon="12.1867183316499">
<ele>553</ele>
<time>2012-03-03T11:37:09Z</time>
<extensions>
<gpxtpx:TrackPointExtension>
<gpxtpx:hr>122</gpxtpx:hr>
<gpxtpx:atemp>7</gpxtpx:atemp>
</gpxtpx:TrackPointExtension>
</extensions>
</trkpt>
<trkpt lat="47.74817098863423" lon="12.18662261031568">
<ele>552</ele>
<time>2012-03-03T11:37:10Z</time>
<extensions>
<gpxtpx:TrackPointExtension>
<gpxtpx:hr>121</gpxtpx:hr>
<gpxtpx:atemp>7</gpxtpx:atemp>
</gpxtpx:TrackPointExtension>
</extensions>
</trkpt>
<trkpt lat="47.74813209660351" lon="12.186532840132713">
<ele>552</ele>
<time>2012-03-03T11:37:11Z</time>
<extensions>
<gpxtpx:TrackPointExtension>
<gpxtpx:hr>121</gpxtpx:hr>
<gpxtpx:atemp>7</gpxtpx:atemp>
</gpxtpx:TrackPointExtension>
</extensions>
</trkpt>
<trkpt lat="47.74809127673507" lon="12.186445835977793">
<ele>551</ele>
<time>2012-03-03T11:37:12Z</time>
<extensions>
<gpxtpx:TrackPointExtension>
<gpxtpx:hr>122</gpxtpx:hr>
<gpxtpx:atemp>7</gpxtpx:atemp>
</gpxtpx:TrackPointExtension>
</extensions>
</trkpt>
<trkpt lat="47.74805095978081" lon="12.186354389414191">
<ele>551</ele>
<time>2012-03-03T11:37:13Z</time>
<extensions>
<gpxtpx:TrackPointExtension>
<gpxtpx:hr>123</gpxtpx:hr>
<gpxtpx:atemp>7</gpxtpx:atemp>
</gpxtpx:TrackPointExtension>
</extensions>
</trkpt>
<trkpt lat="47.74787234142423" lon="12.186010647565126">
<ele>551</ele>
<time>2012-03-03T11:37:17Z</time>
<extensions>
<gpxtpx:TrackPointExtension>
<gpxtpx:hr>126</gpxtpx:hr>
<gpxtpx:atemp>7</gpxtpx:atemp>
</gpxtpx:TrackPointExtension>
</extensions>
</trkpt>
<trkpt lat="47.74762968532741" lon="12.185486694797873">
<ele>551</ele>
<time>2012-03-03T11:37:23Z</time>
<extensions>
<gpxtpx:TrackPointExtension>
<gpxtpx:hr>129</gpxtpx:hr>
<gpxtpx:atemp>7</gpxtpx:atemp>
</gpxtpx:TrackPointExtension>
</extensions>
</trkpt>
<trkpt lat="47.747595654800534" lon="12.185398852452636">
<ele>551</ele>
<time>2012-03-03T11:37:24Z</time>
<extensions>
<gpxtpx:TrackPointExtension>
<gpxtpx:hr>130</gpxtpx:hr>
<gpxtpx:atemp>7</gpxtpx:atemp>
</gpxtpx:TrackPointExtension>
</extensions>
</trkpt>
<trkpt lat="47.747379234060645" lon="12.184813627973199">
<ele>551</ele>
<time>2012-03-03T11:37:31Z</time>
<extensions>
<gpxtpx:TrackPointExtension>
<gpxtpx:hr>128</gpxtpx:hr>
<gpxtpx:atemp>7</gpxtpx:atemp>
</gpxtpx:TrackPointExtension>
</extensions>
</trkpt>
<trkpt lat="47.74735291488469" lon="12.18473450280726">
<ele>550</ele>
<time>2012-03-03T11:37:32Z</time>
<extensions>
<gpxtpx:TrackPointExtension>
<gpxtpx:hr>128</gpxtpx:hr>
<gpxtpx:atemp>7</gpxtpx:atemp>
</gpxtpx:TrackPointExtension>
</extensions>
</trkpt>
<trkpt lat="47.74732718244195" lon="12.184656551107764">
<ele>550</ele>
<time>2012-03-03T11:37:33Z</time>
<extensions>
<gpxtpx:TrackPointExtension>
<gpxtpx:hr>128</gpxtpx:hr>
<gpxtpx:atemp>7</gpxtpx:atemp>
</gpxtpx:TrackPointExtension>
</extensions>
</trkpt>
<trkpt lat="47.747301030904055" lon="12.184576420113444">
<ele>549</ele>
<time>2012-03-03T11:37:34Z</time>
<extensions>
<gpxtpx:TrackPointExtension>
<gpxtpx:hr>128</gpxtpx:hr>
<gpxtpx:atemp>7</gpxtpx:atemp>
</gpxtpx:TrackPointExtension>
</extensions>
</trkpt>
<trkpt lat="47.74727454409003" lon="12.184493942186236">
<ele>549</ele>
<time>2012-03-03T11:37:35Z</time>
<extensions>
<gpxtpx:TrackPointExtension>
<gpxtpx:hr>128</gpxtpx:hr>
<gpxtpx:atemp>7</gpxtpx:atemp>
</gpxtpx:TrackPointExtension>
</extensions>
</trkpt>
<trkpt lat="47.747245794162154" lon="12.184408698230982">
<ele>548</ele>
<time>2012-03-03T11:37:36Z</time>
<extensions>
<gpxtpx:TrackPointExtension>
<gpxtpx:hr>128</gpxtpx:hr>
<gpxtpx:atemp>7</gpxtpx:atemp>
</gpxtpx:TrackPointExtension>
</extensions>
</trkpt>
<trkpt lat="47.7471795771271" lon="12.184227397665381">
<ele>548</ele>
<time>2012-03-03T11:37:38Z</time>
<extensions>
<gpxtpx:TrackPointExtension>
<gpxtpx:hr>128</gpxtpx:hr>
<gpxtpx:atemp>7</gpxtpx:atemp>
</gpxtpx:TrackPointExtension>
</extensions>
</trkpt>
<trkpt lat="47.74706977419555" lon="12.183942077681422">
<ele>548</ele>
<time>2012-03-03T11:37:41Z</time>
<extensions>
<gpxtpx:TrackPointExtension>
<gpxtpx:hr>128</gpxtpx:hr>
<gpxtpx:atemp>7</gpxtpx:atemp>
</gpxtpx:TrackPointExtension>
</extensions>
</trkpt>
<trkpt lat="47.74703205563128" lon="12.183845518156886">
<ele>548</ele>
<time>2012-03-03T11:37:42Z</time>
<extensions>
<gpxtpx:TrackPointExtension>
<gpxtpx:hr>128</gpxtpx:hr>
<gpxtpx:atemp>7</gpxtpx:atemp>
</gpxtpx:TrackPointExtension>
</extensions>
</trkpt>
<trkpt lat="47.74699307978153" lon="12.183747701346874">
<ele>547</ele>
<time>2012-03-03T11:37:43Z</time>
<extensions>
<gpxtpx:TrackPointExtension>
<gpxtpx:hr>128</gpxtpx:hr>
<gpxtpx:atemp>7</gpxtpx:atemp>
</gpxtpx:TrackPointExtension>
</extensions>
</trkpt>
<trkpt lat="47.746951673179865" lon="12.183645945042372">
<ele>547</ele>
<time>2012-03-03T11:37:44Z</time>
<extensions>
<gpxtpx:TrackPointExtension>
<gpxtpx:hr>127</gpxtpx:hr>
<gpxtpx:atemp>7</gpxtpx:atemp>
</gpxtpx:TrackPointExtension>
</extensions>
</trkpt>
<trkpt lat="47.74690741673112" lon="12.183535555377603">
<ele>546</ele>
<time>2012-03-03T11:37:45Z</time>
<extensions>
<gpxtpx:TrackPointExtension>
<gpxtpx:hr>127</gpxtpx:hr>
<gpxtpx:atemp>7</gpxtpx:atemp>
</gpxtpx:TrackPointExtension>
</extensions>
</trkpt>
<trkpt lat="47.7468619029969" lon="12.183428602293134">
<ele>546</ele>
<time>2012-03-03T11:37:46Z</time>
<extensions>
<gpxtpx:TrackPointExtension>
<gpxtpx:hr>127</gpxtpx:hr>
<gpxtpx:atemp>7</gpxtpx:atemp>
</gpxtpx:TrackPointExtension>
</extensions>
</trkpt>
<trkpt lat="47.746816808357835" lon="12.183323493227363">
<ele>546</ele>
<time>2012-03-03T11:37:47Z</time>
<extensions>
<gpxtpx:TrackPointExtension>
<gpxtpx:hr>127</gpxtpx:hr>
<gpxtpx:atemp>7</gpxtpx:atemp>
</gpxtpx:TrackPointExtension>
</extensions>
</trkpt>
<trkpt lat="47.74677372537553" lon="12.183216623961926">
<ele>545</ele>
<time>2012-03-03T11:37:48Z</time>
<extensions>
<gpxtpx:TrackPointExtension>
<gpxtpx:hr>126</gpxtpx:hr>
<gpxtpx:atemp>7</gpxtpx:atemp>
</gpxtpx:TrackPointExtension>
</extensions>
</trkpt>
<trkpt lat="47.7467321511358" lon="12.183108413591981">
<ele>545</ele>
<time>2012-03-03T11:37:49Z</time>
<extensions>
<gpxtpx:TrackPointExtension>
<gpxtpx:hr>126</gpxtpx:hr>
<gpxtpx:atemp>7</gpxtpx:atemp>
</gpxtpx:TrackPointExtension>
</extensions>
</trkpt>
<trkpt lat="47.74669401347637" lon="12.18299550935626">
<ele>544</ele>
<time>2012-03-03T11:37:50Z</time>
<extensions>
<gpxtpx:TrackPointExtension>
<gpxtpx:hr>126</gpxtpx:hr>
<gpxtpx:atemp>7</gpxtpx:atemp>
</gpxtpx:TrackPointExtension>
</extensions>
</trkpt>
<trkpt lat="47.746661407873034" lon="12.182875396683812">
<ele>543</ele>
<time>2012-03-03T11:37:51Z</time>
<extensions>
<gpxtpx:TrackPointExtension>
<gpxtpx:hr>126</gpxtpx:hr>
<gpxtpx:atemp>7</gpxtpx:atemp>
</gpxtpx:TrackPointExtension>
</extensions>
</trkpt>
<trkpt lat="47.74664699099958" lon="12.182753356173635">
<ele>543</ele>
<time>2012-03-03T11:37:52Z</time>
<extensions>
<gpxtpx:TrackPointExtension>
<gpxtpx:hr>125</gpxtpx:hr>
<gpxtpx:atemp>7</gpxtpx:atemp>
</gpxtpx:TrackPointExtension>
</extensions>
</trkpt>
<trkpt lat="47.74664833210409" lon="12.182625280693173">
<ele>543</ele>
<time>2012-03-03T11:37:53Z</time>
<extensions>
<gpxtpx:TrackPointExtension>
<gpxtpx:hr>123</gpxtpx:hr>
<gpxtpx:atemp>7</gpxtpx:atemp>
</gpxtpx:TrackPointExtension>
</extensions>
</trkpt>
<trkpt lat="47.7466597314924" lon="12.18250885605812">
<ele>542</ele>
<time>2012-03-03T11:37:54Z</time>
<extensions>
<gpxtpx:TrackPointExtension>
<gpxtpx:hr>120</gpxtpx:hr>
<gpxtpx:atemp>7</gpxtpx:atemp>
</gpxtpx:TrackPointExtension>
</extensions>
</trkpt>
<trkpt lat="47.74667381308973" lon="12.182400142773986">
<ele>541</ele>
<time>2012-03-03T11:37:55Z</time>
<extensions>
<gpxtpx:TrackPointExtension>
<gpxtpx:hr>120</gpxtpx:hr>
<gpxtpx:atemp>7</gpxtpx:atemp>
</gpxtpx:TrackPointExtension>
</extensions>
</trkpt>
<trkpt lat="47.74668328464031" lon="12.182291597127914">
<ele>541</ele>
<time>2012-03-03T11:37:56Z</time>
<extensions>
<gpxtpx:TrackPointExtension>
<gpxtpx:hr>119</gpxtpx:hr>
<gpxtpx:atemp>7</gpxtpx:atemp>
</gpxtpx:TrackPointExtension>
</extensions>
</trkpt>
<trkpt lat="47.74668135680258" lon="12.182186152786016">
<ele>540</ele>
<time>2012-03-03T11:37:57Z</time>
<extensions>
<gpxtpx:TrackPointExtension>
<gpxtpx:hr>119</gpxtpx:hr>
<gpxtpx:atemp>7</gpxtpx:atemp>
</gpxtpx:TrackPointExtension>
</extensions>
</trkpt>
<trkpt lat="47.74665621109307" lon="12.182086491957307">
<ele>540</ele>
<time>2012-03-03T11:37:58Z</time>
<extensions>
<gpxtpx:TrackPointExtension>
<gpxtpx:hr>119</gpxtpx:hr>
<gpxtpx:atemp>7</gpxtpx:atemp>
</gpxtpx:TrackPointExtension>
</extensions>
</trkpt>
<trkpt lat="47.74647885002196" lon="12.181863952428102">
<ele>540</ele>
<time>2012-03-03T11:38:01Z</time>
<extensions>
<gpxtpx:TrackPointExtension>
<gpxtpx:hr>121</gpxtpx:hr>
<gpxtpx:atemp>7</gpxtpx:atemp>
</gpxtpx:TrackPointExtension>
</extensions>
</trkpt>
<trkpt lat="47.74634599685669" lon="12.181773763149977">
<ele>539</ele>
<time>2012-03-03T11:38:03Z</time>
<extensions>
<gpxtpx:TrackPointExtension>
<gpxtpx:hr>119</gpxtpx:hr>
<gpxtpx:atemp>7</gpxtpx:atemp>
</gpxtpx:TrackPointExtension>
</extensions>
</trkpt>
<trkpt lat="47.74627416394651" lon="12.181736044585705">
<ele>539</ele>
<time>2012-03-03T11:38:04Z</time>
<extensions>
<gpxtpx:TrackPointExtension>
<gpxtpx:hr>118</gpxtpx:hr>
<gpxtpx:atemp>7</gpxtpx:atemp>
</gpxtpx:TrackPointExtension>
</extensions>
</trkpt>
<trkpt lat="47.74619981646538" lon="12.181690949946642">
<ele>538</ele>
<time>2012-03-03T11:38:05Z</time>
<extensions>
<gpxtpx:TrackPointExtension>
<gpxtpx:hr>118</gpxtpx:hr>
<gpxtpx:atemp>7</gpxtpx:atemp>
</gpxtpx:TrackPointExtension>
</extensions>
</trkpt>
<trkpt lat="47.746127815917134" lon="12.18163420446217">
<ele>538</ele>
<time>2012-03-03T11:38:06Z</time>
<extensions>
<gpxtpx:TrackPointExtension>
<gpxtpx:hr>115</gpxtpx:hr>
<gpxtpx:atemp>7</gpxtpx:atemp>
</gpxtpx:TrackPointExtension>
</extensions>
</trkpt>
<trkpt lat="47.74605824612081" lon="12.181565053761005">
<ele>538</ele>
<time>2012-03-03T11:38:07Z</time>
<extensions>
<gpxtpx:TrackPointExtension>
<gpxtpx:hr>115</gpxtpx:hr>
<gpxtpx:atemp>7</gpxtpx:atemp>
</gpxtpx:TrackPointExtension>
</extensions>
</trkpt>
<trkpt lat="47.7459205314517" lon="12.181397834792733">
<ele>538</ele>
<time>2012-03-03T11:38:09Z</time>
<extensions>
<gpxtpx:TrackPointExtension>
<gpxtpx:hr>114</gpxtpx:hr>
<gpxtpx:atemp>7</gpxtpx:atemp>
</gpxtpx:TrackPointExtension>
</extensions>
</trkpt>
<trkpt lat="47.74586093612015" lon="12.181308064609766">
<ele>538</ele>
<time>2012-03-03T11:38:10Z</time>
<extensions>
<gpxtpx:TrackPointExtension>
<gpxtpx:hr>114</gpxtpx:hr>
<gpxtpx:atemp>7</gpxtpx:atemp>
</gpxtpx:TrackPointExtension>
</extensions>
</trkpt>
<trkpt lat="47.74580620229244" lon="12.181215109303594">
<ele>538</ele>
<time>2012-03-03T11:38:11Z</time>
<extensions>
<gpxtpx:TrackPointExtension>
<gpxtpx:hr>114</gpxtpx:hr>
<gpxtpx:atemp>7</gpxtpx:atemp>
</gpxtpx:TrackPointExtension>
</extensions>
</trkpt>
<trkpt lat="47.74576110765338" lon="12.181107234209776">
<ele>537</ele>
<time>2012-03-03T11:38:12Z</time>
<extensions>
<gpxtpx:TrackPointExtension>
<gpxtpx:hr>113</gpxtpx:hr>
<gpxtpx:atemp>7</gpxtpx:atemp>
</gpxtpx:TrackPointExtension>
</extensions>
</trkpt>
<trkpt lat="47.74573001079261" lon="12.180988462641835">
<ele>537</ele>
<time>2012-03-03T11:38:13Z</time>
<extensions>
<gpxtpx:TrackPointExtension>
<gpxtpx:hr>112</gpxtpx:hr>
<gpxtpx:atemp>7</gpxtpx:atemp>
</gpxtpx:TrackPointExtension>
</extensions>
</trkpt>
<trkpt lat="47.745710564777255" lon="12.18086214736104">
<ele>536</ele>
<time>2012-03-03T11:38:14Z</time>
<extensions>
<gpxtpx:TrackPointExtension>
<gpxtpx:hr>110</gpxtpx:hr>
<gpxtpx:atemp>7</gpxtpx:atemp>
</gpxtpx:TrackPointExtension>
</extensions>
</trkpt>
<trkpt lat="47.74569572880864" lon="12.180726192891598">
<ele>535</ele>
<time>2012-03-03T11:38:15Z</time>
<extensions>
<gpxtpx:TrackPointExtension>
<gpxtpx:hr>110</gpxtpx:hr>
<gpxtpx:atemp>7</gpxtpx:atemp>
</gpxtpx:TrackPointExtension>
</extensions>
</trkpt>
<trkpt lat="47.745682736858726" lon="12.180596524849534">
<ele>535</ele>
<time>2012-03-03T11:38:16Z</time>
<extensions>
<gpxtpx:TrackPointExtension>
<gpxtpx:hr>109</gpxtpx:hr>
<gpxtpx:atemp>7</gpxtpx:atemp>
</gpxtpx:TrackPointExtension>
</extensions>
</trkpt>
<trkpt lat="47.745667984709144" lon="12.180465180426836">
<ele>534</ele>
<time>2012-03-03T11:38:17Z</time>
<extensions>
<gpxtpx:TrackPointExtension>
<gpxtpx:hr>109</gpxtpx:hr>
<gpxtpx:atemp>7</gpxtpx:atemp>
</gpxtpx:TrackPointExtension>
</extensions>
</trkpt>
<trkpt lat="47.74564711377025" lon="12.180330818518996">
<ele>534</ele>
<time>2012-03-03T11:38:18Z</time>
<extensions>
<gpxtpx:TrackPointExtension>
<gpxtpx:hr>110</gpxtpx:hr>
<gpxtpx:atemp>7</gpxtpx:atemp>
</gpxtpx:TrackPointExtension>
</extensions>
</trkpt>
<trkpt lat="47.74562104605138" lon="12.180198887363076">
<ele>533</ele>
<time>2012-03-03T11:38:19Z</time>
<extensions>
<gpxtpx:TrackPointExtension>
<gpxtpx:hr>111</gpxtpx:hr>
<gpxtpx:atemp>7</gpxtpx:atemp>
</gpxtpx:TrackPointExtension>
</extensions>
</trkpt>
<trkpt lat="47.74554971605539" lon="12.179945334792137">
<ele>533</ele>
<time>2012-03-03T11:38:21Z</time>
<extensions>
<gpxtpx:TrackPointExtension>
<gpxtpx:hr>113</gpxtpx:hr>
<gpxtpx:atemp>7</gpxtpx:atemp>
</gpxtpx:TrackPointExtension>
</extensions>
</trkpt>
<trkpt lat="47.745508309453726" lon="12.179825641214848">
<ele>533</ele>
<time>2012-03-03T11:38:22Z</time>
<extensions>
<gpxtpx:TrackPointExtension>
<gpxtpx:hr>113</gpxtpx:hr>
<gpxtpx:atemp>7</gpxtpx:atemp>
</gpxtpx:TrackPointExtension>
</extensions>
</trkpt>
<trkpt lat="47.745467154309154" lon="12.179703013971448">
<ele>532</ele>
<time>2012-03-03T11:38:23Z</time>
<extensions>
<gpxtpx:TrackPointExtension>
<gpxtpx:hr>112</gpxtpx:hr>
<gpxtpx:atemp>7</gpxtpx:atemp>
</gpxtpx:TrackPointExtension>
</extensions>
</trkpt>
<trkpt lat="47.74543077684939" lon="12.179588600993156">
<ele>532</ele>
<time>2012-03-03T11:38:24Z</time>
<extensions>
<gpxtpx:TrackPointExtension>
<gpxtpx:hr>111</gpxtpx:hr>
<gpxtpx:atemp>7</gpxtpx:atemp>
</gpxtpx:TrackPointExtension>
</extensions>
</trkpt>
<trkpt lat="47.74539674632251" lon="12.179473014548421">
<ele>531</ele>
<time>2012-03-03T11:38:25Z</time>
<extensions>
<gpxtpx:TrackPointExtension>
<gpxtpx:hr>111</gpxtpx:hr>
<gpxtpx:atemp>7</gpxtpx:atemp>
</gpxtpx:TrackPointExtension>
</extensions>
</trkpt>
<trkpt lat="47.74536330252886" lon="12.179359020665288">
<ele>531</ele>
<time>2012-03-03T11:38:26Z</time>
<extensions>
<gpxtpx:TrackPointExtension>
<gpxtpx:hr>109</gpxtpx:hr>
<gpxtpx:atemp>7</gpxtpx:atemp>
</gpxtpx:TrackPointExtension>
</extensions>
</trkpt>
<trkpt lat="47.745328014716506" lon="12.17924871481955">
<ele>531</ele>
<time>2012-03-03T11:38:27Z</time>
<extensions>
<gpxtpx:TrackPointExtension>
<gpxtpx:hr>106</gpxtpx:hr>
<gpxtpx:atemp>7</gpxtpx:atemp>
</gpxtpx:TrackPointExtension>
</extensions>
</trkpt>
<trkpt lat="47.74526230059564" lon="12.179024666547775">
<ele>531</ele>
<time>2012-03-03T11:38:29Z</time>
<extensions>
<gpxtpx:TrackPointExtension>
<gpxtpx:hr>104</gpxtpx:hr>
<gpxtpx:atemp>7</gpxtpx:atemp>
</gpxtpx:TrackPointExtension>
</extensions>
</trkpt>
<trkpt lat="47.74522064253688" lon="12.178783100098372">
<ele>530</ele>
<time>2012-03-03T11:38:31Z</time>
<extensions>
<gpxtpx:TrackPointExtension>
<gpxtpx:hr>105</gpxtpx:hr>
<gpxtpx:atemp>7</gpxtpx:atemp>
</gpxtpx:TrackPointExtension>
</extensions>
</trkpt>
<trkpt lat="47.74519742466509" lon="12.178664663806558">
<ele>530</ele>
<time>2012-03-03T11:38:32Z</time>
<extensions>
<gpxtpx:TrackPointExtension>
<gpxtpx:hr>107</gpxtpx:hr>
<gpxtpx:atemp>7</gpxtpx:atemp>
</gpxtpx:TrackPointExtension>
</extensions>
</trkpt>
<trkpt lat="47.74516699835658" lon="12.178548742085695">
<ele>529</ele>
<time>2012-03-03T11:38:33Z</time>
<extensions>
<gpxtpx:TrackPointExtension>
<gpxtpx:hr>109</gpxtpx:hr>
<gpxtpx:atemp>7</gpxtpx:atemp>
</gpxtpx:TrackPointExtension>
</extensions>
</trkpt>
<trkpt lat="47.74512986652553" lon="12.178443633019924">
<ele>528</ele>
<time>2012-03-03T11:38:34Z</time>
<extensions>
<gpxtpx:TrackPointExtension>
<gpxtpx:hr>110</gpxtpx:hr>
<gpxtpx:atemp>7</gpxtpx:atemp>
</gpxtpx:TrackPointExtension>
</extensions>
</trkpt>
<trkpt lat="47.7450814191252" lon="12.178350342437625">
<ele>528</ele>
<time>2012-03-03T11:38:35Z</time>
<extensions>
<gpxtpx:TrackPointExtension>
<gpxtpx:hr>111</gpxtpx:hr>
<gpxtpx:atemp>7</gpxtpx:atemp>
</gpxtpx:TrackPointExtension>
</extensions>
</trkpt>
<trkpt lat="47.74502827785909" lon="12.178270881995559">
<ele>527</ele>
<time>2012-03-03T11:38:36Z</time>
<extensions>
<gpxtpx:TrackPointExtension>
<gpxtpx:hr>112</gpxtpx:hr>
<gpxtpx:atemp>6</gpxtpx:atemp>
</gpxtpx:TrackPointExtension>
</extensions>
</trkpt>
<trkpt lat="47.74496574886143" lon="12.178194858133793">
<ele>527</ele>
<time>2012-03-03T11:38:37Z</time>
<extensions>
<gpxtpx:TrackPointExtension>
<gpxtpx:hr>111</gpxtpx:hr>
<gpxtpx:atemp>6</gpxtpx:atemp>
</gpxtpx:TrackPointExtension>
</extensions>
</trkpt>
<trkpt lat="47.74490766227245" lon="12.178125623613596">
<ele>526</ele>
<time>2012-03-03T11:38:38Z</time>
<extensions>
<gpxtpx:TrackPointExtension>
<gpxtpx:hr>112</gpxtpx:hr>
<gpxtpx:atemp>6</gpxtpx:atemp>
</gpxtpx:TrackPointExtension>
</extensions>
</trkpt>
<trkpt lat="47.7446929179132" lon="12.177875088527799">
<ele>526</ele>
<time>2012-03-03T11:38:42Z</time>
<extensions>
<gpxtpx:TrackPointExtension>
<gpxtpx:hr>113</gpxtpx:hr>
<gpxtpx:atemp>6</gpxtpx:atemp>
</gpxtpx:TrackPointExtension>
</extensions>
</trkpt>
<trkpt lat="47.744588647037745" lon="12.177774421870708">
<ele>526</ele>
<time>2012-03-03T11:38:44Z</time>
<extensions>
<gpxtpx:TrackPointExtension>
<gpxtpx:hr>116</gpxtpx:hr>
<gpxtpx:atemp>6</gpxtpx:atemp>
</gpxtpx:TrackPointExtension>
</extensions>
</trkpt>
<trkpt lat="47.74449460208416" lon="12.17769387178123">
<ele>526</ele>
<time>2012-03-03T11:38:46Z</time>
<extensions>
<gpxtpx:TrackPointExtension>
<gpxtpx:hr>119</gpxtpx:hr>
<gpxtpx:atemp>6</gpxtpx:atemp>
</gpxtpx:TrackPointExtension>
</extensions>
</trkpt>
<trkpt lat="47.744415225461125" lon="12.177627487108111">
<ele>526</ele>
<time>2012-03-03T11:38:48Z</time>
<extensions>
<gpxtpx:TrackPointExtension>
<gpxtpx:hr>123</gpxtpx:hr>
<gpxtpx:atemp>6</gpxtpx:atemp>
</gpxtpx:TrackPointExtension>
</extensions>
</trkpt>
<trkpt lat="47.74437231011689" lon="12.177601084113121">
<ele>526</ele>
<time>2012-03-03T11:38:49Z</time>
<extensions>
<gpxtpx:TrackPointExtension>
<gpxtpx:hr>124</gpxtpx:hr>
<gpxtpx:atemp>6</gpxtpx:atemp>
</gpxtpx:TrackPointExtension>
</extensions>
</trkpt>
<trkpt lat="47.74432788603008" lon="12.177588930353522">
<ele>526</ele>
<time>2012-03-03T11:38:50Z</time>
<extensions>
<gpxtpx:TrackPointExtension>
<gpxtpx:hr>126</gpxtpx:hr>
<gpxtpx:atemp>6</gpxtpx:atemp>
</gpxtpx:TrackPointExtension>
</extensions>
</trkpt>
<trkpt lat="47.74423073977232" lon="12.177586918696761">
<ele>526</ele>
<time>2012-03-03T11:38:52Z</time>
<extensions>
<gpxtpx:TrackPointExtension>
<gpxtpx:hr>129</gpxtpx:hr>
<gpxtpx:atemp>6</gpxtpx:atemp>
</gpxtpx:TrackPointExtension>
</extensions>
</trkpt>
<trkpt lat="47.74411020800471" lon="12.17756093479693">
<ele>526</ele>
<time>2012-03-03T11:38:54Z</time>
<extensions>
<gpxtpx:TrackPointExtension>
<gpxtpx:hr>132</gpxtpx:hr>
<gpxtpx:atemp>6</gpxtpx:atemp>
</gpxtpx:TrackPointExtension>
</extensions>
</trkpt>
<trkpt lat="47.74388833902776" lon="12.177503686398268">
<ele>526</ele>
<time>2012-03-03T11:38:57Z</time>
<extensions>
<gpxtpx:TrackPointExtension>
<gpxtpx:hr>135</gpxtpx:hr>
<gpxtpx:atemp>6</gpxtpx:atemp>
</gpxtpx:TrackPointExtension>
</extensions>
</trkpt>
<trkpt lat="47.74381055496633" lon="12.177464123815298">
<ele>526</ele>
<time>2012-03-03T11:38:58Z</time>
<extensions>
<gpxtpx:TrackPointExtension>
<gpxtpx:hr>136</gpxtpx:hr>
<gpxtpx:atemp>6</gpxtpx:atemp>
</gpxtpx:TrackPointExtension>
</extensions>
</trkpt>
<trkpt lat="47.74373218417168" lon="12.177416598424315">
<ele>526</ele>
<time>2012-03-03T11:38:59Z</time>
<extensions>
<gpxtpx:TrackPointExtension>
<gpxtpx:hr>136</gpxtpx:hr>
<gpxtpx:atemp>6</gpxtpx:atemp>
</gpxtpx:TrackPointExtension>
</extensions>
</trkpt>
<trkpt lat="47.743591871112585" lon="12.177252732217312">
<ele>526</ele>
<time>2012-03-03T11:39:01Z</time>
<extensions>
<gpxtpx:TrackPointExtension>
<gpxtpx:hr>136</gpxtpx:hr>
<gpxtpx:atemp>6</gpxtpx:atemp>
</gpxtpx:TrackPointExtension>
</extensions>
</trkpt>
<trkpt lat="47.74348072707653" lon="12.17702449299395">
<ele>525</ele>
<time>2012-03-03T11:39:03Z</time>
<extensions>
<gpxtpx:TrackPointExtension>
<gpxtpx:hr>136</gpxtpx:hr>
<gpxtpx:atemp>6</gpxtpx:atemp>
</gpxtpx:TrackPointExtension>
</extensions>
</trkpt>
<trkpt lat="47.743426244705915" lon="12.17691301368177">
<ele>525</ele>
<time>2012-03-03T11:39:04Z</time>
<extensions>
<gpxtpx:TrackPointExtension>
<gpxtpx:hr>136</gpxtpx:hr>
<gpxtpx:atemp>6</gpxtpx:atemp>
</gpxtpx:TrackPointExtension>
</extensions>
</trkpt>
<trkpt lat="47.74336245842278" lon="12.176811257377267">
<ele>524</ele>
<time>2012-03-03T11:39:05Z</time>
<extensions>
<gpxtpx:TrackPointExtension>
<gpxtpx:hr>135</gpxtpx:hr>
<gpxtpx:atemp>6</gpxtpx:atemp>
</gpxtpx:TrackPointExtension>
</extensions>
</trkpt>
<trkpt lat="47.743294229730964" lon="12.176712015643716">
<ele>523</ele>
<time>2012-03-03T11:39:06Z</time>
<extensions>
<gpxtpx:TrackPointExtension>
<gpxtpx:hr>134</gpxtpx:hr>
<gpxtpx:atemp>6</gpxtpx:atemp>
</gpxtpx:TrackPointExtension>
</extensions>
</trkpt>
<trkpt lat="47.74322030134499" lon="12.176611181348562">
<ele>523</ele>
<time>2012-03-03T11:39:07Z</time>
<extensions>
<gpxtpx:TrackPointExtension>
<gpxtpx:hr>134</gpxtpx:hr>
<gpxtpx:atemp>6</gpxtpx:atemp>
</gpxtpx:TrackPointExtension>
</extensions>
</trkpt>
<trkpt lat="47.74314662441611" lon="12.176505401730537">
<ele>522</ele>
<time>2012-03-03T11:39:08Z</time>
<extensions>
<gpxtpx:TrackPointExtension>
<gpxtpx:hr>134</gpxtpx:hr>
<gpxtpx:atemp>6</gpxtpx:atemp>
</gpxtpx:TrackPointExtension>
</extensions>
</trkpt>
<trkpt lat="47.74308786727488" lon="12.176394425332546">
<ele>521</ele>
<time>2012-03-03T11:39:09Z</time>
<extensions>
<gpxtpx:TrackPointExtension>
<gpxtpx:hr>134</gpxtpx:hr>
<gpxtpx:atemp>6</gpxtpx:atemp>
</gpxtpx:TrackPointExtension>
</extensions>
</trkpt>
<trkpt lat="47.74304402992129" lon="12.176282778382301">
<ele>521</ele>
<time>2012-03-03T11:39:10Z</time>
<extensions>
<gpxtpx:TrackPointExtension>
<gpxtpx:hr>133</gpxtpx:hr>
<gpxtpx:atemp>6</gpxtpx:atemp>
</gpxtpx:TrackPointExtension>
</extensions>
</trkpt>
<trkpt lat="47.74300337769091" lon="12.17617029324174">
<ele>520</ele>
<time>2012-03-03T11:39:11Z</time>
<extensions>
<gpxtpx:TrackPointExtension>
<gpxtpx:hr>133</gpxtpx:hr>
<gpxtpx:atemp>6</gpxtpx:atemp>
</gpxtpx:TrackPointExtension>
</extensions>
</trkpt>
<trkpt lat="47.742964904755354" lon="12.176056047901511">
<ele>520</ele>
<time>2012-03-03T11:39:12Z</time>
<extensions>
<gpxtpx:TrackPointExtension>
<gpxtpx:hr>133</gpxtpx:hr>
<gpxtpx:atemp>6</gpxtpx:atemp>
</gpxtpx:TrackPointExtension>
</extensions>
</trkpt>
<trkpt lat="47.74292676709592" lon="12.17593970708549">
<ele>519</ele>
<time>2012-03-03T11:39:13Z</time>
<extensions>
<gpxtpx:TrackPointExtension>
<gpxtpx:hr>133</gpxtpx:hr>
<gpxtpx:atemp>6</gpxtpx:atemp>
</gpxtpx:TrackPointExtension>
</extensions>
</trkpt>
<trkpt lat="47.742887707427144" lon="12.175831496715546">
<ele>519</ele>
<time>2012-03-03T11:39:14Z</time>
<extensions>
<gpxtpx:TrackPointExtension>
<gpxtpx:hr>133</gpxtpx:hr>
<gpxtpx:atemp>6</gpxtpx:atemp>
</gpxtpx:TrackPointExtension>
</extensions>
</trkpt>
<trkpt lat="47.742836913093925" lon="12.175719011574984">
<ele>519</ele>
<time>2012-03-03T11:39:15Z</time>
<extensions>
<gpxtpx:TrackPointExtension>
<gpxtpx:hr>133</gpxtpx:hr>
<gpxtpx:atemp>6</gpxtpx:atemp>
</gpxtpx:TrackPointExtension>
</extensions>
</trkpt>
<trkpt lat="47.742781676352024" lon="12.17561574652791">
<ele>519</ele>
<time>2012-03-03T11:39:16Z</time>
<extensions>
<gpxtpx:TrackPointExtension>
<gpxtpx:hr>132</gpxtpx:hr>
<gpxtpx:atemp>6</gpxtpx:atemp>
</gpxtpx:TrackPointExtension>
</extensions>
</trkpt>
<trkpt lat="47.74267120286822" lon="12.175423381850123">
<ele>519</ele>
<time>2012-03-03T11:39:18Z</time>
<extensions>
<gpxtpx:TrackPointExtension>
<gpxtpx:hr>131</gpxtpx:hr>
<gpxtpx:atemp>6</gpxtpx:atemp>
</gpxtpx:TrackPointExtension>
</extensions>
</trkpt>
<trkpt lat="47.742612697184086" lon="12.175331180915236">
<ele>518</ele>
<time>2012-03-03T11:39:19Z</time>
<extensions>
<gpxtpx:TrackPointExtension>
<gpxtpx:hr>130</gpxtpx:hr>
<gpxtpx:atemp>6</gpxtpx:atemp>
</gpxtpx:TrackPointExtension>
</extensions>
</trkpt>
<trkpt lat="47.74255586788058" lon="12.175247026607394">
<ele>518</ele>
<time>2012-03-03T11:39:20Z</time>
<extensions>
<gpxtpx:TrackPointExtension>
<gpxtpx:hr>129</gpxtpx:hr>
<gpxtpx:atemp>6</gpxtpx:atemp>
</gpxtpx:TrackPointExtension>
</extensions>
</trkpt>
<trkpt lat="47.742506163194776" lon="12.175163459032774">
<ele>517</ele>
<time>2012-03-03T11:39:21Z</time>
<extensions>
<gpxtpx:TrackPointExtension>
<gpxtpx:hr>128</gpxtpx:hr>
<gpxtpx:atemp>6</gpxtpx:atemp>
</gpxtpx:TrackPointExtension>
</extensions>
</trkpt>
<trkpt lat="47.74246718734503" lon="12.17507679015398">
<ele>517</ele>
<time>2012-03-03T11:39:22Z</time>
<extensions>
<gpxtpx:TrackPointExtension>
<gpxtpx:hr>127</gpxtpx:hr>
<gpxtpx:atemp>6</gpxtpx:atemp>
</gpxtpx:TrackPointExtension>
</extensions>
</trkpt>
<trkpt lat="47.7424256131053" lon="12.174899177625775">
<ele>517</ele>
<time>2012-03-03T11:39:24Z</time>
<extensions>
<gpxtpx:TrackPointExtension>
<gpxtpx:hr>124</gpxtpx:hr>
<gpxtpx:atemp>6</gpxtpx:atemp>
</gpxtpx:TrackPointExtension>
</extensions>
</trkpt>
<trkpt lat="47.742413291707635" lon="12.174806473776698">
<ele>516</ele>
<time>2012-03-03T11:39:25Z</time>
<extensions>
<gpxtpx:TrackPointExtension>
<gpxtpx:hr>123</gpxtpx:hr>
<gpxtpx:atemp>6</gpxtpx:atemp>
</gpxtpx:TrackPointExtension>
</extensions>
</trkpt>
<trkpt lat="47.74239803664386" lon="12.174709076061845">
<ele>516</ele>
<time>2012-03-03T11:39:26Z</time>
<extensions>
<gpxtpx:TrackPointExtension>
<gpxtpx:hr>122</gpxtpx:hr>
<gpxtpx:atemp>6</gpxtpx:atemp>
</gpxtpx:TrackPointExtension>
</extensions>
</trkpt>
<trkpt lat="47.742372807115316" lon="12.174614444375038">
<ele>515</ele>
<time>2012-03-03T11:39:27Z</time>
<extensions>
<gpxtpx:TrackPointExtension>
<gpxtpx:hr>123</gpxtpx:hr>
<gpxtpx:atemp>6</gpxtpx:atemp>
</gpxtpx:TrackPointExtension>
</extensions>
</trkpt>
<trkpt lat="47.74234120734036" lon="12.17452366836369">
<ele>515</ele>
<time>2012-03-03T11:39:28Z</time>
<extensions>
<gpxtpx:TrackPointExtension>
<gpxtpx:hr>123</gpxtpx:hr>
<gpxtpx:atemp>6</gpxtpx:atemp>
</gpxtpx:TrackPointExtension>
</extensions>
</trkpt>
<trkpt lat="47.74217423982918" lon="12.174030393362045">
<ele>515</ele>
<time>2012-03-03T11:39:33Z</time>
<extensions>
<gpxtpx:TrackPointExtension>
<gpxtpx:hr>125</gpxtpx:hr>
<gpxtpx:atemp>6</gpxtpx:atemp>
</gpxtpx:TrackPointExtension>
</extensions>
</trkpt>
<trkpt lat="47.74216091260314" lon="12.173933330923319">
<ele>514</ele>
<time>2012-03-03T11:39:34Z</time>
<extensions>
<gpxtpx:TrackPointExtension>
<gpxtpx:hr>125</gpxtpx:hr>
<gpxtpx:atemp>6</gpxtpx:atemp>
</gpxtpx:TrackPointExtension>
</extensions>
</trkpt>
<trkpt lat="47.74215663783252" lon="12.173830484971404">
<ele>514</ele>
<time>2012-03-03T11:39:35Z</time>
<extensions>
<gpxtpx:TrackPointExtension>
<gpxtpx:hr>124</gpxtpx:hr>
<gpxtpx:atemp>6</gpxtpx:atemp>
</gpxtpx:TrackPointExtension>
</extensions>
</trkpt>
<trkpt lat="47.74216367863119" lon="12.173723028972745">
<ele>513</ele>
<time>2012-03-03T11:39:36Z</time>
<extensions>
<gpxtpx:TrackPointExtension>
<gpxtpx:hr>124</gpxtpx:hr>
<gpxtpx:atemp>6</gpxtpx:atemp>
</gpxtpx:TrackPointExtension>
</extensions>
</trkpt>
<trkpt lat="47.74218153208494" lon="12.173614231869578">
<ele>513</ele>
<time>2012-03-03T11:39:37Z</time>
<extensions>
<gpxtpx:TrackPointExtension>
<gpxtpx:hr>125</gpxtpx:hr>
<gpxtpx:atemp>6</gpxtpx:atemp>
</gpxtpx:TrackPointExtension>
</extensions>
</trkpt>
<trkpt lat="47.742202151566744" lon="12.173496214672923">
<ele>513</ele>
<time>2012-03-03T11:39:38Z</time>
<extensions>
<gpxtpx:TrackPointExtension>
<gpxtpx:hr>125</gpxtpx:hr>
<gpxtpx:atemp>6</gpxtpx:atemp>
</gpxtpx:TrackPointExtension>
</extensions>
</trkpt>
<trkpt lat="47.742284797132015" lon="12.17304803431034">
<ele>513</ele>
<time>2012-03-03T11:39:42Z</time>
<extensions>
<gpxtpx:TrackPointExtension>
<gpxtpx:hr>126</gpxtpx:hr>
<gpxtpx:atemp>6</gpxtpx:atemp>
</gpxtpx:TrackPointExtension>
</extensions>
</trkpt>
<trkpt lat="47.74235973134637" lon="12.172703454270959">
<ele>512</ele>
<time>2012-03-03T11:39:45Z</time>
<extensions>
<gpxtpx:TrackPointExtension>
<gpxtpx:hr>125</gpxtpx:hr>
<gpxtpx:atemp>6</gpxtpx:atemp>
</gpxtpx:TrackPointExtension>
</extensions>
</trkpt>
<trkpt lat="47.74237942881882" lon="12.172585939988494">
<ele>512</ele>
<time>2012-03-03T11:39:46Z</time>
<extensions>
<gpxtpx:TrackPointExtension>
<gpxtpx:hr>125</gpxtpx:hr>
<gpxtpx:atemp>6</gpxtpx:atemp>
</gpxtpx:TrackPointExtension>
</extensions>
</trkpt>
<trkpt lat="47.742399545386434" lon="12.172468258067966">
<ele>511</ele>
<time>2012-03-03T11:39:47Z</time>
<extensions>
<gpxtpx:TrackPointExtension>
<gpxtpx:hr>125</gpxtpx:hr>
<gpxtpx:atemp>6</gpxtpx:atemp>
</gpxtpx:TrackPointExtension>
</extensions>
</trkpt>
<trkpt lat="47.74242041632533" lon="12.1723473072052">
<ele>511</ele>
<time>2012-03-03T11:39:48Z</time>
<extensions>
<gpxtpx:TrackPointExtension>
<gpxtpx:hr>125</gpxtpx:hr>
<gpxtpx:atemp>6</gpxtpx:atemp>
</gpxtpx:TrackPointExtension>
</extensions>
</trkpt>
<trkpt lat="47.74244053289294" lon="12.172226943075657">
<ele>510</ele>
<time>2012-03-03T11:39:49Z</time>
<extensions>
<gpxtpx:TrackPointExtension>
<gpxtpx:hr>125</gpxtpx:hr>
<gpxtpx:atemp>6</gpxtpx:atemp>
</gpxtpx:TrackPointExtension>
</extensions>
</trkpt>
<trkpt lat="47.74246928282082" lon="12.171989399939775">
<ele>510</ele>
<time>2012-03-03T11:39:51Z</time>
<extensions>
<gpxtpx:TrackPointExtension>
<gpxtpx:hr>124</gpxtpx:hr>
<gpxtpx:atemp>6</gpxtpx:atemp>
</gpxtpx:TrackPointExtension>
</extensions>
</trkpt>
<trkpt lat="47.74246693588793" lon="12.171866605058312">
<ele>510</ele>
<time>2012-03-03T11:39:52Z</time>
<extensions>
<gpxtpx:TrackPointExtension>
<gpxtpx:hr>123</gpxtpx:hr>
<gpxtpx:atemp>6</gpxtpx:atemp>
</gpxtpx:TrackPointExtension>
</extensions>
</trkpt>
<trkpt lat="47.742466600611806" lon="12.171747414395213">
<ele>509</ele>
<time>2012-03-03T11:39:53Z</time>
<extensions>
<gpxtpx:TrackPointExtension>
<gpxtpx:hr>122</gpxtpx:hr>
<gpxtpx:atemp>6</gpxtpx:atemp>
</gpxtpx:TrackPointExtension>
</extensions>
</trkpt>
<trkpt lat="47.742461739107966" lon="12.171622607856989">
<ele>508</ele>
<time>2012-03-03T11:39:54Z</time>
<extensions>
<gpxtpx:TrackPointExtension>
<gpxtpx:hr>119</gpxtpx:hr>
<gpxtpx:atemp>6</gpxtpx:atemp>
</gpxtpx:TrackPointExtension>
</extensions>
</trkpt>
<trkpt lat="47.74245520122349" lon="12.171505177393556">
<ele>508</ele>
<time>2012-03-03T11:39:55Z</time>
<extensions>
<gpxtpx:TrackPointExtension>
<gpxtpx:hr>117</gpxtpx:hr>
<gpxtpx:atemp>6</gpxtpx:atemp>
</gpxtpx:TrackPointExtension>
</extensions>
</trkpt>
<trkpt lat="47.742440113797784" lon="12.171389926224947">
<ele>507</ele>
<time>2012-03-03T11:39:56Z</time>
<extensions>
<gpxtpx:TrackPointExtension>
<gpxtpx:hr>115</gpxtpx:hr>
<gpxtpx:atemp>6</gpxtpx:atemp>
</gpxtpx:TrackPointExtension>
</extensions>
</trkpt>
<trkpt lat="47.74240775965154" lon="12.171291103586555">
<ele>507</ele>
<time>2012-03-03T11:39:57Z</time>
<extensions>
<gpxtpx:TrackPointExtension>
<gpxtpx:hr>113</gpxtpx:hr>
<gpxtpx:atemp>6</gpxtpx:atemp>
</gpxtpx:TrackPointExtension>
</extensions>
</trkpt>
<trkpt lat="47.74236526340246" lon="12.171205608174205">
<ele>507</ele>
<time>2012-03-03T11:39:58Z</time>
<extensions>
<gpxtpx:TrackPointExtension>
<gpxtpx:hr>114</gpxtpx:hr>
<gpxtpx:atemp>6</gpxtpx:atemp>
</gpxtpx:TrackPointExtension>
</extensions>
</trkpt>
<trkpt lat="47.742313547059894" lon="12.171131260693073">
<ele>506</ele>
<time>2012-03-03T11:39:59Z</time>
<extensions>
<gpxtpx:TrackPointExtension>
<gpxtpx:hr>115</gpxtpx:hr>
<gpxtpx:atemp>6</gpxtpx:atemp>
</gpxtpx:TrackPointExtension>
</extensions>
</trkpt>
<trkpt lat="47.74225629866123" lon="12.17105146497488">
<ele>506</ele>
<time>2012-03-03T11:40:00Z</time>
<extensions>
<gpxtpx:TrackPointExtension>
<gpxtpx:hr>116</gpxtpx:hr>
<gpxtpx:atemp>6</gpxtpx:atemp>
</gpxtpx:TrackPointExtension>
</extensions>
</trkpt>
<trkpt lat="47.74215814657509" lon="12.170890616253018">
<ele>506</ele>
<time>2012-03-03T11:40:02Z</time>
<extensions>
<gpxtpx:TrackPointExtension>
<gpxtpx:hr>118</gpxtpx:hr>
<gpxtpx:atemp>6</gpxtpx:atemp>
</gpxtpx:TrackPointExtension>
</extensions>
</trkpt>
<trkpt lat="47.74209335446358" lon="12.170718535780907">
<ele>506</ele>
<time>2012-03-03T11:40:04Z</time>
<extensions>
<gpxtpx:TrackPointExtension>
<gpxtpx:hr>119</gpxtpx:hr>
<gpxtpx:atemp>6</gpxtpx:atemp>
</gpxtpx:TrackPointExtension>
</extensions>
</trkpt>
<trkpt lat="47.7420265506953" lon="12.170451991260052">
<ele>506</ele>
<time>2012-03-03T11:40:07Z</time>
<extensions>
<gpxtpx:TrackPointExtension>
<gpxtpx:hr>119</gpxtpx:hr>
<gpxtpx:atemp>6</gpxtpx:atemp>
</gpxtpx:TrackPointExtension>
</extensions>
</trkpt>
<trkpt lat="47.74201221764088" lon="12.170364735648036">
<ele>506</ele>
<time>2012-03-03T11:40:08Z</time>
<extensions>
<gpxtpx:TrackPointExtension>
<gpxtpx:hr>120</gpxtpx:hr>
<gpxtpx:atemp>6</gpxtpx:atemp>
</gpxtpx:TrackPointExtension>
</extensions>
</trkpt>
<trkpt lat="47.741949521005154" lon="12.169907670468092">
<ele>506</ele>
<time>2012-03-03T11:40:13Z</time>
<extensions>
<gpxtpx:TrackPointExtension>
<gpxtpx:hr>122</gpxtpx:hr>
<gpxtpx:atemp>6</gpxtpx:atemp>
</gpxtpx:TrackPointExtension>
</extensions>
</trkpt>
<trkpt lat="47.741909036412835" lon="12.169633246958256">
<ele>506</ele>
<time>2012-03-03T11:40:16Z</time>
<extensions>
<gpxtpx:TrackPointExtension>
<gpxtpx:hr>125</gpxtpx:hr>
<gpxtpx:atemp>6</gpxtpx:atemp>
</gpxtpx:TrackPointExtension>
</extensions>
</trkpt>
<trkpt lat="47.74185790680349" lon="12.169348178431392">
<ele>506</ele>
<time>2012-03-03T11:40:19Z</time>
<extensions>
<gpxtpx:TrackPointExtension>
<gpxtpx:hr>125</gpxtpx:hr>
<gpxtpx:atemp>6</gpxtpx:atemp>
</gpxtpx:TrackPointExtension>
</extensions>
</trkpt>
<trkpt lat="47.74178280495107" lon="12.168749626725912">
<ele>506</ele>
<time>2012-03-03T11:40:25Z</time>
<extensions>
<gpxtpx:TrackPointExtension>
<gpxtpx:hr>128</gpxtpx:hr>
<gpxtpx:atemp>6</gpxtpx:atemp>
</gpxtpx:TrackPointExtension>
</extensions>
</trkpt>
<trkpt lat="47.741776183247566" lon="12.168646529316902">
<ele>506</ele>
<time>2012-03-03T11:40:26Z</time>
<extensions>
<gpxtpx:TrackPointExtension>
<gpxtpx:hr>128</gpxtpx:hr>
<gpxtpx:atemp>6</gpxtpx:atemp>
</gpxtpx:TrackPointExtension>
</extensions>
</trkpt>
<trkpt lat="47.741767298430204" lon="12.168543934822083">
<ele>506</ele>
<time>2012-03-03T11:40:27Z</time>
<extensions>
<gpxtpx:TrackPointExtension>
<gpxtpx:hr>128</gpxtpx:hr>
<gpxtpx:atemp>6</gpxtpx:atemp>
</gpxtpx:TrackPointExtension>
</extensions>
</trkpt>
<trkpt lat="47.74172505363822" lon="12.16805468313396">
<ele>506</ele>
<time>2012-03-03T11:40:32Z</time>
<extensions>
<gpxtpx:TrackPointExtension>
<gpxtpx:hr>129</gpxtpx:hr>
<gpxtpx:atemp>6</gpxtpx:atemp>
</gpxtpx:TrackPointExtension>
</extensions>
</trkpt>
<trkpt lat="47.741732597351074" lon="12.16795795597136">
<ele>506</ele>
<time>2012-03-03T11:40:33Z</time>
<extensions>
<gpxtpx:TrackPointExtension>
<gpxtpx:hr>129</gpxtpx:hr>
<gpxtpx:atemp>6</gpxtpx:atemp>
</gpxtpx:TrackPointExtension>
</extensions>
</trkpt>
<trkpt lat="47.741796215996146" lon="12.167476918548346">
<ele>506</ele>
<time>2012-03-03T11:40:38Z</time>
<extensions>
<gpxtpx:TrackPointExtension>
<gpxtpx:hr>130</gpxtpx:hr>
<gpxtpx:atemp>6</gpxtpx:atemp>
</gpxtpx:TrackPointExtension>
</extensions>
</trkpt>
<trkpt lat="47.74178179912269" lon="12.166875349357724">
<ele>506</ele>
<time>2012-03-03T11:40:44Z</time>
<extensions>
<gpxtpx:TrackPointExtension>
<gpxtpx:hr>131</gpxtpx:hr>
<gpxtpx:atemp>6</gpxtpx:atemp>
</gpxtpx:TrackPointExtension>
</extensions>
</trkpt>
<trkpt lat="47.74178188294172" lon="12.16654485091567">
<ele>505</ele>
<time>2012-03-03T11:40:47Z</time>
<extensions>
<gpxtpx:TrackPointExtension>
<gpxtpx:hr>130</gpxtpx:hr>
<gpxtpx:atemp>6</gpxtpx:atemp>
</gpxtpx:TrackPointExtension>
</extensions>
</trkpt>
<trkpt lat="47.74179009720683" lon="12.166430857032537">
<ele>505</ele>
<time>2012-03-03T11:40:48Z</time>
<extensions>
<gpxtpx:TrackPointExtension>
<gpxtpx:hr>129</gpxtpx:hr>
<gpxtpx:atemp>6</gpxtpx:atemp>
</gpxtpx:TrackPointExtension>
</extensions>
</trkpt>
<trkpt lat="47.741807950660586" lon="12.166312001645565">
<ele>504</ele>
<time>2012-03-03T11:40:49Z</time>
<extensions>
<gpxtpx:TrackPointExtension>
<gpxtpx:hr>128</gpxtpx:hr>
<gpxtpx:atemp>6</gpxtpx:atemp>
</gpxtpx:TrackPointExtension>
</extensions>
</trkpt>
<trkpt lat="47.74183024652302" lon="12.166186776012182">
<ele>504</ele>
<time>2012-03-03T11:40:50Z</time>
<extensions>
<gpxtpx:TrackPointExtension>
<gpxtpx:hr>128</gpxtpx:hr>
<gpxtpx:atemp>6</gpxtpx:atemp>
</gpxtpx:TrackPointExtension>
</extensions>
</trkpt>
<trkpt lat="47.741847932338715" lon="12.166062472388148">
<ele>504</ele>
<time>2012-03-03T11:40:51Z</time>
<extensions>
<gpxtpx:TrackPointExtension>
<gpxtpx:hr>127</gpxtpx:hr>
<gpxtpx:atemp>6</gpxtpx:atemp>
</gpxtpx:TrackPointExtension>
</extensions>
</trkpt>
<trkpt lat="47.741930494084954" lon="12.165681514889002">
<ele>503</ele>
<time>2012-03-03T11:40:54Z</time>
<extensions>
<gpxtpx:TrackPointExtension>
<gpxtpx:hr>127</gpxtpx:hr>
<gpxtpx:atemp>6</gpxtpx:atemp>
</gpxtpx:TrackPointExtension>
</extensions>
</trkpt>
<trkpt lat="47.74195622652769" lon="12.16556316241622">
<ele>503</ele>
<time>2012-03-03T11:40:55Z</time>
<extensions>
<gpxtpx:TrackPointExtension>
<gpxtpx:hr>126</gpxtpx:hr>
<gpxtpx:atemp>6</gpxtpx:atemp>
</gpxtpx:TrackPointExtension>
</extensions>
</trkpt>
<trkpt lat="47.74197416380048" lon="12.165448917075992">
<ele>502</ele>
<time>2012-03-03T11:40:56Z</time>
<extensions>
<gpxtpx:TrackPointExtension>
<gpxtpx:hr>126</gpxtpx:hr>
<gpxtpx:atemp>6</gpxtpx:atemp>
</gpxtpx:TrackPointExtension>
</extensions>
</trkpt>
<trkpt lat="47.74198606610298" lon="12.165336515754461">
<ele>502</ele>
<time>2012-03-03T11:40:57Z</time>
<extensions>
<gpxtpx:TrackPointExtension>
<gpxtpx:hr>124</gpxtpx:hr>
<gpxtpx:atemp>6</gpxtpx:atemp>
</gpxtpx:TrackPointExtension>
</extensions>
</trkpt>
<trkpt lat="47.74199461564422" lon="12.165222689509392">
<ele>501</ele>
<time>2012-03-03T11:40:58Z</time>
<extensions>
<gpxtpx:TrackPointExtension>
<gpxtpx:hr>122</gpxtpx:hr>
<gpxtpx:atemp>6</gpxtpx:atemp>
</gpxtpx:TrackPointExtension>
</extensions>
</trkpt>
<trkpt lat="47.742017079144716" lon="12.164775347337127">
<ele>501</ele>
<time>2012-03-03T11:41:02Z</time>
<extensions>
<gpxtpx:TrackPointExtension>
<gpxtpx:hr>120</gpxtpx:hr>
<gpxtpx:atemp>6</gpxtpx:atemp>
</gpxtpx:TrackPointExtension>
</extensions>
</trkpt>
<trkpt lat="47.742021437734365" lon="12.16466898098588">
<ele>500</ele>
<time>2012-03-03T11:41:03Z</time>
<extensions>
<gpxtpx:TrackPointExtension>
<gpxtpx:hr>120</gpxtpx:hr>
<gpxtpx:atemp>6</gpxtpx:atemp>
</gpxtpx:TrackPointExtension>
</extensions>
</trkpt>
<trkpt lat="47.74202864617109" lon="12.164562111720443">
<ele>500</ele>
<time>2012-03-03T11:41:04Z</time>
<extensions>
<gpxtpx:TrackPointExtension>
<gpxtpx:hr>121</gpxtpx:hr>
<gpxtpx:atemp>6</gpxtpx:atemp>
</gpxtpx:TrackPointExtension>
</extensions>
</trkpt>
<trkpt lat="47.74203744716942" lon="12.164456835016608">
<ele>500</ele>
<time>2012-03-03T11:41:05Z</time>
<extensions>
<gpxtpx:TrackPointExtension>
<gpxtpx:hr>121</gpxtpx:hr>
<gpxtpx:atemp>6</gpxtpx:atemp>
</gpxtpx:TrackPointExtension>
</extensions>
</trkpt>
<trkpt lat="47.74204708635807" lon="12.1643518935889">
<ele>499</ele>
<time>2012-03-03T11:41:06Z</time>
<extensions>
<gpxtpx:TrackPointExtension>
<gpxtpx:hr>123</gpxtpx:hr>
<gpxtpx:atemp>6</gpxtpx:atemp>
</gpxtpx:TrackPointExtension>
</extensions>
</trkpt>
<trkpt lat="47.74205680936575" lon="12.1642448566854">
<ele>499</ele>
<time>2012-03-03T11:41:07Z</time>
<extensions>
<gpxtpx:TrackPointExtension>
<gpxtpx:hr>123</gpxtpx:hr>
<gpxtpx:atemp>6</gpxtpx:atemp>
</gpxtpx:TrackPointExtension>
</extensions>
</trkpt>
<trkpt lat="47.74209536612034" lon="12.16391209512949">
<ele>499</ele>
<time>2012-03-03T11:41:10Z</time>
<extensions>
<gpxtpx:TrackPointExtension>
<gpxtpx:hr>120</gpxtpx:hr>
<gpxtpx:atemp>6</gpxtpx:atemp>
</gpxtpx:TrackPointExtension>
</extensions>
</trkpt>
<trkpt lat="47.742110872641206" lon="12.163806231692433">
<ele>499</ele>
<time>2012-03-03T11:41:11Z</time>
<extensions>
<gpxtpx:TrackPointExtension>
<gpxtpx:hr>118</gpxtpx:hr>
<gpxtpx:atemp>6</gpxtpx:atemp>
</gpxtpx:TrackPointExtension>
</extensions>
</trkpt>
<trkpt lat="47.74213065393269" lon="12.163702882826328">
<ele>498</ele>
<time>2012-03-03T11:41:12Z</time>
<extensions>
<gpxtpx:TrackPointExtension>
<gpxtpx:hr>118</gpxtpx:hr>
<gpxtpx:atemp>6</gpxtpx:atemp>
</gpxtpx:TrackPointExtension>
</extensions>
</trkpt>
<trkpt lat="47.742149429395795" lon="12.163596348837018">
<ele>498</ele>
<time>2012-03-03T11:41:13Z</time>
<extensions>
<gpxtpx:TrackPointExtension>
<gpxtpx:hr>117</gpxtpx:hr>
<gpxtpx:atemp>6</gpxtpx:atemp>
</gpxtpx:TrackPointExtension>
</extensions>
</trkpt>
<trkpt lat="47.742174910381436" lon="12.163491323590279">
<ele>497</ele>
<time>2012-03-03T11:41:14Z</time>
<extensions>
<gpxtpx:TrackPointExtension>
<gpxtpx:hr>117</gpxtpx:hr>
<gpxtpx:atemp>6</gpxtpx:atemp>
</gpxtpx:TrackPointExtension>
</extensions>
</trkpt>
<trkpt lat="47.74220449849963" lon="12.163388477638364">
<ele>496</ele>
<time>2012-03-03T11:41:15Z</time>
<extensions>
<gpxtpx:TrackPointExtension>
<gpxtpx:hr>118</gpxtpx:hr>
<gpxtpx:atemp>6</gpxtpx:atemp>
</gpxtpx:TrackPointExtension>
</extensions>
</trkpt>
<trkpt lat="47.742240289226174" lon="12.163288732990623">
<ele>496</ele>
<time>2012-03-03T11:41:16Z</time>
<extensions>
<gpxtpx:TrackPointExtension>
<gpxtpx:hr>118</gpxtpx:hr>
<gpxtpx:atemp>6</gpxtpx:atemp>
</gpxtpx:TrackPointExtension>
</extensions>
</trkpt>
<trkpt lat="47.7422837074846" lon="12.163187731057405">
<ele>495</ele>
<time>2012-03-03T11:41:17Z</time>
<extensions>
<gpxtpx:TrackPointExtension>
<gpxtpx:hr>120</gpxtpx:hr>
<gpxtpx:atemp>6</gpxtpx:atemp>
</gpxtpx:TrackPointExtension>
</extensions>
</trkpt>
<trkpt lat="47.74233131669462" lon="12.163095697760582">
<ele>495</ele>
<time>2012-03-03T11:41:18Z</time>
<extensions>
<gpxtpx:TrackPointExtension>
<gpxtpx:hr>121</gpxtpx:hr>
<gpxtpx:atemp>6</gpxtpx:atemp>
</gpxtpx:TrackPointExtension>
</extensions>
</trkpt>
<trkpt lat="47.74248437024653" lon="12.16271298006177">
<ele>495</ele>
<time>2012-03-03T11:41:22Z</time>
<extensions>
<gpxtpx:TrackPointExtension>
<gpxtpx:hr>120</gpxtpx:hr>
<gpxtpx:atemp>6</gpxtpx:atemp>
</gpxtpx:TrackPointExtension>
</extensions>
</trkpt>
<trkpt lat="47.74250037968159" lon="12.162492871284485">
<ele>495</ele>
<time>2012-03-03T11:41:24Z</time>
<extensions>
<gpxtpx:TrackPointExtension>
<gpxtpx:hr>116</gpxtpx:hr>
<gpxtpx:atemp>6</gpxtpx:atemp>
</gpxtpx:TrackPointExtension>
</extensions>
</trkpt>
<trkpt lat="47.742490489035845" lon="12.162373512983322">
<ele>495</ele>
<time>2012-03-03T11:41:25Z</time>
<extensions>
<gpxtpx:TrackPointExtension>
<gpxtpx:hr>114</gpxtpx:hr>
<gpxtpx:atemp>6</gpxtpx:atemp>
</gpxtpx:TrackPointExtension>
</extensions>
</trkpt>
<trkpt lat="47.74247104302049" lon="12.162260692566633">
<ele>494</ele>
<time>2012-03-03T11:41:26Z</time>
<extensions>
<gpxtpx:TrackPointExtension>
<gpxtpx:hr>114</gpxtpx:hr>
<gpxtpx:atemp>6</gpxtpx:atemp>
</gpxtpx:TrackPointExtension>
</extensions>
</trkpt>
<trkpt lat="47.7424443885684" lon="12.162147872149944">
<ele>494</ele>
<time>2012-03-03T11:41:27Z</time>
<extensions>
<gpxtpx:TrackPointExtension>
<gpxtpx:hr>115</gpxtpx:hr>
<gpxtpx:atemp>6</gpxtpx:atemp>
</gpxtpx:TrackPointExtension>
</extensions>
</trkpt>
<trkpt lat="47.742417734116316" lon="12.162027759477496">
<ele>493</ele>
<time>2012-03-03T11:41:28Z</time>
<extensions>
<gpxtpx:TrackPointExtension>
<gpxtpx:hr>115</gpxtpx:hr>
<gpxtpx:atemp>6</gpxtpx:atemp>
</gpxtpx:TrackPointExtension>
</extensions>
</trkpt>
<trkpt lat="47.74239485152066" lon="12.16190722770989">
<ele>493</ele>
<time>2012-03-03T11:41:29Z</time>
<extensions>
<gpxtpx:TrackPointExtension>
<gpxtpx:hr>116</gpxtpx:hr>
<gpxtpx:atemp>6</gpxtpx:atemp>
</gpxtpx:TrackPointExtension>
</extensions>
</trkpt>
<trkpt lat="47.74237792007625" lon="12.161784349009395">
<ele>492</ele>
<time>2012-03-03T11:41:30Z</time>
<extensions>
<gpxtpx:TrackPointExtension>
<gpxtpx:hr>116</gpxtpx:hr>
<gpxtpx:atemp>6</gpxtpx:atemp>
</gpxtpx:TrackPointExtension>
</extensions>
</trkpt>
<trkpt lat="47.74236903525889" lon="12.161660632118583">
<ele>491</ele>
<time>2012-03-03T11:41:31Z</time>
<extensions>
<gpxtpx:TrackPointExtension>
<gpxtpx:hr>115</gpxtpx:hr>
<gpxtpx:atemp>6</gpxtpx:atemp>
</gpxtpx:TrackPointExtension>
</extensions>
</trkpt>
<trkpt lat="47.74237071163952" lon="12.16152761131525">
<ele>490</ele>
<time>2012-03-03T11:41:32Z</time>
<extensions>
<gpxtpx:TrackPointExtension>
<gpxtpx:hr>115</gpxtpx:hr>
<gpxtpx:atemp>6</gpxtpx:atemp>
</gpxtpx:TrackPointExtension>
</extensions>
</trkpt>
<trkpt lat="47.74237649515271" lon="12.161402888596058">
<ele>489</ele>
<time>2012-03-03T11:41:33Z</time>
<extensions>
<gpxtpx:TrackPointExtension>
<gpxtpx:hr>113</gpxtpx:hr>
<gpxtpx:atemp>6</gpxtpx:atemp>
</gpxtpx:TrackPointExtension>
</extensions>
</trkpt>
<trkpt lat="47.74239510297775" lon="12.161285122856498">
<ele>489</ele>
<time>2012-03-03T11:41:34Z</time>
<extensions>
<gpxtpx:TrackPointExtension>
<gpxtpx:hr>112</gpxtpx:hr>
<gpxtpx:atemp>6</gpxtpx:atemp>
</gpxtpx:TrackPointExtension>
</extensions>
</trkpt>
<trkpt lat="47.74242184124887" lon="12.16116894967854">
<ele>488</ele>
<time>2012-03-03T11:41:35Z</time>
<extensions>
<gpxtpx:TrackPointExtension>
<gpxtpx:hr>112</gpxtpx:hr>
<gpxtpx:atemp>6</gpxtpx:atemp>
</gpxtpx:TrackPointExtension>
</extensions>
</trkpt>
<trkpt lat="47.7424515131861" lon="12.16105897910893">
<ele>488</ele>
<time>2012-03-03T11:41:36Z</time>
<extensions>
<gpxtpx:TrackPointExtension>
<gpxtpx:hr>112</gpxtpx:hr>
<gpxtpx:atemp>6</gpxtpx:atemp>
</gpxtpx:TrackPointExtension>
</extensions>
</trkpt>
<trkpt lat="47.74254555813968" lon="12.160742562264204">
<ele>488</ele>
<time>2012-03-03T11:41:39Z</time>
<extensions>
<gpxtpx:TrackPointExtension>
<gpxtpx:hr>115</gpxtpx:hr>
<gpxtpx:atemp>6</gpxtpx:atemp>
</gpxtpx:TrackPointExtension>
</extensions>
</trkpt>
<trkpt lat="47.74257824756205" lon="12.160634268075228">
<ele>487</ele>
<time>2012-03-03T11:41:40Z</time>
<extensions>
<gpxtpx:TrackPointExtension>
<gpxtpx:hr>116</gpxtpx:hr>
<gpxtpx:atemp>6</gpxtpx:atemp>
</gpxtpx:TrackPointExtension>
</extensions>
</trkpt>
<trkpt lat="47.74260959587991" lon="12.160533014684916">
<ele>487</ele>
<time>2012-03-03T11:41:41Z</time>
<extensions>
<gpxtpx:TrackPointExtension>
<gpxtpx:hr>115</gpxtpx:hr>
<gpxtpx:atemp>6</gpxtpx:atemp>
</gpxtpx:TrackPointExtension>
</extensions>
</trkpt>
<trkpt lat="47.74264220148325" lon="12.16043595224619">
<ele>487</ele>
<time>2012-03-03T11:41:42Z</time>
<extensions>
<gpxtpx:TrackPointExtension>
<gpxtpx:hr>113</gpxtpx:hr>
<gpxtpx:atemp>6</gpxtpx:atemp>
</gpxtpx:TrackPointExtension>
</extensions>
</trkpt>
<trkpt lat="47.74267396889627" lon="12.16034073382616">
<ele>486</ele>
<time>2012-03-03T11:41:43Z</time>
<extensions>
<gpxtpx:TrackPointExtension>
<gpxtpx:hr>113</gpxtpx:hr>
<gpxtpx:atemp>6</gpxtpx:atemp>
</gpxtpx:TrackPointExtension>
</extensions>
</trkpt>
<trkpt lat="47.74270037189126" lon="12.160242833197117">
<ele>486</ele>
<time>2012-03-03T11:41:44Z</time>
<extensions>
<gpxtpx:TrackPointExtension>
<gpxtpx:hr>110</gpxtpx:hr>
<gpxtpx:atemp>6</gpxtpx:atemp>
</gpxtpx:TrackPointExtension>
</extensions>
</trkpt>
<trkpt lat="47.74272627197206" lon="12.160145100206137">
<ele>486</ele>
<time>2012-03-03T11:41:45Z</time>
<extensions>
<gpxtpx:TrackPointExtension>
<gpxtpx:hr>107</gpxtpx:hr>
<gpxtpx:atemp>6</gpxtpx:atemp>
</gpxtpx:TrackPointExtension>
</extensions>
</trkpt>
<trkpt lat="47.7427554409951" lon="12.160048624500632">
<ele>486</ele>
<time>2012-03-03T11:41:46Z</time>
<extensions>
<gpxtpx:TrackPointExtension>
<gpxtpx:hr>107</gpxtpx:hr>
<gpxtpx:atemp>6</gpxtpx:atemp>
</gpxtpx:TrackPointExtension>
</extensions>
</trkpt>
<trkpt lat="47.74277999997139" lon="12.159951142966747">
<ele>486</ele>
<time>2012-03-03T11:41:47Z</time>
<extensions>
<gpxtpx:TrackPointExtension>
<gpxtpx:hr>109</gpxtpx:hr>
<gpxtpx:atemp>6</gpxtpx:atemp>
</gpxtpx:TrackPointExtension>
</extensions>
</trkpt>
<trkpt lat="47.74282836355269" lon="12.159746121615171">
<ele>485</ele>
<time>2012-03-03T11:41:49Z</time>
<extensions>
<gpxtpx:TrackPointExtension>
<gpxtpx:hr>113</gpxtpx:hr>
<gpxtpx:atemp>6</gpxtpx:atemp>
</gpxtpx:TrackPointExtension>
</extensions>
</trkpt>
<trkpt lat="47.74285082705319" lon="12.159646293148398">
<ele>485</ele>
<time>2012-03-03T11:41:50Z</time>
<extensions>
<gpxtpx:TrackPointExtension>
<gpxtpx:hr>114</gpxtpx:hr>
<gpxtpx:atemp>6</gpxtpx:atemp>
</gpxtpx:TrackPointExtension>
</extensions>
</trkpt>
<trkpt lat="47.74287270382047" lon="12.159547554329038">
<ele>484</ele>
<time>2012-03-03T11:41:51Z</time>
<extensions>
<gpxtpx:TrackPointExtension>
<gpxtpx:hr>116</gpxtpx:hr>
<gpxtpx:atemp>6</gpxtpx:atemp>
</gpxtpx:TrackPointExtension>
</extensions>
</trkpt>
<trkpt lat="47.74289575405419" lon="12.159448396414518">
<ele>484</ele>
<time>2012-03-03T11:41:52Z</time>
<extensions>
<gpxtpx:TrackPointExtension>
<gpxtpx:hr>117</gpxtpx:hr>
<gpxtpx:atemp>6</gpxtpx:atemp>
</gpxtpx:TrackPointExtension>
</extensions>
</trkpt>
<trkpt lat="47.742917044088244" lon="12.15935024432838">
<ele>483</ele>
<time>2012-03-03T11:41:53Z</time>
<extensions>
<gpxtpx:TrackPointExtension>
<gpxtpx:hr>117</gpxtpx:hr>
<gpxtpx:atemp>6</gpxtpx:atemp>
</gpxtpx:TrackPointExtension>
</extensions>
</trkpt>
<trkpt lat="47.74300832301378" lon="12.158862333744764">
<ele>483</ele>
<time>2012-03-03T11:41:58Z</time>
<extensions>
<gpxtpx:TrackPointExtension>
<gpxtpx:hr>120</gpxtpx:hr>
<gpxtpx:atemp>6</gpxtpx:atemp>
</gpxtpx:TrackPointExtension>
</extensions>
</trkpt>
<trkpt lat="47.74302626028657" lon="12.158767031505704">
<ele>483</ele>
<time>2012-03-03T11:41:59Z</time>
<extensions>
<gpxtpx:TrackPointExtension>
<gpxtpx:hr>121</gpxtpx:hr>
<gpxtpx:atemp>6</gpxtpx:atemp>
</gpxtpx:TrackPointExtension>
</extensions>
</trkpt>
<trkpt lat="47.74313287809491" lon="12.158221369609237">
<ele>483</ele>
<time>2012-03-03T11:42:05Z</time>
<extensions>
<gpxtpx:TrackPointExtension>
<gpxtpx:hr>121</gpxtpx:hr>
<gpxtpx:atemp>6</gpxtpx:atemp>
</gpxtpx:TrackPointExtension>
</extensions>
</trkpt>
<trkpt lat="47.743150647729635" lon="12.158134113997221">
<ele>483</ele>
<time>2012-03-03T11:42:06Z</time>
<extensions>
<gpxtpx:TrackPointExtension>
<gpxtpx:hr>121</gpxtpx:hr>
<gpxtpx:atemp>6</gpxtpx:atemp>
</gpxtpx:TrackPointExtension>
</extensions>
</trkpt>
<trkpt lat="47.74316766299307" lon="12.158045182004571">
<ele>482</ele>
<time>2012-03-03T11:42:07Z</time>
<extensions>
<gpxtpx:TrackPointExtension>
<gpxtpx:hr>121</gpxtpx:hr>
<gpxtpx:atemp>6</gpxtpx:atemp>
</gpxtpx:TrackPointExtension>
</extensions>
</trkpt>
<trkpt lat="47.74318643845618" lon="12.157957758754492">
<ele>482</ele>
<time>2012-03-03T11:42:08Z</time>
<extensions>
<gpxtpx:TrackPointExtension>
<gpxtpx:hr>121</gpxtpx:hr>
<gpxtpx:atemp>6</gpxtpx:atemp>
</gpxtpx:TrackPointExtension>
</extensions>
</trkpt>
<trkpt lat="47.743206806480885" lon="12.157868826761842">
<ele>481</ele>
<time>2012-03-03T11:42:09Z</time>
<extensions>
<gpxtpx:TrackPointExtension>
<gpxtpx:hr>121</gpxtpx:hr>
<gpxtpx:atemp>6</gpxtpx:atemp>
</gpxtpx:TrackPointExtension>
</extensions>
</trkpt>
<trkpt lat="47.74329900741577" lon="12.15744855813682">
<ele>481</ele>
<time>2012-03-03T11:42:14Z</time>
<extensions>
<gpxtpx:TrackPointExtension>
<gpxtpx:hr>121</gpxtpx:hr>
<gpxtpx:atemp>6</gpxtpx:atemp>
</gpxtpx:TrackPointExtension>
</extensions>
</trkpt>
<trkpt lat="47.74335818365216" lon="12.157245296984911">
<ele>481</ele>
<time>2012-03-03T11:42:17Z</time>
<extensions>
<gpxtpx:TrackPointExtension>
<gpxtpx:hr>118</gpxtpx:hr>
<gpxtpx:atemp>6</gpxtpx:atemp>
</gpxtpx:TrackPointExtension>
</extensions>
</trkpt>
<trkpt lat="47.743390034884214" lon="12.157120238989592">
<ele>481</ele>
<time>2012-03-03T11:42:19Z</time>
<extensions>
<gpxtpx:TrackPointExtension>
<gpxtpx:hr>116</gpxtpx:hr>
<gpxtpx:atemp>6</gpxtpx:atemp>
</gpxtpx:TrackPointExtension>
</extensions>
</trkpt>
<trkpt lat="47.74341660551727" lon="12.156990738585591">
<ele>480</ele>
<time>2012-03-03T11:42:22Z</time>
<extensions>
<gpxtpx:TrackPointExtension>
<gpxtpx:hr>117</gpxtpx:hr>
<gpxtpx:atemp>6</gpxtpx:atemp>
</gpxtpx:TrackPointExtension>
</extensions>
</trkpt>
<trkpt lat="47.74341953918338" lon="12.156972214579582">
<ele>480</ele>
<time>2012-03-03T11:42:23Z</time>
<extensions>
<gpxtpx:TrackPointExtension>
<gpxtpx:hr>117</gpxtpx:hr>
<gpxtpx:atemp>6</gpxtpx:atemp>
</gpxtpx:TrackPointExtension>
</extensions>
</trkpt>
<trkpt lat="47.74341819807887" lon="12.156959474086761">
<ele>479</ele>
<time>2012-03-03T11:42:24Z</time>
<extensions>
<gpxtpx:TrackPointExtension>
<gpxtpx:hr>115</gpxtpx:hr>
<gpxtpx:atemp>6</gpxtpx:atemp>
</gpxtpx:TrackPointExtension>
</extensions>
</trkpt>
<trkpt lat="47.743417359888554" lon="12.156950253993273">
<ele>479</ele>
<time>2012-03-03T11:42:25Z</time>
<extensions>
<gpxtpx:TrackPointExtension>
<gpxtpx:hr>114</gpxtpx:hr>
<gpxtpx:atemp>6</gpxtpx:atemp>
</gpxtpx:TrackPointExtension>
</extensions>
</trkpt>
<trkpt lat="47.74339556694031" lon="12.156892754137516">
<ele>479</ele>
<time>2012-03-03T11:42:28Z</time>
<extensions>
<gpxtpx:TrackPointExtension>
<gpxtpx:hr>114</gpxtpx:hr>
<gpxtpx:atemp>6</gpxtpx:atemp>
</gpxtpx:TrackPointExtension>
</extensions>
</trkpt>
<trkpt lat="47.74337285198271" lon="12.156869200989604">
<ele>479</ele>
<time>2012-03-03T11:42:29Z</time>
<extensions>
<gpxtpx:TrackPointExtension>
<gpxtpx:hr>117</gpxtpx:hr>
<gpxtpx:atemp>6</gpxtpx:atemp>
</gpxtpx:TrackPointExtension>
</extensions>
</trkpt>
<trkpt lat="47.74330378510058" lon="12.156820753589272">
<ele>479</ele>
<time>2012-03-03T11:42:31Z</time>
<extensions>
<gpxtpx:TrackPointExtension>
<gpxtpx:hr>120</gpxtpx:hr>
<gpxtpx:atemp>6</gpxtpx:atemp>
</gpxtpx:TrackPointExtension>
</extensions>
</trkpt>
<trkpt lat="47.74326070211828" lon="12.156795607879758">
<ele>479</ele>
<time>2012-03-03T11:42:32Z</time>
<extensions>
<gpxtpx:TrackPointExtension>
<gpxtpx:hr>121</gpxtpx:hr>
<gpxtpx:atemp>6</gpxtpx:atemp>
</gpxtpx:TrackPointExtension>
</extensions>
</trkpt>
<trkpt lat="47.743174117058516" lon="12.156750094145536">
<ele>479</ele>
<time>2012-03-03T11:42:34Z</time>
<extensions>
<gpxtpx:TrackPointExtension>
<gpxtpx:hr>124</gpxtpx:hr>
<gpxtpx:atemp>6</gpxtpx:atemp>
</gpxtpx:TrackPointExtension>
</extensions>
</trkpt>
<trkpt lat="47.74308107793331" lon="12.156701982021332">
<ele>479</ele>
<time>2012-03-03T11:42:36Z</time>
<extensions>
<gpxtpx:TrackPointExtension>
<gpxtpx:hr>127</gpxtpx:hr>
<gpxtpx:atemp>6</gpxtpx:atemp>
</gpxtpx:TrackPointExtension>
</extensions>
</trkpt>
<trkpt lat="47.742987954989076" lon="12.156645655632019">
<ele>479</ele>
<time>2012-03-03T11:42:38Z</time>
<extensions>
<gpxtpx:TrackPointExtension>
<gpxtpx:hr>128</gpxtpx:hr>
<gpxtpx:atemp>6</gpxtpx:atemp>
</gpxtpx:TrackPointExtension>
</extensions>
</trkpt>
<trkpt lat="47.74262451566756" lon="12.15647416189313">
<ele>479</ele>
<time>2012-03-03T11:42:45Z</time>
<extensions>
<gpxtpx:TrackPointExtension>
<gpxtpx:hr>128</gpxtpx:hr>
<gpxtpx:atemp>6</gpxtpx:atemp>
</gpxtpx:TrackPointExtension>
</extensions>
</trkpt>
<trkpt lat="47.742337519302964" lon="12.156376512721181">
<ele>479</ele>
<time>2012-03-03T11:42:50Z</time>
<extensions>
<gpxtpx:TrackPointExtension>
<gpxtpx:hr>128</gpxtpx:hr>
<gpxtpx:atemp>6</gpxtpx:atemp>
</gpxtpx:TrackPointExtension>
</extensions>
</trkpt>
<trkpt lat="47.7422770857811" lon="12.156354803591967">
<ele>478</ele>
<time>2012-03-03T11:42:51Z</time>
<extensions>
<gpxtpx:TrackPointExtension>
<gpxtpx:hr>128</gpxtpx:hr>
<gpxtpx:atemp>7</gpxtpx:atemp>
</gpxtpx:TrackPointExtension>
</extensions>
</trkpt>
<trkpt lat="47.742216316983104" lon="12.156336698681116">
<ele>478</ele>
<time>2012-03-03T11:42:52Z</time>
<extensions>
<gpxtpx:TrackPointExtension>
<gpxtpx:hr>128</gpxtpx:hr>
<gpxtpx:atemp>7</gpxtpx:atemp>
</gpxtpx:TrackPointExtension>
</extensions>
</trkpt>
<trkpt lat="47.742156302556396" lon="12.156321108341217">
<ele>477</ele>
<time>2012-03-03T11:42:53Z</time>
<extensions>
<gpxtpx:TrackPointExtension>
<gpxtpx:hr>129</gpxtpx:hr>
<gpxtpx:atemp>7</gpxtpx:atemp>
</gpxtpx:TrackPointExtension>
</extensions>
</trkpt>
<trkpt lat="47.742098132148385" lon="12.156306440010667">
<ele>477</ele>
<time>2012-03-03T11:42:54Z</time>
<extensions>
<gpxtpx:TrackPointExtension>
<gpxtpx:hr>129</gpxtpx:hr>
<gpxtpx:atemp>7</gpxtpx:atemp>
</gpxtpx:TrackPointExtension>
</extensions>
</trkpt>
<trkpt lat="47.74180367588997" lon="12.15621868148446">
<ele>477</ele>
<time>2012-03-03T11:42:59Z</time>
<extensions>
<gpxtpx:TrackPointExtension>
<gpxtpx:hr>127</gpxtpx:hr>
<gpxtpx:atemp>7</gpxtpx:atemp>
</gpxtpx:TrackPointExtension>
</extensions>
</trkpt>
<trkpt lat="47.74136681109667" lon="12.156047020107508">
<ele>477</ele>
<time>2012-03-03T11:43:06Z</time>
<extensions>
<gpxtpx:TrackPointExtension>
<gpxtpx:hr>126</gpxtpx:hr>
<gpxtpx:atemp>7</gpxtpx:atemp>
</gpxtpx:TrackPointExtension>
</extensions>
</trkpt>
<trkpt lat="47.74124879390001" lon="12.155957166105509">
<ele>477</ele>
<time>2012-03-03T11:43:08Z</time>
<extensions>
<gpxtpx:TrackPointExtension>
<gpxtpx:hr>126</gpxtpx:hr>
<gpxtpx:atemp>7</gpxtpx:atemp>
</gpxtpx:TrackPointExtension>
</extensions>
</trkpt>
<trkpt lat="47.74115248583257" lon="12.155837304890156">
<ele>477</ele>
<time>2012-03-03T11:43:10Z</time>
<extensions>
<gpxtpx:TrackPointExtension>
<gpxtpx:hr>126</gpxtpx:hr>
<gpxtpx:atemp>7</gpxtpx:atemp>
</gpxtpx:TrackPointExtension>
</extensions>
</trkpt>
<trkpt lat="47.741068080067635" lon="12.15570311062038">
<ele>477</ele>
<time>2012-03-03T11:43:12Z</time>
<extensions>
<gpxtpx:TrackPointExtension>
<gpxtpx:hr>127</gpxtpx:hr>
<gpxtpx:atemp>7</gpxtpx:atemp>
</gpxtpx:TrackPointExtension>
</extensions>
</trkpt>
<trkpt lat="47.74086012504995" lon="12.155370516702533">
<ele>477</ele>
<time>2012-03-03T11:43:17Z</time>
<extensions>
<gpxtpx:TrackPointExtension>
<gpxtpx:hr>129</gpxtpx:hr>
<gpxtpx:atemp>7</gpxtpx:atemp>
</gpxtpx:TrackPointExtension>
</extensions>
</trkpt>
<trkpt lat="47.740767085924745" lon="12.155276807025075">
<ele>477</ele>
<time>2012-03-03T11:43:19Z</time>
<extensions>
<gpxtpx:TrackPointExtension>
<gpxtpx:hr>129</gpxtpx:hr>
<gpxtpx:atemp>7</gpxtpx:atemp>
</gpxtpx:TrackPointExtension>
</extensions>
</trkpt>
<trkpt lat="47.74064311757684" lon="12.155274711549282">
<ele>477</ele>
<time>2012-03-03T11:43:21Z</time>
<extensions>
<gpxtpx:TrackPointExtension>
<gpxtpx:hr>130</gpxtpx:hr>
<gpxtpx:atemp>7</gpxtpx:atemp>
</gpxtpx:TrackPointExtension>
</extensions>
</trkpt>
<trkpt lat="47.740538008511066" lon="12.155337324365973">
<ele>477</ele>
<time>2012-03-03T11:43:23Z</time>
<extensions>
<gpxtpx:TrackPointExtension>
<gpxtpx:hr>130</gpxtpx:hr>
<gpxtpx:atemp>7</gpxtpx:atemp>
</gpxtpx:TrackPointExtension>
</extensions>
</trkpt>
<trkpt lat="47.74042284116149" lon="12.155404463410378">
<ele>477</ele>
<time>2012-03-03T11:43:25Z</time>
<extensions>
<gpxtpx:TrackPointExtension>
<gpxtpx:hr>131</gpxtpx:hr>
<gpxtpx:atemp>7</gpxtpx:atemp>
</gpxtpx:TrackPointExtension>
</extensions>
</trkpt>
<trkpt lat="47.7402064204216" lon="12.155532203614712">
<ele>477</ele>
<time>2012-03-03T11:43:29Z</time>
<extensions>
<gpxtpx:TrackPointExtension>
<gpxtpx:hr>134</gpxtpx:hr>
<gpxtpx:atemp>7</gpxtpx:atemp>
</gpxtpx:TrackPointExtension>
</extensions>
</trkpt>
<trkpt lat="47.74011095054448" lon="12.15560688637197">
<ele>477</ele>
<time>2012-03-03T11:43:31Z</time>
<extensions>
<gpxtpx:TrackPointExtension>
<gpxtpx:hr>135</gpxtpx:hr>
<gpxtpx:atemp>7</gpxtpx:atemp>
</gpxtpx:TrackPointExtension>
</extensions>
</trkpt>
<trkpt lat="47.74006283842027" lon="12.155650807544589">
<ele>478</ele>
<time>2012-03-03T11:43:32Z</time>
<extensions>
<gpxtpx:TrackPointExtension>
<gpxtpx:hr>136</gpxtpx:hr>
<gpxtpx:atemp>7</gpxtpx:atemp>
</gpxtpx:TrackPointExtension>
</extensions>
</trkpt>
<trkpt lat="47.74001581594348" lon="12.155696237459779">
<ele>478</ele>
<time>2012-03-03T11:43:33Z</time>
<extensions>
<gpxtpx:TrackPointExtension>
<gpxtpx:hr>136</gpxtpx:hr>
<gpxtpx:atemp>7</gpxtpx:atemp>
</gpxtpx:TrackPointExtension>
</extensions>
</trkpt>
<trkpt lat="47.7399698831141" lon="12.155744265764952">
<ele>479</ele>
<time>2012-03-03T11:43:34Z</time>
<extensions>
<gpxtpx:TrackPointExtension>
<gpxtpx:hr>137</gpxtpx:hr>
<gpxtpx:atemp>7</gpxtpx:atemp>
</gpxtpx:TrackPointExtension>
</extensions>
</trkpt>
<trkpt lat="47.73992244154215" lon="12.155796652659774">
<ele>479</ele>
<time>2012-03-03T11:43:35Z</time>
<extensions>
<gpxtpx:TrackPointExtension>
<gpxtpx:hr>137</gpxtpx:hr>
<gpxtpx:atemp>7</gpxtpx:atemp>
</gpxtpx:TrackPointExtension>
</extensions>
</trkpt>
<trkpt lat="47.73968741297722" lon="12.156064873561263">
<ele>479</ele>
<time>2012-03-03T11:43:40Z</time>
<extensions>
<gpxtpx:TrackPointExtension>
<gpxtpx:hr>139</gpxtpx:hr>
<gpxtpx:atemp>7</gpxtpx:atemp>
</gpxtpx:TrackPointExtension>
</extensions>
</trkpt>
<trkpt lat="47.7392515540123" lon="12.156577007845044">
<ele>479</ele>
<time>2012-03-03T11:43:49Z</time>
<extensions>
<gpxtpx:TrackPointExtension>
<gpxtpx:hr>140</gpxtpx:hr>
<gpxtpx:atemp>7</gpxtpx:atemp>
</gpxtpx:TrackPointExtension>
</extensions>
</trkpt>
<trkpt lat="47.73919933475554" lon="12.156630735844374">
<ele>479</ele>
<time>2012-03-03T11:43:50Z</time>
<extensions>
<gpxtpx:TrackPointExtension>
<gpxtpx:hr>140</gpxtpx:hr>
<gpxtpx:atemp>7</gpxtpx:atemp>
</gpxtpx:TrackPointExtension>
</extensions>
</trkpt>
<trkpt lat="47.73887814022601" lon="12.156953774392605">
<ele>479</ele>
<time>2012-03-03T11:43:56Z</time>
<extensions>
<gpxtpx:TrackPointExtension>
<gpxtpx:hr>143</gpxtpx:hr>
<gpxtpx:atemp>7</gpxtpx:atemp>
</gpxtpx:TrackPointExtension>
</extensions>
</trkpt>
<trkpt lat="47.73871201090515" lon="12.157089980319142">
<ele>479</ele>
<time>2012-03-03T11:43:59Z</time>
<extensions>
<gpxtpx:TrackPointExtension>
<gpxtpx:hr>143</gpxtpx:hr>
<gpxtpx:atemp>7</gpxtpx:atemp>
</gpxtpx:TrackPointExtension>
</extensions>
</trkpt>
<trkpt lat="47.73865593597293" lon="12.15712895616889">
<ele>479</ele>
<time>2012-03-03T11:44:00Z</time>
<extensions>
<gpxtpx:TrackPointExtension>
<gpxtpx:hr>144</gpxtpx:hr>
<gpxtpx:atemp>7</gpxtpx:atemp>
</gpxtpx:TrackPointExtension>
</extensions>
</trkpt>
<trkpt lat="47.73836826905608" lon="12.157313022762537">
<ele>480</ele>
<time>2012-03-03T11:44:05Z</time>
<extensions>
<gpxtpx:TrackPointExtension>
<gpxtpx:hr>145</gpxtpx:hr>
<gpxtpx:atemp>7</gpxtpx:atemp>
</gpxtpx:TrackPointExtension>
</extensions>
</trkpt>
<trkpt lat="47.73830666206777" lon="12.157349735498428">
<ele>480</ele>
<time>2012-03-03T11:44:06Z</time>
<extensions>
<gpxtpx:TrackPointExtension>
<gpxtpx:hr>146</gpxtpx:hr>
<gpxtpx:atemp>7</gpxtpx:atemp>
</gpxtpx:TrackPointExtension>
</extensions>
</trkpt>
<trkpt lat="47.73824891075492" lon="12.157386364415288">
<ele>480</ele>
<time>2012-03-03T11:44:07Z</time>
<extensions>
<gpxtpx:TrackPointExtension>
<gpxtpx:hr>146</gpxtpx:hr>
<gpxtpx:atemp>7</gpxtpx:atemp>
</gpxtpx:TrackPointExtension>
</extensions>
</trkpt>
<trkpt lat="47.738190572708845" lon="12.157425926998258">
<ele>481</ele>
<time>2012-03-03T11:44:08Z</time>
<extensions>
<gpxtpx:TrackPointExtension>
<gpxtpx:hr>146</gpxtpx:hr>
<gpxtpx:atemp>7</gpxtpx:atemp>
</gpxtpx:TrackPointExtension>
</extensions>
</trkpt>
<trkpt lat="47.73813039064407" lon="12.157468423247337">
<ele>481</ele>
<time>2012-03-03T11:44:09Z</time>
<extensions>
<gpxtpx:TrackPointExtension>
<gpxtpx:hr>147</gpxtpx:hr>
<gpxtpx:atemp>7</gpxtpx:atemp>
</gpxtpx:TrackPointExtension>
</extensions>
</trkpt>
<trkpt lat="47.73784087970853" lon="12.157749887555838">
<ele>481</ele>
<time>2012-03-03T11:44:14Z</time>
<extensions>
<gpxtpx:TrackPointExtension>
<gpxtpx:hr>149</gpxtpx:hr>
<gpxtpx:atemp>7</gpxtpx:atemp>
</gpxtpx:TrackPointExtension>
</extensions>
</trkpt>
<trkpt lat="47.73773971013725" lon="12.157872514799237">
<ele>481</ele>
<time>2012-03-03T11:44:16Z</time>
<extensions>
<gpxtpx:TrackPointExtension>
<gpxtpx:hr>149</gpxtpx:hr>
<gpxtpx:atemp>7</gpxtpx:atemp>
</gpxtpx:TrackPointExtension>
</extensions>
</trkpt>
<trkpt lat="47.737606102600694" lon="12.158073345199227">
<ele>481</ele>
<time>2012-03-03T11:44:19Z</time>
<extensions>
<gpxtpx:TrackPointExtension>
<gpxtpx:hr>148</gpxtpx:hr>
<gpxtpx:atemp>7</gpxtpx:atemp>
</gpxtpx:TrackPointExtension>
</extensions>
</trkpt>
<trkpt lat="47.73740217089653" lon="12.158390264958143">
<ele>481</ele>
<time>2012-03-03T11:44:24Z</time>
<extensions>
<gpxtpx:TrackPointExtension>
<gpxtpx:hr>145</gpxtpx:hr>
<gpxtpx:atemp>7</gpxtpx:atemp>
</gpxtpx:TrackPointExtension>
</extensions>
</trkpt>
<trkpt lat="47.73734265938401" lon="12.158475341275334">
<ele>481</ele>
<time>2012-03-03T11:44:26Z</time>
<extensions>
<gpxtpx:TrackPointExtension>
<gpxtpx:hr>144</gpxtpx:hr>
<gpxtpx:atemp>7</gpxtpx:atemp>
</gpxtpx:TrackPointExtension>
</extensions>
</trkpt>
<trkpt lat="47.737279795110226" lon="12.15853527188301">
<ele>481</ele>
<time>2012-03-03T11:44:30Z</time>
<extensions>
<gpxtpx:TrackPointExtension>
<gpxtpx:hr>141</gpxtpx:hr>
<gpxtpx:atemp>7</gpxtpx:atemp>
</gpxtpx:TrackPointExtension>
</extensions>
</trkpt>
<trkpt lat="47.73725649341941" lon="12.158558322116733">
<ele>481</ele>
<time>2012-03-03T11:44:33Z</time>
<extensions>
<gpxtpx:TrackPointExtension>
<gpxtpx:hr>138</gpxtpx:hr>
<gpxtpx:atemp>8</gpxtpx:atemp>
</gpxtpx:TrackPointExtension>
</extensions>
</trkpt>
<trkpt lat="47.7372033521533" lon="12.158629149198532">
<ele>481</ele>
<time>2012-03-03T11:44:36Z</time>
<extensions>
<gpxtpx:TrackPointExtension>
<gpxtpx:hr>136</gpxtpx:hr>
<gpxtpx:atemp>8</gpxtpx:atemp>
</gpxtpx:TrackPointExtension>
</extensions>
</trkpt>
<trkpt lat="47.737179128453135" lon="12.158665526658297">
<ele>481</ele>
<time>2012-03-03T11:44:37Z</time>
<extensions>
<gpxtpx:TrackPointExtension>
<gpxtpx:hr>135</gpxtpx:hr>
<gpxtpx:atemp>8</gpxtpx:atemp>
</gpxtpx:TrackPointExtension>
</extensions>
</trkpt>
<trkpt lat="47.73701710626483" lon="12.158894604071975">
<ele>481</ele>
<time>2012-03-03T11:44:42Z</time>
<extensions>
<gpxtpx:TrackPointExtension>
<gpxtpx:hr>136</gpxtpx:hr>
<gpxtpx:atemp>8</gpxtpx:atemp>
</gpxtpx:TrackPointExtension>
</extensions>
</trkpt>
<trkpt lat="47.7367130946368" lon="12.159252846613526">
<ele>481</ele>
<time>2012-03-03T11:44:49Z</time>
<extensions>
<gpxtpx:TrackPointExtension>
<gpxtpx:hr>135</gpxtpx:hr>
<gpxtpx:atemp>8</gpxtpx:atemp>
</gpxtpx:TrackPointExtension>
</extensions>
</trkpt>
<trkpt lat="47.73630020208657" lon="12.159610167145729">
<ele>481</ele>
<time>2012-03-03T11:44:57Z</time>
<extensions>
<gpxtpx:TrackPointExtension>
<gpxtpx:hr>137</gpxtpx:hr>
<gpxtpx:atemp>8</gpxtpx:atemp>
</gpxtpx:TrackPointExtension>
</extensions>
</trkpt>
<trkpt lat="47.73588806390762" lon="12.15986774303019">
<ele>481</ele>
<time>2012-03-03T11:45:04Z</time>
<extensions>
<gpxtpx:TrackPointExtension>
<gpxtpx:hr>139</gpxtpx:hr>
<gpxtpx:atemp>8</gpxtpx:atemp>
</gpxtpx:TrackPointExtension>
</extensions>
</trkpt>
<trkpt lat="47.73543586023152" lon="12.160053150728345">
<ele>481</ele>
<time>2012-03-03T11:45:12Z</time>
<extensions>
<gpxtpx:TrackPointExtension>
<gpxtpx:hr>138</gpxtpx:hr>
<gpxtpx:atemp>8</gpxtpx:atemp>
</gpxtpx:TrackPointExtension>
</extensions>
</trkpt>
<trkpt lat="47.735290098935366" lon="12.160061113536358">
<ele>481</ele>
<time>2012-03-03T11:45:16Z</time>
<extensions>
<gpxtpx:TrackPointExtension>
<gpxtpx:hr>136</gpxtpx:hr>
<gpxtpx:atemp>8</gpxtpx:atemp>
</gpxtpx:TrackPointExtension>
</extensions>
</trkpt>
<trkpt lat="47.735246093943715" lon="12.159855924546719">
<ele>481</ele>
<time>2012-03-03T11:45:19Z</time>
<extensions>
<gpxtpx:TrackPointExtension>
<gpxtpx:hr>135</gpxtpx:hr>
<gpxtpx:atemp>8</gpxtpx:atemp>
</gpxtpx:TrackPointExtension>
</extensions>
</trkpt>
<trkpt lat="47.735219271853566" lon="12.15966934338212">
<ele>481</ele>
<time>2012-03-03T11:45:21Z</time>
<extensions>
<gpxtpx:TrackPointExtension>
<gpxtpx:hr>135</gpxtpx:hr>
<gpxtpx:atemp>8</gpxtpx:atemp>
</gpxtpx:TrackPointExtension>
</extensions>
</trkpt>
<trkpt lat="47.73518901318312" lon="12.159384610131383">
<ele>481</ele>
<time>2012-03-03T11:45:24Z</time>
<extensions>
<gpxtpx:TrackPointExtension>
<gpxtpx:hr>136</gpxtpx:hr>
<gpxtpx:atemp>8</gpxtpx:atemp>
</gpxtpx:TrackPointExtension>
</extensions>
</trkpt>
<trkpt lat="47.73512220941484" lon="12.158872475847602">
<ele>481</ele>
<time>2012-03-03T11:45:30Z</time>
<extensions>
<gpxtpx:TrackPointExtension>
<gpxtpx:hr>136</gpxtpx:hr>
<gpxtpx:atemp>8</gpxtpx:atemp>
</gpxtpx:TrackPointExtension>
</extensions>
</trkpt>
<trkpt lat="47.735075522214174" lon="12.158562764525414">
<ele>481</ele>
<time>2012-03-03T11:45:34Z</time>
<extensions>
<gpxtpx:TrackPointExtension>
<gpxtpx:hr>134</gpxtpx:hr>
<gpxtpx:atemp>8</gpxtpx:atemp>
</gpxtpx:TrackPointExtension>
</extensions>
</trkpt>
<trkpt lat="47.73506361991167" lon="12.158486740663648">
<ele>480</ele>
<time>2012-03-03T11:45:35Z</time>
<extensions>
<gpxtpx:TrackPointExtension>
<gpxtpx:hr>133</gpxtpx:hr>
<gpxtpx:atemp>8</gpxtpx:atemp>
</gpxtpx:TrackPointExtension>
</extensions>
</trkpt>
<trkpt lat="47.73505029268563" lon="12.15841406956315">
<ele>480</ele>
<time>2012-03-03T11:45:36Z</time>
<extensions>
<gpxtpx:TrackPointExtension>
<gpxtpx:hr>133</gpxtpx:hr>
<gpxtpx:atemp>8</gpxtpx:atemp>
</gpxtpx:TrackPointExtension>
</extensions>
</trkpt>
<trkpt lat="47.73503906093538" lon="12.15833737514913">
<ele>480</ele>
<time>2012-03-03T11:45:37Z</time>
<extensions>
<gpxtpx:TrackPointExtension>
<gpxtpx:hr>132</gpxtpx:hr>
<gpxtpx:atemp>8</gpxtpx:atemp>
</gpxtpx:TrackPointExtension>
</extensions>
</trkpt>
<trkpt lat="47.73503168486059" lon="12.158265374600887">
<ele>479</ele>
<time>2012-03-03T11:45:38Z</time>
<extensions>
<gpxtpx:TrackPointExtension>
<gpxtpx:hr>131</gpxtpx:hr>
<gpxtpx:atemp>8</gpxtpx:atemp>
</gpxtpx:TrackPointExtension>
</extensions>
</trkpt>
<trkpt lat="47.734981225803494" lon="12.157916687428951">
<ele>479</ele>
<time>2012-03-03T11:45:43Z</time>
<extensions>
<gpxtpx:TrackPointExtension>
<gpxtpx:hr>128</gpxtpx:hr>
<gpxtpx:atemp>8</gpxtpx:atemp>
</gpxtpx:TrackPointExtension>
</extensions>
</trkpt>
<trkpt lat="47.73496823385358" lon="12.157840831205249">
<ele>478</ele>
<time>2012-03-03T11:45:44Z</time>
<extensions>
<gpxtpx:TrackPointExtension>
<gpxtpx:hr>128</gpxtpx:hr>
<gpxtpx:atemp>8</gpxtpx:atemp>
</gpxtpx:TrackPointExtension>
</extensions>
</trkpt>
<trkpt lat="47.7349603548646" lon="12.157766986638308">
<ele>478</ele>
<time>2012-03-03T11:45:45Z</time>
<extensions>
<gpxtpx:TrackPointExtension>
<gpxtpx:hr>128</gpxtpx:hr>
<gpxtpx:atemp>8</gpxtpx:atemp>
</gpxtpx:TrackPointExtension>
</extensions>
</trkpt>
<trkpt lat="47.7349566668272" lon="12.157694986090064">
<ele>478</ele>
<time>2012-03-03T11:45:46Z</time>
<extensions>
<gpxtpx:TrackPointExtension>
<gpxtpx:hr>127</gpxtpx:hr>
<gpxtpx:atemp>8</gpxtpx:atemp>
</gpxtpx:TrackPointExtension>
</extensions>
</trkpt>
<trkpt lat="47.73495909757912" lon="12.157623739913106">
<ele>477</ele>
<time>2012-03-03T11:45:47Z</time>
<extensions>
<gpxtpx:TrackPointExtension>
<gpxtpx:hr>126</gpxtpx:hr>
<gpxtpx:atemp>8</gpxtpx:atemp>
</gpxtpx:TrackPointExtension>
</extensions>
</trkpt>
<trkpt lat="47.73497058078647" lon="12.157503040507436">
<ele>477</ele>
<time>2012-03-03T11:45:49Z</time>
<extensions>
<gpxtpx:TrackPointExtension>
<gpxtpx:hr>124</gpxtpx:hr>
<gpxtpx:atemp>8</gpxtpx:atemp>
</gpxtpx:TrackPointExtension>
</extensions>
</trkpt>
<trkpt lat="47.734958343207836" lon="12.157408241182566">
<ele>477</ele>
<time>2012-03-03T11:45:51Z</time>
<extensions>
<gpxtpx:TrackPointExtension>
<gpxtpx:hr>124</gpxtpx:hr>
<gpxtpx:atemp>8</gpxtpx:atemp>
</gpxtpx:TrackPointExtension>
</extensions>
</trkpt>
<trkpt lat="47.73494233377278" lon="12.157382927834988">
<ele>477</ele>
<time>2012-03-03T11:45:52Z</time>
<extensions>
<gpxtpx:TrackPointExtension>
<gpxtpx:hr>123</gpxtpx:hr>
<gpxtpx:atemp>8</gpxtpx:atemp>
</gpxtpx:TrackPointExtension>
</extensions>
</trkpt>
<trkpt lat="47.7348961494863" lon="12.157354429364204">
<ele>477</ele>
<time>2012-03-03T11:45:55Z</time>
<extensions>
<gpxtpx:TrackPointExtension>
<gpxtpx:hr>117</gpxtpx:hr>
<gpxtpx:atemp>8</gpxtpx:atemp>
</gpxtpx:TrackPointExtension>
</extensions>
</trkpt>
<trkpt lat="47.734884498640895" lon="12.157363900914788">
<ele>477</ele>
<time>2012-03-03T11:45:56Z</time>
<extensions>
<gpxtpx:TrackPointExtension>
<gpxtpx:hr>115</gpxtpx:hr>
<gpxtpx:atemp>8</gpxtpx:atemp>
</gpxtpx:TrackPointExtension>
</extensions>
</trkpt>
<trkpt lat="47.734867902472615" lon="12.15740597806871">
<ele>477</ele>
<time>2012-03-03T11:45:58Z</time>
<extensions>
<gpxtpx:TrackPointExtension>
<gpxtpx:hr>112</gpxtpx:hr>
<gpxtpx:atemp>8</gpxtpx:atemp>
</gpxtpx:TrackPointExtension>
</extensions>
</trkpt>
<trkpt lat="47.73488223552704" lon="12.157483259215951">
<ele>477</ele>
<time>2012-03-03T11:46:00Z</time>
<extensions>
<gpxtpx:TrackPointExtension>
<gpxtpx:hr>115</gpxtpx:hr>
<gpxtpx:atemp>8</gpxtpx:atemp>
</gpxtpx:TrackPointExtension>
</extensions>
</trkpt>
<trkpt lat="47.734897239133716" lon="12.157541178166866">
<ele>477</ele>
<time>2012-03-03T11:46:01Z</time>
<extensions>
<gpxtpx:TrackPointExtension>
<gpxtpx:hr>116</gpxtpx:hr>
<gpxtpx:atemp>8</gpxtpx:atemp>
</gpxtpx:TrackPointExtension>
</extensions>
</trkpt>
<trkpt lat="47.73490754887462" lon="12.15760638937354">
<ele>477</ele>
<time>2012-03-03T11:46:02Z</time>
<extensions>
<gpxtpx:TrackPointExtension>
<gpxtpx:hr>118</gpxtpx:hr>
<gpxtpx:atemp>8</gpxtpx:atemp>
</gpxtpx:TrackPointExtension>
</extensions>
</trkpt>
<trkpt lat="47.7349275816232" lon="12.157744439318776">
<ele>477</ele>
<time>2012-03-03T11:46:04Z</time>
<extensions>
<gpxtpx:TrackPointExtension>
<gpxtpx:hr>122</gpxtpx:hr>
<gpxtpx:atemp>8</gpxtpx:atemp>
</gpxtpx:TrackPointExtension>
</extensions>
</trkpt>
<trkpt lat="47.73495281115174" lon="12.157892631366849">
<ele>477</ele>
<time>2012-03-03T11:46:06Z</time>
<extensions>
<gpxtpx:TrackPointExtension>
<gpxtpx:hr>125</gpxtpx:hr>
<gpxtpx:atemp>8</gpxtpx:atemp>
</gpxtpx:TrackPointExtension>
</extensions>
</trkpt>
<trkpt lat="47.73499622941017" lon="12.158201336860657">
<ele>477</ele>
<time>2012-03-03T11:46:10Z</time>
<extensions>
<gpxtpx:TrackPointExtension>
<gpxtpx:hr>128</gpxtpx:hr>
<gpxtpx:atemp>8</gpxtpx:atemp>
</gpxtpx:TrackPointExtension>
</extensions>
</trkpt>
<trkpt lat="47.735007628798485" lon="12.158282222226262">
<ele>477</ele>
<time>2012-03-03T11:46:11Z</time>
<extensions>
<gpxtpx:TrackPointExtension>
<gpxtpx:hr>128</gpxtpx:hr>
<gpxtpx:atemp>8</gpxtpx:atemp>
</gpxtpx:TrackPointExtension>
</extensions>
</trkpt>
<trkpt lat="47.73506177589297" lon="12.158682541921735">
<ele>477</ele>
<time>2012-03-03T11:46:16Z</time>
<extensions>
<gpxtpx:TrackPointExtension>
<gpxtpx:hr>131</gpxtpx:hr>
<gpxtpx:atemp>8</gpxtpx:atemp>
</gpxtpx:TrackPointExtension>
</extensions>
</trkpt>
<trkpt lat="47.73510066792369" lon="12.158919414505363">
<ele>477</ele>
<time>2012-03-03T11:46:19Z</time>
<extensions>
<gpxtpx:TrackPointExtension>
<gpxtpx:hr>133</gpxtpx:hr>
<gpxtpx:atemp>8</gpxtpx:atemp>
</gpxtpx:TrackPointExtension>
</extensions>
</trkpt>
<trkpt lat="47.73513687774539" lon="12.159165926277637">
<ele>477</ele>
<time>2012-03-03T11:46:22Z</time>
<extensions>
<gpxtpx:TrackPointExtension>
<gpxtpx:hr>135</gpxtpx:hr>
<gpxtpx:atemp>8</gpxtpx:atemp>
</gpxtpx:TrackPointExtension>
</extensions>
</trkpt>
<trkpt lat="47.735145930200815" lon="12.159243207424879">
<ele>478</ele>
<time>2012-03-03T11:46:23Z</time>
<extensions>
<gpxtpx:TrackPointExtension>
<gpxtpx:hr>135</gpxtpx:hr>
<gpxtpx:atemp>8</gpxtpx:atemp>
</gpxtpx:TrackPointExtension>
</extensions>
</trkpt>
<trkpt lat="47.735152300447226" lon="12.159319566562772">
<ele>478</ele>
<time>2012-03-03T11:46:24Z</time>
<extensions>
<gpxtpx:TrackPointExtension>
<gpxtpx:hr>136</gpxtpx:hr>
<gpxtpx:atemp>8</gpxtpx:atemp>
</gpxtpx:TrackPointExtension>
</extensions>
</trkpt>
<trkpt lat="47.735161604359746" lon="12.159394333139062">
<ele>479</ele>
<time>2012-03-03T11:46:25Z</time>
<extensions>
<gpxtpx:TrackPointExtension>
<gpxtpx:hr>136</gpxtpx:hr>
<gpxtpx:atemp>8</gpxtpx:atemp>
</gpxtpx:TrackPointExtension>
</extensions>
</trkpt>
<trkpt lat="47.73517241701484" lon="12.159466920420527">
<ele>479</ele>
<time>2012-03-03T11:46:26Z</time>
<extensions>
<gpxtpx:TrackPointExtension>
<gpxtpx:hr>137</gpxtpx:hr>
<gpxtpx:atemp>8</gpxtpx:atemp>
</gpxtpx:TrackPointExtension>
</extensions>
</trkpt>
<trkpt lat="47.73518431931734" lon="12.15953791514039">
<ele>479</ele>
<time>2012-03-03T11:46:27Z</time>
<extensions>
<gpxtpx:TrackPointExtension>
<gpxtpx:hr>137</gpxtpx:hr>
<gpxtpx:atemp>8</gpxtpx:atemp>
</gpxtpx:TrackPointExtension>
</extensions>
</trkpt>
<trkpt lat="47.73525841534138" lon="12.16001819819212">
<ele>479</ele>
<time>2012-03-03T11:46:35Z</time>
<extensions>
<gpxtpx:TrackPointExtension>
<gpxtpx:hr>137</gpxtpx:hr>
<gpxtpx:atemp>8</gpxtpx:atemp>
</gpxtpx:TrackPointExtension>
</extensions>
</trkpt>
<trkpt lat="47.7352555654943" lon="12.160061448812485">
<ele>479</ele>
<time>2012-03-03T11:46:36Z</time>
<extensions>
<gpxtpx:TrackPointExtension>
<gpxtpx:hr>137</gpxtpx:hr>
<gpxtpx:atemp>8</gpxtpx:atemp>
</gpxtpx:TrackPointExtension>
</extensions>
</trkpt>
<trkpt lat="47.73524248972535" lon="12.16010126285255">
<ele>479</ele>
<time>2012-03-03T11:46:37Z</time>
<extensions>
<gpxtpx:TrackPointExtension>
<gpxtpx:hr>137</gpxtpx:hr>
<gpxtpx:atemp>8</gpxtpx:atemp>
</gpxtpx:TrackPointExtension>
</extensions>
</trkpt>
<trkpt lat="47.735172333195806" lon="12.160166054964066">
<ele>479</ele>
<time>2012-03-03T11:46:39Z</time>
<extensions>
<gpxtpx:TrackPointExtension>
<gpxtpx:hr>137</gpxtpx:hr>
<gpxtpx:atemp>8</gpxtpx:atemp>
</gpxtpx:TrackPointExtension>
</extensions>
</trkpt>
<trkpt lat="47.73500201292336" lon="12.160183740779757">
<ele>479</ele>
<time>2012-03-03T11:46:42Z</time>
<extensions>
<gpxtpx:TrackPointExtension>
<gpxtpx:hr>138</gpxtpx:hr>
<gpxtpx:atemp>8</gpxtpx:atemp>
</gpxtpx:TrackPointExtension>
</extensions>
</trkpt>
<trkpt lat="47.73494526743889" lon="12.160191116854548">
<ele>479</ele>
<time>2012-03-03T11:46:43Z</time>
<extensions>
<gpxtpx:TrackPointExtension>
<gpxtpx:hr>138</gpxtpx:hr>
<gpxtpx:atemp>8</gpxtpx:atemp>
</gpxtpx:TrackPointExtension>
</extensions>
</trkpt>
<trkpt lat="47.73464050143957" lon="12.160233445465565">
<ele>479</ele>
<time>2012-03-03T11:46:48Z</time>
<extensions>
<gpxtpx:TrackPointExtension>
<gpxtpx:hr>141</gpxtpx:hr>
<gpxtpx:atemp>8</gpxtpx:atemp>
</gpxtpx:TrackPointExtension>
</extensions>
</trkpt>
<trkpt lat="47.734391475096345" lon="12.160268146544695">
<ele>479</ele>
<time>2012-03-03T11:46:52Z</time>
<extensions>
<gpxtpx:TrackPointExtension>
<gpxtpx:hr>143</gpxtpx:hr>
<gpxtpx:atemp>8</gpxtpx:atemp>
</gpxtpx:TrackPointExtension>
</extensions>
</trkpt>
<trkpt lat="47.73395838215947" lon="12.160337883979082">
<ele>479</ele>
<time>2012-03-03T11:46:59Z</time>
<extensions>
<gpxtpx:TrackPointExtension>
<gpxtpx:hr>143</gpxtpx:hr>
<gpxtpx:atemp>8</gpxtpx:atemp>
</gpxtpx:TrackPointExtension>
</extensions>
</trkpt>
<trkpt lat="47.733406936749816" lon="12.160446178168058">
<ele>479</ele>
<time>2012-03-03T11:47:08Z</time>
<extensions>
<gpxtpx:TrackPointExtension>
<gpxtpx:hr>142</gpxtpx:hr>
<gpxtpx:atemp>8</gpxtpx:atemp>
</gpxtpx:TrackPointExtension>
</extensions>
</trkpt>
<trkpt lat="47.73334549739957" lon="12.160455817356706">
<ele>479</ele>
<time>2012-03-03T11:47:09Z</time>
<extensions>
<gpxtpx:TrackPointExtension>
<gpxtpx:hr>141</gpxtpx:hr>
<gpxtpx:atemp>8</gpxtpx:atemp>
</gpxtpx:TrackPointExtension>
</extensions>
</trkpt>
<trkpt lat="47.73300368338823" lon="12.160545587539673">
<ele>479</ele>
<time>2012-03-03T11:47:15Z</time>
<extensions>
<gpxtpx:TrackPointExtension>
<gpxtpx:hr>139</gpxtpx:hr>
<gpxtpx:atemp>8</gpxtpx:atemp>
</gpxtpx:TrackPointExtension>
</extensions>
</trkpt>
<trkpt lat="47.73283311165869" lon="12.160594034940004">
<ele>480</ele>
<time>2012-03-03T11:47:18Z</time>
<extensions>
<gpxtpx:TrackPointExtension>
<gpxtpx:hr>140</gpxtpx:hr>
<gpxtpx:atemp>9</gpxtpx:atemp>
</gpxtpx:TrackPointExtension>
</extensions>
</trkpt>
<trkpt lat="47.73277435451746" lon="12.160612223669887">
<ele>480</ele>
<time>2012-03-03T11:47:19Z</time>
<extensions>
<gpxtpx:TrackPointExtension>
<gpxtpx:hr>141</gpxtpx:hr>
<gpxtpx:atemp>9</gpxtpx:atemp>
</gpxtpx:TrackPointExtension>
</extensions>
</trkpt>
<trkpt lat="47.73271853104234" lon="12.160629238933325">
<ele>480</ele>
<time>2012-03-03T11:47:20Z</time>
<extensions>
<gpxtpx:TrackPointExtension>
<gpxtpx:hr>141</gpxtpx:hr>
<gpxtpx:atemp>9</gpxtpx:atemp>
</gpxtpx:TrackPointExtension>
</extensions>
</trkpt>
<trkpt lat="47.7326650545001" lon="12.160646840929985">
<ele>481</ele>
<time>2012-03-03T11:47:21Z</time>
<extensions>
<gpxtpx:TrackPointExtension>
<gpxtpx:hr>141</gpxtpx:hr>
<gpxtpx:atemp>9</gpxtpx:atemp>
</gpxtpx:TrackPointExtension>
</extensions>
</trkpt>
<trkpt lat="47.73261493071914" lon="12.160667544230819">
<ele>481</ele>
<time>2012-03-03T11:47:22Z</time>
<extensions>
<gpxtpx:TrackPointExtension>
<gpxtpx:hr>141</gpxtpx:hr>
<gpxtpx:atemp>9</gpxtpx:atemp>
</gpxtpx:TrackPointExtension>
</extensions>
</trkpt>
<trkpt lat="47.7322699315846" lon="12.160781873390079">
<ele>481</ele>
<time>2012-03-03T11:47:28Z</time>
<extensions>
<gpxtpx:TrackPointExtension>
<gpxtpx:hr>140</gpxtpx:hr>
<gpxtpx:atemp>9</gpxtpx:atemp>
</gpxtpx:TrackPointExtension>
</extensions>
</trkpt>
<trkpt lat="47.731739189475775" lon="12.160959485918283">
<ele>481</ele>
<time>2012-03-03T11:47:37Z</time>
<extensions>
<gpxtpx:TrackPointExtension>
<gpxtpx:hr>142</gpxtpx:hr>
<gpxtpx:atemp>9</gpxtpx:atemp>
</gpxtpx:TrackPointExtension>
</extensions>
</trkpt>
<trkpt lat="47.731681102886796" lon="12.16098035685718">
<ele>481</ele>
<time>2012-03-03T11:47:38Z</time>
<extensions>
<gpxtpx:TrackPointExtension>
<gpxtpx:hr>142</gpxtpx:hr>
<gpxtpx:atemp>9</gpxtpx:atemp>
</gpxtpx:TrackPointExtension>
</extensions>
</trkpt>
<trkpt lat="47.731181206181645" lon="12.161135002970695">
<ele>481</ele>
<time>2012-03-03T11:47:46Z</time>
<extensions>
<gpxtpx:TrackPointExtension>
<gpxtpx:hr>140</gpxtpx:hr>
<gpxtpx:atemp>9</gpxtpx:atemp>
</gpxtpx:TrackPointExtension>
</extensions>
</trkpt>
<trkpt lat="47.73076361976564" lon="12.161255702376366">
<ele>481</ele>
<time>2012-03-03T11:47:53Z</time>
<extensions>
<gpxtpx:TrackPointExtension>
<gpxtpx:hr>139</gpxtpx:hr>
<gpxtpx:atemp>9</gpxtpx:atemp>
</gpxtpx:TrackPointExtension>
</extensions>
</trkpt>
<trkpt lat="47.730444353073835" lon="12.161315297707915">
<ele>482</ele>
<time>2012-03-03T11:47:59Z</time>
<extensions>
<gpxtpx:TrackPointExtension>
<gpxtpx:hr>136</gpxtpx:hr>
<gpxtpx:atemp>9</gpxtpx:atemp>
</gpxtpx:TrackPointExtension>
</extensions>
</trkpt>
<trkpt lat="47.730392972007394" lon="12.161323176696897">
<ele>482</ele>
<time>2012-03-03T11:48:00Z</time>
<extensions>
<gpxtpx:TrackPointExtension>
<gpxtpx:hr>136</gpxtpx:hr>
<gpxtpx:atemp>9</gpxtpx:atemp>
</gpxtpx:TrackPointExtension>
</extensions>
</trkpt>
<trkpt lat="47.73034259676933" lon="12.16133214533329">
<ele>482</ele>
<time>2012-03-03T11:48:01Z</time>
<extensions>
<gpxtpx:TrackPointExtension>
<gpxtpx:hr>137</gpxtpx:hr>
<gpxtpx:atemp>9</gpxtpx:atemp>
</gpxtpx:TrackPointExtension>
</extensions>
</trkpt>
<trkpt lat="47.7302925568074" lon="12.161346059292555">
<ele>483</ele>
<time>2012-03-03T11:48:02Z</time>
<extensions>
<gpxtpx:TrackPointExtension>
<gpxtpx:hr>136</gpxtpx:hr>
<gpxtpx:atemp>9</gpxtpx:atemp>
</gpxtpx:TrackPointExtension>
</extensions>
</trkpt>
<trkpt lat="47.730245450511575" lon="12.16135703958571">
<ele>483</ele>
<time>2012-03-03T11:48:03Z</time>
<extensions>
<gpxtpx:TrackPointExtension>
<gpxtpx:hr>136</gpxtpx:hr>
<gpxtpx:atemp>9</gpxtpx:atemp>
</gpxtpx:TrackPointExtension>
</extensions>
</trkpt>
<trkpt lat="47.73019700311124" lon="12.161358129233122">
<ele>483</ele>
<time>2012-03-03T11:48:04Z</time>
<extensions>
<gpxtpx:TrackPointExtension>
<gpxtpx:hr>136</gpxtpx:hr>
<gpxtpx:atemp>9</gpxtpx:atemp>
</gpxtpx:TrackPointExtension>
</extensions>
</trkpt>
<trkpt lat="47.73014947772026" lon="12.161338767036796">
<ele>483</ele>
<time>2012-03-03T11:48:05Z</time>
<extensions>
<gpxtpx:TrackPointExtension>
<gpxtpx:hr>136</gpxtpx:hr>
<gpxtpx:atemp>9</gpxtpx:atemp>
</gpxtpx:TrackPointExtension>
</extensions>
</trkpt>
<trkpt lat="47.73000933229923" lon="12.161209601908922">
<ele>483</ele>
<time>2012-03-03T11:48:08Z</time>
<extensions>
<gpxtpx:TrackPointExtension>
<gpxtpx:hr>138</gpxtpx:hr>
<gpxtpx:atemp>9</gpxtpx:atemp>
</gpxtpx:TrackPointExtension>
</extensions>
</trkpt>
<trkpt lat="47.72983607836068" lon="12.161171967163682">
<ele>483</ele>
<time>2012-03-03T11:48:11Z</time>
<extensions>
<gpxtpx:TrackPointExtension>
<gpxtpx:hr>139</gpxtpx:hr>
<gpxtpx:atemp>9</gpxtpx:atemp>
</gpxtpx:TrackPointExtension>
</extensions>
</trkpt>
<trkpt lat="47.72972292266786" lon="12.161115473136306">
<ele>483</ele>
<time>2012-03-03T11:48:13Z</time>
<extensions>
<gpxtpx:TrackPointExtension>
<gpxtpx:hr>139</gpxtpx:hr>
<gpxtpx:atemp>9</gpxtpx:atemp>
</gpxtpx:TrackPointExtension>
</extensions>
</trkpt>
<trkpt lat="47.729555452242494" lon="12.161016650497913">
<ele>483</ele>
<time>2012-03-03T11:48:16Z</time>
<extensions>
<gpxtpx:TrackPointExtension>
<gpxtpx:hr>140</gpxtpx:hr>
<gpxtpx:atemp>9</gpxtpx:atemp>
</gpxtpx:TrackPointExtension>
</extensions>
</trkpt>
<trkpt lat="47.729381611570716" lon="12.160939536988735">
<ele>484</ele>
<time>2012-03-03T11:48:19Z</time>
<extensions>
<gpxtpx:TrackPointExtension>
<gpxtpx:hr>142</gpxtpx:hr>
<gpxtpx:atemp>9</gpxtpx:atemp>
</gpxtpx:TrackPointExtension>
</extensions>
</trkpt>
<trkpt lat="47.72932469844818" lon="12.16091439127922">
<ele>484</ele>
<time>2012-03-03T11:48:20Z</time>
<extensions>
<gpxtpx:TrackPointExtension>
<gpxtpx:hr>142</gpxtpx:hr>
<gpxtpx:atemp>9</gpxtpx:atemp>
</gpxtpx:TrackPointExtension>
</extensions>
</trkpt>
<trkpt lat="47.72926652804017" lon="12.160890167579055">
<ele>485</ele>
<time>2012-03-03T11:48:21Z</time>
<extensions>
<gpxtpx:TrackPointExtension>
<gpxtpx:hr>142</gpxtpx:hr>
<gpxtpx:atemp>9</gpxtpx:atemp>
</gpxtpx:TrackPointExtension>
</extensions>
</trkpt>
<trkpt lat="47.729209112003446" lon="12.160872146487236">
<ele>485</ele>
<time>2012-03-03T11:48:22Z</time>
<extensions>
<gpxtpx:TrackPointExtension>
<gpxtpx:hr>142</gpxtpx:hr>
<gpxtpx:atemp>9</gpxtpx:atemp>
</gpxtpx:TrackPointExtension>
</extensions>
</trkpt>
<trkpt lat="47.72914867848158" lon="12.160850269719958">
<ele>485</ele>
<time>2012-03-03T11:48:23Z</time>
<extensions>
<gpxtpx:TrackPointExtension>
<gpxtpx:hr>142</gpxtpx:hr>
<gpxtpx:atemp>9</gpxtpx:atemp>
</gpxtpx:TrackPointExtension>
</extensions>
</trkpt>
<trkpt lat="47.72909109480679" lon="12.16082789003849">
<ele>485</ele>
<time>2012-03-03T11:48:24Z</time>
<extensions>
<gpxtpx:TrackPointExtension>
<gpxtpx:hr>142</gpxtpx:hr>
<gpxtpx:atemp>9</gpxtpx:atemp>
</gpxtpx:TrackPointExtension>
</extensions>
</trkpt>
<trkpt lat="47.728932090103626" lon="12.160750105977058">
<ele>485</ele>
<time>2012-03-03T11:48:27Z</time>
<extensions>
<gpxtpx:TrackPointExtension>
<gpxtpx:hr>141</gpxtpx:hr>
<gpxtpx:atemp>9</gpxtpx:atemp>
</gpxtpx:TrackPointExtension>
</extensions>
</trkpt>
<trkpt lat="47.7288524620235" lon="12.160627730190754">
<ele>485</ele>
<time>2012-03-03T11:48:29Z</time>
<extensions>
<gpxtpx:TrackPointExtension>
<gpxtpx:hr>140</gpxtpx:hr>
<gpxtpx:atemp>9</gpxtpx:atemp>
</gpxtpx:TrackPointExtension>
</extensions>
</trkpt>
<trkpt lat="47.72880946286023" lon="12.160446010529995">
<ele>485</ele>
<time>2012-03-03T11:48:31Z</time>
<extensions>
<gpxtpx:TrackPointExtension>
<gpxtpx:hr>138</gpxtpx:hr>
<gpxtpx:atemp>9</gpxtpx:atemp>
</gpxtpx:TrackPointExtension>
</extensions>
</trkpt>
<trkpt lat="47.728784903883934" lon="12.160373590886593">
<ele>485</ele>
<time>2012-03-03T11:48:32Z</time>
<extensions>
<gpxtpx:TrackPointExtension>
<gpxtpx:hr>138</gpxtpx:hr>
<gpxtpx:atemp>9</gpxtpx:atemp>
</gpxtpx:TrackPointExtension>
</extensions>
</trkpt>
<trkpt lat="47.72865724749863" lon="12.160232523456216">
<ele>485</ele>
<time>2012-03-03T11:48:35Z</time>
<extensions>
<gpxtpx:TrackPointExtension>
<gpxtpx:hr>137</gpxtpx:hr>
<gpxtpx:atemp>9</gpxtpx:atemp>
</gpxtpx:TrackPointExtension>
</extensions>
</trkpt>
<trkpt lat="47.728615924715996" lon="12.160187177360058">
<ele>484</ele>
<time>2012-03-03T11:48:36Z</time>
<extensions>
<gpxtpx:TrackPointExtension>
<gpxtpx:hr>137</gpxtpx:hr>
<gpxtpx:atemp>9</gpxtpx:atemp>
</gpxtpx:TrackPointExtension>
</extensions>
</trkpt>
<trkpt lat="47.72858348675072" lon="12.160146106034517">
<ele>484</ele>
<time>2012-03-03T11:48:37Z</time>
<extensions>
<gpxtpx:TrackPointExtension>
<gpxtpx:hr>136</gpxtpx:hr>
<gpxtpx:atemp>9</gpxtpx:atemp>
</gpxtpx:TrackPointExtension>
</extensions>
</trkpt>
<trkpt lat="47.72855322808027" lon="12.160110399127007">
<ele>484</ele>
<time>2012-03-03T11:48:38Z</time>
<extensions>
<gpxtpx:TrackPointExtension>
<gpxtpx:hr>135</gpxtpx:hr>
<gpxtpx:atemp>9</gpxtpx:atemp>
</gpxtpx:TrackPointExtension>
</extensions>
</trkpt>
<trkpt lat="47.72852037101984" lon="12.160067148506641">
<ele>483</ele>
<time>2012-03-03T11:48:39Z</time>
<extensions>
<gpxtpx:TrackPointExtension>
<gpxtpx:hr>134</gpxtpx:hr>
<gpxtpx:atemp>9</gpxtpx:atemp>
</gpxtpx:TrackPointExtension>
</extensions>
</trkpt>
<trkpt lat="47.72843931801617" lon="12.159985760226846">
<ele>483</ele>
<time>2012-03-03T11:48:41Z</time>
<extensions>
<gpxtpx:TrackPointExtension>
<gpxtpx:hr>134</gpxtpx:hr>
<gpxtpx:atemp>9</gpxtpx:atemp>
</gpxtpx:TrackPointExtension>
</extensions>
</trkpt>
<trkpt lat="47.728309566155076" lon="12.15986824594438">
<ele>483</ele>
<time>2012-03-03T11:48:44Z</time>
<extensions>
<gpxtpx:TrackPointExtension>
<gpxtpx:hr>135</gpxtpx:hr>
<gpxtpx:atemp>9</gpxtpx:atemp>
</gpxtpx:TrackPointExtension>
</extensions>
</trkpt>
<trkpt lat="47.72827620618045" lon="12.159819044172764">
<ele>483</ele>
<time>2012-03-03T11:48:45Z</time>
<extensions>
<gpxtpx:TrackPointExtension>
<gpxtpx:hr>135</gpxtpx:hr>
<gpxtpx:atemp>9</gpxtpx:atemp>
</gpxtpx:TrackPointExtension>
</extensions>
</trkpt>
<trkpt lat="47.728230860084295" lon="12.159676887094975">
<ele>483</ele>
<time>2012-03-03T11:48:47Z</time>
<extensions>
<gpxtpx:TrackPointExtension>
<gpxtpx:hr>136</gpxtpx:hr>
<gpxtpx:atemp>9</gpxtpx:atemp>
</gpxtpx:TrackPointExtension>
</extensions>
</trkpt>
<trkpt lat="47.728203954175115" lon="12.159464322030544">
<ele>483</ele>
<time>2012-03-03T11:48:50Z</time>
<extensions>
<gpxtpx:TrackPointExtension>
<gpxtpx:hr>134</gpxtpx:hr>
<gpxtpx:atemp>9</gpxtpx:atemp>
</gpxtpx:TrackPointExtension>
</extensions>
</trkpt>
<trkpt lat="47.72820680402219" lon="12.159394836053252">
<ele>482</ele>
<time>2012-03-03T11:48:51Z</time>
<extensions>
<gpxtpx:TrackPointExtension>
<gpxtpx:hr>131</gpxtpx:hr>
<gpxtpx:atemp>9</gpxtpx:atemp>
</gpxtpx:TrackPointExtension>
</extensions>
</trkpt>
<trkpt lat="47.72821979597211" lon="12.159324176609516">
<ele>482</ele>
<time>2012-03-03T11:48:52Z</time>
<extensions>
<gpxtpx:TrackPointExtension>
<gpxtpx:hr>128</gpxtpx:hr>
<gpxtpx:atemp>9</gpxtpx:atemp>
</gpxtpx:TrackPointExtension>
</extensions>
</trkpt>
<trkpt lat="47.728228848427534" lon="12.159247482195497">
<ele>481</ele>
<time>2012-03-03T11:48:53Z</time>
<extensions>
<gpxtpx:TrackPointExtension>
<gpxtpx:hr>126</gpxtpx:hr>
<gpxtpx:atemp>9</gpxtpx:atemp>
</gpxtpx:TrackPointExtension>
</extensions>
</trkpt>
<trkpt lat="47.72823756560683" lon="12.159169698134065">
<ele>481</ele>
<time>2012-03-03T11:48:54Z</time>
<extensions>
<gpxtpx:TrackPointExtension>
<gpxtpx:hr>125</gpxtpx:hr>
<gpxtpx:atemp>9</gpxtpx:atemp>
</gpxtpx:TrackPointExtension>
</extensions>
</trkpt>
<trkpt lat="47.72824385203421" lon="12.159088309854269">
<ele>480</ele>
<time>2012-03-03T11:48:55Z</time>
<extensions>
<gpxtpx:TrackPointExtension>
<gpxtpx:hr>124</gpxtpx:hr>
<gpxtpx:atemp>9</gpxtpx:atemp>
</gpxtpx:TrackPointExtension>
</extensions>
</trkpt>
<trkpt lat="47.72824175655842" lon="12.159014213830233">
<ele>479</ele>
<time>2012-03-03T11:48:56Z</time>
<extensions>
<gpxtpx:TrackPointExtension>
<gpxtpx:hr>124</gpxtpx:hr>
<gpxtpx:atemp>9</gpxtpx:atemp>
</gpxtpx:TrackPointExtension>
</extensions>
</trkpt>
<trkpt lat="47.7282237354666" lon="12.158945398405194">
<ele>478</ele>
<time>2012-03-03T11:48:57Z</time>
<extensions>
<gpxtpx:TrackPointExtension>
<gpxtpx:hr>124</gpxtpx:hr>
<gpxtpx:atemp>9</gpxtpx:atemp>
</gpxtpx:TrackPointExtension>
</extensions>
</trkpt>
<trkpt lat="47.728196578100324" lon="12.15887532569468">
<ele>478</ele>
<time>2012-03-03T11:48:58Z</time>
<extensions>
<gpxtpx:TrackPointExtension>
<gpxtpx:hr>123</gpxtpx:hr>
<gpxtpx:atemp>9</gpxtpx:atemp>
</gpxtpx:TrackPointExtension>
</extensions>
</trkpt>
<trkpt lat="47.72815743461251" lon="12.158811874687672">
<ele>477</ele>
<time>2012-03-03T11:48:59Z</time>
<extensions>
<gpxtpx:TrackPointExtension>
<gpxtpx:hr>122</gpxtpx:hr>
<gpxtpx:atemp>9</gpxtpx:atemp>
</gpxtpx:TrackPointExtension>
</extensions>
</trkpt>
<trkpt lat="47.728100856766105" lon="12.158750854432583">
<ele>476</ele>
<time>2012-03-03T11:49:00Z</time>
<extensions>
<gpxtpx:TrackPointExtension>
<gpxtpx:hr>122</gpxtpx:hr>
<gpxtpx:atemp>9</gpxtpx:atemp>
</gpxtpx:TrackPointExtension>
</extensions>
</trkpt>
<trkpt lat="47.728032041341066" lon="12.15868723578751">
<ele>475</ele>
<time>2012-03-03T11:49:01Z</time>
<extensions>
<gpxtpx:TrackPointExtension>
<gpxtpx:hr>120</gpxtpx:hr>
<gpxtpx:atemp>9</gpxtpx:atemp>
</gpxtpx:TrackPointExtension>
</extensions>
</trkpt>
<trkpt lat="47.7279612980783" lon="12.158620851114392">
<ele>474</ele>
<time>2012-03-03T11:49:02Z</time>
<extensions>
<gpxtpx:TrackPointExtension>
<gpxtpx:hr>119</gpxtpx:hr>
<gpxtpx:atemp>9</gpxtpx:atemp>
</gpxtpx:TrackPointExtension>
</extensions>
</trkpt>
<trkpt lat="47.72788904607296" lon="12.158556897193193">
<ele>473</ele>
<time>2012-03-03T11:49:03Z</time>
<extensions>
<gpxtpx:TrackPointExtension>
<gpxtpx:hr>118</gpxtpx:hr>
<gpxtpx:atemp>9</gpxtpx:atemp>
</gpxtpx:TrackPointExtension>
</extensions>
</trkpt>
<trkpt lat="47.72781872190535" lon="12.15850199572742">
<ele>472</ele>
<time>2012-03-03T11:49:04Z</time>
<extensions>
<gpxtpx:TrackPointExtension>
<gpxtpx:hr>117</gpxtpx:hr>
<gpxtpx:atemp>9</gpxtpx:atemp>
</gpxtpx:TrackPointExtension>
</extensions>
</trkpt>
<trkpt lat="47.72773750126362" lon="12.158437455072999">
<ele>471</ele>
<time>2012-03-03T11:49:05Z</time>
<extensions>
<gpxtpx:TrackPointExtension>
<gpxtpx:hr>117</gpxtpx:hr>
<gpxtpx:atemp>9</gpxtpx:atemp>
</gpxtpx:TrackPointExtension>
</extensions>
</trkpt>
<trkpt lat="47.72766130976379" lon="12.15836956165731">
<ele>470</ele>
<time>2012-03-03T11:49:06Z</time>
<extensions>
<gpxtpx:TrackPointExtension>
<gpxtpx:hr>117</gpxtpx:hr>
<gpxtpx:atemp>9</gpxtpx:atemp>
</gpxtpx:TrackPointExtension>
</extensions>
</trkpt>
<trkpt lat="47.72760062478483" lon="12.158303931355476">
<ele>469</ele>
<time>2012-03-03T11:49:07Z</time>
<extensions>
<gpxtpx:TrackPointExtension>
<gpxtpx:hr>117</gpxtpx:hr>
<gpxtpx:atemp>9</gpxtpx:atemp>
</gpxtpx:TrackPointExtension>
</extensions>
</trkpt>
<trkpt lat="47.7275500819087" lon="12.158241989091039">
<ele>468</ele>
<time>2012-03-03T11:49:08Z</time>
<extensions>
<gpxtpx:TrackPointExtension>
<gpxtpx:hr>117</gpxtpx:hr>
<gpxtpx:atemp>9</gpxtpx:atemp>
</gpxtpx:TrackPointExtension>
</extensions>
</trkpt>
<trkpt lat="47.72750490345061" lon="12.158172251656651">
<ele>467</ele>
<time>2012-03-03T11:49:09Z</time>
<extensions>
<gpxtpx:TrackPointExtension>
<gpxtpx:hr>117</gpxtpx:hr>
<gpxtpx:atemp>9</gpxtpx:atemp>
</gpxtpx:TrackPointExtension>
</extensions>
</trkpt>
<trkpt lat="47.72747850045562" lon="12.158093294128776">
<ele>466</ele>
<time>2012-03-03T11:49:10Z</time>
<extensions>
<gpxtpx:TrackPointExtension>
<gpxtpx:hr>117</gpxtpx:hr>
<gpxtpx:atemp>9</gpxtpx:atemp>
</gpxtpx:TrackPointExtension>
</extensions>
</trkpt>
<trkpt lat="47.72746542468667" lon="12.157992040738463">
<ele>465</ele>
<time>2012-03-03T11:49:11Z</time>
<extensions>
<gpxtpx:TrackPointExtension>
<gpxtpx:hr>117</gpxtpx:hr>
<gpxtpx:atemp>9</gpxtpx:atemp>
</gpxtpx:TrackPointExtension>
</extensions>
</trkpt>
<trkpt lat="47.72746869362891" lon="12.15788978151977">
<ele>464</ele>
<time>2012-03-03T11:49:12Z</time>
<extensions>
<gpxtpx:TrackPointExtension>
<gpxtpx:hr>117</gpxtpx:hr>
<gpxtpx:atemp>9</gpxtpx:atemp>
</gpxtpx:TrackPointExtension>
</extensions>
</trkpt>
<trkpt lat="47.72747556678951" lon="12.157782157883048">
<ele>463</ele>
<time>2012-03-03T11:49:13Z</time>
<extensions>
<gpxtpx:TrackPointExtension>
<gpxtpx:hr>117</gpxtpx:hr>
<gpxtpx:atemp>9</gpxtpx:atemp>
</gpxtpx:TrackPointExtension>
</extensions>
</trkpt>
<trkpt lat="47.72748646326363" lon="12.157674450427294">
<ele>462</ele>
<time>2012-03-03T11:49:14Z</time>
<extensions>
<gpxtpx:TrackPointExtension>
<gpxtpx:hr>117</gpxtpx:hr>
<gpxtpx:atemp>9</gpxtpx:atemp>
</gpxtpx:TrackPointExtension>
</extensions>
</trkpt>
<trkpt lat="47.72749727591872" lon="12.157570514827967">
<ele>461</ele>
<time>2012-03-03T11:49:15Z</time>
<extensions>
<gpxtpx:TrackPointExtension>
<gpxtpx:hr>118</gpxtpx:hr>
<gpxtpx:atemp>9</gpxtpx:atemp>
</gpxtpx:TrackPointExtension>
</extensions>
</trkpt>
<trkpt lat="47.7275051549077" lon="12.157472362741828">
<ele>460</ele>
<time>2012-03-03T11:49:16Z</time>
<extensions>
<gpxtpx:TrackPointExtension>
<gpxtpx:hr>118</gpxtpx:hr>
<gpxtpx:atemp>9</gpxtpx:atemp>
</gpxtpx:TrackPointExtension>
</extensions>
</trkpt>
<trkpt lat="47.72749928757548" lon="12.15738845989108">
<ele>459</ele>
<time>2012-03-03T11:49:17Z</time>
<extensions>
<gpxtpx:TrackPointExtension>
<gpxtpx:hr>119</gpxtpx:hr>
<gpxtpx:atemp>9</gpxtpx:atemp>
</gpxtpx:TrackPointExtension>
</extensions>
</trkpt>
<trkpt lat="47.72748017683625" lon="12.157309418544173">
<ele>459</ele>
<time>2012-03-03T11:49:18Z</time>
<extensions>
<gpxtpx:TrackPointExtension>
<gpxtpx:hr>119</gpxtpx:hr>
<gpxtpx:atemp>9</gpxtpx:atemp>
</gpxtpx:TrackPointExtension>
</extensions>
</trkpt>
<trkpt lat="47.72745234891772" lon="12.157234065234661">
<ele>458</ele>
<time>2012-03-03T11:49:19Z</time>
<extensions>
<gpxtpx:TrackPointExtension>
<gpxtpx:hr>120</gpxtpx:hr>
<gpxtpx:atemp>9</gpxtpx:atemp>
</gpxtpx:TrackPointExtension>
</extensions>
</trkpt>
<trkpt lat="47.72742150351405" lon="12.157152844592929">
<ele>457</ele>
<time>2012-03-03T11:49:20Z</time>
<extensions>
<gpxtpx:TrackPointExtension>
<gpxtpx:hr>122</gpxtpx:hr>
<gpxtpx:atemp>9</gpxtpx:atemp>
</gpxtpx:TrackPointExtension>
</extensions>
</trkpt>
<trkpt lat="47.72738906554878" lon="12.15707371942699">
<ele>457</ele>
<time>2012-03-03T11:49:21Z</time>
<extensions>
<gpxtpx:TrackPointExtension>
<gpxtpx:hr>123</gpxtpx:hr>
<gpxtpx:atemp>9</gpxtpx:atemp>
</gpxtpx:TrackPointExtension>
</extensions>
</trkpt>
<trkpt lat="47.7273587230593" lon="12.156996103003621">
<ele>456</ele>
<time>2012-03-03T11:49:22Z</time>
<extensions>
<gpxtpx:TrackPointExtension>
<gpxtpx:hr>123</gpxtpx:hr>
<gpxtpx:atemp>9</gpxtpx:atemp>
</gpxtpx:TrackPointExtension>
</extensions>
</trkpt>
<trkpt lat="47.727328380569816" lon="12.15692033059895">
<ele>456</ele>
<time>2012-03-03T11:49:23Z</time>
<extensions>
<gpxtpx:TrackPointExtension>
<gpxtpx:hr>123</gpxtpx:hr>
<gpxtpx:atemp>9</gpxtpx:atemp>
</gpxtpx:TrackPointExtension>
</extensions>
</trkpt>
<trkpt lat="47.72729837335646" lon="12.156844809651375">
<ele>455</ele>
<time>2012-03-03T11:49:24Z</time>
<extensions>
<gpxtpx:TrackPointExtension>
<gpxtpx:hr>122</gpxtpx:hr>
<gpxtpx:atemp>9</gpxtpx:atemp>
</gpxtpx:TrackPointExtension>
</extensions>
</trkpt>
<trkpt lat="47.7272738981992" lon="12.156774317845702">
<ele>455</ele>
<time>2012-03-03T11:49:25Z</time>
<extensions>
<gpxtpx:TrackPointExtension>
<gpxtpx:hr>122</gpxtpx:hr>
<gpxtpx:atemp>9</gpxtpx:atemp>
</gpxtpx:TrackPointExtension>
</extensions>
</trkpt>
<trkpt lat="47.727128975093365" lon="12.156366286799312">
<ele>455</ele>
<time>2012-03-03T11:49:31Z</time>
<extensions>
<gpxtpx:TrackPointExtension>
<gpxtpx:hr>123</gpxtpx:hr>
<gpxtpx:atemp>9</gpxtpx:atemp>
</gpxtpx:TrackPointExtension>
</extensions>
</trkpt>
<trkpt lat="47.72697927430272" lon="12.155958423390985">
<ele>455</ele>
<time>2012-03-03T11:49:38Z</time>
<extensions>
<gpxtpx:TrackPointExtension>
<gpxtpx:hr>121</gpxtpx:hr>
<gpxtpx:atemp>9</gpxtpx:atemp>
</gpxtpx:TrackPointExtension>
</extensions>
</trkpt>
<trkpt lat="47.72698111832142" lon="12.15590444393456">
<ele>455</ele>
<time>2012-03-03T11:49:39Z</time>
<extensions>
<gpxtpx:TrackPointExtension>
<gpxtpx:hr>121</gpxtpx:hr>
<gpxtpx:atemp>9</gpxtpx:atemp>
</gpxtpx:TrackPointExtension>
</extensions>
</trkpt>
<trkpt lat="47.72704130038619" lon="12.155845100060105">
<ele>455</ele>
<time>2012-03-03T11:49:41Z</time>
<extensions>
<gpxtpx:TrackPointExtension>
<gpxtpx:hr>121</gpxtpx:hr>
<gpxtpx:atemp>9</gpxtpx:atemp>
</gpxtpx:TrackPointExtension>
</extensions>
</trkpt>
<trkpt lat="47.7271375246346" lon="12.15582774952054">
<ele>455</ele>
<time>2012-03-03T11:49:43Z</time>
<extensions>
<gpxtpx:TrackPointExtension>
<gpxtpx:hr>124</gpxtpx:hr>
<gpxtpx:atemp>9</gpxtpx:atemp>
</gpxtpx:TrackPointExtension>
</extensions>
</trkpt>
<trkpt lat="47.7271927613765" lon="12.155809393152595">
<ele>455</ele>
<time>2012-03-03T11:49:44Z</time>
<extensions>
<gpxtpx:TrackPointExtension>
<gpxtpx:hr>125</gpxtpx:hr>
<gpxtpx:atemp>9</gpxtpx:atemp>
</gpxtpx:TrackPointExtension>
</extensions>
</trkpt>
<trkpt lat="47.727251686155796" lon="12.155783576890826">
<ele>455</ele>
<time>2012-03-03T11:49:45Z</time>
<extensions>
<gpxtpx:TrackPointExtension>
<gpxtpx:hr>126</gpxtpx:hr>
<gpxtpx:atemp>9</gpxtpx:atemp>
</gpxtpx:TrackPointExtension>
</extensions>
</trkpt>
<trkpt lat="47.72742535918951" lon="12.15572071261704">
<ele>455</ele>
<time>2012-03-03T11:49:48Z</time>
<extensions>
<gpxtpx:TrackPointExtension>
<gpxtpx:hr>129</gpxtpx:hr>
<gpxtpx:atemp>9</gpxtpx:atemp>
</gpxtpx:TrackPointExtension>
</extensions>
</trkpt>
<trkpt lat="47.72753926925361" lon="12.155686179175973">
<ele>455</ele>
<time>2012-03-03T11:49:50Z</time>
<extensions>
<gpxtpx:TrackPointExtension>
<gpxtpx:hr>132</gpxtpx:hr>
<gpxtpx:atemp>9</gpxtpx:atemp>
</gpxtpx:TrackPointExtension>
</extensions>
</trkpt>
<trkpt lat="47.72759794257581" lon="12.155663128942251">
<ele>456</ele>
<time>2012-03-03T11:49:51Z</time>
<extensions>
<gpxtpx:TrackPointExtension>
<gpxtpx:hr>134</gpxtpx:hr>
<gpxtpx:atemp>9</gpxtpx:atemp>
</gpxtpx:TrackPointExtension>
</extensions>
</trkpt>
<trkpt lat="47.72765435278416" lon="12.155636055395007">
<ele>456</ele>
<time>2012-03-03T11:49:52Z</time>
<extensions>
<gpxtpx:TrackPointExtension>
<gpxtpx:hr>134</gpxtpx:hr>
<gpxtpx:atemp>9</gpxtpx:atemp>
</gpxtpx:TrackPointExtension>
</extensions>
</trkpt>
<trkpt lat="47.727703135460615" lon="12.155609065666795">
<ele>457</ele>
<time>2012-03-03T11:49:53Z</time>
<extensions>
<gpxtpx:TrackPointExtension>
<gpxtpx:hr>135</gpxtpx:hr>
<gpxtpx:atemp>9</gpxtpx:atemp>
</gpxtpx:TrackPointExtension>
</extensions>
</trkpt>
<trkpt lat="47.727749487385154" lon="12.15557654388249">
<ele>457</ele>
<time>2012-03-03T11:49:54Z</time>
<extensions>
<gpxtpx:TrackPointExtension>
<gpxtpx:hr>135</gpxtpx:hr>
<gpxtpx:atemp>9</gpxtpx:atemp>
</gpxtpx:TrackPointExtension>
</extensions>
</trkpt>
<trkpt lat="47.727798353880644" lon="12.155534466728568">
<ele>457</ele>
<time>2012-03-03T11:49:55Z</time>
<extensions>
<gpxtpx:TrackPointExtension>
<gpxtpx:hr>135</gpxtpx:hr>
<gpxtpx:atemp>9</gpxtpx:atemp>
</gpxtpx:TrackPointExtension>
</extensions>
</trkpt>
<trkpt lat="47.727883430197835" lon="12.155444948002696">
<ele>457</ele>
<time>2012-03-03T11:49:57Z</time>
<extensions>
<gpxtpx:TrackPointExtension>
<gpxtpx:hr>135</gpxtpx:hr>
<gpxtpx:atemp>9</gpxtpx:atemp>
</gpxtpx:TrackPointExtension>
</extensions>
</trkpt>
<trkpt lat="47.72796146571636" lon="12.155310083180666">
<ele>457</ele>
<time>2012-03-03T11:50:00Z</time>
<extensions>
<gpxtpx:TrackPointExtension>
<gpxtpx:hr>135</gpxtpx:hr>
<gpxtpx:atemp>9</gpxtpx:atemp>
</gpxtpx:TrackPointExtension>
</extensions>
</trkpt>
<trkpt lat="47.72800714708865" lon="12.155209835618734">
<ele>457</ele>
<time>2012-03-03T11:50:04Z</time>
<extensions>
<gpxtpx:TrackPointExtension>
<gpxtpx:hr>135</gpxtpx:hr>
<gpxtpx:atemp>9</gpxtpx:atemp>
</gpxtpx:TrackPointExtension>
</extensions>
</trkpt>
<trkpt lat="47.72800572216511" lon="12.155204974114895">
<ele>456</ele>
<time>2012-03-03T11:50:05Z</time>
<extensions>
<gpxtpx:TrackPointExtension>
<gpxtpx:hr>135</gpxtpx:hr>
<gpxtpx:atemp>9</gpxtpx:atemp>
</gpxtpx:TrackPointExtension>
</extensions>
</trkpt>
<trkpt lat="47.72797403857112" lon="12.155196759849787">
<ele>455</ele>
<time>2012-03-03T11:51:40Z</time>
<extensions>
<gpxtpx:TrackPointExtension>
<gpxtpx:hr>127</gpxtpx:hr>
<gpxtpx:atemp>10</gpxtpx:atemp>
</gpxtpx:TrackPointExtension>
</extensions>
</trkpt>
<trkpt lat="47.727958699688315" lon="12.15521402657032">
<ele>455</ele>
<time>2012-03-03T11:51:41Z</time>
<extensions>
<gpxtpx:TrackPointExtension>
<gpxtpx:hr>127</gpxtpx:hr>
<gpxtpx:atemp>10</gpxtpx:atemp>
</gpxtpx:TrackPointExtension>
</extensions>
</trkpt>
<trkpt lat="47.72796909324825" lon="12.15527362190187">
<ele>455</ele>
<time>2012-03-03T11:51:44Z</time>
<extensions>
<gpxtpx:TrackPointExtension>
<gpxtpx:hr>125</gpxtpx:hr>
<gpxtpx:atemp>10</gpxtpx:atemp>
</gpxtpx:TrackPointExtension>
</extensions>
</trkpt>
<trkpt lat="47.728005135431886" lon="12.155274795368314">
<ele>455</ele>
<time>2012-03-03T11:51:46Z</time>
<extensions>
<gpxtpx:TrackPointExtension>
<gpxtpx:hr>122</gpxtpx:hr>
<gpxtpx:atemp>10</gpxtpx:atemp>
</gpxtpx:TrackPointExtension>
</extensions>
</trkpt>
<trkpt lat="47.72805534303188" lon="12.155239256098866">
<ele>455</ele>
<time>2012-03-03T11:51:48Z</time>
<extensions>
<gpxtpx:TrackPointExtension>
<gpxtpx:hr>120</gpxtpx:hr>
<gpxtpx:atemp>10</gpxtpx:atemp>
</gpxtpx:TrackPointExtension>
</extensions>
</trkpt>
<trkpt lat="47.7280839253217" lon="12.155207907781005">
<ele>455</ele>
<time>2012-03-03T11:51:49Z</time>
<extensions>
<gpxtpx:TrackPointExtension>
<gpxtpx:hr>120</gpxtpx:hr>
<gpxtpx:atemp>10</gpxtpx:atemp>
</gpxtpx:TrackPointExtension>
</extensions>
</trkpt>
<trkpt lat="47.72822775878012" lon="12.155042365193367">
<ele>455</ele>
<time>2012-03-03T11:51:54Z</time>
<extensions>
<gpxtpx:TrackPointExtension>
<gpxtpx:hr>123</gpxtpx:hr>
<gpxtpx:atemp>10</gpxtpx:atemp>
</gpxtpx:TrackPointExtension>
</extensions>
</trkpt>
<trkpt lat="47.728297244757414" lon="12.154990062117577">
<ele>455</ele>
<time>2012-03-03T11:51:59Z</time>
<extensions>
<gpxtpx:TrackPointExtension>
<gpxtpx:hr>125</gpxtpx:hr>
<gpxtpx:atemp>10</gpxtpx:atemp>
</gpxtpx:TrackPointExtension>
</extensions>
</trkpt>
<trkpt lat="47.72827360779047" lon="12.154998192563653">
<ele>455</ele>
<time>2012-03-03T11:52:23Z</time>
<extensions>
<gpxtpx:TrackPointExtension>
<gpxtpx:hr>128</gpxtpx:hr>
<gpxtpx:atemp>10</gpxtpx:atemp>
</gpxtpx:TrackPointExtension>
</extensions>
</trkpt>
<trkpt lat="47.72822616621852" lon="12.155054351314902">
<ele>455</ele>
<time>2012-03-03T11:52:25Z</time>
<extensions>
<gpxtpx:TrackPointExtension>
<gpxtpx:hr>129</gpxtpx:hr>
<gpxtpx:atemp>10</gpxtpx:atemp>
</gpxtpx:TrackPointExtension>
</extensions>
</trkpt>
<trkpt lat="47.72805282846093" lon="12.15524923056364">
<ele>455</ele>
<time>2012-03-03T11:52:30Z</time>
<extensions>
<gpxtpx:TrackPointExtension>
<gpxtpx:hr>131</gpxtpx:hr>
<gpxtpx:atemp>10</gpxtpx:atemp>
</gpxtpx:TrackPointExtension>
</extensions>
</trkpt>
<trkpt lat="47.72797781042755" lon="12.155247554183006">
<ele>455</ele>
<time>2012-03-03T11:52:33Z</time>
<extensions>
<gpxtpx:TrackPointExtension>
<gpxtpx:hr>132</gpxtpx:hr>
<gpxtpx:atemp>10</gpxtpx:atemp>
</gpxtpx:TrackPointExtension>
</extensions>
</trkpt>
<trkpt lat="47.72798711434007" lon="12.155130542814732">
<ele>455</ele>
<time>2012-03-03T11:52:36Z</time>
<extensions>
<gpxtpx:TrackPointExtension>
<gpxtpx:hr>133</gpxtpx:hr>
<gpxtpx:atemp>10</gpxtpx:atemp>
</gpxtpx:TrackPointExtension>
</extensions>
</trkpt>
<trkpt lat="47.728007482364774" lon="12.155048148706555">
<ele>455</ele>
<time>2012-03-03T11:52:38Z</time>
<extensions>
<gpxtpx:TrackPointExtension>
<gpxtpx:hr>132</gpxtpx:hr>
<gpxtpx:atemp>10</gpxtpx:atemp>
</gpxtpx:TrackPointExtension>
</extensions>
</trkpt>
<trkpt lat="47.728033969178796" lon="12.154998192563653">
<ele>455</ele>
<time>2012-03-03T11:52:41Z</time>
<extensions>
<gpxtpx:TrackPointExtension>
<gpxtpx:hr>131</gpxtpx:hr>
<gpxtpx:atemp>10</gpxtpx:atemp>
</gpxtpx:TrackPointExtension>
</extensions>
</trkpt>
<trkpt lat="47.728038746863604" lon="12.154995426535606">
<ele>455</ele>
<time>2012-03-03T11:52:43Z</time>
<extensions>
<gpxtpx:TrackPointExtension>
<gpxtpx:hr>131</gpxtpx:hr>
<gpxtpx:atemp>10</gpxtpx:atemp>
</gpxtpx:TrackPointExtension>
</extensions>
</trkpt>
<trkpt lat="47.728047128766775" lon="12.154942033812404">
<ele>455</ele>
<time>2012-03-03T11:52:52Z</time>
<extensions>
<gpxtpx:TrackPointExtension>
<gpxtpx:hr>137</gpxtpx:hr>
<gpxtpx:atemp>10</gpxtpx:atemp>
</gpxtpx:TrackPointExtension>
</extensions>
</trkpt>
<trkpt lat="47.72804545238614" lon="12.15490230359137">
<ele>455</ele>
<time>2012-03-03T11:52:53Z</time>
<extensions>
<gpxtpx:TrackPointExtension>
<gpxtpx:hr>137</gpxtpx:hr>
<gpxtpx:atemp>10</gpxtpx:atemp>
</gpxtpx:TrackPointExtension>
</extensions>
</trkpt>
<trkpt lat="47.728039249777794" lon="12.154749669134617">
<ele>455</ele>
<time>2012-03-03T11:52:56Z</time>
<extensions>
<gpxtpx:TrackPointExtension>
<gpxtpx:hr>140</gpxtpx:hr>
<gpxtpx:atemp>10</gpxtpx:atemp>
</gpxtpx:TrackPointExtension>
</extensions>
</trkpt>
<trkpt lat="47.72803287953138" lon="12.154711028560996">
<ele>455</ele>
<time>2012-03-03T11:52:57Z</time>
<extensions>
<gpxtpx:TrackPointExtension>
<gpxtpx:hr>140</gpxtpx:hr>
<gpxtpx:atemp>10</gpxtpx:atemp>
</gpxtpx:TrackPointExtension>
</extensions>
</trkpt>
<trkpt lat="47.72793975658715" lon="12.154429396614432">
<ele>455</ele>
<time>2012-03-03T11:53:04Z</time>
<extensions>
<gpxtpx:TrackPointExtension>
<gpxtpx:hr>142</gpxtpx:hr>
<gpxtpx:atemp>10</gpxtpx:atemp>
</gpxtpx:TrackPointExtension>
</extensions>
</trkpt>
<trkpt lat="47.727792067453265" lon="12.15400175191462">
<ele>455</ele>
<time>2012-03-03T11:53:11Z</time>
<extensions>
<gpxtpx:TrackPointExtension>
<gpxtpx:hr>140</gpxtpx:hr>
<gpxtpx:atemp>10</gpxtpx:atemp>
</gpxtpx:TrackPointExtension>
</extensions>
</trkpt>
<trkpt lat="47.72765845991671" lon="12.153604617342353">
<ele>455</ele>
<time>2012-03-03T11:53:17Z</time>
<extensions>
<gpxtpx:TrackPointExtension>
<gpxtpx:hr>140</gpxtpx:hr>
<gpxtpx:atemp>10</gpxtpx:atemp>
</gpxtpx:TrackPointExtension>
</extensions>
</trkpt>
<trkpt lat="47.72762484848499" lon="12.153466986492276">
<ele>455</ele>
<time>2012-03-03T11:53:19Z</time>
<extensions>
<gpxtpx:TrackPointExtension>
<gpxtpx:hr>139</gpxtpx:hr>
<gpxtpx:atemp>10</gpxtpx:atemp>
</gpxtpx:TrackPointExtension>
</extensions>
</trkpt>
<trkpt lat="47.72762828506529" lon="12.15325953438878">
<ele>455</ele>
<time>2012-03-03T11:53:22Z</time>
<extensions>
<gpxtpx:TrackPointExtension>
<gpxtpx:hr>140</gpxtpx:hr>
<gpxtpx:atemp>10</gpxtpx:atemp>
</gpxtpx:TrackPointExtension>
</extensions>
</trkpt>
<trkpt lat="47.72768779657781" lon="12.153111007064581">
<ele>455</ele>
<time>2012-03-03T11:53:25Z</time>
<extensions>
<gpxtpx:TrackPointExtension>
<gpxtpx:hr>140</gpxtpx:hr>
<gpxtpx:atemp>10</gpxtpx:atemp>
</gpxtpx:TrackPointExtension>
</extensions>
</trkpt>
<trkpt lat="47.727706572040915" lon="12.1530650742352">
<ele>455</ele>
<time>2012-03-03T11:53:26Z</time>
<extensions>
<gpxtpx:TrackPointExtension>
<gpxtpx:hr>141</gpxtpx:hr>
<gpxtpx:atemp>10</gpxtpx:atemp>
</gpxtpx:TrackPointExtension>
</extensions>
</trkpt>
<trkpt lat="47.72773012518883" lon="12.152802217751741">
<ele>455</ele>
<time>2012-03-03T11:53:31Z</time>
<extensions>
<gpxtpx:TrackPointExtension>
<gpxtpx:hr>140</gpxtpx:hr>
<gpxtpx:atemp>10</gpxtpx:atemp>
</gpxtpx:TrackPointExtension>
</extensions>
</trkpt>
<trkpt lat="47.72767078131437" lon="12.152406089007854">
<ele>455</ele>
<time>2012-03-03T11:53:38Z</time>
<extensions>
<gpxtpx:TrackPointExtension>
<gpxtpx:hr>139</gpxtpx:hr>
<gpxtpx:atemp>10</gpxtpx:atemp>
</gpxtpx:TrackPointExtension>
</extensions>
</trkpt>
<trkpt lat="47.727651838213205" lon="12.152351774275303">
<ele>455</ele>
<time>2012-03-03T11:53:39Z</time>
<extensions>
<gpxtpx:TrackPointExtension>
<gpxtpx:hr>139</gpxtpx:hr>
<gpxtpx:atemp>10</gpxtpx:atemp>
</gpxtpx:TrackPointExtension>
</extensions>
</trkpt>
<trkpt lat="47.72754421457648" lon="12.152110626921058">
<ele>455</ele>
<time>2012-03-03T11:53:44Z</time>
<extensions>
<gpxtpx:TrackPointExtension>
<gpxtpx:hr>139</gpxtpx:hr>
<gpxtpx:atemp>10</gpxtpx:atemp>
</gpxtpx:TrackPointExtension>
</extensions>
</trkpt>
<trkpt lat="47.72749191150069" lon="12.151869731023908">
<ele>455</ele>
<time>2012-03-03T11:53:49Z</time>
<extensions>
<gpxtpx:TrackPointExtension>
<gpxtpx:hr>137</gpxtpx:hr>
<gpxtpx:atemp>10</gpxtpx:atemp>
</gpxtpx:TrackPointExtension>
</extensions>
</trkpt>
<trkpt lat="47.72748067975044" lon="12.151810973882675">
<ele>455</ele>
<time>2012-03-03T11:53:53Z</time>
<extensions>
<gpxtpx:TrackPointExtension>
<gpxtpx:hr>135</gpxtpx:hr>
<gpxtpx:atemp>10</gpxtpx:atemp>
</gpxtpx:TrackPointExtension>
</extensions>
</trkpt>
<trkpt lat="47.72748059593141" lon="12.151808124035597">
<ele>455</ele>
<time>2012-03-03T11:53:54Z</time>
<extensions>
<gpxtpx:TrackPointExtension>
<gpxtpx:hr>136</gpxtpx:hr>
<gpxtpx:atemp>10</gpxtpx:atemp>
</gpxtpx:TrackPointExtension>
</extensions>
</trkpt>
<trkpt lat="47.72748512215912" lon="12.151774931699038">
<ele>455</ele>
<time>2012-03-03T11:53:56Z</time>
<extensions>
<gpxtpx:TrackPointExtension>
<gpxtpx:hr>137</gpxtpx:hr>
<gpxtpx:atemp>10</gpxtpx:atemp>
</gpxtpx:TrackPointExtension>
</extensions>
</trkpt>
<trkpt lat="47.727503813803196" lon="12.151736123487353">
<ele>455</ele>
<time>2012-03-03T11:53:58Z</time>
<extensions>
<gpxtpx:TrackPointExtension>
<gpxtpx:hr>138</gpxtpx:hr>
<gpxtpx:atemp>10</gpxtpx:atemp>
</gpxtpx:TrackPointExtension>
</extensions>
</trkpt>
<trkpt lat="47.72750448435545" lon="12.151710977777839">
<ele>455</ele>
<time>2012-03-03T11:54:00Z</time>
<extensions>
<gpxtpx:TrackPointExtension>
<gpxtpx:hr>139</gpxtpx:hr>
<gpxtpx:atemp>10</gpxtpx:atemp>
</gpxtpx:TrackPointExtension>
</extensions>
</trkpt>
<trkpt lat="47.72749953903258" lon="12.15168516151607">
<ele>456</ele>
<time>2012-03-03T11:54:01Z</time>
<extensions>
<gpxtpx:TrackPointExtension>
<gpxtpx:hr>140</gpxtpx:hr>
<gpxtpx:atemp>10</gpxtpx:atemp>
</gpxtpx:TrackPointExtension>
</extensions>
</trkpt>
<trkpt lat="47.727489648386836" lon="12.151652052998543">
<ele>456</ele>
<time>2012-03-03T11:54:02Z</time>
<extensions>
<gpxtpx:TrackPointExtension>
<gpxtpx:hr>140</gpxtpx:hr>
<gpxtpx:atemp>10</gpxtpx:atemp>
</gpxtpx:TrackPointExtension>
</extensions>
</trkpt>
<trkpt lat="47.72747799754143" lon="12.151646269485354">
<ele>456</ele>
<time>2012-03-03T11:54:03Z</time>
<extensions>
<gpxtpx:TrackPointExtension>
<gpxtpx:hr>141</gpxtpx:hr>
<gpxtpx:atemp>10</gpxtpx:atemp>
</gpxtpx:TrackPointExtension>
</extensions>
</trkpt>
<trkpt lat="47.727477410808206" lon="12.15165096335113">
<ele>457</ele>
<time>2012-03-03T11:54:04Z</time>
<extensions>
<gpxtpx:TrackPointExtension>
<gpxtpx:hr>143</gpxtpx:hr>
<gpxtpx:atemp>10</gpxtpx:atemp>
</gpxtpx:TrackPointExtension>
</extensions>
</trkpt>
<trkpt lat="47.7274588868022" lon="12.151664206758142">
<ele>457</ele>
<time>2012-03-03T11:54:08Z</time>
<extensions>
<gpxtpx:TrackPointExtension>
<gpxtpx:hr>145</gpxtpx:hr>
<gpxtpx:atemp>10</gpxtpx:atemp>
</gpxtpx:TrackPointExtension>
</extensions>
</trkpt>
<trkpt lat="47.72737104445696" lon="12.151779709383845">
<ele>457</ele>
<time>2012-03-03T11:54:12Z</time>
<extensions>
<gpxtpx:TrackPointExtension>
<gpxtpx:hr>147</gpxtpx:hr>
<gpxtpx:atemp>10</gpxtpx:atemp>
</gpxtpx:TrackPointExtension>
</extensions>
</trkpt>
<trkpt lat="47.7271668612957" lon="12.151953550055623">
<ele>457</ele>
<time>2012-03-03T11:54:17Z</time>
<extensions>
<gpxtpx:TrackPointExtension>
<gpxtpx:hr>147</gpxtpx:hr>
<gpxtpx:atemp>10</gpxtpx:atemp>
</gpxtpx:TrackPointExtension>
</extensions>
</trkpt>
<trkpt lat="47.72686595097184" lon="12.152211628854275">
<ele>457</ele>
<time>2012-03-03T11:54:24Z</time>
<extensions>
<gpxtpx:TrackPointExtension>
<gpxtpx:hr>148</gpxtpx:hr>
<gpxtpx:atemp>11</gpxtpx:atemp>
</gpxtpx:TrackPointExtension>
</extensions>
</trkpt>
<trkpt lat="47.72653059102595" lon="12.152483873069286">
<ele>457</ele>
<time>2012-03-03T11:54:31Z</time>
<extensions>
<gpxtpx:TrackPointExtension>
<gpxtpx:hr>147</gpxtpx:hr>
<gpxtpx:atemp>11</gpxtpx:atemp>
</gpxtpx:TrackPointExtension>
</extensions>
</trkpt>
<trkpt lat="47.726181065663695" lon="12.152749914675951">
<ele>457</ele>
<time>2012-03-03T11:54:38Z</time>
<extensions>
<gpxtpx:TrackPointExtension>
<gpxtpx:hr>145</gpxtpx:hr>
<gpxtpx:atemp>11</gpxtpx:atemp>
</gpxtpx:TrackPointExtension>
</extensions>
</trkpt>
<trkpt lat="47.72613161243498" lon="12.152795260772109">
<ele>457</ele>
<time>2012-03-03T11:54:39Z</time>
<extensions>
<gpxtpx:TrackPointExtension>
<gpxtpx:hr>145</gpxtpx:hr>
<gpxtpx:atemp>11</gpxtpx:atemp>
</gpxtpx:TrackPointExtension>
</extensions>
</trkpt>
<trkpt lat="47.725858530029655" lon="12.153011346235871">
<ele>457</ele>
<time>2012-03-03T11:54:44Z</time>
<extensions>
<gpxtpx:TrackPointExtension>
<gpxtpx:hr>144</gpxtpx:hr>
<gpxtpx:atemp>11</gpxtpx:atemp>
</gpxtpx:TrackPointExtension>
</extensions>
</trkpt>
<trkpt lat="47.725508250296116" lon="12.153206476941705">
<ele>457</ele>
<time>2012-03-03T11:54:50Z</time>
<extensions>
<gpxtpx:TrackPointExtension>
<gpxtpx:hr>144</gpxtpx:hr>
<gpxtpx:atemp>11</gpxtpx:atemp>
</gpxtpx:TrackPointExtension>
</extensions>
</trkpt>
<trkpt lat="47.725135423243046" lon="12.153391046449542">
<ele>457</ele>
<time>2012-03-03T11:54:56Z</time>
<extensions>
<gpxtpx:TrackPointExtension>
<gpxtpx:hr>142</gpxtpx:hr>
<gpxtpx:atemp>11</gpxtpx:atemp>
</gpxtpx:TrackPointExtension>
</extensions>
</trkpt>
<trkpt lat="47.72464449517429" lon="12.153647197410464">
<ele>457</ele>
<time>2012-03-03T11:55:04Z</time>
<extensions>
<gpxtpx:TrackPointExtension>
<gpxtpx:hr>142</gpxtpx:hr>
<gpxtpx:atemp>11</gpxtpx:atemp>
</gpxtpx:TrackPointExtension>
</extensions>
</trkpt>
<trkpt lat="47.72427384741604" lon="12.153814416378736">
<ele>457</ele>
<time>2012-03-03T11:55:10Z</time>
<extensions>
<gpxtpx:TrackPointExtension>
<gpxtpx:hr>141</gpxtpx:hr>
<gpxtpx:atemp>11</gpxtpx:atemp>
</gpxtpx:TrackPointExtension>
</extensions>
</trkpt>
<trkpt lat="47.723840000107884" lon="12.153992531821132">
<ele>457</ele>
<time>2012-03-03T11:55:17Z</time>
<extensions>
<gpxtpx:TrackPointExtension>
<gpxtpx:hr>143</gpxtpx:hr>
<gpxtpx:atemp>11</gpxtpx:atemp>
</gpxtpx:TrackPointExtension>
</extensions>
</trkpt>
<trkpt lat="47.723284028470516" lon="12.154256058856845">
<ele>457</ele>
<time>2012-03-03T11:55:26Z</time>
<extensions>
<gpxtpx:TrackPointExtension>
<gpxtpx:hr>143</gpxtpx:hr>
<gpxtpx:atemp>11</gpxtpx:atemp>
</gpxtpx:TrackPointExtension>
</extensions>
</trkpt>
<trkpt lat="47.723160814493895" lon="12.15431397780776">
<ele>457</ele>
<time>2012-03-03T11:55:28Z</time>
<extensions>
<gpxtpx:TrackPointExtension>
<gpxtpx:hr>142</gpxtpx:hr>
<gpxtpx:atemp>11</gpxtpx:atemp>
</gpxtpx:TrackPointExtension>
</extensions>
</trkpt>
<trkpt lat="47.722908770665526" lon="12.154407519847155">
<ele>457</ele>
<time>2012-03-03T11:55:32Z</time>
<extensions>
<gpxtpx:TrackPointExtension>
<gpxtpx:hr>143</gpxtpx:hr>
<gpxtpx:atemp>10</gpxtpx:atemp>
</gpxtpx:TrackPointExtension>
</extensions>
</trkpt>
<trkpt lat="47.72245011292398" lon="12.154542468488216">
<ele>457</ele>
<time>2012-03-03T11:55:39Z</time>
<extensions>
<gpxtpx:TrackPointExtension>
<gpxtpx:hr>143</gpxtpx:hr>
<gpxtpx:atemp>10</gpxtpx:atemp>
</gpxtpx:TrackPointExtension>
</extensions>
</trkpt>
<trkpt lat="47.72198600694537" lon="12.154631149023771">
<ele>457</ele>
<time>2012-03-03T11:55:46Z</time>
<extensions>
<gpxtpx:TrackPointExtension>
<gpxtpx:hr>144</gpxtpx:hr>
<gpxtpx:atemp>10</gpxtpx:atemp>
</gpxtpx:TrackPointExtension>
</extensions>
</trkpt>
<trkpt lat="47.72161259315908" lon="12.15470289811492">
<ele>457</ele>
<time>2012-03-03T11:55:52Z</time>
<extensions>
<gpxtpx:TrackPointExtension>
<gpxtpx:hr>145</gpxtpx:hr>
<gpxtpx:atemp>10</gpxtpx:atemp>
</gpxtpx:TrackPointExtension>
</extensions>
</trkpt>
<trkpt lat="47.721517542377114" lon="12.154732821509242">
<ele>457</ele>
<time>2012-03-03T11:55:54Z</time>
<extensions>
<gpxtpx:TrackPointExtension>
<gpxtpx:hr>145</gpxtpx:hr>
<gpxtpx:atemp>10</gpxtpx:atemp>
</gpxtpx:TrackPointExtension>
</extensions>
</trkpt>
<trkpt lat="47.721484852954745" lon="12.154784621670842">
<ele>457</ele>
<time>2012-03-03T11:55:55Z</time>
<extensions>
<gpxtpx:TrackPointExtension>
<gpxtpx:hr>145</gpxtpx:hr>
<gpxtpx:atemp>10</gpxtpx:atemp>
</gpxtpx:TrackPointExtension>
</extensions>
</trkpt>
<trkpt lat="47.72150262258947" lon="12.15495703741908">
<ele>457</ele>
<time>2012-03-03T11:55:58Z</time>
<extensions>
<gpxtpx:TrackPointExtension>
<gpxtpx:hr>144</gpxtpx:hr>
<gpxtpx:atemp>10</gpxtpx:atemp>
</gpxtpx:TrackPointExtension>
</extensions>
</trkpt>
<trkpt lat="47.72163807414472" lon="12.155228443443775">
<ele>457</ele>
<time>2012-03-03T11:56:02Z</time>
<extensions>
<gpxtpx:TrackPointExtension>
<gpxtpx:hr>144</gpxtpx:hr>
<gpxtpx:atemp>10</gpxtpx:atemp>
</gpxtpx:TrackPointExtension>
</extensions>
</trkpt>
<trkpt lat="47.72172633558512" lon="12.15546464547515">
<ele>457</ele>
<time>2012-03-03T11:56:05Z</time>
<extensions>
<gpxtpx:TrackPointExtension>
<gpxtpx:hr>144</gpxtpx:hr>
<gpxtpx:atemp>10</gpxtpx:atemp>
</gpxtpx:TrackPointExtension>
</extensions>
</trkpt>
<trkpt lat="47.72174879908562" lon="12.155634798109531">
<ele>457</ele>
<time>2012-03-03T11:56:07Z</time>
<extensions>
<gpxtpx:TrackPointExtension>
<gpxtpx:hr>145</gpxtpx:hr>
<gpxtpx:atemp>10</gpxtpx:atemp>
</gpxtpx:TrackPointExtension>
</extensions>
</trkpt>
<trkpt lat="47.72166917100549" lon="12.155855493620038">
<ele>457</ele>
<time>2012-03-03T11:56:10Z</time>
<extensions>
<gpxtpx:TrackPointExtension>
<gpxtpx:hr>146</gpxtpx:hr>
<gpxtpx:atemp>10</gpxtpx:atemp>
</gpxtpx:TrackPointExtension>
</extensions>
</trkpt>
<trkpt lat="47.721559619531035" lon="12.155963452532887">
<ele>457</ele>
<time>2012-03-03T11:56:12Z</time>
<extensions>
<gpxtpx:TrackPointExtension>
<gpxtpx:hr>146</gpxtpx:hr>
<gpxtpx:atemp>10</gpxtpx:atemp>
</gpxtpx:TrackPointExtension>
</extensions>
</trkpt>
<trkpt lat="47.72139281965792" lon="12.156097646802664">
<ele>457</ele>
<time>2012-03-03T11:56:15Z</time>
<extensions>
<gpxtpx:TrackPointExtension>
<gpxtpx:hr>146</gpxtpx:hr>
<gpxtpx:atemp>10</gpxtpx:atemp>
</gpxtpx:TrackPointExtension>
</extensions>
</trkpt>
<trkpt lat="47.72121579386294" lon="12.156214155256748">
<ele>457</ele>
<time>2012-03-03T11:56:18Z</time>
<extensions>
<gpxtpx:TrackPointExtension>
<gpxtpx:hr>147</gpxtpx:hr>
<gpxtpx:atemp>10</gpxtpx:atemp>
</gpxtpx:TrackPointExtension>
</extensions>
</trkpt>
<trkpt lat="47.72109182551503" lon="12.156258495524526">
<ele>457</ele>
<time>2012-03-03T11:56:20Z</time>
<extensions>
<gpxtpx:TrackPointExtension>
<gpxtpx:hr>147</gpxtpx:hr>
<gpxtpx:atemp>10</gpxtpx:atemp>
</gpxtpx:TrackPointExtension>
</extensions>
</trkpt>
<trkpt lat="47.72063568234444" lon="12.156357150524855">
<ele>457</ele>
<time>2012-03-03T11:56:27Z</time>
<extensions>
<gpxtpx:TrackPointExtension>
<gpxtpx:hr>148</gpxtpx:hr>
<gpxtpx:atemp>10</gpxtpx:atemp>
</gpxtpx:TrackPointExtension>
</extensions>
</trkpt>
<trkpt lat="47.72018398158252" lon="12.156469216570258">
<ele>457</ele>
<time>2012-03-03T11:56:34Z</time>
<extensions>
<gpxtpx:TrackPointExtension>
<gpxtpx:hr>151</gpxtpx:hr>
<gpxtpx:atemp>10</gpxtpx:atemp>
</gpxtpx:TrackPointExtension>
</extensions>
</trkpt>
<trkpt lat="47.72011793218553" lon="12.156484387814999">
<ele>457</ele>
<time>2012-03-03T11:56:35Z</time>
<extensions>
<gpxtpx:TrackPointExtension>
<gpxtpx:hr>151</gpxtpx:hr>
<gpxtpx:atemp>10</gpxtpx:atemp>
</gpxtpx:TrackPointExtension>
</extensions>
</trkpt>
<trkpt lat="47.7195927221328" lon="12.15659637004137">
<ele>457</ele>
<time>2012-03-03T11:56:43Z</time>
<extensions>
<gpxtpx:TrackPointExtension>
<gpxtpx:hr>151</gpxtpx:hr>
<gpxtpx:atemp>10</gpxtpx:atemp>
</gpxtpx:TrackPointExtension>
</extensions>
</trkpt>
<trkpt lat="47.719009425491095" lon="12.156739113852382">
<ele>457</ele>
<time>2012-03-03T11:56:52Z</time>
<extensions>
<gpxtpx:TrackPointExtension>
<gpxtpx:hr>149</gpxtpx:hr>
<gpxtpx:atemp>10</gpxtpx:atemp>
</gpxtpx:TrackPointExtension>
</extensions>
</trkpt>
<trkpt lat="47.71894387900829" lon="12.156753614544868">
<ele>457</ele>
<time>2012-03-03T11:56:53Z</time>
<extensions>
<gpxtpx:TrackPointExtension>
<gpxtpx:hr>149</gpxtpx:hr>
<gpxtpx:atemp>10</gpxtpx:atemp>
</gpxtpx:TrackPointExtension>
</extensions>
</trkpt>
<trkpt lat="47.718486143276095" lon="12.15687196701765">
<ele>457</ele>
<time>2012-03-03T11:57:00Z</time>
<extensions>
<gpxtpx:TrackPointExtension>
<gpxtpx:hr>148</gpxtpx:hr>
<gpxtpx:atemp>10</gpxtpx:atemp>
</gpxtpx:TrackPointExtension>
</extensions>
</trkpt>
<trkpt lat="47.718047183007" lon="12.156989313662052">
<ele>457</ele>
<time>2012-03-03T11:57:07Z</time>
<extensions>
<gpxtpx:TrackPointExtension>
<gpxtpx:hr>147</gpxtpx:hr>
<gpxtpx:atemp>10</gpxtpx:atemp>
</gpxtpx:TrackPointExtension>
</extensions>
</trkpt>
<trkpt lat="47.71758642978966" lon="12.157107163220644">
<ele>457</ele>
<time>2012-03-03T11:57:14Z</time>
<extensions>
<gpxtpx:TrackPointExtension>
<gpxtpx:hr>147</gpxtpx:hr>
<gpxtpx:atemp>10</gpxtpx:atemp>
</gpxtpx:TrackPointExtension>
</extensions>
</trkpt>
<trkpt lat="47.71739238873124" lon="12.15715041384101">
<ele>457</ele>
<time>2012-03-03T11:57:17Z</time>
<extensions>
<gpxtpx:TrackPointExtension>
<gpxtpx:hr>146</gpxtpx:hr>
<gpxtpx:atemp>10</gpxtpx:atemp>
</gpxtpx:TrackPointExtension>
</extensions>
</trkpt>
<trkpt lat="47.71732600405812" lon="12.157165752723813">
<ele>458</ele>
<time>2012-03-03T11:57:18Z</time>
<extensions>
<gpxtpx:TrackPointExtension>
<gpxtpx:hr>146</gpxtpx:hr>
<gpxtpx:atemp>10</gpxtpx:atemp>
</gpxtpx:TrackPointExtension>
</extensions>
</trkpt>
<trkpt lat="47.71725693717599" lon="12.15718561783433">
<ele>458</ele>
<time>2012-03-03T11:57:19Z</time>
<extensions>
<gpxtpx:TrackPointExtension>
<gpxtpx:hr>146</gpxtpx:hr>
<gpxtpx:atemp>10</gpxtpx:atemp>
</gpxtpx:TrackPointExtension>
</extensions>
</trkpt>
<trkpt lat="47.717191809788346" lon="12.15719978325069">
<ele>459</ele>
<time>2012-03-03T11:57:20Z</time>
<extensions>
<gpxtpx:TrackPointExtension>
<gpxtpx:hr>147</gpxtpx:hr>
<gpxtpx:atemp>10</gpxtpx:atemp>
</gpxtpx:TrackPointExtension>
</extensions>
</trkpt>
<trkpt lat="47.71712752059102" lon="12.157215708866715">
<ele>459</ele>
<time>2012-03-03T11:57:21Z</time>
<extensions>
<gpxtpx:TrackPointExtension>
<gpxtpx:hr>147</gpxtpx:hr>
<gpxtpx:atemp>10</gpxtpx:atemp>
</gpxtpx:TrackPointExtension>
</extensions>
</trkpt>
<trkpt lat="47.716738348826766" lon="12.157316040247679">
<ele>459</ele>
<time>2012-03-03T11:57:27Z</time>
<extensions>
<gpxtpx:TrackPointExtension>
<gpxtpx:hr>147</gpxtpx:hr>
<gpxtpx:atemp>10</gpxtpx:atemp>
</gpxtpx:TrackPointExtension>
</extensions>
</trkpt>
<trkpt lat="47.71630282513797" lon="12.157438918948174">
<ele>459</ele>
<time>2012-03-03T11:57:34Z</time>
<extensions>
<gpxtpx:TrackPointExtension>
<gpxtpx:hr>148</gpxtpx:hr>
<gpxtpx:atemp>10</gpxtpx:atemp>
</gpxtpx:TrackPointExtension>
</extensions>
</trkpt>
<trkpt lat="47.715726904571056" lon="12.157579902559519">
<ele>459</ele>
<time>2012-03-03T11:57:43Z</time>
<extensions>
<gpxtpx:TrackPointExtension>
<gpxtpx:hr>149</gpxtpx:hr>
<gpxtpx:atemp>10</gpxtpx:atemp>
</gpxtpx:TrackPointExtension>
</extensions>
</trkpt>
<trkpt lat="47.71513782441616" lon="12.157741086557508">
<ele>459</ele>
<time>2012-03-03T11:57:52Z</time>
<extensions>
<gpxtpx:TrackPointExtension>
<gpxtpx:hr>150</gpxtpx:hr>
<gpxtpx:atemp>10</gpxtpx:atemp>
</gpxtpx:TrackPointExtension>
</extensions>
</trkpt>
<trkpt lat="47.71476197987795" lon="12.1578174456954">
<ele>459</ele>
<time>2012-03-03T11:57:58Z</time>
<extensions>
<gpxtpx:TrackPointExtension>
<gpxtpx:hr>151</gpxtpx:hr>
<gpxtpx:atemp>10</gpxtpx:atemp>
</gpxtpx:TrackPointExtension>
</extensions>
</trkpt>
<trkpt lat="47.714395355433226" lon="12.157907048240304">
<ele>459</ele>
<time>2012-03-03T11:58:04Z</time>
<extensions>
<gpxtpx:TrackPointExtension>
<gpxtpx:hr>153</gpxtpx:hr>
<gpxtpx:atemp>10</gpxtpx:atemp>
</gpxtpx:TrackPointExtension>
</extensions>
</trkpt>
<trkpt lat="47.71388162858784" lon="12.15803344734013">
<ele>459</ele>
<time>2012-03-03T11:58:12Z</time>
<extensions>
<gpxtpx:TrackPointExtension>
<gpxtpx:hr>154</gpxtpx:hr>
<gpxtpx:atemp>10</gpxtpx:atemp>
</gpxtpx:TrackPointExtension>
</extensions>
</trkpt>
<trkpt lat="47.71343973465264" lon="12.158144088461995">
<ele>459</ele>
<time>2012-03-03T11:58:19Z</time>
<extensions>
<gpxtpx:TrackPointExtension>
<gpxtpx:hr>156</gpxtpx:hr>
<gpxtpx:atemp>10</gpxtpx:atemp>
</gpxtpx:TrackPointExtension>
</extensions>
</trkpt>
<trkpt lat="47.7132258284837" lon="12.158273421227932">
<ele>459</ele>
<time>2012-03-03T11:58:23Z</time>
<extensions>
<gpxtpx:TrackPointExtension>
<gpxtpx:hr>156</gpxtpx:hr>
<gpxtpx:atemp>10</gpxtpx:atemp>
</gpxtpx:TrackPointExtension>
</extensions>
</trkpt>
<trkpt lat="47.7131861820817" lon="12.15831725858152">
<ele>459</ele>
<time>2012-03-03T11:58:24Z</time>
<extensions>
<gpxtpx:TrackPointExtension>
<gpxtpx:hr>156</gpxtpx:hr>
<gpxtpx:atemp>10</gpxtpx:atemp>
</gpxtpx:TrackPointExtension>
</extensions>
</trkpt>
<trkpt lat="47.713066320866346" lon="12.158507024869323">
<ele>459</ele>
<time>2012-03-03T11:58:28Z</time>
<extensions>
<gpxtpx:TrackPointExtension>
<gpxtpx:hr>155</gpxtpx:hr>
<gpxtpx:atemp>10</gpxtpx:atemp>
</gpxtpx:TrackPointExtension>
</extensions>
</trkpt>
<trkpt lat="47.71297118626535" lon="12.158685140311718">
<ele>459</ele>
<time>2012-03-03T11:58:32Z</time>
<extensions>
<gpxtpx:TrackPointExtension>
<gpxtpx:hr>155</gpxtpx:hr>
<gpxtpx:atemp>10</gpxtpx:atemp>
</gpxtpx:TrackPointExtension>
</extensions>
</trkpt>
<trkpt lat="47.712854677811265" lon="12.158848084509373">
<ele>459</ele>
<time>2012-03-03T11:58:37Z</time>
<extensions>
<gpxtpx:TrackPointExtension>
<gpxtpx:hr>152</gpxtpx:hr>
<gpxtpx:atemp>10</gpxtpx:atemp>
</gpxtpx:TrackPointExtension>
</extensions>
</trkpt>
<trkpt lat="47.71281436085701" lon="12.15891002677381">
<ele>459</ele>
<time>2012-03-03T11:58:39Z</time>
<extensions>
<gpxtpx:TrackPointExtension>
<gpxtpx:hr>150</gpxtpx:hr>
<gpxtpx:atemp>10</gpxtpx:atemp>
</gpxtpx:TrackPointExtension>
</extensions>
</trkpt>
<trkpt lat="47.71268578246236" lon="12.15905025601387">
<ele>459</ele>
<time>2012-03-03T11:58:44Z</time>
<extensions>
<gpxtpx:TrackPointExtension>
<gpxtpx:hr>148</gpxtpx:hr>
<gpxtpx:atemp>10</gpxtpx:atemp>
</gpxtpx:TrackPointExtension>
</extensions>
</trkpt>
<trkpt lat="47.71250984631479" lon="12.159188808873296">
<ele>459</ele>
<time>2012-03-03T11:58:49Z</time>
<extensions>
<gpxtpx:TrackPointExtension>
<gpxtpx:hr>145</gpxtpx:hr>
<gpxtpx:atemp>10</gpxtpx:atemp>
</gpxtpx:TrackPointExtension>
</extensions>
</trkpt>
<trkpt lat="47.71243876777589" lon="12.159240022301674">
<ele>459</ele>
<time>2012-03-03T11:58:51Z</time>
<extensions>
<gpxtpx:TrackPointExtension>
<gpxtpx:hr>145</gpxtpx:hr>
<gpxtpx:atemp>10</gpxtpx:atemp>
</gpxtpx:TrackPointExtension>
</extensions>
</trkpt>
<trkpt lat="47.71230281330645" lon="12.15936935506761">
<ele>459</ele>
<time>2012-03-03T11:58:55Z</time>
<extensions>
<gpxtpx:TrackPointExtension>
<gpxtpx:hr>143</gpxtpx:hr>
<gpxtpx:atemp>10</gpxtpx:atemp>
</gpxtpx:TrackPointExtension>
</extensions>
</trkpt>
<trkpt lat="47.712200386449695" lon="12.159503549337387">
<ele>459</ele>
<time>2012-03-03T11:58:58Z</time>
<extensions>
<gpxtpx:TrackPointExtension>
<gpxtpx:hr>142</gpxtpx:hr>
<gpxtpx:atemp>10</gpxtpx:atemp>
</gpxtpx:TrackPointExtension>
</extensions>
</trkpt>
<trkpt lat="47.71199352107942" lon="12.159666158258915">
<ele>459</ele>
<time>2012-03-03T11:59:04Z</time>
<extensions>
<gpxtpx:TrackPointExtension>
<gpxtpx:hr>141</gpxtpx:hr>
<gpxtpx:atemp>10</gpxtpx:atemp>
</gpxtpx:TrackPointExtension>
</extensions>
</trkpt>
<trkpt lat="47.71185823716223" lon="12.159672444686294">
<ele>459</ele>
<time>2012-03-03T11:59:07Z</time>
<extensions>
<gpxtpx:TrackPointExtension>
<gpxtpx:hr>140</gpxtpx:hr>
<gpxtpx:atemp>10</gpxtpx:atemp>
</gpxtpx:TrackPointExtension>
</extensions>
</trkpt>
<trkpt lat="47.71173351444304" lon="12.159605640918016">
<ele>459</ele>
<time>2012-03-03T11:59:10Z</time>
<extensions>
<gpxtpx:TrackPointExtension>
<gpxtpx:hr>139</gpxtpx:hr>
<gpxtpx:atemp>10</gpxtpx:atemp>
</gpxtpx:TrackPointExtension>
</extensions>
</trkpt>
<trkpt lat="47.71169495768845" lon="12.159576388075948">
<ele>459</ele>
<time>2012-03-03T11:59:11Z</time>
<extensions>
<gpxtpx:TrackPointExtension>
<gpxtpx:hr>139</gpxtpx:hr>
<gpxtpx:atemp>10</gpxtpx:atemp>
</gpxtpx:TrackPointExtension>
</extensions>
</trkpt>
<trkpt lat="47.71164994686842" lon="12.159552499651909">
<ele>459</ele>
<time>2012-03-03T11:59:12Z</time>
<extensions>
<gpxtpx:TrackPointExtension>
<gpxtpx:hr>139</gpxtpx:hr>
<gpxtpx:atemp>10</gpxtpx:atemp>
</gpxtpx:TrackPointExtension>
</extensions>
</trkpt>
<trkpt lat="47.71155749447644" lon="12.159481504932046">
<ele>459</ele>
<time>2012-03-03T11:59:14Z</time>
<extensions>
<gpxtpx:TrackPointExtension>
<gpxtpx:hr>140</gpxtpx:hr>
<gpxtpx:atemp>10</gpxtpx:atemp>
</gpxtpx:TrackPointExtension>
</extensions>
</trkpt>
<trkpt lat="47.71151416003704" lon="12.159443367272615">
<ele>459</ele>
<time>2012-03-03T11:59:15Z</time>
<extensions>
<gpxtpx:TrackPointExtension>
<gpxtpx:hr>140</gpxtpx:hr>
<gpxtpx:atemp>11</gpxtpx:atemp>
</gpxtpx:TrackPointExtension>
</extensions>
</trkpt>
<trkpt lat="47.711334116756916" lon="12.159302718937397">
<ele>459</ele>
<time>2012-03-03T11:59:19Z</time>
<extensions>
<gpxtpx:TrackPointExtension>
<gpxtpx:hr>141</gpxtpx:hr>
<gpxtpx:atemp>11</gpxtpx:atemp>
</gpxtpx:TrackPointExtension>
</extensions>
</trkpt>
<trkpt lat="47.71124602295458" lon="12.159251002594829">
<ele>459</ele>
<time>2012-03-03T11:59:21Z</time>
<extensions>
<gpxtpx:TrackPointExtension>
<gpxtpx:hr>141</gpxtpx:hr>
<gpxtpx:atemp>11</gpxtpx:atemp>
</gpxtpx:TrackPointExtension>
</extensions>
</trkpt>
<trkpt lat="47.711070170626044" lon="12.159163244068623">
<ele>459</ele>
<time>2012-03-03T11:59:25Z</time>
<extensions>
<gpxtpx:TrackPointExtension>
<gpxtpx:hr>142</gpxtpx:hr>
<gpxtpx:atemp>11</gpxtpx:atemp>
</gpxtpx:TrackPointExtension>
</extensions>
</trkpt>
<trkpt lat="47.71097159944475" lon="12.159162238240242">
<ele>459</ele>
<time>2012-03-03T11:59:27Z</time>
<extensions>
<gpxtpx:TrackPointExtension>
<gpxtpx:hr>143</gpxtpx:hr>
<gpxtpx:atemp>11</gpxtpx:atemp>
</gpxtpx:TrackPointExtension>
</extensions>
</trkpt>
<trkpt lat="47.71086858585477" lon="12.159230718389153">
<ele>459</ele>
<time>2012-03-03T11:59:29Z</time>
<extensions>
<gpxtpx:TrackPointExtension>
<gpxtpx:hr>143</gpxtpx:hr>
<gpxtpx:atemp>11</gpxtpx:atemp>
</gpxtpx:TrackPointExtension>
</extensions>
</trkpt>
<trkpt lat="47.710820976644754" lon="12.159271035343409">
<ele>459</ele>
<time>2012-03-03T11:59:30Z</time>
<extensions>
<gpxtpx:TrackPointExtension>
<gpxtpx:hr>143</gpxtpx:hr>
<gpxtpx:atemp>11</gpxtpx:atemp>
</gpxtpx:TrackPointExtension>
</extensions>
</trkpt>
<trkpt lat="47.71054110489786" lon="12.15950665064156">
<ele>459</ele>
<time>2012-03-03T11:59:36Z</time>
<extensions>
<gpxtpx:TrackPointExtension>
<gpxtpx:hr>142</gpxtpx:hr>
<gpxtpx:atemp>11</gpxtpx:atemp>
</gpxtpx:TrackPointExtension>
</extensions>
</trkpt>
<trkpt lat="47.71018219180405" lon="12.159767495468259">
<ele>459</ele>
<time>2012-03-03T11:59:43Z</time>
<extensions>
<gpxtpx:TrackPointExtension>
<gpxtpx:hr>145</gpxtpx:hr>
<gpxtpx:atemp>11</gpxtpx:atemp>
</gpxtpx:TrackPointExtension>
</extensions>
</trkpt>
<trkpt lat="47.71013273857534" lon="12.159809321165085">
<ele>459</ele>
<time>2012-03-03T11:59:44Z</time>
<extensions>
<gpxtpx:TrackPointExtension>
<gpxtpx:hr>145</gpxtpx:hr>
<gpxtpx:atemp>11</gpxtpx:atemp>
</gpxtpx:TrackPointExtension>
</extensions>
</trkpt>
<trkpt lat="47.70991866476834" lon="12.159955333918333">
<ele>459</ele>
<time>2012-03-03T11:59:48Z</time>
<extensions>
<gpxtpx:TrackPointExtension>
<gpxtpx:hr>147</gpxtpx:hr>
<gpxtpx:atemp>11</gpxtpx:atemp>
</gpxtpx:TrackPointExtension>
</extensions>
</trkpt>
<trkpt lat="47.70961079746485" lon="12.160190111026168">
<ele>459</ele>
<time>2012-03-03T11:59:54Z</time>
<extensions>
<gpxtpx:TrackPointExtension>
<gpxtpx:hr>147</gpxtpx:hr>
<gpxtpx:atemp>11</gpxtpx:atemp>
</gpxtpx:TrackPointExtension>
</extensions>
</trkpt>
<trkpt lat="47.70955824293196" lon="12.160219363868237">
<ele>459</ele>
<time>2012-03-03T11:59:55Z</time>
<extensions>
<gpxtpx:TrackPointExtension>
<gpxtpx:hr>148</gpxtpx:hr>
<gpxtpx:atemp>11</gpxtpx:atemp>
</gpxtpx:TrackPointExtension>
</extensions>
</trkpt>
<trkpt lat="47.70934425294399" lon="12.16036613099277">
<ele>459</ele>
<time>2012-03-03T11:59:59Z</time>
<extensions>
<gpxtpx:TrackPointExtension>
<gpxtpx:hr>148</gpxtpx:hr>
<gpxtpx:atemp>11</gpxtpx:atemp>
</gpxtpx:TrackPointExtension>
</extensions>
</trkpt>
<trkpt lat="47.70892188884318" lon="12.160688415169716">
<ele>459</ele>
<time>2012-03-03T12:00:07Z</time>
<extensions>
<gpxtpx:TrackPointExtension>
<gpxtpx:hr>147</gpxtpx:hr>
<gpxtpx:atemp>11</gpxtpx:atemp>
</gpxtpx:TrackPointExtension>
</extensions>
</trkpt>
<trkpt lat="47.70852483808994" lon="12.160960575565696">
<ele>459</ele>
<time>2012-03-03T12:00:14Z</time>
<extensions>
<gpxtpx:TrackPointExtension>
<gpxtpx:hr>148</gpxtpx:hr>
<gpxtpx:atemp>11</gpxtpx:atemp>
</gpxtpx:TrackPointExtension>
</extensions>
</trkpt>
<trkpt lat="47.708071544766426" lon="12.161249667406082">
<ele>459</ele>
<time>2012-03-03T12:00:22Z</time>
<extensions>
<gpxtpx:TrackPointExtension>
<gpxtpx:hr>148</gpxtpx:hr>
<gpxtpx:atemp>11</gpxtpx:atemp>
</gpxtpx:TrackPointExtension>
</extensions>
</trkpt>
<trkpt lat="47.70769796334207" lon="12.161587877199054">
<ele>459</ele>
<time>2012-03-03T12:00:29Z</time>
<extensions>
<gpxtpx:TrackPointExtension>
<gpxtpx:hr>149</gpxtpx:hr>
<gpxtpx:atemp>11</gpxtpx:atemp>
</gpxtpx:TrackPointExtension>
</extensions>
</trkpt>
<trkpt lat="47.70755270496011" lon="12.16171033680439">
<ele>459</ele>
<time>2012-03-03T12:00:32Z</time>
<extensions>
<gpxtpx:TrackPointExtension>
<gpxtpx:hr>149</gpxtpx:hr>
<gpxtpx:atemp>11</gpxtpx:atemp>
</gpxtpx:TrackPointExtension>
</extensions>
</trkpt>
<trkpt lat="47.707447092980146" lon="12.16174059547484">
<ele>459</ele>
<time>2012-03-03T12:00:34Z</time>
<extensions>
<gpxtpx:TrackPointExtension>
<gpxtpx:hr>148</gpxtpx:hr>
<gpxtpx:atemp>11</gpxtpx:atemp>
</gpxtpx:TrackPointExtension>
</extensions>
</trkpt>
<trkpt lat="47.70739261060953" lon="12.161760460585356">
<ele>459</ele>
<time>2012-03-03T12:00:35Z</time>
<extensions>
<gpxtpx:TrackPointExtension>
<gpxtpx:hr>148</gpxtpx:hr>
<gpxtpx:atemp>11</gpxtpx:atemp>
</gpxtpx:TrackPointExtension>
</extensions>
</trkpt>
<trkpt lat="47.70734181627631" lon="12.161793988198042">
<ele>460</ele>
<time>2012-03-03T12:00:36Z</time>
<extensions>
<gpxtpx:TrackPointExtension>
<gpxtpx:hr>148</gpxtpx:hr>
<gpxtpx:atemp>11</gpxtpx:atemp>
</gpxtpx:TrackPointExtension>
</extensions>
</trkpt>
<trkpt lat="47.707296470180154" lon="12.161839669570327">
<ele>460</ele>
<time>2012-03-03T12:00:37Z</time>
<extensions>
<gpxtpx:TrackPointExtension>
<gpxtpx:hr>148</gpxtpx:hr>
<gpxtpx:atemp>11</gpxtpx:atemp>
</gpxtpx:TrackPointExtension>
</extensions>
</trkpt>
<trkpt lat="47.70725707523525" lon="12.161884931847453">
<ele>461</ele>
<time>2012-03-03T12:00:38Z</time>
<extensions>
<gpxtpx:TrackPointExtension>
<gpxtpx:hr>148</gpxtpx:hr>
<gpxtpx:atemp>11</gpxtpx:atemp>
</gpxtpx:TrackPointExtension>
</extensions>
</trkpt>
<trkpt lat="47.70721751265228" lon="12.161927511915565">
<ele>461</ele>
<time>2012-03-03T12:00:39Z</time>
<extensions>
<gpxtpx:TrackPointExtension>
<gpxtpx:hr>148</gpxtpx:hr>
<gpxtpx:atemp>11</gpxtpx:atemp>
</gpxtpx:TrackPointExtension>
</extensions>
</trkpt>
<trkpt lat="47.70705205388367" lon="12.162063047289848">
<ele>461</ele>
<time>2012-03-03T12:00:43Z</time>
<extensions>
<gpxtpx:TrackPointExtension>
<gpxtpx:hr>148</gpxtpx:hr>
<gpxtpx:atemp>11</gpxtpx:atemp>
</gpxtpx:TrackPointExtension>
</extensions>
</trkpt>
<trkpt lat="47.70695968531072" lon="12.162133874371648">
<ele>461</ele>
<time>2012-03-03T12:00:45Z</time>
<extensions>
<gpxtpx:TrackPointExtension>
<gpxtpx:hr>147</gpxtpx:hr>
<gpxtpx:atemp>11</gpxtpx:atemp>
</gpxtpx:TrackPointExtension>
</extensions>
</trkpt>
<trkpt lat="47.706672521308064" lon="12.162407543510199">
<ele>461</ele>
<time>2012-03-03T12:00:52Z</time>
<extensions>
<gpxtpx:TrackPointExtension>
<gpxtpx:hr>146</gpxtpx:hr>
<gpxtpx:atemp>11</gpxtpx:atemp>
</gpxtpx:TrackPointExtension>
</extensions>
</trkpt>
<trkpt lat="47.70663161762059" lon="12.162453476339579">
<ele>461</ele>
<time>2012-03-03T12:00:53Z</time>
<extensions>
<gpxtpx:TrackPointExtension>
<gpxtpx:hr>146</gpxtpx:hr>
<gpxtpx:atemp>11</gpxtpx:atemp>
</gpxtpx:TrackPointExtension>
</extensions>
</trkpt>
<trkpt lat="47.706333473324776" lon="12.162820938974619">
<ele>461</ele>
<time>2012-03-03T12:01:00Z</time>
<extensions>
<gpxtpx:TrackPointExtension>
<gpxtpx:hr>145</gpxtpx:hr>
<gpxtpx:atemp>11</gpxtpx:atemp>
</gpxtpx:TrackPointExtension>
</extensions>
</trkpt>
<trkpt lat="47.70628594793379" lon="12.162868799641728">
<ele>461</ele>
<time>2012-03-03T12:01:01Z</time>
<extensions>
<gpxtpx:TrackPointExtension>
<gpxtpx:hr>145</gpxtpx:hr>
<gpxtpx:atemp>11</gpxtpx:atemp>
</gpxtpx:TrackPointExtension>
</extensions>
</trkpt>
<trkpt lat="47.70613616332412" lon="12.163011794909835">
<ele>461</ele>
<time>2012-03-03T12:01:04Z</time>
<extensions>
<gpxtpx:TrackPointExtension>
<gpxtpx:hr>146</gpxtpx:hr>
<gpxtpx:atemp>11</gpxtpx:atemp>
</gpxtpx:TrackPointExtension>
</extensions>
</trkpt>
<trkpt lat="47.70608578808606" lon="12.163054207339883">
<ele>461</ele>
<time>2012-03-03T12:01:05Z</time>
<extensions>
<gpxtpx:TrackPointExtension>
<gpxtpx:hr>146</gpxtpx:hr>
<gpxtpx:atemp>11</gpxtpx:atemp>
</gpxtpx:TrackPointExtension>
</extensions>
</trkpt>
<trkpt lat="47.70574397407472" lon="12.163236178457737">
<ele>461</ele>
<time>2012-03-03T12:01:11Z</time>
<extensions>
<gpxtpx:TrackPointExtension>
<gpxtpx:hr>147</gpxtpx:hr>
<gpxtpx:atemp>11</gpxtpx:atemp>
</gpxtpx:TrackPointExtension>
</extensions>
</trkpt>
<trkpt lat="47.705270228907466" lon="12.163432901725173">
<ele>461</ele>
<time>2012-03-03T12:01:19Z</time>
<extensions>
<gpxtpx:TrackPointExtension>
<gpxtpx:hr>147</gpxtpx:hr>
<gpxtpx:atemp>11</gpxtpx:atemp>
</gpxtpx:TrackPointExtension>
</extensions>
</trkpt>
<trkpt lat="47.704884661361575" lon="12.163681173697114">
<ele>461</ele>
<time>2012-03-03T12:01:26Z</time>
<extensions>
<gpxtpx:TrackPointExtension>
<gpxtpx:hr>148</gpxtpx:hr>
<gpxtpx:atemp>11</gpxtpx:atemp>
</gpxtpx:TrackPointExtension>
</extensions>
</trkpt>
<trkpt lat="47.70478080958128" lon="12.163775134831667">
<ele>461</ele>
<time>2012-03-03T12:01:28Z</time>
<extensions>
<gpxtpx:TrackPointExtension>
<gpxtpx:hr>148</gpxtpx:hr>
<gpxtpx:atemp>11</gpxtpx:atemp>
</gpxtpx:TrackPointExtension>
</extensions>
</trkpt>
<trkpt lat="47.704648710787296" lon="12.163932211697102">
<ele>461</ele>
<time>2012-03-03T12:01:31Z</time>
<extensions>
<gpxtpx:TrackPointExtension>
<gpxtpx:hr>149</gpxtpx:hr>
<gpxtpx:atemp>11</gpxtpx:atemp>
</gpxtpx:TrackPointExtension>
</extensions>
</trkpt>
<trkpt lat="47.70445827394724" lon="12.16423362493515">
<ele>461</ele>
<time>2012-03-03T12:01:37Z</time>
<extensions>
<gpxtpx:TrackPointExtension>
<gpxtpx:hr>149</gpxtpx:hr>
<gpxtpx:atemp>11</gpxtpx:atemp>
</gpxtpx:TrackPointExtension>
</extensions>
</trkpt>
<trkpt lat="47.70443405024707" lon="12.164479466155171">
<ele>461</ele>
<time>2012-03-03T12:01:41Z</time>
<extensions>
<gpxtpx:TrackPointExtension>
<gpxtpx:hr>148</gpxtpx:hr>
<gpxtpx:atemp>11</gpxtpx:atemp>
</gpxtpx:TrackPointExtension>
</extensions>
</trkpt>
<trkpt lat="47.70445986650884" lon="12.164610642939806">
<ele>461</ele>
<time>2012-03-03T12:01:43Z</time>
<extensions>
<gpxtpx:TrackPointExtension>
<gpxtpx:hr>147</gpxtpx:hr>
<gpxtpx:atemp>11</gpxtpx:atemp>
</gpxtpx:TrackPointExtension>
</extensions>
</trkpt>
<trkpt lat="47.70447755232453" lon="12.16466655023396">
<ele>462</ele>
<time>2012-03-03T12:01:44Z</time>
<extensions>
<gpxtpx:TrackPointExtension>
<gpxtpx:hr>146</gpxtpx:hr>
<gpxtpx:atemp>11</gpxtpx:atemp>
</gpxtpx:TrackPointExtension>
</extensions>
</trkpt>
<trkpt lat="47.70449289120734" lon="12.164718937128782">
<ele>462</ele>
<time>2012-03-03T12:01:45Z</time>
<extensions>
<gpxtpx:TrackPointExtension>
<gpxtpx:hr>146</gpxtpx:hr>
<gpxtpx:atemp>11</gpxtpx:atemp>
</gpxtpx:TrackPointExtension>
</extensions>
</trkpt>
<trkpt lat="47.70450470969081" lon="12.164752380922437">
<ele>463</ele>
<time>2012-03-03T12:01:46Z</time>
<extensions>
<gpxtpx:TrackPointExtension>
<gpxtpx:hr>145</gpxtpx:hr>
<gpxtpx:atemp>11</gpxtpx:atemp>
</gpxtpx:TrackPointExtension>
</extensions>
</trkpt>
<trkpt lat="47.70451510325074" lon="12.164771324023604">
<ele>463</ele>
<time>2012-03-03T12:01:47Z</time>
<extensions>
<gpxtpx:TrackPointExtension>
<gpxtpx:hr>145</gpxtpx:hr>
<gpxtpx:atemp>11</gpxtpx:atemp>
</gpxtpx:TrackPointExtension>
</extensions>
</trkpt>
<trkpt lat="47.70451694726944" lon="12.164800744503736">
<ele>463</ele>
<time>2012-03-03T12:01:48Z</time>
<extensions>
<gpxtpx:TrackPointExtension>
<gpxtpx:hr>145</gpxtpx:hr>
<gpxtpx:atemp>11</gpxtpx:atemp>
</gpxtpx:TrackPointExtension>
</extensions>
</trkpt>
<trkpt lat="47.70450093783438" lon="12.164823627099395">
<ele>463</ele>
<time>2012-03-03T12:01:49Z</time>
<extensions>
<gpxtpx:TrackPointExtension>
<gpxtpx:hr>145</gpxtpx:hr>
<gpxtpx:atemp>11</gpxtpx:atemp>
</gpxtpx:TrackPointExtension>
</extensions>
</trkpt>
<trkpt lat="47.70443933084607" lon="12.16474232263863">
<ele>463</ele>
<time>2012-03-03T12:01:52Z</time>
<extensions>
<gpxtpx:TrackPointExtension>
<gpxtpx:hr>145</gpxtpx:hr>
<gpxtpx:atemp>11</gpxtpx:atemp>
</gpxtpx:TrackPointExtension>
</extensions>
</trkpt>
<trkpt lat="47.70438216626644" lon="12.164456248283386">
<ele>463</ele>
<time>2012-03-03T12:01:57Z</time>
<extensions>
<gpxtpx:TrackPointExtension>
<gpxtpx:hr>144</gpxtpx:hr>
<gpxtpx:atemp>11</gpxtpx:atemp>
</gpxtpx:TrackPointExtension>
</extensions>
</trkpt>
<trkpt lat="47.70437831059098" lon="12.164310570806265">
<ele>463</ele>
<time>2012-03-03T12:01:59Z</time>
<extensions>
<gpxtpx:TrackPointExtension>
<gpxtpx:hr>145</gpxtpx:hr>
<gpxtpx:atemp>11</gpxtpx:atemp>
</gpxtpx:TrackPointExtension>
</extensions>
</trkpt>
<trkpt lat="47.70437931641936" lon="12.163997003808618">
<ele>463</ele>
<time>2012-03-03T12:02:03Z</time>
<extensions>
<gpxtpx:TrackPointExtension>
<gpxtpx:hr>148</gpxtpx:hr>
<gpxtpx:atemp>11</gpxtpx:atemp>
</gpxtpx:TrackPointExtension>
</extensions>
</trkpt>
<trkpt lat="47.70438878796995" lon="12.16392139904201">
<ele>463</ele>
<time>2012-03-03T12:02:04Z</time>
<extensions>
<gpxtpx:TrackPointExtension>
<gpxtpx:hr>149</gpxtpx:hr>
<gpxtpx:atemp>11</gpxtpx:atemp>
</gpxtpx:TrackPointExtension>
</extensions>
</trkpt>
<trkpt lat="47.70441963337362" lon="12.16359794139862">
<ele>464</ele>
<time>2012-03-03T12:02:08Z</time>
<extensions>
<gpxtpx:TrackPointExtension>
<gpxtpx:hr>151</gpxtpx:hr>
<gpxtpx:atemp>11</gpxtpx:atemp>
</gpxtpx:TrackPointExtension>
</extensions>
</trkpt>
<trkpt lat="47.70443052984774" lon="12.163516050204635">
<ele>464</ele>
<time>2012-03-03T12:02:09Z</time>
<extensions>
<gpxtpx:TrackPointExtension>
<gpxtpx:hr>152</gpxtpx:hr>
<gpxtpx:atemp>11</gpxtpx:atemp>
</gpxtpx:TrackPointExtension>
</extensions>
</trkpt>
<trkpt lat="47.70443690009415" lon="12.163434410467744">
<ele>464</ele>
<time>2012-03-03T12:02:10Z</time>
<extensions>
<gpxtpx:TrackPointExtension>
<gpxtpx:hr>152</gpxtpx:hr>
<gpxtpx:atemp>11</gpxtpx:atemp>
</gpxtpx:TrackPointExtension>
</extensions>
</trkpt>
<trkpt lat="47.704444946721196" lon="12.163358554244041">
<ele>465</ele>
<time>2012-03-03T12:02:11Z</time>
<extensions>
<gpxtpx:TrackPointExtension>
<gpxtpx:hr>153</gpxtpx:hr>
<gpxtpx:atemp>11</gpxtpx:atemp>
</gpxtpx:TrackPointExtension>
</extensions>
</trkpt>
<trkpt lat="47.704456597566605" lon="12.163285380229354">
<ele>465</ele>
<time>2012-03-03T12:02:12Z</time>
<extensions>
<gpxtpx:TrackPointExtension>
<gpxtpx:hr>153</gpxtpx:hr>
<gpxtpx:atemp>11</gpxtpx:atemp>
</gpxtpx:TrackPointExtension>
</extensions>
</trkpt>
<trkpt lat="47.70448291674256" lon="12.163072563707829">
<ele>465</ele>
<time>2012-03-03T12:02:15Z</time>
<extensions>
<gpxtpx:TrackPointExtension>
<gpxtpx:hr>153</gpxtpx:hr>
<gpxtpx:atemp>11</gpxtpx:atemp>
</gpxtpx:TrackPointExtension>
</extensions>
</trkpt>
<trkpt lat="47.70449892617762" lon="12.162760756909847">
<ele>465</ele>
<time>2012-03-03T12:02:21Z</time>
<extensions>
<gpxtpx:TrackPointExtension>
<gpxtpx:hr>152</gpxtpx:hr>
<gpxtpx:atemp>11</gpxtpx:atemp>
</gpxtpx:TrackPointExtension>
</extensions>
</trkpt>
<trkpt lat="47.70448140799999" lon="12.162729240953922">
<ele>465</ele>
<time>2012-03-03T12:02:23Z</time>
<extensions>
<gpxtpx:TrackPointExtension>
<gpxtpx:hr>151</gpxtpx:hr>
<gpxtpx:atemp>11</gpxtpx:atemp>
</gpxtpx:TrackPointExtension>
</extensions>
</trkpt>
<trkpt lat="47.70443748682737" lon="12.162707448005676">
<ele>465</ele>
<time>2012-03-03T12:02:25Z</time>
<extensions>
<gpxtpx:TrackPointExtension>
<gpxtpx:hr>151</gpxtpx:hr>
<gpxtpx:atemp>11</gpxtpx:atemp>
</gpxtpx:TrackPointExtension>
</extensions>
</trkpt>
<trkpt lat="47.704334473237395" lon="12.162692276760936">
<ele>465</ele>
<time>2012-03-03T12:02:28Z</time>
<extensions>
<gpxtpx:TrackPointExtension>
<gpxtpx:hr>150</gpxtpx:hr>
<gpxtpx:atemp>11</gpxtpx:atemp>
</gpxtpx:TrackPointExtension>
</extensions>
</trkpt>
<trkpt lat="47.70426834002137" lon="12.16260937973857">
<ele>465</ele>
<time>2012-03-03T12:02:30Z</time>
<extensions>
<gpxtpx:TrackPointExtension>
<gpxtpx:hr>149</gpxtpx:hr>
<gpxtpx:atemp>11</gpxtpx:atemp>
</gpxtpx:TrackPointExtension>
</extensions>
</trkpt>
<trkpt lat="47.70422475412488" lon="12.162594376131892">
<ele>465</ele>
<time>2012-03-03T12:02:31Z</time>
<extensions>
<gpxtpx:TrackPointExtension>
<gpxtpx:hr>149</gpxtpx:hr>
<gpxtpx:atemp>11</gpxtpx:atemp>
</gpxtpx:TrackPointExtension>
</extensions>
</trkpt>
<trkpt lat="47.70417965948582" lon="12.16259479522705">
<ele>465</ele>
<time>2012-03-03T12:02:32Z</time>
<extensions>
<gpxtpx:TrackPointExtension>
<gpxtpx:hr>149</gpxtpx:hr>
<gpxtpx:atemp>11</gpxtpx:atemp>
</gpxtpx:TrackPointExtension>
</extensions>
</trkpt>
<trkpt lat="47.70401478745043" lon="12.162662772461772">
<ele>465</ele>
<time>2012-03-03T12:02:35Z</time>
<extensions>
<gpxtpx:TrackPointExtension>
<gpxtpx:hr>150</gpxtpx:hr>
<gpxtpx:atemp>11</gpxtpx:atemp>
</gpxtpx:TrackPointExtension>
</extensions>
</trkpt>
<trkpt lat="47.70378369837999" lon="12.162727816030383">
<ele>465</ele>
<time>2012-03-03T12:02:39Z</time>
<extensions>
<gpxtpx:TrackPointExtension>
<gpxtpx:hr>151</gpxtpx:hr>
<gpxtpx:atemp>11</gpxtpx:atemp>
</gpxtpx:TrackPointExtension>
</extensions>
</trkpt>
<trkpt lat="47.703727036714554" lon="12.16274382546544">
<ele>465</ele>
<time>2012-03-03T12:02:40Z</time>
<extensions>
<gpxtpx:TrackPointExtension>
<gpxtpx:hr>151</gpxtpx:hr>
<gpxtpx:atemp>11</gpxtpx:atemp>
</gpxtpx:TrackPointExtension>
</extensions>
</trkpt>
<trkpt lat="47.703245747834444" lon="12.162871146574616">
<ele>465</ele>
<time>2012-03-03T12:02:48Z</time>
<extensions>
<gpxtpx:TrackPointExtension>
<gpxtpx:hr>153</gpxtpx:hr>
<gpxtpx:atemp>11</gpxtpx:atemp>
</gpxtpx:TrackPointExtension>
</extensions>
</trkpt>
<trkpt lat="47.70279907621443" lon="12.162986565381289">
<ele>465</ele>
<time>2012-03-03T12:02:55Z</time>
<extensions>
<gpxtpx:TrackPointExtension>
<gpxtpx:hr>153</gpxtpx:hr>
<gpxtpx:atemp>11</gpxtpx:atemp>
</gpxtpx:TrackPointExtension>
</extensions>
</trkpt>
<trkpt lat="47.702340921387076" lon="12.163080275058746">
<ele>465</ele>
<time>2012-03-03T12:03:02Z</time>
<extensions>
<gpxtpx:TrackPointExtension>
<gpxtpx:hr>154</gpxtpx:hr>
<gpxtpx:atemp>11</gpxtpx:atemp>
</gpxtpx:TrackPointExtension>
</extensions>
</trkpt>
<trkpt lat="47.70185929723084" lon="12.163191754370928">
<ele>465</ele>
<time>2012-03-03T12:03:09Z</time>
<extensions>
<gpxtpx:TrackPointExtension>
<gpxtpx:hr>154</gpxtpx:hr>
<gpxtpx:atemp>11</gpxtpx:atemp>
</gpxtpx:TrackPointExtension>
</extensions>
</trkpt>
<trkpt lat="47.701500300318" lon="12.163262581452727">
<ele>465</ele>
<time>2012-03-03T12:03:15Z</time>
<extensions>
<gpxtpx:TrackPointExtension>
<gpxtpx:hr>155</gpxtpx:hr>
<gpxtpx:atemp>11</gpxtpx:atemp>
</gpxtpx:TrackPointExtension>
</extensions>
</trkpt>
<trkpt lat="47.70120056346059" lon="12.163345897570252">
<ele>465</ele>
<time>2012-03-03T12:03:20Z</time>
<extensions>
<gpxtpx:TrackPointExtension>
<gpxtpx:hr>158</gpxtpx:hr>
<gpxtpx:atemp>11</gpxtpx:atemp>
</gpxtpx:TrackPointExtension>
</extensions>
</trkpt>
<trkpt lat="47.70113912411034" lon="12.163355369120836">
<ele>465</ele>
<time>2012-03-03T12:03:21Z</time>
<extensions>
<gpxtpx:TrackPointExtension>
<gpxtpx:hr>158</gpxtpx:hr>
<gpxtpx:atemp>11</gpxtpx:atemp>
</gpxtpx:TrackPointExtension>
</extensions>
</trkpt>
<trkpt lat="47.70090417936444" lon="12.163411863148212">
<ele>465</ele>
<time>2012-03-03T12:03:25Z</time>
<extensions>
<gpxtpx:TrackPointExtension>
<gpxtpx:hr>161</gpxtpx:hr>
<gpxtpx:atemp>11</gpxtpx:atemp>
</gpxtpx:TrackPointExtension>
</extensions>
</trkpt>
<trkpt lat="47.700787000358105" lon="12.16343181207776">
<ele>465</ele>
<time>2012-03-03T12:03:27Z</time>
<extensions>
<gpxtpx:TrackPointExtension>
<gpxtpx:hr>162</gpxtpx:hr>
<gpxtpx:atemp>11</gpxtpx:atemp>
</gpxtpx:TrackPointExtension>
</extensions>
</trkpt>
<trkpt lat="47.70041048526764" lon="12.16351680457592">
<ele>465</ele>
<time>2012-03-03T12:03:33Z</time>
<extensions>
<gpxtpx:TrackPointExtension>
<gpxtpx:hr>165</gpxtpx:hr>
<gpxtpx:atemp>11</gpxtpx:atemp>
</gpxtpx:TrackPointExtension>
</extensions>
</trkpt>
<trkpt lat="47.70034368149936" lon="12.16352753341198">
<ele>465</ele>
<time>2012-03-03T12:03:34Z</time>
<extensions>
<gpxtpx:TrackPointExtension>
<gpxtpx:hr>165</gpxtpx:hr>
<gpxtpx:atemp>11</gpxtpx:atemp>
</gpxtpx:TrackPointExtension>
</extensions>
</trkpt>
<trkpt lat="47.700155172497034" lon="12.163565587252378">
<ele>465</ele>
<time>2012-03-03T12:03:37Z</time>
<extensions>
<gpxtpx:TrackPointExtension>
<gpxtpx:hr>165</gpxtpx:hr>
<gpxtpx:atemp>11</gpxtpx:atemp>
</gpxtpx:TrackPointExtension>
</extensions>
</trkpt>
<trkpt lat="47.70002843812108" lon="12.163590732961893">
<ele>465</ele>
<time>2012-03-03T12:03:39Z</time>
<extensions>
<gpxtpx:TrackPointExtension>
<gpxtpx:hr>165</gpxtpx:hr>
<gpxtpx:atemp>11</gpxtpx:atemp>
</gpxtpx:TrackPointExtension>
</extensions>
</trkpt>
<trkpt lat="47.69982844591141" lon="12.163627361878753">
<ele>465</ele>
<time>2012-03-03T12:03:42Z</time>
<extensions>
<gpxtpx:TrackPointExtension>
<gpxtpx:hr>166</gpxtpx:hr>
<gpxtpx:atemp>11</gpxtpx:atemp>
</gpxtpx:TrackPointExtension>
</extensions>
</trkpt>
<trkpt lat="47.69963591359556" lon="12.163670780137181">
<ele>465</ele>
<time>2012-03-03T12:03:45Z</time>
<extensions>
<gpxtpx:TrackPointExtension>
<gpxtpx:hr>166</gpxtpx:hr>
<gpxtpx:atemp>11</gpxtpx:atemp>
</gpxtpx:TrackPointExtension>
</extensions>
</trkpt>
<trkpt lat="47.699237605556846" lon="12.163749570026994">
<ele>465</ele>
<time>2012-03-03T12:03:51Z</time>
<extensions>
<gpxtpx:TrackPointExtension>
<gpxtpx:hr>166</gpxtpx:hr>
<gpxtpx:atemp>11</gpxtpx:atemp>
</gpxtpx:TrackPointExtension>
</extensions>
</trkpt>
<trkpt lat="47.69883862696588" lon="12.163826851174235">
<ele>465</ele>
<time>2012-03-03T12:03:57Z</time>
<extensions>
<gpxtpx:TrackPointExtension>
<gpxtpx:hr>166</gpxtpx:hr>
<gpxtpx:atemp>11</gpxtpx:atemp>
</gpxtpx:TrackPointExtension>
</extensions>
</trkpt>
<trkpt lat="47.698307214304805" lon="12.16394143179059">
<ele>465</ele>
<time>2012-03-03T12:04:05Z</time>
<extensions>
<gpxtpx:TrackPointExtension>
<gpxtpx:hr>165</gpxtpx:hr>
<gpxtpx:atemp>11</gpxtpx:atemp>
</gpxtpx:TrackPointExtension>
</extensions>
</trkpt>
<trkpt lat="47.697841515764594" lon="12.164023574441671">
<ele>465</ele>
<time>2012-03-03T12:04:12Z</time>
<extensions>
<gpxtpx:TrackPointExtension>
<gpxtpx:hr>165</gpxtpx:hr>
<gpxtpx:atemp>11</gpxtpx:atemp>
</gpxtpx:TrackPointExtension>
</extensions>
</trkpt>
<trkpt lat="47.697303062304854" lon="12.164131365716457">
<ele>465</ele>
<time>2012-03-03T12:04:20Z</time>
<extensions>
<gpxtpx:TrackPointExtension>
<gpxtpx:hr>164</gpxtpx:hr>
<gpxtpx:atemp>11</gpxtpx:atemp>
</gpxtpx:TrackPointExtension>
</extensions>
</trkpt>
<trkpt lat="47.69723558798432" lon="12.164144609123468">
<ele>465</ele>
<time>2012-03-03T12:04:21Z</time>
<extensions>
<gpxtpx:TrackPointExtension>
<gpxtpx:hr>164</gpxtpx:hr>
<gpxtpx:atemp>11</gpxtpx:atemp>
</gpxtpx:TrackPointExtension>
</extensions>
</trkpt>
<trkpt lat="47.696824707090855" lon="12.164241168648005">
<ele>465</ele>
<time>2012-03-03T12:04:27Z</time>
<extensions>
<gpxtpx:TrackPointExtension>
<gpxtpx:hr>163</gpxtpx:hr>
<gpxtpx:atemp>11</gpxtpx:atemp>
</gpxtpx:TrackPointExtension>
</extensions>
</trkpt>
<trkpt lat="47.696405528113246" lon="12.164330435916781">
<ele>465</ele>
<time>2012-03-03T12:04:33Z</time>
<extensions>
<gpxtpx:TrackPointExtension>
<gpxtpx:hr>162</gpxtpx:hr>
<gpxtpx:atemp>11</gpxtpx:atemp>
</gpxtpx:TrackPointExtension>
</extensions>
</trkpt>
<trkpt lat="47.69611752592027" lon="12.164384918287396">
<ele>465</ele>
<time>2012-03-03T12:04:37Z</time>
<extensions>
<gpxtpx:TrackPointExtension>
<gpxtpx:hr>162</gpxtpx:hr>
<gpxtpx:atemp>11</gpxtpx:atemp>
</gpxtpx:TrackPointExtension>
</extensions>
</trkpt>
<trkpt lat="47.69597268663347" lon="12.16441442258656">
<ele>465</ele>
<time>2012-03-03T12:04:39Z</time>
<extensions>
<gpxtpx:TrackPointExtension>
<gpxtpx:hr>162</gpxtpx:hr>
<gpxtpx:atemp>11</gpxtpx:atemp>
</gpxtpx:TrackPointExtension>
</extensions>
</trkpt>
<trkpt lat="47.6954669225961" lon="12.1645228844136">
<ele>465</ele>
<time>2012-03-03T12:04:46Z</time>
<extensions>
<gpxtpx:TrackPointExtension>
<gpxtpx:hr>161</gpxtpx:hr>
<gpxtpx:atemp>11</gpxtpx:atemp>
</gpxtpx:TrackPointExtension>
</extensions>
</trkpt>
<trkpt lat="47.694941544905305" lon="12.164624892175198">
<ele>465</ele>
<time>2012-03-03T12:04:53Z</time>
<extensions>
<gpxtpx:TrackPointExtension>
<gpxtpx:hr>160</gpxtpx:hr>
<gpxtpx:atemp>11</gpxtpx:atemp>
</gpxtpx:TrackPointExtension>
</extensions>
</trkpt>
<trkpt lat="47.69434031099081" lon="12.16474718414247">
<ele>465</ele>
<time>2012-03-03T12:05:01Z</time>
<extensions>
<gpxtpx:TrackPointExtension>
<gpxtpx:hr>159</gpxtpx:hr>
<gpxtpx:atemp>11</gpxtpx:atemp>
</gpxtpx:TrackPointExtension>
</extensions>
</trkpt>
<trkpt lat="47.694266214966774" lon="12.164765037596226">
<ele>465</ele>
<time>2012-03-03T12:05:02Z</time>
<extensions>
<gpxtpx:TrackPointExtension>
<gpxtpx:hr>158</gpxtpx:hr>
<gpxtpx:atemp>11</gpxtpx:atemp>
</gpxtpx:TrackPointExtension>
</extensions>
</trkpt>
<trkpt lat="47.69389908760786" lon="12.164840558543801">
<ele>466</ele>
<time>2012-03-03T12:05:07Z</time>
<extensions>
<gpxtpx:TrackPointExtension>
<gpxtpx:hr>157</gpxtpx:hr>
<gpxtpx:atemp>11</gpxtpx:atemp>
</gpxtpx:TrackPointExtension>
</extensions>
</trkpt>
<trkpt lat="47.693822141736746" lon="12.164853550493717">
<ele>466</ele>
<time>2012-03-03T12:05:08Z</time>
<extensions>
<gpxtpx:TrackPointExtension>
<gpxtpx:hr>157</gpxtpx:hr>
<gpxtpx:atemp>11</gpxtpx:atemp>
</gpxtpx:TrackPointExtension>
</extensions>
</trkpt>
<trkpt lat="47.693746369332075" lon="12.164869392290711">
<ele>466</ele>
<time>2012-03-03T12:05:09Z</time>
<extensions>
<gpxtpx:TrackPointExtension>
<gpxtpx:hr>158</gpxtpx:hr>
<gpxtpx:atemp>11</gpxtpx:atemp>
</gpxtpx:TrackPointExtension>
</extensions>
</trkpt>
<trkpt lat="47.69367235712707" lon="12.164882887154818">
<ele>467</ele>
<time>2012-03-03T12:05:10Z</time>
<extensions>
<gpxtpx:TrackPointExtension>
<gpxtpx:hr>158</gpxtpx:hr>
<gpxtpx:atemp>11</gpxtpx:atemp>
</gpxtpx:TrackPointExtension>
</extensions>
</trkpt>
<trkpt lat="47.69359909929335" lon="12.164900992065668">
<ele>467</ele>
<time>2012-03-03T12:05:11Z</time>
<extensions>
<gpxtpx:TrackPointExtension>
<gpxtpx:hr>157</gpxtpx:hr>
<gpxtpx:atemp>11</gpxtpx:atemp>
</gpxtpx:TrackPointExtension>
</extensions>
</trkpt>
<trkpt lat="47.6935204770416" lon="12.164919264614582">
<ele>467</ele>
<time>2012-03-03T12:05:12Z</time>
<extensions>
<gpxtpx:TrackPointExtension>
<gpxtpx:hr>157</gpxtpx:hr>
<gpxtpx:atemp>11</gpxtpx:atemp>
</gpxtpx:TrackPointExtension>
</extensions>
</trkpt>
<trkpt lat="47.69294288009405" lon="12.165048513561487">
<ele>467</ele>
<time>2012-03-03T12:05:20Z</time>
<extensions>
<gpxtpx:TrackPointExtension>
<gpxtpx:hr>156</gpxtpx:hr>
<gpxtpx:atemp>11</gpxtpx:atemp>
</gpxtpx:TrackPointExtension>
</extensions>
</trkpt>
<trkpt lat="47.69241297617555" lon="12.165162591263652">
<ele>467</ele>
<time>2012-03-03T12:05:27Z</time>
<extensions>
<gpxtpx:TrackPointExtension>
<gpxtpx:hr>156</gpxtpx:hr>
<gpxtpx:atemp>11</gpxtpx:atemp>
</gpxtpx:TrackPointExtension>
</extensions>
</trkpt>
<trkpt lat="47.691864715889096" lon="12.165271388366818">
<ele>467</ele>
<time>2012-03-03T12:05:34Z</time>
<extensions>
<gpxtpx:TrackPointExtension>
<gpxtpx:hr>157</gpxtpx:hr>
<gpxtpx:atemp>11</gpxtpx:atemp>
</gpxtpx:TrackPointExtension>
</extensions>
</trkpt>
<trkpt lat="47.69178810529411" lon="12.165284380316734">
<ele>467</ele>
<time>2012-03-03T12:05:35Z</time>
<extensions>
<gpxtpx:TrackPointExtension>
<gpxtpx:hr>158</gpxtpx:hr>
<gpxtpx:atemp>11</gpxtpx:atemp>
</gpxtpx:TrackPointExtension>
</extensions>
</trkpt>
<trkpt lat="47.69124152138829" lon="12.165397619828582">
<ele>467</ele>
<time>2012-03-03T12:05:42Z</time>
<extensions>
<gpxtpx:TrackPointExtension>
<gpxtpx:hr>159</gpxtpx:hr>
<gpxtpx:atemp>11</gpxtpx:atemp>
</gpxtpx:TrackPointExtension>
</extensions>
</trkpt>
<trkpt lat="47.690634336322546" lon="12.165531562641263">
<ele>467</ele>
<time>2012-03-03T12:05:50Z</time>
<extensions>
<gpxtpx:TrackPointExtension>
<gpxtpx:hr>160</gpxtpx:hr>
<gpxtpx:atemp>11</gpxtpx:atemp>
</gpxtpx:TrackPointExtension>
</extensions>
</trkpt>
<trkpt lat="47.69003192894161" lon="12.165670115500689">
<ele>467</ele>
<time>2012-03-03T12:05:58Z</time>
<extensions>
<gpxtpx:TrackPointExtension>
<gpxtpx:hr>159</gpxtpx:hr>
<gpxtpx:atemp>11</gpxtpx:atemp>
</gpxtpx:TrackPointExtension>
</extensions>
</trkpt>
<trkpt lat="47.68995741382241" lon="12.165693501010537">
<ele>467</ele>
<time>2012-03-03T12:05:59Z</time>
<extensions>
<gpxtpx:TrackPointExtension>
<gpxtpx:hr>159</gpxtpx:hr>
<gpxtpx:atemp>11</gpxtpx:atemp>
</gpxtpx:TrackPointExtension>
</extensions>
</trkpt>
<trkpt lat="47.689368249848485" lon="12.165859630331397">
<ele>467</ele>
<time>2012-03-03T12:06:07Z</time>
<extensions>
<gpxtpx:TrackPointExtension>
<gpxtpx:hr>158</gpxtpx:hr>
<gpxtpx:atemp>11</gpxtpx:atemp>
</gpxtpx:TrackPointExtension>
</extensions>
</trkpt>
<trkpt lat="47.689292980358005" lon="12.165885362774134">
<ele>467</ele>
<time>2012-03-03T12:06:08Z</time>
<extensions>
<gpxtpx:TrackPointExtension>
<gpxtpx:hr>158</gpxtpx:hr>
<gpxtpx:atemp>11</gpxtpx:atemp>
</gpxtpx:TrackPointExtension>
</extensions>
</trkpt>
<trkpt lat="47.688755448907614" lon="12.166074961423874">
<ele>467</ele>
<time>2012-03-03T12:06:15Z</time>
<extensions>
<gpxtpx:TrackPointExtension>
<gpxtpx:hr>157</gpxtpx:hr>
<gpxtpx:atemp>11</gpxtpx:atemp>
</gpxtpx:TrackPointExtension>
</extensions>
</trkpt>
<trkpt lat="47.68868135288358" lon="12.166102202609181">
<ele>467</ele>
<time>2012-03-03T12:06:16Z</time>
<extensions>
<gpxtpx:TrackPointExtension>
<gpxtpx:hr>157</gpxtpx:hr>
<gpxtpx:atemp>11</gpxtpx:atemp>
</gpxtpx:TrackPointExtension>
</extensions>
</trkpt>
<trkpt lat="47.68815480172634" lon="12.166282162070274">
<ele>467</ele>
<time>2012-03-03T12:06:23Z</time>
<extensions>
<gpxtpx:TrackPointExtension>
<gpxtpx:hr>157</gpxtpx:hr>
<gpxtpx:atemp>11</gpxtpx:atemp>
</gpxtpx:TrackPointExtension>
</extensions>
</trkpt>
<trkpt lat="47.6876422483474" lon="12.166462624445558">
<ele>468</ele>
<time>2012-03-03T12:06:30Z</time>
<extensions>
<gpxtpx:TrackPointExtension>
<gpxtpx:hr>156</gpxtpx:hr>
<gpxtpx:atemp>11</gpxtpx:atemp>
</gpxtpx:TrackPointExtension>
</extensions>
</trkpt>
<trkpt lat="47.6875732652843" lon="12.166488021612167">
<ele>468</ele>
<time>2012-03-03T12:06:31Z</time>
<extensions>
<gpxtpx:TrackPointExtension>
<gpxtpx:hr>157</gpxtpx:hr>
<gpxtpx:atemp>11</gpxtpx:atemp>
</gpxtpx:TrackPointExtension>
</extensions>
</trkpt>
<trkpt lat="47.68750185146928" lon="12.16651157476008">
<ele>469</ele>
<time>2012-03-03T12:06:32Z</time>
<extensions>
<gpxtpx:TrackPointExtension>
<gpxtpx:hr>157</gpxtpx:hr>
<gpxtpx:atemp>11</gpxtpx:atemp>
</gpxtpx:TrackPointExtension>
</extensions>
</trkpt>
<trkpt lat="47.68743027001619" lon="12.166534960269928">
<ele>469</ele>
<time>2012-03-03T12:06:33Z</time>
<extensions>
<gpxtpx:TrackPointExtension>
<gpxtpx:hr>157</gpxtpx:hr>
<gpxtpx:atemp>11</gpxtpx:atemp>
</gpxtpx:TrackPointExtension>
</extensions>
</trkpt>
<trkpt lat="47.68735910765827" lon="12.166558764874935">
<ele>469</ele>
<time>2012-03-03T12:06:34Z</time>
<extensions>
<gpxtpx:TrackPointExtension>
<gpxtpx:hr>156</gpxtpx:hr>
<gpxtpx:atemp>11</gpxtpx:atemp>
</gpxtpx:TrackPointExtension>
</extensions>
</trkpt>
<trkpt lat="47.68686424009502" lon="12.166717266663909">
<ele>469</ele>
<time>2012-03-03T12:06:41Z</time>
<extensions>
<gpxtpx:TrackPointExtension>
<gpxtpx:hr>155</gpxtpx:hr>
<gpxtpx:atemp>11</gpxtpx:atemp>
</gpxtpx:TrackPointExtension>
</extensions>
</trkpt>
<trkpt lat="47.68643768504262" lon="12.16687023639679">
<ele>469</ele>
<time>2012-03-03T12:06:47Z</time>
<extensions>
<gpxtpx:TrackPointExtension>
<gpxtpx:hr>156</gpxtpx:hr>
<gpxtpx:atemp>11</gpxtpx:atemp>
</gpxtpx:TrackPointExtension>
</extensions>
</trkpt>
<trkpt lat="47.6858739182353" lon="12.167074838653207">
<ele>469</ele>
<time>2012-03-03T12:06:55Z</time>
<extensions>
<gpxtpx:TrackPointExtension>
<gpxtpx:hr>157</gpxtpx:hr>
<gpxtpx:atemp>11</gpxtpx:atemp>
</gpxtpx:TrackPointExtension>
</extensions>
</trkpt>
<trkpt lat="47.685805102810264" lon="12.167098727077246">
<ele>469</ele>
<time>2012-03-03T12:06:56Z</time>
<extensions>
<gpxtpx:TrackPointExtension>
<gpxtpx:hr>157</gpxtpx:hr>
<gpxtpx:atemp>11</gpxtpx:atemp>
</gpxtpx:TrackPointExtension>
</extensions>
</trkpt>
<trkpt lat="47.68524334765971" lon="12.167293606325984">
<ele>469</ele>
<time>2012-03-03T12:07:04Z</time>
<extensions>
<gpxtpx:TrackPointExtension>
<gpxtpx:hr>156</gpxtpx:hr>
<gpxtpx:atemp>11</gpxtpx:atemp>
</gpxtpx:TrackPointExtension>
</extensions>
</trkpt>
<trkpt lat="47.68509934656322" lon="12.16733694076538">
<ele>469</ele>
<time>2012-03-03T12:07:06Z</time>
<extensions>
<gpxtpx:TrackPointExtension>
<gpxtpx:hr>156</gpxtpx:hr>
<gpxtpx:atemp>11</gpxtpx:atemp>
</gpxtpx:TrackPointExtension>
</extensions>
</trkpt>
<trkpt lat="47.68461646512151" lon="12.167504746466875">
<ele>469</ele>
<time>2012-03-03T12:07:13Z</time>
<extensions>
<gpxtpx:TrackPointExtension>
<gpxtpx:hr>157</gpxtpx:hr>
<gpxtpx:atemp>11</gpxtpx:atemp>
</gpxtpx:TrackPointExtension>
</extensions>
</trkpt>
<trkpt lat="47.68406057730317" lon="12.167682107537985">
<ele>469</ele>
<time>2012-03-03T12:07:21Z</time>
<extensions>
<gpxtpx:TrackPointExtension>
<gpxtpx:hr>157</gpxtpx:hr>
<gpxtpx:atemp>11</gpxtpx:atemp>
</gpxtpx:TrackPointExtension>
</extensions>
</trkpt>
<trkpt lat="47.683574510738254" lon="12.167840776965022">
<ele>469</ele>
<time>2012-03-03T12:07:28Z</time>
<extensions>
<gpxtpx:TrackPointExtension>
<gpxtpx:hr>156</gpxtpx:hr>
<gpxtpx:atemp>11</gpxtpx:atemp>
</gpxtpx:TrackPointExtension>
</extensions>
</trkpt>
<trkpt lat="47.68309975974262" lon="12.168032806366682">
<ele>469</ele>
<time>2012-03-03T12:07:35Z</time>
<extensions>
<gpxtpx:TrackPointExtension>
<gpxtpx:hr>155</gpxtpx:hr>
<gpxtpx:atemp>11</gpxtpx:atemp>
</gpxtpx:TrackPointExtension>
</extensions>
</trkpt>
<trkpt lat="47.68255812115967" lon="12.168245119974017">
<ele>469</ele>
<time>2012-03-03T12:07:43Z</time>
<extensions>
<gpxtpx:TrackPointExtension>
<gpxtpx:hr>153</gpxtpx:hr>
<gpxtpx:atemp>11</gpxtpx:atemp>
</gpxtpx:TrackPointExtension>
</extensions>
</trkpt>
<trkpt lat="47.682489389553666" lon="12.168279904872179">
<ele>469</ele>
<time>2012-03-03T12:07:44Z</time>
<extensions>
<gpxtpx:TrackPointExtension>
<gpxtpx:hr>153</gpxtpx:hr>
<gpxtpx:atemp>11</gpxtpx:atemp>
</gpxtpx:TrackPointExtension>
</extensions>
</trkpt>
<trkpt lat="47.682030564174056" lon="12.168479561805725">
<ele>469</ele>
<time>2012-03-03T12:07:51Z</time>
<extensions>
<gpxtpx:TrackPointExtension>
<gpxtpx:hr>154</gpxtpx:hr>
<gpxtpx:atemp>10</gpxtpx:atemp>
</gpxtpx:TrackPointExtension>
</extensions>
</trkpt>
<trkpt lat="47.68163946457207" lon="12.168682739138603">
<ele>469</ele>
<time>2012-03-03T12:07:57Z</time>
<extensions>
<gpxtpx:TrackPointExtension>
<gpxtpx:hr>153</gpxtpx:hr>
<gpxtpx:atemp>10</gpxtpx:atemp>
</gpxtpx:TrackPointExtension>
</extensions>
</trkpt>
<trkpt lat="47.68112037330866" lon="12.168977614492178">
<ele>469</ele>
<time>2012-03-03T12:08:05Z</time>
<extensions>
<gpxtpx:TrackPointExtension>
<gpxtpx:hr>153</gpxtpx:hr>
<gpxtpx:atemp>10</gpxtpx:atemp>
</gpxtpx:TrackPointExtension>
</extensions>
</trkpt>
<trkpt lat="47.68105650320649" lon="12.169018350541592">
<ele>469</ele>
<time>2012-03-03T12:08:06Z</time>
<extensions>
<gpxtpx:TrackPointExtension>
<gpxtpx:hr>154</gpxtpx:hr>
<gpxtpx:atemp>10</gpxtpx:atemp>
</gpxtpx:TrackPointExtension>
</extensions>
</trkpt>
<trkpt lat="47.68061125651002" lon="12.169270729646087">
<ele>469</ele>
<time>2012-03-03T12:08:13Z</time>
<extensions>
<gpxtpx:TrackPointExtension>
<gpxtpx:hr>156</gpxtpx:hr>
<gpxtpx:atemp>10</gpxtpx:atemp>
</gpxtpx:TrackPointExtension>
</extensions>
</trkpt>
<trkpt lat="47.680155700072646" lon="12.169583542272449">
<ele>469</ele>
<time>2012-03-03T12:08:20Z</time>
<extensions>
<gpxtpx:TrackPointExtension>
<gpxtpx:hr>155</gpxtpx:hr>
<gpxtpx:atemp>10</gpxtpx:atemp>
</gpxtpx:TrackPointExtension>
</extensions>
</trkpt>
<trkpt lat="47.67971497960389" lon="12.169875567778945">
<ele>469</ele>
<time>2012-03-03T12:08:27Z</time>
<extensions>
<gpxtpx:TrackPointExtension>
<gpxtpx:hr>156</gpxtpx:hr>
<gpxtpx:atemp>10</gpxtpx:atemp>
</gpxtpx:TrackPointExtension>
</extensions>
</trkpt>
<trkpt lat="47.67927375622094" lon="12.170183602720499">
<ele>469</ele>
<time>2012-03-03T12:08:34Z</time>
<extensions>
<gpxtpx:TrackPointExtension>
<gpxtpx:hr>154</gpxtpx:hr>
<gpxtpx:atemp>10</gpxtpx:atemp>
</gpxtpx:TrackPointExtension>
</extensions>
</trkpt>
<trkpt lat="47.67914752475917" lon="12.170291058719158">
<ele>469</ele>
<time>2012-03-03T12:08:36Z</time>
<extensions>
<gpxtpx:TrackPointExtension>
<gpxtpx:hr>154</gpxtpx:hr>
<gpxtpx:atemp>10</gpxtpx:atemp>
</gpxtpx:TrackPointExtension>
</extensions>
</trkpt>
<trkpt lat="47.678699009120464" lon="12.17062097042799">
<ele>469</ele>
<time>2012-03-03T12:08:43Z</time>
<extensions>
<gpxtpx:TrackPointExtension>
<gpxtpx:hr>155</gpxtpx:hr>
<gpxtpx:atemp>10</gpxtpx:atemp>
</gpxtpx:TrackPointExtension>
</extensions>
</trkpt>
<trkpt lat="47.67832953482866" lon="12.170913079753518">
<ele>469</ele>
<time>2012-03-03T12:08:49Z</time>
<extensions>
<gpxtpx:TrackPointExtension>
<gpxtpx:hr>156</gpxtpx:hr>
<gpxtpx:atemp>10</gpxtpx:atemp>
</gpxtpx:TrackPointExtension>
</extensions>
</trkpt>
<trkpt lat="47.67784849740565" lon="12.171312225982547">
<ele>469</ele>
<time>2012-03-03T12:08:57Z</time>
<extensions>
<gpxtpx:TrackPointExtension>
<gpxtpx:hr>156</gpxtpx:hr>
<gpxtpx:atemp>10</gpxtpx:atemp>
</gpxtpx:TrackPointExtension>
</extensions>
</trkpt>
<trkpt lat="47.67743803560734" lon="12.171677509322762">
<ele>469</ele>
<time>2012-03-03T12:09:04Z</time>
<extensions>
<gpxtpx:TrackPointExtension>
<gpxtpx:hr>155</gpxtpx:hr>
<gpxtpx:atemp>10</gpxtpx:atemp>
</gpxtpx:TrackPointExtension>
</extensions>
</trkpt>
<trkpt lat="47.676978036761284" lon="12.172133820131421">
<ele>469</ele>
<time>2012-03-03T12:09:12Z</time>
<extensions>
<gpxtpx:TrackPointExtension>
<gpxtpx:hr>154</gpxtpx:hr>
<gpxtpx:atemp>10</gpxtpx:atemp>
</gpxtpx:TrackPointExtension>
</extensions>
</trkpt>
<trkpt lat="47.676633121445775" lon="12.17248611152172">
<ele>469</ele>
<time>2012-03-03T12:09:18Z</time>
<extensions>
<gpxtpx:TrackPointExtension>
<gpxtpx:hr>154</gpxtpx:hr>
<gpxtpx:atemp>10</gpxtpx:atemp>
</gpxtpx:TrackPointExtension>
</extensions>
</trkpt>
<trkpt lat="47.67615208402276" lon="12.17299078591168">
<ele>469</ele>
<time>2012-03-03T12:09:27Z</time>
<extensions>
<gpxtpx:TrackPointExtension>
<gpxtpx:hr>153</gpxtpx:hr>
<gpxtpx:atemp>10</gpxtpx:atemp>
</gpxtpx:TrackPointExtension>
</extensions>
</trkpt>
<trkpt lat="47.67582518979907" lon="12.17339001595974">
<ele>469</ele>
<time>2012-03-03T12:09:33Z</time>
<extensions>
<gpxtpx:TrackPointExtension>
<gpxtpx:hr>151</gpxtpx:hr>
<gpxtpx:atemp>10</gpxtpx:atemp>
</gpxtpx:TrackPointExtension>
</extensions>
</trkpt>
<trkpt lat="47.67538052983582" lon="12.173944730311632">
<ele>469</ele>
<time>2012-03-03T12:09:41Z</time>
<extensions>
<gpxtpx:TrackPointExtension>
<gpxtpx:hr>153</gpxtpx:hr>
<gpxtpx:atemp>10</gpxtpx:atemp>
</gpxtpx:TrackPointExtension>
</extensions>
</trkpt>
<trkpt lat="47.67503569833934" lon="12.17438687570393">
<ele>469</ele>
<time>2012-03-03T12:09:47Z</time>
<extensions>
<gpxtpx:TrackPointExtension>
<gpxtpx:hr>153</gpxtpx:hr>
<gpxtpx:atemp>10</gpxtpx:atemp>
</gpxtpx:TrackPointExtension>
</extensions>
</trkpt>
<trkpt lat="47.67464308999479" lon="12.17493899166584">
<ele>469</ele>
<time>2012-03-03T12:09:54Z</time>
<extensions>
<gpxtpx:TrackPointExtension>
<gpxtpx:hr>152</gpxtpx:hr>
<gpxtpx:atemp>10</gpxtpx:atemp>
</gpxtpx:TrackPointExtension>
</extensions>
</trkpt>
<trkpt lat="47.67452725209296" lon="12.175095984712243">
<ele>469</ele>
<time>2012-03-03T12:09:56Z</time>
<extensions>
<gpxtpx:TrackPointExtension>
<gpxtpx:hr>152</gpxtpx:hr>
<gpxtpx:atemp>10</gpxtpx:atemp>
</gpxtpx:TrackPointExtension>
</extensions>
</trkpt>
<trkpt lat="47.67414855770767" lon="12.175678526982665">
<ele>469</ele>
<time>2012-03-03T12:10:03Z</time>
<extensions>
<gpxtpx:TrackPointExtension>
<gpxtpx:hr>152</gpxtpx:hr>
<gpxtpx:atemp>10</gpxtpx:atemp>
</gpxtpx:TrackPointExtension>
</extensions>
</trkpt>
<trkpt lat="47.674110755324364" lon="12.175779026001692">
<ele>469</ele>
<time>2012-03-03T12:10:04Z</time>
<extensions>
<gpxtpx:TrackPointExtension>
<gpxtpx:hr>152</gpxtpx:hr>
<gpxtpx:atemp>10</gpxtpx:atemp>
</gpxtpx:TrackPointExtension>
</extensions>
</trkpt>
<trkpt lat="47.67400941811502" lon="12.176203401759267">
<ele>469</ele>
<time>2012-03-03T12:10:08Z</time>
<extensions>
<gpxtpx:TrackPointExtension>
<gpxtpx:hr>152</gpxtpx:hr>
<gpxtpx:atemp>10</gpxtpx:atemp>
</gpxtpx:TrackPointExtension>
</extensions>
</trkpt>
<trkpt lat="47.6739242579788" lon="12.176855094730854">
<ele>469</ele>
<time>2012-03-03T12:10:14Z</time>
<extensions>
<gpxtpx:TrackPointExtension>
<gpxtpx:hr>149</gpxtpx:hr>
<gpxtpx:atemp>10</gpxtpx:atemp>
</gpxtpx:TrackPointExtension>
</extensions>
</trkpt>
<trkpt lat="47.67390984110534" lon="12.17696095816791">
<ele>469</ele>
<time>2012-03-03T12:10:15Z</time>
<extensions>
<gpxtpx:TrackPointExtension>
<gpxtpx:hr>149</gpxtpx:hr>
<gpxtpx:atemp>10</gpxtpx:atemp>
</gpxtpx:TrackPointExtension>
</extensions>
</trkpt>
<trkpt lat="47.67386918887496" lon="12.177472757175565">
<ele>469</ele>
<time>2012-03-03T12:10:20Z</time>
<extensions>
<gpxtpx:TrackPointExtension>
<gpxtpx:hr>150</gpxtpx:hr>
<gpxtpx:atemp>10</gpxtpx:atemp>
</gpxtpx:TrackPointExtension>
</extensions>
</trkpt>
<trkpt lat="47.67387899570167" lon="12.17756923288107">
<ele>469</ele>
<time>2012-03-03T12:10:21Z</time>
<extensions>
<gpxtpx:TrackPointExtension>
<gpxtpx:hr>151</gpxtpx:hr>
<gpxtpx:atemp>10</gpxtpx:atemp>
</gpxtpx:TrackPointExtension>
</extensions>
</trkpt>
<trkpt lat="47.6739052310586" lon="12.177863772958517">
<ele>469</ele>
<time>2012-03-03T12:10:24Z</time>
<extensions>
<gpxtpx:TrackPointExtension>
<gpxtpx:hr>151</gpxtpx:hr>
<gpxtpx:atemp>10</gpxtpx:atemp>
</gpxtpx:TrackPointExtension>
</extensions>
</trkpt>
<trkpt lat="47.67393716610968" lon="12.178157391026616">
<ele>469</ele>
<time>2012-03-03T12:10:27Z</time>
<extensions>
<gpxtpx:TrackPointExtension>
<gpxtpx:hr>151</gpxtpx:hr>
<gpxtpx:atemp>10</gpxtpx:atemp>
</gpxtpx:TrackPointExtension>
</extensions>
</trkpt>
<trkpt lat="47.67396482639015" lon="12.178345145657659">
<ele>469</ele>
<time>2012-03-03T12:10:30Z</time>
<extensions>
<gpxtpx:TrackPointExtension>
<gpxtpx:hr>148</gpxtpx:hr>
<gpxtpx:atemp>10</gpxtpx:atemp>
</gpxtpx:TrackPointExtension>
</extensions>
</trkpt>
<trkpt lat="47.67395569011569" lon="12.178368950262666">
<ele>469</ele>
<time>2012-03-03T12:10:31Z</time>
<extensions>
<gpxtpx:TrackPointExtension>
<gpxtpx:hr>147</gpxtpx:hr>
<gpxtpx:atemp>10</gpxtpx:atemp>
</gpxtpx:TrackPointExtension>
</extensions>
</trkpt>
<trkpt lat="47.67392291687429" lon="12.178406417369843">
<ele>469</ele>
<time>2012-03-03T12:10:35Z</time>
<extensions>
<gpxtpx:TrackPointExtension>
<gpxtpx:hr>145</gpxtpx:hr>
<gpxtpx:atemp>10</gpxtpx:atemp>
</gpxtpx:TrackPointExtension>
</extensions>
</trkpt>
<trkpt lat="47.673793165013194" lon="12.17853725887835">
<ele>469</ele>
<time>2012-03-03T12:10:39Z</time>
<extensions>
<gpxtpx:TrackPointExtension>
<gpxtpx:hr>144</gpxtpx:hr>
<gpxtpx:atemp>10</gpxtpx:atemp>
</gpxtpx:TrackPointExtension>
</extensions>
</trkpt>
<trkpt lat="47.67375092022121" lon="12.17859199270606">
<ele>469</ele>
<time>2012-03-03T12:10:40Z</time>
<extensions>
<gpxtpx:TrackPointExtension>
<gpxtpx:hr>144</gpxtpx:hr>
<gpxtpx:atemp>10</gpxtpx:atemp>
</gpxtpx:TrackPointExtension>
</extensions>
</trkpt>
<trkpt lat="47.67360080033541" lon="12.178783770650625">
<ele>469</ele>
<time>2012-03-03T12:10:43Z</time>
<extensions>
<gpxtpx:TrackPointExtension>
<gpxtpx:hr>144</gpxtpx:hr>
<gpxtpx:atemp>10</gpxtpx:atemp>
</gpxtpx:TrackPointExtension>
</extensions>
</trkpt>
<trkpt lat="47.673344649374485" lon="12.17911477200687">
<ele>469</ele>
<time>2012-03-03T12:10:48Z</time>
<extensions>
<gpxtpx:TrackPointExtension>
<gpxtpx:hr>147</gpxtpx:hr>
<gpxtpx:atemp>10</gpxtpx:atemp>
</gpxtpx:TrackPointExtension>
</extensions>
</trkpt>
<trkpt lat="47.67323945648968" lon="12.17924921773374">
<ele>469</ele>
<time>2012-03-03T12:10:50Z</time>
<extensions>
<gpxtpx:TrackPointExtension>
<gpxtpx:hr>149</gpxtpx:hr>
<gpxtpx:atemp>10</gpxtpx:atemp>
</gpxtpx:TrackPointExtension>
</extensions>
</trkpt>
<trkpt lat="47.67285933718085" lon="12.179714161902666">
<ele>469</ele>
<time>2012-03-03T12:10:57Z</time>
<extensions>
<gpxtpx:TrackPointExtension>
<gpxtpx:hr>148</gpxtpx:hr>
<gpxtpx:atemp>10</gpxtpx:atemp>
</gpxtpx:TrackPointExtension>
</extensions>
</trkpt>
<trkpt lat="47.67240026034415" lon="12.180297458544374">
<ele>469</ele>
<time>2012-03-03T12:11:06Z</time>
<extensions>
<gpxtpx:TrackPointExtension>
<gpxtpx:hr>148</gpxtpx:hr>
<gpxtpx:atemp>10</gpxtpx:atemp>
</gpxtpx:TrackPointExtension>
</extensions>
</trkpt>
<trkpt lat="47.6723475381732" lon="12.180361580103636">
<ele>469</ele>
<time>2012-03-03T12:11:07Z</time>
<extensions>
<gpxtpx:TrackPointExtension>
<gpxtpx:hr>148</gpxtpx:hr>
<gpxtpx:atemp>10</gpxtpx:atemp>
</gpxtpx:TrackPointExtension>
</extensions>
</trkpt>
<trkpt lat="47.67197144217789" lon="12.18081520870328">
<ele>469</ele>
<time>2012-03-03T12:11:14Z</time>
<extensions>
<gpxtpx:TrackPointExtension>
<gpxtpx:hr>149</gpxtpx:hr>
<gpxtpx:atemp>10</gpxtpx:atemp>
</gpxtpx:TrackPointExtension>
</extensions>
</trkpt>
<trkpt lat="47.67152762040496" lon="12.181367324665189">
<ele>469</ele>
<time>2012-03-03T12:11:22Z</time>
<extensions>
<gpxtpx:TrackPointExtension>
<gpxtpx:hr>150</gpxtpx:hr>
<gpxtpx:atemp>10</gpxtpx:atemp>
</gpxtpx:TrackPointExtension>
</extensions>
</trkpt>
<trkpt lat="47.67121346667409" lon="12.181774517521262">
<ele>469</ele>
<time>2012-03-03T12:11:28Z</time>
<extensions>
<gpxtpx:TrackPointExtension>
<gpxtpx:hr>147</gpxtpx:hr>
<gpxtpx:atemp>10</gpxtpx:atemp>
</gpxtpx:TrackPointExtension>
</extensions>
</trkpt>
<trkpt lat="47.67116309143603" lon="12.181836375966668">
<ele>469</ele>
<time>2012-03-03T12:11:29Z</time>
<extensions>
<gpxtpx:TrackPointExtension>
<gpxtpx:hr>147</gpxtpx:hr>
<gpxtpx:atemp>10</gpxtpx:atemp>
</gpxtpx:TrackPointExtension>
</extensions>
</trkpt>
<trkpt lat="47.67079948447645" lon="12.182321436703205">
<ele>469</ele>
<time>2012-03-03T12:11:36Z</time>
<extensions>
<gpxtpx:TrackPointExtension>
<gpxtpx:hr>147</gpxtpx:hr>
<gpxtpx:atemp>10</gpxtpx:atemp>
</gpxtpx:TrackPointExtension>
</extensions>
</trkpt>
<trkpt lat="47.67047451809049" lon="12.182729803025723">
<ele>469</ele>
<time>2012-03-03T12:11:42Z</time>
<extensions>
<gpxtpx:TrackPointExtension>
<gpxtpx:hr>150</gpxtpx:hr>
<gpxtpx:atemp>10</gpxtpx:atemp>
</gpxtpx:TrackPointExtension>
</extensions>
</trkpt>
<trkpt lat="47.67041735351086" lon="12.182796187698841">
<ele>469</ele>
<time>2012-03-03T12:11:43Z</time>
<extensions>
<gpxtpx:TrackPointExtension>
<gpxtpx:hr>150</gpxtpx:hr>
<gpxtpx:atemp>10</gpxtpx:atemp>
</gpxtpx:TrackPointExtension>
</extensions>
</trkpt>
<trkpt lat="47.67002918757498" lon="12.183274962008">
<ele>469</ele>
<time>2012-03-03T12:11:50Z</time>
<extensions>
<gpxtpx:TrackPointExtension>
<gpxtpx:hr>149</gpxtpx:hr>
<gpxtpx:atemp>10</gpxtpx:atemp>
</gpxtpx:TrackPointExtension>
</extensions>
</trkpt>
<trkpt lat="47.66966122202575" lon="12.183613171800971">
<ele>469</ele>
<time>2012-03-03T12:11:56Z</time>
<extensions>
<gpxtpx:TrackPointExtension>
<gpxtpx:hr>149</gpxtpx:hr>
<gpxtpx:atemp>10</gpxtpx:atemp>
</gpxtpx:TrackPointExtension>
</extensions>
</trkpt>
<trkpt lat="47.66941445879638" lon="12.183852810412645">
<ele>469</ele>
<time>2012-03-03T12:12:00Z</time>
<extensions>
<gpxtpx:TrackPointExtension>
<gpxtpx:hr>146</gpxtpx:hr>
<gpxtpx:atemp>10</gpxtpx:atemp>
</gpxtpx:TrackPointExtension>
</extensions>
</trkpt>
<trkpt lat="47.669156547635794" lon="12.184086497873068">
<ele>469</ele>
<time>2012-03-03T12:12:04Z</time>
<extensions>
<gpxtpx:TrackPointExtension>
<gpxtpx:hr>144</gpxtpx:hr>
<gpxtpx:atemp>10</gpxtpx:atemp>
</gpxtpx:TrackPointExtension>
</extensions>
</trkpt>
<trkpt lat="47.6690873131156" lon="12.184135867282748">
<ele>468</ele>
<time>2012-03-03T12:12:05Z</time>
<extensions>
<gpxtpx:TrackPointExtension>
<gpxtpx:hr>144</gpxtpx:hr>
<gpxtpx:atemp>10</gpxtpx:atemp>
</gpxtpx:TrackPointExtension>
</extensions>
</trkpt>
<trkpt lat="47.66902377828956" lon="12.184172915294766">
<ele>468</ele>
<time>2012-03-03T12:12:06Z</time>
<extensions>
<gpxtpx:TrackPointExtension>
<gpxtpx:hr>144</gpxtpx:hr>
<gpxtpx:atemp>10</gpxtpx:atemp>
</gpxtpx:TrackPointExtension>
</extensions>
</trkpt>
<trkpt lat="47.668962590396404" lon="12.184206526726484">
<ele>468</ele>
<time>2012-03-03T12:12:07Z</time>
<extensions>
<gpxtpx:TrackPointExtension>
<gpxtpx:hr>144</gpxtpx:hr>
<gpxtpx:atemp>10</gpxtpx:atemp>
</gpxtpx:TrackPointExtension>
</extensions>
</trkpt>
<trkpt lat="47.668904419988394" lon="12.184245083481073">
<ele>467</ele>
<time>2012-03-03T12:12:08Z</time>
<extensions>
<gpxtpx:TrackPointExtension>
<gpxtpx:hr>143</gpxtpx:hr>
<gpxtpx:atemp>10</gpxtpx:atemp>
</gpxtpx:TrackPointExtension>
</extensions>
</trkpt>
<trkpt lat="47.66884717158973" lon="12.184286573901772">
<ele>467</ele>
<time>2012-03-03T12:12:09Z</time>
<extensions>
<gpxtpx:TrackPointExtension>
<gpxtpx:hr>143</gpxtpx:hr>
<gpxtpx:atemp>10</gpxtpx:atemp>
</gpxtpx:TrackPointExtension>
</extensions>
</trkpt>
<trkpt lat="47.668740805238485" lon="12.184397969394922">
<ele>467</ele>
<time>2012-03-03T12:12:11Z</time>
<extensions>
<gpxtpx:TrackPointExtension>
<gpxtpx:hr>143</gpxtpx:hr>
<gpxtpx:atemp>10</gpxtpx:atemp>
</gpxtpx:TrackPointExtension>
</extensions>
</trkpt>
<trkpt lat="47.6685828063637" lon="12.184577258303761">
<ele>467</ele>
<time>2012-03-03T12:12:14Z</time>
<extensions>
<gpxtpx:TrackPointExtension>
<gpxtpx:hr>142</gpxtpx:hr>
<gpxtpx:atemp>10</gpxtpx:atemp>
</gpxtpx:TrackPointExtension>
</extensions>
</trkpt>
<trkpt lat="47.66839262098074" lon="12.184802982956171">
<ele>467</ele>
<time>2012-03-03T12:12:18Z</time>
<extensions>
<gpxtpx:TrackPointExtension>
<gpxtpx:hr>139</gpxtpx:hr>
<gpxtpx:atemp>10</gpxtpx:atemp>
</gpxtpx:TrackPointExtension>
</extensions>
</trkpt>
<trkpt lat="47.66833285801113" lon="12.184832571074367">
<ele>467</ele>
<time>2012-03-03T12:12:19Z</time>
<extensions>
<gpxtpx:TrackPointExtension>
<gpxtpx:hr>138</gpxtpx:hr>
<gpxtpx:atemp>10</gpxtpx:atemp>
</gpxtpx:TrackPointExtension>
</extensions>
</trkpt>
<trkpt lat="47.66813462600112" lon="12.18475604429841">
<ele>467</ele>
<time>2012-03-03T12:12:22Z</time>
<extensions>
<gpxtpx:TrackPointExtension>
<gpxtpx:hr>139</gpxtpx:hr>
<gpxtpx:atemp>10</gpxtpx:atemp>
</gpxtpx:TrackPointExtension>
</extensions>
</trkpt>
<trkpt lat="47.66800311394036" lon="12.18470768071711">
<ele>468</ele>
<time>2012-03-03T12:12:24Z</time>
<extensions>
<gpxtpx:TrackPointExtension>
<gpxtpx:hr>140</gpxtpx:hr>
<gpxtpx:atemp>10</gpxtpx:atemp>
</gpxtpx:TrackPointExtension>
</extensions>
</trkpt>
<trkpt lat="47.66793488524854" lon="12.18468714505434">
<ele>468</ele>
<time>2012-03-03T12:12:25Z</time>
<extensions>
<gpxtpx:TrackPointExtension>
<gpxtpx:hr>141</gpxtpx:hr>
<gpxtpx:atemp>10</gpxtpx:atemp>
</gpxtpx:TrackPointExtension>
</extensions>
</trkpt>
<trkpt lat="47.667871098965406" lon="12.184664346277714">
<ele>469</ele>
<time>2012-03-03T12:12:26Z</time>
<extensions>
<gpxtpx:TrackPointExtension>
<gpxtpx:hr>142</gpxtpx:hr>
<gpxtpx:atemp>10</gpxtpx:atemp>
</gpxtpx:TrackPointExtension>
</extensions>
</trkpt>
<trkpt lat="47.66780328936875" lon="12.18464070931077">
<ele>469</ele>
<time>2012-03-03T12:12:27Z</time>
<extensions>
<gpxtpx:TrackPointExtension>
<gpxtpx:hr>142</gpxtpx:hr>
<gpxtpx:atemp>10</gpxtpx:atemp>
</gpxtpx:TrackPointExtension>
</extensions>
</trkpt>
<trkpt lat="47.66773740760982" lon="12.184621430933475">
<ele>469</ele>
<time>2012-03-03T12:12:28Z</time>
<extensions>
<gpxtpx:TrackPointExtension>
<gpxtpx:hr>143</gpxtpx:hr>
<gpxtpx:atemp>10</gpxtpx:atemp>
</gpxtpx:TrackPointExtension>
</extensions>
</trkpt>
<trkpt lat="47.66767110675573" lon="12.18459720723331">
<ele>469</ele>
<time>2012-03-03T12:12:29Z</time>
<extensions>
<gpxtpx:TrackPointExtension>
<gpxtpx:hr>143</gpxtpx:hr>
<gpxtpx:atemp>10</gpxtpx:atemp>
</gpxtpx:TrackPointExtension>
</extensions>
</trkpt>
<trkpt lat="47.66711689531803" lon="12.184461755678058">
<ele>469</ele>
<time>2012-03-03T12:12:37Z</time>
<extensions>
<gpxtpx:TrackPointExtension>
<gpxtpx:hr>143</gpxtpx:hr>
<gpxtpx:atemp>11</gpxtpx:atemp>
</gpxtpx:TrackPointExtension>
</extensions>
</trkpt>
<trkpt lat="47.66677659004927" lon="12.184400064870715">
<ele>469</ele>
<time>2012-03-03T12:12:42Z</time>
<extensions>
<gpxtpx:TrackPointExtension>
<gpxtpx:hr>146</gpxtpx:hr>
<gpxtpx:atemp>11</gpxtpx:atemp>
</gpxtpx:TrackPointExtension>
</extensions>
</trkpt>
<trkpt lat="47.666637701913714" lon="12.184373075142503">
<ele>469</ele>
<time>2012-03-03T12:12:44Z</time>
<extensions>
<gpxtpx:TrackPointExtension>
<gpxtpx:hr>146</gpxtpx:hr>
<gpxtpx:atemp>11</gpxtpx:atemp>
</gpxtpx:TrackPointExtension>
</extensions>
</trkpt>
<trkpt lat="47.66610100865364" lon="12.18431532382965">
<ele>469</ele>
<time>2012-03-03T12:12:52Z</time>
<extensions>
<gpxtpx:TrackPointExtension>
<gpxtpx:hr>147</gpxtpx:hr>
<gpxtpx:atemp>11</gpxtpx:atemp>
</gpxtpx:TrackPointExtension>
</extensions>
</trkpt>
<trkpt lat="47.66569641418755" lon="12.184415822848678">
<ele>469</ele>
<time>2012-03-03T12:12:58Z</time>
<extensions>
<gpxtpx:TrackPointExtension>
<gpxtpx:hr>148</gpxtpx:hr>
<gpxtpx:atemp>11</gpxtpx:atemp>
</gpxtpx:TrackPointExtension>
</extensions>
</trkpt>
<trkpt lat="47.665379494428635" lon="12.184539455920458">
<ele>469</ele>
<time>2012-03-03T12:13:03Z</time>
<extensions>
<gpxtpx:TrackPointExtension>
<gpxtpx:hr>149</gpxtpx:hr>
<gpxtpx:atemp>11</gpxtpx:atemp>
</gpxtpx:TrackPointExtension>
</extensions>
</trkpt>
<trkpt lat="47.66506257466972" lon="12.184678763151169">
<ele>469</ele>
<time>2012-03-03T12:13:08Z</time>
<extensions>
<gpxtpx:TrackPointExtension>
<gpxtpx:hr>149</gpxtpx:hr>
<gpxtpx:atemp>11</gpxtpx:atemp>
</gpxtpx:TrackPointExtension>
</extensions>
</trkpt>
<trkpt lat="47.665017396211624" lon="12.184751937165856">
<ele>469</ele>
<time>2012-03-03T12:13:09Z</time>
<extensions>
<gpxtpx:TrackPointExtension>
<gpxtpx:hr>150</gpxtpx:hr>
<gpxtpx:atemp>11</gpxtpx:atemp>
</gpxtpx:TrackPointExtension>
</extensions>
</trkpt>
<trkpt lat="47.664788821712136" lon="12.185119902715087">
<ele>469</ele>
<time>2012-03-03T12:13:14Z</time>
<extensions>
<gpxtpx:TrackPointExtension>
<gpxtpx:hr>150</gpxtpx:hr>
<gpxtpx:atemp>11</gpxtpx:atemp>
</gpxtpx:TrackPointExtension>
</extensions>
</trkpt>
<trkpt lat="47.66448556445539" lon="12.185383010655642">
<ele>469</ele>
<time>2012-03-03T12:13:19Z</time>
<extensions>
<gpxtpx:TrackPointExtension>
<gpxtpx:hr>150</gpxtpx:hr>
<gpxtpx:atemp>11</gpxtpx:atemp>
</gpxtpx:TrackPointExtension>
</extensions>
</trkpt>
<trkpt lat="47.66434676013887" lon="12.185430536046624">
<ele>470</ele>
<time>2012-03-03T12:13:21Z</time>
<extensions>
<gpxtpx:TrackPointExtension>
<gpxtpx:hr>150</gpxtpx:hr>
<gpxtpx:atemp>11</gpxtpx:atemp>
</gpxtpx:TrackPointExtension>
</extensions>
</trkpt>
<trkpt lat="47.66428230330348" lon="12.1854508202523">
<ele>470</ele>
<time>2012-03-03T12:13:22Z</time>
<extensions>
<gpxtpx:TrackPointExtension>
<gpxtpx:hr>149</gpxtpx:hr>
<gpxtpx:atemp>11</gpxtpx:atemp>
</gpxtpx:TrackPointExtension>
</extensions>
</trkpt>
<trkpt lat="47.66422036103904" lon="12.185470014810562">
<ele>471</ele>
<time>2012-03-03T12:13:23Z</time>
<extensions>
<gpxtpx:TrackPointExtension>
<gpxtpx:hr>149</gpxtpx:hr>
<gpxtpx:atemp>11</gpxtpx:atemp>
</gpxtpx:TrackPointExtension>
</extensions>
</trkpt>
<trkpt lat="47.6641570776701" lon="12.185488371178508">
<ele>471</ele>
<time>2012-03-03T12:13:24Z</time>
<extensions>
<gpxtpx:TrackPointExtension>
<gpxtpx:hr>150</gpxtpx:hr>
<gpxtpx:atemp>11</gpxtpx:atemp>
</gpxtpx:TrackPointExtension>
</extensions>
</trkpt>
<trkpt lat="47.66409354284406" lon="12.185504715889692">
<ele>472</ele>
<time>2012-03-03T12:13:25Z</time>
<extensions>
<gpxtpx:TrackPointExtension>
<gpxtpx:hr>149</gpxtpx:hr>
<gpxtpx:atemp>11</gpxtpx:atemp>
</gpxtpx:TrackPointExtension>
</extensions>
</trkpt>
<trkpt lat="47.66403813846409" lon="12.18552902340889">
<ele>472</ele>
<time>2012-03-03T12:13:26Z</time>
<extensions>
<gpxtpx:TrackPointExtension>
<gpxtpx:hr>149</gpxtpx:hr>
<gpxtpx:atemp>11</gpxtpx:atemp>
</gpxtpx:TrackPointExtension>
</extensions>
</trkpt>
<trkpt lat="47.663807133212686" lon="12.185579482465982">
<ele>472</ele>
<time>2012-03-03T12:13:30Z</time>
<extensions>
<gpxtpx:TrackPointExtension>
<gpxtpx:hr>149</gpxtpx:hr>
<gpxtpx:atemp>11</gpxtpx:atemp>
</gpxtpx:TrackPointExtension>
</extensions>
</trkpt>
<trkpt lat="47.663543270900846" lon="12.185620637610555">
<ele>472</ele>
<time>2012-03-03T12:13:35Z</time>
<extensions>
<gpxtpx:TrackPointExtension>
<gpxtpx:hr>149</gpxtpx:hr>
<gpxtpx:atemp>11</gpxtpx:atemp>
</gpxtpx:TrackPointExtension>
</extensions>
</trkpt>
<trkpt lat="47.66338258981705" lon="12.185594821348786">
<ele>472</ele>
<time>2012-03-03T12:13:38Z</time>
<extensions>
<gpxtpx:TrackPointExtension>
<gpxtpx:hr>151</gpxtpx:hr>
<gpxtpx:atemp>11</gpxtpx:atemp>
</gpxtpx:TrackPointExtension>
</extensions>
</trkpt>
<trkpt lat="47.66328209079802" lon="12.18555249273777">
<ele>472</ele>
<time>2012-03-03T12:13:40Z</time>
<extensions>
<gpxtpx:TrackPointExtension>
<gpxtpx:hr>153</gpxtpx:hr>
<gpxtpx:atemp>11</gpxtpx:atemp>
</gpxtpx:TrackPointExtension>
</extensions>
</trkpt>
<trkpt lat="47.66291135922074" lon="12.185465320944786">
<ele>472</ele>
<time>2012-03-03T12:13:47Z</time>
<extensions>
<gpxtpx:TrackPointExtension>
<gpxtpx:hr>156</gpxtpx:hr>
<gpxtpx:atemp>11</gpxtpx:atemp>
</gpxtpx:TrackPointExtension>
</extensions>
</trkpt>
<trkpt lat="47.66285855323076" lon="12.185462890192866">
<ele>473</ele>
<time>2012-03-03T12:13:48Z</time>
<extensions>
<gpxtpx:TrackPointExtension>
<gpxtpx:hr>156</gpxtpx:hr>
<gpxtpx:atemp>11</gpxtpx:atemp>
</gpxtpx:TrackPointExtension>
</extensions>
</trkpt>
<trkpt lat="47.6628081779927" lon="12.185454592108727">
<ele>473</ele>
<time>2012-03-03T12:13:49Z</time>
<extensions>
<gpxtpx:TrackPointExtension>
<gpxtpx:hr>156</gpxtpx:hr>
<gpxtpx:atemp>11</gpxtpx:atemp>
</gpxtpx:TrackPointExtension>
</extensions>
</trkpt>
<trkpt lat="47.66275277361274" lon="12.185449982061982">
<ele>473</ele>
<time>2012-03-03T12:13:50Z</time>
<extensions>
<gpxtpx:TrackPointExtension>
<gpxtpx:hr>157</gpxtpx:hr>
<gpxtpx:atemp>11</gpxtpx:atemp>
</gpxtpx:TrackPointExtension>
</extensions>
</trkpt>
<trkpt lat="47.66269862651825" lon="12.185448640957475">
<ele>474</ele>
<time>2012-03-03T12:13:51Z</time>
<extensions>
<gpxtpx:TrackPointExtension>
<gpxtpx:hr>157</gpxtpx:hr>
<gpxtpx:atemp>11</gpxtpx:atemp>
</gpxtpx:TrackPointExtension>
</extensions>
</trkpt>
<trkpt lat="47.66259561292827" lon="12.185438415035605">
<ele>474</ele>
<time>2012-03-03T12:13:53Z</time>
<extensions>
<gpxtpx:TrackPointExtension>
<gpxtpx:hr>157</gpxtpx:hr>
<gpxtpx:atemp>11</gpxtpx:atemp>
</gpxtpx:TrackPointExtension>
</extensions>
</trkpt>
<trkpt lat="47.662327056750655" lon="12.185402372851968">
<ele>474</ele>
<time>2012-03-03T12:13:58Z</time>
<extensions>
<gpxtpx:TrackPointExtension>
<gpxtpx:hr>157</gpxtpx:hr>
<gpxtpx:atemp>11</gpxtpx:atemp>
</gpxtpx:TrackPointExtension>
</extensions>
</trkpt>
<trkpt lat="47.66227508895099" lon="12.185394745320082">
<ele>474</ele>
<time>2012-03-03T12:13:59Z</time>
<extensions>
<gpxtpx:TrackPointExtension>
<gpxtpx:hr>157</gpxtpx:hr>
<gpxtpx:atemp>11</gpxtpx:atemp>
</gpxtpx:TrackPointExtension>
</extensions>
</trkpt>
<trkpt lat="47.66212438233197" lon="12.185385189950466">
<ele>474</ele>
<time>2012-03-03T12:14:02Z</time>
<extensions>
<gpxtpx:TrackPointExtension>
<gpxtpx:hr>159</gpxtpx:hr>
<gpxtpx:atemp>11</gpxtpx:atemp>
</gpxtpx:TrackPointExtension>
</extensions>
</trkpt>
<trkpt lat="47.66207727603614" lon="12.185381669551134">
<ele>475</ele>
<time>2012-03-03T12:14:03Z</time>
<extensions>
<gpxtpx:TrackPointExtension>
<gpxtpx:hr>159</gpxtpx:hr>
<gpxtpx:atemp>11</gpxtpx:atemp>
</gpxtpx:TrackPointExtension>
</extensions>
</trkpt>
<trkpt lat="47.662029499188066" lon="12.185375802218914">
<ele>475</ele>
<time>2012-03-03T12:14:04Z</time>
<extensions>
<gpxtpx:TrackPointExtension>
<gpxtpx:hr>159</gpxtpx:hr>
<gpxtpx:atemp>11</gpxtpx:atemp>
</gpxtpx:TrackPointExtension>
</extensions>
</trkpt>
<trkpt lat="47.66197895631194" lon="12.185362307354808">
<ele>476</ele>
<time>2012-03-03T12:14:05Z</time>
<extensions>
<gpxtpx:TrackPointExtension>
<gpxtpx:hr>159</gpxtpx:hr>
<gpxtpx:atemp>11</gpxtpx:atemp>
</gpxtpx:TrackPointExtension>
</extensions>
</trkpt>
<trkpt lat="47.66192849725485" lon="12.18534336425364">
<ele>476</ele>
<time>2012-03-03T12:14:06Z</time>
<extensions>
<gpxtpx:TrackPointExtension>
<gpxtpx:hr>160</gpxtpx:hr>
<gpxtpx:atemp>11</gpxtpx:atemp>
</gpxtpx:TrackPointExtension>
</extensions>
</trkpt>
<trkpt lat="47.66167553141713" lon="12.185284942388535">
<ele>476</ele>
<time>2012-03-03T12:14:10Z</time>
<extensions>
<gpxtpx:TrackPointExtension>
<gpxtpx:hr>161</gpxtpx:hr>
<gpxtpx:atemp>11</gpxtpx:atemp>
</gpxtpx:TrackPointExtension>
</extensions>
</trkpt>
<trkpt lat="47.66135257668793" lon="12.185327773913741">
<ele>476</ele>
<time>2012-03-03T12:14:15Z</time>
<extensions>
<gpxtpx:TrackPointExtension>
<gpxtpx:hr>161</gpxtpx:hr>
<gpxtpx:atemp>11</gpxtpx:atemp>
</gpxtpx:TrackPointExtension>
</extensions>
</trkpt>
<trkpt lat="47.66106021590531" lon="12.185430871322751">
<ele>476</ele>
<time>2012-03-03T12:14:20Z</time>
<extensions>
<gpxtpx:TrackPointExtension>
<gpxtpx:hr>158</gpxtpx:hr>
<gpxtpx:atemp>11</gpxtpx:atemp>
</gpxtpx:TrackPointExtension>
</extensions>
</trkpt>
<trkpt lat="47.66100112348795" lon="12.18545333482325">
<ele>476</ele>
<time>2012-03-03T12:14:21Z</time>
<extensions>
<gpxtpx:TrackPointExtension>
<gpxtpx:hr>158</gpxtpx:hr>
<gpxtpx:atemp>11</gpxtpx:atemp>
</gpxtpx:TrackPointExtension>
</extensions>
</trkpt>
<trkpt lat="47.66070700250566" lon="12.185577303171158">
<ele>476</ele>
<time>2012-03-03T12:14:26Z</time>
<extensions>
<gpxtpx:TrackPointExtension>
<gpxtpx:hr>156</gpxtpx:hr>
<gpxtpx:atemp>11</gpxtpx:atemp>
</gpxtpx:TrackPointExtension>
</extensions>
</trkpt>
<trkpt lat="47.660327134653926" lon="12.185787437483668">
<ele>476</ele>
<time>2012-03-03T12:14:32Z</time>
<extensions>
<gpxtpx:TrackPointExtension>
<gpxtpx:hr>153</gpxtpx:hr>
<gpxtpx:atemp>11</gpxtpx:atemp>
</gpxtpx:TrackPointExtension>
</extensions>
</trkpt>
<trkpt lat="47.66011574305594" lon="12.18595021404326">
<ele>476</ele>
<time>2012-03-03T12:14:35Z</time>
<extensions>
<gpxtpx:TrackPointExtension>
<gpxtpx:hr>150</gpxtpx:hr>
<gpxtpx:atemp>11</gpxtpx:atemp>
</gpxtpx:TrackPointExtension>
</extensions>
</trkpt>
<trkpt lat="47.65996729955077" lon="12.186074685305357">
<ele>476</ele>
<time>2012-03-03T12:14:37Z</time>
<extensions>
<gpxtpx:TrackPointExtension>
<gpxtpx:hr>149</gpxtpx:hr>
<gpxtpx:atemp>11</gpxtpx:atemp>
</gpxtpx:TrackPointExtension>
</extensions>
</trkpt>
<trkpt lat="47.65988658182323" lon="12.186135957017541">
<ele>476</ele>
<time>2012-03-03T12:14:38Z</time>
<extensions>
<gpxtpx:TrackPointExtension>
<gpxtpx:hr>148</gpxtpx:hr>
<gpxtpx:atemp>11</gpxtpx:atemp>
</gpxtpx:TrackPointExtension>
</extensions>
</trkpt>
<trkpt lat="47.659808713942766" lon="12.186191277578473">
<ele>475</ele>
<time>2012-03-03T12:14:39Z</time>
<extensions>
<gpxtpx:TrackPointExtension>
<gpxtpx:hr>148</gpxtpx:hr>
<gpxtpx:atemp>11</gpxtpx:atemp>
</gpxtpx:TrackPointExtension>
</extensions>
</trkpt>
<trkpt lat="47.65973210334778" lon="12.186251543462276">
<ele>475</ele>
<time>2012-03-03T12:14:40Z</time>
<extensions>
<gpxtpx:TrackPointExtension>
<gpxtpx:hr>148</gpxtpx:hr>
<gpxtpx:atemp>11</gpxtpx:atemp>
</gpxtpx:TrackPointExtension>
</extensions>
</trkpt>
<trkpt lat="47.659659180790186" lon="12.186306361109018">
<ele>474</ele>
<time>2012-03-03T12:14:41Z</time>
<extensions>
<gpxtpx:TrackPointExtension>
<gpxtpx:hr>147</gpxtpx:hr>
<gpxtpx:atemp>11</gpxtpx:atemp>
</gpxtpx:TrackPointExtension>
</extensions>
</trkpt>
<trkpt lat="47.6595875993371" lon="12.186368135735393">
<ele>474</ele>
<time>2012-03-03T12:14:42Z</time>
<extensions>
<gpxtpx:TrackPointExtension>
<gpxtpx:hr>146</gpxtpx:hr>
<gpxtpx:atemp>11</gpxtpx:atemp>
</gpxtpx:TrackPointExtension>
</extensions>
</trkpt>
<trkpt lat="47.65951635316014" lon="12.186441728845239">
<ele>474</ele>
<time>2012-03-03T12:14:43Z</time>
<extensions>
<gpxtpx:TrackPointExtension>
<gpxtpx:hr>144</gpxtpx:hr>
<gpxtpx:atemp>11</gpxtpx:atemp>
</gpxtpx:TrackPointExtension>
</extensions>
</trkpt>
<trkpt lat="47.65944887883961" lon="12.18651507049799">
<ele>474</ele>
<time>2012-03-03T12:14:44Z</time>
<extensions>
<gpxtpx:TrackPointExtension>
<gpxtpx:hr>141</gpxtpx:hr>
<gpxtpx:atemp>11</gpxtpx:atemp>
</gpxtpx:TrackPointExtension>
</extensions>
</trkpt>
<trkpt lat="47.65924159437418" lon="12.186717577278614">
<ele>474</ele>
<time>2012-03-03T12:14:47Z</time>
<extensions>
<gpxtpx:TrackPointExtension>
<gpxtpx:hr>138</gpxtpx:hr>
<gpxtpx:atemp>11</gpxtpx:atemp>
</gpxtpx:TrackPointExtension>
</extensions>
</trkpt>
<trkpt lat="47.65911594964564" lon="12.186882449313998">
<ele>474</ele>
<time>2012-03-03T12:14:49Z</time>
<extensions>
<gpxtpx:TrackPointExtension>
<gpxtpx:hr>139</gpxtpx:hr>
<gpxtpx:atemp>11</gpxtpx:atemp>
</gpxtpx:TrackPointExtension>
</extensions>
</trkpt>
<trkpt lat="47.659053672105074" lon="12.186982277780771">
<ele>474</ele>
<time>2012-03-03T12:14:50Z</time>
<extensions>
<gpxtpx:TrackPointExtension>
<gpxtpx:hr>139</gpxtpx:hr>
<gpxtpx:atemp>11</gpxtpx:atemp>
</gpxtpx:TrackPointExtension>
</extensions>
</trkpt>
<trkpt lat="47.65899642370641" lon="12.1870740596205">
<ele>473</ele>
<time>2012-03-03T12:14:51Z</time>
<extensions>
<gpxtpx:TrackPointExtension>
<gpxtpx:hr>139</gpxtpx:hr>
<gpxtpx:atemp>11</gpxtpx:atemp>
</gpxtpx:TrackPointExtension>
</extensions>
</trkpt>
<trkpt lat="47.65893733128905" lon="12.187162572517991">
<ele>473</ele>
<time>2012-03-03T12:14:52Z</time>
<extensions>
<gpxtpx:TrackPointExtension>
<gpxtpx:hr>139</gpxtpx:hr>
<gpxtpx:atemp>11</gpxtpx:atemp>
</gpxtpx:TrackPointExtension>
</extensions>
</trkpt>
<trkpt lat="47.65887647867203" lon="12.187256533652544">
<ele>472</ele>
<time>2012-03-03T12:14:53Z</time>
<extensions>
<gpxtpx:TrackPointExtension>
<gpxtpx:hr>139</gpxtpx:hr>
<gpxtpx:atemp>11</gpxtpx:atemp>
</gpxtpx:TrackPointExtension>
</extensions>
</trkpt>
<trkpt lat="47.65881939791143" lon="12.187344543635845">
<ele>472</ele>
<time>2012-03-03T12:14:54Z</time>
<extensions>
<gpxtpx:TrackPointExtension>
<gpxtpx:hr>139</gpxtpx:hr>
<gpxtpx:atemp>11</gpxtpx:atemp>
</gpxtpx:TrackPointExtension>
</extensions>
</trkpt>
<trkpt lat="47.658572467043996" lon="12.187734050676227">
<ele>472</ele>
<time>2012-03-03T12:14:59Z</time>
<extensions>
<gpxtpx:TrackPointExtension>
<gpxtpx:hr>138</gpxtpx:hr>
<gpxtpx:atemp>11</gpxtpx:atemp>
</gpxtpx:TrackPointExtension>
</extensions>
</trkpt>
<trkpt lat="47.65831748954952" lon="12.188364956527948">
<ele>472</ele>
<time>2012-03-03T12:15:06Z</time>
<extensions>
<gpxtpx:TrackPointExtension>
<gpxtpx:hr>138</gpxtpx:hr>
<gpxtpx:atemp>11</gpxtpx:atemp>
</gpxtpx:TrackPointExtension>
</extensions>
</trkpt>
<trkpt lat="47.65817231498659" lon="12.188889998942614">
<ele>472</ele>
<time>2012-03-03T12:15:12Z</time>
<extensions>
<gpxtpx:TrackPointExtension>
<gpxtpx:hr>139</gpxtpx:hr>
<gpxtpx:atemp>11</gpxtpx:atemp>
</gpxtpx:TrackPointExtension>
</extensions>
</trkpt>
<trkpt lat="47.65803753398359" lon="12.189394421875477">
<ele>472</ele>
<time>2012-03-03T12:15:18Z</time>
<extensions>
<gpxtpx:TrackPointExtension>
<gpxtpx:hr>142</gpxtpx:hr>
<gpxtpx:atemp>11</gpxtpx:atemp>
</gpxtpx:TrackPointExtension>
</extensions>
</trkpt>
<trkpt lat="47.65799269080162" lon="12.18954554758966">
<ele>472</ele>
<time>2012-03-03T12:15:20Z</time>
<extensions>
<gpxtpx:TrackPointExtension>
<gpxtpx:hr>142</gpxtpx:hr>
<gpxtpx:atemp>11</gpxtpx:atemp>
</gpxtpx:TrackPointExtension>
</extensions>
</trkpt>
<trkpt lat="47.65797902829945" lon="12.18962224200368">
<ele>473</ele>
<time>2012-03-03T12:15:21Z</time>
<extensions>
<gpxtpx:TrackPointExtension>
<gpxtpx:hr>143</gpxtpx:hr>
<gpxtpx:atemp>11</gpxtpx:atemp>
</gpxtpx:TrackPointExtension>
</extensions>
</trkpt>
<trkpt lat="47.65797366388142" lon="12.189707066863775">
<ele>474</ele>
<time>2012-03-03T12:15:22Z</time>
<extensions>
<gpxtpx:TrackPointExtension>
<gpxtpx:hr>143</gpxtpx:hr>
<gpxtpx:atemp>11</gpxtpx:atemp>
</gpxtpx:TrackPointExtension>
</extensions>
</trkpt>
<trkpt lat="47.657968467101455" lon="12.189786946401">
<ele>474</ele>
<time>2012-03-03T12:15:23Z</time>
<extensions>
<gpxtpx:TrackPointExtension>
<gpxtpx:hr>144</gpxtpx:hr>
<gpxtpx:atemp>11</gpxtpx:atemp>
</gpxtpx:TrackPointExtension>
</extensions>
</trkpt>
<trkpt lat="47.65795270912349" lon="12.189938742667437">
<ele>474</ele>
<time>2012-03-03T12:15:25Z</time>
<extensions>
<gpxtpx:TrackPointExtension>
<gpxtpx:hr>145</gpxtpx:hr>
<gpxtpx:atemp>11</gpxtpx:atemp>
</gpxtpx:TrackPointExtension>
</extensions>
</trkpt>
<trkpt lat="47.6579175889492" lon="12.190161533653736">
<ele>474</ele>
<time>2012-03-03T12:15:28Z</time>
<extensions>
<gpxtpx:TrackPointExtension>
<gpxtpx:hr>147</gpxtpx:hr>
<gpxtpx:atemp>11</gpxtpx:atemp>
</gpxtpx:TrackPointExtension>
</extensions>
</trkpt>
<trkpt lat="47.65789847820997" lon="12.190234120935202">
<ele>474</ele>
<time>2012-03-03T12:15:29Z</time>
<extensions>
<gpxtpx:TrackPointExtension>
<gpxtpx:hr>147</gpxtpx:hr>
<gpxtpx:atemp>11</gpxtpx:atemp>
</gpxtpx:TrackPointExtension>
</extensions>
</trkpt>
<trkpt lat="47.6578781940043" lon="12.19029949977994">
<ele>475</ele>
<time>2012-03-03T12:15:30Z</time>
<extensions>
<gpxtpx:TrackPointExtension>
<gpxtpx:hr>148</gpxtpx:hr>
<gpxtpx:atemp>11</gpxtpx:atemp>
</gpxtpx:TrackPointExtension>
</extensions>
</trkpt>
<trkpt lat="47.65785355120897" lon="12.190364208072424">
<ele>475</ele>
<time>2012-03-03T12:15:31Z</time>
<extensions>
<gpxtpx:TrackPointExtension>
<gpxtpx:hr>148</gpxtpx:hr>
<gpxtpx:atemp>11</gpxtpx:atemp>
</gpxtpx:TrackPointExtension>
</extensions>
</trkpt>
<trkpt lat="47.657829159870744" lon="12.190426988527179">
<ele>476</ele>
<time>2012-03-03T12:15:32Z</time>
<extensions>
<gpxtpx:TrackPointExtension>
<gpxtpx:hr>148</gpxtpx:hr>
<gpxtpx:atemp>11</gpxtpx:atemp>
</gpxtpx:TrackPointExtension>
</extensions>
</trkpt>
<trkpt lat="47.657807199284434" lon="12.190484656020999">
<ele>476</ele>
<time>2012-03-03T12:15:33Z</time>
<extensions>
<gpxtpx:TrackPointExtension>
<gpxtpx:hr>149</gpxtpx:hr>
<gpxtpx:atemp>11</gpxtpx:atemp>
</gpxtpx:TrackPointExtension>
</extensions>
</trkpt>
<trkpt lat="47.657650876790285" lon="12.190779028460383">
<ele>476</ele>
<time>2012-03-03T12:15:38Z</time>
<extensions>
<gpxtpx:TrackPointExtension>
<gpxtpx:hr>152</gpxtpx:hr>
<gpxtpx:atemp>11</gpxtpx:atemp>
</gpxtpx:TrackPointExtension>
</extensions>
</trkpt>
<trkpt lat="47.65762028284371" lon="12.19084331765771">
<ele>476</ele>
<time>2012-03-03T12:15:39Z</time>
<extensions>
<gpxtpx:TrackPointExtension>
<gpxtpx:hr>152</gpxtpx:hr>
<gpxtpx:atemp>11</gpxtpx:atemp>
</gpxtpx:TrackPointExtension>
</extensions>
</trkpt>
<trkpt lat="47.65756848268211" lon="12.190970303490758">
<ele>477</ele>
<time>2012-03-03T12:15:41Z</time>
<extensions>
<gpxtpx:TrackPointExtension>
<gpxtpx:hr>153</gpxtpx:hr>
<gpxtpx:atemp>11</gpxtpx:atemp>
</gpxtpx:TrackPointExtension>
</extensions>
</trkpt>
<trkpt lat="47.657537469640374" lon="12.19102612696588">
<ele>477</ele>
<time>2012-03-03T12:15:42Z</time>
<extensions>
<gpxtpx:TrackPointExtension>
<gpxtpx:hr>153</gpxtpx:hr>
<gpxtpx:atemp>11</gpxtpx:atemp>
</gpxtpx:TrackPointExtension>
</extensions>
</trkpt>
<trkpt lat="47.65751475468278" lon="12.191088572144508">
<ele>477</ele>
<time>2012-03-03T12:15:43Z</time>
<extensions>
<gpxtpx:TrackPointExtension>
<gpxtpx:hr>154</gpxtpx:hr>
<gpxtpx:atemp>11</gpxtpx:atemp>
</gpxtpx:TrackPointExtension>
</extensions>
</trkpt>
<trkpt lat="47.65748013742268" lon="12.191139785572886">
<ele>478</ele>
<time>2012-03-03T12:15:44Z</time>
<extensions>
<gpxtpx:TrackPointExtension>
<gpxtpx:hr>154</gpxtpx:hr>
<gpxtpx:atemp>11</gpxtpx:atemp>
</gpxtpx:TrackPointExtension>
</extensions>
</trkpt>
<trkpt lat="47.657439233735204" lon="12.191186808049679">
<ele>478</ele>
<time>2012-03-03T12:15:45Z</time>
<extensions>
<gpxtpx:TrackPointExtension>
<gpxtpx:hr>155</gpxtpx:hr>
<gpxtpx:atemp>11</gpxtpx:atemp>
</gpxtpx:TrackPointExtension>
</extensions>
</trkpt>
<trkpt lat="47.65739715658128" lon="12.191240536049008">
<ele>478</ele>
<time>2012-03-03T12:15:46Z</time>
<extensions>
<gpxtpx:TrackPointExtension>
<gpxtpx:hr>155</gpxtpx:hr>
<gpxtpx:atemp>11</gpxtpx:atemp>
</gpxtpx:TrackPointExtension>
</extensions>
</trkpt>
<trkpt lat="47.65735021792352" lon="12.19130071811378">
<ele>478</ele>
<time>2012-03-03T12:15:47Z</time>
<extensions>
<gpxtpx:TrackPointExtension>
<gpxtpx:hr>155</gpxtpx:hr>
<gpxtpx:atemp>11</gpxtpx:atemp>
</gpxtpx:TrackPointExtension>
</extensions>
</trkpt>
<trkpt lat="47.65719817019999" lon="12.191474810242653">
<ele>478</ele>
<time>2012-03-03T12:15:50Z</time>
<extensions>
<gpxtpx:TrackPointExtension>
<gpxtpx:hr>155</gpxtpx:hr>
<gpxtpx:atemp>10</gpxtpx:atemp>
</gpxtpx:TrackPointExtension>
</extensions>
</trkpt>
<trkpt lat="47.65712860040367" lon="12.191507248207927">
<ele>478</ele>
<time>2012-03-03T12:15:51Z</time>
<extensions>
<gpxtpx:TrackPointExtension>
<gpxtpx:hr>155</gpxtpx:hr>
<gpxtpx:atemp>10</gpxtpx:atemp>
</gpxtpx:TrackPointExtension>
</extensions>
</trkpt>
<trkpt lat="47.65705659985542" lon="12.191491154953837">
<ele>477</ele>
<time>2012-03-03T12:15:52Z</time>
<extensions>
<gpxtpx:TrackPointExtension>
<gpxtpx:hr>156</gpxtpx:hr>
<gpxtpx:atemp>10</gpxtpx:atemp>
</gpxtpx:TrackPointExtension>
</extensions>
</trkpt>
<trkpt lat="47.65699742361903" lon="12.191445725038648">
<ele>476</ele>
<time>2012-03-03T12:15:53Z</time>
<extensions>
<gpxtpx:TrackPointExtension>
<gpxtpx:hr>156</gpxtpx:hr>
<gpxtpx:atemp>10</gpxtpx:atemp>
</gpxtpx:TrackPointExtension>
</extensions>
</trkpt>
<trkpt lat="47.656942857429385" lon="12.191388057544827">
<ele>475</ele>
<time>2012-03-03T12:15:54Z</time>
<extensions>
<gpxtpx:TrackPointExtension>
<gpxtpx:hr>155</gpxtpx:hr>
<gpxtpx:atemp>10</gpxtpx:atemp>
</gpxtpx:TrackPointExtension>
</extensions>
</trkpt>
<trkpt lat="47.65687907114625" lon="12.191331563517451">
<ele>475</ele>
<time>2012-03-03T12:15:55Z</time>
<extensions>
<gpxtpx:TrackPointExtension>
<gpxtpx:hr>156</gpxtpx:hr>
<gpxtpx:atemp>10</gpxtpx:atemp>
</gpxtpx:TrackPointExtension>
</extensions>
</trkpt>
<trkpt lat="47.65681562013924" lon="12.191295269876719">
<ele>474</ele>
<time>2012-03-03T12:15:56Z</time>
<extensions>
<gpxtpx:TrackPointExtension>
<gpxtpx:hr>155</gpxtpx:hr>
<gpxtpx:atemp>10</gpxtpx:atemp>
</gpxtpx:TrackPointExtension>
</extensions>
</trkpt>
<trkpt lat="47.65674412250519" lon="12.191283451393247">
<ele>473</ele>
<time>2012-03-03T12:15:57Z</time>
<extensions>
<gpxtpx:TrackPointExtension>
<gpxtpx:hr>155</gpxtpx:hr>
<gpxtpx:atemp>10</gpxtpx:atemp>
</gpxtpx:TrackPointExtension>
</extensions>
</trkpt>
<trkpt lat="47.65666717663407" lon="12.191287390887737">
<ele>473</ele>
<time>2012-03-03T12:15:58Z</time>
<extensions>
<gpxtpx:TrackPointExtension>
<gpxtpx:hr>155</gpxtpx:hr>
<gpxtpx:atemp>10</gpxtpx:atemp>
</gpxtpx:TrackPointExtension>
</extensions>
</trkpt>
<trkpt lat="47.65659383498132" lon="12.191316308453679">
<ele>472</ele>
<time>2012-03-03T12:15:59Z</time>
<extensions>
<gpxtpx:TrackPointExtension>
<gpxtpx:hr>154</gpxtpx:hr>
<gpxtpx:atemp>10</gpxtpx:atemp>
</gpxtpx:TrackPointExtension>
</extensions>
</trkpt>
<trkpt lat="47.65652108006179" lon="12.191352685913444">
<ele>472</ele>
<time>2012-03-03T12:16:00Z</time>
<extensions>
<gpxtpx:TrackPointExtension>
<gpxtpx:hr>154</gpxtpx:hr>
<gpxtpx:atemp>10</gpxtpx:atemp>
</gpxtpx:TrackPointExtension>
</extensions>
</trkpt>
<trkpt lat="47.656454192474484" lon="12.19138621352613">
<ele>471</ele>
<time>2012-03-03T12:16:01Z</time>
<extensions>
<gpxtpx:TrackPointExtension>
<gpxtpx:hr>154</gpxtpx:hr>
<gpxtpx:atemp>10</gpxtpx:atemp>
</gpxtpx:TrackPointExtension>
</extensions>
</trkpt>
<trkpt lat="47.65639183111489" lon="12.191431894898415">
<ele>471</ele>
<time>2012-03-03T12:16:02Z</time>
<extensions>
<gpxtpx:TrackPointExtension>
<gpxtpx:hr>154</gpxtpx:hr>
<gpxtpx:atemp>10</gpxtpx:atemp>
</gpxtpx:TrackPointExtension>
</extensions>
</trkpt>
<trkpt lat="47.656330643221736" lon="12.191484533250332">
<ele>471</ele>
<time>2012-03-03T12:16:03Z</time>
<extensions>
<gpxtpx:TrackPointExtension>
<gpxtpx:hr>153</gpxtpx:hr>
<gpxtpx:atemp>10</gpxtpx:atemp>
</gpxtpx:TrackPointExtension>
</extensions>
</trkpt>
<trkpt lat="47.6562702935189" lon="12.191535914316773">
<ele>471</ele>
<time>2012-03-03T12:16:04Z</time>
<extensions>
<gpxtpx:TrackPointExtension>
<gpxtpx:hr>153</gpxtpx:hr>
<gpxtpx:atemp>10</gpxtpx:atemp>
</gpxtpx:TrackPointExtension>
</extensions>
</trkpt>
<trkpt lat="47.65602897852659" lon="12.19173850491643">
<ele>471</ele>
<time>2012-03-03T12:16:08Z</time>
<extensions>
<gpxtpx:TrackPointExtension>
<gpxtpx:hr>150</gpxtpx:hr>
<gpxtpx:atemp>10</gpxtpx:atemp>
</gpxtpx:TrackPointExtension>
</extensions>
</trkpt>
<trkpt lat="47.655839966610074" lon="12.19186021015048">
<ele>471</ele>
<time>2012-03-03T12:16:11Z</time>
<extensions>
<gpxtpx:TrackPointExtension>
<gpxtpx:hr>150</gpxtpx:hr>
<gpxtpx:atemp>10</gpxtpx:atemp>
</gpxtpx:TrackPointExtension>
</extensions>
</trkpt>
<trkpt lat="47.65542866662145" lon="12.192021058872342">
<ele>471</ele>
<time>2012-03-03T12:16:17Z</time>
<extensions>
<gpxtpx:TrackPointExtension>
<gpxtpx:hr>148</gpxtpx:hr>
<gpxtpx:atemp>10</gpxtpx:atemp>
</gpxtpx:TrackPointExtension>
</extensions>
</trkpt>
<trkpt lat="47.65502558089793" lon="12.19217880629003">
<ele>471</ele>
<time>2012-03-03T12:16:23Z</time>
<extensions>
<gpxtpx:TrackPointExtension>
<gpxtpx:hr>144</gpxtpx:hr>
<gpxtpx:atemp>10</gpxtpx:atemp>
</gpxtpx:TrackPointExtension>
</extensions>
</trkpt>
<trkpt lat="47.65489440411329" lon="12.19223102554679">
<ele>471</ele>
<time>2012-03-03T12:16:25Z</time>
<extensions>
<gpxtpx:TrackPointExtension>
<gpxtpx:hr>144</gpxtpx:hr>
<gpxtpx:atemp>10</gpxtpx:atemp>
</gpxtpx:TrackPointExtension>
</extensions>
</trkpt>
<trkpt lat="47.6543965190649" lon="12.192450799047947">
<ele>471</ele>
<time>2012-03-03T12:16:32Z</time>
<extensions>
<gpxtpx:TrackPointExtension>
<gpxtpx:hr>142</gpxtpx:hr>
<gpxtpx:atemp>10</gpxtpx:atemp>
</gpxtpx:TrackPointExtension>
</extensions>
</trkpt>
<trkpt lat="47.65395814552903" lon="12.19261365942657">
<ele>471</ele>
<time>2012-03-03T12:16:38Z</time>
<extensions>
<gpxtpx:TrackPointExtension>
<gpxtpx:hr>142</gpxtpx:hr>
<gpxtpx:atemp>10</gpxtpx:atemp>
</gpxtpx:TrackPointExtension>
</extensions>
</trkpt>
<trkpt lat="47.653822023421526" lon="12.192695969715714">
<ele>471</ele>
<time>2012-03-03T12:16:40Z</time>
<extensions>
<gpxtpx:TrackPointExtension>
<gpxtpx:hr>143</gpxtpx:hr>
<gpxtpx:atemp>10</gpxtpx:atemp>
</gpxtpx:TrackPointExtension>
</extensions>
</trkpt>
<trkpt lat="47.65345917083323" lon="12.193080028519034">
<ele>471</ele>
<time>2012-03-03T12:16:46Z</time>
<extensions>
<gpxtpx:TrackPointExtension>
<gpxtpx:hr>143</gpxtpx:hr>
<gpxtpx:atemp>10</gpxtpx:atemp>
</gpxtpx:TrackPointExtension>
</extensions>
</trkpt>
<trkpt lat="47.65303353779018" lon="12.193593168631196">
<ele>471</ele>
<time>2012-03-03T12:16:53Z</time>
<extensions>
<gpxtpx:TrackPointExtension>
<gpxtpx:hr>143</gpxtpx:hr>
<gpxtpx:atemp>11</gpxtpx:atemp>
</gpxtpx:TrackPointExtension>
</extensions>
</trkpt>
<trkpt lat="47.65291426330805" lon="12.193737253546715">
<ele>471</ele>
<time>2012-03-03T12:16:55Z</time>
<extensions>
<gpxtpx:TrackPointExtension>
<gpxtpx:hr>143</gpxtpx:hr>
<gpxtpx:atemp>11</gpxtpx:atemp>
</gpxtpx:TrackPointExtension>
</extensions>
</trkpt>
<trkpt lat="47.65247597359121" lon="12.194234300404787">
<ele>471</ele>
<time>2012-03-03T12:17:02Z</time>
<extensions>
<gpxtpx:TrackPointExtension>
<gpxtpx:hr>141</gpxtpx:hr>
<gpxtpx:atemp>11</gpxtpx:atemp>
</gpxtpx:TrackPointExtension>
</extensions>
</trkpt>
<trkpt lat="47.65229660086334" lon="12.194443764165044">
<ele>471</ele>
<time>2012-03-03T12:17:05Z</time>
<extensions>
<gpxtpx:TrackPointExtension>
<gpxtpx:hr>142</gpxtpx:hr>
<gpxtpx:atemp>11</gpxtpx:atemp>
</gpxtpx:TrackPointExtension>
</extensions>
</trkpt>
<trkpt lat="47.6518583111465" lon="12.194927651435137">
<ele>471</ele>
<time>2012-03-03T12:17:12Z</time>
<extensions>
<gpxtpx:TrackPointExtension>
<gpxtpx:hr>141</gpxtpx:hr>
<gpxtpx:atemp>11</gpxtpx:atemp>
</gpxtpx:TrackPointExtension>
</extensions>
</trkpt>
<trkpt lat="47.65166879631579" lon="12.195141557604074">
<ele>471</ele>
<time>2012-03-03T12:17:15Z</time>
<extensions>
<gpxtpx:TrackPointExtension>
<gpxtpx:hr>141</gpxtpx:hr>
<gpxtpx:atemp>11</gpxtpx:atemp>
</gpxtpx:TrackPointExtension>
</extensions>
</trkpt>
<trkpt lat="47.651216089725494" lon="12.19565981067717">
<ele>471</ele>
<time>2012-03-03T12:17:22Z</time>
<extensions>
<gpxtpx:TrackPointExtension>
<gpxtpx:hr>142</gpxtpx:hr>
<gpxtpx:atemp>11</gpxtpx:atemp>
</gpxtpx:TrackPointExtension>
</extensions>
</trkpt>
<trkpt lat="47.65078735537827" lon="12.19615719281137">
<ele>471</ele>
<time>2012-03-03T12:17:29Z</time>
<extensions>
<gpxtpx:TrackPointExtension>
<gpxtpx:hr>143</gpxtpx:hr>
<gpxtpx:atemp>11</gpxtpx:atemp>
</gpxtpx:TrackPointExtension>
</extensions>
</trkpt>
<trkpt lat="47.650661543011665" lon="12.196300942450762">
<ele>471</ele>
<time>2012-03-03T12:17:31Z</time>
<extensions>
<gpxtpx:TrackPointExtension>
<gpxtpx:hr>144</gpxtpx:hr>
<gpxtpx:atemp>11</gpxtpx:atemp>
</gpxtpx:TrackPointExtension>
</extensions>
</trkpt>
<trkpt lat="47.650182181969285" lon="12.196861188858747">
<ele>471</ele>
<time>2012-03-03T12:17:39Z</time>
<extensions>
<gpxtpx:TrackPointExtension>
<gpxtpx:hr>143</gpxtpx:hr>
<gpxtpx:atemp>11</gpxtpx:atemp>
</gpxtpx:TrackPointExtension>
</extensions>
</trkpt>
<trkpt lat="47.65012124553323" lon="12.196927322074771">
<ele>471</ele>
<time>2012-03-03T12:17:40Z</time>
<extensions>
<gpxtpx:TrackPointExtension>
<gpxtpx:hr>142</gpxtpx:hr>
<gpxtpx:atemp>11</gpxtpx:atemp>
</gpxtpx:TrackPointExtension>
</extensions>
</trkpt>
<trkpt lat="47.649698881432414" lon="12.197477677837014">
<ele>471</ele>
<time>2012-03-03T12:17:47Z</time>
<extensions>
<gpxtpx:TrackPointExtension>
<gpxtpx:hr>142</gpxtpx:hr>
<gpxtpx:atemp>11</gpxtpx:atemp>
</gpxtpx:TrackPointExtension>
</extensions>
</trkpt>
<trkpt lat="47.649340303614736" lon="12.197939017787576">
<ele>471</ele>
<time>2012-03-03T12:17:53Z</time>
<extensions>
<gpxtpx:TrackPointExtension>
<gpxtpx:hr>143</gpxtpx:hr>
<gpxtpx:atemp>11</gpxtpx:atemp>
</gpxtpx:TrackPointExtension>
</extensions>
</trkpt>
<trkpt lat="47.64928330667317" lon="12.198017640039325">
<ele>471</ele>
<time>2012-03-03T12:17:54Z</time>
<extensions>
<gpxtpx:TrackPointExtension>
<gpxtpx:hr>143</gpxtpx:hr>
<gpxtpx:atemp>11</gpxtpx:atemp>
</gpxtpx:TrackPointExtension>
</extensions>
</trkpt>
<trkpt lat="47.64922614209354" lon="12.198092909529805">
<ele>472</ele>
<time>2012-03-03T12:17:55Z</time>
<extensions>
<gpxtpx:TrackPointExtension>
<gpxtpx:hr>143</gpxtpx:hr>
<gpxtpx:atemp>11</gpxtpx:atemp>
</gpxtpx:TrackPointExtension>
</extensions>
</trkpt>
<trkpt lat="47.649168726056814" lon="12.19816641882062">
<ele>472</ele>
<time>2012-03-03T12:17:56Z</time>
<extensions>
<gpxtpx:TrackPointExtension>
<gpxtpx:hr>143</gpxtpx:hr>
<gpxtpx:atemp>11</gpxtpx:atemp>
</gpxtpx:TrackPointExtension>
</extensions>
</trkpt>
<trkpt lat="47.64911323785782" lon="12.19823582097888">
<ele>473</ele>
<time>2012-03-03T12:17:57Z</time>
<extensions>
<gpxtpx:TrackPointExtension>
<gpxtpx:hr>143</gpxtpx:hr>
<gpxtpx:atemp>11</gpxtpx:atemp>
</gpxtpx:TrackPointExtension>
</extensions>
</trkpt>
<trkpt lat="47.6487429253757" lon="12.198720630258322">
<ele>473</ele>
<time>2012-03-03T12:18:04Z</time>
<extensions>
<gpxtpx:TrackPointExtension>
<gpxtpx:hr>142</gpxtpx:hr>
<gpxtpx:atemp>11</gpxtpx:atemp>
</gpxtpx:TrackPointExtension>
</extensions>
</trkpt>
<trkpt lat="47.64850052073598" lon="12.199052637442946">
<ele>473</ele>
<time>2012-03-03T12:18:09Z</time>
<extensions>
<gpxtpx:TrackPointExtension>
<gpxtpx:hr>140</gpxtpx:hr>
<gpxtpx:atemp>11</gpxtpx:atemp>
</gpxtpx:TrackPointExtension>
</extensions>
</trkpt>
<trkpt lat="47.64843455515802" lon="12.199217844754457">
<ele>473</ele>
<time>2012-03-03T12:18:11Z</time>
<extensions>
<gpxtpx:TrackPointExtension>
<gpxtpx:hr>140</gpxtpx:hr>
<gpxtpx:atemp>11</gpxtpx:atemp>
</gpxtpx:TrackPointExtension>
</extensions>
</trkpt>
<trkpt lat="47.648331709206104" lon="12.199425296857953">
<ele>472</ele>
<time>2012-03-03T12:18:14Z</time>
<extensions>
<gpxtpx:TrackPointExtension>
<gpxtpx:hr>138</gpxtpx:hr>
<gpxtpx:atemp>11</gpxtpx:atemp>
</gpxtpx:TrackPointExtension>
</extensions>
</trkpt>
<trkpt lat="47.648277059197426" lon="12.19946620054543">
<ele>472</ele>
<time>2012-03-03T12:18:15Z</time>
<extensions>
<gpxtpx:TrackPointExtension>
<gpxtpx:hr>137</gpxtpx:hr>
<gpxtpx:atemp>11</gpxtpx:atemp>
</gpxtpx:TrackPointExtension>
</extensions>
</trkpt>
<trkpt lat="47.6482146140188" lon="12.19947206787765">
<ele>471</ele>
<time>2012-03-03T12:18:16Z</time>
<extensions>
<gpxtpx:TrackPointExtension>
<gpxtpx:hr>136</gpxtpx:hr>
<gpxtpx:atemp>11</gpxtpx:atemp>
</gpxtpx:TrackPointExtension>
</extensions>
</trkpt>
<trkpt lat="47.64813993126154" lon="12.199458153918386">
<ele>471</ele>
<time>2012-03-03T12:18:17Z</time>
<extensions>
<gpxtpx:TrackPointExtension>
<gpxtpx:hr>136</gpxtpx:hr>
<gpxtpx:atemp>11</gpxtpx:atemp>
</gpxtpx:TrackPointExtension>
</extensions>
</trkpt>
<trkpt lat="47.64806675724685" lon="12.199450274929404">
<ele>470</ele>
<time>2012-03-03T12:18:18Z</time>
<extensions>
<gpxtpx:TrackPointExtension>
<gpxtpx:hr>137</gpxtpx:hr>
<gpxtpx:atemp>11</gpxtpx:atemp>
</gpxtpx:TrackPointExtension>
</extensions>
</trkpt>
<trkpt lat="47.64786634594202" lon="12.199361091479659">
<ele>470</ele>
<time>2012-03-03T12:18:21Z</time>
<extensions>
<gpxtpx:TrackPointExtension>
<gpxtpx:hr>138</gpxtpx:hr>
<gpxtpx:atemp>11</gpxtpx:atemp>
</gpxtpx:TrackPointExtension>
</extensions>
</trkpt>
<trkpt lat="47.64780507422984" lon="12.199330497533083">
<ele>470</ele>
<time>2012-03-03T12:18:22Z</time>
<extensions>
<gpxtpx:TrackPointExtension>
<gpxtpx:hr>139</gpxtpx:hr>
<gpxtpx:atemp>11</gpxtpx:atemp>
</gpxtpx:TrackPointExtension>
</extensions>
</trkpt>
<trkpt lat="47.647697534412146" lon="12.199293114244938">
<ele>470</ele>
<time>2012-03-03T12:18:24Z</time>
<extensions>
<gpxtpx:TrackPointExtension>
<gpxtpx:hr>140</gpxtpx:hr>
<gpxtpx:atemp>11</gpxtpx:atemp>
</gpxtpx:TrackPointExtension>
</extensions>
</trkpt>
<trkpt lat="47.64764104038477" lon="12.199284983798862">
<ele>471</ele>
<time>2012-03-03T12:18:25Z</time>
<extensions>
<gpxtpx:TrackPointExtension>
<gpxtpx:hr>141</gpxtpx:hr>
<gpxtpx:atemp>11</gpxtpx:atemp>
</gpxtpx:TrackPointExtension>
</extensions>
</trkpt>
<trkpt lat="47.64757943339646" lon="12.199272997677326">
<ele>471</ele>
<time>2012-03-03T12:18:26Z</time>
<extensions>
<gpxtpx:TrackPointExtension>
<gpxtpx:hr>142</gpxtpx:hr>
<gpxtpx:atemp>11</gpxtpx:atemp>
</gpxtpx:TrackPointExtension>
</extensions>
</trkpt>
<trkpt lat="47.64751757495105" lon="12.199251623824239">
<ele>471</ele>
<time>2012-03-03T12:18:27Z</time>
<extensions>
<gpxtpx:TrackPointExtension>
<gpxtpx:hr>143</gpxtpx:hr>
<gpxtpx:atemp>11</gpxtpx:atemp>
</gpxtpx:TrackPointExtension>
</extensions>
</trkpt>
<trkpt lat="47.64745429158211" lon="12.199224382638931">
<ele>472</ele>
<time>2012-03-03T12:18:28Z</time>
<extensions>
<gpxtpx:TrackPointExtension>
<gpxtpx:hr>144</gpxtpx:hr>
<gpxtpx:atemp>11</gpxtpx:atemp>
</gpxtpx:TrackPointExtension>
</extensions>
</trkpt>
<trkpt lat="47.647392600774765" lon="12.19920233823359">
<ele>472</ele>
<time>2012-03-03T12:18:29Z</time>
<extensions>
<gpxtpx:TrackPointExtension>
<gpxtpx:hr>144</gpxtpx:hr>
<gpxtpx:atemp>11</gpxtpx:atemp>
</gpxtpx:TrackPointExtension>
</extensions>
</trkpt>
<trkpt lat="47.64727156609297" lon="12.199180880561471">
<ele>472</ele>
<time>2012-03-03T12:18:31Z</time>
<extensions>
<gpxtpx:TrackPointExtension>
<gpxtpx:hr>146</gpxtpx:hr>
<gpxtpx:atemp>11</gpxtpx:atemp>
</gpxtpx:TrackPointExtension>
</extensions>
</trkpt>
<trkpt lat="47.64681668020785" lon="12.199176354333758">
<ele>472</ele>
<time>2012-03-03T12:18:38Z</time>
<extensions>
<gpxtpx:TrackPointExtension>
<gpxtpx:hr>148</gpxtpx:hr>
<gpxtpx:atemp>11</gpxtpx:atemp>
</gpxtpx:TrackPointExtension>
</extensions>
</trkpt>
<trkpt lat="47.64641946181655" lon="12.199286492541432">
<ele>472</ele>
<time>2012-03-03T12:18:44Z</time>
<extensions>
<gpxtpx:TrackPointExtension>
<gpxtpx:hr>148</gpxtpx:hr>
<gpxtpx:atemp>11</gpxtpx:atemp>
</gpxtpx:TrackPointExtension>
</extensions>
</trkpt>
<trkpt lat="47.64628652483225" lon="12.19932597130537">
<ele>472</ele>
<time>2012-03-03T12:18:46Z</time>
<extensions>
<gpxtpx:TrackPointExtension>
<gpxtpx:hr>149</gpxtpx:hr>
<gpxtpx:atemp>11</gpxtpx:atemp>
</gpxtpx:TrackPointExtension>
</extensions>
</trkpt>
<trkpt lat="47.646018639206886" lon="12.199434265494347">
<ele>472</ele>
<time>2012-03-03T12:18:50Z</time>
<extensions>
<gpxtpx:TrackPointExtension>
<gpxtpx:hr>149</gpxtpx:hr>
<gpxtpx:atemp>11</gpxtpx:atemp>
</gpxtpx:TrackPointExtension>
</extensions>
</trkpt>
<trkpt lat="47.64595611020923" lon="12.199485898017883">
<ele>472</ele>
<time>2012-03-03T12:18:51Z</time>
<extensions>
<gpxtpx:TrackPointExtension>
<gpxtpx:hr>149</gpxtpx:hr>
<gpxtpx:atemp>11</gpxtpx:atemp>
</gpxtpx:TrackPointExtension>
</extensions>
</trkpt>
<trkpt lat="47.64574178494513" lon="12.199802901595831">
<ele>472</ele>
<time>2012-03-03T12:18:55Z</time>
<extensions>
<gpxtpx:TrackPointExtension>
<gpxtpx:hr>149</gpxtpx:hr>
<gpxtpx:atemp>11</gpxtpx:atemp>
</gpxtpx:TrackPointExtension>
</extensions>
</trkpt>
<trkpt lat="47.64554397203028" lon="12.200100375339389">
<ele>472</ele>
<time>2012-03-03T12:18:59Z</time>
<extensions>
<gpxtpx:TrackPointExtension>
<gpxtpx:hr>150</gpxtpx:hr>
<gpxtpx:atemp>11</gpxtpx:atemp>
</gpxtpx:TrackPointExtension>
</extensions>
</trkpt>
<trkpt lat="47.645280696451664" lon="12.200229037553072">
<ele>472</ele>
<time>2012-03-03T12:19:03Z</time>
<extensions>
<gpxtpx:TrackPointExtension>
<gpxtpx:hr>150</gpxtpx:hr>
<gpxtpx:atemp>11</gpxtpx:atemp>
</gpxtpx:TrackPointExtension>
</extensions>
</trkpt>
<trkpt lat="47.644930416718125" lon="12.200266001746058">
<ele>472</ele>
<time>2012-03-03T12:19:08Z</time>
<extensions>
<gpxtpx:TrackPointExtension>
<gpxtpx:hr>149</gpxtpx:hr>
<gpxtpx:atemp>11</gpxtpx:atemp>
</gpxtpx:TrackPointExtension>
</extensions>
</trkpt>
<trkpt lat="47.64448785223067" lon="12.200256027281284">
<ele>472</ele>
<time>2012-03-03T12:19:14Z</time>
<extensions>
<gpxtpx:TrackPointExtension>
<gpxtpx:hr>147</gpxtpx:hr>
<gpxtpx:atemp>11</gpxtpx:atemp>
</gpxtpx:TrackPointExtension>
</extensions>
</trkpt>
<trkpt lat="47.644295739009976" lon="12.20010431483388">
<ele>472</ele>
<time>2012-03-03T12:19:17Z</time>
<extensions>
<gpxtpx:TrackPointExtension>
<gpxtpx:hr>145</gpxtpx:hr>
<gpxtpx:atemp>11</gpxtpx:atemp>
</gpxtpx:TrackPointExtension>
</extensions>
</trkpt>
<trkpt lat="47.64406431466341" lon="12.19989812001586">
<ele>472</ele>
<time>2012-03-03T12:19:21Z</time>
<extensions>
<gpxtpx:TrackPointExtension>
<gpxtpx:hr>144</gpxtpx:hr>
<gpxtpx:atemp>11</gpxtpx:atemp>
</gpxtpx:TrackPointExtension>
</extensions>
</trkpt>
<trkpt lat="47.64399994164705" lon="12.199874399229884">
<ele>472</ele>
<time>2012-03-03T12:19:22Z</time>
<extensions>
<gpxtpx:TrackPointExtension>
<gpxtpx:hr>144</gpxtpx:hr>
<gpxtpx:atemp>11</gpxtpx:atemp>
</gpxtpx:TrackPointExtension>
</extensions>
</trkpt>
<trkpt lat="47.643674723804" lon="12.19983316026628">
<ele>472</ele>
<time>2012-03-03T12:19:27Z</time>
<extensions>
<gpxtpx:TrackPointExtension>
<gpxtpx:hr>145</gpxtpx:hr>
<gpxtpx:atemp>11</gpxtpx:atemp>
</gpxtpx:TrackPointExtension>
</extensions>
</trkpt>
<trkpt lat="47.64353315345943" lon="12.199672227725387">
<ele>472</ele>
<time>2012-03-03T12:19:30Z</time>
<extensions>
<gpxtpx:TrackPointExtension>
<gpxtpx:hr>146</gpxtpx:hr>
<gpxtpx:atemp>11</gpxtpx:atemp>
</gpxtpx:TrackPointExtension>
</extensions>
</trkpt>
<trkpt lat="47.64347489923239" lon="12.199353883042932">
<ele>473</ele>
<time>2012-03-03T12:19:34Z</time>
<extensions>
<gpxtpx:TrackPointExtension>
<gpxtpx:hr>147</gpxtpx:hr>
<gpxtpx:atemp>11</gpxtpx:atemp>
</gpxtpx:TrackPointExtension>
</extensions>
</trkpt>
<trkpt lat="47.64346316456795" lon="12.199271908029914">
<ele>473</ele>
<time>2012-03-03T12:19:35Z</time>
<extensions>
<gpxtpx:TrackPointExtension>
<gpxtpx:hr>148</gpxtpx:hr>
<gpxtpx:atemp>11</gpxtpx:atemp>
</gpxtpx:TrackPointExtension>
</extensions>
</trkpt>
<trkpt lat="47.64345142990351" lon="12.199191357940435">
<ele>474</ele>
<time>2012-03-03T12:19:36Z</time>
<extensions>
<gpxtpx:TrackPointExtension>
<gpxtpx:hr>148</gpxtpx:hr>
<gpxtpx:atemp>11</gpxtpx:atemp>
</gpxtpx:TrackPointExtension>
</extensions>
</trkpt>
<trkpt lat="47.64344187453389" lon="12.199112651869655">
<ele>474</ele>
<time>2012-03-03T12:19:37Z</time>
<extensions>
<gpxtpx:TrackPointExtension>
<gpxtpx:hr>148</gpxtpx:hr>
<gpxtpx:atemp>11</gpxtpx:atemp>
</gpxtpx:TrackPointExtension>
</extensions>
</trkpt>
<trkpt lat="47.64343298971653" lon="12.199036376550794">
<ele>474</ele>
<time>2012-03-03T12:19:38Z</time>
<extensions>
<gpxtpx:TrackPointExtension>
<gpxtpx:hr>148</gpxtpx:hr>
<gpxtpx:atemp>11</gpxtpx:atemp>
</gpxtpx:TrackPointExtension>
</extensions>
</trkpt>
<trkpt lat="47.64341530390084" lon="12.198904026299715">
<ele>474</ele>
<time>2012-03-03T12:19:40Z</time>
<extensions>
<gpxtpx:TrackPointExtension>
<gpxtpx:hr>148</gpxtpx:hr>
<gpxtpx:atemp>11</gpxtpx:atemp>
</gpxtpx:TrackPointExtension>
</extensions>
</trkpt>
<trkpt lat="47.643364844843745" lon="12.19883780926466">
<ele>474</ele>
<time>2012-03-03T12:19:42Z</time>
<extensions>
<gpxtpx:TrackPointExtension>
<gpxtpx:hr>147</gpxtpx:hr>
<gpxtpx:atemp>11</gpxtpx:atemp>
</gpxtpx:TrackPointExtension>
</extensions>
</trkpt>
<trkpt lat="47.64332729391754" lon="12.198852812871337">
<ele>474</ele>
<time>2012-03-03T12:19:43Z</time>
<extensions>
<gpxtpx:TrackPointExtension>
<gpxtpx:hr>147</gpxtpx:hr>
<gpxtpx:atemp>11</gpxtpx:atemp>
</gpxtpx:TrackPointExtension>
</extensions>
</trkpt>
<trkpt lat="47.64311011880636" lon="12.199049452319741">
<ele>474</ele>
<time>2012-03-03T12:19:48Z</time>
<extensions>
<gpxtpx:TrackPointExtension>
<gpxtpx:hr>148</gpxtpx:hr>
<gpxtpx:atemp>11</gpxtpx:atemp>
</gpxtpx:TrackPointExtension>
</extensions>
</trkpt>
<trkpt lat="47.64277291484177" lon="12.19939042814076">
<ele>474</ele>
<time>2012-03-03T12:19:55Z</time>
<extensions>
<gpxtpx:TrackPointExtension>
<gpxtpx:hr>150</gpxtpx:hr>
<gpxtpx:atemp>11</gpxtpx:atemp>
</gpxtpx:TrackPointExtension>
</extensions>
</trkpt>
<trkpt lat="47.642481895163655" lon="12.199725452810526">
<ele>474</ele>
<time>2012-03-03T12:20:01Z</time>
<extensions>
<gpxtpx:TrackPointExtension>
<gpxtpx:hr>152</gpxtpx:hr>
<gpxtpx:atemp>11</gpxtpx:atemp>
</gpxtpx:TrackPointExtension>
</extensions>
</trkpt>
<trkpt lat="47.64200680889189" lon="12.200200455263257">
<ele>474</ele>
<time>2012-03-03T12:20:10Z</time>
<extensions>
<gpxtpx:TrackPointExtension>
<gpxtpx:hr>153</gpxtpx:hr>
<gpxtpx:atemp>11</gpxtpx:atemp>
</gpxtpx:TrackPointExtension>
</extensions>
</trkpt>
<trkpt lat="47.64194771647453" lon="12.200241107493639">
<ele>474</ele>
<time>2012-03-03T12:20:11Z</time>
<extensions>
<gpxtpx:TrackPointExtension>
<gpxtpx:hr>153</gpxtpx:hr>
<gpxtpx:atemp>11</gpxtpx:atemp>
</gpxtpx:TrackPointExtension>
</extensions>
</trkpt>
<trkpt lat="47.64170212671161" lon="12.200334230437875">
<ele>474</ele>
<time>2012-03-03T12:20:15Z</time>
<extensions>
<gpxtpx:TrackPointExtension>
<gpxtpx:hr>154</gpxtpx:hr>
<gpxtpx:atemp>11</gpxtpx:atemp>
</gpxtpx:TrackPointExtension>
</extensions>
</trkpt>
<trkpt lat="47.641434324905276" lon="12.200283939018846">
<ele>475</ele>
<time>2012-03-03T12:20:19Z</time>
<extensions>
<gpxtpx:TrackPointExtension>
<gpxtpx:hr>155</gpxtpx:hr>
<gpxtpx:atemp>11</gpxtpx:atemp>
</gpxtpx:TrackPointExtension>
</extensions>
</trkpt>
<trkpt lat="47.641377160325646" lon="12.200270108878613">
<ele>475</ele>
<time>2012-03-03T12:20:20Z</time>
<extensions>
<gpxtpx:TrackPointExtension>
<gpxtpx:hr>155</gpxtpx:hr>
<gpxtpx:atemp>11</gpxtpx:atemp>
</gpxtpx:TrackPointExtension>
</extensions>
</trkpt>
<trkpt lat="47.641316978260875" lon="12.20026952214539">
<ele>476</ele>
<time>2012-03-03T12:20:21Z</time>
<extensions>
<gpxtpx:TrackPointExtension>
<gpxtpx:hr>156</gpxtpx:hr>
<gpxtpx:atemp>11</gpxtpx:atemp>
</gpxtpx:TrackPointExtension>
</extensions>
</trkpt>
<trkpt lat="47.64125905930996" lon="12.200271030887961">
<ele>476</ele>
<time>2012-03-03T12:20:22Z</time>
<extensions>
<gpxtpx:TrackPointExtension>
<gpxtpx:hr>156</gpxtpx:hr>
<gpxtpx:atemp>11</gpxtpx:atemp>
</gpxtpx:TrackPointExtension>
</extensions>
</trkpt>
<trkpt lat="47.641206085681915" lon="12.200267426669598">
<ele>477</ele>
<time>2012-03-03T12:20:23Z</time>
<extensions>
<gpxtpx:TrackPointExtension>
<gpxtpx:hr>156</gpxtpx:hr>
<gpxtpx:atemp>11</gpxtpx:atemp>
</gpxtpx:TrackPointExtension>
</extensions>
</trkpt>
<trkpt lat="47.641151351854205" lon="12.200268935412169">
<ele>477</ele>
<time>2012-03-03T12:20:24Z</time>
<extensions>
<gpxtpx:TrackPointExtension>
<gpxtpx:hr>157</gpxtpx:hr>
<gpxtpx:atemp>11</gpxtpx:atemp>
</gpxtpx:TrackPointExtension>
</extensions>
</trkpt>
<trkpt lat="47.64109427109361" lon="12.200272791087627">
<ele>477</ele>
<time>2012-03-03T12:20:25Z</time>
<extensions>
<gpxtpx:TrackPointExtension>
<gpxtpx:hr>157</gpxtpx:hr>
<gpxtpx:atemp>11</gpxtpx:atemp>
</gpxtpx:TrackPointExtension>
</extensions>
</trkpt>
<trkpt lat="47.64103685505688" lon="12.200279328972101">
<ele>477</ele>
<time>2012-03-03T12:20:26Z</time>
<extensions>
<gpxtpx:TrackPointExtension>
<gpxtpx:hr>158</gpxtpx:hr>
<gpxtpx:atemp>11</gpxtpx:atemp>
</gpxtpx:TrackPointExtension>
</extensions>
</trkpt>
<trkpt lat="47.64097767882049" lon="12.20028854906559">
<ele>478</ele>
<time>2012-03-03T12:20:27Z</time>
<extensions>
<gpxtpx:TrackPointExtension>
<gpxtpx:hr>158</gpxtpx:hr>
<gpxtpx:atemp>11</gpxtpx:atemp>
</gpxtpx:TrackPointExtension>
</extensions>
</trkpt>
<trkpt lat="47.640920262783766" lon="12.200294584035873">
<ele>478</ele>
<time>2012-03-03T12:20:28Z</time>
<extensions>
<gpxtpx:TrackPointExtension>
<gpxtpx:hr>159</gpxtpx:hr>
<gpxtpx:atemp>11</gpxtpx:atemp>
</gpxtpx:TrackPointExtension>
</extensions>
</trkpt>
<trkpt lat="47.64086100272834" lon="12.200297433882952">
<ele>479</ele>
<time>2012-03-03T12:20:29Z</time>
<extensions>
<gpxtpx:TrackPointExtension>
<gpxtpx:hr>160</gpxtpx:hr>
<gpxtpx:atemp>11</gpxtpx:atemp>
</gpxtpx:TrackPointExtension>
</extensions>
</trkpt>
<trkpt lat="47.640742901712656" lon="12.200310761108994">
<ele>479</ele>
<time>2012-03-03T12:20:31Z</time>
<extensions>
<gpxtpx:TrackPointExtension>
<gpxtpx:hr>161</gpxtpx:hr>
<gpxtpx:atemp>11</gpxtpx:atemp>
</gpxtpx:TrackPointExtension>
</extensions>
</trkpt>
<trkpt lat="47.64057006686926" lon="12.200373960658908">
<ele>479</ele>
<time>2012-03-03T12:20:34Z</time>
<extensions>
<gpxtpx:TrackPointExtension>
<gpxtpx:hr>162</gpxtpx:hr>
<gpxtpx:atemp>11</gpxtpx:atemp>
</gpxtpx:TrackPointExtension>
</extensions>
</trkpt>
<trkpt lat="47.64051089063287" lon="12.200405057519674">
<ele>479</ele>
<time>2012-03-03T12:20:35Z</time>
<extensions>
<gpxtpx:TrackPointExtension>
<gpxtpx:hr>163</gpxtpx:hr>
<gpxtpx:atemp>11</gpxtpx:atemp>
</gpxtpx:TrackPointExtension>
</extensions>
</trkpt>
<trkpt lat="47.640456072986126" lon="12.200436322018504">
<ele>480</ele>
<time>2012-03-03T12:20:36Z</time>
<extensions>
<gpxtpx:TrackPointExtension>
<gpxtpx:hr>163</gpxtpx:hr>
<gpxtpx:atemp>11</gpxtpx:atemp>
</gpxtpx:TrackPointExtension>
</extensions>
</trkpt>
<trkpt lat="47.640402344986796" lon="12.200464652851224">
<ele>480</ele>
<time>2012-03-03T12:20:37Z</time>
<extensions>
<gpxtpx:TrackPointExtension>
<gpxtpx:hr>164</gpxtpx:hr>
<gpxtpx:atemp>11</gpxtpx:atemp>
</gpxtpx:TrackPointExtension>
</extensions>
</trkpt>
<trkpt lat="47.64034878462553" lon="12.200487703084946">
<ele>481</ele>
<time>2012-03-03T12:20:38Z</time>
<extensions>
<gpxtpx:TrackPointExtension>
<gpxtpx:hr>164</gpxtpx:hr>
<gpxtpx:atemp>11</gpxtpx:atemp>
</gpxtpx:TrackPointExtension>
</extensions>
</trkpt>
<trkpt lat="47.640230767428875" lon="12.200529109686613">
<ele>481</ele>
<time>2012-03-03T12:20:40Z</time>
<extensions>
<gpxtpx:TrackPointExtension>
<gpxtpx:hr>164</gpxtpx:hr>
<gpxtpx:atemp>11</gpxtpx:atemp>
</gpxtpx:TrackPointExtension>
</extensions>
</trkpt>
<trkpt lat="47.63985928148031" lon="12.200671099126339">
<ele>481</ele>
<time>2012-03-03T12:20:46Z</time>
<extensions>
<gpxtpx:TrackPointExtension>
<gpxtpx:hr>165</gpxtpx:hr>
<gpxtpx:atemp>11</gpxtpx:atemp>
</gpxtpx:TrackPointExtension>
</extensions>
</trkpt>
<trkpt lat="47.63980530202389" lon="12.200711499899626">
<ele>481</ele>
<time>2012-03-03T12:20:47Z</time>
<extensions>
<gpxtpx:TrackPointExtension>
<gpxtpx:hr>165</gpxtpx:hr>
<gpxtpx:atemp>11</gpxtpx:atemp>
</gpxtpx:TrackPointExtension>
</extensions>
</trkpt>
<trkpt lat="47.639685524627566" lon="12.20093454234302">
<ele>481</ele>
<time>2012-03-03T12:20:50Z</time>
<extensions>
<gpxtpx:TrackPointExtension>
<gpxtpx:hr>164</gpxtpx:hr>
<gpxtpx:atemp>11</gpxtpx:atemp>
</gpxtpx:TrackPointExtension>
</extensions>
</trkpt>
<trkpt lat="47.63965643942356" lon="12.20128976739943">
<ele>481</ele>
<time>2012-03-03T12:20:54Z</time>
<extensions>
<gpxtpx:TrackPointExtension>
<gpxtpx:hr>164</gpxtpx:hr>
<gpxtpx:atemp>11</gpxtpx:atemp>
</gpxtpx:TrackPointExtension>
</extensions>
</trkpt>
<trkpt lat="47.63966565951705" lon="12.20137819647789">
<ele>481</ele>
<time>2012-03-03T12:20:55Z</time>
<extensions>
<gpxtpx:TrackPointExtension>
<gpxtpx:hr>164</gpxtpx:hr>
<gpxtpx:atemp>11</gpxtpx:atemp>
</gpxtpx:TrackPointExtension>
</extensions>
</trkpt>
<trkpt lat="47.63968141749501" lon="12.201455309987068">
<ele>481</ele>
<time>2012-03-03T12:20:56Z</time>
<extensions>
<gpxtpx:TrackPointExtension>
<gpxtpx:hr>163</gpxtpx:hr>
<gpxtpx:atemp>11</gpxtpx:atemp>
</gpxtpx:TrackPointExtension>
</extensions>
</trkpt>
<trkpt lat="47.63969692401588" lon="12.20154038630426">
<ele>482</ele>
<time>2012-03-03T12:20:57Z</time>
<extensions>
<gpxtpx:TrackPointExtension>
<gpxtpx:hr>163</gpxtpx:hr>
<gpxtpx:atemp>11</gpxtpx:atemp>
</gpxtpx:TrackPointExtension>
</extensions>
</trkpt>
<trkpt lat="47.63969122432172" lon="12.201623618602753">
<ele>482</ele>
<time>2012-03-03T12:20:58Z</time>
<extensions>
<gpxtpx:TrackPointExtension>
<gpxtpx:hr>163</gpxtpx:hr>
<gpxtpx:atemp>11</gpxtpx:atemp>
</gpxtpx:TrackPointExtension>
</extensions>
</trkpt>
<trkpt lat="47.639658031985164" lon="12.201688662171364">
<ele>483</ele>
<time>2012-03-03T12:20:59Z</time>
<extensions>
<gpxtpx:TrackPointExtension>
<gpxtpx:hr>163</gpxtpx:hr>
<gpxtpx:atemp>11</gpxtpx:atemp>
</gpxtpx:TrackPointExtension>
</extensions>
</trkpt>
<trkpt lat="47.63960991986096" lon="12.201724369078875">
<ele>483</ele>
<time>2012-03-03T12:21:00Z</time>
<extensions>
<gpxtpx:TrackPointExtension>
<gpxtpx:hr>162</gpxtpx:hr>
<gpxtpx:atemp>11</gpxtpx:atemp>
</gpxtpx:TrackPointExtension>
</extensions>
</trkpt>
<trkpt lat="47.63944253325462" lon="12.201720010489225">
<ele>483</ele>
<time>2012-03-03T12:21:03Z</time>
<extensions>
<gpxtpx:TrackPointExtension>
<gpxtpx:hr>161</gpxtpx:hr>
<gpxtpx:atemp>11</gpxtpx:atemp>
</gpxtpx:TrackPointExtension>
</extensions>
</trkpt>
<trkpt lat="47.639223765581846" lon="12.201658906415105">
<ele>483</ele>
<time>2012-03-03T12:21:07Z</time>
<extensions>
<gpxtpx:TrackPointExtension>
<gpxtpx:hr>159</gpxtpx:hr>
<gpxtpx:atemp>11</gpxtpx:atemp>
</gpxtpx:TrackPointExtension>
</extensions>
</trkpt>
<trkpt lat="47.63919333927333" lon="12.20159461721778">
<ele>483</ele>
<time>2012-03-03T12:21:08Z</time>
<extensions>
<gpxtpx:TrackPointExtension>
<gpxtpx:hr>159</gpxtpx:hr>
<gpxtpx:atemp>11</gpxtpx:atemp>
</gpxtpx:TrackPointExtension>
</extensions>
</trkpt>
<trkpt lat="47.63920490629971" lon="12.20134349539876">
<ele>483</ele>
<time>2012-03-03T12:21:11Z</time>
<extensions>
<gpxtpx:TrackPointExtension>
<gpxtpx:hr>158</gpxtpx:hr>
<gpxtpx:atemp>11</gpxtpx:atemp>
</gpxtpx:TrackPointExtension>
</extensions>
</trkpt>
<trkpt lat="47.63912435621023" lon="12.201109137386084">
<ele>483</ele>
<time>2012-03-03T12:21:14Z</time>
<extensions>
<gpxtpx:TrackPointExtension>
<gpxtpx:hr>157</gpxtpx:hr>
<gpxtpx:atemp>11</gpxtpx:atemp>
</gpxtpx:TrackPointExtension>
</extensions>
</trkpt>
<trkpt lat="47.6390827819705" lon="12.201048787683249">
<ele>483</ele>
<time>2012-03-03T12:21:15Z</time>
<extensions>
<gpxtpx:TrackPointExtension>
<gpxtpx:hr>157</gpxtpx:hr>
<gpxtpx:atemp>11</gpxtpx:atemp>
</gpxtpx:TrackPointExtension>
</extensions>
</trkpt>
<trkpt lat="47.6389878988266" lon="12.200945187360048">
<ele>483</ele>
<time>2012-03-03T12:21:17Z</time>
<extensions>
<gpxtpx:TrackPointExtension>
<gpxtpx:hr>157</gpxtpx:hr>
<gpxtpx:atemp>11</gpxtpx:atemp>
</gpxtpx:TrackPointExtension>
</extensions>
</trkpt>
<trkpt lat="47.63892771676183" lon="12.20092087984085">
<ele>483</ele>
<time>2012-03-03T12:21:18Z</time>
<extensions>
<gpxtpx:TrackPointExtension>
<gpxtpx:hr>156</gpxtpx:hr>
<gpxtpx:atemp>11</gpxtpx:atemp>
</gpxtpx:TrackPointExtension>
</extensions>
</trkpt>
<trkpt lat="47.63873283751309" lon="12.20095650292933">
<ele>483</ele>
<time>2012-03-03T12:21:21Z</time>
<extensions>
<gpxtpx:TrackPointExtension>
<gpxtpx:hr>155</gpxtpx:hr>
<gpxtpx:atemp>11</gpxtpx:atemp>
</gpxtpx:TrackPointExtension>
</extensions>
</trkpt>
<trkpt lat="47.63860350474715" lon="12.201000843197107">
<ele>482</ele>
<time>2012-03-03T12:21:23Z</time>
<extensions>
<gpxtpx:TrackPointExtension>
<gpxtpx:hr>155</gpxtpx:hr>
<gpxtpx:atemp>11</gpxtpx:atemp>
</gpxtpx:TrackPointExtension>
</extensions>
</trkpt>
<trkpt lat="47.63853452168405" lon="12.201027162373066">
<ele>482</ele>
<time>2012-03-03T12:21:24Z</time>
<extensions>
<gpxtpx:TrackPointExtension>
<gpxtpx:hr>155</gpxtpx:hr>
<gpxtpx:atemp>11</gpxtpx:atemp>
</gpxtpx:TrackPointExtension>
</extensions>
</trkpt>
<trkpt lat="47.638465287163854" lon="12.201054068282247">
<ele>481</ele>
<time>2012-03-03T12:21:25Z</time>
<extensions>
<gpxtpx:TrackPointExtension>
<gpxtpx:hr>155</gpxtpx:hr>
<gpxtpx:atemp>11</gpxtpx:atemp>
</gpxtpx:TrackPointExtension>
</extensions>
</trkpt>
<trkpt lat="47.638395465910435" lon="12.201083153486252">
<ele>481</ele>
<time>2012-03-03T12:21:26Z</time>
<extensions>
<gpxtpx:TrackPointExtension>
<gpxtpx:hr>155</gpxtpx:hr>
<gpxtpx:atemp>11</gpxtpx:atemp>
</gpxtpx:TrackPointExtension>
</extensions>
</trkpt>
<trkpt lat="47.63832539319992" lon="12.201113915070891">
<ele>481</ele>
<time>2012-03-03T12:21:27Z</time>
<extensions>
<gpxtpx:TrackPointExtension>
<gpxtpx:hr>156</gpxtpx:hr>
<gpxtpx:atemp>11</gpxtpx:atemp>
</gpxtpx:TrackPointExtension>
</extensions>
</trkpt>
<trkpt lat="47.63817862607539" lon="12.201171414926648">
<ele>481</ele>
<time>2012-03-03T12:21:29Z</time>
<extensions>
<gpxtpx:TrackPointExtension>
<gpxtpx:hr>155</gpxtpx:hr>
<gpxtpx:atemp>11</gpxtpx:atemp>
</gpxtpx:TrackPointExtension>
</extensions>
</trkpt>
<trkpt lat="47.63759683817625" lon="12.201381046324968">
<ele>481</ele>
<time>2012-03-03T12:21:37Z</time>
<extensions>
<gpxtpx:TrackPointExtension>
<gpxtpx:hr>155</gpxtpx:hr>
<gpxtpx:atemp>11</gpxtpx:atemp>
</gpxtpx:TrackPointExtension>
</extensions>
</trkpt>
<trkpt lat="47.63745023868978" lon="12.20143393613398">
<ele>481</ele>
<time>2012-03-03T12:21:39Z</time>
<extensions>
<gpxtpx:TrackPointExtension>
<gpxtpx:hr>155</gpxtpx:hr>
<gpxtpx:atemp>11</gpxtpx:atemp>
</gpxtpx:TrackPointExtension>
</extensions>
</trkpt>
<trkpt lat="47.63693223707378" lon="12.20162152312696">
<ele>481</ele>
<time>2012-03-03T12:21:46Z</time>
<extensions>
<gpxtpx:TrackPointExtension>
<gpxtpx:hr>153</gpxtpx:hr>
<gpxtpx:atemp>11</gpxtpx:atemp>
</gpxtpx:TrackPointExtension>
</extensions>
</trkpt>
<trkpt lat="47.63633142225444" lon="12.201818581670523">
<ele>481</ele>
<time>2012-03-03T12:21:54Z</time>
<extensions>
<gpxtpx:TrackPointExtension>
<gpxtpx:hr>153</gpxtpx:hr>
<gpxtpx:atemp>11</gpxtpx:atemp>
</gpxtpx:TrackPointExtension>
</extensions>
</trkpt>
<trkpt lat="47.636255230754614" lon="12.201842470094562">
<ele>481</ele>
<time>2012-03-03T12:21:55Z</time>
<extensions>
<gpxtpx:TrackPointExtension>
<gpxtpx:hr>153</gpxtpx:hr>
<gpxtpx:atemp>11</gpxtpx:atemp>
</gpxtpx:TrackPointExtension>
</extensions>
</trkpt>
<trkpt lat="47.63572197407484" lon="12.202019412070513">
<ele>481</ele>
<time>2012-03-03T12:22:02Z</time>
<extensions>
<gpxtpx:TrackPointExtension>
<gpxtpx:hr>152</gpxtpx:hr>
<gpxtpx:atemp>11</gpxtpx:atemp>
</gpxtpx:TrackPointExtension>
</extensions>
</trkpt>
<trkpt lat="47.63549163937569" lon="12.202089065685868">
<ele>481</ele>
<time>2012-03-03T12:22:05Z</time>
<extensions>
<gpxtpx:TrackPointExtension>
<gpxtpx:hr>152</gpxtpx:hr>
<gpxtpx:atemp>11</gpxtpx:atemp>
</gpxtpx:TrackPointExtension>
</extensions>
</trkpt>
<trkpt lat="47.63496450148523" lon="12.202256871387362">
<ele>481</ele>
<time>2012-03-03T12:22:12Z</time>
<extensions>
<gpxtpx:TrackPointExtension>
<gpxtpx:hr>151</gpxtpx:hr>
<gpxtpx:atemp>11</gpxtpx:atemp>
</gpxtpx:TrackPointExtension>
</extensions>
</trkpt>
<trkpt lat="47.63443434610963" lon="12.202407829463482">
<ele>481</ele>
<time>2012-03-03T12:22:19Z</time>
<extensions>
<gpxtpx:TrackPointExtension>
<gpxtpx:hr>151</gpxtpx:hr>
<gpxtpx:atemp>11</gpxtpx:atemp>
</gpxtpx:TrackPointExtension>
</extensions>
</trkpt>
<trkpt lat="47.63420375995338" lon="12.202477063983679">
<ele>481</ele>
<time>2012-03-03T12:22:22Z</time>
<extensions>
<gpxtpx:TrackPointExtension>
<gpxtpx:hr>151</gpxtpx:hr>
<gpxtpx:atemp>11</gpxtpx:atemp>
</gpxtpx:TrackPointExtension>
</extensions>
</trkpt>
<trkpt lat="47.63366740196943" lon="12.202645456418395">
<ele>481</ele>
<time>2012-03-03T12:22:29Z</time>
<extensions>
<gpxtpx:TrackPointExtension>
<gpxtpx:hr>150</gpxtpx:hr>
<gpxtpx:atemp>11</gpxtpx:atemp>
</gpxtpx:TrackPointExtension>
</extensions>
</trkpt>
<trkpt lat="47.633441258221865" lon="12.202714271843433">
<ele>481</ele>
<time>2012-03-03T12:22:32Z</time>
<extensions>
<gpxtpx:TrackPointExtension>
<gpxtpx:hr>150</gpxtpx:hr>
<gpxtpx:atemp>11</gpxtpx:atemp>
</gpxtpx:TrackPointExtension>
</extensions>
</trkpt>
<trkpt lat="47.63289517723024" lon="12.202882915735245">
<ele>481</ele>
<time>2012-03-03T12:22:39Z</time>
<extensions>
<gpxtpx:TrackPointExtension>
<gpxtpx:hr>151</gpxtpx:hr>
<gpxtpx:atemp>11</gpxtpx:atemp>
</gpxtpx:TrackPointExtension>
</extensions>
</trkpt>
<trkpt lat="47.63274069875479" lon="12.202931698411703">
<ele>481</ele>
<time>2012-03-03T12:22:41Z</time>
<extensions>
<gpxtpx:TrackPointExtension>
<gpxtpx:hr>150</gpxtpx:hr>
<gpxtpx:atemp>11</gpxtpx:atemp>
</gpxtpx:TrackPointExtension>
</extensions>
</trkpt>
<trkpt lat="47.632192354649305" lon="12.203094307333231">
<ele>481</ele>
<time>2012-03-03T12:22:48Z</time>
<extensions>
<gpxtpx:TrackPointExtension>
<gpxtpx:hr>149</gpxtpx:hr>
<gpxtpx:atemp>11</gpxtpx:atemp>
</gpxtpx:TrackPointExtension>
</extensions>
</trkpt>
<trkpt lat="47.63165599666536" lon="12.203261526301503">
<ele>481</ele>
<time>2012-03-03T12:22:55Z</time>
<extensions>
<gpxtpx:TrackPointExtension>
<gpxtpx:hr>149</gpxtpx:hr>
<gpxtpx:atemp>11</gpxtpx:atemp>
</gpxtpx:TrackPointExtension>
</extensions>
</trkpt>
<trkpt lat="47.63158223591745" lon="12.203281223773956">
<ele>481</ele>
<time>2012-03-03T12:22:56Z</time>
<extensions>
<gpxtpx:TrackPointExtension>
<gpxtpx:hr>149</gpxtpx:hr>
<gpxtpx:atemp>11</gpxtpx:atemp>
</gpxtpx:TrackPointExtension>
</extensions>
</trkpt>
<trkpt lat="47.63105442747474" lon="12.203437881544232">
<ele>481</ele>
<time>2012-03-03T12:23:03Z</time>
<extensions>
<gpxtpx:TrackPointExtension>
<gpxtpx:hr>150</gpxtpx:hr>
<gpxtpx:atemp>11</gpxtpx:atemp>
</gpxtpx:TrackPointExtension>
</extensions>
</trkpt>
<trkpt lat="47.630680510774255" lon="12.203548857942224">
<ele>481</ele>
<time>2012-03-03T12:23:08Z</time>
<extensions>
<gpxtpx:TrackPointExtension>
<gpxtpx:hr>153</gpxtpx:hr>
<gpxtpx:atemp>11</gpxtpx:atemp>
</gpxtpx:TrackPointExtension>
</extensions>
</trkpt>
<trkpt lat="47.63037968426943" lon="12.20363317988813">
<ele>481</ele>
<time>2012-03-03T12:23:12Z</time>
<extensions>
<gpxtpx:TrackPointExtension>
<gpxtpx:hr>154</gpxtpx:hr>
<gpxtpx:atemp>11</gpxtpx:atemp>
</gpxtpx:TrackPointExtension>
</extensions>
</trkpt>
<trkpt lat="47.629843074828386" lon="12.203743485733867">
<ele>481</ele>
<time>2012-03-03T12:23:19Z</time>
<extensions>
<gpxtpx:TrackPointExtension>
<gpxtpx:hr>154</gpxtpx:hr>
<gpxtpx:atemp>11</gpxtpx:atemp>
</gpxtpx:TrackPointExtension>
</extensions>
</trkpt>
<trkpt lat="47.6294849999249" lon="12.203893102705479">
<ele>481</ele>
<time>2012-03-03T12:23:24Z</time>
<extensions>
<gpxtpx:TrackPointExtension>
<gpxtpx:hr>153</gpxtpx:hr>
<gpxtpx:atemp>11</gpxtpx:atemp>
</gpxtpx:TrackPointExtension>
</extensions>
</trkpt>
<trkpt lat="47.62941660359502" lon="12.203947752714157">
<ele>481</ele>
<time>2012-03-03T12:23:25Z</time>
<extensions>
<gpxtpx:TrackPointExtension>
<gpxtpx:hr>153</gpxtpx:hr>
<gpxtpx:atemp>11</gpxtpx:atemp>
</gpxtpx:TrackPointExtension>
</extensions>
</trkpt>
<trkpt lat="47.62920361943543" lon="12.204117821529508">
<ele>481</ele>
<time>2012-03-03T12:23:28Z</time>
<extensions>
<gpxtpx:TrackPointExtension>
<gpxtpx:hr>153</gpxtpx:hr>
<gpxtpx:atemp>11</gpxtpx:atemp>
</gpxtpx:TrackPointExtension>
</extensions>
</trkpt>
<trkpt lat="47.62878779321909" lon="12.204406913369894">
<ele>481</ele>
<time>2012-03-03T12:23:34Z</time>
<extensions>
<gpxtpx:TrackPointExtension>
<gpxtpx:hr>152</gpxtpx:hr>
<gpxtpx:atemp>11</gpxtpx:atemp>
</gpxtpx:TrackPointExtension>
</extensions>
</trkpt>
<trkpt lat="47.62864362448454" lon="12.204481260851026">
<ele>481</ele>
<time>2012-03-03T12:23:36Z</time>
<extensions>
<gpxtpx:TrackPointExtension>
<gpxtpx:hr>151</gpxtpx:hr>
<gpxtpx:atemp>11</gpxtpx:atemp>
</gpxtpx:TrackPointExtension>
</extensions>
</trkpt>
<trkpt lat="47.62848772108555" lon="12.20451663248241">
<ele>481</ele>
<time>2012-03-03T12:23:38Z</time>
<extensions>
<gpxtpx:TrackPointExtension>
<gpxtpx:hr>151</gpxtpx:hr>
<gpxtpx:atemp>11</gpxtpx:atemp>
</gpxtpx:TrackPointExtension>
</extensions>
</trkpt>
<trkpt lat="47.62841010466218" lon="12.204520404338837">
<ele>481</ele>
<time>2012-03-03T12:23:39Z</time>
<extensions>
<gpxtpx:TrackPointExtension>
<gpxtpx:hr>150</gpxtpx:hr>
<gpxtpx:atemp>11</gpxtpx:atemp>
</gpxtpx:TrackPointExtension>
</extensions>
</trkpt>
<trkpt lat="47.6281070150435" lon="12.204528786242008">
<ele>481</ele>
<time>2012-03-03T12:23:43Z</time>
<extensions>
<gpxtpx:TrackPointExtension>
<gpxtpx:hr>149</gpxtpx:hr>
<gpxtpx:atemp>11</gpxtpx:atemp>
</gpxtpx:TrackPointExtension>
</extensions>
</trkpt>
<trkpt lat="47.62757761403918" lon="12.204560218378901">
<ele>481</ele>
<time>2012-03-03T12:23:50Z</time>
<extensions>
<gpxtpx:TrackPointExtension>
<gpxtpx:hr>148</gpxtpx:hr>
<gpxtpx:atemp>11</gpxtpx:atemp>
</gpxtpx:TrackPointExtension>
</extensions>
</trkpt>
<trkpt lat="47.627129685133696" lon="12.204563738778234">
<ele>481</ele>
<time>2012-03-03T12:23:56Z</time>
<extensions>
<gpxtpx:TrackPointExtension>
<gpxtpx:hr>149</gpxtpx:hr>
<gpxtpx:atemp>11</gpxtpx:atemp>
</gpxtpx:TrackPointExtension>
</extensions>
</trkpt>
<trkpt lat="47.62690546922386" lon="12.204550495371222">
<ele>481</ele>
<time>2012-03-03T12:23:59Z</time>
<extensions>
<gpxtpx:TrackPointExtension>
<gpxtpx:hr>149</gpxtpx:hr>
<gpxtpx:atemp>11</gpxtpx:atemp>
</gpxtpx:TrackPointExtension>
</extensions>
</trkpt>
<trkpt lat="47.62683380395174" lon="12.204526187852025">
<ele>481</ele>
<time>2012-03-03T12:24:00Z</time>
<extensions>
<gpxtpx:TrackPointExtension>
<gpxtpx:hr>148</gpxtpx:hr>
<gpxtpx:atemp>11</gpxtpx:atemp>
</gpxtpx:TrackPointExtension>
</extensions>
</trkpt>
<trkpt lat="47.62657094746828" lon="12.204341618344188">
<ele>481</ele>
<time>2012-03-03T12:24:04Z</time>
<extensions>
<gpxtpx:TrackPointExtension>
<gpxtpx:hr>149</gpxtpx:hr>
<gpxtpx:atemp>11</gpxtpx:atemp>
</gpxtpx:TrackPointExtension>
</extensions>
</trkpt>
<trkpt lat="47.626252602785826" lon="12.204090999439359">
<ele>481</ele>
<time>2012-03-03T12:24:09Z</time>
<extensions>
<gpxtpx:TrackPointExtension>
<gpxtpx:hr>150</gpxtpx:hr>
<gpxtpx:atemp>11</gpxtpx:atemp>
</gpxtpx:TrackPointExtension>
</extensions>
</trkpt>
<trkpt lat="47.62618286535144" lon="12.204070212319493">
<ele>481</ele>
<time>2012-03-03T12:24:10Z</time>
<extensions>
<gpxtpx:TrackPointExtension>
<gpxtpx:hr>150</gpxtpx:hr>
<gpxtpx:atemp>11</gpxtpx:atemp>
</gpxtpx:TrackPointExtension>
</extensions>
</trkpt>
<trkpt lat="47.625823030248284" lon="12.204063003882766">
<ele>481</ele>
<time>2012-03-03T12:24:15Z</time>
<extensions>
<gpxtpx:TrackPointExtension>
<gpxtpx:hr>150</gpxtpx:hr>
<gpxtpx:atemp>11</gpxtpx:atemp>
</gpxtpx:TrackPointExtension>
</extensions>
</trkpt>
<trkpt lat="47.625310979783535" lon="12.204149337485433">
<ele>481</ele>
<time>2012-03-03T12:24:23Z</time>
<extensions>
<gpxtpx:TrackPointExtension>
<gpxtpx:hr>149</gpxtpx:hr>
<gpxtpx:atemp>11</gpxtpx:atemp>
</gpxtpx:TrackPointExtension>
</extensions>
</trkpt>
<trkpt lat="47.62516479939222" lon="12.204181691631675">
<ele>481</ele>
<time>2012-03-03T12:24:26Z</time>
<extensions>
<gpxtpx:TrackPointExtension>
<gpxtpx:hr>149</gpxtpx:hr>
<gpxtpx:atemp>11</gpxtpx:atemp>
</gpxtpx:TrackPointExtension>
</extensions>
</trkpt>
<trkpt lat="47.625062288716435" lon="12.204189989715815">
<ele>481</ele>
<time>2012-03-03T12:24:28Z</time>
<extensions>
<gpxtpx:TrackPointExtension>
<gpxtpx:hr>149</gpxtpx:hr>
<gpxtpx:atemp>11</gpxtpx:atemp>
</gpxtpx:TrackPointExtension>
</extensions>
</trkpt>
<trkpt lat="47.6248742826283" lon="12.2041976172477">
<ele>481</ele>
<time>2012-03-03T12:24:31Z</time>
<extensions>
<gpxtpx:TrackPointExtension>
<gpxtpx:hr>149</gpxtpx:hr>
<gpxtpx:atemp>11</gpxtpx:atemp>
</gpxtpx:TrackPointExtension>
</extensions>
</trkpt>
<trkpt lat="47.62480102479458" lon="12.204220499843359">
<ele>481</ele>
<time>2012-03-03T12:24:32Z</time>
<extensions>
<gpxtpx:TrackPointExtension>
<gpxtpx:hr>149</gpxtpx:hr>
<gpxtpx:atemp>11</gpxtpx:atemp>
</gpxtpx:TrackPointExtension>
</extensions>
</trkpt>
<trkpt lat="47.624507155269384" lon="12.204279592260718">
<ele>481</ele>
<time>2012-03-03T12:24:36Z</time>
<extensions>
<gpxtpx:TrackPointExtension>
<gpxtpx:hr>150</gpxtpx:hr>
<gpxtpx:atemp>11</gpxtpx:atemp>
</gpxtpx:TrackPointExtension>
</extensions>
</trkpt>
<trkpt lat="47.62393869459629" lon="12.204404901713133">
<ele>481</ele>
<time>2012-03-03T12:24:44Z</time>
<extensions>
<gpxtpx:TrackPointExtension>
<gpxtpx:hr>152</gpxtpx:hr>
<gpxtpx:atemp>11</gpxtpx:atemp>
</gpxtpx:TrackPointExtension>
</extensions>
</trkpt>
<trkpt lat="47.6238657720387" lon="12.204423090443015">
<ele>481</ele>
<time>2012-03-03T12:24:45Z</time>
<extensions>
<gpxtpx:TrackPointExtension>
<gpxtpx:hr>151</gpxtpx:hr>
<gpxtpx:atemp>11</gpxtpx:atemp>
</gpxtpx:TrackPointExtension>
</extensions>
</trkpt>
<trkpt lat="47.623273842036724" lon="12.204630374908447">
<ele>481</ele>
<time>2012-03-03T12:24:53Z</time>
<extensions>
<gpxtpx:TrackPointExtension>
<gpxtpx:hr>149</gpxtpx:hr>
<gpxtpx:atemp>11</gpxtpx:atemp>
</gpxtpx:TrackPointExtension>
</extensions>
</trkpt>
<trkpt lat="47.62275667861104" lon="12.204885687679052">
<ele>481</ele>
<time>2012-03-03T12:25:00Z</time>
<extensions>
<gpxtpx:TrackPointExtension>
<gpxtpx:hr>149</gpxtpx:hr>
<gpxtpx:atemp>11</gpxtpx:atemp>
</gpxtpx:TrackPointExtension>
</extensions>
</trkpt>
<trkpt lat="47.62268451042473" lon="12.204925753176212">
<ele>481</ele>
<time>2012-03-03T12:25:01Z</time>
<extensions>
<gpxtpx:TrackPointExtension>
<gpxtpx:hr>148</gpxtpx:hr>
<gpxtpx:atemp>11</gpxtpx:atemp>
</gpxtpx:TrackPointExtension>
</extensions>
</trkpt>
<trkpt lat="47.62218059040606" lon="12.20520713366568">
<ele>481</ele>
<time>2012-03-03T12:25:08Z</time>
<extensions>
<gpxtpx:TrackPointExtension>
<gpxtpx:hr>148</gpxtpx:hr>
<gpxtpx:atemp>11</gpxtpx:atemp>
</gpxtpx:TrackPointExtension>
</extensions>
</trkpt>
<trkpt lat="47.62175495736301" lon="12.205443838611245">
<ele>481</ele>
<time>2012-03-03T12:25:14Z</time>
<extensions>
<gpxtpx:TrackPointExtension>
<gpxtpx:hr>151</gpxtpx:hr>
<gpxtpx:atemp>11</gpxtpx:atemp>
</gpxtpx:TrackPointExtension>
</extensions>
</trkpt>
<trkpt lat="47.62161824852228" lon="12.205519108101726">
<ele>481</ele>
<time>2012-03-03T12:25:16Z</time>
<extensions>
<gpxtpx:TrackPointExtension>
<gpxtpx:hr>152</gpxtpx:hr>
<gpxtpx:atemp>11</gpxtpx:atemp>
</gpxtpx:TrackPointExtension>
</extensions>
</trkpt>
<trkpt lat="47.62106403708458" lon="12.205822532996535">
<ele>481</ele>
<time>2012-03-03T12:25:24Z</time>
<extensions>
<gpxtpx:TrackPointExtension>
<gpxtpx:hr>152</gpxtpx:hr>
<gpxtpx:atemp>11</gpxtpx:atemp>
</gpxtpx:TrackPointExtension>
</extensions>
</trkpt>
<trkpt lat="47.6209922041744" lon="12.205856563523412">
<ele>481</ele>
<time>2012-03-03T12:25:25Z</time>
<extensions>
<gpxtpx:TrackPointExtension>
<gpxtpx:hr>152</gpxtpx:hr>
<gpxtpx:atemp>11</gpxtpx:atemp>
</gpxtpx:TrackPointExtension>
</extensions>
</trkpt>
<trkpt lat="47.62092397548258" lon="12.20589017495513">
<ele>482</ele>
<time>2012-03-03T12:25:26Z</time>
<extensions>
<gpxtpx:TrackPointExtension>
<gpxtpx:hr>152</gpxtpx:hr>
<gpxtpx:atemp>11</gpxtpx:atemp>
</gpxtpx:TrackPointExtension>
</extensions>
</trkpt>
<trkpt lat="47.6208555791527" lon="12.205925462767482">
<ele>482</ele>
<time>2012-03-03T12:25:27Z</time>
<extensions>
<gpxtpx:TrackPointExtension>
<gpxtpx:hr>152</gpxtpx:hr>
<gpxtpx:atemp>11</gpxtpx:atemp>
</gpxtpx:TrackPointExtension>
</extensions>
</trkpt>
<trkpt lat="47.62078802101314" lon="12.205960918217897">
<ele>483</ele>
<time>2012-03-03T12:25:28Z</time>
<extensions>
<gpxtpx:TrackPointExtension>
<gpxtpx:hr>152</gpxtpx:hr>
<gpxtpx:atemp>11</gpxtpx:atemp>
</gpxtpx:TrackPointExtension>
</extensions>
</trkpt>
<trkpt lat="47.62031251564622" lon="12.206225199624896">
<ele>483</ele>
<time>2012-03-03T12:25:35Z</time>
<extensions>
<gpxtpx:TrackPointExtension>
<gpxtpx:hr>152</gpxtpx:hr>
<gpxtpx:atemp>11</gpxtpx:atemp>
</gpxtpx:TrackPointExtension>
</extensions>
</trkpt>
<trkpt lat="47.61977104470134" lon="12.206505741924047">
<ele>483</ele>
<time>2012-03-03T12:25:43Z</time>
<extensions>
<gpxtpx:TrackPointExtension>
<gpxtpx:hr>152</gpxtpx:hr>
<gpxtpx:atemp>11</gpxtpx:atemp>
</gpxtpx:TrackPointExtension>
</extensions>
</trkpt>
<trkpt lat="47.61956694535911" lon="12.206614622846246">
<ele>483</ele>
<time>2012-03-03T12:25:46Z</time>
<extensions>
<gpxtpx:TrackPointExtension>
<gpxtpx:hr>152</gpxtpx:hr>
<gpxtpx:atemp>11</gpxtpx:atemp>
</gpxtpx:TrackPointExtension>
</extensions>
</trkpt>
<trkpt lat="47.61916385963559" lon="12.206846550107002">
<ele>483</ele>
<time>2012-03-03T12:25:52Z</time>
<extensions>
<gpxtpx:TrackPointExtension>
<gpxtpx:hr>155</gpxtpx:hr>
<gpxtpx:atemp>11</gpxtpx:atemp>
</gpxtpx:TrackPointExtension>
</extensions>
</trkpt>
<trkpt lat="47.61889144778252" lon="12.206992395222187">
<ele>483</ele>
<time>2012-03-03T12:25:56Z</time>
<extensions>
<gpxtpx:TrackPointExtension>
<gpxtpx:hr>156</gpxtpx:hr>
<gpxtpx:atemp>11</gpxtpx:atemp>
</gpxtpx:TrackPointExtension>
</extensions>
</trkpt>
<trkpt lat="47.61835810728371" lon="12.207261621952057">
<ele>483</ele>
<time>2012-03-03T12:26:04Z</time>
<extensions>
<gpxtpx:TrackPointExtension>
<gpxtpx:hr>156</gpxtpx:hr>
<gpxtpx:atemp>11</gpxtpx:atemp>
</gpxtpx:TrackPointExtension>
</extensions>
</trkpt>
<trkpt lat="47.61783817782998" lon="12.207527915015817">
<ele>483</ele>
<time>2012-03-03T12:26:12Z</time>
<extensions>
<gpxtpx:TrackPointExtension>
<gpxtpx:hr>156</gpxtpx:hr>
<gpxtpx:atemp>11</gpxtpx:atemp>
</gpxtpx:TrackPointExtension>
</extensions>
</trkpt>
<trkpt lat="47.61732009239495" lon="12.207783311605453">
<ele>483</ele>
<time>2012-03-03T12:26:20Z</time>
<extensions>
<gpxtpx:TrackPointExtension>
<gpxtpx:hr>156</gpxtpx:hr>
<gpxtpx:atemp>11</gpxtpx:atemp>
</gpxtpx:TrackPointExtension>
</extensions>
</trkpt>
<trkpt lat="47.61725471355021" lon="12.207818599417806">
<ele>483</ele>
<time>2012-03-03T12:26:21Z</time>
<extensions>
<gpxtpx:TrackPointExtension>
<gpxtpx:hr>156</gpxtpx:hr>
<gpxtpx:atemp>11</gpxtpx:atemp>
</gpxtpx:TrackPointExtension>
</extensions>
</trkpt>
<trkpt lat="47.61678901501" lon="12.208059327676892">
<ele>483</ele>
<time>2012-03-03T12:26:28Z</time>
<extensions>
<gpxtpx:TrackPointExtension>
<gpxtpx:hr>157</gpxtpx:hr>
<gpxtpx:atemp>11</gpxtpx:atemp>
</gpxtpx:TrackPointExtension>
</extensions>
</trkpt>
<trkpt lat="47.61624771170318" lon="12.208317909389734">
<ele>483</ele>
<time>2012-03-03T12:26:36Z</time>
<extensions>
<gpxtpx:TrackPointExtension>
<gpxtpx:hr>158</gpxtpx:hr>
<gpxtpx:atemp>11</gpxtpx:atemp>
</gpxtpx:TrackPointExtension>
</extensions>
</trkpt>
<trkpt lat="47.61611804366112" lon="12.20837289467454">
<ele>483</ele>
<time>2012-03-03T12:26:38Z</time>
<extensions>
<gpxtpx:TrackPointExtension>
<gpxtpx:hr>158</gpxtpx:hr>
<gpxtpx:atemp>11</gpxtpx:atemp>
</gpxtpx:TrackPointExtension>
</extensions>
</trkpt>
<trkpt lat="47.61564027518034" lon="12.20860163681209">
<ele>483</ele>
<time>2012-03-03T12:26:45Z</time>
<extensions>
<gpxtpx:TrackPointExtension>
<gpxtpx:hr>157</gpxtpx:hr>
<gpxtpx:atemp>11</gpxtpx:atemp>
</gpxtpx:TrackPointExtension>
</extensions>
</trkpt>
<trkpt lat="47.615068880841136" lon="12.208838928490877">
<ele>483</ele>
<time>2012-03-03T12:26:53Z</time>
<extensions>
<gpxtpx:TrackPointExtension>
<gpxtpx:hr>158</gpxtpx:hr>
<gpxtpx:atemp>11</gpxtpx:atemp>
</gpxtpx:TrackPointExtension>
</extensions>
</trkpt>
<trkpt lat="47.61450285091996" lon="12.209020731970668">
<ele>483</ele>
<time>2012-03-03T12:27:01Z</time>
<extensions>
<gpxtpx:TrackPointExtension>
<gpxtpx:hr>159</gpxtpx:hr>
<gpxtpx:atemp>11</gpxtpx:atemp>
</gpxtpx:TrackPointExtension>
</extensions>
</trkpt>
<trkpt lat="47.61394369415939" lon="12.209195997565985">
<ele>483</ele>
<time>2012-03-03T12:27:09Z</time>
<extensions>
<gpxtpx:TrackPointExtension>
<gpxtpx:hr>160</gpxtpx:hr>
<gpxtpx:atemp>11</gpxtpx:atemp>
</gpxtpx:TrackPointExtension>
</extensions>
</trkpt>
<trkpt lat="47.61387529782951" lon="12.20921334810555">
<ele>483</ele>
<time>2012-03-03T12:27:10Z</time>
<extensions>
<gpxtpx:TrackPointExtension>
<gpxtpx:hr>160</gpxtpx:hr>
<gpxtpx:atemp>11</gpxtpx:atemp>
</gpxtpx:TrackPointExtension>
</extensions>
</trkpt>
<trkpt lat="47.613314632326365" lon="12.209307895973325">
<ele>483</ele>
<time>2012-03-03T12:27:18Z</time>
<extensions>
<gpxtpx:TrackPointExtension>
<gpxtpx:hr>160</gpxtpx:hr>
<gpxtpx:atemp>11</gpxtpx:atemp>
</gpxtpx:TrackPointExtension>
</extensions>
</trkpt>
<trkpt lat="47.6127377897501" lon="12.209329856559634">
<ele>483</ele>
<time>2012-03-03T12:27:26Z</time>
<extensions>
<gpxtpx:TrackPointExtension>
<gpxtpx:hr>159</gpxtpx:hr>
<gpxtpx:atemp>11</gpxtpx:atemp>
</gpxtpx:TrackPointExtension>
</extensions>
</trkpt>
<trkpt lat="47.61216522194445" lon="12.209283169358969">
<ele>483</ele>
<time>2012-03-03T12:27:34Z</time>
<extensions>
<gpxtpx:TrackPointExtension>
<gpxtpx:hr>159</gpxtpx:hr>
<gpxtpx:atemp>11</gpxtpx:atemp>
</gpxtpx:TrackPointExtension>
</extensions>
</trkpt>
<trkpt lat="47.611585361883044" lon="12.209142437204719">
<ele>483</ele>
<time>2012-03-03T12:27:42Z</time>
<extensions>
<gpxtpx:TrackPointExtension>
<gpxtpx:hr>159</gpxtpx:hr>
<gpxtpx:atemp>11</gpxtpx:atemp>
</gpxtpx:TrackPointExtension>
</extensions>
</trkpt>
<trkpt lat="47.611019499599934" lon="12.208949737250805">
<ele>483</ele>
<time>2012-03-03T12:27:50Z</time>
<extensions>
<gpxtpx:TrackPointExtension>
<gpxtpx:hr>160</gpxtpx:hr>
<gpxtpx:atemp>11</gpxtpx:atemp>
</gpxtpx:TrackPointExtension>
</extensions>
</trkpt>
<trkpt lat="47.61088295839727" lon="12.208890980109572">
<ele>483</ele>
<time>2012-03-03T12:27:52Z</time>
<extensions>
<gpxtpx:TrackPointExtension>
<gpxtpx:hr>159</gpxtpx:hr>
<gpxtpx:atemp>11</gpxtpx:atemp>
</gpxtpx:TrackPointExtension>
</extensions>
</trkpt>
<trkpt lat="47.610621275380254" lon="12.208770113065839">
<ele>482</ele>
<time>2012-03-03T12:27:56Z</time>
<extensions>
<gpxtpx:TrackPointExtension>
<gpxtpx:hr>159</gpxtpx:hr>
<gpxtpx:atemp>11</gpxtpx:atemp>
</gpxtpx:TrackPointExtension>
</extensions>
</trkpt>
<trkpt lat="47.61055774055421" lon="12.208740189671516">
<ele>482</ele>
<time>2012-03-03T12:27:57Z</time>
<extensions>
<gpxtpx:TrackPointExtension>
<gpxtpx:hr>158</gpxtpx:hr>
<gpxtpx:atemp>11</gpxtpx:atemp>
</gpxtpx:TrackPointExtension>
</extensions>
</trkpt>
<trkpt lat="47.61049118824303" lon="12.208712613210082">
<ele>481</ele>
<time>2012-03-03T12:27:58Z</time>
<extensions>
<gpxtpx:TrackPointExtension>
<gpxtpx:hr>158</gpxtpx:hr>
<gpxtpx:atemp>11</gpxtpx:atemp>
</gpxtpx:TrackPointExtension>
</extensions>
</trkpt>
<trkpt lat="47.610426396131516" lon="12.208691826090217">
<ele>481</ele>
<time>2012-03-03T12:27:59Z</time>
<extensions>
<gpxtpx:TrackPointExtension>
<gpxtpx:hr>158</gpxtpx:hr>
<gpxtpx:atemp>11</gpxtpx:atemp>
</gpxtpx:TrackPointExtension>
</extensions>
</trkpt>
<trkpt lat="47.610362358391285" lon="12.208683779463172">
<ele>481</ele>
<time>2012-03-03T12:28:00Z</time>
<extensions>
<gpxtpx:TrackPointExtension>
<gpxtpx:hr>157</gpxtpx:hr>
<gpxtpx:atemp>11</gpxtpx:atemp>
</gpxtpx:TrackPointExtension>
</extensions>
</trkpt>
<trkpt lat="47.6102960575372" lon="12.208688138052821">
<ele>481</ele>
<time>2012-03-03T12:28:01Z</time>
<extensions>
<gpxtpx:TrackPointExtension>
<gpxtpx:hr>157</gpxtpx:hr>
<gpxtpx:atemp>11</gpxtpx:atemp>
</gpxtpx:TrackPointExtension>
</extensions>
</trkpt>
<trkpt lat="47.6100819837302" lon="12.208745973184705">
<ele>481</ele>
<time>2012-03-03T12:28:04Z</time>
<extensions>
<gpxtpx:TrackPointExtension>
<gpxtpx:hr>156</gpxtpx:hr>
<gpxtpx:atemp>11</gpxtpx:atemp>
</gpxtpx:TrackPointExtension>
</extensions>
</trkpt>
<trkpt lat="47.61000922881067" lon="12.20875259488821">
<ele>481</ele>
<time>2012-03-03T12:28:05Z</time>
<extensions>
<gpxtpx:TrackPointExtension>
<gpxtpx:hr>155</gpxtpx:hr>
<gpxtpx:atemp>11</gpxtpx:atemp>
</gpxtpx:TrackPointExtension>
</extensions>
</trkpt>
<trkpt lat="47.60958602651954" lon="12.208727616816759">
<ele>481</ele>
<time>2012-03-03T12:28:11Z</time>
<extensions>
<gpxtpx:TrackPointExtension>
<gpxtpx:hr>154</gpxtpx:hr>
<gpxtpx:atemp>11</gpxtpx:atemp>
</gpxtpx:TrackPointExtension>
</extensions>
</trkpt>
<trkpt lat="47.60951964184642" lon="12.208707248792052">
<ele>481</ele>
<time>2012-03-03T12:28:12Z</time>
<extensions>
<gpxtpx:TrackPointExtension>
<gpxtpx:hr>155</gpxtpx:hr>
<gpxtpx:atemp>11</gpxtpx:atemp>
</gpxtpx:TrackPointExtension>
</extensions>
</trkpt>
<trkpt lat="47.6093409396708" lon="12.208555284887552">
<ele>481</ele>
<time>2012-03-03T12:28:15Z</time>
<extensions>
<gpxtpx:TrackPointExtension>
<gpxtpx:hr>155</gpxtpx:hr>
<gpxtpx:atemp>11</gpxtpx:atemp>
</gpxtpx:TrackPointExtension>
</extensions>
</trkpt>
<trkpt lat="47.60924412868917" lon="12.20840374007821">
<ele>481</ele>
<time>2012-03-03T12:28:17Z</time>
<extensions>
<gpxtpx:TrackPointExtension>
<gpxtpx:hr>154</gpxtpx:hr>
<gpxtpx:atemp>11</gpxtpx:atemp>
</gpxtpx:TrackPointExtension>
</extensions>
</trkpt>
<trkpt lat="47.609110521152616" lon="12.208171645179391">
<ele>481</ele>
<time>2012-03-03T12:28:20Z</time>
<extensions>
<gpxtpx:TrackPointExtension>
<gpxtpx:hr>153</gpxtpx:hr>
<gpxtpx:atemp>11</gpxtpx:atemp>
</gpxtpx:TrackPointExtension>
</extensions>
</trkpt>
<trkpt lat="47.6088110357523" lon="12.207806697115302">
<ele>481</ele>
<time>2012-03-03T12:28:26Z</time>
<extensions>
<gpxtpx:TrackPointExtension>
<gpxtpx:hr>154</gpxtpx:hr>
<gpxtpx:atemp>11</gpxtpx:atemp>
</gpxtpx:TrackPointExtension>
</extensions>
</trkpt>
<trkpt lat="47.60851616039872" lon="12.207576781511307">
<ele>481</ele>
<time>2012-03-03T12:28:31Z</time>
<extensions>
<gpxtpx:TrackPointExtension>
<gpxtpx:hr>153</gpxtpx:hr>
<gpxtpx:atemp>11</gpxtpx:atemp>
</gpxtpx:TrackPointExtension>
</extensions>
</trkpt>
<trkpt lat="47.608100501820445" lon="12.207434372976422">
<ele>481</ele>
<time>2012-03-03T12:28:37Z</time>
<extensions>
<gpxtpx:TrackPointExtension>
<gpxtpx:hr>152</gpxtpx:hr>
<gpxtpx:atemp>11</gpxtpx:atemp>
</gpxtpx:TrackPointExtension>
</extensions>
</trkpt>
<trkpt lat="47.60755098424852" lon="12.207279643043876">
<ele>481</ele>
<time>2012-03-03T12:28:45Z</time>
<extensions>
<gpxtpx:TrackPointExtension>
<gpxtpx:hr>153</gpxtpx:hr>
<gpxtpx:atemp>11</gpxtpx:atemp>
</gpxtpx:TrackPointExtension>
</extensions>
</trkpt>
<trkpt lat="47.60710506699979" lon="12.20706481486559">
<ele>481</ele>
<time>2012-03-03T12:28:52Z</time>
<extensions>
<gpxtpx:TrackPointExtension>
<gpxtpx:hr>153</gpxtpx:hr>
<gpxtpx:atemp>11</gpxtpx:atemp>
</gpxtpx:TrackPointExtension>
</extensions>
</trkpt>
<trkpt lat="47.6069785002619" lon="12.206987868994474">
<ele>481</ele>
<time>2012-03-03T12:28:54Z</time>
<extensions>
<gpxtpx:TrackPointExtension>
<gpxtpx:hr>152</gpxtpx:hr>
<gpxtpx:atemp>11</gpxtpx:atemp>
</gpxtpx:TrackPointExtension>
</extensions>
</trkpt>
<trkpt lat="47.6068024802953" lon="12.20681956037879">
<ele>481</ele>
<time>2012-03-03T12:28:57Z</time>
<extensions>
<gpxtpx:TrackPointExtension>
<gpxtpx:hr>152</gpxtpx:hr>
<gpxtpx:atemp>11</gpxtpx:atemp>
</gpxtpx:TrackPointExtension>
</extensions>
</trkpt>
<trkpt lat="47.606699550524354" lon="12.206687713041902">
<ele>481</ele>
<time>2012-03-03T12:28:59Z</time>
<extensions>
<gpxtpx:TrackPointExtension>
<gpxtpx:hr>151</gpxtpx:hr>
<gpxtpx:atemp>11</gpxtpx:atemp>
</gpxtpx:TrackPointExtension>
</extensions>
</trkpt>
<trkpt lat="47.60657734237611" lon="12.206461569294333">
<ele>481</ele>
<time>2012-03-03T12:29:02Z</time>
<extensions>
<gpxtpx:TrackPointExtension>
<gpxtpx:hr>152</gpxtpx:hr>
<gpxtpx:atemp>11</gpxtpx:atemp>
</gpxtpx:TrackPointExtension>
</extensions>
</trkpt>
<trkpt lat="47.606465527787805" lon="12.206058232113719">
<ele>481</ele>
<time>2012-03-03T12:29:06Z</time>
<extensions>
<gpxtpx:TrackPointExtension>
<gpxtpx:hr>153</gpxtpx:hr>
<gpxtpx:atemp>11</gpxtpx:atemp>
</gpxtpx:TrackPointExtension>
</extensions>
</trkpt>
<trkpt lat="47.60636754333973" lon="12.205433193594217">
<ele>481</ele>
<time>2012-03-03T12:29:12Z</time>
<extensions>
<gpxtpx:TrackPointExtension>
<gpxtpx:hr>154</gpxtpx:hr>
<gpxtpx:atemp>11</gpxtpx:atemp>
</gpxtpx:TrackPointExtension>
</extensions>
</trkpt>
<trkpt lat="47.60625941678882" lon="12.204711008816957">
<ele>481</ele>
<time>2012-03-03T12:29:19Z</time>
<extensions>
<gpxtpx:TrackPointExtension>
<gpxtpx:hr>155</gpxtpx:hr>
<gpxtpx:atemp>11</gpxtpx:atemp>
</gpxtpx:TrackPointExtension>
</extensions>
</trkpt>
<trkpt lat="47.606244748458266" lon="12.204496432095766">
<ele>481</ele>
<time>2012-03-03T12:29:21Z</time>
<extensions>
<gpxtpx:TrackPointExtension>
<gpxtpx:hr>155</gpxtpx:hr>
<gpxtpx:atemp>11</gpxtpx:atemp>
</gpxtpx:TrackPointExtension>
</extensions>
</trkpt>
<trkpt lat="47.60617165826261" lon="12.204201053828001">
<ele>481</ele>
<time>2012-03-03T12:29:24Z</time>
<extensions>
<gpxtpx:TrackPointExtension>
<gpxtpx:hr>155</gpxtpx:hr>
<gpxtpx:atemp>11</gpxtpx:atemp>
</gpxtpx:TrackPointExtension>
</extensions>
</trkpt>
<trkpt lat="47.606139136478305" lon="12.204108266159892">
<ele>481</ele>
<time>2012-03-03T12:29:25Z</time>
<extensions>
<gpxtpx:TrackPointExtension>
<gpxtpx:hr>155</gpxtpx:hr>
<gpxtpx:atemp>11</gpxtpx:atemp>
</gpxtpx:TrackPointExtension>
</extensions>
</trkpt>
<trkpt lat="47.60590083897114" lon="12.203467469662428">
<ele>481</ele>
<time>2012-03-03T12:29:32Z</time>
<extensions>
<gpxtpx:TrackPointExtension>
<gpxtpx:hr>156</gpxtpx:hr>
<gpxtpx:atemp>11</gpxtpx:atemp>
</gpxtpx:TrackPointExtension>
</extensions>
</trkpt>
<trkpt lat="47.605687687173486" lon="12.20280596986413">
<ele>481</ele>
<time>2012-03-03T12:29:39Z</time>
<extensions>
<gpxtpx:TrackPointExtension>
<gpxtpx:hr>159</gpxtpx:hr>
<gpxtpx:atemp>11</gpxtpx:atemp>
</gpxtpx:TrackPointExtension>
</extensions>
</trkpt>
<trkpt lat="47.60565960779786" lon="12.202716283500195">
<ele>481</ele>
<time>2012-03-03T12:29:40Z</time>
<extensions>
<gpxtpx:TrackPointExtension>
<gpxtpx:hr>159</gpxtpx:hr>
<gpxtpx:atemp>11</gpxtpx:atemp>
</gpxtpx:TrackPointExtension>
</extensions>
</trkpt>
<trkpt lat="47.605488281697035" lon="12.202046737074852">
<ele>481</ele>
<time>2012-03-03T12:29:47Z</time>
<extensions>
<gpxtpx:TrackPointExtension>
<gpxtpx:hr>161</gpxtpx:hr>
<gpxtpx:atemp>10</gpxtpx:atemp>
</gpxtpx:TrackPointExtension>
</extensions>
</trkpt>
<trkpt lat="47.60533330030739" lon="12.201241822913289">
<ele>481</ele>
<time>2012-03-03T12:29:55Z</time>
<extensions>
<gpxtpx:TrackPointExtension>
<gpxtpx:hr>162</gpxtpx:hr>
<gpxtpx:atemp>10</gpxtpx:atemp>
</gpxtpx:TrackPointExtension>
</extensions>
</trkpt>
<trkpt lat="47.605252331122756" lon="12.200420899316669">
<ele>481</ele>
<time>2012-03-03T12:30:03Z</time>
<extensions>
<gpxtpx:TrackPointExtension>
<gpxtpx:hr>162</gpxtpx:hr>
<gpxtpx:atemp>10</gpxtpx:atemp>
</gpxtpx:TrackPointExtension>
</extensions>
</trkpt>
<trkpt lat="47.60515887290239" lon="12.199708772823215">
<ele>481</ele>
<time>2012-03-03T12:30:10Z</time>
<extensions>
<gpxtpx:TrackPointExtension>
<gpxtpx:hr>162</gpxtpx:hr>
<gpxtpx:atemp>10</gpxtpx:atemp>
</gpxtpx:TrackPointExtension>
</extensions>
</trkpt>
<trkpt lat="47.6050946675241" lon="12.199116256088018">
<ele>481</ele>
<time>2012-03-03T12:30:16Z</time>
<extensions>
<gpxtpx:TrackPointExtension>
<gpxtpx:hr>160</gpxtpx:hr>
<gpxtpx:atemp>10</gpxtpx:atemp>
</gpxtpx:TrackPointExtension>
</extensions>
</trkpt>
<trkpt lat="47.60501654818654" lon="12.19852751120925">
<ele>481</ele>
<time>2012-03-03T12:30:22Z</time>
<extensions>
<gpxtpx:TrackPointExtension>
<gpxtpx:hr>159</gpxtpx:hr>
<gpxtpx:atemp>10</gpxtpx:atemp>
</gpxtpx:TrackPointExtension>
</extensions>
</trkpt>
<trkpt lat="47.60493306443095" lon="12.197674987837672">
<ele>481</ele>
<time>2012-03-03T12:30:30Z</time>
<extensions>
<gpxtpx:TrackPointExtension>
<gpxtpx:hr>159</gpxtpx:hr>
<gpxtpx:atemp>10</gpxtpx:atemp>
</gpxtpx:TrackPointExtension>
</extensions>
</trkpt>
<trkpt lat="47.6048443838954" lon="12.19686227850616">
<ele>481</ele>
<time>2012-03-03T12:30:38Z</time>
<extensions>
<gpxtpx:TrackPointExtension>
<gpxtpx:hr>158</gpxtpx:hr>
<gpxtpx:atemp>10</gpxtpx:atemp>
</gpxtpx:TrackPointExtension>
</extensions>
</trkpt>
<trkpt lat="47.60483181104064" lon="12.196758007630706">
<ele>481</ele>
<time>2012-03-03T12:30:39Z</time>
<extensions>
<gpxtpx:TrackPointExtension>
<gpxtpx:hr>158</gpxtpx:hr>
<gpxtpx:atemp>10</gpxtpx:atemp>
</gpxtpx:TrackPointExtension>
</extensions>
</trkpt>
<trkpt lat="47.60474564507604" lon="12.19596709124744">
<ele>481</ele>
<time>2012-03-03T12:30:47Z</time>
<extensions>
<gpxtpx:TrackPointExtension>
<gpxtpx:hr>157</gpxtpx:hr>
<gpxtpx:atemp>10</gpxtpx:atemp>
</gpxtpx:TrackPointExtension>
</extensions>
</trkpt>
<trkpt lat="47.60473323985934" lon="12.195868184790015">
<ele>481</ele>
<time>2012-03-03T12:30:48Z</time>
<extensions>
<gpxtpx:TrackPointExtension>
<gpxtpx:hr>157</gpxtpx:hr>
<gpxtpx:atemp>10</gpxtpx:atemp>
</gpxtpx:TrackPointExtension>
</extensions>
</trkpt>
<trkpt lat="47.60463441722095" lon="12.195138288661838">
<ele>481</ele>
<time>2012-03-03T12:30:55Z</time>
<extensions>
<gpxtpx:TrackPointExtension>
<gpxtpx:hr>157</gpxtpx:hr>
<gpxtpx:atemp>10</gpxtpx:atemp>
</gpxtpx:TrackPointExtension>
</extensions>
</trkpt>
<trkpt lat="47.60451857931912" lon="12.194330943748355">
<ele>481</ele>
<time>2012-03-03T12:31:03Z</time>
<extensions>
<gpxtpx:TrackPointExtension>
<gpxtpx:hr>156</gpxtpx:hr>
<gpxtpx:atemp>10</gpxtpx:atemp>
</gpxtpx:TrackPointExtension>
</extensions>
</trkpt>
<trkpt lat="47.60445269756019" lon="12.193519407883286">
<ele>481</ele>
<time>2012-03-03T12:31:11Z</time>
<extensions>
<gpxtpx:TrackPointExtension>
<gpxtpx:hr>157</gpxtpx:hr>
<gpxtpx:atemp>10</gpxtpx:atemp>
</gpxtpx:TrackPointExtension>
</extensions>
</trkpt>
<trkpt lat="47.6044350117445" lon="12.192892022430897">
<ele>481</ele>
<time>2012-03-03T12:31:17Z</time>
<extensions>
<gpxtpx:TrackPointExtension>
<gpxtpx:hr>157</gpxtpx:hr>
<gpxtpx:atemp>10</gpxtpx:atemp>
</gpxtpx:TrackPointExtension>
</extensions>
</trkpt>
<trkpt lat="47.60438262484968" lon="12.192201102152467">
<ele>481</ele>
<time>2012-03-03T12:31:24Z</time>
<extensions>
<gpxtpx:TrackPointExtension>
<gpxtpx:hr>158</gpxtpx:hr>
<gpxtpx:atemp>10</gpxtpx:atemp>
</gpxtpx:TrackPointExtension>
</extensions>
</trkpt>
<trkpt lat="47.604359993711114" lon="12.19149417243898">
<ele>481</ele>
<time>2012-03-03T12:31:31Z</time>
<extensions>
<gpxtpx:TrackPointExtension>
<gpxtpx:hr>159</gpxtpx:hr>
<gpxtpx:atemp>10</gpxtpx:atemp>
</gpxtpx:TrackPointExtension>
</extensions>
</trkpt>
<trkpt lat="47.60433937422931" lon="12.190689845010638">
<ele>481</ele>
<time>2012-03-03T12:31:39Z</time>
<extensions>
<gpxtpx:TrackPointExtension>
<gpxtpx:hr>158</gpxtpx:hr>
<gpxtpx:atemp>10</gpxtpx:atemp>
</gpxtpx:TrackPointExtension>
</extensions>
</trkpt>
<trkpt lat="47.60433191433549" lon="12.190001606941223">
<ele>481</ele>
<time>2012-03-03T12:31:46Z</time>
<extensions>
<gpxtpx:TrackPointExtension>
<gpxtpx:hr>158</gpxtpx:hr>
<gpxtpx:atemp>10</gpxtpx:atemp>
</gpxtpx:TrackPointExtension>
</extensions>
</trkpt>
<trkpt lat="47.60431523434818" lon="12.189469607546926">
<ele>481</ele>
<time>2012-03-03T12:31:52Z</time>
<extensions>
<gpxtpx:TrackPointExtension>
<gpxtpx:hr>155</gpxtpx:hr>
<gpxtpx:atemp>10</gpxtpx:atemp>
</gpxtpx:TrackPointExtension>
</extensions>
</trkpt>
<trkpt lat="47.6043158210814" lon="12.1893794182688">
<ele>481</ele>
<time>2012-03-03T12:31:53Z</time>
<extensions>
<gpxtpx:TrackPointExtension>
<gpxtpx:hr>155</gpxtpx:hr>
<gpxtpx:atemp>10</gpxtpx:atemp>
</gpxtpx:TrackPointExtension>
</extensions>
</trkpt>
<trkpt lat="47.60431255213916" lon="12.188934087753296">
<ele>481</ele>
<time>2012-03-03T12:31:57Z</time>
<extensions>
<gpxtpx:TrackPointExtension>
<gpxtpx:hr>155</gpxtpx:hr>
<gpxtpx:atemp>10</gpxtpx:atemp>
</gpxtpx:TrackPointExtension>
</extensions>
</trkpt>
<trkpt lat="47.604306265711784" lon="12.18832396902144">
<ele>481</ele>
<time>2012-03-03T12:32:03Z</time>
<extensions>
<gpxtpx:TrackPointExtension>
<gpxtpx:hr>155</gpxtpx:hr>
<gpxtpx:atemp>10</gpxtpx:atemp>
</gpxtpx:TrackPointExtension>
</extensions>
</trkpt>
<trkpt lat="47.604304337874055" lon="12.187655176967382">
<ele>481</ele>
<time>2012-03-03T12:32:10Z</time>
<extensions>
<gpxtpx:TrackPointExtension>
<gpxtpx:hr>155</gpxtpx:hr>
<gpxtpx:atemp>10</gpxtpx:atemp>
</gpxtpx:TrackPointExtension>
</extensions>
</trkpt>
<trkpt lat="47.60432076640427" lon="12.186933914199471">
<ele>481</ele>
<time>2012-03-03T12:32:17Z</time>
<extensions>
<gpxtpx:TrackPointExtension>
<gpxtpx:hr>154</gpxtpx:hr>
<gpxtpx:atemp>10</gpxtpx:atemp>
</gpxtpx:TrackPointExtension>
</extensions>
</trkpt>
<trkpt lat="47.60428614914417" lon="12.186207203194499">
<ele>481</ele>
<time>2012-03-03T12:32:24Z</time>
<extensions>
<gpxtpx:TrackPointExtension>
<gpxtpx:hr>153</gpxtpx:hr>
<gpxtpx:atemp>10</gpxtpx:atemp>
</gpxtpx:TrackPointExtension>
</extensions>
</trkpt>
<trkpt lat="47.60414675809443" lon="12.185525503009558">
<ele>481</ele>
<time>2012-03-03T12:32:31Z</time>
<extensions>
<gpxtpx:TrackPointExtension>
<gpxtpx:hr>153</gpxtpx:hr>
<gpxtpx:atemp>10</gpxtpx:atemp>
</gpxtpx:TrackPointExtension>
</extensions>
</trkpt>
<trkpt lat="47.603931091725826" lon="12.184686306864023">
<ele>481</ele>
<time>2012-03-03T12:32:40Z</time>
<extensions>
<gpxtpx:TrackPointExtension>
<gpxtpx:hr>154</gpxtpx:hr>
<gpxtpx:atemp>10</gpxtpx:atemp>
</gpxtpx:TrackPointExtension>
</extensions>
</trkpt>
<trkpt lat="47.60373814031482" lon="12.184266792610288">
<ele>481</ele>
<time>2012-03-03T12:32:45Z</time>
<extensions>
<gpxtpx:TrackPointExtension>
<gpxtpx:hr>154</gpxtpx:hr>
<gpxtpx:atemp>10</gpxtpx:atemp>
</gpxtpx:TrackPointExtension>
</extensions>
</trkpt>
<trkpt lat="47.60342977009714" lon="12.18382959254086">
<ele>481</ele>
<time>2012-03-03T12:32:51Z</time>
<extensions>
<gpxtpx:TrackPointExtension>
<gpxtpx:hr>155</gpxtpx:hr>
<gpxtpx:atemp>10</gpxtpx:atemp>
</gpxtpx:TrackPointExtension>
</extensions>
</trkpt>
<trkpt lat="47.603384256362915" lon="12.183743678033352">
<ele>481</ele>
<time>2012-03-03T12:32:52Z</time>
<extensions>
<gpxtpx:TrackPointExtension>
<gpxtpx:hr>155</gpxtpx:hr>
<gpxtpx:atemp>10</gpxtpx:atemp>
</gpxtpx:TrackPointExtension>
</extensions>
</trkpt>
<trkpt lat="47.60327160358429" lon="12.183471098542213">
<ele>481</ele>
<time>2012-03-03T12:32:55Z</time>
<extensions>
<gpxtpx:TrackPointExtension>
<gpxtpx:hr>155</gpxtpx:hr>
<gpxtpx:atemp>10</gpxtpx:atemp>
</gpxtpx:TrackPointExtension>
</extensions>
</trkpt>
<trkpt lat="47.60317521169782" lon="12.183191142976284">
<ele>481</ele>
<time>2012-03-03T12:32:58Z</time>
<extensions>
<gpxtpx:TrackPointExtension>
<gpxtpx:hr>155</gpxtpx:hr>
<gpxtpx:atemp>10</gpxtpx:atemp>
</gpxtpx:TrackPointExtension>
</extensions>
</trkpt>
<trkpt lat="47.60314595885575" lon="12.183098858222365">
<ele>481</ele>
<time>2012-03-03T12:32:59Z</time>
<extensions>
<gpxtpx:TrackPointExtension>
<gpxtpx:hr>156</gpxtpx:hr>
<gpxtpx:atemp>10</gpxtpx:atemp>
</gpxtpx:TrackPointExtension>
</extensions>
</trkpt>
<trkpt lat="47.60311519727111" lon="12.183009507134557">
<ele>482</ele>
<time>2012-03-03T12:33:00Z</time>
<extensions>
<gpxtpx:TrackPointExtension>
<gpxtpx:hr>156</gpxtpx:hr>
<gpxtpx:atemp>10</gpxtpx:atemp>
</gpxtpx:TrackPointExtension>
</extensions>
</trkpt>
<trkpt lat="47.60308317840099" lon="12.182918982580304">
<ele>482</ele>
<time>2012-03-03T12:33:01Z</time>
<extensions>
<gpxtpx:TrackPointExtension>
<gpxtpx:hr>156</gpxtpx:hr>
<gpxtpx:atemp>10</gpxtpx:atemp>
</gpxtpx:TrackPointExtension>
</extensions>
</trkpt>
<trkpt lat="47.60304923169315" lon="12.182828541845083">
<ele>483</ele>
<time>2012-03-03T12:33:02Z</time>
<extensions>
<gpxtpx:TrackPointExtension>
<gpxtpx:hr>156</gpxtpx:hr>
<gpxtpx:atemp>10</gpxtpx:atemp>
</gpxtpx:TrackPointExtension>
</extensions>
</trkpt>
<trkpt lat="47.60276257060468" lon="12.182203084230423">
<ele>483</ele>
<time>2012-03-03T12:33:09Z</time>
<extensions>
<gpxtpx:TrackPointExtension>
<gpxtpx:hr>158</gpxtpx:hr>
<gpxtpx:atemp>10</gpxtpx:atemp>
</gpxtpx:TrackPointExtension>
</extensions>
</trkpt>
<trkpt lat="47.60248680599034" lon="12.18168013729155">
<ele>483</ele>
<time>2012-03-03T12:33:15Z</time>
<extensions>
<gpxtpx:TrackPointExtension>
<gpxtpx:hr>159</gpxtpx:hr>
<gpxtpx:atemp>10</gpxtpx:atemp>
</gpxtpx:TrackPointExtension>
</extensions>
</trkpt>
<trkpt lat="47.6021312456578" lon="12.180963568389416">
<ele>483</ele>
<time>2012-03-03T12:33:23Z</time>
<extensions>
<gpxtpx:TrackPointExtension>
<gpxtpx:hr>160</gpxtpx:hr>
<gpxtpx:atemp>10</gpxtpx:atemp>
</gpxtpx:TrackPointExtension>
</extensions>
</trkpt>
<trkpt lat="47.60180426761508" lon="12.180359568446875">
<ele>483</ele>
<time>2012-03-03T12:33:30Z</time>
<extensions>
<gpxtpx:TrackPointExtension>
<gpxtpx:hr>160</gpxtpx:hr>
<gpxtpx:atemp>10</gpxtpx:atemp>
</gpxtpx:TrackPointExtension>
</extensions>
</trkpt>
<trkpt lat="47.60145985521376" lon="12.179811391979456">
<ele>483</ele>
<time>2012-03-03T12:33:37Z</time>
<extensions>
<gpxtpx:TrackPointExtension>
<gpxtpx:hr>160</gpxtpx:hr>
<gpxtpx:atemp>10</gpxtpx:atemp>
</gpxtpx:TrackPointExtension>
</extensions>
</trkpt>
<trkpt lat="47.60104771703482" lon="12.179356925189495">
<ele>483</ele>
<time>2012-03-03T12:33:44Z</time>
<extensions>
<gpxtpx:TrackPointExtension>
<gpxtpx:hr>159</gpxtpx:hr>
<gpxtpx:atemp>10</gpxtpx:atemp>
</gpxtpx:TrackPointExtension>
</extensions>
</trkpt>
<trkpt lat="47.60060355998576" lon="12.17886515893042">
<ele>483</ele>
<time>2012-03-03T12:33:52Z</time>
<extensions>
<gpxtpx:TrackPointExtension>
<gpxtpx:hr>156</gpxtpx:hr>
<gpxtpx:atemp>10</gpxtpx:atemp>
</gpxtpx:TrackPointExtension>
</extensions>
</trkpt>
<trkpt lat="47.600265350192785" lon="12.178480681031942">
<ele>483</ele>
<time>2012-03-03T12:33:58Z</time>
<extensions>
<gpxtpx:TrackPointExtension>
<gpxtpx:hr>155</gpxtpx:hr>
<gpxtpx:atemp>10</gpxtpx:atemp>
</gpxtpx:TrackPointExtension>
</extensions>
</trkpt>
<trkpt lat="47.60020441375673" lon="12.178444974124432">
<ele>483</ele>
<time>2012-03-03T12:33:59Z</time>
<extensions>
<gpxtpx:TrackPointExtension>
<gpxtpx:hr>154</gpxtpx:hr>
<gpxtpx:atemp>10</gpxtpx:atemp>
</gpxtpx:TrackPointExtension>
</extensions>
</trkpt>
<trkpt lat="47.6000867318362" lon="12.17847472988069">
<ele>483</ele>
<time>2012-03-03T12:34:01Z</time>
<extensions>
<gpxtpx:TrackPointExtension>
<gpxtpx:hr>153</gpxtpx:hr>
<gpxtpx:atemp>10</gpxtpx:atemp>
</gpxtpx:TrackPointExtension>
</extensions>
</trkpt>
<trkpt lat="47.59994264692068" lon="12.178676314651966">
<ele>483</ele>
<time>2012-03-03T12:34:04Z</time>
<extensions>
<gpxtpx:TrackPointExtension>
<gpxtpx:hr>152</gpxtpx:hr>
<gpxtpx:atemp>10</gpxtpx:atemp>
</gpxtpx:TrackPointExtension>
</extensions>
</trkpt>
<trkpt lat="47.59967928752303" lon="12.179045369848609">
<ele>483</ele>
<time>2012-03-03T12:34:10Z</time>
<extensions>
<gpxtpx:TrackPointExtension>
<gpxtpx:hr>150</gpxtpx:hr>
<gpxtpx:atemp>10</gpxtpx:atemp>
</gpxtpx:TrackPointExtension>
</extensions>
</trkpt>
<trkpt lat="47.599581722170115" lon="12.179105300456285">
<ele>483</ele>
<time>2012-03-03T12:34:13Z</time>
<extensions>
<gpxtpx:TrackPointExtension>
<gpxtpx:hr>149</gpxtpx:hr>
<gpxtpx:atemp>10</gpxtpx:atemp>
</gpxtpx:TrackPointExtension>
</extensions>
</trkpt>
<trkpt lat="47.59949463419616" lon="12.178981835022569">
<ele>483</ele>
<time>2012-03-03T12:34:16Z</time>
<extensions>
<gpxtpx:TrackPointExtension>
<gpxtpx:hr>148</gpxtpx:hr>
<gpxtpx:atemp>10</gpxtpx:atemp>
</gpxtpx:TrackPointExtension>
</extensions>
</trkpt>
<trkpt lat="47.59942699223757" lon="12.178837582468987">
<ele>483</ele>
<time>2012-03-03T12:34:19Z</time>
<extensions>
<gpxtpx:TrackPointExtension>
<gpxtpx:hr>148</gpxtpx:hr>
<gpxtpx:atemp>10</gpxtpx:atemp>
</gpxtpx:TrackPointExtension>
</extensions>
</trkpt>
<trkpt lat="47.59943931363523" lon="12.178769269958138">
<ele>483</ele>
<time>2012-03-03T12:34:20Z</time>
<extensions>
<gpxtpx:TrackPointExtension>
<gpxtpx:hr>148</gpxtpx:hr>
<gpxtpx:atemp>10</gpxtpx:atemp>
</gpxtpx:TrackPointExtension>
</extensions>
</trkpt>
<trkpt lat="47.599550038576126" lon="12.1785968542099">
<ele>483</ele>
<time>2012-03-03T12:34:23Z</time>
<extensions>
<gpxtpx:TrackPointExtension>
<gpxtpx:hr>148</gpxtpx:hr>
<gpxtpx:atemp>10</gpxtpx:atemp>
</gpxtpx:TrackPointExtension>
</extensions>
</trkpt>
<trkpt lat="47.599724885076284" lon="12.178380936384201">
<ele>483</ele>
<time>2012-03-03T12:34:27Z</time>
<extensions>
<gpxtpx:TrackPointExtension>
<gpxtpx:hr>145</gpxtpx:hr>
<gpxtpx:atemp>10</gpxtpx:atemp>
</gpxtpx:TrackPointExtension>
</extensions>
</trkpt>
<trkpt lat="47.599770398810506" lon="12.17831782065332">
<ele>483</ele>
<time>2012-03-03T12:34:28Z</time>
<extensions>
<gpxtpx:TrackPointExtension>
<gpxtpx:hr>145</gpxtpx:hr>
<gpxtpx:atemp>10</gpxtpx:atemp>
</gpxtpx:TrackPointExtension>
</extensions>
</trkpt>
<trkpt lat="47.59980250149965" lon="12.178238863125443">
<ele>483</ele>
<time>2012-03-03T12:34:29Z</time>
<extensions>
<gpxtpx:TrackPointExtension>
<gpxtpx:hr>145</gpxtpx:hr>
<gpxtpx:atemp>10</gpxtpx:atemp>
</gpxtpx:TrackPointExtension>
</extensions>
</trkpt>
<trkpt lat="47.599816331639886" lon="12.177971061319113">
<ele>483</ele>
<time>2012-03-03T12:34:32Z</time>
<extensions>
<gpxtpx:TrackPointExtension>
<gpxtpx:hr>144</gpxtpx:hr>
<gpxtpx:atemp>10</gpxtpx:atemp>
</gpxtpx:TrackPointExtension>
</extensions>
</trkpt>
<trkpt lat="47.599707283079624" lon="12.177715664729476">
<ele>483</ele>
<time>2012-03-03T12:34:36Z</time>
<extensions>
<gpxtpx:TrackPointExtension>
<gpxtpx:hr>145</gpxtpx:hr>
<gpxtpx:atemp>10</gpxtpx:atemp>
</gpxtpx:TrackPointExtension>
</extensions>
</trkpt>
<trkpt lat="47.59945699945092" lon="12.177288355305791">
<ele>483</ele>
<time>2012-03-03T12:34:42Z</time>
<extensions>
<gpxtpx:TrackPointExtension>
<gpxtpx:hr>148</gpxtpx:hr>
<gpxtpx:atemp>10</gpxtpx:atemp>
</gpxtpx:TrackPointExtension>
</extensions>
</trkpt>
<trkpt lat="47.59936454705894" lon="12.177141923457384">
<ele>483</ele>
<time>2012-03-03T12:34:44Z</time>
<extensions>
<gpxtpx:TrackPointExtension>
<gpxtpx:hr>148</gpxtpx:hr>
<gpxtpx:atemp>10</gpxtpx:atemp>
</gpxtpx:TrackPointExtension>
</extensions>
</trkpt>
<trkpt lat="47.59902038611472" lon="12.17667899094522">
<ele>483</ele>
<time>2012-03-03T12:34:51Z</time>
<extensions>
<gpxtpx:TrackPointExtension>
<gpxtpx:hr>149</gpxtpx:hr>
<gpxtpx:atemp>10</gpxtpx:atemp>
</gpxtpx:TrackPointExtension>
</extensions>
</trkpt>
<trkpt lat="47.598624089732766" lon="12.176174316555262">
<ele>483</ele>
<time>2012-03-03T12:34:59Z</time>
<extensions>
<gpxtpx:TrackPointExtension>
<gpxtpx:hr>148</gpxtpx:hr>
<gpxtpx:atemp>10</gpxtpx:atemp>
</gpxtpx:TrackPointExtension>
</extensions>
</trkpt>
<trkpt lat="47.59821471758187" lon="12.17569638043642">
<ele>483</ele>
<time>2012-03-03T12:35:07Z</time>
<extensions>
<gpxtpx:TrackPointExtension>
<gpxtpx:hr>148</gpxtpx:hr>
<gpxtpx:atemp>10</gpxtpx:atemp>
</gpxtpx:TrackPointExtension>
</extensions>
</trkpt>
<trkpt lat="47.597873071208596" lon="12.17536747455597">
<ele>483</ele>
<time>2012-03-03T12:35:13Z</time>
<extensions>
<gpxtpx:TrackPointExtension>
<gpxtpx:hr>149</gpxtpx:hr>
<gpxtpx:atemp>10</gpxtpx:atemp>
</gpxtpx:TrackPointExtension>
</extensions>
</trkpt>
<trkpt lat="47.597457244992256" lon="12.175002442672849">
<ele>483</ele>
<time>2012-03-03T12:35:20Z</time>
<extensions>
<gpxtpx:TrackPointExtension>
<gpxtpx:hr>151</gpxtpx:hr>
<gpxtpx:atemp>10</gpxtpx:atemp>
</gpxtpx:TrackPointExtension>
</extensions>
</trkpt>
<trkpt lat="47.59697352536023" lon="12.174565745517612">
<ele>483</ele>
<time>2012-03-03T12:35:28Z</time>
<extensions>
<gpxtpx:TrackPointExtension>
<gpxtpx:hr>152</gpxtpx:hr>
<gpxtpx:atemp>10</gpxtpx:atemp>
</gpxtpx:TrackPointExtension>
</extensions>
</trkpt>
<trkpt lat="47.59648226201534" lon="12.17411756515503">
<ele>483</ele>
<time>2012-03-03T12:35:36Z</time>
<extensions>
<gpxtpx:TrackPointExtension>
<gpxtpx:hr>154</gpxtpx:hr>
<gpxtpx:atemp>10</gpxtpx:atemp>
</gpxtpx:TrackPointExtension>
</extensions>
</trkpt>
<trkpt lat="47.59602670557797" lon="12.173689920455217">
<ele>483</ele>
<time>2012-03-03T12:35:43Z</time>
<extensions>
<gpxtpx:TrackPointExtension>
<gpxtpx:hr>157</gpxtpx:hr>
<gpxtpx:atemp>10</gpxtpx:atemp>
</gpxtpx:TrackPointExtension>
</extensions>
</trkpt>
<trkpt lat="47.59560643695295" lon="12.173198573291302">
<ele>483</ele>
<time>2012-03-03T12:35:50Z</time>
<extensions>
<gpxtpx:TrackPointExtension>
<gpxtpx:hr>158</gpxtpx:hr>
<gpxtpx:atemp>10</gpxtpx:atemp>
</gpxtpx:TrackPointExtension>
</extensions>
</trkpt>
<trkpt lat="47.59523863904178" lon="12.172607984393835">
<ele>483</ele>
<time>2012-03-03T12:35:57Z</time>
<extensions>
<gpxtpx:TrackPointExtension>
<gpxtpx:hr>160</gpxtpx:hr>
<gpxtpx:atemp>10</gpxtpx:atemp>
</gpxtpx:TrackPointExtension>
</extensions>
</trkpt>
<trkpt lat="47.59518817998469" lon="12.172527015209198">
<ele>483</ele>
<time>2012-03-03T12:35:58Z</time>
<extensions>
<gpxtpx:TrackPointExtension>
<gpxtpx:hr>160</gpxtpx:hr>
<gpxtpx:atemp>10</gpxtpx:atemp>
</gpxtpx:TrackPointExtension>
</extensions>
</trkpt>
<trkpt lat="47.59476657025516" lon="12.171890744939446">
<ele>483</ele>
<time>2012-03-03T12:36:06Z</time>
<extensions>
<gpxtpx:TrackPointExtension>
<gpxtpx:hr>160</gpxtpx:hr>
<gpxtpx:atemp>10</gpxtpx:atemp>
</gpxtpx:TrackPointExtension>
</extensions>
</trkpt>
<trkpt lat="47.5947074778378" lon="12.171810613945127">
<ele>483</ele>
<time>2012-03-03T12:36:07Z</time>
<extensions>
<gpxtpx:TrackPointExtension>
<gpxtpx:hr>160</gpxtpx:hr>
<gpxtpx:atemp>10</gpxtpx:atemp>
</gpxtpx:TrackPointExtension>
</extensions>
</trkpt>
<trkpt lat="47.59440782479942" lon="12.171368887647986">
<ele>483</ele>
<time>2012-03-03T12:36:13Z</time>
<extensions>
<gpxtpx:TrackPointExtension>
<gpxtpx:hr>159</gpxtpx:hr>
<gpxtpx:atemp>10</gpxtpx:atemp>
</gpxtpx:TrackPointExtension>
</extensions>
</trkpt>
<trkpt lat="47.5942722056061" lon="12.171095050871372">
<ele>483</ele>
<time>2012-03-03T12:36:17Z</time>
<extensions>
<gpxtpx:TrackPointExtension>
<gpxtpx:hr>158</gpxtpx:hr>
<gpxtpx:atemp>10</gpxtpx:atemp>
</gpxtpx:TrackPointExtension>
</extensions>
</trkpt>
<trkpt lat="47.59423146955669" lon="12.171049620956182">
<ele>483</ele>
<time>2012-03-03T12:36:18Z</time>
<extensions>
<gpxtpx:TrackPointExtension>
<gpxtpx:hr>158</gpxtpx:hr>
<gpxtpx:atemp>10</gpxtpx:atemp>
</gpxtpx:TrackPointExtension>
</extensions>
</trkpt>
<trkpt lat="47.594126192852855" lon="12.171044759452343">
<ele>483</ele>
<time>2012-03-03T12:36:20Z</time>
<extensions>
<gpxtpx:TrackPointExtension>
<gpxtpx:hr>157</gpxtpx:hr>
<gpxtpx:atemp>10</gpxtpx:atemp>
</gpxtpx:TrackPointExtension>
</extensions>
</trkpt>
<trkpt lat="47.594004068523645" lon="12.171148946508765">
<ele>483</ele>
<time>2012-03-03T12:36:22Z</time>
<extensions>
<gpxtpx:TrackPointExtension>
<gpxtpx:hr>156</gpxtpx:hr>
<gpxtpx:atemp>10</gpxtpx:atemp>
</gpxtpx:TrackPointExtension>
</extensions>
</trkpt>
<trkpt lat="47.59394472464919" lon="12.171201752498746">
<ele>483</ele>
<time>2012-03-03T12:36:23Z</time>
<extensions>
<gpxtpx:TrackPointExtension>
<gpxtpx:hr>156</gpxtpx:hr>
<gpxtpx:atemp>10</gpxtpx:atemp>
</gpxtpx:TrackPointExtension>
</extensions>
</trkpt>
<trkpt lat="47.5936989672482" lon="12.17149662785232">
<ele>483</ele>
<time>2012-03-03T12:36:28Z</time>
<extensions>
<gpxtpx:TrackPointExtension>
<gpxtpx:hr>154</gpxtpx:hr>
<gpxtpx:atemp>10</gpxtpx:atemp>
</gpxtpx:TrackPointExtension>
</extensions>
</trkpt>
<trkpt lat="47.59344474412501" lon="12.171842632815242">
<ele>483</ele>
<time>2012-03-03T12:36:34Z</time>
<extensions>
<gpxtpx:TrackPointExtension>
<gpxtpx:hr>151</gpxtpx:hr>
<gpxtpx:atemp>10</gpxtpx:atemp>
</gpxtpx:TrackPointExtension>
</extensions>
</trkpt>
<trkpt lat="47.593336366117" lon="12.171780858188868">
<ele>483</ele>
<time>2012-03-03T12:36:37Z</time>
<extensions>
<gpxtpx:TrackPointExtension>
<gpxtpx:hr>149</gpxtpx:hr>
<gpxtpx:atemp>10</gpxtpx:atemp>
</gpxtpx:TrackPointExtension>
</extensions>
</trkpt>
<trkpt lat="47.593262773007154" lon="12.171602323651314">
<ele>483</ele>
<time>2012-03-03T12:36:40Z</time>
<extensions>
<gpxtpx:TrackPointExtension>
<gpxtpx:hr>148</gpxtpx:hr>
<gpxtpx:atemp>10</gpxtpx:atemp>
</gpxtpx:TrackPointExtension>
</extensions>
</trkpt>
<trkpt lat="47.59323385544121" lon="12.171528646722436">
<ele>483</ele>
<time>2012-03-03T12:36:41Z</time>
<extensions>
<gpxtpx:TrackPointExtension>
<gpxtpx:hr>148</gpxtpx:hr>
<gpxtpx:atemp>10</gpxtpx:atemp>
</gpxtpx:TrackPointExtension>
</extensions>
</trkpt>
<trkpt lat="47.59304132312536" lon="12.171077029779553">
<ele>483</ele>
<time>2012-03-03T12:36:47Z</time>
<extensions>
<gpxtpx:TrackPointExtension>
<gpxtpx:hr>147</gpxtpx:hr>
<gpxtpx:atemp>10</gpxtpx:atemp>
</gpxtpx:TrackPointExtension>
</extensions>
</trkpt>
<trkpt lat="47.59282817132771" lon="12.170863877981901">
<ele>483</ele>
<time>2012-03-03T12:36:51Z</time>
<extensions>
<gpxtpx:TrackPointExtension>
<gpxtpx:hr>148</gpxtpx:hr>
<gpxtpx:atemp>10</gpxtpx:atemp>
</gpxtpx:TrackPointExtension>
</extensions>
</trkpt>
<trkpt lat="47.592645697295666" lon="12.170827751979232">
<ele>483</ele>
<time>2012-03-03T12:36:54Z</time>
<extensions>
<gpxtpx:TrackPointExtension>
<gpxtpx:hr>149</gpxtpx:hr>
<gpxtpx:atemp>10</gpxtpx:atemp>
</gpxtpx:TrackPointExtension>
</extensions>
</trkpt>
<trkpt lat="47.592588532716036" lon="12.17084376141429">
<ele>483</ele>
<time>2012-03-03T12:36:55Z</time>
<extensions>
<gpxtpx:TrackPointExtension>
<gpxtpx:hr>149</gpxtpx:hr>
<gpxtpx:atemp>10</gpxtpx:atemp>
</gpxtpx:TrackPointExtension>
</extensions>
</trkpt>
<trkpt lat="47.592418966814876" lon="12.170968735590577">
<ele>483</ele>
<time>2012-03-03T12:36:58Z</time>
<extensions>
<gpxtpx:TrackPointExtension>
<gpxtpx:hr>149</gpxtpx:hr>
<gpxtpx:atemp>10</gpxtpx:atemp>
</gpxtpx:TrackPointExtension>
</extensions>
</trkpt>
<trkpt lat="47.59229080751538" lon="12.17117702588439">
<ele>483</ele>
<time>2012-03-03T12:37:01Z</time>
<extensions>
<gpxtpx:TrackPointExtension>
<gpxtpx:hr>149</gpxtpx:hr>
<gpxtpx:atemp>10</gpxtpx:atemp>
</gpxtpx:TrackPointExtension>
</extensions>
</trkpt>
<trkpt lat="47.59225007146597" lon="12.171242320910096">
<ele>484</ele>
<time>2012-03-03T12:37:02Z</time>
<extensions>
<gpxtpx:TrackPointExtension>
<gpxtpx:hr>150</gpxtpx:hr>
<gpxtpx:atemp>10</gpxtpx:atemp>
</gpxtpx:TrackPointExtension>
</extensions>
</trkpt>
<trkpt lat="47.592211263254285" lon="12.171310633420944">
<ele>484</ele>
<time>2012-03-03T12:37:03Z</time>
<extensions>
<gpxtpx:TrackPointExtension>
<gpxtpx:hr>150</gpxtpx:hr>
<gpxtpx:atemp>10</gpxtpx:atemp>
</gpxtpx:TrackPointExtension>
</extensions>
</trkpt>
<trkpt lat="47.5921758916229" lon="12.171382131054997">
<ele>484</ele>
<time>2012-03-03T12:37:04Z</time>
<extensions>
<gpxtpx:TrackPointExtension>
<gpxtpx:hr>150</gpxtpx:hr>
<gpxtpx:atemp>10</gpxtpx:atemp>
</gpxtpx:TrackPointExtension>
</extensions>
</trkpt>
<trkpt lat="47.592142364010215" lon="12.171456897631288">
<ele>485</ele>
<time>2012-03-03T12:37:05Z</time>
<extensions>
<gpxtpx:TrackPointExtension>
<gpxtpx:hr>150</gpxtpx:hr>
<gpxtpx:atemp>10</gpxtpx:atemp>
</gpxtpx:TrackPointExtension>
</extensions>
</trkpt>
<trkpt lat="47.591941617429256" lon="12.171800304204226">
<ele>485</ele>
<time>2012-03-03T12:37:10Z</time>
<extensions>
<gpxtpx:TrackPointExtension>
<gpxtpx:hr>151</gpxtpx:hr>
<gpxtpx:atemp>10</gpxtpx:atemp>
</gpxtpx:TrackPointExtension>
</extensions>
</trkpt>
<trkpt lat="47.59162176400423" lon="12.172337165102363">
<ele>484</ele>
<time>2012-03-03T12:37:18Z</time>
<extensions>
<gpxtpx:TrackPointExtension>
<gpxtpx:hr>152</gpxtpx:hr>
<gpxtpx:atemp>10</gpxtpx:atemp>
</gpxtpx:TrackPointExtension>
</extensions>
</trkpt>
<trkpt lat="47.59156686253846" lon="12.172381589189172">
<ele>484</ele>
<time>2012-03-03T12:37:19Z</time>
<extensions>
<gpxtpx:TrackPointExtension>
<gpxtpx:hr>152</gpxtpx:hr>
<gpxtpx:atemp>10</gpxtpx:atemp>
</gpxtpx:TrackPointExtension>
</extensions>
</trkpt>
<trkpt lat="47.59151673875749" lon="12.172441855072975">
<ele>484</ele>
<time>2012-03-03T12:37:20Z</time>
<extensions>
<gpxtpx:TrackPointExtension>
<gpxtpx:hr>153</gpxtpx:hr>
<gpxtpx:atemp>10</gpxtpx:atemp>
</gpxtpx:TrackPointExtension>
</extensions>
</trkpt>
<trkpt lat="47.591484133154154" lon="12.17252617701888">
<ele>483</ele>
<time>2012-03-03T12:37:21Z</time>
<extensions>
<gpxtpx:TrackPointExtension>
<gpxtpx:hr>153</gpxtpx:hr>
<gpxtpx:atemp>10</gpxtpx:atemp>
</gpxtpx:TrackPointExtension>
</extensions>
</trkpt>
<trkpt lat="47.59146108292043" lon="12.172615863382816">
<ele>483</ele>
<time>2012-03-03T12:37:22Z</time>
<extensions>
<gpxtpx:TrackPointExtension>
<gpxtpx:hr>154</gpxtpx:hr>
<gpxtpx:atemp>10</gpxtpx:atemp>
</gpxtpx:TrackPointExtension>
</extensions>
</trkpt>
<trkpt lat="47.591433925554156" lon="12.172707309946418">
<ele>483</ele>
<time>2012-03-03T12:37:23Z</time>
<extensions>
<gpxtpx:TrackPointExtension>
<gpxtpx:hr>154</gpxtpx:hr>
<gpxtpx:atemp>10</gpxtpx:atemp>
</gpxtpx:TrackPointExtension>
</extensions>
</trkpt>
<trkpt lat="47.59139352478087" lon="12.172778388485312">
<ele>483</ele>
<time>2012-03-03T12:37:24Z</time>
<extensions>
<gpxtpx:TrackPointExtension>
<gpxtpx:hr>155</gpxtpx:hr>
<gpxtpx:atemp>10</gpxtpx:atemp>
</gpxtpx:TrackPointExtension>
</extensions>
</trkpt>
<trkpt lat="47.591310711577535" lon="12.172903278842568">
<ele>483</ele>
<time>2012-03-03T12:37:26Z</time>
<extensions>
<gpxtpx:TrackPointExtension>
<gpxtpx:hr>155</gpxtpx:hr>
<gpxtpx:atemp>10</gpxtpx:atemp>
</gpxtpx:TrackPointExtension>
</extensions>
</trkpt>
<trkpt lat="47.59113670326769" lon="12.17325079254806">
<ele>483</ele>
<time>2012-03-03T12:37:31Z</time>
<extensions>
<gpxtpx:TrackPointExtension>
<gpxtpx:hr>157</gpxtpx:hr>
<gpxtpx:atemp>10</gpxtpx:atemp>
</gpxtpx:TrackPointExtension>
</extensions>
</trkpt>
<trkpt lat="47.591106444597244" lon="12.173319272696972">
<ele>484</ele>
<time>2012-03-03T12:37:32Z</time>
<extensions>
<gpxtpx:TrackPointExtension>
<gpxtpx:hr>158</gpxtpx:hr>
<gpxtpx:atemp>10</gpxtpx:atemp>
</gpxtpx:TrackPointExtension>
</extensions>
</trkpt>
<trkpt lat="47.59107501246035" lon="12.173387333750725">
<ele>484</ele>
<time>2012-03-03T12:37:33Z</time>
<extensions>
<gpxtpx:TrackPointExtension>
<gpxtpx:hr>158</gpxtpx:hr>
<gpxtpx:atemp>10</gpxtpx:atemp>
</gpxtpx:TrackPointExtension>
</extensions>
</trkpt>
<trkpt lat="47.59103964082897" lon="12.17345648445189">
<ele>485</ele>
<time>2012-03-03T12:37:34Z</time>
<extensions>
<gpxtpx:TrackPointExtension>
<gpxtpx:hr>158</gpxtpx:hr>
<gpxtpx:atemp>10</gpxtpx:atemp>
</gpxtpx:TrackPointExtension>
</extensions>
</trkpt>
<trkpt lat="47.591012651100755" lon="12.173524713143706">
<ele>485</ele>
<time>2012-03-03T12:37:35Z</time>
<extensions>
<gpxtpx:TrackPointExtension>
<gpxtpx:hr>159</gpxtpx:hr>
<gpxtpx:atemp>10</gpxtpx:atemp>
</gpxtpx:TrackPointExtension>
</extensions>
</trkpt>
<trkpt lat="47.59092019870877" lon="12.173725962638855">
<ele>485</ele>
<time>2012-03-03T12:37:38Z</time>
<extensions>
<gpxtpx:TrackPointExtension>
<gpxtpx:hr>159</gpxtpx:hr>
<gpxtpx:atemp>10</gpxtpx:atemp>
</gpxtpx:TrackPointExtension>
</extensions>
</trkpt>
<trkpt lat="47.590898321941495" lon="12.173799136653543">
<ele>485</ele>
<time>2012-03-03T12:37:39Z</time>
<extensions>
<gpxtpx:TrackPointExtension>
<gpxtpx:hr>160</gpxtpx:hr>
<gpxtpx:atemp>10</gpxtpx:atemp>
</gpxtpx:TrackPointExtension>
</extensions>
</trkpt>
<trkpt lat="47.59079933166504" lon="12.174070039764047">
<ele>485</ele>
<time>2012-03-03T12:37:43Z</time>
<extensions>
<gpxtpx:TrackPointExtension>
<gpxtpx:hr>162</gpxtpx:hr>
<gpxtpx:atemp>10</gpxtpx:atemp>
</gpxtpx:TrackPointExtension>
</extensions>
</trkpt>
<trkpt lat="47.59074526838958" lon="12.17422024346888">
<ele>486</ele>
<time>2012-03-03T12:37:45Z</time>
<extensions>
<gpxtpx:TrackPointExtension>
<gpxtpx:hr>162</gpxtpx:hr>
<gpxtpx:atemp>10</gpxtpx:atemp>
</gpxtpx:TrackPointExtension>
</extensions>
</trkpt>
<trkpt lat="47.59071593172848" lon="12.174296183511615">
<ele>486</ele>
<time>2012-03-03T12:37:46Z</time>
<extensions>
<gpxtpx:TrackPointExtension>
<gpxtpx:hr>162</gpxtpx:hr>
<gpxtpx:atemp>10</gpxtpx:atemp>
</gpxtpx:TrackPointExtension>
</extensions>
</trkpt>
<trkpt lat="47.590690702199936" lon="12.174371033906937">
<ele>487</ele>
<time>2012-03-03T12:37:47Z</time>
<extensions>
<gpxtpx:TrackPointExtension>
<gpxtpx:hr>163</gpxtpx:hr>
<gpxtpx:atemp>10</gpxtpx:atemp>
</gpxtpx:TrackPointExtension>
</extensions>
</trkpt>
<trkpt lat="47.59066932834685" lon="12.174447812139988">
<ele>487</ele>
<time>2012-03-03T12:37:48Z</time>
<extensions>
<gpxtpx:TrackPointExtension>
<gpxtpx:hr>163</gpxtpx:hr>
<gpxtpx:atemp>10</gpxtpx:atemp>
</gpxtpx:TrackPointExtension>
</extensions>
</trkpt>
<trkpt lat="47.59064460173249" lon="12.174526937305927">
<ele>488</ele>
<time>2012-03-03T12:37:49Z</time>
<extensions>
<gpxtpx:TrackPointExtension>
<gpxtpx:hr>163</gpxtpx:hr>
<gpxtpx:atemp>10</gpxtpx:atemp>
</gpxtpx:TrackPointExtension>
</extensions>
</trkpt>
<trkpt lat="47.59056203998625" lon="12.174746375530958">
<ele>488</ele>
<time>2012-03-03T12:37:52Z</time>
<extensions>
<gpxtpx:TrackPointExtension>
<gpxtpx:hr>163</gpxtpx:hr>
<gpxtpx:atemp>10</gpxtpx:atemp>
</gpxtpx:TrackPointExtension>
</extensions>
</trkpt>
<trkpt lat="47.59046849794686" lon="12.174845030531287">
<ele>488</ele>
<time>2012-03-03T12:37:54Z</time>
<extensions>
<gpxtpx:TrackPointExtension>
<gpxtpx:hr>165</gpxtpx:hr>
<gpxtpx:atemp>10</gpxtpx:atemp>
</gpxtpx:TrackPointExtension>
</extensions>
</trkpt>
<trkpt lat="47.5903073977679" lon="12.174798008054495">
<ele>488</ele>
<time>2012-03-03T12:37:57Z</time>
<extensions>
<gpxtpx:TrackPointExtension>
<gpxtpx:hr>165</gpxtpx:hr>
<gpxtpx:atemp>10</gpxtpx:atemp>
</gpxtpx:TrackPointExtension>
</extensions>
</trkpt>
<trkpt lat="47.590258698910475" lon="12.174760792404413">
<ele>488</ele>
<time>2012-03-03T12:37:58Z</time>
<extensions>
<gpxtpx:TrackPointExtension>
<gpxtpx:hr>166</gpxtpx:hr>
<gpxtpx:atemp>10</gpxtpx:atemp>
</gpxtpx:TrackPointExtension>
</extensions>
</trkpt>
<trkpt lat="47.58990339003503" lon="12.174517214298248">
<ele>488</ele>
<time>2012-03-03T12:38:05Z</time>
<extensions>
<gpxtpx:TrackPointExtension>
<gpxtpx:hr>166</gpxtpx:hr>
<gpxtpx:atemp>10</gpxtpx:atemp>
</gpxtpx:TrackPointExtension>
</extensions>
</trkpt>
<trkpt lat="47.58956593461335" lon="12.174297021701932">
<ele>488</ele>
<time>2012-03-03T12:38:12Z</time>
<extensions>
<gpxtpx:TrackPointExtension>
<gpxtpx:hr>164</gpxtpx:hr>
<gpxtpx:atemp>10</gpxtpx:atemp>
</gpxtpx:TrackPointExtension>
</extensions>
</trkpt>
<trkpt lat="47.58946199901402" lon="12.174200545996428">
<ele>488</ele>
<time>2012-03-03T12:38:15Z</time>
<extensions>
<gpxtpx:TrackPointExtension>
<gpxtpx:hr>163</gpxtpx:hr>
<gpxtpx:atemp>10</gpxtpx:atemp>
</gpxtpx:TrackPointExtension>
</extensions>
</trkpt>
<trkpt lat="47.589432997629046" lon="12.17414983548224">
<ele>488</ele>
<time>2012-03-03T12:38:17Z</time>
<extensions>
<gpxtpx:TrackPointExtension>
<gpxtpx:hr>162</gpxtpx:hr>
<gpxtpx:atemp>10</gpxtpx:atemp>
</gpxtpx:TrackPointExtension>
</extensions>
</trkpt>
<trkpt lat="47.58944012224674" lon="12.17414447106421">
<ele>488</ele>
<time>2012-03-03T12:38:19Z</time>
<extensions>
<gpxtpx:TrackPointExtension>
<gpxtpx:hr>161</gpxtpx:hr>
<gpxtpx:atemp>10</gpxtpx:atemp>
</gpxtpx:TrackPointExtension>
</extensions>
</trkpt>
</trkseg>
</trk>
</gpx>
